<?xml version='1.0' encoding='UTF-8'?><gpx version="1.1" creator="JPX - https://github.com/jenetics/jpx" xmlns="http://www.topografix.com/GPX/1/1"><trk><trkseg><trkpt lat="41.68932624000404" lon="15.304886438956173"><ele>128.99999999999997</ele><time>2026-04-19T16:04:33Z</time></trkpt><trkpt lat="41.689391928711466" lon="15.304850906284846"><ele>129.0</ele><time>2026-04-19T16:04:36Z</time></trkpt><trkpt lat="41.68945558353066" lon="15.304815733217273"><ele>129.0</ele><time>2026-04-19T16:04:48Z</time></trkpt><trkpt lat="41.68952395403342" lon="15.304782188937942"><ele>129.0</ele><time>2026-04-19T16:04:50Z</time></trkpt><trkpt lat="41.68956693384885" lon="15.30471897892037"><ele>129.0</ele><time>2026-04-19T16:04:52Z</time></trkpt><trkpt lat="41.68961530538123" lon="15.304617428069003"><ele>128.99999999999997</ele><time>2026-04-19T16:04:55Z</time></trkpt><trkpt lat="41.68968535530021" lon="15.304570624367175"><ele>129.0</ele><time>2026-04-19T16:04:57Z</time></trkpt><trkpt lat="41.68975851506432" lon="15.304563851404287"><ele>128.83333333333334</ele><time>2026-04-19T16:04:59Z</time></trkpt><trkpt lat="41.689813463236526" lon="15.304514493711586"><ele>128.66666666666666</ele><time>2026-04-19T16:06:21Z</time></trkpt><trkpt lat="41.68987652998908" lon="15.304565796840127"><ele>128.5</ele><time>2026-04-19T16:06:25Z</time></trkpt><trkpt lat="41.68994075721163" lon="15.304602645364707"><ele>128.33333333333331</ele><time>2026-04-19T16:09:01Z</time></trkpt><trkpt lat="41.69002627334545" lon="15.30465983582354"><ele>128.16666666666666</ele><time>2026-04-19T16:09:04Z</time></trkpt><trkpt lat="41.69010395239558" lon="15.304708175341686"><ele>128.0</ele><time>2026-04-19T16:09:06Z</time></trkpt><trkpt lat="41.69019789788138" lon="15.304762463434065"><ele>127.60000000000001</ele><time>2026-04-19T16:09:08Z</time></trkpt><trkpt lat="41.69029193919285" lon="15.304822578562376"><ele>127.20000000000002</ele><time>2026-04-19T16:09:10Z</time></trkpt><trkpt lat="41.69040043907567" lon="15.304897523539907"><ele>126.8</ele><time>2026-04-19T16:09:12Z</time></trkpt><trkpt lat="41.69050629607109" lon="15.304976413261523"><ele>126.4</ele><time>2026-04-19T16:09:14Z</time></trkpt><trkpt lat="41.69056355704379" lon="15.305011454761583"><ele>126.0</ele><time>2026-04-19T16:09:15Z</time></trkpt><trkpt lat="41.69067344998625" lon="15.305081576946332"><ele>126.0</ele><time>2026-04-19T16:09:17Z</time></trkpt><trkpt lat="41.69078262201841" lon="15.30515653029728"><ele>126.0</ele><time>2026-04-19T16:09:19Z</time></trkpt><trkpt lat="41.69083984550284" lon="15.305197238034218"><ele>126.0</ele><time>2026-04-19T16:09:20Z</time></trkpt><trkpt lat="41.690896844817516" lon="15.305236812257123"><ele>126.0</ele><time>2026-04-19T16:09:21Z</time></trkpt><trkpt lat="41.69095556411615" lon="15.305276056092614"><ele>126.0</ele><time>2026-04-19T16:09:22Z</time></trkpt><trkpt lat="41.69101520163164" lon="15.305316958436228"><ele>126.0</ele><time>2026-04-19T16:09:23Z</time></trkpt><trkpt lat="41.691073852808145" lon="15.305358048508833"><ele>125.83333333333333</ele><time>2026-04-19T16:09:24Z</time></trkpt><trkpt lat="41.69113155508928" lon="15.305399837578967"><ele>125.66666666666666</ele><time>2026-04-19T16:09:25Z</time></trkpt><trkpt lat="41.69119045992839" lon="15.305442049461801"><ele>125.5</ele><time>2026-04-19T16:09:26Z</time></trkpt><trkpt lat="41.69125077552906" lon="15.30548224708466"><ele>125.33333333333333</ele><time>2026-04-19T16:09:27Z</time></trkpt><trkpt lat="41.69131030828329" lon="15.30552018028655"><ele>125.16666666666666</ele><time>2026-04-19T16:09:28Z</time></trkpt><trkpt lat="41.691417555165934" lon="15.305589357901836"><ele>125.0</ele><time>2026-04-19T16:09:30Z</time></trkpt><trkpt lat="41.69150828633164" lon="15.305657928599055"><ele>124.4</ele><time>2026-04-19T16:09:32Z</time></trkpt><trkpt lat="41.69160223152766" lon="15.305726034595397"><ele>123.8</ele><time>2026-04-19T16:09:34Z</time></trkpt><trkpt lat="41.69168953245467" lon="15.305817685172517"><ele>123.19999999999999</ele><time>2026-04-19T16:09:36Z</time></trkpt><trkpt lat="41.69173134097565" lon="15.305962013489424"><ele>122.6</ele><time>2026-04-19T16:09:38Z</time></trkpt><trkpt lat="41.69168615774623" lon="15.306059442165667"><ele>122.0</ele><time>2026-04-19T16:09:39Z</time></trkpt><trkpt lat="41.69165033022176" lon="15.306154159654193"><ele>122.0</ele><time>2026-04-19T16:09:40Z</time></trkpt><trkpt lat="41.691613702192285" lon="15.30625486375108"><ele>121.99999999999999</ele><time>2026-04-19T16:09:41Z</time></trkpt><trkpt lat="41.69156524213553" lon="15.306369374564365"><ele>121.99999999999999</ele><time>2026-04-19T16:09:42Z</time></trkpt><trkpt lat="41.691512507632446" lon="15.30648692253835"><ele>122.0</ele><time>2026-04-19T16:09:43Z</time></trkpt><trkpt lat="41.691455995884205" lon="15.306604019186386"><ele>122.0</ele><time>2026-04-19T16:09:44Z</time></trkpt><trkpt lat="41.691402073693006" lon="15.306722186080028"><ele>121.39999999999999</ele><time>2026-04-19T16:09:45Z</time></trkpt><trkpt lat="41.691335749731756" lon="15.30682289710088"><ele>120.79999999999998</ele><time>2026-04-19T16:09:46Z</time></trkpt><trkpt lat="41.69127925465541" lon="15.30694075608585"><ele>120.2</ele><time>2026-04-19T16:09:47Z</time></trkpt><trkpt lat="41.691221892778216" lon="15.307059153948627"><ele>119.6</ele><time>2026-04-19T16:09:48Z</time></trkpt><trkpt lat="41.69115963558632" lon="15.307186252881202"><ele>119.0</ele><time>2026-04-19T16:09:49Z</time></trkpt><trkpt lat="41.69109318287707" lon="15.307321917345453"><ele>118.5</ele><time>2026-04-19T16:09:50Z</time></trkpt><trkpt lat="41.69102814182139" lon="15.307455690347895"><ele>118.0</ele><time>2026-04-19T16:09:51Z</time></trkpt><trkpt lat="41.690961354447644" lon="15.307593219414173"><ele>117.5</ele><time>2026-04-19T16:09:52Z</time></trkpt><trkpt lat="41.69089472113602" lon="15.30773043115413"><ele>117.0</ele><time>2026-04-19T16:09:53Z</time></trkpt><trkpt lat="41.69083969401245" lon="15.307883496999708"><ele>117.0</ele><time>2026-04-19T16:09:54Z</time></trkpt><trkpt lat="41.690775506804755" lon="15.308015528190577"><ele>117.0</ele><time>2026-04-19T16:09:55Z</time></trkpt><trkpt lat="41.69071555624545" lon="15.308143128770821"><ele>117.0</ele><time>2026-04-19T16:09:56Z</time></trkpt><trkpt lat="41.69065765512113" lon="15.308270066781786"><ele>117.0</ele><time>2026-04-19T16:09:57Z</time></trkpt><trkpt lat="41.690603914284594" lon="15.308401050510216"><ele>117.0</ele><time>2026-04-19T16:09:58Z</time></trkpt><trkpt lat="41.690555789922655" lon="15.308536640381641"><ele>117.0</ele><time>2026-04-19T16:09:59Z</time></trkpt><trkpt lat="41.69049727213891" lon="15.308664540869245"><ele>117.0</ele><time>2026-04-19T16:10:00Z</time></trkpt><trkpt lat="41.690448891429995" lon="15.30880276535001"><ele>117.0</ele><time>2026-04-19T16:10:01Z</time></trkpt><trkpt lat="41.69039970076518" lon="15.30894539835176"><ele>116.0</ele><time>2026-04-19T16:10:02Z</time></trkpt><trkpt lat="41.69035023514847" lon="15.309089340219085"><ele>115.0</ele><time>2026-04-19T16:10:03Z</time></trkpt><trkpt lat="41.69030068859753" lon="15.30923351759101"><ele>114.0</ele><time>2026-04-19T16:10:04Z</time></trkpt><trkpt lat="41.69025022704802" lon="15.309380357594785"><ele>113.0</ele><time>2026-04-19T16:10:05Z</time></trkpt><trkpt lat="41.69020011992374" lon="15.309526168456014"><ele>113.0</ele><time>2026-04-19T16:10:06Z</time></trkpt><trkpt lat="41.69016311885779" lon="15.30968225891219"><ele>113.0</ele><time>2026-04-19T16:10:07Z</time></trkpt><trkpt lat="41.69010789856978" lon="15.309831104580526"><ele>113.0</ele><time>2026-04-19T16:10:08Z</time></trkpt><trkpt lat="41.690056697718354" lon="15.309977079625893"><ele>113.0</ele><time>2026-04-19T16:10:09Z</time></trkpt><trkpt lat="41.690010742339325" lon="15.310120270927685"><ele>112.80000000000001</ele><time>2026-04-19T16:10:10Z</time></trkpt><trkpt lat="41.68996915805966" lon="15.310264131565084"><ele>112.60000000000001</ele><time>2026-04-19T16:10:11Z</time></trkpt><trkpt lat="41.689946999483354" lon="15.310396026385877"><ele>112.39999999999999</ele><time>2026-04-19T16:10:12Z</time></trkpt><trkpt lat="41.68992568094851" lon="15.310523853773637"><ele>112.19999999999999</ele><time>2026-04-19T16:10:13Z</time></trkpt><trkpt lat="41.689911718340646" lon="15.310645761043904"><ele>112.0</ele><time>2026-04-19T16:10:14Z</time></trkpt><trkpt lat="41.68989838231155" lon="15.310749206408952"><ele>111.66666666666667</ele><time>2026-04-19T16:10:15Z</time></trkpt><trkpt lat="41.68989059517021" lon="15.310864716933391"><ele>111.33333333333334</ele><time>2026-04-19T16:10:16Z</time></trkpt><trkpt lat="41.689888292428044" lon="15.310981886943832"><ele>111.0</ele><time>2026-04-19T16:10:17Z</time></trkpt><trkpt lat="41.68988611318617" lon="15.31108014942261"><ele>110.66666666666666</ele><time>2026-04-19T16:10:18Z</time></trkpt><trkpt lat="41.68988124144454" lon="15.31116917221534"><ele>110.33333333333333</ele><time>2026-04-19T16:10:19Z</time></trkpt><trkpt lat="41.68987995465296" lon="15.311317592604466"><ele>110.0</ele><time>2026-04-19T16:10:21Z</time></trkpt><trkpt lat="41.689859510284045" lon="15.311430257687576"><ele>110.0</ele><time>2026-04-19T16:10:23Z</time></trkpt><trkpt lat="41.689944364942995" lon="15.31150616012971"><ele>110.0</ele><time>2026-04-19T16:10:25Z</time></trkpt><trkpt lat="41.690006617306594" lon="15.311578826374177"><ele>110.0</ele><time>2026-04-19T16:10:28Z</time></trkpt><trkpt lat="41.68986999401485" lon="15.311585591823697"><ele>110.0</ele><time>2026-04-19T16:10:29Z</time></trkpt><trkpt lat="41.69006005712091" lon="15.311669232821629"><ele>109.99999999999999</ele><time>2026-04-19T16:10:34Z</time></trkpt><trkpt lat="41.69005046289088" lon="15.311753958409948"><ele>110.0</ele><time>2026-04-19T16:11:55Z</time></trkpt><trkpt lat="41.69009140762048" lon="15.311883477443644"><ele>110.0</ele><time>2026-04-19T16:18:53Z</time></trkpt><trkpt lat="41.6900306049646" lon="15.311910717624297"><ele>110.0</ele><time>2026-04-19T16:18:57Z</time></trkpt><trkpt lat="41.68996263549833" lon="15.311918184069608"><ele>109.99999999999999</ele><time>2026-04-19T16:19:00Z</time></trkpt><trkpt lat="41.689891933335524" lon="15.311939205538662"><ele>110.0</ele><time>2026-04-19T16:19:33Z</time></trkpt><trkpt lat="41.68984343914852" lon="15.312064550923711"><ele>110.0</ele><time>2026-04-19T16:19:36Z</time></trkpt><trkpt lat="41.689839595672" lon="15.312157064070965"><ele>110.0</ele><time>2026-04-19T16:19:37Z</time></trkpt><trkpt lat="41.689840815668624" lon="15.312333293979016"><ele>110.0</ele><time>2026-04-19T16:19:39Z</time></trkpt><trkpt lat="41.68983807367233" lon="15.312441529433237"><ele>110.0</ele><time>2026-04-19T16:19:40Z</time></trkpt><trkpt lat="41.68982950345982" lon="15.312551764534721"><ele>110.0</ele><time>2026-04-19T16:19:41Z</time></trkpt><trkpt lat="41.68982030302426" lon="15.312665473353055"><ele>109.8</ele><time>2026-04-19T16:19:42Z</time></trkpt><trkpt lat="41.68981179031251" lon="15.31278592470243"><ele>109.6</ele><time>2026-04-19T16:19:43Z</time></trkpt><trkpt lat="41.689784061904625" lon="15.312902135971699"><ele>109.4</ele><time>2026-04-19T16:19:44Z</time></trkpt><trkpt lat="41.6897847780636" lon="15.313033878600017"><ele>109.2</ele><time>2026-04-19T16:19:45Z</time></trkpt><trkpt lat="41.689769080188725" lon="15.31317067713751"><ele>109.0</ele><time>2026-04-19T16:19:46Z</time></trkpt><trkpt lat="41.6897540780339" lon="15.313313245435369"><ele>108.5</ele><time>2026-04-19T16:19:47Z</time></trkpt><trkpt lat="41.689721760310945" lon="15.313454902581704"><ele>108.0</ele><time>2026-04-19T16:19:48Z</time></trkpt><trkpt lat="41.68970514239862" lon="15.313602898968549"><ele>107.5</ele><time>2026-04-19T16:19:49Z</time></trkpt><trkpt lat="41.68968783340368" lon="15.313757050175166"><ele>107.0</ele><time>2026-04-19T16:19:50Z</time></trkpt><trkpt lat="41.68967067177571" lon="15.313909889001623"><ele>106.5</ele><time>2026-04-19T16:19:51Z</time></trkpt><trkpt lat="41.689654375860194" lon="15.3140550177315"><ele>106.0</ele><time>2026-04-19T16:19:52Z</time></trkpt><trkpt lat="41.689637441814654" lon="15.314205829851678"><ele>105.5</ele><time>2026-04-19T16:19:53Z</time></trkpt><trkpt lat="41.68962053175924" lon="15.314356428141608"><ele>105.0</ele><time>2026-04-19T16:19:54Z</time></trkpt><trkpt lat="41.68960335389372" lon="15.31451068134041"><ele>105.0</ele><time>2026-04-19T16:19:55Z</time></trkpt><trkpt lat="41.68958728419196" lon="15.314657988304651"><ele>105.0</ele><time>2026-04-19T16:19:56Z</time></trkpt><trkpt lat="41.689569354824464" lon="15.314809707687324"><ele>105.0</ele><time>2026-04-19T16:19:57Z</time></trkpt><trkpt lat="41.6895526845511" lon="15.314960994234706"><ele>105.0</ele><time>2026-04-19T16:19:58Z</time></trkpt><trkpt lat="41.68953547327955" lon="15.315115895696405"><ele>104.75</ele><time>2026-04-19T16:19:59Z</time></trkpt><trkpt lat="41.68953440162144" lon="15.315266507530042"><ele>104.5</ele><time>2026-04-19T16:20:00Z</time></trkpt><trkpt lat="41.68950367487706" lon="15.315414198710634"><ele>104.25</ele><time>2026-04-19T16:20:01Z</time></trkpt><trkpt lat="41.68948905573146" lon="15.315562941319719"><ele>104.0</ele><time>2026-04-19T16:20:02Z</time></trkpt><trkpt lat="41.68948860049085" lon="15.315717741955897"><ele>103.5</ele><time>2026-04-19T16:20:03Z</time></trkpt><trkpt lat="41.689479537470156" lon="15.315871874925332"><ele>103.0</ele><time>2026-04-19T16:20:04Z</time></trkpt><trkpt lat="41.68945838542751" lon="15.316036296991559"><ele>102.5</ele><time>2026-04-19T16:20:05Z</time></trkpt><trkpt lat="41.68945461734808" lon="15.316206282435113"><ele>102.0</ele><time>2026-04-19T16:20:06Z</time></trkpt><trkpt lat="41.68945359425016" lon="15.316382869127926"><ele>101.75</ele><time>2026-04-19T16:20:07Z</time></trkpt><trkpt lat="41.689468795450175" lon="15.316561271788487"><ele>101.5</ele><time>2026-04-19T16:20:08Z</time></trkpt><trkpt lat="41.68946730400243" lon="15.316741258952652"><ele>101.25</ele><time>2026-04-19T16:20:09Z</time></trkpt><trkpt lat="41.6894662953912" lon="15.31692478225951"><ele>101.0</ele><time>2026-04-19T16:20:10Z</time></trkpt><trkpt lat="41.68946624975954" lon="15.31711116220538"><ele>101.25</ele><time>2026-04-19T16:20:11Z</time></trkpt><trkpt lat="41.68946676198331" lon="15.317294827922153"><ele>101.5</ele><time>2026-04-19T16:20:12Z</time></trkpt><trkpt lat="41.68945084369779" lon="15.317475570481651"><ele>101.75</ele><time>2026-04-19T16:20:13Z</time></trkpt><trkpt lat="41.68944928352567" lon="15.317655570944641"><ele>102.0</ele><time>2026-04-19T16:20:14Z</time></trkpt><trkpt lat="41.68944984369762" lon="15.317837192386971"><ele>102.0</ele><time>2026-04-19T16:20:15Z</time></trkpt><trkpt lat="41.68944984369699" lon="15.31802835910734"><ele>102.0</ele><time>2026-04-19T16:20:16Z</time></trkpt><trkpt lat="41.68944934633654" lon="15.318207536162872"><ele>102.0</ele><time>2026-04-19T16:20:17Z</time></trkpt><trkpt lat="41.68944873256257" lon="15.318389790150512"><ele>102.0</ele><time>2026-04-19T16:20:18Z</time></trkpt><trkpt lat="41.689448103822585" lon="15.318576488189239"><ele>102.0</ele><time>2026-04-19T16:20:19Z</time></trkpt><trkpt lat="41.68944745451332" lon="15.318769294238068"><ele>102.0</ele><time>2026-04-19T16:20:20Z</time></trkpt><trkpt lat="41.68944678717099" lon="15.318967454696185"><ele>102.0</ele><time>2026-04-19T16:20:21Z</time></trkpt><trkpt lat="41.689446098012006" lon="15.319172093715963"><ele>102.0</ele><time>2026-04-19T16:20:22Z</time></trkpt><trkpt lat="41.68944541009429" lon="15.319376363532756"><ele>101.75</ele><time>2026-04-19T16:20:23Z</time></trkpt><trkpt lat="41.68944474358401" lon="15.319574277884655"><ele>101.5</ele><time>2026-04-19T16:20:24Z</time></trkpt><trkpt lat="41.68944355680797" lon="15.319757962214702"><ele>101.25</ele><time>2026-04-19T16:20:25Z</time></trkpt><trkpt lat="41.68944251698684" lon="15.31993043381102"><ele>101.0</ele><time>2026-04-19T16:20:26Z</time></trkpt><trkpt lat="41.68944155051873" lon="15.320090740520989"><ele>100.5</ele><time>2026-04-19T16:20:27Z</time></trkpt><trkpt lat="41.68944092915723" lon="15.32025436917266"><ele>100.0</ele><time>2026-04-19T16:20:28Z</time></trkpt><trkpt lat="41.68944020665523" lon="15.320422037722507"><ele>99.5</ele><time>2026-04-19T16:20:29Z</time></trkpt><trkpt lat="41.689439513770424" lon="15.320582833129148"><ele>99.0</ele><time>2026-04-19T16:20:30Z</time></trkpt><trkpt lat="41.689438777257344" lon="15.320753753968882"><ele>99.0</ele><time>2026-04-19T16:20:31Z</time></trkpt><trkpt lat="41.68943845175816" lon="15.320912645671196"><ele>99.0</ele><time>2026-04-19T16:20:32Z</time></trkpt><trkpt lat="41.68943794571137" lon="15.321077127814297"><ele>99.0</ele><time>2026-04-19T16:20:33Z</time></trkpt><trkpt lat="41.68943743797498" lon="15.321242158821002"><ele>99.0</ele><time>2026-04-19T16:20:34Z</time></trkpt><trkpt lat="41.68943693445411" lon="15.321405819840141"><ele>98.75</ele><time>2026-04-19T16:20:35Z</time></trkpt><trkpt lat="41.68943645041138" lon="15.321563149809329"><ele>98.5</ele><time>2026-04-19T16:20:36Z</time></trkpt><trkpt lat="41.68943595212205" lon="15.32172511029378"><ele>98.25</ele><time>2026-04-19T16:20:37Z</time></trkpt><trkpt lat="41.68943499160492" lon="15.321891968237166"><ele>98.0</ele><time>2026-04-19T16:20:38Z</time></trkpt><trkpt lat="41.689433897107456" lon="15.322061089780735"><ele>97.75</ele><time>2026-04-19T16:20:39Z</time></trkpt><trkpt lat="41.6894327782129" lon="15.322233981492268"><ele>97.5</ele><time>2026-04-19T16:20:40Z</time></trkpt><trkpt lat="41.68943158072706" lon="15.322419016841936"><ele>97.25</ele><time>2026-04-19T16:20:41Z</time></trkpt><trkpt lat="41.68943035766735" lon="15.322608007490853"><ele>97.0</ele><time>2026-04-19T16:20:42Z</time></trkpt><trkpt lat="41.68942958552236" lon="15.322804611312048"><ele>97.0</ele><time>2026-04-19T16:20:43Z</time></trkpt><trkpt lat="41.68942868051934" lon="15.323000031714942"><ele>97.0</ele><time>2026-04-19T16:20:44Z</time></trkpt><trkpt lat="41.68942775093355" lon="15.323198999008794"><ele>97.0</ele><time>2026-04-19T16:20:45Z</time></trkpt><trkpt lat="41.68942671640609" lon="15.32340281797271"><ele>97.0</ele><time>2026-04-19T16:20:46Z</time></trkpt><trkpt lat="41.68942573045527" lon="15.32359706637222"><ele>97.0</ele><time>2026-04-19T16:20:47Z</time></trkpt><trkpt lat="41.68942470432656" lon="15.32379923065166"><ele>97.0</ele><time>2026-04-19T16:20:48Z</time></trkpt><trkpt lat="41.68942370392641" lon="15.323996325959008"><ele>97.0</ele><time>2026-04-19T16:20:49Z</time></trkpt><trkpt lat="41.68942267854468" lon="15.324198342954636"><ele>97.0</ele><time>2026-04-19T16:20:50Z</time></trkpt><trkpt lat="41.68942172853559" lon="15.324385510596136"><ele>97.0</ele><time>2026-04-19T16:20:51Z</time></trkpt><trkpt lat="41.68942070583139" lon="15.324580649543734"><ele>97.0</ele><time>2026-04-19T16:20:52Z</time></trkpt><trkpt lat="41.68941970765322" lon="15.324771201896437"><ele>97.0</ele><time>2026-04-19T16:20:53Z</time></trkpt><trkpt lat="41.6894187011671" lon="15.324963493724722"><ele>97.0</ele><time>2026-04-19T16:20:54Z</time></trkpt><trkpt lat="41.68941775724255" lon="15.325147068224586"><ele>97.5</ele><time>2026-04-19T16:20:55Z</time></trkpt><trkpt lat="41.68941676311629" lon="15.325340406144495"><ele>98.0</ele><time>2026-04-19T16:20:56Z</time></trkpt><trkpt lat="41.689415775263335" lon="15.32553252365933"><ele>98.5</ele><time>2026-04-19T16:20:57Z</time></trkpt><trkpt lat="41.689414747860404" lon="15.325732332877537"><ele>99.0</ele><time>2026-04-19T16:20:58Z</time></trkpt><trkpt lat="41.689413743690274" lon="15.325932523814924"><ele>99.0</ele><time>2026-04-19T16:20:59Z</time></trkpt><trkpt lat="41.689412781171505" lon="15.326133057388098"><ele>99.0</ele><time>2026-04-19T16:21:00Z</time></trkpt><trkpt lat="41.68941179446361" lon="15.326328480186396"><ele>99.0</ele><time>2026-04-19T16:21:01Z</time></trkpt><trkpt lat="41.68941079891203" lon="15.326525654606481"><ele>99.0</ele><time>2026-04-19T16:21:02Z</time></trkpt><trkpt lat="41.68940988169632" lon="15.326707314165004"><ele>99.0</ele><time>2026-04-19T16:21:03Z</time></trkpt><trkpt lat="41.68940889263133" lon="15.326903204072144"><ele>99.0</ele><time>2026-04-19T16:21:04Z</time></trkpt><trkpt lat="41.689407878807344" lon="15.32710399717621"><ele>99.0</ele><time>2026-04-19T16:21:05Z</time></trkpt><trkpt lat="41.6894069664944" lon="15.32728468565068"><ele>99.0</ele><time>2026-04-19T16:21:06Z</time></trkpt><trkpt lat="41.689406015067654" lon="15.327473121128126"><ele>98.5</ele><time>2026-04-19T16:21:07Z</time></trkpt><trkpt lat="41.68940513349017" lon="15.327647722356394"><ele>98.0</ele><time>2026-04-19T16:21:08Z</time></trkpt><trkpt lat="41.689405471513865" lon="15.327830564641603"><ele>97.5</ele><time>2026-04-19T16:21:09Z</time></trkpt><trkpt lat="41.68940430464366" lon="15.328014232120058"><ele>97.0</ele><time>2026-04-19T16:21:10Z</time></trkpt><trkpt lat="41.68940246053014" lon="15.328199381107964"><ele>96.5</ele><time>2026-04-19T16:21:11Z</time></trkpt><trkpt lat="41.68940064410634" lon="15.328381749909134"><ele>96.0</ele><time>2026-04-19T16:21:12Z</time></trkpt><trkpt lat="41.6893988395206" lon="15.328562930215199"><ele>95.5</ele><time>2026-04-19T16:21:13Z</time></trkpt><trkpt lat="41.68939747533329" lon="15.328746133404158"><ele>95.0</ele><time>2026-04-19T16:21:14Z</time></trkpt><trkpt lat="41.68939614784504" lon="15.328927766794445"><ele>94.5</ele><time>2026-04-19T16:21:15Z</time></trkpt><trkpt lat="41.689394780764914" lon="15.329114817381292"><ele>94.0</ele><time>2026-04-19T16:21:16Z</time></trkpt><trkpt lat="41.689393146078075" lon="15.32930530447538"><ele>93.5</ele><time>2026-04-19T16:21:17Z</time></trkpt><trkpt lat="41.68939154412604" lon="15.329491241622648"><ele>93.0</ele><time>2026-04-19T16:21:18Z</time></trkpt><trkpt lat="41.68938988010173" lon="15.329684383597986"><ele>92.75</ele><time>2026-04-19T16:21:19Z</time></trkpt><trkpt lat="41.68938829798942" lon="15.329868017974173"><ele>92.5</ele><time>2026-04-19T16:21:20Z</time></trkpt><trkpt lat="41.68938660742235" lon="15.330064240784608"><ele>92.25</ele><time>2026-04-19T16:21:21Z</time></trkpt><trkpt lat="41.68938496704912" lon="15.330254637351572"><ele>92.0</ele><time>2026-04-19T16:21:22Z</time></trkpt><trkpt lat="41.689383336771606" lon="15.330443862471435"><ele>92.0</ele><time>2026-04-19T16:21:23Z</time></trkpt><trkpt lat="41.6893817049865" lon="15.330635191860223"><ele>92.0</ele><time>2026-04-19T16:21:24Z</time></trkpt><trkpt lat="41.68938055259134" lon="15.33082529850413"><ele>92.0</ele><time>2026-04-19T16:21:25Z</time></trkpt><trkpt lat="41.68937942078729" lon="15.33101200835238"><ele>92.0</ele><time>2026-04-19T16:21:26Z</time></trkpt><trkpt lat="41.68937827803898" lon="15.331200523673484"><ele>91.0</ele><time>2026-04-19T16:21:27Z</time></trkpt><trkpt lat="41.689377070580356" lon="15.331399714048414"><ele>90.0</ele><time>2026-04-19T16:21:28Z</time></trkpt><trkpt lat="41.689375863378594" lon="15.331598862148118"><ele>89.0</ele><time>2026-04-19T16:21:29Z</time></trkpt><trkpt lat="41.689373896331375" lon="15.331804394925912"><ele>89.0</ele><time>2026-04-19T16:21:30Z</time></trkpt><trkpt lat="41.689372152067335" lon="15.332014590719107"><ele>89.0</ele><time>2026-04-19T16:21:31Z</time></trkpt><trkpt lat="41.689370428872884" lon="15.332225509782834"><ele>89.0</ele><time>2026-04-19T16:21:32Z</time></trkpt><trkpt lat="41.68936870317017" lon="15.33243674125921"><ele>88.33333333333334</ele><time>2026-04-19T16:21:33Z</time></trkpt><trkpt lat="41.68936695961562" lon="15.332648317646575"><ele>87.66666666666667</ele><time>2026-04-19T16:21:34Z</time></trkpt><trkpt lat="41.68936531696141" lon="15.332848299890568"><ele>87.0</ele><time>2026-04-19T16:21:35Z</time></trkpt><trkpt lat="41.68936364336361" lon="15.33305204916156"><ele>87.0</ele><time>2026-04-19T16:21:36Z</time></trkpt><trkpt lat="41.68936200832661" lon="15.333251103904235"><ele>87.0</ele><time>2026-04-19T16:21:37Z</time></trkpt><trkpt lat="41.689360356759785" lon="15.333452170997486"><ele>87.0</ele><time>2026-04-19T16:21:38Z</time></trkpt><trkpt lat="41.68935874849332" lon="15.333647966776525"><ele>87.0</ele><time>2026-04-19T16:21:39Z</time></trkpt><trkpt lat="41.68935713003403" lon="15.333845003178432"><ele>87.66666666666667</ele><time>2026-04-19T16:21:40Z</time></trkpt><trkpt lat="41.68935549958861" lon="15.33404349898775"><ele>88.33333333333334</ele><time>2026-04-19T16:21:41Z</time></trkpt><trkpt lat="41.68935383277725" lon="15.334246422167602"><ele>89.0</ele><time>2026-04-19T16:21:42Z</time></trkpt><trkpt lat="41.68935212984611" lon="15.334453742445092"><ele>89.0</ele><time>2026-04-19T16:21:43Z</time></trkpt><trkpt lat="41.68935037552702" lon="15.334667319113914"><ele>89.0</ele><time>2026-04-19T16:21:44Z</time></trkpt><trkpt lat="41.68934862177528" lon="15.334880826813542"><ele>89.0</ele><time>2026-04-19T16:21:45Z</time></trkpt><trkpt lat="41.68934684454391" lon="15.33509719284487"><ele>89.0</ele><time>2026-04-19T16:21:46Z</time></trkpt><trkpt lat="41.68934509659592" lon="15.33530999377308"><ele>89.0</ele><time>2026-04-19T16:21:47Z</time></trkpt><trkpt lat="41.68935711610682" lon="15.335523612082293"><ele>89.0</ele><time>2026-04-19T16:21:48Z</time></trkpt><trkpt lat="41.68935546667101" lon="15.33573303959478"><ele>89.0</ele><time>2026-04-19T16:21:49Z</time></trkpt><trkpt lat="41.689354893134954" lon="15.33593639722344"><ele>89.0</ele><time>2026-04-19T16:21:50Z</time></trkpt><trkpt lat="41.689354109908365" lon="15.336136082115466"><ele>89.0</ele><time>2026-04-19T16:21:51Z</time></trkpt><trkpt lat="41.68935090581238" lon="15.336334487754918"><ele>89.0</ele><time>2026-04-19T16:21:52Z</time></trkpt><trkpt lat="41.689346731253636" lon="15.336528865821888"><ele>89.0</ele><time>2026-04-19T16:21:53Z</time></trkpt><trkpt lat="41.689340426090915" lon="15.336724739880102"><ele>89.0</ele><time>2026-04-19T16:21:54Z</time></trkpt><trkpt lat="41.689339991177576" lon="15.336900848690357"><ele>89.0</ele><time>2026-04-19T16:21:55Z</time></trkpt><trkpt lat="41.689345491777054" lon="15.337093800579837"><ele>89.0</ele><time>2026-04-19T16:21:56Z</time></trkpt><trkpt lat="41.68934585055126" lon="15.337282512667757"><ele>89.25</ele><time>2026-04-19T16:21:57Z</time></trkpt><trkpt lat="41.68934525354445" lon="15.337474946272028"><ele>89.5</ele><time>2026-04-19T16:21:58Z</time></trkpt><trkpt lat="41.68932745555617" lon="15.337670908817197"><ele>89.75</ele><time>2026-04-19T16:21:59Z</time></trkpt><trkpt lat="41.689325872081994" lon="15.337864599506181"><ele>90.0</ele><time>2026-04-19T16:22:00Z</time></trkpt><trkpt lat="41.6893242459226" lon="15.33806351144427"><ele>90.66666666666667</ele><time>2026-04-19T16:22:01Z</time></trkpt><trkpt lat="41.68933599423389" lon="15.338266604578157"><ele>91.33333333333334</ele><time>2026-04-19T16:22:02Z</time></trkpt><trkpt lat="41.689331557676766" lon="15.338469569233071"><ele>92.0</ele><time>2026-04-19T16:22:03Z</time></trkpt><trkpt lat="41.68932864556795" lon="15.33867029876429"><ele>92.33333333333334</ele><time>2026-04-19T16:22:04Z</time></trkpt><trkpt lat="41.68932554056802" lon="15.338885495998914"><ele>92.66666666666667</ele><time>2026-04-19T16:22:05Z</time></trkpt><trkpt lat="41.689324302617166" lon="15.339095925795242"><ele>93.0</ele><time>2026-04-19T16:22:06Z</time></trkpt><trkpt lat="41.689321824368484" lon="15.339305548708"><ele>93.0</ele><time>2026-04-19T16:22:07Z</time></trkpt><trkpt lat="41.689322724143935" lon="15.339507920361383"><ele>93.0</ele><time>2026-04-19T16:22:08Z</time></trkpt><trkpt lat="41.68932472456871" lon="15.339712921738096"><ele>93.0</ele><time>2026-04-19T16:22:09Z</time></trkpt><trkpt lat="41.68932244400031" lon="15.339933072770657"><ele>93.0</ele><time>2026-04-19T16:22:10Z</time></trkpt><trkpt lat="41.68932357309042" lon="15.340177996430766"><ele>93.0</ele><time>2026-04-19T16:22:11Z</time></trkpt><trkpt lat="41.68932201422231" lon="15.34034572602757"><ele>93.0</ele><time>2026-04-19T16:22:12Z</time></trkpt><trkpt lat="41.689323037837106" lon="15.340560166957424"><ele>93.66666666666667</ele><time>2026-04-19T16:22:13Z</time></trkpt><trkpt lat="41.68932297760249" lon="15.340773567393608"><ele>94.33333333333334</ele><time>2026-04-19T16:22:14Z</time></trkpt><trkpt lat="41.689320629947076" lon="15.340990871767929"><ele>95.0</ele><time>2026-04-19T16:22:15Z</time></trkpt><trkpt lat="41.689316914579244" lon="15.341190947516603"><ele>94.66666666666667</ele><time>2026-04-19T16:22:16Z</time></trkpt><trkpt lat="41.68931266754798" lon="15.341405620856522"><ele>94.33333333333333</ele><time>2026-04-19T16:22:17Z</time></trkpt><trkpt lat="41.68931244489783" lon="15.341612378047927"><ele>94.0</ele><time>2026-04-19T16:22:18Z</time></trkpt><trkpt lat="41.68931521211927" lon="15.341808584528884"><ele>94.0</ele><time>2026-04-19T16:22:19Z</time></trkpt><trkpt lat="41.689318354762335" lon="15.342011996517272"><ele>94.0</ele><time>2026-04-19T16:22:20Z</time></trkpt><trkpt lat="41.68931724672984" lon="15.342213479757053"><ele>94.0</ele><time>2026-04-19T16:22:21Z</time></trkpt><trkpt lat="41.689315283815425" lon="15.342414084686114"><ele>94.0</ele><time>2026-04-19T16:22:22Z</time></trkpt><trkpt lat="41.68931216941104" lon="15.342617975371803"><ele>94.0</ele><time>2026-04-19T16:22:23Z</time></trkpt><trkpt lat="41.68931164401089" lon="15.3428117636415"><ele>94.0</ele><time>2026-04-19T16:22:24Z</time></trkpt><trkpt lat="41.68930526028367" lon="15.342973007209089"><ele>94.0</ele><time>2026-04-19T16:22:25Z</time></trkpt><trkpt lat="41.68929694897883" lon="15.343090167085913"><ele>94.0</ele><time>2026-04-19T16:22:26Z</time></trkpt><trkpt lat="41.68928795932546" lon="15.343187384959839"><ele>94.0</ele><time>2026-04-19T16:22:27Z</time></trkpt><trkpt lat="41.68927591201817" lon="15.343281727173352"><ele>94.0</ele><time>2026-04-19T16:22:28Z</time></trkpt><trkpt lat="41.68925735270225" lon="15.343362707473053"><ele>94.0</ele><time>2026-04-19T16:22:29Z</time></trkpt><trkpt lat="41.6891871150814" lon="15.343509609937222"><ele>94.0</ele><time>2026-04-19T16:22:31Z</time></trkpt><trkpt lat="41.68912719000405" lon="15.34356834659985"><ele>94.0</ele><time>2026-04-19T16:22:32Z</time></trkpt><trkpt lat="41.68906337031542" lon="15.343612416782024"><ele>94.0</ele><time>2026-04-19T16:22:33Z</time></trkpt><trkpt lat="41.68899245772768" lon="15.343663394831303"><ele>94.0</ele><time>2026-04-19T16:22:34Z</time></trkpt><trkpt lat="41.68893763120194" lon="15.343735533970296"><ele>94.0</ele><time>2026-04-19T16:22:35Z</time></trkpt><trkpt lat="41.68883836164052" lon="15.343767384917754"><ele>94.0</ele><time>2026-04-19T16:22:36Z</time></trkpt><trkpt lat="41.688749183220835" lon="15.34382504668335"><ele>94.0</ele><time>2026-04-19T16:22:37Z</time></trkpt><trkpt lat="41.688651980137415" lon="15.343881610879178"><ele>93.75</ele><time>2026-04-19T16:22:38Z</time></trkpt><trkpt lat="41.68854830739958" lon="15.343937281613183"><ele>93.5</ele><time>2026-04-19T16:22:39Z</time></trkpt><trkpt lat="41.68843891757676" lon="15.343987553539302"><ele>93.25</ele><time>2026-04-19T16:22:40Z</time></trkpt><trkpt lat="41.68832577360478" lon="15.344044393461354"><ele>93.0</ele><time>2026-04-19T16:22:41Z</time></trkpt><trkpt lat="41.688216558053284" lon="15.344094609531002"><ele>93.0</ele><time>2026-04-19T16:22:42Z</time></trkpt><trkpt lat="41.68810624349936" lon="15.34414685519538"><ele>93.0</ele><time>2026-04-19T16:22:43Z</time></trkpt><trkpt lat="41.68799965200092" lon="15.34420036766962"><ele>93.0</ele><time>2026-04-19T16:22:44Z</time></trkpt><trkpt lat="41.68790096829856" lon="15.344248367647443"><ele>93.0</ele><time>2026-04-19T16:22:45Z</time></trkpt><trkpt lat="41.68780460296134" lon="15.344294059310666"><ele>93.0</ele><time>2026-04-19T16:22:46Z</time></trkpt><trkpt lat="41.68770721798671" lon="15.344314366538356"><ele>93.2</ele><time>2026-04-19T16:22:47Z</time></trkpt><trkpt lat="41.68762556589947" lon="15.34436106477056"><ele>93.4</ele><time>2026-04-19T16:22:48Z</time></trkpt><trkpt lat="41.687536825558055" lon="15.344410758191083"><ele>93.60000000000001</ele><time>2026-04-19T16:22:49Z</time></trkpt><trkpt lat="41.687450836821014" lon="15.34445528438976"><ele>93.80000000000001</ele><time>2026-04-19T16:22:50Z</time></trkpt><trkpt lat="41.68736893834845" lon="15.344521356071168"><ele>94.0</ele><time>2026-04-19T16:22:51Z</time></trkpt><trkpt lat="41.687296597638046" lon="15.344587925417882"><ele>94.0</ele><time>2026-04-19T16:22:52Z</time></trkpt><trkpt lat="41.687224165387484" lon="15.34465388993032"><ele>94.0</ele><time>2026-04-19T16:22:53Z</time></trkpt><trkpt lat="41.687137238923285" lon="15.344728353319027"><ele>94.0</ele><time>2026-04-19T16:22:54Z</time></trkpt><trkpt lat="41.68705121458381" lon="15.344808461202435"><ele>94.0</ele><time>2026-04-19T16:22:55Z</time></trkpt><trkpt lat="41.68696901546061" lon="15.344891925264502"><ele>94.0</ele><time>2026-04-19T16:22:56Z</time></trkpt><trkpt lat="41.686900339625666" lon="15.344966372782572"><ele>94.16666666666666</ele><time>2026-04-19T16:22:57Z</time></trkpt><trkpt lat="41.68683861783348" lon="15.345026472017935"><ele>94.33333333333333</ele><time>2026-04-19T16:22:58Z</time></trkpt><trkpt lat="41.686760071164265" lon="15.345093302063104"><ele>94.5</ele><time>2026-04-19T16:23:00Z</time></trkpt><trkpt lat="41.68669741422852" lon="15.345149192006057"><ele>94.66666666666667</ele><time>2026-04-19T16:23:03Z</time></trkpt><trkpt lat="41.68662847393262" lon="15.345199645764032"><ele>94.83333333333334</ele><time>2026-04-19T16:23:05Z</time></trkpt><trkpt lat="41.68654953423487" lon="15.345239510698043"><ele>95.0</ele><time>2026-04-19T16:23:07Z</time></trkpt><trkpt lat="41.686445475962344" lon="15.345266449797569"><ele>95.0</ele><time>2026-04-19T16:23:09Z</time></trkpt><trkpt lat="41.68636973625992" lon="15.34528644331727"><ele>95.0</ele><time>2026-04-19T16:23:10Z</time></trkpt><trkpt lat="41.68627607138575" lon="15.345311673045561"><ele>95.0</ele><time>2026-04-19T16:23:11Z</time></trkpt><trkpt lat="41.68616679524564" lon="15.34532964976313"><ele>95.0</ele><time>2026-04-19T16:23:12Z</time></trkpt><trkpt lat="41.68604006235595" lon="15.345350886101796"><ele>95.0</ele><time>2026-04-19T16:23:13Z</time></trkpt><trkpt lat="41.68590552587343" lon="15.34537306103435"><ele>96.0</ele><time>2026-04-19T16:23:14Z</time></trkpt><trkpt lat="41.685762056487995" lon="15.345401962062892"><ele>97.0</ele><time>2026-04-19T16:23:15Z</time></trkpt><trkpt lat="41.68560908379787" lon="15.345430331313647"><ele>98.0</ele><time>2026-04-19T16:23:16Z</time></trkpt><trkpt lat="41.68545343905599" lon="15.345458188120583"><ele>98.0</ele><time>2026-04-19T16:23:17Z</time></trkpt><trkpt lat="41.685299881304374" lon="15.345480511062219"><ele>98.0</ele><time>2026-04-19T16:23:18Z</time></trkpt><trkpt lat="41.68514444768494" lon="15.345511007395668"><ele>98.0</ele><time>2026-04-19T16:23:19Z</time></trkpt><trkpt lat="41.68499035303711" lon="15.34554035474727"><ele>98.33333333333333</ele><time>2026-04-19T16:23:20Z</time></trkpt><trkpt lat="41.68483430400861" lon="15.345575540120917"><ele>98.66666666666666</ele><time>2026-04-19T16:23:21Z</time></trkpt><trkpt lat="41.68468000841181" lon="15.345599109846358"><ele>99.0</ele><time>2026-04-19T16:23:22Z</time></trkpt><trkpt lat="41.6845255926589" lon="15.345631366421719"><ele>100.0</ele><time>2026-04-19T16:23:23Z</time></trkpt><trkpt lat="41.68437126049008" lon="15.345660369911728"><ele>101.0</ele><time>2026-04-19T16:23:24Z</time></trkpt><trkpt lat="41.68421663168578" lon="15.345690773418013"><ele>102.0</ele><time>2026-04-19T16:23:25Z</time></trkpt><trkpt lat="41.68406085402726" lon="15.345720010261322"><ele>102.0</ele><time>2026-04-19T16:23:26Z</time></trkpt><trkpt lat="41.68390036017184" lon="15.345751665119398"><ele>102.0</ele><time>2026-04-19T16:23:27Z</time></trkpt><trkpt lat="41.683735380161295" lon="15.345784086527278"><ele>102.0</ele><time>2026-04-19T16:23:28Z</time></trkpt><trkpt lat="41.68356515528124" lon="15.345816959997622"><ele>102.33333333333334</ele><time>2026-04-19T16:23:29Z</time></trkpt><trkpt lat="41.683398061764656" lon="15.345848786892306"><ele>102.66666666666667</ele><time>2026-04-19T16:23:30Z</time></trkpt><trkpt lat="41.683231409374464" lon="15.345882368269198"><ele>103.0</ele><time>2026-04-19T16:23:31Z</time></trkpt><trkpt lat="41.6830627855873" lon="15.345915531465138"><ele>103.0</ele><time>2026-04-19T16:23:32Z</time></trkpt><trkpt lat="41.68289753843564" lon="15.345944961102537"><ele>103.0</ele><time>2026-04-19T16:23:33Z</time></trkpt><trkpt lat="41.68273196895642" lon="15.345973307030057"><ele>103.0</ele><time>2026-04-19T16:23:34Z</time></trkpt><trkpt lat="41.682565206045474" lon="15.346002532445985"><ele>103.0</ele><time>2026-04-19T16:23:35Z</time></trkpt><trkpt lat="41.68239513658476" lon="15.346032007381138"><ele>103.0</ele><time>2026-04-19T16:23:36Z</time></trkpt><trkpt lat="41.682228446212385" lon="15.346064804680696"><ele>103.0</ele><time>2026-04-19T16:23:37Z</time></trkpt><trkpt lat="41.68206280030897" lon="15.346096497642385"><ele>103.0</ele><time>2026-04-19T16:23:38Z</time></trkpt><trkpt lat="41.68189827756752" lon="15.346126254901286"><ele>103.0</ele><time>2026-04-19T16:23:39Z</time></trkpt><trkpt lat="41.681729311477326" lon="15.346156481529881"><ele>103.0</ele><time>2026-04-19T16:23:40Z</time></trkpt><trkpt lat="41.68156454552911" lon="15.346185231336042"><ele>103.0</ele><time>2026-04-19T16:23:41Z</time></trkpt><trkpt lat="41.68140188357012" lon="15.346212621391185"><ele>103.0</ele><time>2026-04-19T16:23:42Z</time></trkpt><trkpt lat="41.68122899776817" lon="15.346251830918536"><ele>103.0</ele><time>2026-04-19T16:23:43Z</time></trkpt><trkpt lat="41.681060964713936" lon="15.34627835391134"><ele>102.33333333333334</ele><time>2026-04-19T16:23:44Z</time></trkpt><trkpt lat="41.68089384689244" lon="15.346303289798174"><ele>101.66666666666666</ele><time>2026-04-19T16:23:45Z</time></trkpt><trkpt lat="41.68072447257274" lon="15.34632969920503"><ele>101.0</ele><time>2026-04-19T16:23:46Z</time></trkpt><trkpt lat="41.680558636012925" lon="15.346348780150706"><ele>101.0</ele><time>2026-04-19T16:23:47Z</time></trkpt><trkpt lat="41.68039076748733" lon="15.346368255040058"><ele>101.0</ele><time>2026-04-19T16:23:48Z</time></trkpt><trkpt lat="41.680224618956856" lon="15.346387274212391"><ele>101.0</ele><time>2026-04-19T16:23:49Z</time></trkpt><trkpt lat="41.68005832280306" lon="15.346414411077497"><ele>100.0</ele><time>2026-04-19T16:23:50Z</time></trkpt><trkpt lat="41.67989028971262" lon="15.346439293539014"><ele>99.0</ele><time>2026-04-19T16:23:51Z</time></trkpt><trkpt lat="41.679724682738325" lon="15.346464362595928"><ele>98.0</ele><time>2026-04-19T16:23:52Z</time></trkpt><trkpt lat="41.67955710957926" lon="15.346489533790708"><ele>97.0</ele><time>2026-04-19T16:23:53Z</time></trkpt><trkpt lat="41.67939339205305" lon="15.346510823786769"><ele>96.0</ele><time>2026-04-19T16:23:54Z</time></trkpt><trkpt lat="41.67922599280322" lon="15.34653273661047"><ele>95.0</ele><time>2026-04-19T16:23:55Z</time></trkpt><trkpt lat="41.67906410228185" lon="15.34655163027294"><ele>95.0</ele><time>2026-04-19T16:23:56Z</time></trkpt><trkpt lat="41.67889973772592" lon="15.346576321293865"><ele>95.0</ele><time>2026-04-19T16:23:57Z</time></trkpt><trkpt lat="41.67873349724801" lon="15.346599096251433"><ele>95.0</ele><time>2026-04-19T16:23:58Z</time></trkpt><trkpt lat="41.67857215284936" lon="15.34662066560192"><ele>94.33333333333334</ele><time>2026-04-19T16:23:59Z</time></trkpt><trkpt lat="41.678408999959196" lon="15.346649046600376"><ele>93.66666666666667</ele><time>2026-04-19T16:24:00Z</time></trkpt><trkpt lat="41.67824481281503" lon="15.346675344506103"><ele>93.0</ele><time>2026-04-19T16:24:01Z</time></trkpt><trkpt lat="41.67808155474173" lon="15.346698120959175"><ele>93.0</ele><time>2026-04-19T16:24:02Z</time></trkpt><trkpt lat="41.677918058948904" lon="15.346718440221848"><ele>93.0</ele><time>2026-04-19T16:24:03Z</time></trkpt><trkpt lat="41.67775926280854" lon="15.3467459949624"><ele>93.0</ele><time>2026-04-19T16:24:04Z</time></trkpt><trkpt lat="41.67760000454675" lon="15.346756093877577"><ele>92.33333333333333</ele><time>2026-04-19T16:24:05Z</time></trkpt><trkpt lat="41.67744410276213" lon="15.346778635427363"><ele>91.66666666666666</ele><time>2026-04-19T16:24:06Z</time></trkpt><trkpt lat="41.67728335558402" lon="15.34680454372163"><ele>91.0</ele><time>2026-04-19T16:24:07Z</time></trkpt><trkpt lat="41.67712405344646" lon="15.346829859370324"><ele>91.0</ele><time>2026-04-19T16:24:08Z</time></trkpt><trkpt lat="41.67696552116257" lon="15.346850919923238"><ele>91.0</ele><time>2026-04-19T16:24:09Z</time></trkpt><trkpt lat="41.67680798548648" lon="15.346869893852682"><ele>91.0</ele><time>2026-04-19T16:24:10Z</time></trkpt><trkpt lat="41.67664708957409" lon="15.346893023054022"><ele>91.33333333333333</ele><time>2026-04-19T16:24:11Z</time></trkpt><trkpt lat="41.6764723234341" lon="15.346921507079875"><ele>91.66666666666667</ele><time>2026-04-19T16:24:12Z</time></trkpt><trkpt lat="41.676304572607656" lon="15.346954175767884"><ele>92.0</ele><time>2026-04-19T16:24:13Z</time></trkpt><trkpt lat="41.676130222076665" lon="15.346994056241646"><ele>92.66666666666667</ele><time>2026-04-19T16:24:14Z</time></trkpt><trkpt lat="41.675957680024176" lon="15.347035644666342"><ele>93.33333333333333</ele><time>2026-04-19T16:24:15Z</time></trkpt><trkpt lat="41.67579727326556" lon="15.347080622112303"><ele>94.0</ele><time>2026-04-19T16:24:16Z</time></trkpt><trkpt lat="41.67564794177114" lon="15.347127470646761"><ele>94.0</ele><time>2026-04-19T16:24:17Z</time></trkpt><trkpt lat="41.67544061344068" lon="15.347202660251615"><ele>94.0</ele><time>2026-04-19T16:24:18Z</time></trkpt><trkpt lat="41.67526526017903" lon="15.34726356247136"><ele>94.0</ele><time>2026-04-19T16:24:19Z</time></trkpt><trkpt lat="41.675083067028865" lon="15.347331252295556"><ele>92.33333333333333</ele><time>2026-04-19T16:24:20Z</time></trkpt><trkpt lat="41.67491979867146" lon="15.347394560345753"><ele>90.66666666666667</ele><time>2026-04-19T16:24:21Z</time></trkpt><trkpt lat="41.67474360983455" lon="15.347469803711332"><ele>89.0</ele><time>2026-04-19T16:24:22Z</time></trkpt><trkpt lat="41.674581049291966" lon="15.347553784102015"><ele>89.33333333333334</ele><time>2026-04-19T16:24:23Z</time></trkpt><trkpt lat="41.674413024736275" lon="15.347638870740177"><ele>89.66666666666667</ele><time>2026-04-19T16:24:24Z</time></trkpt><trkpt lat="41.674255824546854" lon="15.347722976738012"><ele>90.0</ele><time>2026-04-19T16:24:25Z</time></trkpt><trkpt lat="41.67409222969246" lon="15.347802555984629"><ele>90.0</ele><time>2026-04-19T16:24:26Z</time></trkpt><trkpt lat="41.67393757297014" lon="15.34789846405506"><ele>90.0</ele><time>2026-04-19T16:24:27Z</time></trkpt><trkpt lat="41.67378243109003" lon="15.347999291497526"><ele>90.0</ele><time>2026-04-19T16:24:28Z</time></trkpt><trkpt lat="41.67362912593025" lon="15.348104257676326"><ele>89.33333333333333</ele><time>2026-04-19T16:24:29Z</time></trkpt><trkpt lat="41.67346826138246" lon="15.348211955586963"><ele>88.66666666666666</ele><time>2026-04-19T16:24:30Z</time></trkpt><trkpt lat="41.673327125858094" lon="15.348319463617656"><ele>88.0</ele><time>2026-04-19T16:24:31Z</time></trkpt><trkpt lat="41.67317841947986" lon="15.34843121018625"><ele>88.0</ele><time>2026-04-19T16:24:32Z</time></trkpt><trkpt lat="41.67302524199306" lon="15.348546671730755"><ele>88.0</ele><time>2026-04-19T16:24:33Z</time></trkpt><trkpt lat="41.67288063829164" lon="15.348670082556842"><ele>88.0</ele><time>2026-04-19T16:24:34Z</time></trkpt><trkpt lat="41.67272805387008" lon="15.348795087061971"><ele>88.0</ele><time>2026-04-19T16:24:35Z</time></trkpt><trkpt lat="41.67259514076367" lon="15.348932482560391"><ele>88.0</ele><time>2026-04-19T16:24:36Z</time></trkpt><trkpt lat="41.67245726806543" lon="15.34905175281816"><ele>88.0</ele><time>2026-04-19T16:24:37Z</time></trkpt><trkpt lat="41.67231769906078" lon="15.349209477992762"><ele>88.0</ele><time>2026-04-19T16:24:38Z</time></trkpt><trkpt lat="41.672175224457845" lon="15.349349777581683"><ele>88.0</ele><time>2026-04-19T16:24:39Z</time></trkpt><trkpt lat="41.67203523716607" lon="15.349495175098648"><ele>88.0</ele><time>2026-04-19T16:24:40Z</time></trkpt><trkpt lat="41.67190131804637" lon="15.349648821429186"><ele>87.0</ele><time>2026-04-19T16:24:41Z</time></trkpt><trkpt lat="41.67176784862393" lon="15.349805606320237"><ele>86.0</ele><time>2026-04-19T16:24:42Z</time></trkpt><trkpt lat="41.67163739971391" lon="15.349967132622464"><ele>85.0</ele><time>2026-04-19T16:24:43Z</time></trkpt><trkpt lat="41.67150289410994" lon="15.3501289706964"><ele>85.0</ele><time>2026-04-19T16:24:44Z</time></trkpt><trkpt lat="41.67137392899675" lon="15.350295903466858"><ele>85.0</ele><time>2026-04-19T16:24:45Z</time></trkpt><trkpt lat="41.6712473748485" lon="15.350466978599925"><ele>85.0</ele><time>2026-04-19T16:24:46Z</time></trkpt><trkpt lat="41.67112342775457" lon="15.350642634040227"><ele>85.33333333333333</ele><time>2026-04-19T16:24:47Z</time></trkpt><trkpt lat="41.671005632786056" lon="15.350823553725263"><ele>85.66666666666667</ele><time>2026-04-19T16:24:48Z</time></trkpt><trkpt lat="41.670892214333925" lon="15.35100744158145"><ele>86.0</ele><time>2026-04-19T16:24:49Z</time></trkpt><trkpt lat="41.670785806274104" lon="15.351182705673567"><ele>86.0</ele><time>2026-04-19T16:24:50Z</time></trkpt><trkpt lat="41.670683916623744" lon="15.351341624065313"><ele>86.0</ele><time>2026-04-19T16:24:51Z</time></trkpt><trkpt lat="41.67058933032206" lon="15.351494593996824"><ele>86.0</ele><time>2026-04-19T16:24:52Z</time></trkpt><trkpt lat="41.670491310540015" lon="15.351636055237252"><ele>86.0</ele><time>2026-04-19T16:24:53Z</time></trkpt><trkpt lat="41.670398152737185" lon="15.351769901549185"><ele>85.75</ele><time>2026-04-19T16:24:54Z</time></trkpt><trkpt lat="41.67030699739156" lon="15.351910210893116"><ele>85.5</ele><time>2026-04-19T16:24:55Z</time></trkpt><trkpt lat="41.670207588918466" lon="15.352041947473856"><ele>85.25</ele><time>2026-04-19T16:24:56Z</time></trkpt><trkpt lat="41.67011226869956" lon="15.352171662903698"><ele>85.0</ele><time>2026-04-19T16:24:57Z</time></trkpt><trkpt lat="41.67002286906154" lon="15.352305801361993"><ele>84.5</ele><time>2026-04-19T16:24:58Z</time></trkpt><trkpt lat="41.66994411221167" lon="15.35244973884431"><ele>84.0</ele><time>2026-04-19T16:24:59Z</time></trkpt><trkpt lat="41.66987539305494" lon="15.352609019392196"><ele>83.5</ele><time>2026-04-19T16:25:00Z</time></trkpt><trkpt lat="41.66982174480353" lon="15.352784239314605"><ele>83.0</ele><time>2026-04-19T16:25:01Z</time></trkpt><trkpt lat="41.669763397144706" lon="15.35297417414548"><ele>83.0</ele><time>2026-04-19T16:25:02Z</time></trkpt><trkpt lat="41.66970153137956" lon="15.353172099508608"><ele>83.0</ele><time>2026-04-19T16:25:03Z</time></trkpt><trkpt lat="41.66964085955566" lon="15.353366163445303"><ele>83.0</ele><time>2026-04-19T16:25:04Z</time></trkpt><trkpt lat="41.66958283681595" lon="15.353559319443397"><ele>83.0</ele><time>2026-04-19T16:25:05Z</time></trkpt><trkpt lat="41.669499957944176" lon="15.353732791343713"><ele>83.0</ele><time>2026-04-19T16:25:06Z</time></trkpt><trkpt lat="41.66942207460263" lon="15.353913692483895"><ele>83.0</ele><time>2026-04-19T16:25:07Z</time></trkpt><trkpt lat="41.66934144989655" lon="15.354100961005374"><ele>83.0</ele><time>2026-04-19T16:25:08Z</time></trkpt><trkpt lat="41.669259635661184" lon="15.35429099205452"><ele>83.0</ele><time>2026-04-19T16:25:09Z</time></trkpt><trkpt lat="41.66917331374878" lon="15.354483489583076"><ele>83.0</ele><time>2026-04-19T16:25:10Z</time></trkpt><trkpt lat="41.669086272853995" lon="15.35467844035955"><ele>82.66666666666667</ele><time>2026-04-19T16:25:11Z</time></trkpt><trkpt lat="41.66900011216308" lon="15.35487137642842"><ele>82.33333333333333</ele><time>2026-04-19T16:25:12Z</time></trkpt><trkpt lat="41.66891423453752" lon="15.355063678635856"><ele>82.0</ele><time>2026-04-19T16:25:13Z</time></trkpt><trkpt lat="41.668827386706596" lon="15.355258153387291"><ele>82.0</ele><time>2026-04-19T16:25:14Z</time></trkpt><trkpt lat="41.668742998208906" lon="15.35544712106634"><ele>82.0</ele><time>2026-04-19T16:25:15Z</time></trkpt><trkpt lat="41.66865763065381" lon="15.355638281078303"><ele>82.0</ele><time>2026-04-19T16:25:16Z</time></trkpt><trkpt lat="41.66857192968" lon="15.355830187712268"><ele>82.0</ele><time>2026-04-19T16:25:17Z</time></trkpt><trkpt lat="41.668487131597615" lon="15.356020072549166"><ele>82.0</ele><time>2026-04-19T16:25:18Z</time></trkpt><trkpt lat="41.668413502120536" lon="15.356227357045908"><ele>82.0</ele><time>2026-04-19T16:25:19Z</time></trkpt><trkpt lat="41.668322227617836" lon="15.356423946193758"><ele>82.0</ele><time>2026-04-19T16:25:20Z</time></trkpt><trkpt lat="41.66823240623524" lon="15.35661679331436"><ele>82.0</ele><time>2026-04-19T16:25:21Z</time></trkpt><trkpt lat="41.668145602681626" lon="15.356812373445585"><ele>82.0</ele><time>2026-04-19T16:25:22Z</time></trkpt><trkpt lat="41.66805925851237" lon="15.35701357047877"><ele>81.66666666666666</ele><time>2026-04-19T16:25:23Z</time></trkpt><trkpt lat="41.66797318046578" lon="15.35720855946406"><ele>81.33333333333333</ele><time>2026-04-19T16:25:24Z</time></trkpt><trkpt lat="41.667886118974096" lon="15.357402023001676"><ele>81.0</ele><time>2026-04-19T16:25:25Z</time></trkpt><trkpt lat="41.667798005793586" lon="15.357592908123639"><ele>82.0</ele><time>2026-04-19T16:25:26Z</time></trkpt><trkpt lat="41.667708321605055" lon="15.357786621483651"><ele>83.0</ele><time>2026-04-19T16:25:27Z</time></trkpt><trkpt lat="41.66762178794456" lon="15.357977482893826"><ele>84.0</ele><time>2026-04-19T16:25:28Z</time></trkpt><trkpt lat="41.66753879939675" lon="15.358178210942967"><ele>84.0</ele><time>2026-04-19T16:25:29Z</time></trkpt><trkpt lat="41.667454443790994" lon="15.35837745289222"><ele>84.0</ele><time>2026-04-19T16:25:30Z</time></trkpt><trkpt lat="41.66736425155575" lon="15.358579663837771"><ele>84.0</ele><time>2026-04-19T16:25:31Z</time></trkpt><trkpt lat="41.6672713206063" lon="15.358784540714206"><ele>84.0</ele><time>2026-04-19T16:25:32Z</time></trkpt><trkpt lat="41.66718161046945" lon="15.358978905881278"><ele>84.0</ele><time>2026-04-19T16:25:33Z</time></trkpt><trkpt lat="41.667093495417234" lon="15.359175792471657"><ele>84.0</ele><time>2026-04-19T16:25:34Z</time></trkpt><trkpt lat="41.66700339177029" lon="15.359373511046893"><ele>84.66666666666667</ele><time>2026-04-19T16:25:35Z</time></trkpt><trkpt lat="41.666914009394354" lon="15.35957345165106"><ele>85.33333333333334</ele><time>2026-04-19T16:25:36Z</time></trkpt><trkpt lat="41.66682561995198" lon="15.359767497900895"><ele>86.0</ele><time>2026-04-19T16:25:37Z</time></trkpt><trkpt lat="41.66673733396124" lon="15.359968448077964"><ele>86.0</ele><time>2026-04-19T16:25:38Z</time></trkpt><trkpt lat="41.66665007051284" lon="15.360163056081593"><ele>86.0</ele><time>2026-04-19T16:25:39Z</time></trkpt><trkpt lat="41.66656365482314" lon="15.360364123061611"><ele>86.0</ele><time>2026-04-19T16:25:40Z</time></trkpt><trkpt lat="41.666476477221345" lon="15.360558106740784"><ele>86.33333333333334</ele><time>2026-04-19T16:25:41Z</time></trkpt><trkpt lat="41.666389937450774" lon="15.3607534784046"><ele>86.66666666666667</ele><time>2026-04-19T16:25:42Z</time></trkpt><trkpt lat="41.66630256365481" lon="15.3609483444805"><ele>87.0</ele><time>2026-04-19T16:25:43Z</time></trkpt><trkpt lat="41.666214415160006" lon="15.361140876911469"><ele>87.0</ele><time>2026-04-19T16:25:44Z</time></trkpt><trkpt lat="41.66612378785164" lon="15.36133345545012"><ele>87.0</ele><time>2026-04-19T16:25:45Z</time></trkpt><trkpt lat="41.66603483140106" lon="15.36153043488962"><ele>87.0</ele><time>2026-04-19T16:25:46Z</time></trkpt><trkpt lat="41.66594875746006" lon="15.361725828197589"><ele>86.33333333333333</ele><time>2026-04-19T16:25:47Z</time></trkpt><trkpt lat="41.66586224545483" lon="15.361928238415503"><ele>85.66666666666666</ele><time>2026-04-19T16:25:48Z</time></trkpt><trkpt lat="41.66577484717321" lon="15.362122426380962"><ele>85.0</ele><time>2026-04-19T16:25:49Z</time></trkpt><trkpt lat="41.66568599326987" lon="15.362325077810931"><ele>84.66666666666666</ele><time>2026-04-19T16:25:50Z</time></trkpt><trkpt lat="41.66559964277524" lon="15.362522649371101"><ele>84.33333333333333</ele><time>2026-04-19T16:25:51Z</time></trkpt><trkpt lat="41.66551269168515" lon="15.362719393111412"><ele>84.0</ele><time>2026-04-19T16:25:52Z</time></trkpt><trkpt lat="41.665424050534384" lon="15.362920547925652"><ele>83.66666666666667</ele><time>2026-04-19T16:25:53Z</time></trkpt><trkpt lat="41.66533511365338" lon="15.363111288922408"><ele>83.33333333333334</ele><time>2026-04-19T16:25:54Z</time></trkpt><trkpt lat="41.66524587348493" lon="15.363300767743208"><ele>83.0</ele><time>2026-04-19T16:25:55Z</time></trkpt><trkpt lat="41.665156561501746" lon="15.363504084936794"><ele>82.66666666666667</ele><time>2026-04-19T16:25:56Z</time></trkpt><trkpt lat="41.66507085038755" lon="15.363691433850196"><ele>82.33333333333333</ele><time>2026-04-19T16:25:57Z</time></trkpt><trkpt lat="41.664981259245515" lon="15.36389296351662"><ele>82.0</ele><time>2026-04-19T16:25:58Z</time></trkpt><trkpt lat="41.664894513391836" lon="15.364087906927637"><ele>82.0</ele><time>2026-04-19T16:25:59Z</time></trkpt><trkpt lat="41.66480581542285" lon="15.364286476628951"><ele>82.0</ele><time>2026-04-19T16:26:00Z</time></trkpt><trkpt lat="41.664718060328916" lon="15.364484691667743"><ele>82.0</ele><time>2026-04-19T16:26:01Z</time></trkpt><trkpt lat="41.66462959660018" lon="15.364687316318081"><ele>82.33333333333333</ele><time>2026-04-19T16:26:02Z</time></trkpt><trkpt lat="41.66454139773083" lon="15.364879143493644"><ele>82.66666666666667</ele><time>2026-04-19T16:26:03Z</time></trkpt><trkpt lat="41.66445435251829" lon="15.365073820522083"><ele>83.0</ele><time>2026-04-19T16:26:04Z</time></trkpt><trkpt lat="41.66436737012337" lon="15.365263862099507"><ele>82.66666666666667</ele><time>2026-04-19T16:26:05Z</time></trkpt><trkpt lat="41.6642796080163" lon="15.365470036853246"><ele>82.33333333333333</ele><time>2026-04-19T16:26:06Z</time></trkpt><trkpt lat="41.66419233573114" lon="15.365667500988177"><ele>82.0</ele><time>2026-04-19T16:26:07Z</time></trkpt><trkpt lat="41.66410470117729" lon="15.365863631540496"><ele>82.0</ele><time>2026-04-19T16:26:08Z</time></trkpt><trkpt lat="41.664016048922726" lon="15.366064153683233"><ele>82.0</ele><time>2026-04-19T16:26:09Z</time></trkpt><trkpt lat="41.66392635953306" lon="15.366260513383509"><ele>82.0</ele><time>2026-04-19T16:26:10Z</time></trkpt><trkpt lat="41.663835248692806" lon="15.36645957753047"><ele>82.33333333333333</ele><time>2026-04-19T16:26:11Z</time></trkpt><trkpt lat="41.663746917536734" lon="15.366655618254148"><ele>82.66666666666667</ele><time>2026-04-19T16:26:12Z</time></trkpt><trkpt lat="41.663656607949164" lon="15.366858481014239"><ele>83.0</ele><time>2026-04-19T16:26:13Z</time></trkpt><trkpt lat="41.663568120885614" lon="15.36704991757585"><ele>82.0</ele><time>2026-04-19T16:26:14Z</time></trkpt><trkpt lat="41.66347970091127" lon="15.367250836538346"><ele>81.0</ele><time>2026-04-19T16:26:15Z</time></trkpt><trkpt lat="41.663390258678675" lon="15.367460386911214"><ele>80.0</ele><time>2026-04-19T16:26:16Z</time></trkpt><trkpt lat="41.66330481622463" lon="15.367663058899808"><ele>80.0</ele><time>2026-04-19T16:26:17Z</time></trkpt><trkpt lat="41.663218935410086" lon="15.367853298070221"><ele>80.0</ele><time>2026-04-19T16:26:18Z</time></trkpt><trkpt lat="41.663127177722096" lon="15.368052496437423"><ele>80.0</ele><time>2026-04-19T16:26:19Z</time></trkpt><trkpt lat="41.663038888407264" lon="15.368248705050638"><ele>79.66666666666667</ele><time>2026-04-19T16:26:20Z</time></trkpt><trkpt lat="41.66295069268068" lon="15.368444147139682"><ele>79.33333333333333</ele><time>2026-04-19T16:26:21Z</time></trkpt><trkpt lat="41.662864044079534" lon="15.368643876312747"><ele>79.0</ele><time>2026-04-19T16:26:22Z</time></trkpt><trkpt lat="41.66277575593445" lon="15.368842463159124"><ele>78.0</ele><time>2026-04-19T16:26:23Z</time></trkpt><trkpt lat="41.66268649561509" lon="15.369041210126186"><ele>77.0</ele><time>2026-04-19T16:26:24Z</time></trkpt><trkpt lat="41.662595940485254" lon="15.369239742625144"><ele>76.0</ele><time>2026-04-19T16:26:25Z</time></trkpt><trkpt lat="41.66250696685004" lon="15.36943794178669"><ele>76.0</ele><time>2026-04-19T16:26:26Z</time></trkpt><trkpt lat="41.662416871517664" lon="15.369638671729838"><ele>76.0</ele><time>2026-04-19T16:26:27Z</time></trkpt><trkpt lat="41.66232827688395" lon="15.369836922068313"><ele>76.0</ele><time>2026-04-19T16:26:28Z</time></trkpt><trkpt lat="41.66223968444347" lon="15.370033170871867"><ele>76.0</ele><time>2026-04-19T16:26:29Z</time></trkpt><trkpt lat="41.662150545588936" lon="15.370232364311416"><ele>76.0</ele><time>2026-04-19T16:26:30Z</time></trkpt><trkpt lat="41.66206312228154" lon="15.370432368328226"><ele>76.0</ele><time>2026-04-19T16:26:31Z</time></trkpt><trkpt lat="41.66197303224301" lon="15.370638928607418"><ele>75.0</ele><time>2026-04-19T16:26:32Z</time></trkpt><trkpt lat="41.661882580156785" lon="15.370847366455894"><ele>74.0</ele><time>2026-04-19T16:26:33Z</time></trkpt><trkpt lat="41.661791685288044" lon="15.371050529837863"><ele>73.0</ele><time>2026-04-19T16:26:34Z</time></trkpt><trkpt lat="41.66169803752873" lon="15.371256038820244"><ele>73.0</ele><time>2026-04-19T16:26:35Z</time></trkpt><trkpt lat="41.66160730182526" lon="15.37146130778092"><ele>73.0</ele><time>2026-04-19T16:26:36Z</time></trkpt><trkpt lat="41.66151682897653" lon="15.37166833497948"><ele>73.0</ele><time>2026-04-19T16:26:37Z</time></trkpt><trkpt lat="41.661422153556614" lon="15.371885844930873"><ele>73.0</ele><time>2026-04-19T16:26:38Z</time></trkpt><trkpt lat="41.66132808677293" lon="15.372088572165529"><ele>73.0</ele><time>2026-04-19T16:26:39Z</time></trkpt><trkpt lat="41.66122947118267" lon="15.372305455149496"><ele>73.0</ele><time>2026-04-19T16:26:40Z</time></trkpt><trkpt lat="41.66113207279066" lon="15.37252183397834"><ele>73.33333333333333</ele><time>2026-04-19T16:26:41Z</time></trkpt><trkpt lat="41.661036912698634" lon="15.372734293019072"><ele>73.66666666666667</ele><time>2026-04-19T16:26:42Z</time></trkpt><trkpt lat="41.66093991223369" lon="15.37295699669432"><ele>74.0</ele><time>2026-04-19T16:26:43Z</time></trkpt><trkpt lat="41.66084388848884" lon="15.37317406512485"><ele>74.0</ele><time>2026-04-19T16:26:44Z</time></trkpt><trkpt lat="41.66074631857589" lon="15.373398229345026"><ele>74.0</ele><time>2026-04-19T16:26:45Z</time></trkpt><trkpt lat="41.66064731246274" lon="15.373615859512558"><ele>74.0</ele><time>2026-04-19T16:26:46Z</time></trkpt><trkpt lat="41.660548674147414" lon="15.37383541646772"><ele>73.66666666666667</ele><time>2026-04-19T16:26:47Z</time></trkpt><trkpt lat="41.66045314575164" lon="15.374055660698401"><ele>73.33333333333333</ele><time>2026-04-19T16:26:48Z</time></trkpt><trkpt lat="41.660343102857325" lon="15.374261915168752"><ele>73.0</ele><time>2026-04-19T16:26:49Z</time></trkpt><trkpt lat="41.660259622137296" lon="15.374489438311265"><ele>73.0</ele><time>2026-04-19T16:26:50Z</time></trkpt><trkpt lat="41.660163034668045" lon="15.374699641833542"><ele>73.0</ele><time>2026-04-19T16:26:51Z</time></trkpt><trkpt lat="41.66006857670001" lon="15.374916818500042"><ele>73.0</ele><time>2026-04-19T16:26:52Z</time></trkpt><trkpt lat="41.659972976202745" lon="15.375126920807869"><ele>73.0</ele><time>2026-04-19T16:26:53Z</time></trkpt><trkpt lat="41.65988073912468" lon="15.37532603380451"><ele>73.0</ele><time>2026-04-19T16:26:54Z</time></trkpt><trkpt lat="41.659784679244915" lon="15.375541432138803"><ele>73.0</ele><time>2026-04-19T16:26:55Z</time></trkpt><trkpt lat="41.65969321057579" lon="15.375743411970571"><ele>72.33333333333333</ele><time>2026-04-19T16:26:56Z</time></trkpt><trkpt lat="41.65960209358425" lon="15.3759555939558"><ele>71.66666666666667</ele><time>2026-04-19T16:26:57Z</time></trkpt><trkpt lat="41.65951054950668" lon="15.376160764245665"><ele>71.0</ele><time>2026-04-19T16:26:58Z</time></trkpt><trkpt lat="41.65942079616532" lon="15.376369009484453"><ele>70.33333333333334</ele><time>2026-04-19T16:26:59Z</time></trkpt><trkpt lat="41.659314789379096" lon="15.376570928005613"><ele>69.66666666666667</ele><time>2026-04-19T16:27:00Z</time></trkpt><trkpt lat="41.65922109275545" lon="15.376781872553362"><ele>69.0</ele><time>2026-04-19T16:27:01Z</time></trkpt><trkpt lat="41.6591300346974" lon="15.376986876744215"><ele>69.0</ele><time>2026-04-19T16:27:02Z</time></trkpt><trkpt lat="41.65903766825744" lon="15.377194826572795"><ele>69.0</ele><time>2026-04-19T16:27:03Z</time></trkpt><trkpt lat="41.65895837433649" lon="15.37741396361846"><ele>69.0</ele><time>2026-04-19T16:27:04Z</time></trkpt><trkpt lat="41.658863591734914" lon="15.37762159996492"><ele>69.0</ele><time>2026-04-19T16:27:05Z</time></trkpt><trkpt lat="41.65877124626443" lon="15.377829045643788"><ele>69.0</ele><time>2026-04-19T16:27:06Z</time></trkpt><trkpt lat="41.65867690157475" lon="15.378038985250344"><ele>69.0</ele><time>2026-04-19T16:27:07Z</time></trkpt><trkpt lat="41.658584286625306" lon="15.378248840449785"><ele>68.66666666666667</ele><time>2026-04-19T16:27:08Z</time></trkpt><trkpt lat="41.658492517799466" lon="15.378451468114603"><ele>68.33333333333334</ele><time>2026-04-19T16:27:09Z</time></trkpt><trkpt lat="41.65840294737948" lon="15.378652634349299"><ele>68.0</ele><time>2026-04-19T16:27:10Z</time></trkpt><trkpt lat="41.65831121707332" lon="15.378846186291966"><ele>67.66666666666667</ele><time>2026-04-19T16:27:11Z</time></trkpt><trkpt lat="41.65822012468329" lon="15.379050124269677"><ele>67.33333333333333</ele><time>2026-04-19T16:27:12Z</time></trkpt><trkpt lat="41.65813614082038" lon="15.379245189542166"><ele>67.0</ele><time>2026-04-19T16:27:13Z</time></trkpt><trkpt lat="41.65805270879087" lon="15.379443292457998"><ele>67.0</ele><time>2026-04-19T16:27:14Z</time></trkpt><trkpt lat="41.65796506736886" lon="15.379639955275172"><ele>67.0</ele><time>2026-04-19T16:27:15Z</time></trkpt><trkpt lat="41.65787479993878" lon="15.379834683616002"><ele>67.0</ele><time>2026-04-19T16:27:16Z</time></trkpt><trkpt lat="41.65778288305226" lon="15.380028486125914"><ele>67.0</ele><time>2026-04-19T16:27:17Z</time></trkpt><trkpt lat="41.65769384563439" lon="15.38022835661437"><ele>67.0</ele><time>2026-04-19T16:27:18Z</time></trkpt><trkpt lat="41.657606854099036" lon="15.380429333442072"><ele>67.0</ele><time>2026-04-19T16:27:19Z</time></trkpt><trkpt lat="41.657518289039174" lon="15.380631422209012"><ele>67.0</ele><time>2026-04-19T16:27:20Z</time></trkpt><trkpt lat="41.657429152049865" lon="15.380833151449242"><ele>67.0</ele><time>2026-04-19T16:27:21Z</time></trkpt><trkpt lat="41.65734138644088" lon="15.381034384161763"><ele>67.0</ele><time>2026-04-19T16:27:22Z</time></trkpt><trkpt lat="41.657236435906945" lon="15.381230813039764"><ele>67.0</ele><time>2026-04-19T16:27:23Z</time></trkpt><trkpt lat="41.65715027278706" lon="15.381424418863974"><ele>67.0</ele><time>2026-04-19T16:27:24Z</time></trkpt><trkpt lat="41.657061475241285" lon="15.381623944181223"><ele>67.0</ele><time>2026-04-19T16:27:25Z</time></trkpt><trkpt lat="41.65697148306196" lon="15.381826153780246"><ele>67.0</ele><time>2026-04-19T16:27:26Z</time></trkpt><trkpt lat="41.656897033640405" lon="15.38203658103417"><ele>67.0</ele><time>2026-04-19T16:27:27Z</time></trkpt><trkpt lat="41.65680403349975" lon="15.382237651778874"><ele>67.0</ele><time>2026-04-19T16:27:28Z</time></trkpt><trkpt lat="41.656709444879944" lon="15.382448774833998"><ele>67.33333333333333</ele><time>2026-04-19T16:27:29Z</time></trkpt><trkpt lat="41.65662024332541" lon="15.38265052065584"><ele>67.66666666666667</ele><time>2026-04-19T16:27:30Z</time></trkpt><trkpt lat="41.65653012985764" lon="15.382865124117863"><ele>68.0</ele><time>2026-04-19T16:27:31Z</time></trkpt><trkpt lat="41.65644505988341" lon="15.383082154017158"><ele>68.0</ele><time>2026-04-19T16:27:32Z</time></trkpt><trkpt lat="41.656366929967476" lon="15.383302499223506"><ele>68.0</ele><time>2026-04-19T16:27:33Z</time></trkpt><trkpt lat="41.656293441699106" lon="15.383525888971139"><ele>68.0</ele><time>2026-04-19T16:27:34Z</time></trkpt><trkpt lat="41.65622437346877" lon="15.383744547290227"><ele>68.0</ele><time>2026-04-19T16:27:35Z</time></trkpt><trkpt lat="41.65616418017368" lon="15.383974115340683"><ele>68.0</ele><time>2026-04-19T16:27:36Z</time></trkpt><trkpt lat="41.656109815374094" lon="15.384204652278727"><ele>68.0</ele><time>2026-04-19T16:27:37Z</time></trkpt><trkpt lat="41.65605963376961" lon="15.384437145284647"><ele>68.0</ele><time>2026-04-19T16:27:38Z</time></trkpt><trkpt lat="41.65600912222752" lon="15.384682312458397"><ele>68.0</ele><time>2026-04-19T16:27:39Z</time></trkpt><trkpt lat="41.65596230660088" lon="15.384930466572103"><ele>68.0</ele><time>2026-04-19T16:27:40Z</time></trkpt><trkpt lat="41.65591595866902" lon="15.385181505746727"><ele>68.0</ele><time>2026-04-19T16:27:41Z</time></trkpt><trkpt lat="41.655868170134006" lon="15.385433650287691"><ele>68.0</ele><time>2026-04-19T16:27:42Z</time></trkpt><trkpt lat="41.655819340689604" lon="15.38568843129782"><ele>68.0</ele><time>2026-04-19T16:27:43Z</time></trkpt><trkpt lat="41.65577162223757" lon="15.385936323334816"><ele>68.0</ele><time>2026-04-19T16:27:44Z</time></trkpt><trkpt lat="41.65571951813872" lon="15.38619472565242"><ele>68.0</ele><time>2026-04-19T16:27:45Z</time></trkpt><trkpt lat="41.65567130638776" lon="15.386443373794657"><ele>68.0</ele><time>2026-04-19T16:27:46Z</time></trkpt><trkpt lat="41.65562522678914" lon="15.3867107263506"><ele>68.33333333333334</ele><time>2026-04-19T16:27:47Z</time></trkpt><trkpt lat="41.65557541628911" lon="15.386961279043469"><ele>68.66666666666667</ele><time>2026-04-19T16:27:48Z</time></trkpt><trkpt lat="41.65552355390554" lon="15.387178287000124"><ele>69.0</ele><time>2026-04-19T16:27:49Z</time></trkpt><trkpt lat="41.655479289140445" lon="15.387389738118967"><ele>69.0</ele><time>2026-04-19T16:27:50Z</time></trkpt><trkpt lat="41.65544110306791" lon="15.387610546940866"><ele>69.0</ele><time>2026-04-19T16:27:51Z</time></trkpt><trkpt lat="41.65540621699115" lon="15.387809377502418"><ele>69.0</ele><time>2026-04-19T16:27:52Z</time></trkpt><trkpt lat="41.65536629903388" lon="15.388022803789006"><ele>69.0</ele><time>2026-04-19T16:27:53Z</time></trkpt><trkpt lat="41.65532500962682" lon="15.3882474889197"><ele>69.0</ele><time>2026-04-19T16:27:54Z</time></trkpt><trkpt lat="41.65528246473846" lon="15.388470970346367"><ele>69.0</ele><time>2026-04-19T16:27:55Z</time></trkpt><trkpt lat="41.65523913910877" lon="15.38869564224724"><ele>69.0</ele><time>2026-04-19T16:27:56Z</time></trkpt><trkpt lat="41.655194348322524" lon="15.388923035632638"><ele>69.0</ele><time>2026-04-19T16:27:57Z</time></trkpt><trkpt lat="41.65515033837501" lon="15.389143752799217"><ele>69.0</ele><time>2026-04-19T16:27:58Z</time></trkpt><trkpt lat="41.65510911899824" lon="15.389369709054026"><ele>69.0</ele><time>2026-04-19T16:27:59Z</time></trkpt><trkpt lat="41.655064793108664" lon="15.389613479968459"><ele>69.0</ele><time>2026-04-19T16:28:00Z</time></trkpt><trkpt lat="41.65502534903279" lon="15.389843124781018"><ele>69.0</ele><time>2026-04-19T16:28:01Z</time></trkpt><trkpt lat="41.65497752217968" lon="15.390083734553134"><ele>69.0</ele><time>2026-04-19T16:28:02Z</time></trkpt><trkpt lat="41.65492917190677" lon="15.390317190262897"><ele>69.0</ele><time>2026-04-19T16:28:03Z</time></trkpt><trkpt lat="41.65488516026946" lon="15.390549790153242"><ele>69.0</ele><time>2026-04-19T16:28:04Z</time></trkpt><trkpt lat="41.654840576272356" lon="15.390783291899778"><ele>69.33333333333333</ele><time>2026-04-19T16:28:05Z</time></trkpt><trkpt lat="41.654790522744385" lon="15.39102756349408"><ele>69.66666666666666</ele><time>2026-04-19T16:28:06Z</time></trkpt><trkpt lat="41.65474174029345" lon="15.391265655582872"><ele>70.0</ele><time>2026-04-19T16:28:07Z</time></trkpt><trkpt lat="41.65469755060501" lon="15.391504865245203"><ele>70.33333333333333</ele><time>2026-04-19T16:28:08Z</time></trkpt><trkpt lat="41.65465969663432" lon="15.391730398988152"><ele>70.66666666666667</ele><time>2026-04-19T16:28:09Z</time></trkpt><trkpt lat="41.654612123440636" lon="15.39197847005181"><ele>71.0</ele><time>2026-04-19T16:28:10Z</time></trkpt><trkpt lat="41.65455965219447" lon="15.392208554451766"><ele>71.33333333333334</ele><time>2026-04-19T16:28:11Z</time></trkpt><trkpt lat="41.65451086011107" lon="15.392432040372801"><ele>71.66666666666667</ele><time>2026-04-19T16:28:12Z</time></trkpt><trkpt lat="41.65447000617664" lon="15.392655556659667"><ele>72.0</ele><time>2026-04-19T16:28:13Z</time></trkpt><trkpt lat="41.654428115135424" lon="15.39287079359186"><ele>72.0</ele><time>2026-04-19T16:28:14Z</time></trkpt><trkpt lat="41.65438277022771" lon="15.393093865005175"><ele>72.0</ele><time>2026-04-19T16:28:15Z</time></trkpt><trkpt lat="41.65433837024839" lon="15.393316525224947"><ele>72.0</ele><time>2026-04-19T16:28:16Z</time></trkpt><trkpt lat="41.65428737814276" lon="15.393542764596933"><ele>72.0</ele><time>2026-04-19T16:28:17Z</time></trkpt><trkpt lat="41.65426240882549" lon="15.393747781319396"><ele>72.0</ele><time>2026-04-19T16:28:18Z</time></trkpt><trkpt lat="41.654213046031906" lon="15.393950522044493"><ele>72.0</ele><time>2026-04-19T16:28:19Z</time></trkpt><trkpt lat="41.65417647028107" lon="15.394186077282473"><ele>72.33333333333333</ele><time>2026-04-19T16:28:20Z</time></trkpt><trkpt lat="41.65413237232778" lon="15.39439573162927"><ele>72.66666666666666</ele><time>2026-04-19T16:28:21Z</time></trkpt><trkpt lat="41.65409189362736" lon="15.394590118241384"><ele>73.0</ele><time>2026-04-19T16:28:22Z</time></trkpt><trkpt lat="41.654054640064736" lon="15.394777244546987"><ele>73.5</ele><time>2026-04-19T16:28:23Z</time></trkpt><trkpt lat="41.65402063507841" lon="15.394956948576253"><ele>74.0</ele><time>2026-04-19T16:28:24Z</time></trkpt><trkpt lat="41.65398226637192" lon="15.395144543874752"><ele>74.5</ele><time>2026-04-19T16:28:25Z</time></trkpt><trkpt lat="41.653939599089185" lon="15.395330088679504"><ele>75.0</ele><time>2026-04-19T16:28:26Z</time></trkpt><trkpt lat="41.65390419094764" lon="15.395521365000517"><ele>75.66666666666667</ele><time>2026-04-19T16:28:27Z</time></trkpt><trkpt lat="41.65386983071816" lon="15.395714868030687"><ele>76.33333333333334</ele><time>2026-04-19T16:28:28Z</time></trkpt><trkpt lat="41.653836330665975" lon="15.395896902390605"><ele>77.0</ele><time>2026-04-19T16:28:29Z</time></trkpt><trkpt lat="41.65379328155532" lon="15.396111380570638"><ele>77.0</ele><time>2026-04-19T16:28:30Z</time></trkpt><trkpt lat="41.653758267173465" lon="15.39631510918537"><ele>77.0</ele><time>2026-04-19T16:28:31Z</time></trkpt><trkpt lat="41.65373616736953" lon="15.39651941602663"><ele>77.0</ele><time>2026-04-19T16:28:32Z</time></trkpt><trkpt lat="41.653709346385625" lon="15.396731161919988"><ele>77.0</ele><time>2026-04-19T16:28:33Z</time></trkpt><trkpt lat="41.65368778116491" lon="15.39694859834827"><ele>77.0</ele><time>2026-04-19T16:28:34Z</time></trkpt><trkpt lat="41.6536614172851" lon="15.397177346690315"><ele>77.0</ele><time>2026-04-19T16:28:35Z</time></trkpt><trkpt lat="41.65364698412851" lon="15.39740957292977"><ele>77.0</ele><time>2026-04-19T16:28:36Z</time></trkpt><trkpt lat="41.653644013522836" lon="15.397636926205301"><ele>77.0</ele><time>2026-04-19T16:28:37Z</time></trkpt><trkpt lat="41.653645411109316" lon="15.397866682910688"><ele>77.0</ele><time>2026-04-19T16:28:38Z</time></trkpt><trkpt lat="41.65366038634503" lon="15.39809961847925"><ele>77.33333333333334</ele><time>2026-04-19T16:28:39Z</time></trkpt><trkpt lat="41.65364974803054" lon="15.398319816818352"><ele>77.66666666666667</ele><time>2026-04-19T16:28:40Z</time></trkpt><trkpt lat="41.653657789268124" lon="15.39853424046773"><ele>78.0</ele><time>2026-04-19T16:28:41Z</time></trkpt><trkpt lat="41.65366028669428" lon="15.398760264625125"><ele>78.0</ele><time>2026-04-19T16:28:42Z</time></trkpt><trkpt lat="41.65366535293336" lon="15.398985383956544"><ele>78.0</ele><time>2026-04-19T16:28:43Z</time></trkpt><trkpt lat="41.653664952239474" lon="15.399210762153137"><ele>78.0</ele><time>2026-04-19T16:28:44Z</time></trkpt><trkpt lat="41.653666710784336" lon="15.399426843146411"><ele>78.0</ele><time>2026-04-19T16:28:45Z</time></trkpt><trkpt lat="41.65366830408172" lon="15.399652095042049"><ele>78.0</ele><time>2026-04-19T16:28:46Z</time></trkpt><trkpt lat="41.65367641121218" lon="15.399861526424699"><ele>78.0</ele><time>2026-04-19T16:28:47Z</time></trkpt><trkpt lat="41.653680619581024" lon="15.400084811010476"><ele>77.33333333333333</ele><time>2026-04-19T16:28:48Z</time></trkpt><trkpt lat="41.65368461350223" lon="15.400295496855119"><ele>76.66666666666666</ele><time>2026-04-19T16:28:49Z</time></trkpt><trkpt lat="41.65368076047692" lon="15.400513956014452"><ele>76.0</ele><time>2026-04-19T16:28:50Z</time></trkpt><trkpt lat="41.65368688072131" lon="15.400719407341231"><ele>75.33333333333333</ele><time>2026-04-19T16:28:51Z</time></trkpt><trkpt lat="41.65369800675288" lon="15.400924816284348"><ele>74.66666666666667</ele><time>2026-04-19T16:28:52Z</time></trkpt><trkpt lat="41.65371005266214" lon="15.401129745527333"><ele>74.0</ele><time>2026-04-19T16:28:53Z</time></trkpt><trkpt lat="41.653720370059226" lon="15.401328424347007"><ele>73.66666666666667</ele><time>2026-04-19T16:28:54Z</time></trkpt><trkpt lat="41.65373071761785" lon="15.401520194452429"><ele>73.33333333333333</ele><time>2026-04-19T16:28:55Z</time></trkpt><trkpt lat="41.6537190961061" lon="15.401763986045287"><ele>73.0</ele><time>2026-04-19T16:28:56Z</time></trkpt><trkpt lat="41.65372509730095" lon="15.401989081146791"><ele>73.0</ele><time>2026-04-19T16:28:57Z</time></trkpt><trkpt lat="41.653725789953135" lon="15.402131704320361"><ele>73.0</ele><time>2026-04-19T16:28:58Z</time></trkpt><trkpt lat="41.653745829464015" lon="15.402420744803448"><ele>73.0</ele><time>2026-04-19T16:28:59Z</time></trkpt><trkpt lat="41.65373978804734" lon="15.402672719252397"><ele>73.0</ele><time>2026-04-19T16:29:00Z</time></trkpt><trkpt lat="41.65374362691655" lon="15.40291992763376"><ele>73.0</ele><time>2026-04-19T16:29:01Z</time></trkpt><trkpt lat="41.65374849435538" lon="15.403163112034896"><ele>73.0</ele><time>2026-04-19T16:29:02Z</time></trkpt><trkpt lat="41.65375491288188" lon="15.403399873816017"><ele>73.0</ele><time>2026-04-19T16:29:03Z</time></trkpt><trkpt lat="41.65375783847874" lon="15.403637657347666"><ele>73.0</ele><time>2026-04-19T16:29:04Z</time></trkpt><trkpt lat="41.653765552221934" lon="15.403881660993575"><ele>73.0</ele><time>2026-04-19T16:29:05Z</time></trkpt><trkpt lat="41.65376888405105" lon="15.40412554770643"><ele>73.0</ele><time>2026-04-19T16:29:06Z</time></trkpt><trkpt lat="41.65377039287354" lon="15.40437551534409"><ele>73.0</ele><time>2026-04-19T16:29:07Z</time></trkpt><trkpt lat="41.653775500431024" lon="15.404625650261877"><ele>73.0</ele><time>2026-04-19T16:29:08Z</time></trkpt><trkpt lat="41.65378072455328" lon="15.404874429077697"><ele>73.0</ele><time>2026-04-19T16:29:09Z</time></trkpt><trkpt lat="41.65378857110394" lon="15.405116340346579"><ele>73.0</ele><time>2026-04-19T16:29:10Z</time></trkpt><trkpt lat="41.653792245058256" lon="15.405364273476659"><ele>73.0</ele><time>2026-04-19T16:29:11Z</time></trkpt><trkpt lat="41.6537916481611" lon="15.405612584129663"><ele>73.33333333333333</ele><time>2026-04-19T16:29:12Z</time></trkpt><trkpt lat="41.653798035615445" lon="15.405858400496703"><ele>73.66666666666667</ele><time>2026-04-19T16:29:13Z</time></trkpt><trkpt lat="41.65379902925503" lon="15.40610863850151"><ele>74.0</ele><time>2026-04-19T16:29:14Z</time></trkpt><trkpt lat="41.65380301797617" lon="15.40635142071852"><ele>74.0</ele><time>2026-04-19T16:29:15Z</time></trkpt><trkpt lat="41.653812251351056" lon="15.406591993822234"><ele>74.0</ele><time>2026-04-19T16:29:16Z</time></trkpt><trkpt lat="41.65382103157305" lon="15.406836748397485"><ele>74.0</ele><time>2026-04-19T16:29:17Z</time></trkpt><trkpt lat="41.65382603562463" lon="15.40707747168523"><ele>73.66666666666667</ele><time>2026-04-19T16:29:18Z</time></trkpt><trkpt lat="41.65382778843075" lon="15.407315566366634"><ele>73.33333333333333</ele><time>2026-04-19T16:29:19Z</time></trkpt><trkpt lat="41.65383413067014" lon="15.407556305938698"><ele>73.0</ele><time>2026-04-19T16:29:20Z</time></trkpt><trkpt lat="41.65383076177935" lon="15.40778535608634"><ele>72.66666666666666</ele><time>2026-04-19T16:29:21Z</time></trkpt><trkpt lat="41.65383458870747" lon="15.407993896725582"><ele>72.33333333333333</ele><time>2026-04-19T16:29:22Z</time></trkpt><trkpt lat="41.653839230918884" lon="15.408197186694123"><ele>72.0</ele><time>2026-04-19T16:29:23Z</time></trkpt><trkpt lat="41.65384110973107" lon="15.40839964051803"><ele>72.0</ele><time>2026-04-19T16:29:24Z</time></trkpt><trkpt lat="41.653842587568064" lon="15.40859885457557"><ele>72.0</ele><time>2026-04-19T16:29:25Z</time></trkpt><trkpt lat="41.65384784774002" lon="15.408794718013986"><ele>72.0</ele><time>2026-04-19T16:29:26Z</time></trkpt><trkpt lat="41.65385090466073" lon="15.408993889367567"><ele>72.0</ele><time>2026-04-19T16:29:27Z</time></trkpt><trkpt lat="41.653852810822116" lon="15.409188355878014"><ele>72.0</ele><time>2026-04-19T16:29:28Z</time></trkpt><trkpt lat="41.6538560273074" lon="15.409382254207749"><ele>72.0</ele><time>2026-04-19T16:29:29Z</time></trkpt><trkpt lat="41.65385842657686" lon="15.409590556328624"><ele>72.0</ele><time>2026-04-19T16:29:30Z</time></trkpt><trkpt lat="41.65386321552655" lon="15.40980205876051"><ele>72.0</ele><time>2026-04-19T16:29:31Z</time></trkpt><trkpt lat="41.65386860262859" lon="15.410018167737572"><ele>72.0</ele><time>2026-04-19T16:29:32Z</time></trkpt><trkpt lat="41.65387229269507" lon="15.410232406334153"><ele>72.0</ele><time>2026-04-19T16:29:33Z</time></trkpt><trkpt lat="41.65386983703694" lon="15.41045569976562"><ele>71.66666666666667</ele><time>2026-04-19T16:29:34Z</time></trkpt><trkpt lat="41.65386563745088" lon="15.410681048543127"><ele>71.33333333333334</ele><time>2026-04-19T16:29:35Z</time></trkpt><trkpt lat="41.65386178557082" lon="15.410902201645118"><ele>71.0</ele><time>2026-04-19T16:29:36Z</time></trkpt><trkpt lat="41.653848328684795" lon="15.41114236612372"><ele>71.0</ele><time>2026-04-19T16:29:37Z</time></trkpt><trkpt lat="41.65384360554219" lon="15.411358059971912"><ele>71.0</ele><time>2026-04-19T16:29:38Z</time></trkpt><trkpt lat="41.65382812263873" lon="15.411586065225636"><ele>71.0</ele><time>2026-04-19T16:29:39Z</time></trkpt><trkpt lat="41.65381054764702" lon="15.411801851416348"><ele>71.0</ele><time>2026-04-19T16:29:40Z</time></trkpt><trkpt lat="41.653786786097065" lon="15.412033646696026"><ele>71.0</ele><time>2026-04-19T16:29:41Z</time></trkpt><trkpt lat="41.65376147827701" lon="15.412252146849553"><ele>71.0</ele><time>2026-04-19T16:29:42Z</time></trkpt><trkpt lat="41.653721612251964" lon="15.412479213511668"><ele>71.0</ele><time>2026-04-19T16:29:43Z</time></trkpt><trkpt lat="41.65369244106616" lon="15.412689575998495"><ele>71.0</ele><time>2026-04-19T16:29:44Z</time></trkpt><trkpt lat="41.65366155684093" lon="15.41291176416671"><ele>71.0</ele><time>2026-04-19T16:29:45Z</time></trkpt><trkpt lat="41.65362175661608" lon="15.413136718619965"><ele>71.33333333333334</ele><time>2026-04-19T16:29:46Z</time></trkpt><trkpt lat="41.653574801451676" lon="15.413355210077638"><ele>71.66666666666667</ele><time>2026-04-19T16:29:47Z</time></trkpt><trkpt lat="41.653528596898916" lon="15.413572400260286"><ele>72.0</ele><time>2026-04-19T16:29:48Z</time></trkpt><trkpt lat="41.65348238542035" lon="15.413782509576851"><ele>71.66666666666667</ele><time>2026-04-19T16:29:49Z</time></trkpt><trkpt lat="41.65343371920126" lon="15.413996497137427"><ele>71.33333333333334</ele><time>2026-04-19T16:29:50Z</time></trkpt><trkpt lat="41.653386256325945" lon="15.414182181356983"><ele>71.0</ele><time>2026-04-19T16:29:51Z</time></trkpt><trkpt lat="41.653340408433294" lon="15.414360556966878"><ele>71.0</ele><time>2026-04-19T16:29:52Z</time></trkpt><trkpt lat="41.653279058311576" lon="15.414574898726773"><ele>71.0</ele><time>2026-04-19T16:29:53Z</time></trkpt><trkpt lat="41.65321869058951" lon="15.414767425560948"><ele>71.0</ele><time>2026-04-19T16:29:54Z</time></trkpt><trkpt lat="41.653159018074824" lon="15.414957819119486"><ele>70.66666666666667</ele><time>2026-04-19T16:29:55Z</time></trkpt><trkpt lat="41.65309845812389" lon="15.41514985726318"><ele>70.33333333333333</ele><time>2026-04-19T16:29:56Z</time></trkpt><trkpt lat="41.65303234550198" lon="15.415346994204759"><ele>70.0</ele><time>2026-04-19T16:29:57Z</time></trkpt><trkpt lat="41.65296564131385" lon="15.415531163932448"><ele>70.0</ele><time>2026-04-19T16:29:58Z</time></trkpt><trkpt lat="41.65289493591165" lon="15.415725170854028"><ele>70.0</ele><time>2026-04-19T16:29:59Z</time></trkpt><trkpt lat="41.65281803321711" lon="15.415916056158556"><ele>70.0</ele><time>2026-04-19T16:30:00Z</time></trkpt><trkpt lat="41.6527367639993" lon="15.416113857226295"><ele>70.0</ele><time>2026-04-19T16:30:01Z</time></trkpt><trkpt lat="41.65265092517228" lon="15.416308257054387"><ele>70.0</ele><time>2026-04-19T16:30:02Z</time></trkpt><trkpt lat="41.65256228153707" lon="15.416509617366822"><ele>70.0</ele><time>2026-04-19T16:30:03Z</time></trkpt><trkpt lat="41.65247251499478" lon="15.416707370032267"><ele>70.0</ele><time>2026-04-19T16:30:04Z</time></trkpt><trkpt lat="41.652375556346726" lon="15.416911104496164"><ele>70.0</ele><time>2026-04-19T16:30:05Z</time></trkpt><trkpt lat="41.65227192063619" lon="15.417110243182064"><ele>70.0</ele><time>2026-04-19T16:30:06Z</time></trkpt><trkpt lat="41.65216753337056" lon="15.417300715954365"><ele>69.66666666666666</ele><time>2026-04-19T16:30:07Z</time></trkpt><trkpt lat="41.65205800820805" lon="15.417499033828154"><ele>69.33333333333333</ele><time>2026-04-19T16:30:08Z</time></trkpt><trkpt lat="41.65194480240863" lon="15.417696958944578"><ele>69.0</ele><time>2026-04-19T16:30:09Z</time></trkpt><trkpt lat="41.65182680229241" lon="15.417894436515951"><ele>68.0</ele><time>2026-04-19T16:30:10Z</time></trkpt><trkpt lat="41.65170451102364" lon="15.418089993608891"><ele>67.0</ele><time>2026-04-19T16:30:11Z</time></trkpt><trkpt lat="41.65157794849643" lon="15.418290200319376"><ele>66.0</ele><time>2026-04-19T16:30:12Z</time></trkpt><trkpt lat="41.65144784630445" lon="15.41847632845786"><ele>66.0</ele><time>2026-04-19T16:30:13Z</time></trkpt><trkpt lat="41.65132032625587" lon="15.418639005931812"><ele>66.0</ele><time>2026-04-19T16:30:14Z</time></trkpt><trkpt lat="41.651203001116016" lon="15.418782151293055"><ele>66.0</ele><time>2026-04-19T16:30:15Z</time></trkpt><trkpt lat="41.65105464092675" lon="15.41899740969135"><ele>65.66666666666667</ele><time>2026-04-19T16:30:16Z</time></trkpt><trkpt lat="41.650914316357266" lon="15.41917730599132"><ele>65.33333333333334</ele><time>2026-04-19T16:30:17Z</time></trkpt><trkpt lat="41.650774421711056" lon="15.419346610146002"><ele>65.0</ele><time>2026-04-19T16:30:18Z</time></trkpt><trkpt lat="41.65063546477063" lon="15.419506062106409"><ele>65.0</ele><time>2026-04-19T16:30:19Z</time></trkpt><trkpt lat="41.6504939349309" lon="15.4196620169078"><ele>65.0</ele><time>2026-04-19T16:30:20Z</time></trkpt><trkpt lat="41.650349736884124" lon="15.419813495011178"><ele>65.0</ele><time>2026-04-19T16:30:21Z</time></trkpt><trkpt lat="41.6502040063347" lon="15.419965355172373"><ele>64.66666666666667</ele><time>2026-04-19T16:30:22Z</time></trkpt><trkpt lat="41.650052469197924" lon="15.420127191593416"><ele>64.33333333333333</ele><time>2026-04-19T16:30:23Z</time></trkpt><trkpt lat="41.64989982448309" lon="15.420284987034615"><ele>64.0</ele><time>2026-04-19T16:30:24Z</time></trkpt><trkpt lat="41.649742570726374" lon="15.420447301201678"><ele>64.0</ele><time>2026-04-19T16:30:25Z</time></trkpt><trkpt lat="41.6495875911917" lon="15.42061128258016"><ele>64.0</ele><time>2026-04-19T16:30:26Z</time></trkpt><trkpt lat="41.6494324540517" lon="15.420772057622631"><ele>64.0</ele><time>2026-04-19T16:30:27Z</time></trkpt><trkpt lat="41.6492751597823" lon="15.420939924220301"><ele>64.33333333333333</ele><time>2026-04-19T16:30:28Z</time></trkpt><trkpt lat="41.64912373231838" lon="15.421104024431239"><ele>64.66666666666667</ele><time>2026-04-19T16:30:29Z</time></trkpt><trkpt lat="41.64897375661648" lon="15.421265495438512"><ele>65.0</ele><time>2026-04-19T16:30:30Z</time></trkpt><trkpt lat="41.648828048502175" lon="15.42141922118912"><ele>65.0</ele><time>2026-04-19T16:30:31Z</time></trkpt><trkpt lat="41.64868546166218" lon="15.421566988882303"><ele>65.0</ele><time>2026-04-19T16:30:32Z</time></trkpt><trkpt lat="41.64853678452784" lon="15.421717566389137"><ele>65.0</ele><time>2026-04-19T16:30:33Z</time></trkpt><trkpt lat="41.64839125272147" lon="15.421867275430888"><ele>65.33333333333334</ele><time>2026-04-19T16:30:34Z</time></trkpt><trkpt lat="41.648248602469536" lon="15.422018248470202"><ele>65.66666666666667</ele><time>2026-04-19T16:30:35Z</time></trkpt><trkpt lat="41.648103969060635" lon="15.422174071399773"><ele>66.0</ele><time>2026-04-19T16:30:36Z</time></trkpt><trkpt lat="41.64796318661693" lon="15.422326072130112"><ele>66.0</ele><time>2026-04-19T16:30:37Z</time></trkpt><trkpt lat="41.647824106366215" lon="15.422470127224102"><ele>66.0</ele><time>2026-04-19T16:30:38Z</time></trkpt><trkpt lat="41.64767684441784" lon="15.422623584577236"><ele>66.0</ele><time>2026-04-19T16:30:39Z</time></trkpt><trkpt lat="41.647533004047204" lon="15.422766593226433"><ele>66.0</ele><time>2026-04-19T16:30:40Z</time></trkpt><trkpt lat="41.64738932927226" lon="15.422917666992191"><ele>66.0</ele><time>2026-04-19T16:30:41Z</time></trkpt><trkpt lat="41.64724383138848" lon="15.423069924364778"><ele>66.0</ele><time>2026-04-19T16:30:42Z</time></trkpt><trkpt lat="41.64709994075147" lon="15.423218381106759"><ele>65.66666666666667</ele><time>2026-04-19T16:30:43Z</time></trkpt><trkpt lat="41.646954591782" lon="15.423372499020882"><ele>65.33333333333334</ele><time>2026-04-19T16:30:44Z</time></trkpt><trkpt lat="41.64681371613882" lon="15.4235258988647"><ele>65.0</ele><time>2026-04-19T16:30:45Z</time></trkpt><trkpt lat="41.64667721038035" lon="15.423670763325525"><ele>64.66666666666667</ele><time>2026-04-19T16:30:46Z</time></trkpt><trkpt lat="41.64653794329395" lon="15.423815270678706"><ele>64.33333333333333</ele><time>2026-04-19T16:30:47Z</time></trkpt><trkpt lat="41.64639646930141" lon="15.423963171899649"><ele>64.0</ele><time>2026-04-19T16:30:48Z</time></trkpt><trkpt lat="41.646261858932505" lon="15.424103811805098"><ele>64.33333333333333</ele><time>2026-04-19T16:30:49Z</time></trkpt><trkpt lat="41.64611715445989" lon="15.424253048949845"><ele>64.66666666666667</ele><time>2026-04-19T16:30:50Z</time></trkpt><trkpt lat="41.64598281942903" lon="15.42439288703888"><ele>65.0</ele><time>2026-04-19T16:30:51Z</time></trkpt><trkpt lat="41.64584640218805" lon="15.424540073851619"><ele>65.0</ele><time>2026-04-19T16:30:52Z</time></trkpt><trkpt lat="41.64571114517618" lon="15.424684208536348"><ele>65.0</ele><time>2026-04-19T16:30:53Z</time></trkpt><trkpt lat="41.64557454561295" lon="15.424828557349857"><ele>65.0</ele><time>2026-04-19T16:30:54Z</time></trkpt><trkpt lat="41.64543480337086" lon="15.424974637329159"><ele>65.0</ele><time>2026-04-19T16:30:55Z</time></trkpt><trkpt lat="41.64529678915243" lon="15.425116273082455"><ele>65.0</ele><time>2026-04-19T16:30:56Z</time></trkpt><trkpt lat="41.64515045032347" lon="15.425264125298783"><ele>65.0</ele><time>2026-04-19T16:30:57Z</time></trkpt><trkpt lat="41.64501509147037" lon="15.425400980705604"><ele>64.33333333333334</ele><time>2026-04-19T16:30:58Z</time></trkpt><trkpt lat="41.64488045353594" lon="15.425548548200528"><ele>63.66666666666667</ele><time>2026-04-19T16:30:59Z</time></trkpt><trkpt lat="41.64474685719985" lon="15.42568804193394"><ele>63.0</ele><time>2026-04-19T16:31:00Z</time></trkpt><trkpt lat="41.64461279436484" lon="15.425828204053278"><ele>63.0</ele><time>2026-04-19T16:31:01Z</time></trkpt><trkpt lat="41.64447658252181" lon="15.42597260883759"><ele>63.0</ele><time>2026-04-19T16:31:02Z</time></trkpt><trkpt lat="41.64434392308915" lon="15.42611438670132"><ele>63.0</ele><time>2026-04-19T16:31:03Z</time></trkpt><trkpt lat="41.6442068399227" lon="15.42625829948312"><ele>63.0</ele><time>2026-04-19T16:31:04Z</time></trkpt><trkpt lat="41.64407019912316" lon="15.426398425034066"><ele>63.0</ele><time>2026-04-19T16:31:05Z</time></trkpt><trkpt lat="41.64393517142634" lon="15.426540510153137"><ele>63.0</ele><time>2026-04-19T16:31:06Z</time></trkpt><trkpt lat="41.64380042802569" lon="15.426687100764722"><ele>63.0</ele><time>2026-04-19T16:31:07Z</time></trkpt><trkpt lat="41.64366557031461" lon="15.4268287964097"><ele>63.0</ele><time>2026-04-19T16:31:08Z</time></trkpt><trkpt lat="41.64353186892949" lon="15.426966786204614"><ele>63.0</ele><time>2026-04-19T16:31:09Z</time></trkpt><trkpt lat="41.64339785586318" lon="15.427106178634192"><ele>63.0</ele><time>2026-04-19T16:31:10Z</time></trkpt><trkpt lat="41.6432663253641" lon="15.42724481700816"><ele>63.0</ele><time>2026-04-19T16:31:11Z</time></trkpt><trkpt lat="41.64313553652671" lon="15.427385876692654"><ele>63.0</ele><time>2026-04-19T16:31:12Z</time></trkpt><trkpt lat="41.642998937324776" lon="15.427529201365548"><ele>63.0</ele><time>2026-04-19T16:31:13Z</time></trkpt><trkpt lat="41.64286937664651" lon="15.427654516386928"><ele>63.0</ele><time>2026-04-19T16:31:14Z</time></trkpt><trkpt lat="41.642761098019285" lon="15.427766568149025"><ele>63.0</ele><time>2026-04-19T16:31:15Z</time></trkpt><trkpt lat="41.64265133647018" lon="15.427865587677129"><ele>63.0</ele><time>2026-04-19T16:31:16Z</time></trkpt><trkpt lat="41.6425552928132" lon="15.427988985287184"><ele>63.25</ele><time>2026-04-19T16:31:17Z</time></trkpt><trkpt lat="41.64246379351743" lon="15.428089888601784"><ele>63.5</ele><time>2026-04-19T16:31:18Z</time></trkpt><trkpt lat="41.64237406822939" lon="15.428175482884656"><ele>63.75</ele><time>2026-04-19T16:31:19Z</time></trkpt><trkpt lat="41.64228109425971" lon="15.428278908664485"><ele>64.0</ele><time>2026-04-19T16:31:20Z</time></trkpt><trkpt lat="41.642192628722306" lon="15.428369998682063"><ele>64.0</ele><time>2026-04-19T16:31:21Z</time></trkpt><trkpt lat="41.642111493486354" lon="15.428455909222949"><ele>64.0</ele><time>2026-04-19T16:31:22Z</time></trkpt><trkpt lat="41.642029411677875" lon="15.428544007011922"><ele>64.0</ele><time>2026-04-19T16:31:23Z</time></trkpt><trkpt lat="41.64195103251935" lon="15.428613324709067"><ele>64.0</ele><time>2026-04-19T16:31:24Z</time></trkpt><trkpt lat="41.64187532652172" lon="15.42868912113401"><ele>64.0</ele><time>2026-04-19T16:31:25Z</time></trkpt><trkpt lat="41.64179526252875" lon="15.428759464578757"><ele>63.83333333333333</ele><time>2026-04-19T16:31:26Z</time></trkpt><trkpt lat="41.64171112812041" lon="15.42880497044995"><ele>63.666666666666664</ele><time>2026-04-19T16:31:27Z</time></trkpt><trkpt lat="41.64162761060399" lon="15.428830294625472"><ele>63.5</ele><time>2026-04-19T16:31:28Z</time></trkpt><trkpt lat="41.64155673009227" lon="15.428854910712698"><ele>63.33333333333333</ele><time>2026-04-19T16:31:29Z</time></trkpt><trkpt lat="41.64149895616163" lon="15.428913637931316"><ele>63.166666666666664</ele><time>2026-04-19T16:31:30Z</time></trkpt><trkpt lat="41.64146117553068" lon="15.42899512029236"><ele>63.0</ele><time>2026-04-19T16:31:31Z</time></trkpt><trkpt lat="41.641435266878595" lon="15.429088354583033"><ele>63.333333333333336</ele><time>2026-04-19T16:31:32Z</time></trkpt><trkpt lat="41.641401981160435" lon="15.429174831784742"><ele>63.66666666666667</ele><time>2026-04-19T16:31:33Z</time></trkpt><trkpt lat="41.641349909652035" lon="15.429251900689627"><ele>64.0</ele><time>2026-04-19T16:31:34Z</time></trkpt><trkpt lat="41.64128691035898" lon="15.42931910267835"><ele>64.33333333333334</ele><time>2026-04-19T16:31:35Z</time></trkpt><trkpt lat="41.64122071259073" lon="15.429387911978283"><ele>64.66666666666667</ele><time>2026-04-19T16:31:36Z</time></trkpt><trkpt lat="41.64114422811705" lon="15.429465202542401"><ele>65.0</ele><time>2026-04-19T16:31:37Z</time></trkpt><trkpt lat="41.64106834053455" lon="15.429541816355428"><ele>65.0</ele><time>2026-04-19T16:31:38Z</time></trkpt><trkpt lat="41.64099764975865" lon="15.429613759574176"><ele>65.0</ele><time>2026-04-19T16:31:39Z</time></trkpt><trkpt lat="41.640924070068756" lon="15.429690727901916"><ele>65.0</ele><time>2026-04-19T16:31:40Z</time></trkpt><trkpt lat="41.64085139503483" lon="15.429769739456654"><ele>65.0</ele><time>2026-04-19T16:31:41Z</time></trkpt><trkpt lat="41.640771007810116" lon="15.429856168098727"><ele>65.0</ele><time>2026-04-19T16:31:42Z</time></trkpt><trkpt lat="41.640673832557525" lon="15.429957052208296"><ele>65.0</ele><time>2026-04-19T16:31:43Z</time></trkpt><trkpt lat="41.64057344040473" lon="15.430063769428754"><ele>65.0</ele><time>2026-04-19T16:31:44Z</time></trkpt><trkpt lat="41.64046214052614" lon="15.430182767656431"><ele>65.0</ele><time>2026-04-19T16:31:45Z</time></trkpt><trkpt lat="41.64034111863041" lon="15.43031242250219"><ele>65.0</ele><time>2026-04-19T16:31:46Z</time></trkpt><trkpt lat="41.64022420645706" lon="15.430429177579144"><ele>65.0</ele><time>2026-04-19T16:31:47Z</time></trkpt><trkpt lat="41.64010038166102" lon="15.43056560130286"><ele>65.0</ele><time>2026-04-19T16:31:48Z</time></trkpt><trkpt lat="41.63997483362003" lon="15.430710985878823"><ele>65.0</ele><time>2026-04-19T16:31:49Z</time></trkpt><trkpt lat="41.63982657533799" lon="15.430842361886276"><ele>65.0</ele><time>2026-04-19T16:31:50Z</time></trkpt><trkpt lat="41.63969089148076" lon="15.431004556909745"><ele>65.0</ele><time>2026-04-19T16:31:51Z</time></trkpt><trkpt lat="41.639546091063075" lon="15.431146282125706"><ele>65.0</ele><time>2026-04-19T16:31:52Z</time></trkpt><trkpt lat="41.639392328853056" lon="15.431310300907548"><ele>64.66666666666667</ele><time>2026-04-19T16:31:53Z</time></trkpt><trkpt lat="41.639234103529944" lon="15.431478827036608"><ele>64.33333333333333</ele><time>2026-04-19T16:31:54Z</time></trkpt><trkpt lat="41.63907723728461" lon="15.43164178880314"><ele>64.0</ele><time>2026-04-19T16:31:55Z</time></trkpt><trkpt lat="41.6389131895727" lon="15.43181263882932"><ele>64.0</ele><time>2026-04-19T16:31:56Z</time></trkpt><trkpt lat="41.638748975527086" lon="15.431985723002684"><ele>64.0</ele><time>2026-04-19T16:31:57Z</time></trkpt><trkpt lat="41.63858147461338" lon="15.43216326229622"><ele>64.0</ele><time>2026-04-19T16:31:58Z</time></trkpt><trkpt lat="41.6384132413828" lon="15.432341455073933"><ele>63.666666666666664</ele><time>2026-04-19T16:31:59Z</time></trkpt><trkpt lat="41.638240145703854" lon="15.432523616793697"><ele>63.33333333333333</ele><time>2026-04-19T16:32:00Z</time></trkpt><trkpt lat="41.63806883600479" lon="15.432707158476775"><ele>63.0</ele><time>2026-04-19T16:32:01Z</time></trkpt><trkpt lat="41.63788372453971" lon="15.43287470733707"><ele>62.66666666666667</ele><time>2026-04-19T16:32:02Z</time></trkpt><trkpt lat="41.63770672650362" lon="15.433059286781868"><ele>62.333333333333336</ele><time>2026-04-19T16:32:03Z</time></trkpt><trkpt lat="41.63753094497634" lon="15.433242550302406"><ele>62.0</ele><time>2026-04-19T16:32:04Z</time></trkpt><trkpt lat="41.63735822397293" lon="15.433422623006374"><ele>62.0</ele><time>2026-04-19T16:32:05Z</time></trkpt><trkpt lat="41.63718807378045" lon="15.433600015220012"><ele>62.0</ele><time>2026-04-19T16:32:06Z</time></trkpt><trkpt lat="41.63702103844092" lon="15.433774160345425"><ele>62.0</ele><time>2026-04-19T16:32:07Z</time></trkpt><trkpt lat="41.63684711389252" lon="15.433955487663146"><ele>61.0</ele><time>2026-04-19T16:32:08Z</time></trkpt><trkpt lat="41.636676245312444" lon="15.434133798473097"><ele>60.0</ele><time>2026-04-19T16:32:09Z</time></trkpt><trkpt lat="41.63650107807625" lon="15.434317452382857"><ele>59.0</ele><time>2026-04-19T16:32:10Z</time></trkpt><trkpt lat="41.63632755416176" lon="15.434499383318538"><ele>58.5</ele><time>2026-04-19T16:32:11Z</time></trkpt><trkpt lat="41.636149376316105" lon="15.434686193702282"><ele>58.0</ele><time>2026-04-19T16:32:12Z</time></trkpt><trkpt lat="41.63597161103196" lon="15.434872571545052"><ele>58.0</ele><time>2026-04-19T16:32:13Z</time></trkpt><trkpt lat="41.635803667228885" lon="15.435048651996908"><ele>58.0</ele><time>2026-04-19T16:32:14Z</time></trkpt><trkpt lat="41.635638913226316" lon="15.435221388148115"><ele>58.0</ele><time>2026-04-19T16:32:15Z</time></trkpt><trkpt lat="41.63547796133289" lon="15.43539013804929"><ele>58.0</ele><time>2026-04-19T16:32:16Z</time></trkpt><trkpt lat="41.63532650521631" lon="15.435548932114925"><ele>58.0</ele><time>2026-04-19T16:32:17Z</time></trkpt><trkpt lat="41.63517795791551" lon="15.435704676373893"><ele>58.0</ele><time>2026-04-19T16:32:18Z</time></trkpt><trkpt lat="41.63503264117576" lon="15.435856720303454"><ele>57.33333333333333</ele><time>2026-04-19T16:32:19Z</time></trkpt><trkpt lat="41.634889418084235" lon="15.436006443748049"><ele>56.66666666666667</ele><time>2026-04-19T16:32:20Z</time></trkpt><trkpt lat="41.634751266994016" lon="15.436150882028814"><ele>56.0</ele><time>2026-04-19T16:32:21Z</time></trkpt><trkpt lat="41.634612340325674" lon="15.436296204256184"><ele>56.0</ele><time>2026-04-19T16:32:22Z</time></trkpt><trkpt lat="41.634480751891296" lon="15.43643385038767"><ele>56.0</ele><time>2026-04-19T16:32:23Z</time></trkpt><trkpt lat="41.63435907655762" lon="15.436561127020909"><ele>56.0</ele><time>2026-04-19T16:32:24Z</time></trkpt><trkpt lat="41.63424377804837" lon="15.436681733547026"><ele>55.5</ele><time>2026-04-19T16:32:25Z</time></trkpt><trkpt lat="41.63412906694641" lon="15.436801725303678"><ele>55.0</ele><time>2026-04-19T16:32:26Z</time></trkpt><trkpt lat="41.634023905241534" lon="15.436911728233815"><ele>54.5</ele><time>2026-04-19T16:32:27Z</time></trkpt><trkpt lat="41.63392912329564" lon="15.437010873734126"><ele>54.0</ele><time>2026-04-19T16:32:28Z</time></trkpt><trkpt lat="41.6338348037913" lon="15.437109958046143"><ele>54.0</ele><time>2026-04-19T16:32:29Z</time></trkpt><trkpt lat="41.63374018618559" lon="15.43720934198377"><ele>54.00000000000001</ele><time>2026-04-19T16:32:30Z</time></trkpt><trkpt lat="41.63365338734276" lon="15.43729991535259"><ele>54.00000000000001</ele><time>2026-04-19T16:32:31Z</time></trkpt><trkpt lat="41.63357182967933" lon="15.437384959668448"><ele>54.0</ele><time>2026-04-19T16:32:32Z</time></trkpt><trkpt lat="41.63349723377706" lon="15.43746274464716"><ele>54.0</ele><time>2026-04-19T16:32:33Z</time></trkpt><trkpt lat="41.63342058527374" lon="15.437542669913093"><ele>53.800000000000004</ele><time>2026-04-19T16:32:34Z</time></trkpt><trkpt lat="41.63334099261414" lon="15.43762533011102"><ele>53.60000000000001</ele><time>2026-04-19T16:32:35Z</time></trkpt><trkpt lat="41.63325694830968" lon="15.437712553533697"><ele>53.4</ele><time>2026-04-19T16:32:36Z</time></trkpt><trkpt lat="41.63318452932536" lon="15.43781564448026"><ele>53.2</ele><time>2026-04-19T16:32:37Z</time></trkpt><trkpt lat="41.63310673352901" lon="15.437893753824275"><ele>53.0</ele><time>2026-04-19T16:32:38Z</time></trkpt><trkpt lat="41.633022207668986" lon="15.43798219157771"><ele>53.0</ele><time>2026-04-19T16:32:39Z</time></trkpt><trkpt lat="41.632938635002574" lon="15.438069497570616"><ele>53.0</ele><time>2026-04-19T16:32:40Z</time></trkpt><trkpt lat="41.63285641920244" lon="15.438156782381153"><ele>53.0</ele><time>2026-04-19T16:32:41Z</time></trkpt><trkpt lat="41.63276841057663" lon="15.438246603861634"><ele>53.0</ele><time>2026-04-19T16:32:42Z</time></trkpt><trkpt lat="41.63267807975697" lon="15.438338527706055"><ele>53.0</ele><time>2026-04-19T16:32:43Z</time></trkpt><trkpt lat="41.63259003578325" lon="15.438424088177674"><ele>52.599999999999994</ele><time>2026-04-19T16:32:44Z</time></trkpt><trkpt lat="41.63251297654912" lon="15.438498832876647"><ele>52.199999999999996</ele><time>2026-04-19T16:32:45Z</time></trkpt><trkpt lat="41.63242598691616" lon="15.438597683915505"><ele>51.8</ele><time>2026-04-19T16:32:46Z</time></trkpt><trkpt lat="41.63233637781422" lon="15.43869631494319"><ele>51.4</ele><time>2026-04-19T16:32:47Z</time></trkpt><trkpt lat="41.63224771799273" lon="15.43879212788805"><ele>51.0</ele><time>2026-04-19T16:32:48Z</time></trkpt><trkpt lat="41.632151984058915" lon="15.438893066683287"><ele>50.75</ele><time>2026-04-19T16:32:49Z</time></trkpt><trkpt lat="41.63205519787775" lon="15.438994430394775"><ele>50.5</ele><time>2026-04-19T16:32:50Z</time></trkpt><trkpt lat="41.63195856763452" lon="15.439094710179498"><ele>50.25</ele><time>2026-04-19T16:32:51Z</time></trkpt><trkpt lat="41.63185951589317" lon="15.43919561551585"><ele>50.0</ele><time>2026-04-19T16:32:52Z</time></trkpt><trkpt lat="41.63175926802881" lon="15.439300995764816"><ele>50.5</ele><time>2026-04-19T16:32:53Z</time></trkpt><trkpt lat="41.63165298693411" lon="15.439413639363465"><ele>51.0</ele><time>2026-04-19T16:32:54Z</time></trkpt><trkpt lat="41.63153654851729" lon="15.439533127144923"><ele>51.5</ele><time>2026-04-19T16:32:55Z</time></trkpt><trkpt lat="41.63141694375768" lon="15.439661440593241"><ele>52.0</ele><time>2026-04-19T16:32:56Z</time></trkpt><trkpt lat="41.63130461171481" lon="15.439778686096387"><ele>52.0</ele><time>2026-04-19T16:32:57Z</time></trkpt><trkpt lat="41.631191136353046" lon="15.439900115153108"><ele>52.0</ele><time>2026-04-19T16:32:58Z</time></trkpt><trkpt lat="41.631075578660926" lon="15.44002339007397"><ele>52.0</ele><time>2026-04-19T16:32:59Z</time></trkpt><trkpt lat="41.630964924101924" lon="15.44013601252623"><ele>52.0</ele><time>2026-04-19T16:33:00Z</time></trkpt><trkpt lat="41.63085031937589" lon="15.440253341304869"><ele>51.5</ele><time>2026-04-19T16:33:01Z</time></trkpt><trkpt lat="41.63073743181699" lon="15.4403730267294"><ele>51.0</ele><time>2026-04-19T16:33:02Z</time></trkpt><trkpt lat="41.630626422197196" lon="15.440492794010858"><ele>50.5</ele><time>2026-04-19T16:33:03Z</time></trkpt><trkpt lat="41.630513380934616" lon="15.440610458839622"><ele>50.0</ele><time>2026-04-19T16:33:04Z</time></trkpt><trkpt lat="41.6303987778171" lon="15.440727733303968"><ele>50.0</ele><time>2026-04-19T16:33:05Z</time></trkpt><trkpt lat="41.6302805475126" lon="15.44085258747134"><ele>50.0</ele><time>2026-04-19T16:33:06Z</time></trkpt><trkpt lat="41.63016374501676" lon="15.4409700388398"><ele>50.0</ele><time>2026-04-19T16:33:07Z</time></trkpt><trkpt lat="41.63004319438213" lon="15.441094341724558"><ele>50.0</ele><time>2026-04-19T16:33:08Z</time></trkpt><trkpt lat="41.62992280675373" lon="15.441221153683248"><ele>50.0</ele><time>2026-04-19T16:33:09Z</time></trkpt><trkpt lat="41.62980296460839" lon="15.441347843770725"><ele>50.0</ele><time>2026-04-19T16:33:10Z</time></trkpt><trkpt lat="41.62968425478722" lon="15.441467970277046"><ele>50.0</ele><time>2026-04-19T16:33:11Z</time></trkpt><trkpt lat="41.62956180877027" lon="15.441597632828554"><ele>49.333333333333336</ele><time>2026-04-19T16:33:12Z</time></trkpt><trkpt lat="41.629442306735356" lon="15.441723500689362"><ele>48.66666666666667</ele><time>2026-04-19T16:33:13Z</time></trkpt><trkpt lat="41.62932443640476" lon="15.441848525364097"><ele>48.0</ele><time>2026-04-19T16:33:14Z</time></trkpt><trkpt lat="41.6292075808303" lon="15.441970530201328"><ele>48.0</ele><time>2026-04-19T16:33:15Z</time></trkpt><trkpt lat="41.62908791355228" lon="15.442096622798289"><ele>48.0</ele><time>2026-04-19T16:33:16Z</time></trkpt><trkpt lat="41.62896854082941" lon="15.442220962572817"><ele>48.0</ele><time>2026-04-19T16:33:17Z</time></trkpt><trkpt lat="41.628855876181014" lon="15.442339602217116"><ele>48.0</ele><time>2026-04-19T16:33:18Z</time></trkpt><trkpt lat="41.62873384809654" lon="15.44246865766706"><ele>48.66666666666667</ele><time>2026-04-19T16:33:19Z</time></trkpt><trkpt lat="41.628617277988994" lon="15.442587668391758"><ele>49.333333333333336</ele><time>2026-04-19T16:33:20Z</time></trkpt><trkpt lat="41.62849708192738" lon="15.442713987646993"><ele>50.0</ele><time>2026-04-19T16:33:21Z</time></trkpt><trkpt lat="41.62837699457394" lon="15.442844377308285"><ele>50.5</ele><time>2026-04-19T16:33:22Z</time></trkpt><trkpt lat="41.62826509676416" lon="15.442964536529171"><ele>51.0</ele><time>2026-04-19T16:33:23Z</time></trkpt><trkpt lat="41.628148603397854" lon="15.443085251374596"><ele>51.5</ele><time>2026-04-19T16:33:24Z</time></trkpt><trkpt lat="41.62803086262322" lon="15.443206949455986"><ele>52.0</ele><time>2026-04-19T16:33:25Z</time></trkpt><trkpt lat="41.627913257913335" lon="15.443330545180777"><ele>50.666666666666664</ele><time>2026-04-19T16:33:26Z</time></trkpt><trkpt lat="41.627795749184195" lon="15.443453323474188"><ele>49.33333333333333</ele><time>2026-04-19T16:33:27Z</time></trkpt><trkpt lat="41.6276751562911" lon="15.443579218912713"><ele>48.0</ele><time>2026-04-19T16:33:28Z</time></trkpt><trkpt lat="41.6275543741755" lon="15.443704944565575"><ele>48.25</ele><time>2026-04-19T16:33:29Z</time></trkpt><trkpt lat="41.627436957025864" lon="15.443829449935778"><ele>48.5</ele><time>2026-04-19T16:33:30Z</time></trkpt><trkpt lat="41.62732039327567" lon="15.443954461542937"><ele>48.75</ele><time>2026-04-19T16:33:31Z</time></trkpt><trkpt lat="41.62720132370525" lon="15.444074865611311"><ele>49.0</ele><time>2026-04-19T16:33:32Z</time></trkpt><trkpt lat="41.6270874026162" lon="15.44419707055467"><ele>49.33333333333333</ele><time>2026-04-19T16:33:33Z</time></trkpt><trkpt lat="41.62696859574393" lon="15.444324835178778"><ele>49.66666666666667</ele><time>2026-04-19T16:33:34Z</time></trkpt><trkpt lat="41.62683696013452" lon="15.444435621152172"><ele>50.0</ele><time>2026-04-19T16:33:35Z</time></trkpt><trkpt lat="41.626713911208405" lon="15.444564731532477"><ele>50.0</ele><time>2026-04-19T16:33:36Z</time></trkpt><trkpt lat="41.626594922672425" lon="15.44468958141003"><ele>50.0</ele><time>2026-04-19T16:33:37Z</time></trkpt><trkpt lat="41.62647590024497" lon="15.444814466854229"><ele>50.0</ele><time>2026-04-19T16:33:38Z</time></trkpt><trkpt lat="41.626364230035605" lon="15.444957211313083"><ele>50.0</ele><time>2026-04-19T16:33:39Z</time></trkpt><trkpt lat="41.6262435613467" lon="15.445076017384233"><ele>50.0</ele><time>2026-04-19T16:33:40Z</time></trkpt><trkpt lat="41.62612268714729" lon="15.445203370162497"><ele>50.0</ele><time>2026-04-19T16:33:41Z</time></trkpt><trkpt lat="41.626004121894354" lon="15.445332725395568"><ele>50.0</ele><time>2026-04-19T16:33:42Z</time></trkpt><trkpt lat="41.62588491235254" lon="15.445461200606116"><ele>50.0</ele><time>2026-04-19T16:33:43Z</time></trkpt><trkpt lat="41.62575441974316" lon="15.445569318162057"><ele>50.0</ele><time>2026-04-19T16:33:44Z</time></trkpt><trkpt lat="41.625644568904974" lon="15.445710016022597"><ele>50.0</ele><time>2026-04-19T16:33:45Z</time></trkpt><trkpt lat="41.625522150136284" lon="15.445835358319636"><ele>50.0</ele><time>2026-04-19T16:33:46Z</time></trkpt><trkpt lat="41.62540468979131" lon="15.445959659782368"><ele>50.0</ele><time>2026-04-19T16:33:47Z</time></trkpt><trkpt lat="41.625283999827744" lon="15.446088045208553"><ele>50.0</ele><time>2026-04-19T16:33:48Z</time></trkpt><trkpt lat="41.62516554695843" lon="15.446212267998785"><ele>50.0</ele><time>2026-04-19T16:33:49Z</time></trkpt><trkpt lat="41.62505316611535" lon="15.446329978010574"><ele>50.0</ele><time>2026-04-19T16:33:50Z</time></trkpt><trkpt lat="41.62493832264768" lon="15.446449980747904"><ele>50.0</ele><time>2026-04-19T16:33:51Z</time></trkpt><trkpt lat="41.62481983957548" lon="15.4465723558198"><ele>49.5</ele><time>2026-04-19T16:33:52Z</time></trkpt><trkpt lat="41.624702605248025" lon="15.44669552384386"><ele>49.0</ele><time>2026-04-19T16:33:53Z</time></trkpt><trkpt lat="41.62458463434903" lon="15.446817998468063"><ele>48.5</ele><time>2026-04-19T16:33:54Z</time></trkpt><trkpt lat="41.62445992013881" lon="15.44692253967206"><ele>48.0</ele><time>2026-04-19T16:33:55Z</time></trkpt><trkpt lat="41.62434057315199" lon="15.44704726228131"><ele>48.0</ele><time>2026-04-19T16:33:56Z</time></trkpt><trkpt lat="41.62421840732644" lon="15.447174930604948"><ele>48.0</ele><time>2026-04-19T16:33:57Z</time></trkpt><trkpt lat="41.624099329877566" lon="15.447299371484958"><ele>48.0</ele><time>2026-04-19T16:33:58Z</time></trkpt><trkpt lat="41.62398052426206" lon="15.447424138715693"><ele>48.0</ele><time>2026-04-19T16:33:59Z</time></trkpt><trkpt lat="41.623858337265986" lon="15.447552514867583"><ele>48.0</ele><time>2026-04-19T16:34:00Z</time></trkpt><trkpt lat="41.62374912382309" lon="15.447694440192489"><ele>48.0</ele><time>2026-04-19T16:34:01Z</time></trkpt><trkpt lat="41.62362772912006" lon="15.447820232316285"><ele>48.0</ele><time>2026-04-19T16:34:02Z</time></trkpt><trkpt lat="41.62351138126803" lon="15.447944502060183"><ele>48.0</ele><time>2026-04-19T16:34:03Z</time></trkpt><trkpt lat="41.6233808468342" lon="15.448052700768434"><ele>48.0</ele><time>2026-04-19T16:34:04Z</time></trkpt><trkpt lat="41.62326153566735" lon="15.448177379106241"><ele>48.33333333333333</ele><time>2026-04-19T16:34:05Z</time></trkpt><trkpt lat="41.623138766297295" lon="15.44830567126139"><ele>48.666666666666664</ele><time>2026-04-19T16:34:06Z</time></trkpt><trkpt lat="41.623011279551186" lon="15.448438892481231"><ele>49.0</ele><time>2026-04-19T16:34:07Z</time></trkpt><trkpt lat="41.62288910866306" lon="15.448567114189549"><ele>49.0</ele><time>2026-04-19T16:34:08Z</time></trkpt><trkpt lat="41.62276139854851" lon="15.44870100973989"><ele>49.0</ele><time>2026-04-19T16:34:09Z</time></trkpt><trkpt lat="41.622636681050594" lon="15.448831767734191"><ele>49.0</ele><time>2026-04-19T16:34:10Z</time></trkpt><trkpt lat="41.62252747165157" lon="15.448973302453885"><ele>49.0</ele><time>2026-04-19T16:34:11Z</time></trkpt><trkpt lat="41.62240957255552" lon="15.449091876620594"><ele>49.0</ele><time>2026-04-19T16:34:12Z</time></trkpt><trkpt lat="41.622288564525675" lon="15.44921724055601"><ele>49.0</ele><time>2026-04-19T16:34:13Z</time></trkpt><trkpt lat="41.622168527679" lon="15.449344746517443"><ele>49.0</ele><time>2026-04-19T16:34:14Z</time></trkpt><trkpt lat="41.62204472888487" lon="15.449465858341838"><ele>49.0</ele><time>2026-04-19T16:34:15Z</time></trkpt><trkpt lat="41.621927619158356" lon="15.44959935360783"><ele>49.0</ele><time>2026-04-19T16:34:16Z</time></trkpt><trkpt lat="41.62180844829414" lon="15.449725560084135"><ele>49.0</ele><time>2026-04-19T16:34:17Z</time></trkpt><trkpt lat="41.62168709013448" lon="15.449854214968555"><ele>49.0</ele><time>2026-04-19T16:34:18Z</time></trkpt><trkpt lat="41.621565267280594" lon="15.449978599268954"><ele>49.0</ele><time>2026-04-19T16:34:19Z</time></trkpt><trkpt lat="41.62144400861273" lon="15.450104626662991"><ele>49.0</ele><time>2026-04-19T16:34:20Z</time></trkpt><trkpt lat="41.62131875340559" lon="15.450233955856326"><ele>49.0</ele><time>2026-04-19T16:34:21Z</time></trkpt><trkpt lat="41.62119154927641" lon="15.450366543399786"><ele>49.0</ele><time>2026-04-19T16:34:22Z</time></trkpt><trkpt lat="41.62107035078246" lon="15.450493809251496"><ele>48.666666666666664</ele><time>2026-04-19T16:34:23Z</time></trkpt><trkpt lat="41.6209516579117" lon="15.45062284463415"><ele>48.33333333333333</ele><time>2026-04-19T16:34:24Z</time></trkpt><trkpt lat="41.62082034084354" lon="15.450736652643338"><ele>48.0</ele><time>2026-04-19T16:34:25Z</time></trkpt><trkpt lat="41.62069654903132" lon="15.450866410349871"><ele>48.0</ele><time>2026-04-19T16:34:26Z</time></trkpt><trkpt lat="41.620583771219074" lon="15.451010766321545"><ele>48.0</ele><time>2026-04-19T16:34:27Z</time></trkpt><trkpt lat="41.62045706983312" lon="15.45114039620734"><ele>48.0</ele><time>2026-04-19T16:34:28Z</time></trkpt><trkpt lat="41.620337409195294" lon="15.451267941517326"><ele>48.0</ele><time>2026-04-19T16:34:29Z</time></trkpt><trkpt lat="41.62021867369349" lon="15.45139359939867"><ele>48.0</ele><time>2026-04-19T16:34:30Z</time></trkpt><trkpt lat="41.62009569082791" lon="15.451520723473383"><ele>48.0</ele><time>2026-04-19T16:34:31Z</time></trkpt><trkpt lat="41.61997641468143" lon="15.45164532855717"><ele>48.0</ele><time>2026-04-19T16:34:32Z</time></trkpt><trkpt lat="41.61985623884086" lon="15.451770612547781"><ele>48.0</ele><time>2026-04-19T16:34:33Z</time></trkpt><trkpt lat="41.61973568612052" lon="15.451895664010754"><ele>48.0</ele><time>2026-04-19T16:34:34Z</time></trkpt><trkpt lat="41.6196172413234" lon="15.452017736250081"><ele>48.0</ele><time>2026-04-19T16:34:35Z</time></trkpt><trkpt lat="41.61949052469343" lon="15.452147890535525"><ele>48.0</ele><time>2026-04-19T16:34:36Z</time></trkpt><trkpt lat="41.619377003963955" lon="15.452269949069157"><ele>48.0</ele><time>2026-04-19T16:34:37Z</time></trkpt><trkpt lat="41.619254601122414" lon="15.452398993631286"><ele>48.0</ele><time>2026-04-19T16:34:38Z</time></trkpt><trkpt lat="41.61913353363076" lon="15.45252573952727"><ele>48.0</ele><time>2026-04-19T16:34:39Z</time></trkpt><trkpt lat="41.61901491252059" lon="15.452650577220467"><ele>48.0</ele><time>2026-04-19T16:34:40Z</time></trkpt><trkpt lat="41.6188902077569" lon="15.452779263258499"><ele>48.0</ele><time>2026-04-19T16:34:41Z</time></trkpt><trkpt lat="41.61877036838813" lon="15.45290192381897"><ele>48.0</ele><time>2026-04-19T16:34:42Z</time></trkpt><trkpt lat="41.61864964115712" lon="15.453026873181567"><ele>48.0</ele><time>2026-04-19T16:34:43Z</time></trkpt><trkpt lat="41.61853493543042" lon="15.45314879816136"><ele>48.25</ele><time>2026-04-19T16:34:44Z</time></trkpt><trkpt lat="41.618417162263576" lon="15.453274803968759"><ele>48.5</ele><time>2026-04-19T16:34:45Z</time></trkpt><trkpt lat="41.618301478472354" lon="15.453395858873668"><ele>48.75</ele><time>2026-04-19T16:34:46Z</time></trkpt><trkpt lat="41.618185109203665" lon="15.453517993356064"><ele>49.0</ele><time>2026-04-19T16:34:47Z</time></trkpt><trkpt lat="41.618068380098215" lon="15.453638782741251"><ele>49.0</ele><time>2026-04-19T16:34:48Z</time></trkpt><trkpt lat="41.61794651699598" lon="15.45375908088599"><ele>49.0</ele><time>2026-04-19T16:34:49Z</time></trkpt><trkpt lat="41.617827216777165" lon="15.45388050414851"><ele>49.0</ele><time>2026-04-19T16:34:50Z</time></trkpt><trkpt lat="41.617705979932275" lon="15.454010972990053"><ele>48.75</ele><time>2026-04-19T16:34:51Z</time></trkpt><trkpt lat="41.617593490822316" lon="15.454132129276553"><ele>48.5</ele><time>2026-04-19T16:34:52Z</time></trkpt><trkpt lat="41.61748086714661" lon="15.454251595113004"><ele>48.25</ele><time>2026-04-19T16:34:53Z</time></trkpt><trkpt lat="41.617372091952134" lon="15.454364090608605"><ele>48.0</ele><time>2026-04-19T16:34:54Z</time></trkpt><trkpt lat="41.61726200519606" lon="15.454479220667416"><ele>48.0</ele><time>2026-04-19T16:34:55Z</time></trkpt><trkpt lat="41.617150975743115" lon="15.454595952509848"><ele>48.0</ele><time>2026-04-19T16:34:56Z</time></trkpt><trkpt lat="41.61704474307666" lon="15.454703955692455"><ele>48.0</ele><time>2026-04-19T16:34:57Z</time></trkpt><trkpt lat="41.61694027702225" lon="15.454811231248502"><ele>48.0</ele><time>2026-04-19T16:34:58Z</time></trkpt><trkpt lat="41.61683688680107" lon="15.454922383057218"><ele>48.0</ele><time>2026-04-19T16:34:59Z</time></trkpt><trkpt lat="41.61673322625613" lon="15.45503287443976"><ele>48.0</ele><time>2026-04-19T16:35:00Z</time></trkpt><trkpt lat="41.6166242917025" lon="15.455146009576454"><ele>48.0</ele><time>2026-04-19T16:35:01Z</time></trkpt><trkpt lat="41.61651657454172" lon="15.455255865633974"><ele>48.0</ele><time>2026-04-19T16:35:02Z</time></trkpt><trkpt lat="41.61640212852899" lon="15.45537579714645"><ele>48.0</ele><time>2026-04-19T16:35:03Z</time></trkpt><trkpt lat="41.61628945621874" lon="15.455491809150134"><ele>48.0</ele><time>2026-04-19T16:35:04Z</time></trkpt><trkpt lat="41.61617185198918" lon="15.455612880434515"><ele>48.0</ele><time>2026-04-19T16:35:05Z</time></trkpt><trkpt lat="41.616055541081906" lon="15.45573167846497"><ele>48.0</ele><time>2026-04-19T16:35:06Z</time></trkpt><trkpt lat="41.61594572295627" lon="15.455848078058823"><ele>48.0</ele><time>2026-04-19T16:35:07Z</time></trkpt><trkpt lat="41.61583631403185" lon="15.45596433484936"><ele>48.0</ele><time>2026-04-19T16:35:08Z</time></trkpt><trkpt lat="41.61572067343683" lon="15.456087195538721"><ele>48.0</ele><time>2026-04-19T16:35:09Z</time></trkpt><trkpt lat="41.61560737279886" lon="15.456206706656378"><ele>48.0</ele><time>2026-04-19T16:35:10Z</time></trkpt><trkpt lat="41.615490515152516" lon="15.456326683247076"><ele>48.0</ele><time>2026-04-19T16:35:11Z</time></trkpt><trkpt lat="41.61537289742208" lon="15.456441157763775"><ele>48.0</ele><time>2026-04-19T16:35:12Z</time></trkpt><trkpt lat="41.61525373037291" lon="15.456557374958882"><ele>48.0</ele><time>2026-04-19T16:35:13Z</time></trkpt><trkpt lat="41.61513200237405" lon="15.456676298529004"><ele>48.0</ele><time>2026-04-19T16:35:14Z</time></trkpt><trkpt lat="41.61500684194345" lon="15.456793319790314"><ele>48.0</ele><time>2026-04-19T16:35:15Z</time></trkpt><trkpt lat="41.61488182245771" lon="15.456909277734082"><ele>48.0</ele><time>2026-04-19T16:35:16Z</time></trkpt><trkpt lat="41.614756223541804" lon="15.457022065314797"><ele>48.0</ele><time>2026-04-19T16:35:17Z</time></trkpt><trkpt lat="41.61463279697983" lon="15.457134629236338"><ele>48.0</ele><time>2026-04-19T16:35:18Z</time></trkpt><trkpt lat="41.6145072295301" lon="15.45724994130694"><ele>48.0</ele><time>2026-04-19T16:35:19Z</time></trkpt><trkpt lat="41.61438472778823" lon="15.457362662114319"><ele>48.0</ele><time>2026-04-19T16:35:20Z</time></trkpt><trkpt lat="41.61425566717186" lon="15.45748975848279"><ele>48.0</ele><time>2026-04-19T16:35:21Z</time></trkpt><trkpt lat="41.61413544620402" lon="15.45759822120148"><ele>48.0</ele><time>2026-04-19T16:35:22Z</time></trkpt><trkpt lat="41.614012469232044" lon="15.45771115270918"><ele>48.0</ele><time>2026-04-19T16:35:23Z</time></trkpt><trkpt lat="41.61389078014287" lon="15.45782006751159"><ele>48.0</ele><time>2026-04-19T16:35:24Z</time></trkpt><trkpt lat="41.61376248637599" lon="15.457937831384266"><ele>47.75</ele><time>2026-04-19T16:35:25Z</time></trkpt><trkpt lat="41.61363940391588" lon="15.458048334909332"><ele>47.5</ele><time>2026-04-19T16:35:26Z</time></trkpt><trkpt lat="41.61351454730721" lon="15.45816133234114"><ele>47.25</ele><time>2026-04-19T16:35:27Z</time></trkpt><trkpt lat="41.61339665802509" lon="15.458269239639455"><ele>47.0</ele><time>2026-04-19T16:35:28Z</time></trkpt><trkpt lat="41.61328351339163" lon="15.458375597997511"><ele>47.0</ele><time>2026-04-19T16:35:29Z</time></trkpt><trkpt lat="41.61316664265805" lon="15.458486855481071"><ele>47.0</ele><time>2026-04-19T16:35:30Z</time></trkpt><trkpt lat="41.61304470027938" lon="15.458600143138323"><ele>47.0</ele><time>2026-04-19T16:35:31Z</time></trkpt><trkpt lat="41.61292067223636" lon="15.458715417867792"><ele>47.0</ele><time>2026-04-19T16:35:32Z</time></trkpt><trkpt lat="41.61278998980062" lon="15.458840844990013"><ele>46.666666666666664</ele><time>2026-04-19T16:35:33Z</time></trkpt><trkpt lat="41.61266916488411" lon="15.458943067087562"><ele>46.333333333333336</ele><time>2026-04-19T16:35:34Z</time></trkpt><trkpt lat="41.61254012240765" lon="15.459064074455144"><ele>46.0</ele><time>2026-04-19T16:35:35Z</time></trkpt><trkpt lat="41.612412223244526" lon="15.459175883125058"><ele>46.0</ele><time>2026-04-19T16:35:36Z</time></trkpt><trkpt lat="41.61228348445569" lon="15.459298743294239"><ele>46.0</ele><time>2026-04-19T16:35:37Z</time></trkpt><trkpt lat="41.61215405852986" lon="15.45941564716903"><ele>46.0</ele><time>2026-04-19T16:35:38Z</time></trkpt><trkpt lat="41.61202391077991" lon="15.459535559712734"><ele>46.333333333333336</ele><time>2026-04-19T16:35:39Z</time></trkpt><trkpt lat="41.611896194762735" lon="15.459654241444813"><ele>46.666666666666664</ele><time>2026-04-19T16:35:40Z</time></trkpt><trkpt lat="41.611771522915895" lon="15.459767720325202"><ele>47.0</ele><time>2026-04-19T16:35:41Z</time></trkpt><trkpt lat="41.61165044798357" lon="15.459878346292015"><ele>47.0</ele><time>2026-04-19T16:35:42Z</time></trkpt><trkpt lat="41.611523712604146" lon="15.459993296994885"><ele>47.0</ele><time>2026-04-19T16:35:43Z</time></trkpt><trkpt lat="41.61139857464971" lon="15.460107410704143"><ele>47.0</ele><time>2026-04-19T16:35:44Z</time></trkpt><trkpt lat="41.6112756083681" lon="15.460220500169282"><ele>47.25</ele><time>2026-04-19T16:35:45Z</time></trkpt><trkpt lat="41.61115223764236" lon="15.46033301071782"><ele>47.5</ele><time>2026-04-19T16:35:46Z</time></trkpt><trkpt lat="41.6110303971292" lon="15.460442862425971"><ele>47.75</ele><time>2026-04-19T16:35:47Z</time></trkpt><trkpt lat="41.61090847528509" lon="15.460553572469601"><ele>48.0</ele><time>2026-04-19T16:35:48Z</time></trkpt><trkpt lat="41.6107816102704" lon="15.460668732055455"><ele>48.0</ele><time>2026-04-19T16:35:49Z</time></trkpt><trkpt lat="41.610651866829826" lon="15.460782831416124"><ele>48.0</ele><time>2026-04-19T16:35:50Z</time></trkpt><trkpt lat="41.61051858244971" lon="15.46090310396849"><ele>48.0</ele><time>2026-04-19T16:35:51Z</time></trkpt><trkpt lat="41.61038835021476" lon="15.46102038192769"><ele>48.0</ele><time>2026-04-19T16:35:52Z</time></trkpt><trkpt lat="41.610259119253215" lon="15.46113798691155"><ele>48.0</ele><time>2026-04-19T16:35:53Z</time></trkpt><trkpt lat="41.61013380248316" lon="15.461254172381718"><ele>48.0</ele><time>2026-04-19T16:35:54Z</time></trkpt><trkpt lat="41.610007375159995" lon="15.46137183695967"><ele>48.0</ele><time>2026-04-19T16:35:55Z</time></trkpt><trkpt lat="41.60988461867557" lon="15.461485097000438"><ele>48.0</ele><time>2026-04-19T16:35:56Z</time></trkpt><trkpt lat="41.60976149547503" lon="15.461596584430838"><ele>48.0</ele><time>2026-04-19T16:35:57Z</time></trkpt><trkpt lat="41.60963981701196" lon="15.461706449399369"><ele>48.0</ele><time>2026-04-19T16:35:58Z</time></trkpt><trkpt lat="41.6095179996971" lon="15.46181681373556"><ele>47.75</ele><time>2026-04-19T16:35:59Z</time></trkpt><trkpt lat="41.60939670474304" lon="15.46192612771463"><ele>47.5</ele><time>2026-04-19T16:36:00Z</time></trkpt><trkpt lat="41.60927776670822" lon="15.462037081001702"><ele>47.25</ele><time>2026-04-19T16:36:01Z</time></trkpt><trkpt lat="41.6091595580809" lon="15.462142799023551"><ele>47.0</ele><time>2026-04-19T16:36:02Z</time></trkpt><trkpt lat="41.6090390552761" lon="15.462250105612403"><ele>46.666666666666664</ele><time>2026-04-19T16:36:03Z</time></trkpt><trkpt lat="41.608913624706055" lon="15.462363429453287"><ele>46.333333333333336</ele><time>2026-04-19T16:36:04Z</time></trkpt><trkpt lat="41.608775331837386" lon="15.462454925355853"><ele>46.0</ele><time>2026-04-19T16:36:05Z</time></trkpt><trkpt lat="41.60864462540222" lon="15.462558411632596"><ele>46.66666666666667</ele><time>2026-04-19T16:36:06Z</time></trkpt><trkpt lat="41.60851922117099" lon="15.46267848419267"><ele>47.333333333333336</ele><time>2026-04-19T16:36:07Z</time></trkpt><trkpt lat="41.60838357578662" lon="15.462776099886597"><ele>48.0</ele><time>2026-04-19T16:36:08Z</time></trkpt><trkpt lat="41.60824408410712" lon="15.462871152026842"><ele>48.0</ele><time>2026-04-19T16:36:09Z</time></trkpt><trkpt lat="41.608104923837736" lon="15.462957800357414"><ele>48.0</ele><time>2026-04-19T16:36:10Z</time></trkpt><trkpt lat="41.60796563707273" lon="15.463047514016706"><ele>48.0</ele><time>2026-04-19T16:36:11Z</time></trkpt><trkpt lat="41.607832456597706" lon="15.463129619516407"><ele>48.0</ele><time>2026-04-19T16:36:12Z</time></trkpt><trkpt lat="41.60769466644684" lon="15.46321372586028"><ele>48.0</ele><time>2026-04-19T16:36:13Z</time></trkpt><trkpt lat="41.60755893613946" lon="15.463290068414077"><ele>48.0</ele><time>2026-04-19T16:36:14Z</time></trkpt><trkpt lat="41.607424621846896" lon="15.463368157622538"><ele>48.0</ele><time>2026-04-19T16:36:15Z</time></trkpt><trkpt lat="41.607293160904874" lon="15.463447944053515"><ele>48.0</ele><time>2026-04-19T16:36:16Z</time></trkpt><trkpt lat="41.60716042484022" lon="15.463528711740079"><ele>48.0</ele><time>2026-04-19T16:36:17Z</time></trkpt><trkpt lat="41.60702955718489" lon="15.463605747810549"><ele>48.0</ele><time>2026-04-19T16:36:18Z</time></trkpt><trkpt lat="41.606896589613086" lon="15.463681220954978"><ele>48.0</ele><time>2026-04-19T16:36:19Z</time></trkpt><trkpt lat="41.606759144528866" lon="15.463762699518947"><ele>48.33333333333333</ele><time>2026-04-19T16:36:20Z</time></trkpt><trkpt lat="41.6066204981191" lon="15.463842632964436"><ele>48.666666666666664</ele><time>2026-04-19T16:36:21Z</time></trkpt><trkpt lat="41.60648020971241" lon="15.463926986919576"><ele>49.0</ele><time>2026-04-19T16:36:22Z</time></trkpt><trkpt lat="41.606344319920616" lon="15.46400531283682"><ele>49.0</ele><time>2026-04-19T16:36:23Z</time></trkpt><trkpt lat="41.60620510299462" lon="15.464093187403224"><ele>49.0</ele><time>2026-04-19T16:36:24Z</time></trkpt><trkpt lat="41.60606475238786" lon="15.464179157832227"><ele>49.0</ele><time>2026-04-19T16:36:25Z</time></trkpt><trkpt lat="41.60592442574239" lon="15.464266933932711"><ele>48.0</ele><time>2026-04-19T16:36:26Z</time></trkpt><trkpt lat="41.605783772253844" lon="15.464354429586281"><ele>47.0</ele><time>2026-04-19T16:36:27Z</time></trkpt><trkpt lat="41.60564502026588" lon="15.464432691684525"><ele>46.0</ele><time>2026-04-19T16:36:28Z</time></trkpt><trkpt lat="41.60550745450155" lon="15.464508043392447"><ele>46.0</ele><time>2026-04-19T16:36:29Z</time></trkpt><trkpt lat="41.60537071993262" lon="15.464586997151127"><ele>46.0</ele><time>2026-04-19T16:36:30Z</time></trkpt><trkpt lat="41.60523573856269" lon="15.464668344145984"><ele>46.0</ele><time>2026-04-19T16:36:31Z</time></trkpt><trkpt lat="41.605099456970336" lon="15.464749040036782"><ele>46.0</ele><time>2026-04-19T16:36:32Z</time></trkpt><trkpt lat="41.6049647031446" lon="15.464829170428956"><ele>46.25</ele><time>2026-04-19T16:36:33Z</time></trkpt><trkpt lat="41.60483210124989" lon="15.464907973698605"><ele>46.5</ele><time>2026-04-19T16:36:34Z</time></trkpt><trkpt lat="41.60469497910431" lon="15.464988705239875"><ele>46.75</ele><time>2026-04-19T16:36:35Z</time></trkpt><trkpt lat="41.604560236431624" lon="15.465065464222496"><ele>47.0</ele><time>2026-04-19T16:36:36Z</time></trkpt><trkpt lat="41.604423184285615" lon="15.465149582118139"><ele>47.0</ele><time>2026-04-19T16:36:37Z</time></trkpt><trkpt lat="41.60429252562933" lon="15.465233171228533"><ele>47.0</ele><time>2026-04-19T16:36:38Z</time></trkpt><trkpt lat="41.60415530834364" lon="15.46531733906029"><ele>47.0</ele><time>2026-04-19T16:36:39Z</time></trkpt><trkpt lat="41.6040207241357" lon="15.46540056825634"><ele>47.0</ele><time>2026-04-19T16:36:40Z</time></trkpt><trkpt lat="41.60388554986416" lon="15.465476050000015"><ele>47.0</ele><time>2026-04-19T16:36:41Z</time></trkpt><trkpt lat="41.603751202156666" lon="15.465552219430345"><ele>47.0</ele><time>2026-04-19T16:36:42Z</time></trkpt><trkpt lat="41.60361651385177" lon="15.465631737738395"><ele>47.0</ele><time>2026-04-19T16:36:43Z</time></trkpt><trkpt lat="41.60348186884766" lon="15.465710020780278"><ele>47.0</ele><time>2026-04-19T16:36:44Z</time></trkpt><trkpt lat="41.60334718868056" lon="15.465792161072567"><ele>47.0</ele><time>2026-04-19T16:36:45Z</time></trkpt><trkpt lat="41.60321144358487" lon="15.465878105405777"><ele>47.0</ele><time>2026-04-19T16:36:46Z</time></trkpt><trkpt lat="41.60307649930359" lon="15.465958004507582"><ele>47.0</ele><time>2026-04-19T16:36:47Z</time></trkpt><trkpt lat="41.602938747445826" lon="15.466035478406788"><ele>47.0</ele><time>2026-04-19T16:36:48Z</time></trkpt><trkpt lat="41.60280215405947" lon="15.466113541086239"><ele>47.0</ele><time>2026-04-19T16:36:49Z</time></trkpt><trkpt lat="41.60266492875181" lon="15.466198363316396"><ele>47.0</ele><time>2026-04-19T16:36:50Z</time></trkpt><trkpt lat="41.60252644406566" lon="15.466282701558441"><ele>47.0</ele><time>2026-04-19T16:36:51Z</time></trkpt><trkpt lat="41.60238677439756" lon="15.466366441925294"><ele>46.75</ele><time>2026-04-19T16:36:52Z</time></trkpt><trkpt lat="41.60224981400261" lon="15.46644888102853"><ele>46.5</ele><time>2026-04-19T16:36:53Z</time></trkpt><trkpt lat="41.60211710809936" lon="15.466527815750354"><ele>46.25</ele><time>2026-04-19T16:36:54Z</time></trkpt><trkpt lat="41.60198299638165" lon="15.466606825838543"><ele>46.0</ele><time>2026-04-19T16:36:55Z</time></trkpt><trkpt lat="41.60184465288541" lon="15.466688970368905"><ele>46.0</ele><time>2026-04-19T16:36:56Z</time></trkpt><trkpt lat="41.60170923017411" lon="15.466769192662337"><ele>46.0</ele><time>2026-04-19T16:36:57Z</time></trkpt><trkpt lat="41.601570657185185" lon="15.466853503407668"><ele>46.0</ele><time>2026-04-19T16:36:58Z</time></trkpt><trkpt lat="41.601428474002965" lon="15.466940073861396"><ele>46.0</ele><time>2026-04-19T16:36:59Z</time></trkpt><trkpt lat="41.60128848307637" lon="15.46702333228877"><ele>46.0</ele><time>2026-04-19T16:37:00Z</time></trkpt><trkpt lat="41.6011543921986" lon="15.467102836616725"><ele>46.0</ele><time>2026-04-19T16:37:01Z</time></trkpt><trkpt lat="41.60101754927754" lon="15.467183897551433"><ele>46.25</ele><time>2026-04-19T16:37:02Z</time></trkpt><trkpt lat="41.600883582801714" lon="15.467252355003906"><ele>46.5</ele><time>2026-04-19T16:37:03Z</time></trkpt><trkpt lat="41.60074919791826" lon="15.46734167320724"><ele>46.75</ele><time>2026-04-19T16:37:04Z</time></trkpt><trkpt lat="41.60062089316925" lon="15.467421257998419"><ele>47.0</ele><time>2026-04-19T16:37:05Z</time></trkpt><trkpt lat="41.6004907095368" lon="15.467502497897952"><ele>47.0</ele><time>2026-04-19T16:37:06Z</time></trkpt><trkpt lat="41.6003563959399" lon="15.467580329155608"><ele>47.0</ele><time>2026-04-19T16:37:07Z</time></trkpt><trkpt lat="41.60022282287428" lon="15.467655879086612"><ele>47.0</ele><time>2026-04-19T16:37:08Z</time></trkpt><trkpt lat="41.60009504026758" lon="15.467736990588135"><ele>47.0</ele><time>2026-04-19T16:37:09Z</time></trkpt><trkpt lat="41.59996320608876" lon="15.467816244817024"><ele>47.0</ele><time>2026-04-19T16:37:10Z</time></trkpt><trkpt lat="41.59982982194089" lon="15.467896404025057"><ele>47.0</ele><time>2026-04-19T16:37:11Z</time></trkpt><trkpt lat="41.5996997029445" lon="15.467974687885455"><ele>47.0</ele><time>2026-04-19T16:37:12Z</time></trkpt><trkpt lat="41.599560056702714" lon="15.468055033213739"><ele>47.0</ele><time>2026-04-19T16:37:13Z</time></trkpt><trkpt lat="41.59942376561299" lon="15.468137038050862"><ele>46.75</ele><time>2026-04-19T16:37:14Z</time></trkpt><trkpt lat="41.599287194937666" lon="15.468222620938704"><ele>46.5</ele><time>2026-04-19T16:37:15Z</time></trkpt><trkpt lat="41.599143164681436" lon="15.468305648330405"><ele>46.25</ele><time>2026-04-19T16:37:16Z</time></trkpt><trkpt lat="41.599016783358074" lon="15.468386286977921"><ele>46.0</ele><time>2026-04-19T16:37:17Z</time></trkpt><trkpt lat="41.598877108386745" lon="15.46846579850471"><ele>46.0</ele><time>2026-04-19T16:37:18Z</time></trkpt><trkpt lat="41.5987428146315" lon="15.468544158407235"><ele>46.0</ele><time>2026-04-19T16:37:19Z</time></trkpt><trkpt lat="41.59860387898404" lon="15.468626266905728"><ele>46.0</ele><time>2026-04-19T16:37:20Z</time></trkpt><trkpt lat="41.59846067095056" lon="15.468707167821401"><ele>46.0</ele><time>2026-04-19T16:37:21Z</time></trkpt><trkpt lat="41.59832189365014" lon="15.46878952394796"><ele>46.0</ele><time>2026-04-19T16:37:22Z</time></trkpt><trkpt lat="41.59818742662006" lon="15.46887079459739"><ele>46.0</ele><time>2026-04-19T16:37:23Z</time></trkpt><trkpt lat="41.59805171507327" lon="15.468953671420014"><ele>46.0</ele><time>2026-04-19T16:37:24Z</time></trkpt><trkpt lat="41.59791460724861" lon="15.469035335037702"><ele>46.0</ele><time>2026-04-19T16:37:25Z</time></trkpt><trkpt lat="41.59777744616615" lon="15.469112416507775"><ele>46.0</ele><time>2026-04-19T16:37:26Z</time></trkpt><trkpt lat="41.59764236994239" lon="15.469193990139702"><ele>46.0</ele><time>2026-04-19T16:37:27Z</time></trkpt><trkpt lat="41.597504454238255" lon="15.469278395129477"><ele>46.0</ele><time>2026-04-19T16:37:28Z</time></trkpt><trkpt lat="41.59737104141064" lon="15.46936081789458"><ele>46.0</ele><time>2026-04-19T16:37:29Z</time></trkpt><trkpt lat="41.597230203947674" lon="15.46943980321796"><ele>46.0</ele><time>2026-04-19T16:37:30Z</time></trkpt><trkpt lat="41.59709180863084" lon="15.46951768563017"><ele>46.0</ele><time>2026-04-19T16:37:31Z</time></trkpt><trkpt lat="41.59695109644199" lon="15.46959913626415"><ele>46.0</ele><time>2026-04-19T16:37:32Z</time></trkpt><trkpt lat="41.596812460177496" lon="15.469683927222594"><ele>46.0</ele><time>2026-04-19T16:37:33Z</time></trkpt><trkpt lat="41.59667485394221" lon="15.469769072805999"><ele>46.0</ele><time>2026-04-19T16:37:34Z</time></trkpt><trkpt lat="41.59653245586392" lon="15.469853934608288"><ele>46.0</ele><time>2026-04-19T16:37:35Z</time></trkpt><trkpt lat="41.596392103153065" lon="15.469938594219531"><ele>46.0</ele><time>2026-04-19T16:37:36Z</time></trkpt><trkpt lat="41.59625056060819" lon="15.470019255261764"><ele>46.0</ele><time>2026-04-19T16:37:37Z</time></trkpt><trkpt lat="41.59611224492468" lon="15.470105885653265"><ele>46.0</ele><time>2026-04-19T16:37:38Z</time></trkpt><trkpt lat="41.59597869163181" lon="15.470191258123096"><ele>46.0</ele><time>2026-04-19T16:37:39Z</time></trkpt><trkpt lat="41.595837897368554" lon="15.470269334660925"><ele>46.0</ele><time>2026-04-19T16:37:40Z</time></trkpt><trkpt lat="41.595702947603996" lon="15.470349581829403"><ele>46.0</ele><time>2026-04-19T16:37:41Z</time></trkpt><trkpt lat="41.59556914175868" lon="15.470430840477414"><ele>46.0</ele><time>2026-04-19T16:37:42Z</time></trkpt><trkpt lat="41.59543699015866" lon="15.470509141700118"><ele>46.0</ele><time>2026-04-19T16:37:43Z</time></trkpt><trkpt lat="41.59530215200879" lon="15.470588207259347"><ele>46.0</ele><time>2026-04-19T16:37:44Z</time></trkpt><trkpt lat="41.595165236650274" lon="15.47066597878295"><ele>46.0</ele><time>2026-04-19T16:37:45Z</time></trkpt><trkpt lat="41.59502760514713" lon="15.470745729999573"><ele>46.333333333333336</ele><time>2026-04-19T16:37:46Z</time></trkpt><trkpt lat="41.5948880894723" lon="15.470827771288864"><ele>46.666666666666664</ele><time>2026-04-19T16:37:47Z</time></trkpt><trkpt lat="41.59475132467484" lon="15.470912014568942"><ele>47.0</ele><time>2026-04-19T16:37:48Z</time></trkpt><trkpt lat="41.5946096438917" lon="15.470996588261253"><ele>46.666666666666664</ele><time>2026-04-19T16:37:49Z</time></trkpt><trkpt lat="41.594469346427026" lon="15.471078506126796"><ele>46.333333333333336</ele><time>2026-04-19T16:37:50Z</time></trkpt><trkpt lat="41.594326330967924" lon="15.471159272753031"><ele>46.0</ele><time>2026-04-19T16:37:51Z</time></trkpt><trkpt lat="41.59418807907018" lon="15.4712475956853"><ele>46.0</ele><time>2026-04-19T16:37:52Z</time></trkpt><trkpt lat="41.594053546282" lon="15.471330459697587"><ele>46.0</ele><time>2026-04-19T16:37:53Z</time></trkpt><trkpt lat="41.593916254081584" lon="15.471412160183036"><ele>46.0</ele><time>2026-04-19T16:37:54Z</time></trkpt><trkpt lat="41.593786130627954" lon="15.471493029516363"><ele>46.0</ele><time>2026-04-19T16:37:55Z</time></trkpt><trkpt lat="41.59365014186499" lon="15.471572746040847"><ele>46.0</ele><time>2026-04-19T16:37:56Z</time></trkpt><trkpt lat="41.593515486082374" lon="15.471651105641111"><ele>46.0</ele><time>2026-04-19T16:37:57Z</time></trkpt><trkpt lat="41.59337700754014" lon="15.471732489600395"><ele>46.0</ele><time>2026-04-19T16:37:58Z</time></trkpt><trkpt lat="41.59323867406848" lon="15.471813836564651"><ele>46.0</ele><time>2026-04-19T16:37:59Z</time></trkpt><trkpt lat="41.59309431689039" lon="15.471901939662807"><ele>46.0</ele><time>2026-04-19T16:38:00Z</time></trkpt><trkpt lat="41.59295713215978" lon="15.471987303184116"><ele>46.0</ele><time>2026-04-19T16:38:01Z</time></trkpt><trkpt lat="41.59281292125068" lon="15.472074624226526"><ele>46.0</ele><time>2026-04-19T16:38:02Z</time></trkpt><trkpt lat="41.592671567075584" lon="15.472157766035377"><ele>46.333333333333336</ele><time>2026-04-19T16:38:03Z</time></trkpt><trkpt lat="41.592531690745865" lon="15.472238941444337"><ele>46.666666666666664</ele><time>2026-04-19T16:38:04Z</time></trkpt><trkpt lat="41.59239164605059" lon="15.472326601949025"><ele>47.0</ele><time>2026-04-19T16:38:05Z</time></trkpt><trkpt lat="41.59225407253021" lon="15.472409403452739"><ele>47.0</ele><time>2026-04-19T16:38:06Z</time></trkpt><trkpt lat="41.59211015950154" lon="15.472494036859397"><ele>47.0</ele><time>2026-04-19T16:38:07Z</time></trkpt><trkpt lat="41.591970940724465" lon="15.472578181998287"><ele>47.0</ele><time>2026-04-19T16:38:08Z</time></trkpt><trkpt lat="41.591830699792204" lon="15.47266319688051"><ele>46.666666666666664</ele><time>2026-04-19T16:38:09Z</time></trkpt><trkpt lat="41.591689263660115" lon="15.47274642835195"><ele>46.333333333333336</ele><time>2026-04-19T16:38:10Z</time></trkpt><trkpt lat="41.59154489640663" lon="15.472830569022888"><ele>46.0</ele><time>2026-04-19T16:38:11Z</time></trkpt><trkpt lat="41.59140500720648" lon="15.472910815875915"><ele>46.0</ele><time>2026-04-19T16:38:12Z</time></trkpt><trkpt lat="41.5912621620172" lon="15.47299539678874"><ele>46.0</ele><time>2026-04-19T16:38:13Z</time></trkpt><trkpt lat="41.591116715019425" lon="15.473080231445817"><ele>46.0</ele><time>2026-04-19T16:38:14Z</time></trkpt><trkpt lat="41.59097522208332" lon="15.473161980796238"><ele>46.0</ele><time>2026-04-19T16:38:15Z</time></trkpt><trkpt lat="41.590831194965226" lon="15.473245880868479"><ele>46.0</ele><time>2026-04-19T16:38:16Z</time></trkpt><trkpt lat="41.590695037493624" lon="15.473326081314559"><ele>46.0</ele><time>2026-04-19T16:38:17Z</time></trkpt><trkpt lat="41.59055618041671" lon="15.473408023170892"><ele>46.0</ele><time>2026-04-19T16:38:18Z</time></trkpt><trkpt lat="41.590422734829374" lon="15.473488260471003"><ele>46.0</ele><time>2026-04-19T16:38:19Z</time></trkpt><trkpt lat="41.59028843643343" lon="15.473568499337308"><ele>46.0</ele><time>2026-04-19T16:38:20Z</time></trkpt><trkpt lat="41.59015672480569" lon="15.473644456591208"><ele>46.0</ele><time>2026-04-19T16:38:21Z</time></trkpt><trkpt lat="41.59002047899287" lon="15.47372249584211"><ele>46.25</ele><time>2026-04-19T16:38:22Z</time></trkpt><trkpt lat="41.58988220953634" lon="15.473804393667182"><ele>46.5</ele><time>2026-04-19T16:38:23Z</time></trkpt><trkpt lat="41.589750001522916" lon="15.47388259122602"><ele>46.75</ele><time>2026-04-19T16:38:24Z</time></trkpt><trkpt lat="41.58961653192308" lon="15.473963526802924"><ele>47.0</ele><time>2026-04-19T16:38:25Z</time></trkpt><trkpt lat="41.58947674649952" lon="15.474045896434363"><ele>47.0</ele><time>2026-04-19T16:38:26Z</time></trkpt><trkpt lat="41.58933800231275" lon="15.474126848357386"><ele>47.0</ele><time>2026-04-19T16:38:27Z</time></trkpt><trkpt lat="41.58919892439517" lon="15.474208412508444"><ele>47.0</ele><time>2026-04-19T16:38:28Z</time></trkpt><trkpt lat="41.5890596725749" lon="15.474290426015127"><ele>47.0</ele><time>2026-04-19T16:38:29Z</time></trkpt><trkpt lat="41.58892809204041" lon="15.474370006153686"><ele>47.0</ele><time>2026-04-19T16:38:30Z</time></trkpt><trkpt lat="41.58878850673719" lon="15.474451993471009"><ele>47.0</ele><time>2026-04-19T16:38:31Z</time></trkpt><trkpt lat="41.58865118982728" lon="15.474533771974503"><ele>47.0</ele><time>2026-04-19T16:38:32Z</time></trkpt><trkpt lat="41.58851517574938" lon="15.474617602325937"><ele>46.75</ele><time>2026-04-19T16:38:33Z</time></trkpt><trkpt lat="41.588379552123804" lon="15.474701288498267"><ele>46.5</ele><time>2026-04-19T16:38:34Z</time></trkpt><trkpt lat="41.58824779178016" lon="15.47478299424503"><ele>46.25</ele><time>2026-04-19T16:38:35Z</time></trkpt><trkpt lat="41.58810850210778" lon="15.4748649653097"><ele>46.0</ele><time>2026-04-19T16:38:36Z</time></trkpt><trkpt lat="41.58797006821562" lon="15.474941501442002"><ele>46.0</ele><time>2026-04-19T16:38:37Z</time></trkpt><trkpt lat="41.587832898570376" lon="15.475021339225583"><ele>46.0</ele><time>2026-04-19T16:38:38Z</time></trkpt><trkpt lat="41.587694647580605" lon="15.475107254881857"><ele>46.0</ele><time>2026-04-19T16:38:39Z</time></trkpt><trkpt lat="41.58755412672271" lon="15.475191115296974"><ele>46.0</ele><time>2026-04-19T16:38:40Z</time></trkpt><trkpt lat="41.587415547626165" lon="15.475271033899297"><ele>46.0</ele><time>2026-04-19T16:38:41Z</time></trkpt><trkpt lat="41.58727523788215" lon="15.475354487108405"><ele>46.0</ele><time>2026-04-19T16:38:42Z</time></trkpt><trkpt lat="41.58713265255172" lon="15.475440114643613"><ele>46.333333333333336</ele><time>2026-04-19T16:38:43Z</time></trkpt><trkpt lat="41.58699312620689" lon="15.47553521339052"><ele>46.666666666666664</ele><time>2026-04-19T16:38:44Z</time></trkpt><trkpt lat="41.586862275983805" lon="15.475635686935608"><ele>47.0</ele><time>2026-04-19T16:38:45Z</time></trkpt><trkpt lat="41.58672818205018" lon="15.47574853283369"><ele>47.0</ele><time>2026-04-19T16:38:46Z</time></trkpt><trkpt lat="41.586604170450386" lon="15.475871930819588"><ele>47.0</ele><time>2026-04-19T16:38:47Z</time></trkpt><trkpt lat="41.586477882862695" lon="15.476004295832546"><ele>47.0</ele><time>2026-04-19T16:38:48Z</time></trkpt><trkpt lat="41.58634620292351" lon="15.476136561651915"><ele>47.0</ele><time>2026-04-19T16:38:49Z</time></trkpt><trkpt lat="41.58621939892362" lon="15.476268459414987"><ele>47.0</ele><time>2026-04-19T16:38:50Z</time></trkpt><trkpt lat="41.58609804914809" lon="15.476394472679239"><ele>47.0</ele><time>2026-04-19T16:38:51Z</time></trkpt><trkpt lat="41.58597741172551" lon="15.47652253879921"><ele>46.5</ele><time>2026-04-19T16:38:52Z</time></trkpt><trkpt lat="41.58586411925628" lon="15.47664015408307"><ele>46.0</ele><time>2026-04-19T16:38:53Z</time></trkpt><trkpt lat="41.585741207325256" lon="15.476765032007215"><ele>45.5</ele><time>2026-04-19T16:38:54Z</time></trkpt><trkpt lat="41.58562265814336" lon="15.476889411877444"><ele>45.0</ele><time>2026-04-19T16:38:55Z</time></trkpt><trkpt lat="41.585507252824854" lon="15.477009754671009"><ele>45.0</ele><time>2026-04-19T16:38:56Z</time></trkpt><trkpt lat="41.58538960172291" lon="15.477132324685474"><ele>45.0</ele><time>2026-04-19T16:38:57Z</time></trkpt><trkpt lat="41.585274454851316" lon="15.477256241190046"><ele>45.0</ele><time>2026-04-19T16:38:58Z</time></trkpt><trkpt lat="41.58515398042003" lon="15.477377922795673"><ele>45.0</ele><time>2026-04-19T16:38:59Z</time></trkpt><trkpt lat="41.58503646755309" lon="15.47749724896672"><ele>45.333333333333336</ele><time>2026-04-19T16:39:00Z</time></trkpt><trkpt lat="41.58491604130056" lon="15.477621174938365"><ele>45.66666666666667</ele><time>2026-04-19T16:39:01Z</time></trkpt><trkpt lat="41.58479979134904" lon="15.477743143480675"><ele>46.0</ele><time>2026-04-19T16:39:02Z</time></trkpt><trkpt lat="41.58467783953646" lon="15.477866042430382"><ele>46.333333333333336</ele><time>2026-04-19T16:39:03Z</time></trkpt><trkpt lat="41.584556445774524" lon="15.477989623950197"><ele>46.666666666666664</ele><time>2026-04-19T16:39:04Z</time></trkpt><trkpt lat="41.584434884793346" lon="15.47811591578186"><ele>47.0</ele><time>2026-04-19T16:39:05Z</time></trkpt><trkpt lat="41.58431998116947" lon="15.47823408630726"><ele>47.0</ele><time>2026-04-19T16:39:06Z</time></trkpt><trkpt lat="41.58420608937569" lon="15.47835495389968"><ele>47.0</ele><time>2026-04-19T16:39:07Z</time></trkpt><trkpt lat="41.58409411442056" lon="15.478476379075865"><ele>47.0</ele><time>2026-04-19T16:39:08Z</time></trkpt><trkpt lat="41.58397461829798" lon="15.478598148103853"><ele>47.0</ele><time>2026-04-19T16:39:09Z</time></trkpt><trkpt lat="41.58386187732716" lon="15.478717440630898"><ele>47.0</ele><time>2026-04-19T16:39:10Z</time></trkpt><trkpt lat="41.583749519357376" lon="15.478836751965272"><ele>47.0</ele><time>2026-04-19T16:39:11Z</time></trkpt><trkpt lat="41.583631377063824" lon="15.478957281850366"><ele>47.0</ele><time>2026-04-19T16:39:12Z</time></trkpt><trkpt lat="41.583511939818834" lon="15.479077229076667"><ele>47.0</ele><time>2026-04-19T16:39:13Z</time></trkpt><trkpt lat="41.58340069919578" lon="15.479195294453632"><ele>47.0</ele><time>2026-04-19T16:39:14Z</time></trkpt><trkpt lat="41.583285607486786" lon="15.479316050051594"><ele>47.0</ele><time>2026-04-19T16:39:15Z</time></trkpt><trkpt lat="41.58317137665795" lon="15.479436690656295"><ele>47.0</ele><time>2026-04-19T16:39:16Z</time></trkpt><trkpt lat="41.58305817780804" lon="15.479555864917105"><ele>47.0</ele><time>2026-04-19T16:39:17Z</time></trkpt><trkpt lat="41.58293702746405" lon="15.479677943537425"><ele>47.0</ele><time>2026-04-19T16:39:18Z</time></trkpt><trkpt lat="41.58282074803488" lon="15.479797395948232"><ele>47.0</ele><time>2026-04-19T16:39:19Z</time></trkpt><trkpt lat="41.58270502329071" lon="15.47991726705531"><ele>47.0</ele><time>2026-04-19T16:39:20Z</time></trkpt><trkpt lat="41.58259048320158" lon="15.480038872316294"><ele>47.0</ele><time>2026-04-19T16:39:21Z</time></trkpt><trkpt lat="41.58247173292104" lon="15.480161387877038"><ele>47.0</ele><time>2026-04-19T16:39:22Z</time></trkpt><trkpt lat="41.582356376325286" lon="15.480283898628176"><ele>47.0</ele><time>2026-04-19T16:39:23Z</time></trkpt><trkpt lat="41.582239376610104" lon="15.480404924988127"><ele>47.0</ele><time>2026-04-19T16:39:24Z</time></trkpt><trkpt lat="41.58212182885734" lon="15.480528255023668"><ele>47.0</ele><time>2026-04-19T16:39:25Z</time></trkpt><trkpt lat="41.58200906884046" lon="15.480650239592642"><ele>46.5</ele><time>2026-04-19T16:39:26Z</time></trkpt><trkpt lat="41.58189493704425" lon="15.480770937669279"><ele>46.0</ele><time>2026-04-19T16:39:27Z</time></trkpt><trkpt lat="41.581784036641594" lon="15.480886409416032"><ele>45.5</ele><time>2026-04-19T16:39:28Z</time></trkpt><trkpt lat="41.58167561402399" lon="15.480997421311265"><ele>45.0</ele><time>2026-04-19T16:39:29Z</time></trkpt><trkpt lat="41.58156055167613" lon="15.481116813291342"><ele>45.0</ele><time>2026-04-19T16:39:30Z</time></trkpt><trkpt lat="41.58144572911278" lon="15.481235976131625"><ele>45.0</ele><time>2026-04-19T16:39:31Z</time></trkpt><trkpt lat="41.581331260963424" lon="15.481352654210239"><ele>45.0</ele><time>2026-04-19T16:39:32Z</time></trkpt><trkpt lat="41.58121767612154" lon="15.481470725418701"><ele>45.0</ele><time>2026-04-19T16:39:33Z</time></trkpt><trkpt lat="41.5811030648474" lon="15.48159349571283"><ele>45.25</ele><time>2026-04-19T16:39:34Z</time></trkpt><trkpt lat="41.58098759062493" lon="15.481715641354224"><ele>45.5</ele><time>2026-04-19T16:39:35Z</time></trkpt><trkpt lat="41.580866819524786" lon="15.4818385944846"><ele>45.75</ele><time>2026-04-19T16:39:36Z</time></trkpt><trkpt lat="41.580748141582035" lon="15.481960540086131"><ele>46.0</ele><time>2026-04-19T16:39:37Z</time></trkpt><trkpt lat="41.58063004174075" lon="15.482086058038117"><ele>46.0</ele><time>2026-04-19T16:39:38Z</time></trkpt><trkpt lat="41.58051118165864" lon="15.48221516844855"><ele>46.0</ele><time>2026-04-19T16:39:39Z</time></trkpt><trkpt lat="41.580394167896536" lon="15.482339845168713"><ele>46.0</ele><time>2026-04-19T16:39:40Z</time></trkpt><trkpt lat="41.58027374429176" lon="15.482469709742764"><ele>46.0</ele><time>2026-04-19T16:39:41Z</time></trkpt><trkpt lat="41.580154631281886" lon="15.48259584862075"><ele>46.0</ele><time>2026-04-19T16:39:42Z</time></trkpt><trkpt lat="41.580033579614415" lon="15.482721090445313"><ele>46.0</ele><time>2026-04-19T16:39:43Z</time></trkpt><trkpt lat="41.57991262857202" lon="15.482841617702755"><ele>46.0</ele><time>2026-04-19T16:39:44Z</time></trkpt><trkpt lat="41.579790833971884" lon="15.482963829873826"><ele>46.0</ele><time>2026-04-19T16:39:45Z</time></trkpt><trkpt lat="41.579671131264696" lon="15.483085725772943"><ele>46.0</ele><time>2026-04-19T16:39:46Z</time></trkpt><trkpt lat="41.57955261640128" lon="15.483211381651044"><ele>45.75</ele><time>2026-04-19T16:39:47Z</time></trkpt><trkpt lat="41.579441380469824" lon="15.483327735544396"><ele>45.5</ele><time>2026-04-19T16:39:48Z</time></trkpt><trkpt lat="41.57932349689781" lon="15.483457167504707"><ele>45.25</ele><time>2026-04-19T16:39:49Z</time></trkpt><trkpt lat="41.579195701736275" lon="15.483562123494572"><ele>45.0</ele><time>2026-04-19T16:39:50Z</time></trkpt><trkpt lat="41.57907716864448" lon="15.48368502898157"><ele>45.25</ele><time>2026-04-19T16:39:51Z</time></trkpt><trkpt lat="41.57896202986961" lon="15.483806441136409"><ele>45.5</ele><time>2026-04-19T16:39:52Z</time></trkpt><trkpt lat="41.57885101330806" lon="15.483947077175186"><ele>45.75</ele><time>2026-04-19T16:39:53Z</time></trkpt><trkpt lat="41.57872978311405" lon="15.484064225840214"><ele>46.0</ele><time>2026-04-19T16:39:54Z</time></trkpt><trkpt lat="41.57860997736037" lon="15.484190537080853"><ele>46.333333333333336</ele><time>2026-04-19T16:39:55Z</time></trkpt><trkpt lat="41.5784926646093" lon="15.484321283637723"><ele>46.666666666666664</ele><time>2026-04-19T16:39:56Z</time></trkpt><trkpt lat="41.578377127645844" lon="15.484449122074215"><ele>47.0</ele><time>2026-04-19T16:39:57Z</time></trkpt><trkpt lat="41.57824711496437" lon="15.484557816700402"><ele>47.0</ele><time>2026-04-19T16:39:58Z</time></trkpt><trkpt lat="41.57812779425074" lon="15.484679403988025"><ele>47.0</ele><time>2026-04-19T16:39:59Z</time></trkpt><trkpt lat="41.5780111177318" lon="15.484798717041976"><ele>47.0</ele><time>2026-04-19T16:40:00Z</time></trkpt><trkpt lat="41.57789166900156" lon="15.484922489067685"><ele>47.0</ele><time>2026-04-19T16:40:01Z</time></trkpt><trkpt lat="41.577773633540666" lon="15.485047356007511"><ele>47.0</ele><time>2026-04-19T16:40:02Z</time></trkpt><trkpt lat="41.57765517931716" lon="15.485172665947045"><ele>47.0</ele><time>2026-04-19T16:40:03Z</time></trkpt><trkpt lat="41.57755026395531" lon="15.48530916379804"><ele>47.0</ele><time>2026-04-19T16:40:04Z</time></trkpt><trkpt lat="41.57742864124437" lon="15.485429938182248"><ele>47.0</ele><time>2026-04-19T16:40:05Z</time></trkpt><trkpt lat="41.577316480924935" lon="15.485550965632498"><ele>47.33333333333333</ele><time>2026-04-19T16:40:06Z</time></trkpt><trkpt lat="41.57719350116507" lon="15.485681313275252"><ele>47.666666666666664</ele><time>2026-04-19T16:40:07Z</time></trkpt><trkpt lat="41.57706898669524" lon="15.485784044650142"><ele>48.0</ele><time>2026-04-19T16:40:08Z</time></trkpt><trkpt lat="41.57695518100304" lon="15.485928133511836"><ele>47.333333333333336</ele><time>2026-04-19T16:40:09Z</time></trkpt><trkpt lat="41.576823407633896" lon="15.486065538879084"><ele>46.66666666666667</ele><time>2026-04-19T16:40:10Z</time></trkpt><trkpt lat="41.576701843428246" lon="15.486190247373205"><ele>46.0</ele><time>2026-04-19T16:40:11Z</time></trkpt><trkpt lat="41.576577127244164" lon="15.48632298242018"><ele>46.0</ele><time>2026-04-19T16:40:12Z</time></trkpt><trkpt lat="41.57645622775" lon="15.486462606431157"><ele>46.0</ele><time>2026-04-19T16:40:13Z</time></trkpt><trkpt lat="41.576339378286896" lon="15.486602965434136"><ele>46.0</ele><time>2026-04-19T16:40:14Z</time></trkpt><trkpt lat="41.57622418056938" lon="15.486746006035235"><ele>46.0</ele><time>2026-04-19T16:40:15Z</time></trkpt><trkpt lat="41.57611212265707" lon="15.48688936962409"><ele>46.0</ele><time>2026-04-19T16:40:16Z</time></trkpt><trkpt lat="41.57600177492462" lon="15.487030912493552"><ele>46.0</ele><time>2026-04-19T16:40:17Z</time></trkpt><trkpt lat="41.575896287976796" lon="15.487172130362763"><ele>46.0</ele><time>2026-04-19T16:40:18Z</time></trkpt><trkpt lat="41.57579331519347" lon="15.487320223988933"><ele>46.0</ele><time>2026-04-19T16:40:19Z</time></trkpt><trkpt lat="41.575692853069825" lon="15.487468644368041"><ele>46.0</ele><time>2026-04-19T16:40:20Z</time></trkpt><trkpt lat="41.57559363235249" lon="15.487618081931686"><ele>46.0</ele><time>2026-04-19T16:40:21Z</time></trkpt><trkpt lat="41.57549794801799" lon="15.487768023902877"><ele>46.0</ele><time>2026-04-19T16:40:22Z</time></trkpt><trkpt lat="41.575397466794726" lon="15.487925458607492"><ele>46.0</ele><time>2026-04-19T16:40:23Z</time></trkpt><trkpt lat="41.57530120091593" lon="15.488081007542318"><ele>46.0</ele><time>2026-04-19T16:40:24Z</time></trkpt><trkpt lat="41.57520628891705" lon="15.488242872059661"><ele>46.0</ele><time>2026-04-19T16:40:25Z</time></trkpt><trkpt lat="41.57511690818971" lon="15.488404328027066"><ele>46.0</ele><time>2026-04-19T16:40:26Z</time></trkpt><trkpt lat="41.57502699596718" lon="15.488568156160747"><ele>46.0</ele><time>2026-04-19T16:40:27Z</time></trkpt><trkpt lat="41.57493335791597" lon="15.488731099926758"><ele>46.0</ele><time>2026-04-19T16:40:28Z</time></trkpt><trkpt lat="41.57483805868954" lon="15.488896021391207"><ele>46.0</ele><time>2026-04-19T16:40:29Z</time></trkpt><trkpt lat="41.574746647612784" lon="15.489058051786376"><ele>46.0</ele><time>2026-04-19T16:40:30Z</time></trkpt><trkpt lat="41.57465876246394" lon="15.489216512831506"><ele>46.0</ele><time>2026-04-19T16:40:31Z</time></trkpt><trkpt lat="41.574570090821915" lon="15.489375381698142"><ele>46.0</ele><time>2026-04-19T16:40:32Z</time></trkpt><trkpt lat="41.57447958261677" lon="15.489531680555979"><ele>46.0</ele><time>2026-04-19T16:40:33Z</time></trkpt><trkpt lat="41.57438831758855" lon="15.489685592469838"><ele>46.0</ele><time>2026-04-19T16:40:34Z</time></trkpt><trkpt lat="41.57429769001046" lon="15.489843875480439"><ele>46.0</ele><time>2026-04-19T16:40:35Z</time></trkpt><trkpt lat="41.574207864257104" lon="15.49000667900751"><ele>46.0</ele><time>2026-04-19T16:40:36Z</time></trkpt><trkpt lat="41.57411774928126" lon="15.490170956396824"><ele>46.0</ele><time>2026-04-19T16:40:37Z</time></trkpt><trkpt lat="41.574028175784605" lon="15.490330912454754"><ele>46.0</ele><time>2026-04-19T16:40:38Z</time></trkpt><trkpt lat="41.5739358257612" lon="15.490497021915345"><ele>46.0</ele><time>2026-04-19T16:40:39Z</time></trkpt><trkpt lat="41.573843202216935" lon="15.490660280652367"><ele>45.66666666666667</ele><time>2026-04-19T16:40:40Z</time></trkpt><trkpt lat="41.573747644268444" lon="15.490828021851232"><ele>45.333333333333336</ele><time>2026-04-19T16:40:41Z</time></trkpt><trkpt lat="41.57364989911054" lon="15.490993998748797"><ele>45.0</ele><time>2026-04-19T16:40:42Z</time></trkpt><trkpt lat="41.57355521569103" lon="15.491156889016361"><ele>44.666666666666664</ele><time>2026-04-19T16:40:43Z</time></trkpt><trkpt lat="41.573463286743184" lon="15.49131921309331"><ele>44.33333333333333</ele><time>2026-04-19T16:40:44Z</time></trkpt><trkpt lat="41.57336841179299" lon="15.49149291790629"><ele>44.0</ele><time>2026-04-19T16:40:45Z</time></trkpt><trkpt lat="41.57327218806788" lon="15.491660127996493"><ele>44.0</ele><time>2026-04-19T16:40:46Z</time></trkpt><trkpt lat="41.57317553313719" lon="15.49182279311809"><ele>44.0</ele><time>2026-04-19T16:40:47Z</time></trkpt><trkpt lat="41.573070563377506" lon="15.491960933328858"><ele>44.0</ele><time>2026-04-19T16:40:48Z</time></trkpt><trkpt lat="41.57297091755286" lon="15.492147214251798"><ele>44.0</ele><time>2026-04-19T16:40:49Z</time></trkpt><trkpt lat="41.57286024828282" lon="15.492309660970408"><ele>44.0</ele><time>2026-04-19T16:40:50Z</time></trkpt><trkpt lat="41.57274928055603" lon="15.492464426667604"><ele>44.0</ele><time>2026-04-19T16:40:51Z</time></trkpt><trkpt lat="41.57263749448224" lon="15.4926177811334"><ele>43.33333333333333</ele><time>2026-04-19T16:40:52Z</time></trkpt><trkpt lat="41.57252226282904" lon="15.492775114798743"><ele>42.666666666666664</ele><time>2026-04-19T16:40:53Z</time></trkpt><trkpt lat="41.57240937841926" lon="15.492921238863385"><ele>42.0</ele><time>2026-04-19T16:40:54Z</time></trkpt><trkpt lat="41.57229331036708" lon="15.493063498342533"><ele>42.0</ele><time>2026-04-19T16:40:55Z</time></trkpt><trkpt lat="41.572180198279" lon="15.49319445393801"><ele>42.0</ele><time>2026-04-19T16:40:56Z</time></trkpt><trkpt lat="41.572065336046634" lon="15.493329068956431"><ele>42.0</ele><time>2026-04-19T16:40:57Z</time></trkpt><trkpt lat="41.57195082122554" lon="15.493456158687245"><ele>42.0</ele><time>2026-04-19T16:40:58Z</time></trkpt><trkpt lat="41.571832819884364" lon="15.493583595220063"><ele>42.0</ele><time>2026-04-19T16:40:59Z</time></trkpt><trkpt lat="41.571713403783335" lon="15.493706436112086"><ele>42.0</ele><time>2026-04-19T16:41:00Z</time></trkpt><trkpt lat="41.57159197051079" lon="15.493829822075558"><ele>42.0</ele><time>2026-04-19T16:41:01Z</time></trkpt><trkpt lat="41.57146622085371" lon="15.493959499500843"><ele>42.0</ele><time>2026-04-19T16:41:02Z</time></trkpt><trkpt lat="41.57134720671317" lon="15.494082768209703"><ele>42.0</ele><time>2026-04-19T16:41:03Z</time></trkpt><trkpt lat="41.57122207470057" lon="15.494206641381655"><ele>41.333333333333336</ele><time>2026-04-19T16:41:04Z</time></trkpt><trkpt lat="41.57108975186412" lon="15.494341641655891"><ele>40.66666666666667</ele><time>2026-04-19T16:41:05Z</time></trkpt><trkpt lat="41.57096951134131" lon="15.494457391951158"><ele>40.0</ele><time>2026-04-19T16:41:06Z</time></trkpt><trkpt lat="41.57085250540574" lon="15.494577476099556"><ele>40.5</ele><time>2026-04-19T16:41:07Z</time></trkpt><trkpt lat="41.57073281013188" lon="15.494694951344316"><ele>41.0</ele><time>2026-04-19T16:41:08Z</time></trkpt><trkpt lat="41.57061537253595" lon="15.494811043255439"><ele>41.5</ele><time>2026-04-19T16:41:09Z</time></trkpt><trkpt lat="41.57049518281719" lon="15.494930053676857"><ele>42.0</ele><time>2026-04-19T16:41:10Z</time></trkpt><trkpt lat="41.570370344322676" lon="15.495056874262165"><ele>42.0</ele><time>2026-04-19T16:41:11Z</time></trkpt><trkpt lat="41.57025203436474" lon="15.495178041597757"><ele>42.0</ele><time>2026-04-19T16:41:12Z</time></trkpt><trkpt lat="41.570130172840805" lon="15.495302894914284"><ele>42.0</ele><time>2026-04-19T16:41:13Z</time></trkpt><trkpt lat="41.57000379611551" lon="15.495430340884884"><ele>41.666666666666664</ele><time>2026-04-19T16:41:14Z</time></trkpt><trkpt lat="41.56987696514694" lon="15.495554619401636"><ele>41.33333333333333</ele><time>2026-04-19T16:41:15Z</time></trkpt><trkpt lat="41.56975152816922" lon="15.495679554641416"><ele>41.0</ele><time>2026-04-19T16:41:16Z</time></trkpt><trkpt lat="41.56962308029525" lon="15.495807856631451"><ele>40.666666666666664</ele><time>2026-04-19T16:41:17Z</time></trkpt><trkpt lat="41.56949802167543" lon="15.495935847348166"><ele>40.333333333333336</ele><time>2026-04-19T16:41:18Z</time></trkpt><trkpt lat="41.569368856869296" lon="15.496070024173692"><ele>40.0</ele><time>2026-04-19T16:41:19Z</time></trkpt><trkpt lat="41.56923786755158" lon="15.496201114196277"><ele>40.333333333333336</ele><time>2026-04-19T16:41:20Z</time></trkpt><trkpt lat="41.56910745989252" lon="15.496327704515574"><ele>40.666666666666664</ele><time>2026-04-19T16:41:21Z</time></trkpt><trkpt lat="41.568973627393916" lon="15.496457739779421"><ele>41.0</ele><time>2026-04-19T16:41:22Z</time></trkpt><trkpt lat="41.56884383898427" lon="15.496587611064259"><ele>41.0</ele><time>2026-04-19T16:41:23Z</time></trkpt><trkpt lat="41.56871308157346" lon="15.496722674042632"><ele>41.0</ele><time>2026-04-19T16:41:24Z</time></trkpt><trkpt lat="41.56858259665606" lon="15.496853479578636"><ele>41.0</ele><time>2026-04-19T16:41:25Z</time></trkpt><trkpt lat="41.568450850943044" lon="15.496981810969107"><ele>41.0</ele><time>2026-04-19T16:41:26Z</time></trkpt><trkpt lat="41.568317122348994" lon="15.497108639588731"><ele>41.0</ele><time>2026-04-19T16:41:27Z</time></trkpt><trkpt lat="41.56818657999128" lon="15.49722961794029"><ele>41.0</ele><time>2026-04-19T16:41:28Z</time></trkpt><trkpt lat="41.5680569369312" lon="15.497345570273051"><ele>41.0</ele><time>2026-04-19T16:41:29Z</time></trkpt><trkpt lat="41.56792637433353" lon="15.497459163956998"><ele>41.0</ele><time>2026-04-19T16:41:30Z</time></trkpt><trkpt lat="41.5677975629562" lon="15.497571953533814"><ele>41.0</ele><time>2026-04-19T16:41:31Z</time></trkpt><trkpt lat="41.56767091793222" lon="15.497678756939786"><ele>41.666666666666664</ele><time>2026-04-19T16:41:32Z</time></trkpt><trkpt lat="41.56754128101905" lon="15.497785195269067"><ele>42.333333333333336</ele><time>2026-04-19T16:41:33Z</time></trkpt><trkpt lat="41.56741146862201" lon="15.497892037533271"><ele>43.0</ele><time>2026-04-19T16:41:34Z</time></trkpt><trkpt lat="41.56728258288511" lon="15.497987489771361"><ele>43.0</ele><time>2026-04-19T16:41:35Z</time></trkpt><trkpt lat="41.5671503092208" lon="15.49808556094233"><ele>43.0</ele><time>2026-04-19T16:41:36Z</time></trkpt><trkpt lat="41.56701595001662" lon="15.498171773808837"><ele>43.0</ele><time>2026-04-19T16:41:37Z</time></trkpt><trkpt lat="41.566877664210686" lon="15.49825606985601"><ele>42.333333333333336</ele><time>2026-04-19T16:41:38Z</time></trkpt><trkpt lat="41.56674242424421" lon="15.498340408011574"><ele>41.666666666666664</ele><time>2026-04-19T16:41:39Z</time></trkpt><trkpt lat="41.566605325459" lon="15.49842825341471"><ele>41.0</ele><time>2026-04-19T16:41:40Z</time></trkpt><trkpt lat="41.5664692542247" lon="15.49851270967369"><ele>41.0</ele><time>2026-04-19T16:41:41Z</time></trkpt><trkpt lat="41.56633284056028" lon="15.498601316276714"><ele>41.0</ele><time>2026-04-19T16:41:42Z</time></trkpt><trkpt lat="41.56619441077433" lon="15.498689361720626"><ele>41.0</ele><time>2026-04-19T16:41:43Z</time></trkpt><trkpt lat="41.56606262409506" lon="15.498764782083054"><ele>41.0</ele><time>2026-04-19T16:41:44Z</time></trkpt><trkpt lat="41.565921160719874" lon="15.498852976451829"><ele>41.33333333333333</ele><time>2026-04-19T16:41:45Z</time></trkpt><trkpt lat="41.56578053141918" lon="15.498934954793784"><ele>41.666666666666664</ele><time>2026-04-19T16:41:46Z</time></trkpt><trkpt lat="41.56563601373676" lon="15.499012273356438"><ele>42.0</ele><time>2026-04-19T16:41:47Z</time></trkpt><trkpt lat="41.56548328978646" lon="15.499084204062786"><ele>42.0</ele><time>2026-04-19T16:41:48Z</time></trkpt><trkpt lat="41.565328564808055" lon="15.499147317947967"><ele>42.0</ele><time>2026-04-19T16:41:49Z</time></trkpt><trkpt lat="41.565178462534135" lon="15.499212191970212"><ele>42.0</ele><time>2026-04-19T16:41:50Z</time></trkpt><trkpt lat="41.565036063205305" lon="15.499267918292752"><ele>42.0</ele><time>2026-04-19T16:41:51Z</time></trkpt><trkpt lat="41.5648876881925" lon="15.499325007500145"><ele>42.0</ele><time>2026-04-19T16:41:52Z</time></trkpt><trkpt lat="41.56474369330362" lon="15.499365204005057"><ele>42.0</ele><time>2026-04-19T16:41:53Z</time></trkpt><trkpt lat="41.564602700813666" lon="15.49940039971483"><ele>42.0</ele><time>2026-04-19T16:41:54Z</time></trkpt><trkpt lat="41.56446352490636" lon="15.499424847019366"><ele>42.25</ele><time>2026-04-19T16:41:55Z</time></trkpt><trkpt lat="41.56431980904463" lon="15.499446613080012"><ele>42.5</ele><time>2026-04-19T16:41:56Z</time></trkpt><trkpt lat="41.564184793409815" lon="15.499459272494908"><ele>42.75</ele><time>2026-04-19T16:41:57Z</time></trkpt><trkpt lat="41.564048865424" lon="15.499479763157309"><ele>43.0</ele><time>2026-04-19T16:41:58Z</time></trkpt><trkpt lat="41.563914830179215" lon="15.499498987599527"><ele>43.0</ele><time>2026-04-19T16:41:59Z</time></trkpt><trkpt lat="41.56377978918707" lon="15.499516731878312"><ele>43.0</ele><time>2026-04-19T16:42:00Z</time></trkpt><trkpt lat="41.56364274131638" lon="15.499537065035417"><ele>43.0</ele><time>2026-04-19T16:42:01Z</time></trkpt><trkpt lat="41.5635059286817" lon="15.499558610534885"><ele>43.0</ele><time>2026-04-19T16:42:02Z</time></trkpt><trkpt lat="41.56335743628725" lon="15.499584072324547"><ele>42.66666666666667</ele><time>2026-04-19T16:42:03Z</time></trkpt><trkpt lat="41.56320617344139" lon="15.49960703081609"><ele>42.333333333333336</ele><time>2026-04-19T16:42:04Z</time></trkpt><trkpt lat="41.56304023936321" lon="15.499640770732125"><ele>42.0</ele><time>2026-04-19T16:42:05Z</time></trkpt><trkpt lat="41.562878445165126" lon="15.499666396652476"><ele>42.0</ele><time>2026-04-19T16:42:06Z</time></trkpt><trkpt lat="41.5627126445571" lon="15.499690206937592"><ele>42.0</ele><time>2026-04-19T16:42:07Z</time></trkpt><trkpt lat="41.562543812539886" lon="15.499715839357494"><ele>42.0</ele><time>2026-04-19T16:42:08Z</time></trkpt><trkpt lat="41.5623719391843" lon="15.499744201082931"><ele>42.0</ele><time>2026-04-19T16:42:09Z</time></trkpt><trkpt lat="41.562196113091055" lon="15.499779210986869"><ele>42.0</ele><time>2026-04-19T16:42:10Z</time></trkpt><trkpt lat="41.56202453202277" lon="15.499809642225223"><ele>42.0</ele><time>2026-04-19T16:42:11Z</time></trkpt><trkpt lat="41.56185972855441" lon="15.499837279884398"><ele>42.333333333333336</ele><time>2026-04-19T16:42:12Z</time></trkpt><trkpt lat="41.56169079761667" lon="15.499864436402222"><ele>42.66666666666667</ele><time>2026-04-19T16:42:13Z</time></trkpt><trkpt lat="41.56152538832915" lon="15.499892531092302"><ele>43.0</ele><time>2026-04-19T16:42:14Z</time></trkpt><trkpt lat="41.561365090152805" lon="15.499917328468245"><ele>43.0</ele><time>2026-04-19T16:42:15Z</time></trkpt><trkpt lat="41.5612022167458" lon="15.499939765577762"><ele>43.0</ele><time>2026-04-19T16:42:16Z</time></trkpt><trkpt lat="41.56104279998383" lon="15.49995863273061"><ele>43.0</ele><time>2026-04-19T16:42:17Z</time></trkpt><trkpt lat="41.560878545842634" lon="15.499977449210355"><ele>42.66666666666667</ele><time>2026-04-19T16:42:18Z</time></trkpt><trkpt lat="41.56072604688273" lon="15.50000352009337"><ele>42.333333333333336</ele><time>2026-04-19T16:42:19Z</time></trkpt><trkpt lat="41.56056781309663" lon="15.500031452269928"><ele>42.0</ele><time>2026-04-19T16:42:20Z</time></trkpt><trkpt lat="41.56041091177326" lon="15.500058347828478"><ele>42.0</ele><time>2026-04-19T16:42:21Z</time></trkpt><trkpt lat="41.560256037505944" lon="15.500083182406685"><ele>42.0</ele><time>2026-04-19T16:42:22Z</time></trkpt><trkpt lat="41.56009104329099" lon="15.500111086125715"><ele>42.0</ele><time>2026-04-19T16:42:23Z</time></trkpt><trkpt lat="41.55993754723487" lon="15.500137033249729"><ele>42.0</ele><time>2026-04-19T16:42:24Z</time></trkpt><trkpt lat="41.55977029956521" lon="15.500165979926166"><ele>42.0</ele><time>2026-04-19T16:42:25Z</time></trkpt><trkpt lat="41.559617314447564" lon="15.50018783721727"><ele>42.0</ele><time>2026-04-19T16:42:26Z</time></trkpt><trkpt lat="41.55945688247216" lon="15.500213451331675"><ele>42.333333333333336</ele><time>2026-04-19T16:42:27Z</time></trkpt><trkpt lat="41.55929432288383" lon="15.50024090566669"><ele>42.66666666666667</ele><time>2026-04-19T16:42:28Z</time></trkpt><trkpt lat="41.55913022090103" lon="15.500269415142972"><ele>43.0</ele><time>2026-04-19T16:42:29Z</time></trkpt><trkpt lat="41.55896909023324" lon="15.500296085703694"><ele>43.0</ele><time>2026-04-19T16:42:30Z</time></trkpt><trkpt lat="41.55880538675402" lon="15.500321043266108"><ele>43.0</ele><time>2026-04-19T16:42:31Z</time></trkpt><trkpt lat="41.558641510161024" lon="15.500346294734"><ele>43.0</ele><time>2026-04-19T16:42:32Z</time></trkpt><trkpt lat="41.55847974007982" lon="15.500369256555992"><ele>43.0</ele><time>2026-04-19T16:42:33Z</time></trkpt><trkpt lat="41.5583199850633" lon="15.500389431548959"><ele>43.0</ele><time>2026-04-19T16:42:34Z</time></trkpt><trkpt lat="41.55815398086812" lon="15.500407221861828"><ele>43.0</ele><time>2026-04-19T16:42:35Z</time></trkpt><trkpt lat="41.55799272156099" lon="15.500424784127173"><ele>43.333333333333336</ele><time>2026-04-19T16:42:36Z</time></trkpt><trkpt lat="41.557834862749296" lon="15.500446600700721"><ele>43.666666666666664</ele><time>2026-04-19T16:42:37Z</time></trkpt><trkpt lat="41.55767610228355" lon="15.500471398021961"><ele>44.0</ele><time>2026-04-19T16:42:38Z</time></trkpt><trkpt lat="41.55751914466227" lon="15.500490729172888"><ele>44.0</ele><time>2026-04-19T16:42:39Z</time></trkpt><trkpt lat="41.55736421639724" lon="15.500506008551802"><ele>44.0</ele><time>2026-04-19T16:42:40Z</time></trkpt><trkpt lat="41.557209372947334" lon="15.500526120518728"><ele>44.0</ele><time>2026-04-19T16:42:41Z</time></trkpt><trkpt lat="41.55705549817511" lon="15.500546299927915"><ele>44.0</ele><time>2026-04-19T16:42:42Z</time></trkpt><trkpt lat="41.55690015719654" lon="15.500562975763701"><ele>44.0</ele><time>2026-04-19T16:42:43Z</time></trkpt><trkpt lat="41.55674207345138" lon="15.500580352266358"><ele>44.0</ele><time>2026-04-19T16:42:44Z</time></trkpt><trkpt lat="41.55658380663763" lon="15.500600064993536"><ele>44.0</ele><time>2026-04-19T16:42:45Z</time></trkpt><trkpt lat="41.55642768641447" lon="15.500623523254431"><ele>44.0</ele><time>2026-04-19T16:42:46Z</time></trkpt><trkpt lat="41.5562686643287" lon="15.500644406855905"><ele>44.0</ele><time>2026-04-19T16:42:47Z</time></trkpt><trkpt lat="41.55611213128184" lon="15.500661820250873"><ele>43.666666666666664</ele><time>2026-04-19T16:42:48Z</time></trkpt><trkpt lat="41.55595560601471" lon="15.500677601144037"><ele>43.333333333333336</ele><time>2026-04-19T16:42:49Z</time></trkpt><trkpt lat="41.555798581043064" lon="15.50069895043158"><ele>43.0</ele><time>2026-04-19T16:42:50Z</time></trkpt><trkpt lat="41.55564376604144" lon="15.500721449013964"><ele>43.0</ele><time>2026-04-19T16:42:51Z</time></trkpt><trkpt lat="41.55549355963012" lon="15.500741988858382"><ele>43.0</ele><time>2026-04-19T16:42:52Z</time></trkpt><trkpt lat="41.55533539957997" lon="15.500763138738595"><ele>43.0</ele><time>2026-04-19T16:42:53Z</time></trkpt><trkpt lat="41.55518107229204" lon="15.500784094365704"><ele>43.0</ele><time>2026-04-19T16:42:54Z</time></trkpt><trkpt lat="41.55502894834552" lon="15.500798598722584"><ele>43.0</ele><time>2026-04-19T16:42:55Z</time></trkpt><trkpt lat="41.55487616500115" lon="15.500816262247433"><ele>43.0</ele><time>2026-04-19T16:42:56Z</time></trkpt><trkpt lat="41.55473269275087" lon="15.500825601185493"><ele>43.0</ele><time>2026-04-19T16:42:57Z</time></trkpt><trkpt lat="41.5545751815042" lon="15.500852675620377"><ele>43.0</ele><time>2026-04-19T16:42:58Z</time></trkpt><trkpt lat="41.554427439579904" lon="15.500870201508658"><ele>43.0</ele><time>2026-04-19T16:42:59Z</time></trkpt><trkpt lat="41.55427630514689" lon="15.500887989214574"><ele>43.0</ele><time>2026-04-19T16:43:00Z</time></trkpt><trkpt lat="41.55412582327675" lon="15.500902420113015"><ele>43.0</ele><time>2026-04-19T16:43:01Z</time></trkpt><trkpt lat="41.55397612058922" lon="15.500916164355171"><ele>43.0</ele><time>2026-04-19T16:43:02Z</time></trkpt><trkpt lat="41.55382410575327" lon="15.500936312151381"><ele>43.0</ele><time>2026-04-19T16:43:03Z</time></trkpt><trkpt lat="41.55366778691556" lon="15.500960948382275"><ele>43.333333333333336</ele><time>2026-04-19T16:43:04Z</time></trkpt><trkpt lat="41.55351238130592" lon="15.500980893346274"><ele>43.666666666666664</ele><time>2026-04-19T16:43:05Z</time></trkpt><trkpt lat="41.553357809840755" lon="15.500997431219124"><ele>44.0</ele><time>2026-04-19T16:43:06Z</time></trkpt><trkpt lat="41.55319972437925" lon="15.50101950267624"><ele>44.0</ele><time>2026-04-19T16:43:07Z</time></trkpt><trkpt lat="41.553043013177685" lon="15.501043504821439"><ele>44.0</ele><time>2026-04-19T16:43:08Z</time></trkpt><trkpt lat="41.55288871898676" lon="15.501063083976794"><ele>44.0</ele><time>2026-04-19T16:43:09Z</time></trkpt><trkpt lat="41.55273197694624" lon="15.501084568051892"><ele>44.33333333333333</ele><time>2026-04-19T16:43:10Z</time></trkpt><trkpt lat="41.55258221427451" lon="15.501101379790793"><ele>44.666666666666664</ele><time>2026-04-19T16:43:11Z</time></trkpt><trkpt lat="41.55243345270836" lon="15.501117856746411"><ele>45.0</ele><time>2026-04-19T16:43:12Z</time></trkpt><trkpt lat="41.552282034598775" lon="15.501139807360346"><ele>45.0</ele><time>2026-04-19T16:43:13Z</time></trkpt><trkpt lat="41.55213162772469" lon="15.501157501025764"><ele>45.0</ele><time>2026-04-19T16:43:14Z</time></trkpt><trkpt lat="41.551977257356306" lon="15.501164931456413"><ele>45.0</ele><time>2026-04-19T16:43:15Z</time></trkpt><trkpt lat="41.551820161375446" lon="15.501174205643526"><ele>45.666666666666664</ele><time>2026-04-19T16:43:16Z</time></trkpt><trkpt lat="41.55166475945517" lon="15.501195031279389"><ele>46.33333333333333</ele><time>2026-04-19T16:43:17Z</time></trkpt><trkpt lat="41.55150383577383" lon="15.501218295983932"><ele>47.0</ele><time>2026-04-19T16:43:18Z</time></trkpt><trkpt lat="41.55134574393817" lon="15.501237445798496"><ele>48.0</ele><time>2026-04-19T16:43:19Z</time></trkpt><trkpt lat="41.55118455824503" lon="15.50125998365943"><ele>49.0</ele><time>2026-04-19T16:43:20Z</time></trkpt><trkpt lat="41.551025581723586" lon="15.501282230046352"><ele>50.0</ele><time>2026-04-19T16:43:21Z</time></trkpt><trkpt lat="41.550871111460374" lon="15.501298499508618"><ele>50.0</ele><time>2026-04-19T16:43:22Z</time></trkpt><trkpt lat="41.550715328715725" lon="15.501318354250932"><ele>50.0</ele><time>2026-04-19T16:43:23Z</time></trkpt><trkpt lat="41.55056298923301" lon="15.501338429824289"><ele>50.0</ele><time>2026-04-19T16:43:24Z</time></trkpt><trkpt lat="41.550407740045614" lon="15.50136021776351"><ele>50.333333333333336</ele><time>2026-04-19T16:43:25Z</time></trkpt><trkpt lat="41.5502504254028" lon="15.501376899965136"><ele>50.66666666666667</ele><time>2026-04-19T16:43:26Z</time></trkpt><trkpt lat="41.55009318647589" lon="15.50138914433234"><ele>51.0</ele><time>2026-04-19T16:43:27Z</time></trkpt><trkpt lat="41.54993582729309" lon="15.501408549998612"><ele>51.0</ele><time>2026-04-19T16:43:28Z</time></trkpt><trkpt lat="41.54977360374809" lon="15.501432343553937"><ele>51.0</ele><time>2026-04-19T16:43:29Z</time></trkpt><trkpt lat="41.54961534093359" lon="15.501450008465651"><ele>51.0</ele><time>2026-04-19T16:43:30Z</time></trkpt><trkpt lat="41.54945766173646" lon="15.501468586295962"><ele>51.66666666666667</ele><time>2026-04-19T16:43:31Z</time></trkpt><trkpt lat="41.54930103163662" lon="15.501491681677345"><ele>52.333333333333336</ele><time>2026-04-19T16:43:32Z</time></trkpt><trkpt lat="41.54914349291932" lon="15.501514384032701"><ele>53.0</ele><time>2026-04-19T16:43:33Z</time></trkpt><trkpt lat="41.54898854057831" lon="15.50153321608282"><ele>53.0</ele><time>2026-04-19T16:43:34Z</time></trkpt><trkpt lat="41.54882866524655" lon="15.501551599018528"><ele>53.0</ele><time>2026-04-19T16:43:35Z</time></trkpt><trkpt lat="41.548676542698836" lon="15.501571530266972"><ele>53.0</ele><time>2026-04-19T16:43:36Z</time></trkpt><trkpt lat="41.54851653358189" lon="15.501592687768907"><ele>53.0</ele><time>2026-04-19T16:43:37Z</time></trkpt><trkpt lat="41.54836420283146" lon="15.501613082832238"><ele>53.0</ele><time>2026-04-19T16:43:38Z</time></trkpt><trkpt lat="41.54819860129915" lon="15.501634589082094"><ele>53.0</ele><time>2026-04-19T16:43:39Z</time></trkpt><trkpt lat="41.548039160455446" lon="15.501656457999468"><ele>53.0</ele><time>2026-04-19T16:43:40Z</time></trkpt><trkpt lat="41.54789225945598" lon="15.50167713110788"><ele>53.0</ele><time>2026-04-19T16:43:41Z</time></trkpt><trkpt lat="41.54774927130271" lon="15.50169770493463"><ele>53.0</ele><time>2026-04-19T16:43:42Z</time></trkpt><trkpt lat="41.547608002937515" lon="15.501717467446902"><ele>53.0</ele><time>2026-04-19T16:43:43Z</time></trkpt><trkpt lat="41.547463766071175" lon="15.50173640179815"><ele>53.0</ele><time>2026-04-19T16:43:44Z</time></trkpt><trkpt lat="41.547320101882036" lon="15.501753121657073"><ele>53.0</ele><time>2026-04-19T16:43:45Z</time></trkpt><trkpt lat="41.547172698232764" lon="15.50177046348975"><ele>53.0</ele><time>2026-04-19T16:43:46Z</time></trkpt><trkpt lat="41.5470264867481" lon="15.50178985922718"><ele>53.0</ele><time>2026-04-19T16:43:47Z</time></trkpt><trkpt lat="41.54686960164589" lon="15.501808683035453"><ele>53.0</ele><time>2026-04-19T16:43:48Z</time></trkpt><trkpt lat="41.5467185492863" lon="15.501826641885224"><ele>53.0</ele><time>2026-04-19T16:43:49Z</time></trkpt><trkpt lat="41.54656279947897" lon="15.501845407604868"><ele>53.0</ele><time>2026-04-19T16:43:50Z</time></trkpt><trkpt lat="41.5464102465255" lon="15.501868872839802"><ele>53.0</ele><time>2026-04-19T16:43:51Z</time></trkpt><trkpt lat="41.546252082952236" lon="15.501890991714705"><ele>53.0</ele><time>2026-04-19T16:43:52Z</time></trkpt><trkpt lat="41.54609630890952" lon="15.501912607588313"><ele>53.0</ele><time>2026-04-19T16:43:53Z</time></trkpt><trkpt lat="41.54594023287605" lon="15.50193389336993"><ele>53.0</ele><time>2026-04-19T16:43:54Z</time></trkpt><trkpt lat="41.545791071722256" lon="15.50195493640335"><ele>53.0</ele><time>2026-04-19T16:43:55Z</time></trkpt><trkpt lat="41.545641004799926" lon="15.501975135567085"><ele>53.0</ele><time>2026-04-19T16:43:56Z</time></trkpt><trkpt lat="41.54549509382254" lon="15.501997106759843"><ele>53.0</ele><time>2026-04-19T16:43:57Z</time></trkpt><trkpt lat="41.54534755425" lon="15.502011392345729"><ele>53.0</ele><time>2026-04-19T16:43:58Z</time></trkpt><trkpt lat="41.54519723722605" lon="15.502029461553569"><ele>53.0</ele><time>2026-04-19T16:43:59Z</time></trkpt><trkpt lat="41.54504315008423" lon="15.502046728759932"><ele>53.0</ele><time>2026-04-19T16:44:00Z</time></trkpt><trkpt lat="41.544890388671725" lon="15.502067002676448"><ele>53.0</ele><time>2026-04-19T16:44:01Z</time></trkpt><trkpt lat="41.54473640678682" lon="15.502087967783028"><ele>53.0</ele><time>2026-04-19T16:44:02Z</time></trkpt><trkpt lat="41.54457443101938" lon="15.50210888296557"><ele>53.0</ele><time>2026-04-19T16:44:03Z</time></trkpt><trkpt lat="41.54441974742063" lon="15.502131898801567"><ele>52.66666666666667</ele><time>2026-04-19T16:44:04Z</time></trkpt><trkpt lat="41.544269131898545" lon="15.502152361826008"><ele>52.33333333333333</ele><time>2026-04-19T16:44:05Z</time></trkpt><trkpt lat="41.54410905970648" lon="15.50216984255197"><ele>52.0</ele><time>2026-04-19T16:44:06Z</time></trkpt><trkpt lat="41.54394896120793" lon="15.50218655200226"><ele>52.0</ele><time>2026-04-19T16:44:07Z</time></trkpt><trkpt lat="41.54379274959648" lon="15.502206153321874"><ele>52.0</ele><time>2026-04-19T16:44:08Z</time></trkpt><trkpt lat="41.543644049422376" lon="15.502225098226502"><ele>52.0</ele><time>2026-04-19T16:44:09Z</time></trkpt><trkpt lat="41.543488631861614" lon="15.502249854136371"><ele>51.666666666666664</ele><time>2026-04-19T16:44:10Z</time></trkpt><trkpt lat="41.5433328309036" lon="15.502273815105282"><ele>51.33333333333333</ele><time>2026-04-19T16:44:11Z</time></trkpt><trkpt lat="41.54318407429365" lon="15.50228910533746"><ele>51.0</ele><time>2026-04-19T16:44:12Z</time></trkpt><trkpt lat="41.543036161354756" lon="15.502307998921554"><ele>51.0</ele><time>2026-04-19T16:44:13Z</time></trkpt><trkpt lat="41.54288600622752" lon="15.50233041490732"><ele>51.0</ele><time>2026-04-19T16:44:14Z</time></trkpt><trkpt lat="41.542736588369465" lon="15.502348323744751"><ele>51.0</ele><time>2026-04-19T16:44:15Z</time></trkpt><trkpt lat="41.542584029210296" lon="15.502368894503453"><ele>51.66666666666667</ele><time>2026-04-19T16:44:16Z</time></trkpt><trkpt lat="41.54243375427246" lon="15.502387432519479"><ele>52.333333333333336</ele><time>2026-04-19T16:44:17Z</time></trkpt><trkpt lat="41.54227827955164" lon="15.502410261148407"><ele>53.0</ele><time>2026-04-19T16:44:18Z</time></trkpt><trkpt lat="41.54212409007005" lon="15.502425858102402"><ele>53.333333333333336</ele><time>2026-04-19T16:44:19Z</time></trkpt><trkpt lat="41.541970547211335" lon="15.502441018284072"><ele>53.66666666666667</ele><time>2026-04-19T16:44:20Z</time></trkpt><trkpt lat="41.54181569335159" lon="15.502467214132453"><ele>54.0</ele><time>2026-04-19T16:44:21Z</time></trkpt><trkpt lat="41.54165527392619" lon="15.502493043879703"><ele>54.0</ele><time>2026-04-19T16:44:22Z</time></trkpt><trkpt lat="41.541502919737894" lon="15.502506563567131"><ele>54.0</ele><time>2026-04-19T16:44:23Z</time></trkpt><trkpt lat="41.54134117250517" lon="15.502532167903208"><ele>54.0</ele><time>2026-04-19T16:44:24Z</time></trkpt><trkpt lat="41.5411869031761" lon="15.502550427685833"><ele>54.33333333333333</ele><time>2026-04-19T16:44:25Z</time></trkpt><trkpt lat="41.5410344133159" lon="15.50257146658797"><ele>54.666666666666664</ele><time>2026-04-19T16:44:26Z</time></trkpt><trkpt lat="41.54087481339391" lon="15.502594154031444"><ele>55.0</ele><time>2026-04-19T16:44:27Z</time></trkpt><trkpt lat="41.5407205205623" lon="15.50261604215316"><ele>55.0</ele><time>2026-04-19T16:44:28Z</time></trkpt><trkpt lat="41.54057310290428" lon="15.50263263145555"><ele>55.0</ele><time>2026-04-19T16:44:29Z</time></trkpt><trkpt lat="41.54042188680099" lon="15.502650016750176"><ele>55.0</ele><time>2026-04-19T16:44:30Z</time></trkpt><trkpt lat="41.540267348026816" lon="15.502670370077327"><ele>54.666666666666664</ele><time>2026-04-19T16:44:31Z</time></trkpt><trkpt lat="41.540119054556136" lon="15.502691803366519"><ele>54.33333333333333</ele><time>2026-04-19T16:44:32Z</time></trkpt><trkpt lat="41.53995721083563" lon="15.502719811087982"><ele>54.0</ele><time>2026-04-19T16:44:33Z</time></trkpt><trkpt lat="41.53981826522022" lon="15.502729418811724"><ele>54.0</ele><time>2026-04-19T16:44:34Z</time></trkpt><trkpt lat="41.539669770931155" lon="15.502751993366928"><ele>54.0</ele><time>2026-04-19T16:44:35Z</time></trkpt><trkpt lat="41.53951592245731" lon="15.502774553122194"><ele>54.0</ele><time>2026-04-19T16:44:36Z</time></trkpt><trkpt lat="41.539370064033506" lon="15.50279512215921"><ele>54.0</ele><time>2026-04-19T16:44:37Z</time></trkpt><trkpt lat="41.539215358098865" lon="15.502816178658565"><ele>54.0</ele><time>2026-04-19T16:44:38Z</time></trkpt><trkpt lat="41.53905535208102" lon="15.50283704845199"><ele>54.0</ele><time>2026-04-19T16:44:39Z</time></trkpt><trkpt lat="41.53890125071606" lon="15.502850399850127"><ele>54.0</ele><time>2026-04-19T16:44:40Z</time></trkpt><trkpt lat="41.53874051526156" lon="15.502871144626917"><ele>54.0</ele><time>2026-04-19T16:44:41Z</time></trkpt><trkpt lat="41.53858124470353" lon="15.502894103091846"><ele>54.0</ele><time>2026-04-19T16:44:42Z</time></trkpt><trkpt lat="41.538423550083884" lon="15.502915430363274"><ele>53.66666666666667</ele><time>2026-04-19T16:44:43Z</time></trkpt><trkpt lat="41.5382657267493" lon="15.502935183925798"><ele>53.333333333333336</ele><time>2026-04-19T16:44:44Z</time></trkpt><trkpt lat="41.53810979231901" lon="15.502956707511004"><ele>53.0</ele><time>2026-04-19T16:44:45Z</time></trkpt><trkpt lat="41.53795899123065" lon="15.50298008734811"><ele>53.333333333333336</ele><time>2026-04-19T16:44:46Z</time></trkpt><trkpt lat="41.53780714421849" lon="15.503006340636881"><ele>53.66666666666667</ele><time>2026-04-19T16:44:47Z</time></trkpt><trkpt lat="41.53765654030548" lon="15.50302845151801"><ele>54.0</ele><time>2026-04-19T16:44:48Z</time></trkpt><trkpt lat="41.53749950546588" lon="15.503048965855932"><ele>54.0</ele><time>2026-04-19T16:44:49Z</time></trkpt><trkpt lat="41.53733795884326" lon="15.503064903504354"><ele>54.0</ele><time>2026-04-19T16:44:50Z</time></trkpt><trkpt lat="41.537177731945384" lon="15.503081553316992"><ele>54.0</ele><time>2026-04-19T16:44:51Z</time></trkpt><trkpt lat="41.53702369560628" lon="15.503103685838798"><ele>54.33333333333333</ele><time>2026-04-19T16:44:52Z</time></trkpt><trkpt lat="41.53686255910965" lon="15.503131329913149"><ele>54.666666666666664</ele><time>2026-04-19T16:44:53Z</time></trkpt><trkpt lat="41.536702122098646" lon="15.503151928906442"><ele>55.0</ele><time>2026-04-19T16:44:54Z</time></trkpt><trkpt lat="41.53654045521118" lon="15.503167600088899"><ele>55.0</ele><time>2026-04-19T16:44:55Z</time></trkpt><trkpt lat="41.53637515498888" lon="15.503182432080397"><ele>55.0</ele><time>2026-04-19T16:44:56Z</time></trkpt><trkpt lat="41.53621145829275" lon="15.503201835952318"><ele>55.0</ele><time>2026-04-19T16:44:57Z</time></trkpt><trkpt lat="41.53605171483429" lon="15.503226006874634"><ele>55.33333333333333</ele><time>2026-04-19T16:44:58Z</time></trkpt><trkpt lat="41.53589661357905" lon="15.503251619927694"><ele>55.66666666666667</ele><time>2026-04-19T16:44:59Z</time></trkpt><trkpt lat="41.53574454188041" lon="15.503272254920272"><ele>56.0</ele><time>2026-04-19T16:45:00Z</time></trkpt><trkpt lat="41.53558555413377" lon="15.50329655656954"><ele>56.0</ele><time>2026-04-19T16:45:01Z</time></trkpt><trkpt lat="41.53542958207127" lon="15.503318280832037"><ele>56.0</ele><time>2026-04-19T16:45:02Z</time></trkpt><trkpt lat="41.53527297723358" lon="15.503337361311013"><ele>56.0</ele><time>2026-04-19T16:45:03Z</time></trkpt><trkpt lat="41.53511517301618" lon="15.50335670768452"><ele>55.75</ele><time>2026-04-19T16:45:04Z</time></trkpt><trkpt lat="41.5349679443448" lon="15.503375462485202"><ele>55.5</ele><time>2026-04-19T16:45:05Z</time></trkpt><trkpt lat="41.53482217707731" lon="15.503393312803533"><ele>55.25</ele><time>2026-04-19T16:45:06Z</time></trkpt><trkpt lat="41.53467507035812" lon="15.50341131760157"><ele>55.0</ele><time>2026-04-19T16:45:07Z</time></trkpt><trkpt lat="41.534522852651484" lon="15.503435989264561"><ele>55.0</ele><time>2026-04-19T16:45:08Z</time></trkpt><trkpt lat="41.534378420677704" lon="15.503456045380501"><ele>55.0</ele><time>2026-04-19T16:45:09Z</time></trkpt><trkpt lat="41.534230714622" lon="15.50347573020931"><ele>55.0</ele><time>2026-04-19T16:45:10Z</time></trkpt><trkpt lat="41.5340831711562" lon="15.50349242608838"><ele>55.0</ele><time>2026-04-19T16:45:11Z</time></trkpt><trkpt lat="41.53393010537346" lon="15.503511978042033"><ele>55.0</ele><time>2026-04-19T16:45:12Z</time></trkpt><trkpt lat="41.5337854574746" lon="15.503535007646644"><ele>55.0</ele><time>2026-04-19T16:45:13Z</time></trkpt><trkpt lat="41.533628176144006" lon="15.503556105219879"><ele>55.0</ele><time>2026-04-19T16:45:14Z</time></trkpt><trkpt lat="41.533471092859486" lon="15.503577803634554"><ele>55.33333333333333</ele><time>2026-04-19T16:45:15Z</time></trkpt><trkpt lat="41.533309204331424" lon="15.503599907994216"><ele>55.66666666666667</ele><time>2026-04-19T16:45:16Z</time></trkpt><trkpt lat="41.5331419289904" lon="15.503623437666167"><ele>56.0</ele><time>2026-04-19T16:45:17Z</time></trkpt><trkpt lat="41.53297220591478" lon="15.503645809551045"><ele>56.0</ele><time>2026-04-19T16:45:18Z</time></trkpt><trkpt lat="41.53281511716778" lon="15.503668950117014"><ele>56.0</ele><time>2026-04-19T16:45:19Z</time></trkpt><trkpt lat="41.53265922431116" lon="15.503691551587131"><ele>56.0</ele><time>2026-04-19T16:45:20Z</time></trkpt><trkpt lat="41.53249994102386" lon="15.503711974643048"><ele>56.0</ele><time>2026-04-19T16:45:21Z</time></trkpt><trkpt lat="41.53234602724035" lon="15.50373185126146"><ele>56.0</ele><time>2026-04-19T16:45:22Z</time></trkpt><trkpt lat="41.532186049941444" lon="15.503753163683703"><ele>56.0</ele><time>2026-04-19T16:45:23Z</time></trkpt><trkpt lat="41.532027272593716" lon="15.503771747085167"><ele>56.66666666666667</ele><time>2026-04-19T16:45:24Z</time></trkpt><trkpt lat="41.531872853310844" lon="15.503792828557245"><ele>57.33333333333333</ele><time>2026-04-19T16:45:25Z</time></trkpt><trkpt lat="41.53171692457057" lon="15.503815759696987"><ele>58.0</ele><time>2026-04-19T16:45:26Z</time></trkpt><trkpt lat="41.53156486591374" lon="15.503835644609605"><ele>58.0</ele><time>2026-04-19T16:45:27Z</time></trkpt><trkpt lat="41.531409750522485" lon="15.503855691124254"><ele>58.0</ele><time>2026-04-19T16:45:28Z</time></trkpt><trkpt lat="41.53125307031152" lon="15.503876537982254"><ele>58.0</ele><time>2026-04-19T16:45:29Z</time></trkpt><trkpt lat="41.53109729923722" lon="15.503896953221949"><ele>57.33333333333333</ele><time>2026-04-19T16:45:30Z</time></trkpt><trkpt lat="41.530948472727445" lon="15.50391498045863"><ele>56.66666666666667</ele><time>2026-04-19T16:45:31Z</time></trkpt><trkpt lat="41.53079325880011" lon="15.5039341974204"><ele>56.0</ele><time>2026-04-19T16:45:32Z</time></trkpt><trkpt lat="41.53063795097801" lon="15.5039569765452"><ele>56.0</ele><time>2026-04-19T16:45:33Z</time></trkpt><trkpt lat="41.530483510358714" lon="15.503976727452262"><ele>56.0</ele><time>2026-04-19T16:45:34Z</time></trkpt><trkpt lat="41.53032651519496" lon="15.503996805786175"><ele>56.0</ele><time>2026-04-19T16:45:35Z</time></trkpt><trkpt lat="41.530171073569136" lon="15.504018051122623"><ele>56.0</ele><time>2026-04-19T16:45:36Z</time></trkpt><trkpt lat="41.53001514908984" lon="15.504038972383421"><ele>56.0</ele><time>2026-04-19T16:45:37Z</time></trkpt><trkpt lat="41.529862212038196" lon="15.504060648245916"><ele>56.0</ele><time>2026-04-19T16:45:38Z</time></trkpt><trkpt lat="41.529699472341186" lon="15.504083415769843"><ele>56.0</ele><time>2026-04-19T16:45:39Z</time></trkpt><trkpt lat="41.52954275770847" lon="15.504104853405318"><ele>56.0</ele><time>2026-04-19T16:45:40Z</time></trkpt><trkpt lat="41.52938315682241" lon="15.504128338701532"><ele>56.0</ele><time>2026-04-19T16:45:41Z</time></trkpt><trkpt lat="41.5292290586625" lon="15.504148269187926"><ele>56.0</ele><time>2026-04-19T16:45:42Z</time></trkpt><trkpt lat="41.52907279279803" lon="15.504169313876785"><ele>56.0</ele><time>2026-04-19T16:45:43Z</time></trkpt><trkpt lat="41.52891369053041" lon="15.504188586709537"><ele>56.0</ele><time>2026-04-19T16:45:44Z</time></trkpt><trkpt lat="41.52875734114898" lon="15.504205132402406"><ele>55.66666666666667</ele><time>2026-04-19T16:45:45Z</time></trkpt><trkpt lat="41.52859188978386" lon="15.50422679426271"><ele>55.33333333333333</ele><time>2026-04-19T16:45:46Z</time></trkpt><trkpt lat="41.52843219988783" lon="15.504249776675747"><ele>55.0</ele><time>2026-04-19T16:45:47Z</time></trkpt><trkpt lat="41.528273792677496" lon="15.504273296515104"><ele>55.0</ele><time>2026-04-19T16:45:48Z</time></trkpt><trkpt lat="41.52811571848088" lon="15.504296880901254"><ele>55.0</ele><time>2026-04-19T16:45:49Z</time></trkpt><trkpt lat="41.52796479974305" lon="15.504320668216792"><ele>55.0</ele><time>2026-04-19T16:45:50Z</time></trkpt><trkpt lat="41.52780809990803" lon="15.5043415965683"><ele>55.0</ele><time>2026-04-19T16:45:51Z</time></trkpt><trkpt lat="41.527653849192156" lon="15.504360393760326"><ele>55.0</ele><time>2026-04-19T16:45:52Z</time></trkpt><trkpt lat="41.527499833707125" lon="15.504380790178748"><ele>55.0</ele><time>2026-04-19T16:45:53Z</time></trkpt><trkpt lat="41.527344761095556" lon="15.504403066562341"><ele>55.0</ele><time>2026-04-19T16:45:54Z</time></trkpt><trkpt lat="41.527194346765306" lon="15.504422581206596"><ele>55.0</ele><time>2026-04-19T16:45:55Z</time></trkpt><trkpt lat="41.527042259943464" lon="15.504443152532838"><ele>55.0</ele><time>2026-04-19T16:45:56Z</time></trkpt><trkpt lat="41.52688913425178" lon="15.50446605717138"><ele>55.0</ele><time>2026-04-19T16:45:57Z</time></trkpt><trkpt lat="41.52673958752867" lon="15.504490326233864"><ele>55.0</ele><time>2026-04-19T16:45:58Z</time></trkpt><trkpt lat="41.52658656586517" lon="15.50451130553029"><ele>55.0</ele><time>2026-04-19T16:45:59Z</time></trkpt><trkpt lat="41.526430161067104" lon="15.504529117313758"><ele>55.0</ele><time>2026-04-19T16:46:00Z</time></trkpt><trkpt lat="41.52628198854635" lon="15.50454858228674"><ele>55.0</ele><time>2026-04-19T16:46:01Z</time></trkpt><trkpt lat="41.52612895928631" lon="15.504581276031509"><ele>55.0</ele><time>2026-04-19T16:46:02Z</time></trkpt><trkpt lat="41.52597504438384" lon="15.504628833376982"><ele>55.33333333333333</ele><time>2026-04-19T16:46:03Z</time></trkpt><trkpt lat="41.52582244779138" lon="15.504679664306206"><ele>55.66666666666667</ele><time>2026-04-19T16:46:04Z</time></trkpt><trkpt lat="41.52566929529005" lon="15.504734946292217"><ele>56.0</ele><time>2026-04-19T16:46:05Z</time></trkpt><trkpt lat="41.525518016076" lon="15.504799567842555"><ele>56.333333333333336</ele><time>2026-04-19T16:46:06Z</time></trkpt><trkpt lat="41.52537269318529" lon="15.504872662939352"><ele>56.66666666666667</ele><time>2026-04-19T16:46:07Z</time></trkpt><trkpt lat="41.52522323167772" lon="15.504951234099163"><ele>57.0</ele><time>2026-04-19T16:46:08Z</time></trkpt><trkpt lat="41.5250833000862" lon="15.505025395427959"><ele>57.0</ele><time>2026-04-19T16:46:09Z</time></trkpt><trkpt lat="41.52494612376872" lon="15.505098396090554"><ele>57.0</ele><time>2026-04-19T16:46:10Z</time></trkpt><trkpt lat="41.524807546293324" lon="15.505171726487562"><ele>57.0</ele><time>2026-04-19T16:46:11Z</time></trkpt><trkpt lat="41.5246673870395" lon="15.505246168965433"><ele>57.0</ele><time>2026-04-19T16:46:12Z</time></trkpt><trkpt lat="41.52452857303341" lon="15.505320479115365"><ele>56.5</ele><time>2026-04-19T16:46:13Z</time></trkpt><trkpt lat="41.52439350454596" lon="15.50539281527862"><ele>56.0</ele><time>2026-04-19T16:46:14Z</time></trkpt><trkpt lat="41.52425446338904" lon="15.50546730658495"><ele>55.5</ele><time>2026-04-19T16:46:15Z</time></trkpt><trkpt lat="41.52411356579421" lon="15.50554558897327"><ele>55.0</ele><time>2026-04-19T16:46:16Z</time></trkpt><trkpt lat="41.52397590828288" lon="15.505620940201345"><ele>55.0</ele><time>2026-04-19T16:46:17Z</time></trkpt><trkpt lat="41.52383167366749" lon="15.505691901857993"><ele>55.0</ele><time>2026-04-19T16:46:18Z</time></trkpt><trkpt lat="41.52368695223331" lon="15.505768518009656"><ele>55.0</ele><time>2026-04-19T16:46:19Z</time></trkpt><trkpt lat="41.52354775706213" lon="15.50584814031414"><ele>55.666666666666664</ele><time>2026-04-19T16:46:20Z</time></trkpt><trkpt lat="41.52340134633714" lon="15.505927104194885"><ele>56.33333333333333</ele><time>2026-04-19T16:46:21Z</time></trkpt><trkpt lat="41.52325873288349" lon="15.50600386807361"><ele>57.0</ele><time>2026-04-19T16:46:22Z</time></trkpt><trkpt lat="41.52311186336759" lon="15.506081212961563"><ele>57.0</ele><time>2026-04-19T16:46:23Z</time></trkpt><trkpt lat="41.5229566146351" lon="15.50615862061329"><ele>57.0</ele><time>2026-04-19T16:46:24Z</time></trkpt><trkpt lat="41.52281263570133" lon="15.506232440544135"><ele>57.0</ele><time>2026-04-19T16:46:25Z</time></trkpt><trkpt lat="41.52266822480861" lon="15.506304671139759"><ele>57.0</ele><time>2026-04-19T16:46:26Z</time></trkpt><trkpt lat="41.522526314831055" lon="15.506378102459177"><ele>57.0</ele><time>2026-04-19T16:46:27Z</time></trkpt><trkpt lat="41.522385146630235" lon="15.506449585921624"><ele>57.0</ele><time>2026-04-19T16:46:28Z</time></trkpt><trkpt lat="41.52224327573103" lon="15.506521478235436"><ele>57.0</ele><time>2026-04-19T16:46:29Z</time></trkpt><trkpt lat="41.52210338181219" lon="15.50659254209366"><ele>57.0</ele><time>2026-04-19T16:46:30Z</time></trkpt><trkpt lat="41.52196309500499" lon="15.506665194417632"><ele>57.0</ele><time>2026-04-19T16:46:31Z</time></trkpt><trkpt lat="41.52182492790183" lon="15.50673771447129"><ele>57.0</ele><time>2026-04-19T16:46:32Z</time></trkpt><trkpt lat="41.521685295199006" lon="15.506809988978207"><ele>57.33333333333333</ele><time>2026-04-19T16:46:33Z</time></trkpt><trkpt lat="41.52154496415545" lon="15.506886649987663"><ele>57.666666666666664</ele><time>2026-04-19T16:46:34Z</time></trkpt><trkpt lat="41.52140818944659" lon="15.506964257997854"><ele>58.0</ele><time>2026-04-19T16:46:35Z</time></trkpt><trkpt lat="41.52125573752457" lon="15.507038842400133"><ele>57.666666666666664</ele><time>2026-04-19T16:46:36Z</time></trkpt><trkpt lat="41.52110450115041" lon="15.507114906398957"><ele>57.33333333333333</ele><time>2026-04-19T16:46:37Z</time></trkpt><trkpt lat="41.520955177047554" lon="15.507194819826312"><ele>57.0</ele><time>2026-04-19T16:46:38Z</time></trkpt><trkpt lat="41.52080288680608" lon="15.507275567304804"><ele>57.0</ele><time>2026-04-19T16:46:39Z</time></trkpt><trkpt lat="41.520657317563554" lon="15.507351243272197"><ele>57.0</ele><time>2026-04-19T16:46:40Z</time></trkpt><trkpt lat="41.52051350858644" lon="15.507426317951882"><ele>57.0</ele><time>2026-04-19T16:46:41Z</time></trkpt><trkpt lat="41.52037665432313" lon="15.507501708539255"><ele>57.0</ele><time>2026-04-19T16:46:42Z</time></trkpt><trkpt lat="41.52023511717365" lon="15.507575985299136"><ele>57.0</ele><time>2026-04-19T16:46:43Z</time></trkpt><trkpt lat="41.52009331774165" lon="15.507649179527894"><ele>57.0</ele><time>2026-04-19T16:46:44Z</time></trkpt><trkpt lat="41.519953141661986" lon="15.5077219743599"><ele>57.0</ele><time>2026-04-19T16:46:45Z</time></trkpt><trkpt lat="41.5198150973065" lon="15.507796942117002"><ele>57.0</ele><time>2026-04-19T16:46:46Z</time></trkpt><trkpt lat="41.5196681599576" lon="15.507868714165632"><ele>57.0</ele><time>2026-04-19T16:46:47Z</time></trkpt><trkpt lat="41.51951997185262" lon="15.507942215006729"><ele>57.0</ele><time>2026-04-19T16:46:48Z</time></trkpt><trkpt lat="41.519378824526484" lon="15.508017042917958"><ele>57.0</ele><time>2026-04-19T16:46:49Z</time></trkpt><trkpt lat="41.519237190312836" lon="15.50809708734673"><ele>57.0</ele><time>2026-04-19T16:46:50Z</time></trkpt><trkpt lat="41.51909802480315" lon="15.508172928224706"><ele>57.0</ele><time>2026-04-19T16:46:51Z</time></trkpt><trkpt lat="41.51895316911341" lon="15.508246854398546"><ele>57.0</ele><time>2026-04-19T16:46:52Z</time></trkpt><trkpt lat="41.51880871962645" lon="15.508319694728556"><ele>57.0</ele><time>2026-04-19T16:46:53Z</time></trkpt><trkpt lat="41.51865899755749" lon="15.508395147355738"><ele>57.0</ele><time>2026-04-19T16:46:54Z</time></trkpt><trkpt lat="41.51850517996902" lon="15.508476345803926"><ele>57.0</ele><time>2026-04-19T16:46:55Z</time></trkpt><trkpt lat="41.518358730327606" lon="15.508555743507964"><ele>57.0</ele><time>2026-04-19T16:46:56Z</time></trkpt><trkpt lat="41.51820842455795" lon="15.508635408015103"><ele>57.0</ele><time>2026-04-19T16:46:57Z</time></trkpt><trkpt lat="41.51806555410142" lon="15.508710460386743"><ele>57.0</ele><time>2026-04-19T16:46:58Z</time></trkpt><trkpt lat="41.51791408886407" lon="15.508790071550068"><ele>57.0</ele><time>2026-04-19T16:46:59Z</time></trkpt><trkpt lat="41.51776386449537" lon="15.508868521342038"><ele>56.66666666666667</ele><time>2026-04-19T16:47:00Z</time></trkpt><trkpt lat="41.51761417425357" lon="15.5089487725307"><ele>56.333333333333336</ele><time>2026-04-19T16:47:01Z</time></trkpt><trkpt lat="41.517462365742865" lon="15.509027469323785"><ele>56.0</ele><time>2026-04-19T16:47:02Z</time></trkpt><trkpt lat="41.51731019433685" lon="15.509103528726046"><ele>56.0</ele><time>2026-04-19T16:47:03Z</time></trkpt><trkpt lat="41.51715501124095" lon="15.509179372026772"><ele>56.0</ele><time>2026-04-19T16:47:04Z</time></trkpt><trkpt lat="41.5170052060336" lon="15.50925467360981"><ele>56.0</ele><time>2026-04-19T16:47:05Z</time></trkpt><trkpt lat="41.51685899394001" lon="15.50933178443743"><ele>55.66666666666667</ele><time>2026-04-19T16:47:06Z</time></trkpt><trkpt lat="41.516707814893884" lon="15.509415613623958"><ele>55.33333333333333</ele><time>2026-04-19T16:47:07Z</time></trkpt><trkpt lat="41.5165623064463" lon="15.509495333697025"><ele>55.0</ele><time>2026-04-19T16:47:08Z</time></trkpt><trkpt lat="41.5164152521549" lon="15.509570542393666"><ele>55.0</ele><time>2026-04-19T16:47:09Z</time></trkpt><trkpt lat="41.51627299509358" lon="15.509640715062039"><ele>55.0</ele><time>2026-04-19T16:47:10Z</time></trkpt><trkpt lat="41.51612999620567" lon="15.50971240332427"><ele>55.0</ele><time>2026-04-19T16:47:11Z</time></trkpt><trkpt lat="41.515991070517714" lon="15.509785111671308"><ele>55.0</ele><time>2026-04-19T16:47:12Z</time></trkpt><trkpt lat="41.51585165549145" lon="15.509855415193423"><ele>55.0</ele><time>2026-04-19T16:47:13Z</time></trkpt><trkpt lat="41.51571166911914" lon="15.50993007355058"><ele>55.0</ele><time>2026-04-19T16:47:14Z</time></trkpt><trkpt lat="41.515564008202304" lon="15.510006641272563"><ele>55.0</ele><time>2026-04-19T16:47:15Z</time></trkpt><trkpt lat="41.515418397435404" lon="15.510089685134623"><ele>55.0</ele><time>2026-04-19T16:47:16Z</time></trkpt><trkpt lat="41.515273306611185" lon="15.510166602551498"><ele>55.0</ele><time>2026-04-19T16:47:17Z</time></trkpt><trkpt lat="41.51512137723914" lon="15.510242802620981"><ele>55.0</ele><time>2026-04-19T16:47:18Z</time></trkpt><trkpt lat="41.51497076078566" lon="15.510317887754612"><ele>55.0</ele><time>2026-04-19T16:47:19Z</time></trkpt><trkpt lat="41.514825463385655" lon="15.510396122665588"><ele>55.0</ele><time>2026-04-19T16:47:20Z</time></trkpt><trkpt lat="41.514676364862716" lon="15.510480355547624"><ele>55.33333333333333</ele><time>2026-04-19T16:47:21Z</time></trkpt><trkpt lat="41.514533242528465" lon="15.510551638569721"><ele>55.66666666666667</ele><time>2026-04-19T16:47:22Z</time></trkpt><trkpt lat="41.51438858170554" lon="15.510624838451669"><ele>56.0</ele><time>2026-04-19T16:47:23Z</time></trkpt><trkpt lat="41.51424116476962" lon="15.510701285703531"><ele>56.0</ele><time>2026-04-19T16:47:24Z</time></trkpt><trkpt lat="41.51409227268275" lon="15.510779637332865"><ele>56.0</ele><time>2026-04-19T16:47:25Z</time></trkpt><trkpt lat="41.51394989835852" lon="15.510852700996399"><ele>56.0</ele><time>2026-04-19T16:47:26Z</time></trkpt><trkpt lat="41.513800360370396" lon="15.510934416451331"><ele>56.333333333333336</ele><time>2026-04-19T16:47:27Z</time></trkpt><trkpt lat="41.51365296711397" lon="15.511013574867457"><ele>56.66666666666667</ele><time>2026-04-19T16:47:28Z</time></trkpt><trkpt lat="41.51350185326919" lon="15.511091713769048"><ele>57.0</ele><time>2026-04-19T16:47:29Z</time></trkpt><trkpt lat="41.513354922444556" lon="15.511162597159867"><ele>57.0</ele><time>2026-04-19T16:47:30Z</time></trkpt><trkpt lat="41.51320685044927" lon="15.511235148210142"><ele>57.0</ele><time>2026-04-19T16:47:31Z</time></trkpt><trkpt lat="41.51305622889088" lon="15.511313100551414"><ele>57.0</ele><time>2026-04-19T16:47:32Z</time></trkpt><trkpt lat="41.51290952051187" lon="15.511394610510107"><ele>56.66666666666667</ele><time>2026-04-19T16:47:33Z</time></trkpt><trkpt lat="41.5127602195311" lon="15.511477350975184"><ele>56.333333333333336</ele><time>2026-04-19T16:47:34Z</time></trkpt><trkpt lat="41.51261433831593" lon="15.511553876032384"><ele>56.0</ele><time>2026-04-19T16:47:35Z</time></trkpt><trkpt lat="41.51246578620381" lon="15.51162922079215"><ele>56.0</ele><time>2026-04-19T16:47:36Z</time></trkpt><trkpt lat="41.51231948107791" lon="15.511696894550994"><ele>56.0</ele><time>2026-04-19T16:47:37Z</time></trkpt><trkpt lat="41.51216939368391" lon="15.511776149971869"><ele>56.0</ele><time>2026-04-19T16:47:38Z</time></trkpt><trkpt lat="41.51202224134789" lon="15.511851027656808"><ele>56.0</ele><time>2026-04-19T16:47:39Z</time></trkpt><trkpt lat="41.511874702975284" lon="15.511933674335694"><ele>56.0</ele><time>2026-04-19T16:47:40Z</time></trkpt><trkpt lat="41.51172730114894" lon="15.512012949474993"><ele>56.0</ele><time>2026-04-19T16:47:41Z</time></trkpt><trkpt lat="41.511579163634806" lon="15.512087534419882"><ele>56.0</ele><time>2026-04-19T16:47:42Z</time></trkpt><trkpt lat="41.51143588634968" lon="15.51216099410899"><ele>56.0</ele><time>2026-04-19T16:47:43Z</time></trkpt><trkpt lat="41.51128239936152" lon="15.512241768951162"><ele>56.0</ele><time>2026-04-19T16:47:44Z</time></trkpt><trkpt lat="41.51113461854527" lon="15.512318779165602"><ele>55.66666666666667</ele><time>2026-04-19T16:47:45Z</time></trkpt><trkpt lat="41.51098695307465" lon="15.51239739857313"><ele>55.33333333333333</ele><time>2026-04-19T16:47:46Z</time></trkpt><trkpt lat="41.510844604230265" lon="15.512467822727999"><ele>55.0</ele><time>2026-04-19T16:47:47Z</time></trkpt><trkpt lat="41.51068985729782" lon="15.512543151682396"><ele>55.0</ele><time>2026-04-19T16:47:48Z</time></trkpt><trkpt lat="41.510546822901446" lon="15.51261957158077"><ele>55.0</ele><time>2026-04-19T16:47:49Z</time></trkpt><trkpt lat="41.510403951533476" lon="15.512699801652452"><ele>55.0</ele><time>2026-04-19T16:47:50Z</time></trkpt><trkpt lat="41.51025955953862" lon="15.51277986069249"><ele>55.666666666666664</ele><time>2026-04-19T16:47:51Z</time></trkpt><trkpt lat="41.510114453473015" lon="15.51285439036449"><ele>56.33333333333333</ele><time>2026-04-19T16:47:52Z</time></trkpt><trkpt lat="41.509972993838225" lon="15.51292508451257"><ele>57.0</ele><time>2026-04-19T16:47:53Z</time></trkpt><trkpt lat="41.50982680568819" lon="15.513000556372974"><ele>57.0</ele><time>2026-04-19T16:47:54Z</time></trkpt><trkpt lat="41.5096883806516" lon="15.51307522540768"><ele>57.0</ele><time>2026-04-19T16:47:55Z</time></trkpt><trkpt lat="41.50955009430079" lon="15.513149109546402"><ele>57.0</ele><time>2026-04-19T16:47:56Z</time></trkpt><trkpt lat="41.50940885842348" lon="15.513223761515972"><ele>57.33333333333333</ele><time>2026-04-19T16:47:57Z</time></trkpt><trkpt lat="41.50926935962896" lon="15.513293801629962"><ele>57.666666666666664</ele><time>2026-04-19T16:47:58Z</time></trkpt><trkpt lat="41.50912877464087" lon="15.513365458352387"><ele>58.0</ele><time>2026-04-19T16:47:59Z</time></trkpt><trkpt lat="41.50898750552425" lon="15.513440675618016"><ele>58.0</ele><time>2026-04-19T16:48:00Z</time></trkpt><trkpt lat="41.50884655316488" lon="15.51351470722919"><ele>58.0</ele><time>2026-04-19T16:48:01Z</time></trkpt><trkpt lat="41.508707909603" lon="15.513585578266689"><ele>58.0</ele><time>2026-04-19T16:48:02Z</time></trkpt><trkpt lat="41.50856461888703" lon="15.513658034566037"><ele>57.666666666666664</ele><time>2026-04-19T16:48:03Z</time></trkpt><trkpt lat="41.50841721134422" lon="15.513733925753286"><ele>57.33333333333333</ele><time>2026-04-19T16:48:04Z</time></trkpt><trkpt lat="41.50827130175677" lon="15.513808818300646"><ele>57.0</ele><time>2026-04-19T16:48:05Z</time></trkpt><trkpt lat="41.508126742052724" lon="15.513883475172204"><ele>57.0</ele><time>2026-04-19T16:48:06Z</time></trkpt><trkpt lat="41.50797438608762" lon="15.513963426282793"><ele>57.0</ele><time>2026-04-19T16:48:07Z</time></trkpt><trkpt lat="41.507830452700155" lon="15.5140374718308"><ele>57.0</ele><time>2026-04-19T16:48:08Z</time></trkpt><trkpt lat="41.50768486373584" lon="15.514112905224597"><ele>57.33333333333333</ele><time>2026-04-19T16:48:09Z</time></trkpt><trkpt lat="41.50753707544485" lon="15.514192562796305"><ele>57.666666666666664</ele><time>2026-04-19T16:48:10Z</time></trkpt><trkpt lat="41.50739031800836" lon="15.51426824145271"><ele>58.0</ele><time>2026-04-19T16:48:11Z</time></trkpt><trkpt lat="41.50724111784315" lon="15.51434653536219"><ele>58.0</ele><time>2026-04-19T16:48:12Z</time></trkpt><trkpt lat="41.50709290636195" lon="15.514425641412265"><ele>58.0</ele><time>2026-04-19T16:48:13Z</time></trkpt><trkpt lat="41.50694092984352" lon="15.514505248748984"><ele>58.0</ele><time>2026-04-19T16:48:14Z</time></trkpt><trkpt lat="41.50679337832222" lon="15.514579980487326"><ele>57.666666666666664</ele><time>2026-04-19T16:48:15Z</time></trkpt><trkpt lat="41.50665019907322" lon="15.514656002453483"><ele>57.33333333333333</ele><time>2026-04-19T16:48:16Z</time></trkpt><trkpt lat="41.506502541877964" lon="15.514733522381107"><ele>57.0</ele><time>2026-04-19T16:48:17Z</time></trkpt><trkpt lat="41.50636027790669" lon="15.51480584251226"><ele>57.33333333333333</ele><time>2026-04-19T16:48:18Z</time></trkpt><trkpt lat="41.50621559318416" lon="15.514880481595078"><ele>57.666666666666664</ele><time>2026-04-19T16:48:19Z</time></trkpt><trkpt lat="41.506070161685265" lon="15.514954138363983"><ele>58.0</ele><time>2026-04-19T16:48:20Z</time></trkpt><trkpt lat="41.505929402569166" lon="15.515028419317705"><ele>58.0</ele><time>2026-04-19T16:48:21Z</time></trkpt><trkpt lat="41.50579024757467" lon="15.515103836989963"><ele>58.0</ele><time>2026-04-19T16:48:22Z</time></trkpt><trkpt lat="41.50565042636403" lon="15.515180578950016"><ele>58.0</ele><time>2026-04-19T16:48:23Z</time></trkpt><trkpt lat="41.50551014955476" lon="15.515251081800752"><ele>58.33333333333333</ele><time>2026-04-19T16:48:24Z</time></trkpt><trkpt lat="41.505372379421374" lon="15.515324048624235"><ele>58.66666666666667</ele><time>2026-04-19T16:48:25Z</time></trkpt><trkpt lat="41.50522743025564" lon="15.515395032760289"><ele>59.0</ele><time>2026-04-19T16:48:26Z</time></trkpt><trkpt lat="41.50507815114346" lon="15.515471865319833"><ele>59.0</ele><time>2026-04-19T16:48:27Z</time></trkpt><trkpt lat="41.50493423844976" lon="15.515549196128402"><ele>59.0</ele><time>2026-04-19T16:48:28Z</time></trkpt><trkpt lat="41.50479175503267" lon="15.515625618439872"><ele>59.0</ele><time>2026-04-19T16:48:29Z</time></trkpt><trkpt lat="41.50464187647585" lon="15.515701886601073"><ele>59.333333333333336</ele><time>2026-04-19T16:48:30Z</time></trkpt><trkpt lat="41.50449202491239" lon="15.515779495888864"><ele>59.66666666666667</ele><time>2026-04-19T16:48:31Z</time></trkpt><trkpt lat="41.50435174490641" lon="15.515855877803896"><ele>60.0</ele><time>2026-04-19T16:48:32Z</time></trkpt><trkpt lat="41.50420799036703" lon="15.515933420242662"><ele>60.0</ele><time>2026-04-19T16:48:33Z</time></trkpt><trkpt lat="41.50406056644177" lon="15.516009193830248"><ele>60.0</ele><time>2026-04-19T16:48:34Z</time></trkpt><trkpt lat="41.50391463729602" lon="15.516083145675148"><ele>60.0</ele><time>2026-04-19T16:48:35Z</time></trkpt><trkpt lat="41.50377088917883" lon="15.516156639038007"><ele>60.0</ele><time>2026-04-19T16:48:36Z</time></trkpt><trkpt lat="41.50362894280831" lon="15.51623035422892"><ele>60.0</ele><time>2026-04-19T16:48:37Z</time></trkpt><trkpt lat="41.50348784073443" lon="15.516304014954809"><ele>60.0</ele><time>2026-04-19T16:48:38Z</time></trkpt><trkpt lat="41.50334233302722" lon="15.516377885471508"><ele>60.0</ele><time>2026-04-19T16:48:39Z</time></trkpt><trkpt lat="41.50320760095277" lon="15.516452610138256"><ele>60.0</ele><time>2026-04-19T16:48:40Z</time></trkpt><trkpt lat="41.50306609827515" lon="15.516506107191253"><ele>60.0</ele><time>2026-04-19T16:48:41Z</time></trkpt><trkpt lat="41.50292930511799" lon="15.516596729932699"><ele>60.0</ele><time>2026-04-19T16:48:42Z</time></trkpt><trkpt lat="41.502785340110336" lon="15.516669780768035"><ele>60.33333333333333</ele><time>2026-04-19T16:48:43Z</time></trkpt><trkpt lat="41.502642088095726" lon="15.51674401425071"><ele>60.666666666666664</ele><time>2026-04-19T16:48:44Z</time></trkpt><trkpt lat="41.502491027288144" lon="15.516827465785852"><ele>61.0</ele><time>2026-04-19T16:48:45Z</time></trkpt><trkpt lat="41.502349094180445" lon="15.516897636197653"><ele>61.0</ele><time>2026-04-19T16:48:46Z</time></trkpt><trkpt lat="41.50219416813654" lon="15.516976123783248"><ele>61.0</ele><time>2026-04-19T16:48:47Z</time></trkpt><trkpt lat="41.50204159686741" lon="15.517056924324528"><ele>61.0</ele><time>2026-04-19T16:48:48Z</time></trkpt><trkpt lat="41.50188572712351" lon="15.517140978084726"><ele>61.0</ele><time>2026-04-19T16:48:49Z</time></trkpt><trkpt lat="41.50173761795363" lon="15.517221820255315"><ele>61.0</ele><time>2026-04-19T16:48:50Z</time></trkpt><trkpt lat="41.5015878967674" lon="15.517300703576474"><ele>61.0</ele><time>2026-04-19T16:48:51Z</time></trkpt><trkpt lat="41.50144210099119" lon="15.517378713245764"><ele>61.0</ele><time>2026-04-19T16:48:52Z</time></trkpt><trkpt lat="41.50129752181848" lon="15.517454636738709"><ele>61.0</ele><time>2026-04-19T16:48:53Z</time></trkpt><trkpt lat="41.50114353668838" lon="15.517511996572784"><ele>61.0</ele><time>2026-04-19T16:48:54Z</time></trkpt><trkpt lat="41.501000410016076" lon="15.517587217242598"><ele>61.0</ele><time>2026-04-19T16:48:55Z</time></trkpt><trkpt lat="41.50086216676864" lon="15.51768270214049"><ele>61.0</ele><time>2026-04-19T16:48:56Z</time></trkpt><trkpt lat="41.5007190713498" lon="15.517756182660632"><ele>61.0</ele><time>2026-04-19T16:48:57Z</time></trkpt><trkpt lat="41.50057526944331" lon="15.517826953529303"><ele>61.0</ele><time>2026-04-19T16:48:58Z</time></trkpt><trkpt lat="41.50042754820154" lon="15.517900612943404"><ele>61.0</ele><time>2026-04-19T16:48:59Z</time></trkpt><trkpt lat="41.50028564921469" lon="15.517980178690639"><ele>61.0</ele><time>2026-04-19T16:49:00Z</time></trkpt><trkpt lat="41.50013854507753" lon="15.518040312514193"><ele>61.33333333333333</ele><time>2026-04-19T16:49:01Z</time></trkpt><trkpt lat="41.499994570857844" lon="15.518115451250639"><ele>61.66666666666667</ele><time>2026-04-19T16:49:02Z</time></trkpt><trkpt lat="41.49984935081154" lon="15.518191240168766"><ele>62.0</ele><time>2026-04-19T16:49:03Z</time></trkpt><trkpt lat="41.49971949091342" lon="15.51828224171502"><ele>62.0</ele><time>2026-04-19T16:49:04Z</time></trkpt><trkpt lat="41.499566635307794" lon="15.518360243664608"><ele>62.0</ele><time>2026-04-19T16:49:05Z</time></trkpt><trkpt lat="41.499418788381625" lon="15.518438341058198"><ele>62.0</ele><time>2026-04-19T16:49:06Z</time></trkpt><trkpt lat="41.49927013488296" lon="15.518515051672777"><ele>62.0</ele><time>2026-04-19T16:49:07Z</time></trkpt><trkpt lat="41.49912222178904" lon="15.518588406741008"><ele>62.0</ele><time>2026-04-19T16:49:08Z</time></trkpt><trkpt lat="41.49897649478041" lon="15.518662499882433"><ele>62.0</ele><time>2026-04-19T16:49:09Z</time></trkpt><trkpt lat="41.49882504314795" lon="15.518740959184045"><ele>61.66666666666667</ele><time>2026-04-19T16:49:10Z</time></trkpt><trkpt lat="41.49867730099209" lon="15.518801513295625"><ele>61.33333333333333</ele><time>2026-04-19T16:49:11Z</time></trkpt><trkpt lat="41.49852555659317" lon="15.518880114136268"><ele>61.0</ele><time>2026-04-19T16:49:12Z</time></trkpt><trkpt lat="41.49838168595359" lon="15.518977925804398"><ele>61.0</ele><time>2026-04-19T16:49:13Z</time></trkpt><trkpt lat="41.49822483775181" lon="15.519050927940125"><ele>61.0</ele><time>2026-04-19T16:49:14Z</time></trkpt><trkpt lat="41.498078240315586" lon="15.519129852311526"><ele>61.0</ele><time>2026-04-19T16:49:15Z</time></trkpt><trkpt lat="41.49792742073653" lon="15.51921129305561"><ele>61.666666666666664</ele><time>2026-04-19T16:49:16Z</time></trkpt><trkpt lat="41.49777513945265" lon="15.519294026886872"><ele>62.33333333333333</ele><time>2026-04-19T16:49:17Z</time></trkpt><trkpt lat="41.49761479547273" lon="15.519354042417117"><ele>63.0</ele><time>2026-04-19T16:49:18Z</time></trkpt><trkpt lat="41.49746527839853" lon="15.519431795421896"><ele>63.0</ele><time>2026-04-19T16:49:19Z</time></trkpt><trkpt lat="41.49732305748165" lon="15.519528235047638"><ele>63.0</ele><time>2026-04-19T16:49:20Z</time></trkpt><trkpt lat="41.497169457480425" lon="15.519602598000803"><ele>63.0</ele><time>2026-04-19T16:49:21Z</time></trkpt><trkpt lat="41.49702470146092" lon="15.519675183349952"><ele>62.33333333333333</ele><time>2026-04-19T16:49:22Z</time></trkpt><trkpt lat="41.496882156500675" lon="15.519742774207767"><ele>61.666666666666664</ele><time>2026-04-19T16:49:23Z</time></trkpt><trkpt lat="41.4967353687991" lon="15.519818936424514"><ele>61.0</ele><time>2026-04-19T16:49:24Z</time></trkpt><trkpt lat="41.49660561492732" lon="15.519892441066558"><ele>61.0</ele><time>2026-04-19T16:49:25Z</time></trkpt><trkpt lat="41.49647033670179" lon="15.519964049547358"><ele>61.0</ele><time>2026-04-19T16:49:26Z</time></trkpt><trkpt lat="41.49633163913822" lon="15.520037358559096"><ele>61.0</ele><time>2026-04-19T16:49:27Z</time></trkpt><trkpt lat="41.496198926207086" lon="15.520107899456884"><ele>61.0</ele><time>2026-04-19T16:49:28Z</time></trkpt><trkpt lat="41.49606323967548" lon="15.520179045952126"><ele>61.0</ele><time>2026-04-19T16:49:29Z</time></trkpt><trkpt lat="41.49592858227931" lon="15.520248469515922"><ele>61.0</ele><time>2026-04-19T16:49:30Z</time></trkpt><trkpt lat="41.49578720187746" lon="15.520321340269255"><ele>61.0</ele><time>2026-04-19T16:49:31Z</time></trkpt><trkpt lat="41.49564224879745" lon="15.52039701510477"><ele>61.33333333333333</ele><time>2026-04-19T16:49:32Z</time></trkpt><trkpt lat="41.49549990747097" lon="15.520472916030045"><ele>61.66666666666667</ele><time>2026-04-19T16:49:33Z</time></trkpt><trkpt lat="41.49535111826291" lon="15.520550491350939"><ele>62.0</ele><time>2026-04-19T16:49:34Z</time></trkpt><trkpt lat="41.49520758222736" lon="15.520625274939098"><ele>62.0</ele><time>2026-04-19T16:49:35Z</time></trkpt><trkpt lat="41.49505984165041" lon="15.520704174238555"><ele>62.0</ele><time>2026-04-19T16:49:36Z</time></trkpt><trkpt lat="41.49491125792127" lon="15.520784603101559"><ele>62.0</ele><time>2026-04-19T16:49:37Z</time></trkpt><trkpt lat="41.4947636617555" lon="15.52085907604611"><ele>62.0</ele><time>2026-04-19T16:49:38Z</time></trkpt><trkpt lat="41.494617319154194" lon="15.520937140303317"><ele>62.0</ele><time>2026-04-19T16:49:39Z</time></trkpt><trkpt lat="41.49447161309265" lon="15.521018196993401"><ele>62.0</ele><time>2026-04-19T16:49:40Z</time></trkpt><trkpt lat="41.49433202689824" lon="15.521097989876347"><ele>62.25</ele><time>2026-04-19T16:49:41Z</time></trkpt><trkpt lat="41.49419072096955" lon="15.521180912952744"><ele>62.5</ele><time>2026-04-19T16:49:42Z</time></trkpt><trkpt lat="41.49405522414745" lon="15.521260987104975"><ele>62.75</ele><time>2026-04-19T16:49:43Z</time></trkpt><trkpt lat="41.493924400125294" lon="15.521342690169675"><ele>63.0</ele><time>2026-04-19T16:49:44Z</time></trkpt><trkpt lat="41.49379154863223" lon="15.5214226709612"><ele>63.0</ele><time>2026-04-19T16:49:45Z</time></trkpt><trkpt lat="41.49366074159016" lon="15.52150258128907"><ele>63.0</ele><time>2026-04-19T16:49:46Z</time></trkpt><trkpt lat="41.49352328674036" lon="15.521590188364545"><ele>63.0</ele><time>2026-04-19T16:49:47Z</time></trkpt><trkpt lat="41.49338995562107" lon="15.521678617611576"><ele>63.0</ele><time>2026-04-19T16:49:48Z</time></trkpt><trkpt lat="41.49324903806392" lon="15.521749259094674"><ele>63.0</ele><time>2026-04-19T16:49:49Z</time></trkpt><trkpt lat="41.49311698409006" lon="15.521835715017671"><ele>63.0</ele><time>2026-04-19T16:49:50Z</time></trkpt><trkpt lat="41.4929825909324" lon="15.52194587384334"><ele>63.0</ele><time>2026-04-19T16:49:51Z</time></trkpt><trkpt lat="41.492849817075275" lon="15.522032160995831"><ele>62.66666666666667</ele><time>2026-04-19T16:49:52Z</time></trkpt><trkpt lat="41.49270639201372" lon="15.522125924679562"><ele>62.333333333333336</ele><time>2026-04-19T16:49:53Z</time></trkpt><trkpt lat="41.49256361025733" lon="15.522217801561188"><ele>62.0</ele><time>2026-04-19T16:49:54Z</time></trkpt><trkpt lat="41.49241594534209" lon="15.52230847420026"><ele>62.0</ele><time>2026-04-19T16:49:55Z</time></trkpt><trkpt lat="41.49227443622207" lon="15.52239357882388"><ele>62.0</ele><time>2026-04-19T16:49:56Z</time></trkpt><trkpt lat="41.49212597610719" lon="15.52247766427379"><ele>62.0</ele><time>2026-04-19T16:49:57Z</time></trkpt><trkpt lat="41.49198194117506" lon="15.522544386230518"><ele>62.66666666666667</ele><time>2026-04-19T16:49:58Z</time></trkpt><trkpt lat="41.49183451372404" lon="15.522599735080378"><ele>63.33333333333333</ele><time>2026-04-19T16:49:59Z</time></trkpt><trkpt lat="41.49167629299816" lon="15.522647629873411"><ele>64.0</ele><time>2026-04-19T16:50:00Z</time></trkpt><trkpt lat="41.491530320105106" lon="15.522686554482028"><ele>64.0</ele><time>2026-04-19T16:50:01Z</time></trkpt><trkpt lat="41.49138501967507" lon="15.52272673075278"><ele>64.0</ele><time>2026-04-19T16:50:02Z</time></trkpt><trkpt lat="41.491247526788165" lon="15.522763971605416"><ele>64.0</ele><time>2026-04-19T16:50:03Z</time></trkpt><trkpt lat="41.491111262119134" lon="15.522797365449355"><ele>64.0</ele><time>2026-04-19T16:50:04Z</time></trkpt><trkpt lat="41.49097682969044" lon="15.52282765045193"><ele>64.0</ele><time>2026-04-19T16:50:05Z</time></trkpt><trkpt lat="41.49083935254668" lon="15.522854835732028"><ele>64.0</ele><time>2026-04-19T16:50:06Z</time></trkpt><trkpt lat="41.4906984773488" lon="15.522873850491779"><ele>64.0</ele><time>2026-04-19T16:50:07Z</time></trkpt><trkpt lat="41.490551130870074" lon="15.522889550221702"><ele>64.0</ele><time>2026-04-19T16:50:08Z</time></trkpt><trkpt lat="41.490405440567095" lon="15.522907585495457"><ele>63.666666666666664</ele><time>2026-04-19T16:50:09Z</time></trkpt><trkpt lat="41.490254064323736" lon="15.522926461212403"><ele>63.33333333333333</ele><time>2026-04-19T16:50:10Z</time></trkpt><trkpt lat="41.490101809793025" lon="15.522942817665493"><ele>63.0</ele><time>2026-04-19T16:50:11Z</time></trkpt><trkpt lat="41.48994655143051" lon="15.522947285494652"><ele>63.0</ele><time>2026-04-19T16:50:12Z</time></trkpt><trkpt lat="41.489786640843874" lon="15.522943139398334"><ele>63.0</ele><time>2026-04-19T16:50:13Z</time></trkpt><trkpt lat="41.48962957493231" lon="15.522940411764662"><ele>63.0</ele><time>2026-04-19T16:50:14Z</time></trkpt><trkpt lat="41.489469171623725" lon="15.5229388759047"><ele>63.0</ele><time>2026-04-19T16:50:15Z</time></trkpt><trkpt lat="41.489307716914446" lon="15.5229345095014"><ele>63.0</ele><time>2026-04-19T16:50:16Z</time></trkpt><trkpt lat="41.48914443825005" lon="15.522925445935378"><ele>63.0</ele><time>2026-04-19T16:50:17Z</time></trkpt><trkpt lat="41.488975896991384" lon="15.52291715727223"><ele>63.0</ele><time>2026-04-19T16:50:18Z</time></trkpt><trkpt lat="41.48881540633264" lon="15.52289940832584"><ele>63.0</ele><time>2026-04-19T16:50:19Z</time></trkpt><trkpt lat="41.488651586818406" lon="15.522871545551927"><ele>63.0</ele><time>2026-04-19T16:50:20Z</time></trkpt><trkpt lat="41.48849591982413" lon="15.522837585766341"><ele>63.0</ele><time>2026-04-19T16:50:21Z</time></trkpt><trkpt lat="41.488331870070596" lon="15.522811031138165"><ele>63.0</ele><time>2026-04-19T16:50:22Z</time></trkpt><trkpt lat="41.48817469696227" lon="15.522780588814713"><ele>63.0</ele><time>2026-04-19T16:50:23Z</time></trkpt><trkpt lat="41.48800869805201" lon="15.522739934442493"><ele>63.33333333333333</ele><time>2026-04-19T16:50:24Z</time></trkpt><trkpt lat="41.48783649552672" lon="15.522689376908511"><ele>63.666666666666664</ele><time>2026-04-19T16:50:25Z</time></trkpt><trkpt lat="41.487672205855866" lon="15.52263125366729"><ele>64.0</ele><time>2026-04-19T16:50:26Z</time></trkpt><trkpt lat="41.48749904877167" lon="15.522572199270602"><ele>64.0</ele><time>2026-04-19T16:50:27Z</time></trkpt><trkpt lat="41.48733766726395" lon="15.522512214008206"><ele>64.0</ele><time>2026-04-19T16:50:28Z</time></trkpt><trkpt lat="41.48718302223073" lon="15.522455122987308"><ele>64.0</ele><time>2026-04-19T16:50:29Z</time></trkpt><trkpt lat="41.48702769346091" lon="15.522386628327501"><ele>64.0</ele><time>2026-04-19T16:50:30Z</time></trkpt><trkpt lat="41.486869275122466" lon="15.522305189700434"><ele>64.0</ele><time>2026-04-19T16:50:31Z</time></trkpt><trkpt lat="41.486716719985004" lon="15.522226927811666"><ele>64.0</ele><time>2026-04-19T16:50:32Z</time></trkpt><trkpt lat="41.48657375072898" lon="15.522146124980187"><ele>64.0</ele><time>2026-04-19T16:50:33Z</time></trkpt><trkpt lat="41.48643846411559" lon="15.522073708112332"><ele>64.0</ele><time>2026-04-19T16:50:34Z</time></trkpt><trkpt lat="41.48628245322911" lon="15.521996463633679"><ele>64.0</ele><time>2026-04-19T16:50:35Z</time></trkpt><trkpt lat="41.48614202013128" lon="15.52190267345604"><ele>64.0</ele><time>2026-04-19T16:50:36Z</time></trkpt><trkpt lat="41.48601392756247" lon="15.521809338197626"><ele>64.0</ele><time>2026-04-19T16:50:37Z</time></trkpt><trkpt lat="41.485883792706574" lon="15.521719329567157"><ele>64.0</ele><time>2026-04-19T16:50:38Z</time></trkpt><trkpt lat="41.48574785563799" lon="15.521629810137316"><ele>64.0</ele><time>2026-04-19T16:50:39Z</time></trkpt><trkpt lat="41.485621141507096" lon="15.521538509768636"><ele>64.0</ele><time>2026-04-19T16:50:40Z</time></trkpt><trkpt lat="41.48549623073575" lon="15.521433520284749"><ele>64.0</ele><time>2026-04-19T16:50:41Z</time></trkpt><trkpt lat="41.48537866621591" lon="15.521330450299669"><ele>64.0</ele><time>2026-04-19T16:50:42Z</time></trkpt><trkpt lat="41.48523622563692" lon="15.521222693577725"><ele>64.33333333333333</ele><time>2026-04-19T16:50:43Z</time></trkpt><trkpt lat="41.485109573520404" lon="15.521115095471348"><ele>64.66666666666667</ele><time>2026-04-19T16:50:44Z</time></trkpt><trkpt lat="41.48498796315648" lon="15.521006981425954"><ele>65.0</ele><time>2026-04-19T16:50:45Z</time></trkpt><trkpt lat="41.48485482363108" lon="15.520880085101503"><ele>65.0</ele><time>2026-04-19T16:50:46Z</time></trkpt><trkpt lat="41.48472799195012" lon="15.520746819803634"><ele>65.0</ele><time>2026-04-19T16:50:47Z</time></trkpt><trkpt lat="41.4845927284625" lon="15.520606955399597"><ele>65.0</ele><time>2026-04-19T16:50:48Z</time></trkpt><trkpt lat="41.484470806564275" lon="15.520475472451333"><ele>65.0</ele><time>2026-04-19T16:50:49Z</time></trkpt><trkpt lat="41.484343886630256" lon="15.520332439254636"><ele>65.0</ele><time>2026-04-19T16:50:50Z</time></trkpt><trkpt lat="41.48423236437299" lon="15.520190261180865"><ele>65.0</ele><time>2026-04-19T16:50:51Z</time></trkpt><trkpt lat="41.48410802944878" lon="15.520045101508304"><ele>65.0</ele><time>2026-04-19T16:50:52Z</time></trkpt><trkpt lat="41.48398801571472" lon="15.519901384768753"><ele>65.0</ele><time>2026-04-19T16:50:53Z</time></trkpt><trkpt lat="41.48387111505748" lon="15.519749701144095"><ele>65.0</ele><time>2026-04-19T16:50:54Z</time></trkpt><trkpt lat="41.48374607206598" lon="15.519591585151039"><ele>64.66666666666667</ele><time>2026-04-19T16:50:55Z</time></trkpt><trkpt lat="41.48362728280177" lon="15.51944645478189"><ele>64.33333333333333</ele><time>2026-04-19T16:50:56Z</time></trkpt><trkpt lat="41.48350205461687" lon="15.519288574674599"><ele>64.0</ele><time>2026-04-19T16:50:57Z</time></trkpt><trkpt lat="41.483376917262234" lon="15.519131658806577"><ele>64.0</ele><time>2026-04-19T16:50:58Z</time></trkpt><trkpt lat="41.48326057951658" lon="15.518980178784673"><ele>64.0</ele><time>2026-04-19T16:50:59Z</time></trkpt><trkpt lat="41.48315413273674" lon="15.518841696916295"><ele>64.0</ele><time>2026-04-19T16:51:00Z</time></trkpt><trkpt lat="41.48303868796618" lon="15.518705049632036"><ele>64.33333333333333</ele><time>2026-04-19T16:51:01Z</time></trkpt><trkpt lat="41.48291059635961" lon="15.518550978058089"><ele>64.66666666666667</ele><time>2026-04-19T16:51:02Z</time></trkpt><trkpt lat="41.48279239986108" lon="15.5184016500873"><ele>65.0</ele><time>2026-04-19T16:51:03Z</time></trkpt><trkpt lat="41.482677739537834" lon="15.518251630074435"><ele>65.0</ele><time>2026-04-19T16:51:04Z</time></trkpt><trkpt lat="41.48256800733681" lon="15.518114530731843"><ele>65.0</ele><time>2026-04-19T16:51:05Z</time></trkpt><trkpt lat="41.48245027266062" lon="15.517973399736624"><ele>65.0</ele><time>2026-04-19T16:51:06Z</time></trkpt><trkpt lat="41.482326306749805" lon="15.517828643135909"><ele>65.66666666666667</ele><time>2026-04-19T16:51:07Z</time></trkpt><trkpt lat="41.482206615026904" lon="15.517682189774947"><ele>66.33333333333333</ele><time>2026-04-19T16:51:08Z</time></trkpt><trkpt lat="41.482101665297215" lon="15.517540947048776"><ele>67.0</ele><time>2026-04-19T16:51:09Z</time></trkpt><trkpt lat="41.48197639799784" lon="15.517386513365736"><ele>67.0</ele><time>2026-04-19T16:51:10Z</time></trkpt><trkpt lat="41.48186521738823" lon="15.51723780706095"><ele>67.0</ele><time>2026-04-19T16:51:11Z</time></trkpt><trkpt lat="41.481747759367366" lon="15.51708090912454"><ele>67.0</ele><time>2026-04-19T16:51:12Z</time></trkpt><trkpt lat="41.481642505126835" lon="15.516957490481147"><ele>67.0</ele><time>2026-04-19T16:51:13Z</time></trkpt><trkpt lat="41.48154105914588" lon="15.51683164122559"><ele>67.0</ele><time>2026-04-19T16:51:14Z</time></trkpt><trkpt lat="41.481408870168146" lon="15.516672972540304"><ele>67.0</ele><time>2026-04-19T16:51:15Z</time></trkpt><trkpt lat="41.48128897421071" lon="15.516533603717539"><ele>67.33333333333333</ele><time>2026-04-19T16:51:16Z</time></trkpt><trkpt lat="41.48118831077216" lon="15.516399468796445"><ele>67.66666666666667</ele><time>2026-04-19T16:51:17Z</time></trkpt><trkpt lat="41.48107558216157" lon="15.516246567515"><ele>68.0</ele><time>2026-04-19T16:51:18Z</time></trkpt><trkpt lat="41.480965910504764" lon="15.516112469167794"><ele>68.0</ele><time>2026-04-19T16:51:19Z</time></trkpt><trkpt lat="41.48084259793488" lon="15.515960801650742"><ele>68.0</ele><time>2026-04-19T16:51:20Z</time></trkpt><trkpt lat="41.480728924939655" lon="15.515824697026156"><ele>68.0</ele><time>2026-04-19T16:51:21Z</time></trkpt><trkpt lat="41.48061545525598" lon="15.515691186649263"><ele>68.0</ele><time>2026-04-19T16:51:22Z</time></trkpt><trkpt lat="41.480482296096376" lon="15.515520896484965"><ele>68.0</ele><time>2026-04-19T16:51:23Z</time></trkpt><trkpt lat="41.480364717529554" lon="15.515380522207119"><ele>68.0</ele><time>2026-04-19T16:51:24Z</time></trkpt><trkpt lat="41.48024478733046" lon="15.515231675276159"><ele>68.33333333333334</ele><time>2026-04-19T16:51:25Z</time></trkpt><trkpt lat="41.48013242583436" lon="15.5150858152626"><ele>68.66666666666667</ele><time>2026-04-19T16:51:26Z</time></trkpt><trkpt lat="41.4800223301436" lon="15.514946490948988"><ele>69.0</ele><time>2026-04-19T16:51:27Z</time></trkpt><trkpt lat="41.47990995967934" lon="15.514812703709964"><ele>69.0</ele><time>2026-04-19T16:51:28Z</time></trkpt><trkpt lat="41.47980068919746" lon="15.514676033530147"><ele>69.0</ele><time>2026-04-19T16:51:29Z</time></trkpt><trkpt lat="41.47969703893968" lon="15.514545318130946"><ele>69.0</ele><time>2026-04-19T16:51:30Z</time></trkpt><trkpt lat="41.47958922603891" lon="15.514402361266487"><ele>69.0</ele><time>2026-04-19T16:51:31Z</time></trkpt><trkpt lat="41.47947724171394" lon="15.514261284329038"><ele>69.33333333333333</ele><time>2026-04-19T16:51:32Z</time></trkpt><trkpt lat="41.479361650707816" lon="15.514119388400182"><ele>69.66666666666666</ele><time>2026-04-19T16:51:33Z</time></trkpt><trkpt lat="41.47925279720973" lon="15.513980415477793"><ele>70.0</ele><time>2026-04-19T16:51:34Z</time></trkpt><trkpt lat="41.47913477526714" lon="15.513834075167987"><ele>70.0</ele><time>2026-04-19T16:51:35Z</time></trkpt><trkpt lat="41.47901738379892" lon="15.513686072064557"><ele>70.0</ele><time>2026-04-19T16:51:36Z</time></trkpt><trkpt lat="41.47890559925166" lon="15.513540811780066"><ele>70.0</ele><time>2026-04-19T16:51:37Z</time></trkpt><trkpt lat="41.478789953261796" lon="15.51339642036533"><ele>70.33333333333333</ele><time>2026-04-19T16:51:38Z</time></trkpt><trkpt lat="41.47867480012707" lon="15.513248090778594"><ele>70.66666666666667</ele><time>2026-04-19T16:51:39Z</time></trkpt><trkpt lat="41.478551219879215" lon="15.513098204462432"><ele>71.0</ele><time>2026-04-19T16:51:40Z</time></trkpt><trkpt lat="41.47842810633394" lon="15.512944662688763"><ele>70.0</ele><time>2026-04-19T16:51:41Z</time></trkpt><trkpt lat="41.478300336278735" lon="15.512783246070102"><ele>69.0</ele><time>2026-04-19T16:51:42Z</time></trkpt><trkpt lat="41.47816950342722" lon="15.51262165443922"><ele>68.0</ele><time>2026-04-19T16:51:43Z</time></trkpt><trkpt lat="41.47802616538547" lon="15.512459329521844"><ele>69.0</ele><time>2026-04-19T16:51:44Z</time></trkpt><trkpt lat="41.477890090284085" lon="15.512291058092856"><ele>70.0</ele><time>2026-04-19T16:51:45Z</time></trkpt><trkpt lat="41.47776602493942" lon="15.512127222701688"><ele>71.0</ele><time>2026-04-19T16:51:46Z</time></trkpt><trkpt lat="41.47763647016212" lon="15.511969581886921"><ele>71.0</ele><time>2026-04-19T16:51:47Z</time></trkpt><trkpt lat="41.477509822204894" lon="15.51181557041846"><ele>71.0</ele><time>2026-04-19T16:51:48Z</time></trkpt><trkpt lat="41.47738677213565" lon="15.51165851746432"><ele>71.0</ele><time>2026-04-19T16:51:49Z</time></trkpt><trkpt lat="41.4772613225925" lon="15.511506669377416"><ele>71.0</ele><time>2026-04-19T16:51:50Z</time></trkpt><trkpt lat="41.47713394094876" lon="15.511352413918495"><ele>71.0</ele><time>2026-04-19T16:51:51Z</time></trkpt><trkpt lat="41.47700635591256" lon="15.511188752729687"><ele>71.0</ele><time>2026-04-19T16:51:52Z</time></trkpt><trkpt lat="41.476881257692966" lon="15.511036684089074"><ele>71.33333333333334</ele><time>2026-04-19T16:51:53Z</time></trkpt><trkpt lat="41.47675977856706" lon="15.5108943216605"><ele>71.66666666666667</ele><time>2026-04-19T16:51:54Z</time></trkpt><trkpt lat="41.47663271014194" lon="15.510754100239497"><ele>72.0</ele><time>2026-04-19T16:51:55Z</time></trkpt><trkpt lat="41.47650512537401" lon="15.510622829527314"><ele>72.0</ele><time>2026-04-19T16:51:56Z</time></trkpt><trkpt lat="41.47637232740091" lon="15.510502285400248"><ele>72.0</ele><time>2026-04-19T16:51:57Z</time></trkpt><trkpt lat="41.47623429388002" lon="15.51038328792114"><ele>72.0</ele><time>2026-04-19T16:51:58Z</time></trkpt><trkpt lat="41.47609491607541" lon="15.510262964434302"><ele>72.0</ele><time>2026-04-19T16:51:59Z</time></trkpt><trkpt lat="41.475956803116" lon="15.510145680247547"><ele>72.0</ele><time>2026-04-19T16:52:00Z</time></trkpt><trkpt lat="41.47581452208963" lon="15.510038678655508"><ele>72.0</ele><time>2026-04-19T16:52:01Z</time></trkpt><trkpt lat="41.475669806701475" lon="15.509941512407346"><ele>72.0</ele><time>2026-04-19T16:52:02Z</time></trkpt><trkpt lat="41.47552978612663" lon="15.50985044317856"><ele>72.0</ele><time>2026-04-19T16:52:03Z</time></trkpt><trkpt lat="41.475388898830666" lon="15.509764042046791"><ele>72.0</ele><time>2026-04-19T16:52:04Z</time></trkpt><trkpt lat="41.47524397675008" lon="15.509683388573793"><ele>72.25</ele><time>2026-04-19T16:52:05Z</time></trkpt><trkpt lat="41.475109163489954" lon="15.509610012945242"><ele>72.5</ele><time>2026-04-19T16:52:06Z</time></trkpt><trkpt lat="41.47497567333461" lon="15.509544829482437"><ele>72.75</ele><time>2026-04-19T16:52:07Z</time></trkpt><trkpt lat="41.474845731689676" lon="15.50948313952837"><ele>73.0</ele><time>2026-04-19T16:52:08Z</time></trkpt><trkpt lat="41.474719968660324" lon="15.509421505235808"><ele>73.25</ele><time>2026-04-19T16:52:09Z</time></trkpt><trkpt lat="41.474595975349295" lon="15.50935747416045"><ele>73.5</ele><time>2026-04-19T16:52:10Z</time></trkpt><trkpt lat="41.47448470296633" lon="15.50929901880434"><ele>73.75</ele><time>2026-04-19T16:52:11Z</time></trkpt><trkpt lat="41.47436814917615" lon="15.509244019041214"><ele>74.0</ele><time>2026-04-19T16:52:12Z</time></trkpt><trkpt lat="41.47426426275709" lon="15.509190841380171"><ele>74.0</ele><time>2026-04-19T16:52:13Z</time></trkpt><trkpt lat="41.47416514394234" lon="15.509132537280275"><ele>74.0</ele><time>2026-04-19T16:52:14Z</time></trkpt><trkpt lat="41.4740648778348" lon="15.509065370190273"><ele>74.0</ele><time>2026-04-19T16:52:15Z</time></trkpt><trkpt lat="41.47397184819355" lon="15.5089907730545"><ele>74.0</ele><time>2026-04-19T16:52:16Z</time></trkpt><trkpt lat="41.47387772606465" lon="15.508917826444979"><ele>74.0</ele><time>2026-04-19T16:52:17Z</time></trkpt><trkpt lat="41.473779800531275" lon="15.508833786413394"><ele>74.5</ele><time>2026-04-19T16:52:18Z</time></trkpt><trkpt lat="41.47367490051711" lon="15.508757434103137"><ele>75.0</ele><time>2026-04-19T16:52:19Z</time></trkpt><trkpt lat="41.47356359612044" lon="15.508688625841344"><ele>75.5</ele><time>2026-04-19T16:52:20Z</time></trkpt><trkpt lat="41.47344993128036" lon="15.508624095285617"><ele>76.0</ele><time>2026-04-19T16:52:21Z</time></trkpt><trkpt lat="41.473335506309986" lon="15.508562791565291"><ele>76.0</ele><time>2026-04-19T16:52:22Z</time></trkpt><trkpt lat="41.47322829064429" lon="15.508498945030812"><ele>76.0</ele><time>2026-04-19T16:52:23Z</time></trkpt><trkpt lat="41.47311985780367" lon="15.508429277232093"><ele>76.0</ele><time>2026-04-19T16:52:24Z</time></trkpt><trkpt lat="41.47302166214464" lon="15.508361029961936"><ele>76.0</ele><time>2026-04-19T16:52:25Z</time></trkpt><trkpt lat="41.472923738995085" lon="15.508288559869595"><ele>76.6</ele><time>2026-04-19T16:52:26Z</time></trkpt><trkpt lat="41.47282626376264" lon="15.50821573587381"><ele>77.19999999999999</ele><time>2026-04-19T16:52:27Z</time></trkpt><trkpt lat="41.47273251086715" lon="15.50815716465345"><ele>77.80000000000001</ele><time>2026-04-19T16:52:28Z</time></trkpt><trkpt lat="41.472642145386324" lon="15.508091957262238"><ele>78.4</ele><time>2026-04-19T16:52:29Z</time></trkpt><trkpt lat="41.47255696036766" lon="15.5080283380153"><ele>79.0</ele><time>2026-04-19T16:52:30Z</time></trkpt><trkpt lat="41.472488211276755" lon="15.507962631178525"><ele>78.8</ele><time>2026-04-19T16:52:31Z</time></trkpt><trkpt lat="41.47244007550603" lon="15.507907958993252"><ele>78.60000000000001</ele><time>2026-04-19T16:52:32Z</time></trkpt><trkpt lat="41.47235962584087" lon="15.507775209449434"><ele>78.4</ele><time>2026-04-19T16:52:34Z</time></trkpt><trkpt lat="41.47231641277077" lon="15.507687613370019"><ele>78.2</ele><time>2026-04-19T16:52:35Z</time></trkpt><trkpt lat="41.472280992584324" lon="15.507606599436299"><ele>78.0</ele><time>2026-04-19T16:52:36Z</time></trkpt><trkpt lat="41.47221527432002" lon="15.507454509416668"><ele>78.0</ele><time>2026-04-19T16:52:38Z</time></trkpt><trkpt lat="41.472177893565" lon="15.507359188752217"><ele>78.0</ele><time>2026-04-19T16:52:39Z</time></trkpt><trkpt lat="41.472129505495445" lon="15.507249389945507"><ele>78.0</ele><time>2026-04-19T16:52:40Z</time></trkpt><trkpt lat="41.47207643914134" lon="15.507133251415697"><ele>78.0</ele><time>2026-04-19T16:52:41Z</time></trkpt><trkpt lat="41.47201998173049" lon="15.507010093611003"><ele>78.0</ele><time>2026-04-19T16:52:42Z</time></trkpt><trkpt lat="41.47197309224207" lon="15.506904064399333"><ele>77.8</ele><time>2026-04-19T16:52:43Z</time></trkpt><trkpt lat="41.47192123944148" lon="15.506810132422585"><ele>77.6</ele><time>2026-04-19T16:52:44Z</time></trkpt><trkpt lat="41.47185863812379" lon="15.50673546279225"><ele>77.4</ele><time>2026-04-19T16:52:45Z</time></trkpt><trkpt lat="41.471772722315" lon="15.506672401349702"><ele>77.2</ele><time>2026-04-19T16:52:46Z</time></trkpt><trkpt lat="41.47168109037659" lon="15.506634029456176"><ele>77.0</ele><time>2026-04-19T16:52:47Z</time></trkpt><trkpt lat="41.471586520954766" lon="15.506621521468336"><ele>77.0</ele><time>2026-04-19T16:52:48Z</time></trkpt><trkpt lat="41.471502398954726" lon="15.506633267081215"><ele>77.0</ele><time>2026-04-19T16:52:49Z</time></trkpt><trkpt lat="41.47142760766727" lon="15.506661498675646"><ele>77.0</ele><time>2026-04-19T16:52:50Z</time></trkpt><trkpt lat="41.47135025884078" lon="15.50670958549762"><ele>77.0</ele><time>2026-04-19T16:52:51Z</time></trkpt><trkpt lat="41.471263855781814" lon="15.506771965232264"><ele>77.0</ele><time>2026-04-19T16:52:52Z</time></trkpt><trkpt lat="41.47118421129572" lon="15.50682901295485"><ele>77.0</ele><time>2026-04-19T16:52:53Z</time></trkpt><trkpt lat="41.47109832829963" lon="15.506896549751271"><ele>77.2</ele><time>2026-04-19T16:52:54Z</time></trkpt><trkpt lat="41.4710195883361" lon="15.506958122124606"><ele>77.4</ele><time>2026-04-19T16:52:55Z</time></trkpt><trkpt lat="41.47093873715063" lon="15.507021552917"><ele>77.6</ele><time>2026-04-19T16:52:56Z</time></trkpt><trkpt lat="41.4708624911469" lon="15.507085508030103"><ele>77.8</ele><time>2026-04-19T16:52:57Z</time></trkpt><trkpt lat="41.47078674640375" lon="15.507158432117063"><ele>78.0</ele><time>2026-04-19T16:52:58Z</time></trkpt><trkpt lat="41.470722455358214" lon="15.507237119509748"><ele>78.0</ele><time>2026-04-19T16:52:59Z</time></trkpt><trkpt lat="41.47066137500305" lon="15.507340461533591"><ele>78.0</ele><time>2026-04-19T16:53:00Z</time></trkpt><trkpt lat="41.470619034740956" lon="15.507454026602392"><ele>78.0</ele><time>2026-04-19T16:53:01Z</time></trkpt><trkpt lat="41.47059122823749" lon="15.50757008724306"><ele>78.0</ele><time>2026-04-19T16:53:02Z</time></trkpt><trkpt lat="41.470588930751696" lon="15.507706249247246"><ele>78.0</ele><time>2026-04-19T16:53:03Z</time></trkpt><trkpt lat="41.470616239779964" lon="15.507860643534361"><ele>78.2</ele><time>2026-04-19T16:53:04Z</time></trkpt><trkpt lat="41.47067236427169" lon="15.507996147303794"><ele>78.4</ele><time>2026-04-19T16:53:05Z</time></trkpt><trkpt lat="41.470723521727145" lon="15.508131449496616"><ele>78.60000000000001</ele><time>2026-04-19T16:53:06Z</time></trkpt><trkpt lat="41.470778475667245" lon="15.508258623818742"><ele>78.8</ele><time>2026-04-19T16:53:07Z</time></trkpt><trkpt lat="41.47082583357677" lon="15.508378374507318"><ele>79.0</ele><time>2026-04-19T16:53:08Z</time></trkpt><trkpt lat="41.47087183499188" lon="15.508507309917954"><ele>79.0</ele><time>2026-04-19T16:53:09Z</time></trkpt><trkpt lat="41.470916922438285" lon="15.50863361503412"><ele>79.0</ele><time>2026-04-19T16:53:10Z</time></trkpt><trkpt lat="41.47096305758731" lon="15.508760407081555"><ele>79.0</ele><time>2026-04-19T16:53:11Z</time></trkpt><trkpt lat="41.47100691389711" lon="15.508896287830282"><ele>79.0</ele><time>2026-04-19T16:53:12Z</time></trkpt><trkpt lat="41.471038540476805" lon="15.50903246147311"><ele>79.0</ele><time>2026-04-19T16:53:13Z</time></trkpt><trkpt lat="41.471061962030824" lon="15.509178177888359"><ele>78.5</ele><time>2026-04-19T16:53:14Z</time></trkpt><trkpt lat="41.471065066384426" lon="15.50933115411158"><ele>78.0</ele><time>2026-04-19T16:53:15Z</time></trkpt><trkpt lat="41.47108813002725" lon="15.509490418817967"><ele>77.5</ele><time>2026-04-19T16:53:16Z</time></trkpt><trkpt lat="41.471026904586694" lon="15.509681435890478"><ele>77.0</ele><time>2026-04-19T16:53:17Z</time></trkpt><trkpt lat="41.47098908005824" lon="15.50987140268049"><ele>77.0</ele><time>2026-04-19T16:53:18Z</time></trkpt><trkpt lat="41.47095803308977" lon="15.510038168299156"><ele>77.0</ele><time>2026-04-19T16:53:19Z</time></trkpt><trkpt lat="41.47092810709518" lon="15.510199268724872"><ele>77.0</ele><time>2026-04-19T16:53:20Z</time></trkpt><trkpt lat="41.470895590345165" lon="15.510367199700257"><ele>77.0</ele><time>2026-04-19T16:53:21Z</time></trkpt><trkpt lat="41.470864943407065" lon="15.510526920513962"><ele>77.25</ele><time>2026-04-19T16:53:22Z</time></trkpt><trkpt lat="41.47083185893371" lon="15.510691520627269"><ele>77.5</ele><time>2026-04-19T16:53:23Z</time></trkpt><trkpt lat="41.47080050109418" lon="15.51086654921443"><ele>77.75</ele><time>2026-04-19T16:53:24Z</time></trkpt><trkpt lat="41.47074814272078" lon="15.51103938638128"><ele>78.0</ele><time>2026-04-19T16:53:25Z</time></trkpt><trkpt lat="41.470713265911506" lon="15.511214829584256"><ele>77.75</ele><time>2026-04-19T16:53:26Z</time></trkpt><trkpt lat="41.47067642008296" lon="15.511400177949128"><ele>77.5</ele><time>2026-04-19T16:53:27Z</time></trkpt><trkpt lat="41.47065447551069" lon="15.51159054177843"><ele>77.25</ele><time>2026-04-19T16:53:28Z</time></trkpt><trkpt lat="41.4706183082646" lon="15.511762342474746"><ele>77.0</ele><time>2026-04-19T16:53:29Z</time></trkpt><trkpt lat="41.47058311364528" lon="15.511934886142837"><ele>76.75</ele><time>2026-04-19T16:53:30Z</time></trkpt><trkpt lat="41.47054764208658" lon="15.512104683815117"><ele>76.5</ele><time>2026-04-19T16:53:31Z</time></trkpt><trkpt lat="41.470509890912865" lon="15.512286106451924"><ele>76.25</ele><time>2026-04-19T16:53:32Z</time></trkpt><trkpt lat="41.470475558307896" lon="15.512465858253563"><ele>76.0</ele><time>2026-04-19T16:53:33Z</time></trkpt><trkpt lat="41.4704380598839" lon="15.512655367522786"><ele>75.33333333333333</ele><time>2026-04-19T16:53:34Z</time></trkpt><trkpt lat="41.47039831275602" lon="15.51284582090777"><ele>74.66666666666667</ele><time>2026-04-19T16:53:35Z</time></trkpt><trkpt lat="41.47036084153757" lon="15.513045683888844"><ele>74.0</ele><time>2026-04-19T16:53:36Z</time></trkpt><trkpt lat="41.470322520117826" lon="15.51324648097075"><ele>74.0</ele><time>2026-04-19T16:53:37Z</time></trkpt><trkpt lat="41.47026719648742" lon="15.513439552062174"><ele>74.0</ele><time>2026-04-19T16:53:38Z</time></trkpt><trkpt lat="41.47022887124807" lon="15.513630566063236"><ele>74.0</ele><time>2026-04-19T16:53:39Z</time></trkpt><trkpt lat="41.470208264815355" lon="15.513826742235203"><ele>74.0</ele><time>2026-04-19T16:53:40Z</time></trkpt><trkpt lat="41.47017121598521" lon="15.514022485701306"><ele>74.0</ele><time>2026-04-19T16:53:41Z</time></trkpt><trkpt lat="41.47013036127035" lon="15.514219344279033"><ele>74.0</ele><time>2026-04-19T16:53:42Z</time></trkpt><trkpt lat="41.47008838759908" lon="15.514419598346201"><ele>74.33333333333334</ele><time>2026-04-19T16:53:43Z</time></trkpt><trkpt lat="41.47005072228502" lon="15.514620843019912"><ele>74.66666666666667</ele><time>2026-04-19T16:53:44Z</time></trkpt><trkpt lat="41.47000929267532" lon="15.51482691029455"><ele>75.0</ele><time>2026-04-19T16:53:45Z</time></trkpt><trkpt lat="41.469968470246044" lon="15.51503340839455"><ele>75.0</ele><time>2026-04-19T16:53:46Z</time></trkpt><trkpt lat="41.469931168844276" lon="15.515232047909636"><ele>75.0</ele><time>2026-04-19T16:53:47Z</time></trkpt><trkpt lat="41.469895901721976" lon="15.515428113377753"><ele>75.0</ele><time>2026-04-19T16:53:48Z</time></trkpt><trkpt lat="41.469859564259956" lon="15.515621148772457"><ele>75.25</ele><time>2026-04-19T16:53:49Z</time></trkpt><trkpt lat="41.46982144333084" lon="15.515816051671912"><ele>75.5</ele><time>2026-04-19T16:53:50Z</time></trkpt><trkpt lat="41.46978162863365" lon="15.516005233886647"><ele>75.75</ele><time>2026-04-19T16:53:51Z</time></trkpt><trkpt lat="41.469743592758114" lon="15.516186743185662"><ele>76.0</ele><time>2026-04-19T16:53:52Z</time></trkpt><trkpt lat="41.469706674033645" lon="15.516364256377116"><ele>76.0</ele><time>2026-04-19T16:53:53Z</time></trkpt><trkpt lat="41.46967349681106" lon="15.516531477899125"><ele>76.0</ele><time>2026-04-19T16:53:54Z</time></trkpt><trkpt lat="41.46964211614972" lon="15.516691963482119"><ele>76.0</ele><time>2026-04-19T16:53:55Z</time></trkpt><trkpt lat="41.469611594436394" lon="15.516855425706474"><ele>76.0</ele><time>2026-04-19T16:53:56Z</time></trkpt><trkpt lat="41.4695804614503" lon="15.517021759881464"><ele>75.75</ele><time>2026-04-19T16:53:57Z</time></trkpt><trkpt lat="41.46954770310449" lon="15.51718822959509"><ele>75.5</ele><time>2026-04-19T16:53:58Z</time></trkpt><trkpt lat="41.46951422118707" lon="15.517358863808967"><ele>75.25</ele><time>2026-04-19T16:53:59Z</time></trkpt><trkpt lat="41.469482013175245" lon="15.51752908829432"><ele>75.0</ele><time>2026-04-19T16:54:00Z</time></trkpt><trkpt lat="41.46945094424585" lon="15.517704719666394"><ele>75.0</ele><time>2026-04-19T16:54:01Z</time></trkpt><trkpt lat="41.46941779184726" lon="15.517880438172314"><ele>75.0</ele><time>2026-04-19T16:54:02Z</time></trkpt><trkpt lat="41.46938209909623" lon="15.518055160562703"><ele>75.0</ele><time>2026-04-19T16:54:03Z</time></trkpt><trkpt lat="41.469349674849425" lon="15.518223678159877"><ele>75.0</ele><time>2026-04-19T16:54:04Z</time></trkpt><trkpt lat="41.46931856111373" lon="15.518367343617712"><ele>75.0</ele><time>2026-04-19T16:54:05Z</time></trkpt><trkpt lat="41.469279224064714" lon="15.518481890797396"><ele>75.0</ele><time>2026-04-19T16:54:06Z</time></trkpt><trkpt lat="41.46922197125029" lon="15.518579691647279"><ele>75.0</ele><time>2026-04-19T16:54:07Z</time></trkpt><trkpt lat="41.469162230042116" lon="15.518635706174912"><ele>75.0</ele><time>2026-04-19T16:54:08Z</time></trkpt><trkpt lat="41.46909859785118" lon="15.518667310407011"><ele>75.0</ele><time>2026-04-19T16:54:09Z</time></trkpt><trkpt lat="41.46902344364432" lon="15.51870181102802"><ele>75.0</ele><time>2026-04-19T16:54:10Z</time></trkpt><trkpt lat="41.46894797853588" lon="15.518738091993374"><ele>75.0</ele><time>2026-04-19T16:54:11Z</time></trkpt><trkpt lat="41.46886121791967" lon="15.518754924558683"><ele>75.0</ele><time>2026-04-19T16:54:12Z</time></trkpt><trkpt lat="41.46877993127097" lon="15.518707364198669"><ele>75.0</ele><time>2026-04-19T16:54:13Z</time></trkpt><trkpt lat="41.46868473746969" lon="15.518695557265648"><ele>75.0</ele><time>2026-04-19T16:54:14Z</time></trkpt><trkpt lat="41.468599730358136" lon="15.518655428549815"><ele>75.0</ele><time>2026-04-19T16:54:15Z</time></trkpt><trkpt lat="41.46850999825807" lon="15.518619315711703"><ele>74.6</ele><time>2026-04-19T16:54:16Z</time></trkpt><trkpt lat="41.46841232017388" lon="15.518579491086497"><ele>74.2</ele><time>2026-04-19T16:54:17Z</time></trkpt><trkpt lat="41.46830476067726" lon="15.51853635813224"><ele>73.8</ele><time>2026-04-19T16:54:18Z</time></trkpt><trkpt lat="41.4681946938598" lon="15.518493889165116"><ele>73.4</ele><time>2026-04-19T16:54:19Z</time></trkpt><trkpt lat="41.46808197055638" lon="15.518451766357328"><ele>73.0</ele><time>2026-04-19T16:54:20Z</time></trkpt><trkpt lat="41.46796314532001" lon="15.518412733919101"><ele>74.25</ele><time>2026-04-19T16:54:21Z</time></trkpt><trkpt lat="41.46784242109723" lon="15.518371697395189"><ele>75.5</ele><time>2026-04-19T16:54:22Z</time></trkpt><trkpt lat="41.46771634781668" lon="15.518324464979521"><ele>76.75</ele><time>2026-04-19T16:54:23Z</time></trkpt><trkpt lat="41.467589592843936" lon="15.51827464143784"><ele>78.0</ele><time>2026-04-19T16:54:24Z</time></trkpt><trkpt lat="41.467476191667394" lon="15.518229565976279"><ele>78.0</ele><time>2026-04-19T16:54:25Z</time></trkpt><trkpt lat="41.46737494190338" lon="15.518188245185101"><ele>78.0</ele><time>2026-04-19T16:54:26Z</time></trkpt><trkpt lat="41.46728605920634" lon="15.51814204754174"><ele>78.0</ele><time>2026-04-19T16:54:27Z</time></trkpt><trkpt lat="41.4672112561815" lon="15.518082421689702"><ele>78.0</ele><time>2026-04-19T16:54:28Z</time></trkpt><trkpt lat="41.46713652580454" lon="15.518003392194979"><ele>78.0</ele><time>2026-04-19T16:54:29Z</time></trkpt><trkpt lat="41.46706156446727" lon="15.517935433602528"><ele>77.6</ele><time>2026-04-19T16:54:30Z</time></trkpt><trkpt lat="41.46697353948728" lon="15.517883768753498"><ele>77.19999999999999</ele><time>2026-04-19T16:54:31Z</time></trkpt><trkpt lat="41.46685836633631" lon="15.517915662276916"><ele>76.8</ele><time>2026-04-19T16:54:32Z</time></trkpt><trkpt lat="41.46674527396554" lon="15.517936332316157"><ele>76.39999999999999</ele><time>2026-04-19T16:54:33Z</time></trkpt><trkpt lat="41.466626847459736" lon="15.517911241647443"><ele>76.0</ele><time>2026-04-19T16:54:34Z</time></trkpt><trkpt lat="41.46650307642348" lon="15.517838812969014"><ele>76.0</ele><time>2026-04-19T16:54:35Z</time></trkpt><trkpt lat="41.46638040972188" lon="15.51777079320955"><ele>76.0</ele><time>2026-04-19T16:54:36Z</time></trkpt><trkpt lat="41.46626260834136" lon="15.517716462299603"><ele>76.0</ele><time>2026-04-19T16:54:37Z</time></trkpt><trkpt lat="41.46613932413537" lon="15.517660384286762"><ele>76.0</ele><time>2026-04-19T16:54:38Z</time></trkpt><trkpt lat="41.46601447774767" lon="15.517603339563767"><ele>76.25</ele><time>2026-04-19T16:54:39Z</time></trkpt><trkpt lat="41.46588399621262" lon="15.517543709452838"><ele>76.5</ele><time>2026-04-19T16:54:40Z</time></trkpt><trkpt lat="41.46574882489571" lon="15.517480265504147"><ele>76.75</ele><time>2026-04-19T16:54:41Z</time></trkpt><trkpt lat="41.46560845088578" lon="15.517415895419257"><ele>77.0</ele><time>2026-04-19T16:54:42Z</time></trkpt><trkpt lat="41.46546701132104" lon="15.517346673689241"><ele>77.33333333333334</ele><time>2026-04-19T16:54:43Z</time></trkpt><trkpt lat="41.4653262023597" lon="15.517265135931966"><ele>77.66666666666667</ele><time>2026-04-19T16:54:44Z</time></trkpt><trkpt lat="41.465185571272585" lon="15.51716793856414"><ele>78.0</ele><time>2026-04-19T16:54:45Z</time></trkpt><trkpt lat="41.46504240883366" lon="15.517054169949686"><ele>77.33333333333333</ele><time>2026-04-19T16:54:46Z</time></trkpt><trkpt lat="41.464900567642125" lon="15.516926495818467"><ele>76.66666666666666</ele><time>2026-04-19T16:54:47Z</time></trkpt><trkpt lat="41.464768258674674" lon="15.516803140672064"><ele>76.0</ele><time>2026-04-19T16:54:48Z</time></trkpt><trkpt lat="41.464643232324356" lon="15.516646228782937"><ele>76.33333333333333</ele><time>2026-04-19T16:54:49Z</time></trkpt><trkpt lat="41.46453128213726" lon="15.516478410519001"><ele>76.66666666666667</ele><time>2026-04-19T16:54:50Z</time></trkpt><trkpt lat="41.46443160066334" lon="15.516303516756686"><ele>77.0</ele><time>2026-04-19T16:54:51Z</time></trkpt><trkpt lat="41.46434029921411" lon="15.51612229548992"><ele>77.33333333333334</ele><time>2026-04-19T16:54:52Z</time></trkpt><trkpt lat="41.46425924435759" lon="15.515935204990594"><ele>77.66666666666667</ele><time>2026-04-19T16:54:53Z</time></trkpt><trkpt lat="41.46418953197029" lon="15.51574152601737"><ele>78.0</ele><time>2026-04-19T16:54:54Z</time></trkpt><trkpt lat="41.46413393912933" lon="15.51553310538262"><ele>78.0</ele><time>2026-04-19T16:54:55Z</time></trkpt><trkpt lat="41.46408731082691" lon="15.515318936962688"><ele>78.0</ele><time>2026-04-19T16:54:56Z</time></trkpt><trkpt lat="41.46405142051522" lon="15.515119035532226"><ele>78.0</ele><time>2026-04-19T16:54:57Z</time></trkpt><trkpt lat="41.46400894286949" lon="15.51491707728624"><ele>78.0</ele><time>2026-04-19T16:54:58Z</time></trkpt><trkpt lat="41.46396685368331" lon="15.514709278033044"><ele>78.0</ele><time>2026-04-19T16:54:59Z</time></trkpt><trkpt lat="41.46391982672037" lon="15.514497330455924"><ele>78.0</ele><time>2026-04-19T16:55:00Z</time></trkpt><trkpt lat="41.46387545831791" lon="15.514280942197892"><ele>78.0</ele><time>2026-04-19T16:55:01Z</time></trkpt><trkpt lat="41.46382758450603" lon="15.51407281208561"><ele>78.0</ele><time>2026-04-19T16:55:02Z</time></trkpt><trkpt lat="41.46378346124547" lon="15.513871692991538"><ele>78.0</ele><time>2026-04-19T16:55:03Z</time></trkpt><trkpt lat="41.46373602045641" lon="15.513671722615202"><ele>78.33333333333333</ele><time>2026-04-19T16:55:04Z</time></trkpt><trkpt lat="41.46369624163337" lon="15.513475096154885"><ele>78.66666666666666</ele><time>2026-04-19T16:55:05Z</time></trkpt><trkpt lat="41.46365607657821" lon="15.513286233573822"><ele>79.0</ele><time>2026-04-19T16:55:06Z</time></trkpt><trkpt lat="41.46361707594539" lon="15.513091731212718"><ele>79.0</ele><time>2026-04-19T16:55:07Z</time></trkpt><trkpt lat="41.46357667029308" lon="15.512897628536138"><ele>79.0</ele><time>2026-04-19T16:55:08Z</time></trkpt><trkpt lat="41.46353216323979" lon="15.512709925172565"><ele>79.0</ele><time>2026-04-19T16:55:09Z</time></trkpt><trkpt lat="41.46348981001939" lon="15.512526768477697"><ele>79.0</ele><time>2026-04-19T16:55:10Z</time></trkpt><trkpt lat="41.46344523612047" lon="15.512343260587391"><ele>79.0</ele><time>2026-04-19T16:55:11Z</time></trkpt><trkpt lat="41.4633898391353" lon="15.512157664094351"><ele>79.0</ele><time>2026-04-19T16:55:12Z</time></trkpt><trkpt lat="41.46332247049405" lon="15.511986155307829"><ele>79.0</ele><time>2026-04-19T16:55:13Z</time></trkpt><trkpt lat="41.46324299923772" lon="15.511810534721933"><ele>79.0</ele><time>2026-04-19T16:55:14Z</time></trkpt><trkpt lat="41.46316096198845" lon="15.511642203634803"><ele>79.25</ele><time>2026-04-19T16:55:15Z</time></trkpt><trkpt lat="41.46307578754757" lon="15.51149187870794"><ele>79.5</ele><time>2026-04-19T16:55:16Z</time></trkpt><trkpt lat="41.462984374339385" lon="15.511350551389032"><ele>79.75</ele><time>2026-04-19T16:55:17Z</time></trkpt><trkpt lat="41.46288223034312" lon="15.51121277299415"><ele>80.0</ele><time>2026-04-19T16:55:18Z</time></trkpt><trkpt lat="41.46277720023771" lon="15.511074998368022"><ele>80.0</ele><time>2026-04-19T16:55:19Z</time></trkpt><trkpt lat="41.46266406639402" lon="15.51095015111254"><ele>80.0</ele><time>2026-04-19T16:55:20Z</time></trkpt><trkpt lat="41.46254360586035" lon="15.51083892188618"><ele>80.0</ele><time>2026-04-19T16:55:21Z</time></trkpt><trkpt lat="41.462413801876586" lon="15.510738448113635"><ele>80.0</ele><time>2026-04-19T16:55:22Z</time></trkpt><trkpt lat="41.462277215831485" lon="15.510646377693874"><ele>80.0</ele><time>2026-04-19T16:55:23Z</time></trkpt><trkpt lat="41.4621421581577" lon="15.510569668228948"><ele>80.0</ele><time>2026-04-19T16:55:24Z</time></trkpt><trkpt lat="41.462002522373915" lon="15.510502677370306"><ele>80.0</ele><time>2026-04-19T16:55:25Z</time></trkpt><trkpt lat="41.46186486404108" lon="15.510447942097043"><ele>80.0</ele><time>2026-04-19T16:55:26Z</time></trkpt><trkpt lat="41.46172206187133" lon="15.510404537520808"><ele>80.25</ele><time>2026-04-19T16:55:27Z</time></trkpt><trkpt lat="41.46158248993603" lon="15.510373424382786"><ele>80.5</ele><time>2026-04-19T16:55:28Z</time></trkpt><trkpt lat="41.46143513879872" lon="15.510353978939152"><ele>80.75</ele><time>2026-04-19T16:55:29Z</time></trkpt><trkpt lat="41.461288901621955" lon="15.510343700870203"><ele>81.0</ele><time>2026-04-19T16:55:30Z</time></trkpt><trkpt lat="41.46114444019145" lon="15.510347320070874"><ele>81.0</ele><time>2026-04-19T16:55:31Z</time></trkpt><trkpt lat="41.46100158173685" lon="15.51036155262304"><ele>81.0</ele><time>2026-04-19T16:55:32Z</time></trkpt><trkpt lat="41.46085496545598" lon="15.510397514765627"><ele>81.0</ele><time>2026-04-19T16:55:33Z</time></trkpt><trkpt lat="41.46071184706012" lon="15.510439954960406"><ele>81.0</ele><time>2026-04-19T16:55:34Z</time></trkpt><trkpt lat="41.460569789192505" lon="15.510494132499385"><ele>80.75</ele><time>2026-04-19T16:55:35Z</time></trkpt><trkpt lat="41.460427080974554" lon="15.510558786505129"><ele>80.5</ele><time>2026-04-19T16:55:36Z</time></trkpt><trkpt lat="41.46029403557488" lon="15.510641564423532"><ele>80.25</ele><time>2026-04-19T16:55:37Z</time></trkpt><trkpt lat="41.46016014806948" lon="15.510736748392604"><ele>80.0</ele><time>2026-04-19T16:55:38Z</time></trkpt><trkpt lat="41.46002963965613" lon="15.510825215987087"><ele>80.0</ele><time>2026-04-19T16:55:39Z</time></trkpt><trkpt lat="41.45989659903582" lon="15.510914921835516"><ele>80.0</ele><time>2026-04-19T16:55:40Z</time></trkpt><trkpt lat="41.45976498749778" lon="15.511011357678932"><ele>80.0</ele><time>2026-04-19T16:55:41Z</time></trkpt><trkpt lat="41.45963388753166" lon="15.511111154171513"><ele>80.33333333333334</ele><time>2026-04-19T16:55:42Z</time></trkpt><trkpt lat="41.45949693281379" lon="15.511209114424986"><ele>80.66666666666667</ele><time>2026-04-19T16:55:43Z</time></trkpt><trkpt lat="41.45936377605102" lon="15.51129785757207"><ele>81.0</ele><time>2026-04-19T16:55:44Z</time></trkpt><trkpt lat="41.45922738464666" lon="15.511400519186838"><ele>81.66666666666667</ele><time>2026-04-19T16:55:45Z</time></trkpt><trkpt lat="41.45909076978405" lon="15.511503503435177"><ele>82.33333333333334</ele><time>2026-04-19T16:55:46Z</time></trkpt><trkpt lat="41.45895096959893" lon="15.511603244769358"><ele>83.0</ele><time>2026-04-19T16:55:47Z</time></trkpt><trkpt lat="41.45880663401085" lon="15.511706588874933"><ele>83.0</ele><time>2026-04-19T16:55:48Z</time></trkpt><trkpt lat="41.45866310312162" lon="15.51180887983643"><ele>83.0</ele><time>2026-04-19T16:55:49Z</time></trkpt><trkpt lat="41.458517914500746" lon="15.511914579759472"><ele>83.0</ele><time>2026-04-19T16:55:50Z</time></trkpt><trkpt lat="41.45836939031254" lon="15.512025969283817"><ele>82.66666666666667</ele><time>2026-04-19T16:55:51Z</time></trkpt><trkpt lat="41.45822501336505" lon="15.512129066320725"><ele>82.33333333333333</ele><time>2026-04-19T16:55:52Z</time></trkpt><trkpt lat="41.45808270079838" lon="15.512232722719157"><ele>82.0</ele><time>2026-04-19T16:55:53Z</time></trkpt><trkpt lat="41.457944468725955" lon="15.512334273121244"><ele>81.66666666666666</ele><time>2026-04-19T16:55:54Z</time></trkpt><trkpt lat="41.457805342560775" lon="15.512437082856975"><ele>81.33333333333333</ele><time>2026-04-19T16:55:55Z</time></trkpt><trkpt lat="41.45766647983879" lon="15.512536257800194"><ele>81.0</ele><time>2026-04-19T16:55:56Z</time></trkpt><trkpt lat="41.45752552674462" lon="15.512635483281514"><ele>81.0</ele><time>2026-04-19T16:55:57Z</time></trkpt><trkpt lat="41.45738750877426" lon="15.512732686414106"><ele>81.0</ele><time>2026-04-19T16:55:58Z</time></trkpt><trkpt lat="41.4572537481609" lon="15.51283148821583"><ele>81.0</ele><time>2026-04-19T16:55:59Z</time></trkpt><trkpt lat="41.45713217820544" lon="15.512933853227825"><ele>81.25</ele><time>2026-04-19T16:56:00Z</time></trkpt><trkpt lat="41.45700223564987" lon="15.513024102667867"><ele>81.5</ele><time>2026-04-19T16:56:01Z</time></trkpt><trkpt lat="41.45687949893316" lon="15.513111884753114"><ele>81.75</ele><time>2026-04-19T16:56:02Z</time></trkpt><trkpt lat="41.45676118173933" lon="15.513194850772905"><ele>82.0</ele><time>2026-04-19T16:56:03Z</time></trkpt><trkpt lat="41.45664292250811" lon="15.513279005062037"><ele>82.0</ele><time>2026-04-19T16:56:04Z</time></trkpt><trkpt lat="41.45652327839873" lon="15.513365028366628"><ele>82.0</ele><time>2026-04-19T16:56:05Z</time></trkpt><trkpt lat="41.45640710119659" lon="15.513452084261736"><ele>82.0</ele><time>2026-04-19T16:56:06Z</time></trkpt><trkpt lat="41.45629085501009" lon="15.513537552786866"><ele>82.0</ele><time>2026-04-19T16:56:07Z</time></trkpt><trkpt lat="41.456177552999854" lon="15.513619201969194"><ele>82.0</ele><time>2026-04-19T16:56:08Z</time></trkpt><trkpt lat="41.456067160801" lon="15.51370998869219"><ele>82.0</ele><time>2026-04-19T16:56:09Z</time></trkpt><trkpt lat="41.45596445450733" lon="15.513811073966364"><ele>82.0</ele><time>2026-04-19T16:56:10Z</time></trkpt><trkpt lat="41.45586393080759" lon="15.513921221792518"><ele>82.0</ele><time>2026-04-19T16:56:11Z</time></trkpt><trkpt lat="41.45577326343973" lon="15.51402291187435"><ele>82.0</ele><time>2026-04-19T16:56:12Z</time></trkpt><trkpt lat="41.45567891889881" lon="15.514120935918152"><ele>82.0</ele><time>2026-04-19T16:56:13Z</time></trkpt><trkpt lat="41.45558289430054" lon="15.514221102224402"><ele>82.0</ele><time>2026-04-19T16:56:14Z</time></trkpt><trkpt lat="41.45548732374152" lon="15.51432504976489"><ele>82.0</ele><time>2026-04-19T16:56:15Z</time></trkpt><trkpt lat="41.455388883842396" lon="15.514428482325762"><ele>81.75</ele><time>2026-04-19T16:56:16Z</time></trkpt><trkpt lat="41.455296077797875" lon="15.514528602756341"><ele>81.5</ele><time>2026-04-19T16:56:17Z</time></trkpt><trkpt lat="41.45520832174602" lon="15.5146209635195"><ele>81.25</ele><time>2026-04-19T16:56:18Z</time></trkpt><trkpt lat="41.45511807746237" lon="15.514707788798766"><ele>81.0</ele><time>2026-04-19T16:56:19Z</time></trkpt><trkpt lat="41.45502190324369" lon="15.514776500668958"><ele>81.0</ele><time>2026-04-19T16:56:20Z</time></trkpt><trkpt lat="41.45491710846855" lon="15.51482068052797"><ele>81.0</ele><time>2026-04-19T16:56:21Z</time></trkpt><trkpt lat="41.4547933759762" lon="15.514810020510904"><ele>81.0</ele><time>2026-04-19T16:56:22Z</time></trkpt><trkpt lat="41.45469665998797" lon="15.514896020301494"><ele>81.0</ele><time>2026-04-19T16:56:23Z</time></trkpt><trkpt lat="41.45463563544101" lon="15.514987450572447"><ele>81.0</ele><time>2026-04-19T16:56:24Z</time></trkpt><trkpt lat="41.4546104043634" lon="15.515111824499044"><ele>81.0</ele><time>2026-04-19T16:56:25Z</time></trkpt><trkpt lat="41.45455401122078" lon="15.515219454523079"><ele>81.0</ele><time>2026-04-19T16:56:26Z</time></trkpt><trkpt lat="41.45448749850543" lon="15.515312236546567"><ele>81.0</ele><time>2026-04-19T16:56:27Z</time></trkpt><trkpt lat="41.45438932302238" lon="15.515394834662123"><ele>81.0</ele><time>2026-04-19T16:56:28Z</time></trkpt><trkpt lat="41.454280739918566" lon="15.51548490069865"><ele>81.0</ele><time>2026-04-19T16:56:29Z</time></trkpt><trkpt lat="41.45418017081519" lon="15.515571002997836"><ele>80.75</ele><time>2026-04-19T16:56:30Z</time></trkpt><trkpt lat="41.454075122593146" lon="15.515652998056403"><ele>80.5</ele><time>2026-04-19T16:56:31Z</time></trkpt><trkpt lat="41.45396425681157" lon="15.515740989092125"><ele>80.25</ele><time>2026-04-19T16:56:32Z</time></trkpt><trkpt lat="41.45385353172171" lon="15.515833391053649"><ele>80.0</ele><time>2026-04-19T16:56:33Z</time></trkpt><trkpt lat="41.45373563765766" lon="15.515928576461075"><ele>80.66666666666667</ele><time>2026-04-19T16:56:34Z</time></trkpt><trkpt lat="41.45361090796475" lon="15.516033055542252"><ele>81.33333333333333</ele><time>2026-04-19T16:56:35Z</time></trkpt><trkpt lat="41.45347811771744" lon="15.516151948042598"><ele>82.0</ele><time>2026-04-19T16:56:36Z</time></trkpt><trkpt lat="41.453339812697976" lon="15.516270820451284"><ele>82.0</ele><time>2026-04-19T16:56:37Z</time></trkpt><trkpt lat="41.45319997612468" lon="15.516384400788095"><ele>82.0</ele><time>2026-04-19T16:56:38Z</time></trkpt><trkpt lat="41.45305812423888" lon="15.51650748304805"><ele>82.0</ele><time>2026-04-19T16:56:39Z</time></trkpt><trkpt lat="41.45291434246804" lon="15.516642206178675"><ele>81.66666666666666</ele><time>2026-04-19T16:56:40Z</time></trkpt><trkpt lat="41.452748843358286" lon="15.516757198226111"><ele>81.33333333333333</ele><time>2026-04-19T16:56:41Z</time></trkpt><trkpt lat="41.45258979148269" lon="15.516889992158486"><ele>81.0</ele><time>2026-04-19T16:56:42Z</time></trkpt><trkpt lat="41.45242749926032" lon="15.517024829020526"><ele>81.0</ele><time>2026-04-19T16:56:43Z</time></trkpt><trkpt lat="41.45227351734883" lon="15.517150671311082"><ele>81.0</ele><time>2026-04-19T16:56:44Z</time></trkpt><trkpt lat="41.45213800130551" lon="15.517281719675841"><ele>81.0</ele><time>2026-04-19T16:56:45Z</time></trkpt><trkpt lat="41.45200189947469" lon="15.517382940776285"><ele>81.0</ele><time>2026-04-19T16:56:46Z</time></trkpt><trkpt lat="41.45187859611358" lon="15.517481390649497"><ele>81.0</ele><time>2026-04-19T16:56:47Z</time></trkpt><trkpt lat="41.451773469025945" lon="15.517563935917288"><ele>81.0</ele><time>2026-04-19T16:56:48Z</time></trkpt><trkpt lat="41.451675178894796" lon="15.517635322716021"><ele>81.0</ele><time>2026-04-19T16:56:49Z</time></trkpt><trkpt lat="41.451585356801125" lon="15.517685139080715"><ele>81.0</ele><time>2026-04-19T16:56:50Z</time></trkpt><trkpt lat="41.45148696179281" lon="15.517711140466666"><ele>81.0</ele><time>2026-04-19T16:56:51Z</time></trkpt><trkpt lat="41.45137949631375" lon="15.517707985149253"><ele>81.0</ele><time>2026-04-19T16:56:52Z</time></trkpt><trkpt lat="41.451282288134365" lon="15.517713508883938"><ele>81.0</ele><time>2026-04-19T16:56:53Z</time></trkpt><trkpt lat="41.45120251583251" lon="15.517771740868202"><ele>81.0</ele><time>2026-04-19T16:56:54Z</time></trkpt><trkpt lat="41.45114385212869" lon="15.517869624732246"><ele>80.75</ele><time>2026-04-19T16:56:55Z</time></trkpt><trkpt lat="41.45111779932753" lon="15.518004195309768"><ele>80.5</ele><time>2026-04-19T16:56:56Z</time></trkpt><trkpt lat="41.45105129486902" lon="15.518127809426005"><ele>80.25</ele><time>2026-04-19T16:56:57Z</time></trkpt><trkpt lat="41.45094881487226" lon="15.5182022456862"><ele>80.0</ele><time>2026-04-19T16:56:58Z</time></trkpt><trkpt lat="41.4508385949129" lon="15.518307088472643"><ele>80.0</ele><time>2026-04-19T16:56:59Z</time></trkpt><trkpt lat="41.450704605961576" lon="15.518402897684203"><ele>80.0</ele><time>2026-04-19T16:57:00Z</time></trkpt><trkpt lat="41.45057138005743" lon="15.518509476966138"><ele>80.0</ele><time>2026-04-19T16:57:01Z</time></trkpt><trkpt lat="41.45042910628987" lon="15.518619067355239"><ele>80.0</ele><time>2026-04-19T16:57:02Z</time></trkpt><trkpt lat="41.45028578792282" lon="15.518732740190524"><ele>80.0</ele><time>2026-04-19T16:57:03Z</time></trkpt><trkpt lat="41.450137754681506" lon="15.518850675191178"><ele>80.0</ele><time>2026-04-19T16:57:04Z</time></trkpt><trkpt lat="41.449996268272535" lon="15.518959672896687"><ele>80.0</ele><time>2026-04-19T16:57:05Z</time></trkpt><trkpt lat="41.44986283245435" lon="15.519063112497554"><ele>80.0</ele><time>2026-04-19T16:57:06Z</time></trkpt><trkpt lat="41.449731865739835" lon="15.519172522543446"><ele>80.0</ele><time>2026-04-19T16:57:07Z</time></trkpt><trkpt lat="41.44959158116647" lon="15.519286502181728"><ele>79.66666666666667</ele><time>2026-04-19T16:57:08Z</time></trkpt><trkpt lat="41.44945393506351" lon="15.519391514282086"><ele>79.33333333333333</ele><time>2026-04-19T16:57:09Z</time></trkpt><trkpt lat="41.44931440929634" lon="15.519496748987635"><ele>79.0</ele><time>2026-04-19T16:57:10Z</time></trkpt><trkpt lat="41.449175061576675" lon="15.519602474737495"><ele>79.0</ele><time>2026-04-19T16:57:11Z</time></trkpt><trkpt lat="41.449032295034506" lon="15.519714353922243"><ele>79.0</ele><time>2026-04-19T16:57:12Z</time></trkpt><trkpt lat="41.448897018116874" lon="15.519819642911832"><ele>79.0</ele><time>2026-04-19T16:57:13Z</time></trkpt><trkpt lat="41.44876327649269" lon="15.519925740991496"><ele>79.33333333333333</ele><time>2026-04-19T16:57:14Z</time></trkpt><trkpt lat="41.448631150217736" lon="15.52002761332071"><ele>79.66666666666667</ele><time>2026-04-19T16:57:15Z</time></trkpt><trkpt lat="41.448499137167964" lon="15.520130581491287"><ele>80.0</ele><time>2026-04-19T16:57:16Z</time></trkpt><trkpt lat="41.448366211234365" lon="15.520236650610748"><ele>80.0</ele><time>2026-04-19T16:57:17Z</time></trkpt><trkpt lat="41.44823134487047" lon="15.520341576620352"><ele>80.0</ele><time>2026-04-19T16:57:18Z</time></trkpt><trkpt lat="41.4480895586274" lon="15.520451897096278"><ele>80.0</ele><time>2026-04-19T16:57:19Z</time></trkpt><trkpt lat="41.44795305927602" lon="15.520561873853934"><ele>79.66666666666667</ele><time>2026-04-19T16:57:20Z</time></trkpt><trkpt lat="41.447817694346085" lon="15.520670093933322"><ele>79.33333333333333</ele><time>2026-04-19T16:57:21Z</time></trkpt><trkpt lat="41.44768355512623" lon="15.520774747486524"><ele>79.0</ele><time>2026-04-19T16:57:22Z</time></trkpt><trkpt lat="41.44754903939263" lon="15.520880206313253"><ele>79.0</ele><time>2026-04-19T16:57:23Z</time></trkpt><trkpt lat="41.44741733632663" lon="15.520984856519581"><ele>79.0</ele><time>2026-04-19T16:57:24Z</time></trkpt><trkpt lat="41.44728587028955" lon="15.52108658169131"><ele>79.0</ele><time>2026-04-19T16:57:25Z</time></trkpt><trkpt lat="41.44715051756494" lon="15.52119356443757"><ele>79.0</ele><time>2026-04-19T16:57:26Z</time></trkpt><trkpt lat="41.44702241013029" lon="15.521294430821936"><ele>79.0</ele><time>2026-04-19T16:57:27Z</time></trkpt><trkpt lat="41.44689101531446" lon="15.521401159880046"><ele>79.0</ele><time>2026-04-19T16:57:28Z</time></trkpt><trkpt lat="41.44676325194788" lon="15.521496049959387"><ele>79.0</ele><time>2026-04-19T16:57:29Z</time></trkpt><trkpt lat="41.44663278667278" lon="15.521597302717796"><ele>79.0</ele><time>2026-04-19T16:57:30Z</time></trkpt><trkpt lat="41.44650736789283" lon="15.5217043955108"><ele>79.0</ele><time>2026-04-19T16:57:31Z</time></trkpt><trkpt lat="41.446387952225614" lon="15.52181654771546"><ele>79.0</ele><time>2026-04-19T16:57:32Z</time></trkpt><trkpt lat="41.44627235176215" lon="15.521947685321079"><ele>79.0</ele><time>2026-04-19T16:57:33Z</time></trkpt><trkpt lat="41.446164794659026" lon="15.52208978909279"><ele>79.33333333333333</ele><time>2026-04-19T16:57:34Z</time></trkpt><trkpt lat="41.4460571208341" lon="15.522250184418855"><ele>79.66666666666667</ele><time>2026-04-19T16:57:35Z</time></trkpt><trkpt lat="41.44595187373485" lon="15.522419936131307"><ele>80.0</ele><time>2026-04-19T16:57:36Z</time></trkpt><trkpt lat="41.44585314821098" lon="15.522614383601379"><ele>80.0</ele><time>2026-04-19T16:57:37Z</time></trkpt><trkpt lat="41.44576806144031" lon="15.522824037416514"><ele>80.0</ele><time>2026-04-19T16:57:38Z</time></trkpt><trkpt lat="41.445690245175214" lon="15.523048586214689"><ele>80.0</ele><time>2026-04-19T16:57:39Z</time></trkpt><trkpt lat="41.445622321597476" lon="15.523283369188402"><ele>80.0</ele><time>2026-04-19T16:57:40Z</time></trkpt><trkpt lat="41.445572105786674" lon="15.523507826204325"><ele>80.0</ele><time>2026-04-19T16:57:41Z</time></trkpt><trkpt lat="41.44553861266444" lon="15.5237223292136"><ele>80.0</ele><time>2026-04-19T16:57:42Z</time></trkpt><trkpt lat="41.44551747492461" lon="15.523928271504735"><ele>79.5</ele><time>2026-04-19T16:57:43Z</time></trkpt><trkpt lat="41.44550635332543" lon="15.52413351786124"><ele>79.0</ele><time>2026-04-19T16:57:44Z</time></trkpt><trkpt lat="41.44550689120424" lon="15.524329384031226"><ele>78.5</ele><time>2026-04-19T16:57:45Z</time></trkpt><trkpt lat="41.44551420547715" lon="15.524513157486396"><ele>78.0</ele><time>2026-04-19T16:57:46Z</time></trkpt><trkpt lat="41.445522299146575" lon="15.524697009095476"><ele>78.0</ele><time>2026-04-19T16:57:47Z</time></trkpt><trkpt lat="41.44552939750829" lon="15.52486838247588"><ele>78.0</ele><time>2026-04-19T16:57:48Z</time></trkpt><trkpt lat="41.445534465575854" lon="15.525030353970283"><ele>78.0</ele><time>2026-04-19T16:57:49Z</time></trkpt><trkpt lat="41.4455386423923" lon="15.525178202109293"><ele>78.0</ele><time>2026-04-19T16:57:50Z</time></trkpt><trkpt lat="41.445543714418754" lon="15.525323905768603"><ele>78.0</ele><time>2026-04-19T16:57:51Z</time></trkpt><trkpt lat="41.44554744143873" lon="15.525470330809448"><ele>78.0</ele><time>2026-04-19T16:57:52Z</time></trkpt><trkpt lat="41.445550428267346" lon="15.525615802734583"><ele>78.0</ele><time>2026-04-19T16:57:53Z</time></trkpt><trkpt lat="41.44555415974476" lon="15.525758338110233"><ele>78.0</ele><time>2026-04-19T16:57:54Z</time></trkpt><trkpt lat="41.44555636078591" lon="15.525884833229176"><ele>78.0</ele><time>2026-04-19T16:57:55Z</time></trkpt><trkpt lat="41.44555902855855" lon="15.526006661009365"><ele>78.0</ele><time>2026-04-19T16:57:56Z</time></trkpt><trkpt lat="41.445563439722086" lon="15.526124166721218"><ele>78.0</ele><time>2026-04-19T16:57:57Z</time></trkpt><trkpt lat="41.445564838091364" lon="15.526226854996107"><ele>78.0</ele><time>2026-04-19T16:57:58Z</time></trkpt><trkpt lat="41.4455667895225" lon="15.526332480712133"><ele>78.0</ele><time>2026-04-19T16:57:59Z</time></trkpt><trkpt lat="41.44556709725231" lon="15.526420069904743"><ele>78.0</ele><time>2026-04-19T16:58:00Z</time></trkpt><trkpt lat="41.445560557245635" lon="15.526573436643094"><ele>78.0</ele><time>2026-04-19T16:58:02Z</time></trkpt><trkpt lat="41.44554353425778" lon="15.526658690996886"><ele>78.0</ele><time>2026-04-19T16:58:03Z</time></trkpt><trkpt lat="41.44550885581696" lon="15.526733824687579"><ele>78.0</ele><time>2026-04-19T16:58:04Z</time></trkpt><trkpt lat="41.44547637429827" lon="15.526806578985587"><ele>78.0</ele><time>2026-04-19T16:58:05Z</time></trkpt><trkpt lat="41.44544501116475" lon="15.526882173394306"><ele>78.0</ele><time>2026-04-19T16:58:06Z</time></trkpt><trkpt lat="41.44542721502662" lon="15.526971548148383"><ele>78.0</ele><time>2026-04-19T16:58:07Z</time></trkpt><trkpt lat="41.445428846113565" lon="15.527055880162766"><ele>78.0</ele><time>2026-04-19T16:58:08Z</time></trkpt><trkpt lat="41.44546662266578" lon="15.52719878387835"><ele>78.0</ele><time>2026-04-19T16:58:10Z</time></trkpt><trkpt lat="41.4455026226013" lon="15.527277849931629"><ele>77.8</ele><time>2026-04-19T16:58:11Z</time></trkpt><trkpt lat="41.44556749057105" lon="15.527314098895678"><ele>77.6</ele><time>2026-04-19T16:58:12Z</time></trkpt><trkpt lat="41.44557602252958" lon="15.527465200627057"><ele>77.4</ele><time>2026-04-19T16:58:13Z</time></trkpt><trkpt lat="41.44559781037189" lon="15.527594075069942"><ele>77.2</ele><time>2026-04-19T16:58:14Z</time></trkpt><trkpt lat="41.445606623706645" lon="15.527747497280396"><ele>77.0</ele><time>2026-04-19T16:58:15Z</time></trkpt><trkpt lat="41.445619160032955" lon="15.527921530306475"><ele>77.0</ele><time>2026-04-19T16:58:16Z</time></trkpt><trkpt lat="41.445631077715625" lon="15.528112818433804"><ele>77.0</ele><time>2026-04-19T16:58:17Z</time></trkpt><trkpt lat="41.4456402160852" lon="15.528310422458576"><ele>77.0</ele><time>2026-04-19T16:58:18Z</time></trkpt><trkpt lat="41.44564807906045" lon="15.528516309001276"><ele>77.0</ele><time>2026-04-19T16:58:19Z</time></trkpt><trkpt lat="41.44565842835734" lon="15.528729987033236"><ele>77.66666666666667</ele><time>2026-04-19T16:58:20Z</time></trkpt><trkpt lat="41.445672380204634" lon="15.52895244887932"><ele>78.33333333333333</ele><time>2026-04-19T16:58:21Z</time></trkpt><trkpt lat="41.445686368996675" lon="15.529184308779174"><ele>79.0</ele><time>2026-04-19T16:58:22Z</time></trkpt><trkpt lat="41.445697876846666" lon="15.529402630921817"><ele>78.33333333333333</ele><time>2026-04-19T16:58:23Z</time></trkpt><trkpt lat="41.445709537661585" lon="15.529615119395041"><ele>77.66666666666667</ele><time>2026-04-19T16:58:24Z</time></trkpt><trkpt lat="41.445720111110965" lon="15.529822363497706"><ele>77.0</ele><time>2026-04-19T16:58:25Z</time></trkpt><trkpt lat="41.445725044678404" lon="15.530033248345188"><ele>77.0</ele><time>2026-04-19T16:58:26Z</time></trkpt><trkpt lat="41.445721548506434" lon="15.530241589677656"><ele>77.0</ele><time>2026-04-19T16:58:27Z</time></trkpt><trkpt lat="41.44570583190732" lon="15.530444147720894"><ele>77.0</ele><time>2026-04-19T16:58:28Z</time></trkpt><trkpt lat="41.44567488749191" lon="15.530637149609925"><ele>77.25</ele><time>2026-04-19T16:58:29Z</time></trkpt><trkpt lat="41.445642368544" lon="15.530831527611623"><ele>77.5</ele><time>2026-04-19T16:58:30Z</time></trkpt><trkpt lat="41.44560290948466" lon="15.53101752554652"><ele>77.75</ele><time>2026-04-19T16:58:31Z</time></trkpt><trkpt lat="41.445553331880845" lon="15.531196184835206"><ele>78.0</ele><time>2026-04-19T16:58:32Z</time></trkpt><trkpt lat="41.44549542376744" lon="15.531368445762801"><ele>77.66666666666667</ele><time>2026-04-19T16:58:33Z</time></trkpt><trkpt lat="41.445430570114894" lon="15.531549376229849"><ele>77.33333333333334</ele><time>2026-04-19T16:58:34Z</time></trkpt><trkpt lat="41.44536755086031" lon="15.531728238547101"><ele>77.0</ele><time>2026-04-19T16:58:35Z</time></trkpt><trkpt lat="41.44529859282286" lon="15.531912156880667"><ele>77.25</ele><time>2026-04-19T16:58:36Z</time></trkpt><trkpt lat="41.445228390747324" lon="15.532101100404184"><ele>77.5</ele><time>2026-04-19T16:58:37Z</time></trkpt><trkpt lat="41.44516380079694" lon="15.53227562733419"><ele>77.75</ele><time>2026-04-19T16:58:38Z</time></trkpt><trkpt lat="41.44510519253195" lon="15.53243904322697"><ele>78.0</ele><time>2026-04-19T16:58:39Z</time></trkpt><trkpt lat="41.44504861617304" lon="15.532592814646634"><ele>78.0</ele><time>2026-04-19T16:58:40Z</time></trkpt><trkpt lat="41.44499202851216" lon="15.532746981186511"><ele>78.0</ele><time>2026-04-19T16:58:41Z</time></trkpt><trkpt lat="41.44493966716124" lon="15.532894943489902"><ele>78.0</ele><time>2026-04-19T16:58:42Z</time></trkpt><trkpt lat="41.44489051888839" lon="15.533031730222504"><ele>78.0</ele><time>2026-04-19T16:58:43Z</time></trkpt><trkpt lat="41.44484264646268" lon="15.533166828187726"><ele>78.0</ele><time>2026-04-19T16:58:44Z</time></trkpt><trkpt lat="41.44479635101658" lon="15.533288712865332"><ele>78.0</ele><time>2026-04-19T16:58:45Z</time></trkpt><trkpt lat="41.44475271052798" lon="15.533393138915072"><ele>78.0</ele><time>2026-04-19T16:58:46Z</time></trkpt><trkpt lat="41.44471491273029" lon="15.533474398192087"><ele>78.0</ele><time>2026-04-19T16:58:47Z</time></trkpt><trkpt lat="41.44466935100424" lon="15.53354654069737"><ele>78.0</ele><time>2026-04-19T16:58:48Z</time></trkpt><trkpt lat="41.44460583530545" lon="15.53360246402741"><ele>78.0</ele><time>2026-04-19T16:58:49Z</time></trkpt><trkpt lat="41.44453370554741" lon="15.533643895199564"><ele>78.0</ele><time>2026-04-19T16:58:50Z</time></trkpt><trkpt lat="41.44445860868275" lon="15.533646114131017"><ele>78.0</ele><time>2026-04-19T16:58:51Z</time></trkpt><trkpt lat="41.44437203665416" lon="15.533621265483745"><ele>78.0</ele><time>2026-04-19T16:58:52Z</time></trkpt><trkpt lat="41.4442690576974" lon="15.533553148639395"><ele>78.0</ele><time>2026-04-19T16:58:53Z</time></trkpt><trkpt lat="41.444175073645425" lon="15.533476568730277"><ele>78.0</ele><time>2026-04-19T16:58:54Z</time></trkpt><trkpt lat="41.44408469554029" lon="15.533415970923423"><ele>78.0</ele><time>2026-04-19T16:58:55Z</time></trkpt><trkpt lat="41.443994295762096" lon="15.53335641672144"><ele>78.0</ele><time>2026-04-19T16:58:56Z</time></trkpt><trkpt lat="41.44390713869243" lon="15.53330415018374"><ele>78.0</ele><time>2026-04-19T16:58:57Z</time></trkpt><trkpt lat="41.443823116813725" lon="15.533257312331004"><ele>78.0</ele><time>2026-04-19T16:58:58Z</time></trkpt><trkpt lat="41.44373746105136" lon="15.53321588659339"><ele>78.0</ele><time>2026-04-19T16:58:59Z</time></trkpt><trkpt lat="41.44364973054868" lon="15.533174907256633"><ele>77.8</ele><time>2026-04-19T16:59:00Z</time></trkpt><trkpt lat="41.443556227213314" lon="15.533134195475776"><ele>77.6</ele><time>2026-04-19T16:59:01Z</time></trkpt><trkpt lat="41.4434533780973" lon="15.53309570815361"><ele>77.4</ele><time>2026-04-19T16:59:02Z</time></trkpt><trkpt lat="41.44334675086131" lon="15.53305774855843"><ele>77.2</ele><time>2026-04-19T16:59:03Z</time></trkpt><trkpt lat="41.443244323282606" lon="15.533022877792966"><ele>77.0</ele><time>2026-04-19T16:59:04Z</time></trkpt><trkpt lat="41.443153334813175" lon="15.53298717900654"><ele>77.0</ele><time>2026-04-19T16:59:05Z</time></trkpt><trkpt lat="41.44305857826651" lon="15.532951244969935"><ele>77.0</ele><time>2026-04-19T16:59:06Z</time></trkpt><trkpt lat="41.442964083279435" lon="15.532914395227692"><ele>77.0</ele><time>2026-04-19T16:59:07Z</time></trkpt><trkpt lat="41.44287993567033" lon="15.53287122963808"><ele>77.0</ele><time>2026-04-19T16:59:08Z</time></trkpt><trkpt lat="41.44281335180446" lon="15.532814060166997"><ele>77.0</ele><time>2026-04-19T16:59:09Z</time></trkpt><trkpt lat="41.44275548735404" lon="15.532730680193335"><ele>77.16666666666667</ele><time>2026-04-19T16:59:10Z</time></trkpt><trkpt lat="41.442693811869766" lon="15.532643732712057"><ele>77.33333333333334</ele><time>2026-04-19T16:59:11Z</time></trkpt><trkpt lat="41.44262845448924" lon="15.532596141121086"><ele>77.5</ele><time>2026-04-19T16:59:12Z</time></trkpt><trkpt lat="41.442559710947705" lon="15.532551348940501"><ele>77.66666666666667</ele><time>2026-04-19T16:59:13Z</time></trkpt><trkpt lat="41.44246371514605" lon="15.532549406725726"><ele>77.83333333333333</ele><time>2026-04-19T16:59:14Z</time></trkpt><trkpt lat="41.44238430910787" lon="15.53259341710473"><ele>78.0</ele><time>2026-04-19T16:59:15Z</time></trkpt><trkpt lat="41.44232197921004" lon="15.532681670056988"><ele>78.0</ele><time>2026-04-19T16:59:16Z</time></trkpt><trkpt lat="41.44228762783638" lon="15.532791809764147"><ele>78.0</ele><time>2026-04-19T16:59:17Z</time></trkpt><trkpt lat="41.442301997023705" lon="15.532926891706225"><ele>78.0</ele><time>2026-04-19T16:59:18Z</time></trkpt><trkpt lat="41.442334610024666" lon="15.5330357671849"><ele>78.0</ele><time>2026-04-19T16:59:19Z</time></trkpt><trkpt lat="41.44226214021145" lon="15.5331860437236"><ele>78.0</ele><time>2026-04-19T16:59:20Z</time></trkpt><trkpt lat="41.44219214389026" lon="15.533321334491367"><ele>77.75</ele><time>2026-04-19T16:59:21Z</time></trkpt><trkpt lat="41.44211146738966" lon="15.53348038380701"><ele>77.5</ele><time>2026-04-19T16:59:22Z</time></trkpt><trkpt lat="41.442076180943545" lon="15.533564123197147"><ele>77.25</ele><time>2026-04-19T16:59:23Z</time></trkpt><trkpt lat="41.44200464754018" lon="15.533713440308048"><ele>77.0</ele><time>2026-04-19T16:59:24Z</time></trkpt><trkpt lat="41.44193754674897" lon="15.533857759306011"><ele>76.5</ele><time>2026-04-19T16:59:25Z</time></trkpt><trkpt lat="41.44188203280137" lon="15.534014477530578"><ele>76.0</ele><time>2026-04-19T16:59:26Z</time></trkpt><trkpt lat="41.44184043447312" lon="15.534184673405019"><ele>75.5</ele><time>2026-04-19T16:59:27Z</time></trkpt><trkpt lat="41.441801434524244" lon="15.534372026988262"><ele>75.0</ele><time>2026-04-19T16:59:28Z</time></trkpt><trkpt lat="41.44176856462294" lon="15.534562397868497"><ele>75.0</ele><time>2026-04-19T16:59:29Z</time></trkpt><trkpt lat="41.44175482406211" lon="15.534744331250069"><ele>75.0</ele><time>2026-04-19T16:59:30Z</time></trkpt><trkpt lat="41.441745703030634" lon="15.534918033794618"><ele>75.0</ele><time>2026-04-19T16:59:31Z</time></trkpt><trkpt lat="41.44173272356445" lon="15.535088975275837"><ele>75.0</ele><time>2026-04-19T16:59:32Z</time></trkpt><trkpt lat="41.44173318162711" lon="15.535255809195146"><ele>74.75</ele><time>2026-04-19T16:59:33Z</time></trkpt><trkpt lat="41.44173175729498" lon="15.535425965500233"><ele>74.5</ele><time>2026-04-19T16:59:34Z</time></trkpt><trkpt lat="41.441728277493354" lon="15.535599524856758"><ele>74.25</ele><time>2026-04-19T16:59:35Z</time></trkpt><trkpt lat="41.44172144728081" lon="15.535782863046173"><ele>74.0</ele><time>2026-04-19T16:59:36Z</time></trkpt><trkpt lat="41.44171622355971" lon="15.535966560077032"><ele>74.0</ele><time>2026-04-19T16:59:37Z</time></trkpt><trkpt lat="41.44170611619226" lon="15.536151372046593"><ele>74.0</ele><time>2026-04-19T16:59:38Z</time></trkpt><trkpt lat="41.44169670264478" lon="15.53634090893218"><ele>74.0</ele><time>2026-04-19T16:59:39Z</time></trkpt><trkpt lat="41.44168894299222" lon="15.536534784918617"><ele>74.0</ele><time>2026-04-19T16:59:40Z</time></trkpt><trkpt lat="41.44167835859946" lon="15.536727684177388"><ele>73.66666666666667</ele><time>2026-04-19T16:59:41Z</time></trkpt><trkpt lat="41.44166282928477" lon="15.536932100567968"><ele>73.33333333333333</ele><time>2026-04-19T16:59:42Z</time></trkpt><trkpt lat="41.44165708125463" lon="15.537145052519115"><ele>73.0</ele><time>2026-04-19T16:59:43Z</time></trkpt><trkpt lat="41.4416471911694" lon="15.537364102511669"><ele>72.66666666666666</ele><time>2026-04-19T16:59:44Z</time></trkpt><trkpt lat="41.44163311802134" lon="15.537570719201739"><ele>72.33333333333333</ele><time>2026-04-19T16:59:45Z</time></trkpt><trkpt lat="41.441622325195326" lon="15.537778877839612"><ele>72.0</ele><time>2026-04-19T16:59:46Z</time></trkpt><trkpt lat="41.44161359037477" lon="15.537984385973042"><ele>72.5</ele><time>2026-04-19T16:59:47Z</time></trkpt><trkpt lat="41.4416041081978" lon="15.538182721552715"><ele>73.0</ele><time>2026-04-19T16:59:48Z</time></trkpt><trkpt lat="41.44159271221501" lon="15.538381553663143"><ele>73.5</ele><time>2026-04-19T16:59:49Z</time></trkpt><trkpt lat="41.44158290960877" lon="15.53857358681975"><ele>74.0</ele><time>2026-04-19T16:59:50Z</time></trkpt><trkpt lat="41.44157320929765" lon="15.538765147299861"><ele>74.0</ele><time>2026-04-19T16:59:51Z</time></trkpt><trkpt lat="41.44156292104483" lon="15.538953388053638"><ele>74.0</ele><time>2026-04-19T16:59:52Z</time></trkpt><trkpt lat="41.44155175741888" lon="15.539131268692657"><ele>74.0</ele><time>2026-04-19T16:59:53Z</time></trkpt><trkpt lat="41.44154731532427" lon="15.539316124984785"><ele>74.0</ele><time>2026-04-19T16:59:54Z</time></trkpt><trkpt lat="41.441541886622645" lon="15.539502299322704"><ele>73.75</ele><time>2026-04-19T16:59:55Z</time></trkpt><trkpt lat="41.44152890133952" lon="15.5396849545235"><ele>73.5</ele><time>2026-04-19T16:59:56Z</time></trkpt><trkpt lat="41.44151512451268" lon="15.539859062508512"><ele>73.25</ele><time>2026-04-19T16:59:57Z</time></trkpt><trkpt lat="41.441516077452725" lon="15.540013806221683"><ele>73.0</ele><time>2026-04-19T16:59:58Z</time></trkpt><trkpt lat="41.44151517651632" lon="15.540166121008486"><ele>72.66666666666666</ele><time>2026-04-19T16:59:59Z</time></trkpt><trkpt lat="41.441491150640395" lon="15.540443944117737"><ele>72.33333333333333</ele><time>2026-04-19T17:00:00Z</time></trkpt><trkpt lat="41.44147875800721" lon="15.540631258257731"><ele>72.0</ele><time>2026-04-19T17:00:01Z</time></trkpt><trkpt lat="41.441468956624995" lon="15.540825189822977"><ele>72.0</ele><time>2026-04-19T17:00:02Z</time></trkpt><trkpt lat="41.44146190567874" lon="15.541002587013514"><ele>72.0</ele><time>2026-04-19T17:00:03Z</time></trkpt><trkpt lat="41.44145292957167" lon="15.541177522027395"><ele>72.0</ele><time>2026-04-19T17:00:04Z</time></trkpt><trkpt lat="41.441444955684844" lon="15.541349773575346"><ele>72.0</ele><time>2026-04-19T17:00:05Z</time></trkpt><trkpt lat="41.4414377757353" lon="15.541526456519597"><ele>72.0</ele><time>2026-04-19T17:00:06Z</time></trkpt><trkpt lat="41.44142903302405" lon="15.541700191350971"><ele>72.0</ele><time>2026-04-19T17:00:07Z</time></trkpt><trkpt lat="41.44141857933299" lon="15.541868417359114"><ele>72.0</ele><time>2026-04-19T17:00:08Z</time></trkpt><trkpt lat="41.44139461712546" lon="15.542044886123762"><ele>72.0</ele><time>2026-04-19T17:00:09Z</time></trkpt><trkpt lat="41.441356686836095" lon="15.542234376780812"><ele>72.0</ele><time>2026-04-19T17:00:10Z</time></trkpt><trkpt lat="41.441304477308925" lon="15.542427792098513"><ele>72.0</ele><time>2026-04-19T17:00:11Z</time></trkpt><trkpt lat="41.44123760572718" lon="15.542629198408985"><ele>72.0</ele><time>2026-04-19T17:00:12Z</time></trkpt><trkpt lat="41.441143034054704" lon="15.542806005680454"><ele>72.0</ele><time>2026-04-19T17:00:13Z</time></trkpt><trkpt lat="41.441072377771405" lon="15.542997576493693"><ele>72.0</ele><time>2026-04-19T17:00:14Z</time></trkpt><trkpt lat="41.440990596527364" lon="15.543170640879316"><ele>72.0</ele><time>2026-04-19T17:00:15Z</time></trkpt><trkpt lat="41.440914227754725" lon="15.543327632452975"><ele>72.0</ele><time>2026-04-19T17:00:16Z</time></trkpt><trkpt lat="41.4408427447267" lon="15.54347249460355"><ele>72.0</ele><time>2026-04-19T17:00:17Z</time></trkpt><trkpt lat="41.44077452853916" lon="15.543616056907835"><ele>72.0</ele><time>2026-04-19T17:00:18Z</time></trkpt><trkpt lat="41.44071263692062" lon="15.5437492263308"><ele>72.0</ele><time>2026-04-19T17:00:19Z</time></trkpt><trkpt lat="41.44065317936128" lon="15.543873054573233"><ele>72.0</ele><time>2026-04-19T17:00:20Z</time></trkpt><trkpt lat="41.440601416732825" lon="15.54399365987933"><ele>72.0</ele><time>2026-04-19T17:00:21Z</time></trkpt><trkpt lat="41.44054675795405" lon="15.544106364219958"><ele>72.0</ele><time>2026-04-19T17:00:22Z</time></trkpt><trkpt lat="41.44048367734764" lon="15.544210090842796"><ele>72.0</ele><time>2026-04-19T17:00:23Z</time></trkpt><trkpt lat="41.44040124208226" lon="15.544296165585529"><ele>72.0</ele><time>2026-04-19T17:00:24Z</time></trkpt><trkpt lat="41.44027398542027" lon="15.544340474571307"><ele>72.0</ele><time>2026-04-19T17:00:25Z</time></trkpt><trkpt lat="41.440155049669045" lon="15.544382585038427"><ele>72.0</ele><time>2026-04-19T17:00:26Z</time></trkpt><trkpt lat="41.44005445108704" lon="15.544417623376784"><ele>72.0</ele><time>2026-04-19T17:00:27Z</time></trkpt><trkpt lat="41.43995729791055" lon="15.544491557055684"><ele>72.0</ele><time>2026-04-19T17:00:28Z</time></trkpt><trkpt lat="41.4398795881809" lon="15.544604100187007"><ele>72.25</ele><time>2026-04-19T17:00:29Z</time></trkpt><trkpt lat="41.43982192166995" lon="15.544736676333983"><ele>72.5</ele><time>2026-04-19T17:00:30Z</time></trkpt><trkpt lat="41.43977671753495" lon="15.544892161176884"><ele>72.75</ele><time>2026-04-19T17:00:31Z</time></trkpt><trkpt lat="41.439745340936994" lon="15.545068038376424"><ele>73.0</ele><time>2026-04-19T17:00:32Z</time></trkpt><trkpt lat="41.43971606425182" lon="15.545248556233746"><ele>72.75</ele><time>2026-04-19T17:00:33Z</time></trkpt><trkpt lat="41.43969216300911" lon="15.545425095110959"><ele>72.5</ele><time>2026-04-19T17:00:34Z</time></trkpt><trkpt lat="41.43967927147567" lon="15.5455851661794"><ele>72.25</ele><time>2026-04-19T17:00:35Z</time></trkpt><trkpt lat="41.43967491414275" lon="15.545734297628078"><ele>72.0</ele><time>2026-04-19T17:00:36Z</time></trkpt><trkpt lat="41.43967580412913" lon="15.545877022648133"><ele>72.0</ele><time>2026-04-19T17:00:37Z</time></trkpt><trkpt lat="41.43967637135336" lon="15.546022378908482"><ele>72.0</ele><time>2026-04-19T17:00:38Z</time></trkpt><trkpt lat="41.43966519604021" lon="15.546166525680839"><ele>72.0</ele><time>2026-04-19T17:00:39Z</time></trkpt><trkpt lat="41.43963102184764" lon="15.546303121635688"><ele>72.0</ele><time>2026-04-19T17:00:40Z</time></trkpt><trkpt lat="41.43956065515588" lon="15.546443394281448"><ele>72.25</ele><time>2026-04-19T17:00:41Z</time></trkpt><trkpt lat="41.43946224373672" lon="15.546576572477596"><ele>72.5</ele><time>2026-04-19T17:00:42Z</time></trkpt><trkpt lat="41.43934915682368" lon="15.546712493230475"><ele>72.75</ele><time>2026-04-19T17:00:43Z</time></trkpt><trkpt lat="41.43925182134922" lon="15.546846578233076"><ele>73.0</ele><time>2026-04-19T17:00:44Z</time></trkpt><trkpt lat="41.43915556864495" lon="15.546985719160867"><ele>72.75</ele><time>2026-04-19T17:00:45Z</time></trkpt><trkpt lat="41.4390646770173" lon="15.547114427260857"><ele>72.5</ele><time>2026-04-19T17:00:46Z</time></trkpt><trkpt lat="41.43898127276125" lon="15.547243692659626"><ele>72.25</ele><time>2026-04-19T17:00:47Z</time></trkpt><trkpt lat="41.43889793944937" lon="15.547374958139303"><ele>72.0</ele><time>2026-04-19T17:00:48Z</time></trkpt><trkpt lat="41.43881197130158" lon="15.547515245435399"><ele>72.25</ele><time>2026-04-19T17:00:49Z</time></trkpt><trkpt lat="41.43872612695335" lon="15.547660188641277"><ele>72.5</ele><time>2026-04-19T17:00:50Z</time></trkpt><trkpt lat="41.438640857342406" lon="15.547810285230332"><ele>72.75</ele><time>2026-04-19T17:00:51Z</time></trkpt><trkpt lat="41.43855200859063" lon="15.547964905080573"><ele>73.0</ele><time>2026-04-19T17:00:52Z</time></trkpt><trkpt lat="41.43845963149761" lon="15.548112484989577"><ele>72.5</ele><time>2026-04-19T17:00:53Z</time></trkpt><trkpt lat="41.43836914915764" lon="15.548259017147508"><ele>72.0</ele><time>2026-04-19T17:00:54Z</time></trkpt><trkpt lat="41.438278476361546" lon="15.54842042157493"><ele>71.5</ele><time>2026-04-19T17:00:55Z</time></trkpt><trkpt lat="41.43819042389797" lon="15.548572215575403"><ele>71.0</ele><time>2026-04-19T17:00:56Z</time></trkpt><trkpt lat="41.438098819688264" lon="15.548727082191824"><ele>71.0</ele><time>2026-04-19T17:00:57Z</time></trkpt><trkpt lat="41.438006128574905" lon="15.548884219131558"><ele>71.0</ele><time>2026-04-19T17:00:58Z</time></trkpt><trkpt lat="41.43791373268349" lon="15.549040936179486"><ele>71.0</ele><time>2026-04-19T17:00:59Z</time></trkpt><trkpt lat="41.43782145068376" lon="15.549190664291837"><ele>71.0</ele><time>2026-04-19T17:01:00Z</time></trkpt><trkpt lat="41.437728737572606" lon="15.549348945391621"><ele>71.33333333333334</ele><time>2026-04-19T17:01:01Z</time></trkpt><trkpt lat="41.43763281199325" lon="15.54951028885713"><ele>71.66666666666667</ele><time>2026-04-19T17:01:02Z</time></trkpt><trkpt lat="41.437534819568754" lon="15.549664280134243"><ele>72.0</ele><time>2026-04-19T17:01:03Z</time></trkpt><trkpt lat="41.43744248982546" lon="15.549813453648982"><ele>72.0</ele><time>2026-04-19T17:01:04Z</time></trkpt><trkpt lat="41.43735171965891" lon="15.549964505727399"><ele>72.0</ele><time>2026-04-19T17:01:05Z</time></trkpt><trkpt lat="41.437258660420774" lon="15.550119555781206"><ele>72.0</ele><time>2026-04-19T17:01:06Z</time></trkpt><trkpt lat="41.437162096143965" lon="15.550272426944932"><ele>72.0</ele><time>2026-04-19T17:01:07Z</time></trkpt><trkpt lat="41.437064028425006" lon="15.550421602687086"><ele>71.66666666666667</ele><time>2026-04-19T17:01:08Z</time></trkpt><trkpt lat="41.436968118840355" lon="15.55057827664424"><ele>71.33333333333334</ele><time>2026-04-19T17:01:09Z</time></trkpt><trkpt lat="41.436864089889575" lon="15.550742583047555"><ele>71.0</ele><time>2026-04-19T17:01:10Z</time></trkpt><trkpt lat="41.43675869758739" lon="15.550904591523516"><ele>71.0</ele><time>2026-04-19T17:01:11Z</time></trkpt><trkpt lat="41.43665625861379" lon="15.551058259941575"><ele>71.0</ele><time>2026-04-19T17:01:12Z</time></trkpt><trkpt lat="41.43655186465919" lon="15.55120733101152"><ele>71.0</ele><time>2026-04-19T17:01:13Z</time></trkpt><trkpt lat="41.43644500677452" lon="15.551360101108662"><ele>70.66666666666667</ele><time>2026-04-19T17:01:14Z</time></trkpt><trkpt lat="41.436335479982354" lon="15.55151521007122"><ele>70.33333333333333</ele><time>2026-04-19T17:01:15Z</time></trkpt><trkpt lat="41.43623164386331" lon="15.551656297029014"><ele>70.0</ele><time>2026-04-19T17:01:16Z</time></trkpt><trkpt lat="41.43612055511586" lon="15.55181221973381"><ele>70.0</ele><time>2026-04-19T17:01:17Z</time></trkpt><trkpt lat="41.43600454451615" lon="15.551971585757006"><ele>70.0</ele><time>2026-04-19T17:01:18Z</time></trkpt><trkpt lat="41.43588851299299" lon="15.552126995338515"><ele>70.0</ele><time>2026-04-19T17:01:19Z</time></trkpt><trkpt lat="41.43576817712778" lon="15.552278473612688"><ele>70.33333333333333</ele><time>2026-04-19T17:01:20Z</time></trkpt><trkpt lat="41.435645189260924" lon="15.552431920052143"><ele>70.66666666666667</ele><time>2026-04-19T17:01:21Z</time></trkpt><trkpt lat="41.435524025176356" lon="15.552588917515367"><ele>71.0</ele><time>2026-04-19T17:01:22Z</time></trkpt><trkpt lat="41.43540292207417" lon="15.552741512859429"><ele>71.33333333333334</ele><time>2026-04-19T17:01:23Z</time></trkpt><trkpt lat="41.435284097804306" lon="15.552884112288464"><ele>71.66666666666667</ele><time>2026-04-19T17:01:24Z</time></trkpt><trkpt lat="41.43515970918152" lon="15.55302904520411"><ele>72.0</ele><time>2026-04-19T17:01:25Z</time></trkpt><trkpt lat="41.43503885440643" lon="15.553173694030662"><ele>72.0</ele><time>2026-04-19T17:01:26Z</time></trkpt><trkpt lat="41.434917451467356" lon="15.553311949632025"><ele>72.0</ele><time>2026-04-19T17:01:27Z</time></trkpt><trkpt lat="41.43479212606615" lon="15.553445774841709"><ele>72.0</ele><time>2026-04-19T17:01:28Z</time></trkpt><trkpt lat="41.43466775557338" lon="15.553575004321146"><ele>72.33333333333333</ele><time>2026-04-19T17:01:29Z</time></trkpt><trkpt lat="41.43453997067136" lon="15.553714225884224"><ele>72.66666666666666</ele><time>2026-04-19T17:01:30Z</time></trkpt><trkpt lat="41.43440544046601" lon="15.553851939870656"><ele>73.0</ele><time>2026-04-19T17:01:31Z</time></trkpt><trkpt lat="41.434269645137036" lon="15.553976661575494"><ele>73.0</ele><time>2026-04-19T17:01:32Z</time></trkpt><trkpt lat="41.4341196223777" lon="15.554116659513664"><ele>73.0</ele><time>2026-04-19T17:01:33Z</time></trkpt><trkpt lat="41.43398726611339" lon="15.554262082362637"><ele>73.0</ele><time>2026-04-19T17:01:34Z</time></trkpt><trkpt lat="41.43384453174293" lon="15.554405513805273"><ele>72.33333333333333</ele><time>2026-04-19T17:01:35Z</time></trkpt><trkpt lat="41.43368980199983" lon="15.554550260298877"><ele>71.66666666666667</ele><time>2026-04-19T17:01:36Z</time></trkpt><trkpt lat="41.43353848840085" lon="15.554692849072525"><ele>71.0</ele><time>2026-04-19T17:01:37Z</time></trkpt><trkpt lat="41.433395459623185" lon="15.55482461336712"><ele>71.0</ele><time>2026-04-19T17:01:38Z</time></trkpt><trkpt lat="41.43325221245296" lon="15.554948738067507"><ele>71.0</ele><time>2026-04-19T17:01:39Z</time></trkpt><trkpt lat="41.433107645835015" lon="15.555072899259756"><ele>71.0</ele><time>2026-04-19T17:01:40Z</time></trkpt><trkpt lat="41.432964745432244" lon="15.555195343879124"><ele>71.33333333333334</ele><time>2026-04-19T17:01:41Z</time></trkpt><trkpt lat="41.43282155582957" lon="15.555312038143425"><ele>71.66666666666667</ele><time>2026-04-19T17:01:42Z</time></trkpt><trkpt lat="41.43267211006081" lon="15.55542985359531"><ele>72.0</ele><time>2026-04-19T17:01:43Z</time></trkpt><trkpt lat="41.432522691537926" lon="15.555539927686697"><ele>72.0</ele><time>2026-04-19T17:01:44Z</time></trkpt><trkpt lat="41.432372592515605" lon="15.55565321751633"><ele>72.0</ele><time>2026-04-19T17:01:45Z</time></trkpt><trkpt lat="41.43222785784532" lon="15.55576698295702"><ele>72.0</ele><time>2026-04-19T17:01:46Z</time></trkpt><trkpt lat="41.43207816221594" lon="15.5558807702406"><ele>72.33333333333333</ele><time>2026-04-19T17:01:47Z</time></trkpt><trkpt lat="41.43193463119054" lon="15.555979349228691"><ele>72.66666666666666</ele><time>2026-04-19T17:01:48Z</time></trkpt><trkpt lat="41.43179071739034" lon="15.556076619453753"><ele>73.0</ele><time>2026-04-19T17:01:49Z</time></trkpt><trkpt lat="41.43164941767115" lon="15.556179259513357"><ele>73.0</ele><time>2026-04-19T17:01:50Z</time></trkpt><trkpt lat="41.43150560259971" lon="15.556290457906991"><ele>73.0</ele><time>2026-04-19T17:01:51Z</time></trkpt><trkpt lat="41.43135979354215" lon="15.556396710601044"><ele>73.0</ele><time>2026-04-19T17:01:52Z</time></trkpt><trkpt lat="41.4312070306899" lon="15.55650380520942"><ele>74.0</ele><time>2026-04-19T17:01:53Z</time></trkpt><trkpt lat="41.431055664460104" lon="15.55661057765903"><ele>75.0</ele><time>2026-04-19T17:01:54Z</time></trkpt><trkpt lat="41.430896156442024" lon="15.556730931078283"><ele>76.0</ele><time>2026-04-19T17:01:55Z</time></trkpt><trkpt lat="41.430749400925315" lon="15.556844579943467"><ele>76.0</ele><time>2026-04-19T17:01:56Z</time></trkpt><trkpt lat="41.4306025500483" lon="15.556949866413412"><ele>76.0</ele><time>2026-04-19T17:01:57Z</time></trkpt><trkpt lat="41.43044879899533" lon="15.557061211187982"><ele>76.0</ele><time>2026-04-19T17:01:58Z</time></trkpt><trkpt lat="41.43029163670198" lon="15.557173489210207"><ele>75.66666666666666</ele><time>2026-04-19T17:01:59Z</time></trkpt><trkpt lat="41.430136416965304" lon="15.55728364139401"><ele>75.33333333333333</ele><time>2026-04-19T17:02:00Z</time></trkpt><trkpt lat="41.4299823449754" lon="15.557390467870032"><ele>75.0</ele><time>2026-04-19T17:02:01Z</time></trkpt><trkpt lat="41.42982978416557" lon="15.55749413714002"><ele>75.0</ele><time>2026-04-19T17:02:02Z</time></trkpt><trkpt lat="41.42968125546875" lon="15.557584141966823"><ele>75.0</ele><time>2026-04-19T17:02:03Z</time></trkpt><trkpt lat="41.429542044645416" lon="15.557665577951322"><ele>75.0</ele><time>2026-04-19T17:02:04Z</time></trkpt><trkpt lat="41.429400381852425" lon="15.557749240295802"><ele>74.66666666666667</ele><time>2026-04-19T17:02:05Z</time></trkpt><trkpt lat="41.429255657447946" lon="15.557830959679412"><ele>74.33333333333334</ele><time>2026-04-19T17:02:06Z</time></trkpt><trkpt lat="41.4291103620188" lon="15.557906679246056"><ele>74.0</ele><time>2026-04-19T17:02:07Z</time></trkpt><trkpt lat="41.42896539386064" lon="15.557977253651748"><ele>73.66666666666667</ele><time>2026-04-19T17:02:08Z</time></trkpt><trkpt lat="41.42881679181844" lon="15.558052700133068"><ele>73.33333333333333</ele><time>2026-04-19T17:02:09Z</time></trkpt><trkpt lat="41.4286684386751" lon="15.558126153457728"><ele>73.0</ele><time>2026-04-19T17:02:10Z</time></trkpt><trkpt lat="41.42851631982801" lon="15.558196077738339"><ele>73.0</ele><time>2026-04-19T17:02:11Z</time></trkpt><trkpt lat="41.428360857875084" lon="15.558263775939066"><ele>73.0</ele><time>2026-04-19T17:02:12Z</time></trkpt><trkpt lat="41.42820618621654" lon="15.558328171148304"><ele>73.0</ele><time>2026-04-19T17:02:13Z</time></trkpt><trkpt lat="41.428052871493826" lon="15.558391860100327"><ele>73.0</ele><time>2026-04-19T17:02:14Z</time></trkpt><trkpt lat="41.42789853254863" lon="15.558458004736003"><ele>73.0</ele><time>2026-04-19T17:02:15Z</time></trkpt><trkpt lat="41.42775133322329" lon="15.558518994307626"><ele>73.0</ele><time>2026-04-19T17:02:16Z</time></trkpt><trkpt lat="41.42760175136654" lon="15.558574698743532"><ele>73.0</ele><time>2026-04-19T17:02:17Z</time></trkpt><trkpt lat="41.42745162634058" lon="15.558631144939355"><ele>73.0</ele><time>2026-04-19T17:02:18Z</time></trkpt><trkpt lat="41.427295611949084" lon="15.558689337172655"><ele>73.0</ele><time>2026-04-19T17:02:19Z</time></trkpt><trkpt lat="41.42713792015167" lon="15.558743193784515"><ele>73.0</ele><time>2026-04-19T17:02:20Z</time></trkpt><trkpt lat="41.42696943735347" lon="15.558789723211671"><ele>73.0</ele><time>2026-04-19T17:02:21Z</time></trkpt><trkpt lat="41.42679523681731" lon="15.55882903569072"><ele>73.0</ele><time>2026-04-19T17:02:22Z</time></trkpt><trkpt lat="41.42661955679344" lon="15.558872426026701"><ele>73.0</ele><time>2026-04-19T17:02:23Z</time></trkpt><trkpt lat="41.4264519249255" lon="15.558915787580702"><ele>73.0</ele><time>2026-04-19T17:02:24Z</time></trkpt><trkpt lat="41.42628739865871" lon="15.558955101569065"><ele>73.0</ele><time>2026-04-19T17:02:25Z</time></trkpt><trkpt lat="41.42612123172347" lon="15.558987702397065"><ele>73.0</ele><time>2026-04-19T17:02:26Z</time></trkpt><trkpt lat="41.425959017083876" lon="15.559019461630356"><ele>73.0</ele><time>2026-04-19T17:02:27Z</time></trkpt><trkpt lat="41.42580150773183" lon="15.559049050409154"><ele>73.0</ele><time>2026-04-19T17:02:28Z</time></trkpt><trkpt lat="41.425640389170056" lon="15.559073736283397"><ele>73.0</ele><time>2026-04-19T17:02:29Z</time></trkpt><trkpt lat="41.425481870907674" lon="15.559095318733675"><ele>73.0</ele><time>2026-04-19T17:02:30Z</time></trkpt><trkpt lat="41.42531428758406" lon="15.559115780605515"><ele>73.0</ele><time>2026-04-19T17:02:31Z</time></trkpt><trkpt lat="41.42515476011916" lon="15.559132895031018"><ele>73.33333333333333</ele><time>2026-04-19T17:02:32Z</time></trkpt><trkpt lat="41.42498806880572" lon="15.559141360719572"><ele>73.66666666666667</ele><time>2026-04-19T17:02:33Z</time></trkpt><trkpt lat="41.42481388197149" lon="15.559154257995237"><ele>74.0</ele><time>2026-04-19T17:02:34Z</time></trkpt><trkpt lat="41.42464583727323" lon="15.559166811098983"><ele>74.33333333333334</ele><time>2026-04-19T17:02:35Z</time></trkpt><trkpt lat="41.42449187819942" lon="15.55916885155349"><ele>74.66666666666667</ele><time>2026-04-19T17:02:36Z</time></trkpt><trkpt lat="41.424319466895874" lon="15.559182123873397"><ele>75.0</ele><time>2026-04-19T17:02:37Z</time></trkpt><trkpt lat="41.424152887348065" lon="15.559185226464804"><ele>75.0</ele><time>2026-04-19T17:02:38Z</time></trkpt><trkpt lat="41.42397695349316" lon="15.559189340246395"><ele>75.0</ele><time>2026-04-19T17:02:39Z</time></trkpt><trkpt lat="41.42380152156906" lon="15.559187060782131"><ele>75.0</ele><time>2026-04-19T17:02:40Z</time></trkpt><trkpt lat="41.42362907713073" lon="15.559178492805449"><ele>74.66666666666667</ele><time>2026-04-19T17:02:41Z</time></trkpt><trkpt lat="41.42345769216764" lon="15.55917292354916"><ele>74.33333333333334</ele><time>2026-04-19T17:02:42Z</time></trkpt><trkpt lat="41.423299492231685" lon="15.559160945610873"><ele>74.0</ele><time>2026-04-19T17:02:43Z</time></trkpt><trkpt lat="41.423140013932034" lon="15.559141395278788"><ele>72.66666666666667</ele><time>2026-04-19T17:02:44Z</time></trkpt><trkpt lat="41.42297709786638" lon="15.559119539760268"><ele>71.33333333333333</ele><time>2026-04-19T17:02:45Z</time></trkpt><trkpt lat="41.42281289587212" lon="15.559099079347899"><ele>70.0</ele><time>2026-04-19T17:02:46Z</time></trkpt><trkpt lat="41.42264696425008" lon="15.559077763056253"><ele>70.0</ele><time>2026-04-19T17:02:47Z</time></trkpt><trkpt lat="41.422476821598686" lon="15.55905401096519"><ele>70.0</ele><time>2026-04-19T17:02:48Z</time></trkpt><trkpt lat="41.42231353424385" lon="15.559028337287733"><ele>70.0</ele><time>2026-04-19T17:02:49Z</time></trkpt><trkpt lat="41.422148080077875" lon="15.55899636042383"><ele>70.33333333333333</ele><time>2026-04-19T17:02:50Z</time></trkpt><trkpt lat="41.421987223455844" lon="15.558961811863982"><ele>70.66666666666667</ele><time>2026-04-19T17:02:51Z</time></trkpt><trkpt lat="41.42182475210883" lon="15.558928669800236"><ele>71.0</ele><time>2026-04-19T17:02:52Z</time></trkpt><trkpt lat="41.42166376021227" lon="15.558898928842522"><ele>71.0</ele><time>2026-04-19T17:02:53Z</time></trkpt><trkpt lat="41.42150046475371" lon="15.558869414786768"><ele>71.0</ele><time>2026-04-19T17:02:54Z</time></trkpt><trkpt lat="41.42133811611719" lon="15.558837790260453"><ele>71.0</ele><time>2026-04-19T17:02:55Z</time></trkpt><trkpt lat="41.421176053619014" lon="15.558803985890652"><ele>71.33333333333334</ele><time>2026-04-19T17:02:56Z</time></trkpt><trkpt lat="41.421018633798035" lon="15.55877027904465"><ele>71.66666666666667</ele><time>2026-04-19T17:02:57Z</time></trkpt><trkpt lat="41.4208621233513" lon="15.558742221909192"><ele>72.0</ele><time>2026-04-19T17:02:58Z</time></trkpt><trkpt lat="41.42070498291101" lon="15.5587132029922"><ele>72.0</ele><time>2026-04-19T17:02:59Z</time></trkpt><trkpt lat="41.42055261931547" lon="15.558681704491137"><ele>72.0</ele><time>2026-04-19T17:03:00Z</time></trkpt><trkpt lat="41.42039619866777" lon="15.558648512408313"><ele>72.0</ele><time>2026-04-19T17:03:01Z</time></trkpt><trkpt lat="41.42024434078727" lon="15.558620495454111"><ele>72.0</ele><time>2026-04-19T17:03:02Z</time></trkpt><trkpt lat="41.42008397103147" lon="15.558592790412558"><ele>72.0</ele><time>2026-04-19T17:03:03Z</time></trkpt><trkpt lat="41.419926929143266" lon="15.55856432267939"><ele>72.0</ele><time>2026-04-19T17:03:04Z</time></trkpt><trkpt lat="41.41976776803527" lon="15.55853677228904"><ele>72.33333333333333</ele><time>2026-04-19T17:03:05Z</time></trkpt><trkpt lat="41.41959951789019" lon="15.558507077768944"><ele>72.66666666666666</ele><time>2026-04-19T17:03:06Z</time></trkpt><trkpt lat="41.41942857916667" lon="15.558479278147534"><ele>73.0</ele><time>2026-04-19T17:03:07Z</time></trkpt><trkpt lat="41.4192642519963" lon="15.558463504544497"><ele>73.0</ele><time>2026-04-19T17:03:08Z</time></trkpt><trkpt lat="41.41911005593634" lon="15.558461318492755"><ele>73.0</ele><time>2026-04-19T17:03:09Z</time></trkpt><trkpt lat="41.41893838931888" lon="15.558432299060879"><ele>73.0</ele><time>2026-04-19T17:03:10Z</time></trkpt><trkpt lat="41.4187843671449" lon="15.558410863686005"><ele>73.33333333333333</ele><time>2026-04-19T17:03:11Z</time></trkpt><trkpt lat="41.4186259625865" lon="15.558394593357418"><ele>73.66666666666667</ele><time>2026-04-19T17:03:12Z</time></trkpt><trkpt lat="41.41846317964751" lon="15.558380125555942"><ele>74.0</ele><time>2026-04-19T17:03:13Z</time></trkpt><trkpt lat="41.41829816732753" lon="15.558361025248987"><ele>74.0</ele><time>2026-04-19T17:03:14Z</time></trkpt><trkpt lat="41.41813436793616" lon="15.558346607381836"><ele>74.0</ele><time>2026-04-19T17:03:15Z</time></trkpt><trkpt lat="41.417971010010994" lon="15.558336684293268"><ele>74.0</ele><time>2026-04-19T17:03:16Z</time></trkpt><trkpt lat="41.417801713950695" lon="15.558327056995841"><ele>74.66666666666667</ele><time>2026-04-19T17:03:17Z</time></trkpt><trkpt lat="41.41762898417132" lon="15.55831650991661"><ele>75.33333333333333</ele><time>2026-04-19T17:03:18Z</time></trkpt><trkpt lat="41.417453818759526" lon="15.558305179923885"><ele>76.0</ele><time>2026-04-19T17:03:19Z</time></trkpt><trkpt lat="41.41727564595052" lon="15.558296218714737"><ele>76.33333333333333</ele><time>2026-04-19T17:03:20Z</time></trkpt><trkpt lat="41.41709734526688" lon="15.558291170604365"><ele>76.66666666666667</ele><time>2026-04-19T17:03:21Z</time></trkpt><trkpt lat="41.41691791812414" lon="15.558286702635828"><ele>77.0</ele><time>2026-04-19T17:03:22Z</time></trkpt><trkpt lat="41.41673790047662" lon="15.558286216861541"><ele>77.0</ele><time>2026-04-19T17:03:23Z</time></trkpt><trkpt lat="41.41655775922088" lon="15.558286512012613"><ele>77.0</ele><time>2026-04-19T17:03:24Z</time></trkpt><trkpt lat="41.41638356863461" lon="15.558288135196536"><ele>77.0</ele><time>2026-04-19T17:03:25Z</time></trkpt><trkpt lat="41.41620735285565" lon="15.55828804410691"><ele>76.66666666666667</ele><time>2026-04-19T17:03:26Z</time></trkpt><trkpt lat="41.41603249855642" lon="15.558292006387251"><ele>76.33333333333333</ele><time>2026-04-19T17:03:27Z</time></trkpt><trkpt lat="41.415857043870105" lon="15.558301131168356"><ele>76.0</ele><time>2026-04-19T17:03:28Z</time></trkpt><trkpt lat="41.415682124959815" lon="15.558309914419619"><ele>76.0</ele><time>2026-04-19T17:03:29Z</time></trkpt><trkpt lat="41.41550799767425" lon="15.558319434594106"><ele>76.0</ele><time>2026-04-19T17:03:30Z</time></trkpt><trkpt lat="41.41532859541848" lon="15.558330627069397"><ele>76.0</ele><time>2026-04-19T17:03:31Z</time></trkpt><trkpt lat="41.41515233723171" lon="15.558343392131908"><ele>76.0</ele><time>2026-04-19T17:03:32Z</time></trkpt><trkpt lat="41.41497230006338" lon="15.558356779353662"><ele>76.0</ele><time>2026-04-19T17:03:33Z</time></trkpt><trkpt lat="41.414795693978355" lon="15.558370672607754"><ele>76.0</ele><time>2026-04-19T17:03:34Z</time></trkpt><trkpt lat="41.414618197074304" lon="15.558386514525072"><ele>76.33333333333333</ele><time>2026-04-19T17:03:35Z</time></trkpt><trkpt lat="41.41442838327792" lon="15.558407154203822"><ele>76.66666666666667</ele><time>2026-04-19T17:03:36Z</time></trkpt><trkpt lat="41.41424925946991" lon="15.558422860492298"><ele>77.0</ele><time>2026-04-19T17:03:37Z</time></trkpt><trkpt lat="41.41406304128106" lon="15.558448742392939"><ele>77.0</ele><time>2026-04-19T17:03:38Z</time></trkpt><trkpt lat="41.41387014468542" lon="15.558473147155071"><ele>77.0</ele><time>2026-04-19T17:03:39Z</time></trkpt><trkpt lat="41.413683453140635" lon="15.558499405154448"><ele>77.0</ele><time>2026-04-19T17:03:40Z</time></trkpt><trkpt lat="41.4134929800061" lon="15.558530848971944"><ele>77.0</ele><time>2026-04-19T17:03:41Z</time></trkpt><trkpt lat="41.413312750759836" lon="15.55855874109836"><ele>77.0</ele><time>2026-04-19T17:03:42Z</time></trkpt><trkpt lat="41.41313673811665" lon="15.55858588216689"><ele>77.0</ele><time>2026-04-19T17:03:43Z</time></trkpt><trkpt lat="41.41296504892207" lon="15.558609570164204"><ele>76.66666666666667</ele><time>2026-04-19T17:03:44Z</time></trkpt><trkpt lat="41.412795253559096" lon="15.55863453586207"><ele>76.33333333333333</ele><time>2026-04-19T17:03:45Z</time></trkpt><trkpt lat="41.41262339117678" lon="15.558659633184131"><ele>76.0</ele><time>2026-04-19T17:03:46Z</time></trkpt><trkpt lat="41.41245422970304" lon="15.558685389550616"><ele>76.33333333333333</ele><time>2026-04-19T17:03:47Z</time></trkpt><trkpt lat="41.412282103148385" lon="15.558710511641115"><ele>76.66666666666667</ele><time>2026-04-19T17:03:48Z</time></trkpt><trkpt lat="41.41211708890996" lon="15.558734408385344"><ele>77.0</ele><time>2026-04-19T17:03:49Z</time></trkpt><trkpt lat="41.411947313288984" lon="15.558760649596511"><ele>77.0</ele><time>2026-04-19T17:03:50Z</time></trkpt><trkpt lat="41.41177537743668" lon="15.558785354524332"><ele>77.0</ele><time>2026-04-19T17:03:51Z</time></trkpt><trkpt lat="41.41160291284212" lon="15.558810726127616"><ele>77.0</ele><time>2026-04-19T17:03:52Z</time></trkpt><trkpt lat="41.41143079315979" lon="15.558836789309966"><ele>77.0</ele><time>2026-04-19T17:03:53Z</time></trkpt><trkpt lat="41.41126373673184" lon="15.558859633482017"><ele>77.0</ele><time>2026-04-19T17:03:54Z</time></trkpt><trkpt lat="41.4110937701312" lon="15.558884666586625"><ele>77.0</ele><time>2026-04-19T17:03:55Z</time></trkpt><trkpt lat="41.410924403271366" lon="15.558911018813241"><ele>77.0</ele><time>2026-04-19T17:03:56Z</time></trkpt><trkpt lat="41.41075498206731" lon="15.558937067388708"><ele>77.0</ele><time>2026-04-19T17:03:57Z</time></trkpt><trkpt lat="41.410582013837626" lon="15.558961963373154"><ele>77.0</ele><time>2026-04-19T17:03:58Z</time></trkpt><trkpt lat="41.41041418757633" lon="15.558983956817478"><ele>76.66666666666667</ele><time>2026-04-19T17:03:59Z</time></trkpt><trkpt lat="41.410253569314726" lon="15.559007792036596"><ele>76.33333333333333</ele><time>2026-04-19T17:04:00Z</time></trkpt><trkpt lat="41.41009935388349" lon="15.55903422320697"><ele>76.0</ele><time>2026-04-19T17:04:01Z</time></trkpt><trkpt lat="41.40994119472235" lon="15.55905986581852"><ele>76.0</ele><time>2026-04-19T17:04:02Z</time></trkpt><trkpt lat="41.40978261487118" lon="15.559081700700073"><ele>76.0</ele><time>2026-04-19T17:04:03Z</time></trkpt><trkpt lat="41.409620896024684" lon="15.55910499914215"><ele>76.0</ele><time>2026-04-19T17:04:04Z</time></trkpt><trkpt lat="41.40945869354964" lon="15.559133080461137"><ele>76.33333333333333</ele><time>2026-04-19T17:04:05Z</time></trkpt><trkpt lat="41.409298348868035" lon="15.559157444036876"><ele>76.66666666666667</ele><time>2026-04-19T17:04:06Z</time></trkpt><trkpt lat="41.40913889669971" lon="15.559180663389222"><ele>77.0</ele><time>2026-04-19T17:04:07Z</time></trkpt><trkpt lat="41.408977920336206" lon="15.559204795527165"><ele>77.33333333333334</ele><time>2026-04-19T17:04:08Z</time></trkpt><trkpt lat="41.40881651341671" lon="15.559229731333659"><ele>77.66666666666667</ele><time>2026-04-19T17:04:09Z</time></trkpt><trkpt lat="41.40865665989141" lon="15.559248911935144"><ele>78.0</ele><time>2026-04-19T17:04:10Z</time></trkpt><trkpt lat="41.40849871689704" lon="15.559270455876794"><ele>78.0</ele><time>2026-04-19T17:04:11Z</time></trkpt><trkpt lat="41.40834256108666" lon="15.559299066844869"><ele>78.0</ele><time>2026-04-19T17:04:12Z</time></trkpt><trkpt lat="41.40818856205989" lon="15.559325350852282"><ele>78.0</ele><time>2026-04-19T17:04:13Z</time></trkpt><trkpt lat="41.4080297492503" lon="15.559348926626313"><ele>78.33333333333333</ele><time>2026-04-19T17:04:14Z</time></trkpt><trkpt lat="41.407869213545055" lon="15.55937048828005"><ele>78.66666666666666</ele><time>2026-04-19T17:04:15Z</time></trkpt><trkpt lat="41.407713427871954" lon="15.559394077405832"><ele>79.0</ele><time>2026-04-19T17:04:16Z</time></trkpt><trkpt lat="41.407552568537106" lon="15.55942075744752"><ele>79.0</ele><time>2026-04-19T17:04:17Z</time></trkpt><trkpt lat="41.407392238916096" lon="15.5594444077328"><ele>79.0</ele><time>2026-04-19T17:04:18Z</time></trkpt><trkpt lat="41.40723175644299" lon="15.559467648279421"><ele>79.0</ele><time>2026-04-19T17:04:19Z</time></trkpt><trkpt lat="41.40707882936053" lon="15.559491416448449"><ele>79.0</ele><time>2026-04-19T17:04:20Z</time></trkpt><trkpt lat="41.40693095255783" lon="15.559513930744359"><ele>79.0</ele><time>2026-04-19T17:04:21Z</time></trkpt><trkpt lat="41.40679085311954" lon="15.559534815432954"><ele>79.0</ele><time>2026-04-19T17:04:22Z</time></trkpt><trkpt lat="41.40665749075543" lon="15.559556088425984"><ele>79.0</ele><time>2026-04-19T17:04:23Z</time></trkpt><trkpt lat="41.40652404985812" lon="15.559575931602742"><ele>78.75</ele><time>2026-04-19T17:04:24Z</time></trkpt><trkpt lat="41.40639541719479" lon="15.559592167882142"><ele>78.5</ele><time>2026-04-19T17:04:25Z</time></trkpt><trkpt lat="41.40626933934801" lon="15.55961189016302"><ele>78.25</ele><time>2026-04-19T17:04:26Z</time></trkpt><trkpt lat="41.406139974539215" lon="15.559632832127946"><ele>78.0</ele><time>2026-04-19T17:04:27Z</time></trkpt><trkpt lat="41.40601231055632" lon="15.559652803721299"><ele>78.5</ele><time>2026-04-19T17:04:28Z</time></trkpt><trkpt lat="41.405887342270574" lon="15.559669888376037"><ele>79.0</ele><time>2026-04-19T17:04:29Z</time></trkpt><trkpt lat="41.405761062048974" lon="15.559685073671835"><ele>79.5</ele><time>2026-04-19T17:04:30Z</time></trkpt><trkpt lat="41.405634131617994" lon="15.559703044299434"><ele>80.0</ele><time>2026-04-19T17:04:31Z</time></trkpt><trkpt lat="41.40550748846876" lon="15.55972513083129"><ele>80.25</ele><time>2026-04-19T17:04:32Z</time></trkpt><trkpt lat="41.405382678215254" lon="15.559745578449766"><ele>80.5</ele><time>2026-04-19T17:04:33Z</time></trkpt><trkpt lat="41.40525844123573" lon="15.559764987652573"><ele>80.75</ele><time>2026-04-19T17:04:34Z</time></trkpt><trkpt lat="41.405134054576486" lon="15.559789348734956"><ele>81.0</ele><time>2026-04-19T17:04:35Z</time></trkpt><trkpt lat="41.405013543323044" lon="15.559798445938446"><ele>81.0</ele><time>2026-04-19T17:04:36Z</time></trkpt><trkpt lat="41.40488736520978" lon="15.559818020591877"><ele>81.0</ele><time>2026-04-19T17:04:37Z</time></trkpt><trkpt lat="41.40476743666458" lon="15.559835535992557"><ele>81.0</ele><time>2026-04-19T17:04:38Z</time></trkpt><trkpt lat="41.40464086819447" lon="15.559854227542289"><ele>81.0</ele><time>2026-04-19T17:04:39Z</time></trkpt><trkpt lat="41.40451169120752" lon="15.559872195591735"><ele>80.75</ele><time>2026-04-19T17:04:40Z</time></trkpt><trkpt lat="41.40438711031291" lon="15.559892601997355"><ele>80.5</ele><time>2026-04-19T17:04:41Z</time></trkpt><trkpt lat="41.40425419441885" lon="15.559911268837844"><ele>80.25</ele><time>2026-04-19T17:04:42Z</time></trkpt><trkpt lat="41.40411814810065" lon="15.559929920686812"><ele>80.0</ele><time>2026-04-19T17:04:43Z</time></trkpt><trkpt lat="41.40398295217599" lon="15.559949808555338"><ele>80.0</ele><time>2026-04-19T17:04:44Z</time></trkpt><trkpt lat="41.403849543914745" lon="15.559969892006313"><ele>80.0</ele><time>2026-04-19T17:04:45Z</time></trkpt><trkpt lat="41.403717879651495" lon="15.559987844120881"><ele>80.0</ele><time>2026-04-19T17:04:46Z</time></trkpt><trkpt lat="41.40358569934452" lon="15.560007128663718"><ele>80.0</ele><time>2026-04-19T17:04:47Z</time></trkpt><trkpt lat="41.40345047816748" lon="15.56003101484254"><ele>80.0</ele><time>2026-04-19T17:04:48Z</time></trkpt><trkpt lat="41.403314653159235" lon="15.56005411413047"><ele>80.0</ele><time>2026-04-19T17:04:49Z</time></trkpt><trkpt lat="41.4031784642082" lon="15.560074551537852"><ele>80.0</ele><time>2026-04-19T17:04:50Z</time></trkpt><trkpt lat="41.40304003792866" lon="15.560096785652581"><ele>80.0</ele><time>2026-04-19T17:04:51Z</time></trkpt><trkpt lat="41.40289904681258" lon="15.560116986177414"><ele>80.0</ele><time>2026-04-19T17:04:52Z</time></trkpt><trkpt lat="41.402755431622104" lon="15.560138311719635"><ele>80.0</ele><time>2026-04-19T17:04:53Z</time></trkpt><trkpt lat="41.40261094606539" lon="15.560160335305028"><ele>80.0</ele><time>2026-04-19T17:04:54Z</time></trkpt><trkpt lat="41.402463519663804" lon="15.56017981798775"><ele>80.0</ele><time>2026-04-19T17:04:55Z</time></trkpt><trkpt lat="41.40231604798625" lon="15.560197572414632"><ele>80.0</ele><time>2026-04-19T17:04:56Z</time></trkpt><trkpt lat="41.40216365965415" lon="15.56022085901978"><ele>80.0</ele><time>2026-04-19T17:04:57Z</time></trkpt><trkpt lat="41.40201022724288" lon="15.560243642431134"><ele>80.0</ele><time>2026-04-19T17:04:58Z</time></trkpt><trkpt lat="41.40185946940563" lon="15.56026743480161"><ele>80.0</ele><time>2026-04-19T17:04:59Z</time></trkpt><trkpt lat="41.40171981433127" lon="15.560287612059348"><ele>80.0</ele><time>2026-04-19T17:05:00Z</time></trkpt><trkpt lat="41.40157662060686" lon="15.560310764199349"><ele>80.0</ele><time>2026-04-19T17:05:01Z</time></trkpt><trkpt lat="41.40143252820323" lon="15.56033338128764"><ele>80.0</ele><time>2026-04-19T17:05:02Z</time></trkpt><trkpt lat="41.401288137868804" lon="15.560354548355141"><ele>80.0</ele><time>2026-04-19T17:05:03Z</time></trkpt><trkpt lat="41.40114631784892" lon="15.560375288387709"><ele>80.0</ele><time>2026-04-19T17:05:04Z</time></trkpt><trkpt lat="41.401013521688554" lon="15.560393582212331"><ele>80.0</ele><time>2026-04-19T17:05:05Z</time></trkpt><trkpt lat="41.40088010078532" lon="15.560413909162065"><ele>80.0</ele><time>2026-04-19T17:05:06Z</time></trkpt><trkpt lat="41.400745465369056" lon="15.560433621967064"><ele>80.0</ele><time>2026-04-19T17:05:07Z</time></trkpt><trkpt lat="41.400607389404975" lon="15.560452335439209"><ele>80.0</ele><time>2026-04-19T17:05:08Z</time></trkpt><trkpt lat="41.400467731273594" lon="15.560470680191484"><ele>80.0</ele><time>2026-04-19T17:05:09Z</time></trkpt><trkpt lat="41.40033181747763" lon="15.56048736846769"><ele>80.0</ele><time>2026-04-19T17:05:10Z</time></trkpt><trkpt lat="41.40019403115921" lon="15.560506984658534"><ele>80.0</ele><time>2026-04-19T17:05:11Z</time></trkpt><trkpt lat="41.400053024881664" lon="15.56052824849433"><ele>80.0</ele><time>2026-04-19T17:05:12Z</time></trkpt><trkpt lat="41.399917051570405" lon="15.560545071587766"><ele>80.0</ele><time>2026-04-19T17:05:13Z</time></trkpt><trkpt lat="41.399759722542775" lon="15.560572495204214"><ele>80.0</ele><time>2026-04-19T17:05:14Z</time></trkpt><trkpt lat="41.399606491294065" lon="15.560592261170324"><ele>80.0</ele><time>2026-04-19T17:05:15Z</time></trkpt><trkpt lat="41.39945927630283" lon="15.560614826329228"><ele>80.0</ele><time>2026-04-19T17:05:16Z</time></trkpt><trkpt lat="41.399306751727046" lon="15.560641167771452"><ele>80.0</ele><time>2026-04-19T17:05:17Z</time></trkpt><trkpt lat="41.3991532666008" lon="15.560665222978585"><ele>80.0</ele><time>2026-04-19T17:05:18Z</time></trkpt><trkpt lat="41.3990039199455" lon="15.560688083444886"><ele>80.0</ele><time>2026-04-19T17:05:19Z</time></trkpt><trkpt lat="41.398852833982104" lon="15.56070973326681"><ele>80.0</ele><time>2026-04-19T17:05:20Z</time></trkpt><trkpt lat="41.398708585512246" lon="15.560731653196694"><ele>80.0</ele><time>2026-04-19T17:05:21Z</time></trkpt><trkpt lat="41.398562300047175" lon="15.560755361774799"><ele>79.75</ele><time>2026-04-19T17:05:22Z</time></trkpt><trkpt lat="41.39842587547667" lon="15.560775530120386"><ele>79.5</ele><time>2026-04-19T17:05:23Z</time></trkpt><trkpt lat="41.39828711761511" lon="15.5607941372333"><ele>79.25</ele><time>2026-04-19T17:05:24Z</time></trkpt><trkpt lat="41.39814292410114" lon="15.560815926086285"><ele>79.0</ele><time>2026-04-19T17:05:25Z</time></trkpt><trkpt lat="41.39799633841497" lon="15.560840400734238"><ele>79.0</ele><time>2026-04-19T17:05:26Z</time></trkpt><trkpt lat="41.39784473810187" lon="15.560864827964402"><ele>79.0</ele><time>2026-04-19T17:05:27Z</time></trkpt><trkpt lat="41.39769227734658" lon="15.560886663216353"><ele>79.0</ele><time>2026-04-19T17:05:28Z</time></trkpt><trkpt lat="41.39754255093294" lon="15.560907640668962"><ele>79.0</ele><time>2026-04-19T17:05:29Z</time></trkpt><trkpt lat="41.39739915765527" lon="15.560929841222206"><ele>79.0</ele><time>2026-04-19T17:05:30Z</time></trkpt><trkpt lat="41.39725634989155" lon="15.560950120234342"><ele>79.0</ele><time>2026-04-19T17:05:31Z</time></trkpt><trkpt lat="41.397113492155285" lon="15.560968302418898"><ele>79.0</ele><time>2026-04-19T17:05:32Z</time></trkpt><trkpt lat="41.39697914117916" lon="15.560984314251897"><ele>79.25</ele><time>2026-04-19T17:05:33Z</time></trkpt><trkpt lat="41.39683096997047" lon="15.561004962218783"><ele>79.5</ele><time>2026-04-19T17:05:34Z</time></trkpt><trkpt lat="41.396688042040104" lon="15.561028259929978"><ele>79.75</ele><time>2026-04-19T17:05:35Z</time></trkpt><trkpt lat="41.39654422159389" lon="15.56105383607101"><ele>80.0</ele><time>2026-04-19T17:05:36Z</time></trkpt><trkpt lat="41.39639886631391" lon="15.561076022335946"><ele>79.75</ele><time>2026-04-19T17:05:37Z</time></trkpt><trkpt lat="41.39625258792379" lon="15.561092172231435"><ele>79.5</ele><time>2026-04-19T17:05:38Z</time></trkpt><trkpt lat="41.39610663198497" lon="15.56111041413317"><ele>79.25</ele><time>2026-04-19T17:05:39Z</time></trkpt><trkpt lat="41.39595837683883" lon="15.561135255583714"><ele>79.0</ele><time>2026-04-19T17:05:40Z</time></trkpt><trkpt lat="41.39581213115615" lon="15.561156622828841"><ele>79.0</ele><time>2026-04-19T17:05:41Z</time></trkpt><trkpt lat="41.39566061760274" lon="15.561177356008988"><ele>79.0</ele><time>2026-04-19T17:05:42Z</time></trkpt><trkpt lat="41.39550990061627" lon="15.561201663587878"><ele>79.0</ele><time>2026-04-19T17:05:43Z</time></trkpt><trkpt lat="41.39535910022741" lon="15.561228756701508"><ele>79.25</ele><time>2026-04-19T17:05:44Z</time></trkpt><trkpt lat="41.39521936730821" lon="15.56125082925348"><ele>79.5</ele><time>2026-04-19T17:05:45Z</time></trkpt><trkpt lat="41.395072255218714" lon="15.56127902555586"><ele>79.75</ele><time>2026-04-19T17:05:46Z</time></trkpt><trkpt lat="41.39492514722432" lon="15.561298472534629"><ele>80.0</ele><time>2026-04-19T17:05:47Z</time></trkpt><trkpt lat="41.39477676417027" lon="15.561319296717361"><ele>80.0</ele><time>2026-04-19T17:05:48Z</time></trkpt><trkpt lat="41.39462929500229" lon="15.561339355999786"><ele>80.0</ele><time>2026-04-19T17:05:49Z</time></trkpt><trkpt lat="41.39447605754779" lon="15.561362332453893"><ele>80.0</ele><time>2026-04-19T17:05:50Z</time></trkpt><trkpt lat="41.39432250364813" lon="15.561384435441562"><ele>80.0</ele><time>2026-04-19T17:05:51Z</time></trkpt><trkpt lat="41.39416879825126" lon="15.561406735256442"><ele>80.0</ele><time>2026-04-19T17:05:52Z</time></trkpt><trkpt lat="41.39401420688255" lon="15.561430722201282"><ele>80.0</ele><time>2026-04-19T17:05:53Z</time></trkpt><trkpt lat="41.393864941384514" lon="15.561455767640096"><ele>80.5</ele><time>2026-04-19T17:05:54Z</time></trkpt><trkpt lat="41.3937188533173" lon="15.561479387814359"><ele>81.0</ele><time>2026-04-19T17:05:55Z</time></trkpt><trkpt lat="41.39357192124617" lon="15.56150277207501"><ele>81.5</ele><time>2026-04-19T17:05:56Z</time></trkpt><trkpt lat="41.39342659071196" lon="15.561526265584734"><ele>82.0</ele><time>2026-04-19T17:05:57Z</time></trkpt><trkpt lat="41.39327233098039" lon="15.561555579330573"><ele>82.0</ele><time>2026-04-19T17:05:58Z</time></trkpt><trkpt lat="41.39313712464518" lon="15.561565306402985"><ele>82.0</ele><time>2026-04-19T17:05:59Z</time></trkpt><trkpt lat="41.39298223093367" lon="15.561587883660138"><ele>82.0</ele><time>2026-04-19T17:06:00Z</time></trkpt><trkpt lat="41.39283325175026" lon="15.56160738157912"><ele>82.0</ele><time>2026-04-19T17:06:01Z</time></trkpt><trkpt lat="41.39268356642955" lon="15.561630550352403"><ele>82.0</ele><time>2026-04-19T17:06:02Z</time></trkpt><trkpt lat="41.3925400020241" lon="15.561648377079294"><ele>82.0</ele><time>2026-04-19T17:06:03Z</time></trkpt><trkpt lat="41.392395661668495" lon="15.561671064869156"><ele>82.0</ele><time>2026-04-19T17:06:04Z</time></trkpt><trkpt lat="41.39225328004581" lon="15.561691917740946"><ele>82.0</ele><time>2026-04-19T17:06:05Z</time></trkpt><trkpt lat="41.39211146950301" lon="15.561711519295462"><ele>82.0</ele><time>2026-04-19T17:06:06Z</time></trkpt><trkpt lat="41.39196878014177" lon="15.561732719399075"><ele>82.0</ele><time>2026-04-19T17:06:07Z</time></trkpt><trkpt lat="41.39182641040986" lon="15.56175361543484"><ele>82.0</ele><time>2026-04-19T17:06:08Z</time></trkpt><trkpt lat="41.39168179882514" lon="15.561775575939324"><ele>82.0</ele><time>2026-04-19T17:06:09Z</time></trkpt><trkpt lat="41.39153783625842" lon="15.561793875052096"><ele>82.0</ele><time>2026-04-19T17:06:10Z</time></trkpt><trkpt lat="41.39138979837509" lon="15.561816192073971"><ele>82.0</ele><time>2026-04-19T17:06:11Z</time></trkpt><trkpt lat="41.39124393664047" lon="15.56183238356522"><ele>82.0</ele><time>2026-04-19T17:06:12Z</time></trkpt><trkpt lat="41.391092720803414" lon="15.561852043883814"><ele>82.0</ele><time>2026-04-19T17:06:13Z</time></trkpt><trkpt lat="41.390940835929506" lon="15.561872525778979"><ele>82.0</ele><time>2026-04-19T17:06:14Z</time></trkpt><trkpt lat="41.39079117966976" lon="15.561891928062408"><ele>82.0</ele><time>2026-04-19T17:06:15Z</time></trkpt><trkpt lat="41.39064338864199" lon="15.56191415218979"><ele>82.0</ele><time>2026-04-19T17:06:16Z</time></trkpt><trkpt lat="41.39049396526354" lon="15.56194193156566"><ele>81.66666666666666</ele><time>2026-04-19T17:06:17Z</time></trkpt><trkpt lat="41.39033830596047" lon="15.561975661978837"><ele>81.33333333333333</ele><time>2026-04-19T17:06:18Z</time></trkpt><trkpt lat="41.39019229635347" lon="15.561990864529841"><ele>81.0</ele><time>2026-04-19T17:06:19Z</time></trkpt><trkpt lat="41.39004504087542" lon="15.562000061242735"><ele>81.0</ele><time>2026-04-19T17:06:20Z</time></trkpt><trkpt lat="41.38988500872424" lon="15.562026774321858"><ele>81.0</ele><time>2026-04-19T17:06:21Z</time></trkpt><trkpt lat="41.38973484190942" lon="15.562053607350443"><ele>81.0</ele><time>2026-04-19T17:06:22Z</time></trkpt><trkpt lat="41.38958745179478" lon="15.562078782624345"><ele>81.25</ele><time>2026-04-19T17:06:23Z</time></trkpt><trkpt lat="41.38943862182086" lon="15.56210250485009"><ele>81.5</ele><time>2026-04-19T17:06:24Z</time></trkpt><trkpt lat="41.38929454163602" lon="15.562122260039848"><ele>81.75</ele><time>2026-04-19T17:06:25Z</time></trkpt><trkpt lat="41.3891425908782" lon="15.562142897966202"><ele>82.0</ele><time>2026-04-19T17:06:26Z</time></trkpt><trkpt lat="41.3889909291779" lon="15.562160798876318"><ele>82.0</ele><time>2026-04-19T17:06:27Z</time></trkpt><trkpt lat="41.38883415455981" lon="15.562182108954959"><ele>82.0</ele><time>2026-04-19T17:06:28Z</time></trkpt><trkpt lat="41.38867766571433" lon="15.56220691494299"><ele>82.0</ele><time>2026-04-19T17:06:29Z</time></trkpt><trkpt lat="41.388524408865585" lon="15.562230899349386"><ele>82.0</ele><time>2026-04-19T17:06:30Z</time></trkpt><trkpt lat="41.388369154177724" lon="15.562254582122797"><ele>82.0</ele><time>2026-04-19T17:06:31Z</time></trkpt><trkpt lat="41.388206579314264" lon="15.562285320480868"><ele>82.0</ele><time>2026-04-19T17:06:32Z</time></trkpt><trkpt lat="41.388049649167606" lon="15.562309282596857"><ele>82.33333333333333</ele><time>2026-04-19T17:06:33Z</time></trkpt><trkpt lat="41.38788981675895" lon="15.562335597835933"><ele>82.66666666666667</ele><time>2026-04-19T17:06:34Z</time></trkpt><trkpt lat="41.387733359759224" lon="15.56236022802557"><ele>83.0</ele><time>2026-04-19T17:06:35Z</time></trkpt><trkpt lat="41.387573397213146" lon="15.56238455164309"><ele>83.0</ele><time>2026-04-19T17:06:36Z</time></trkpt><trkpt lat="41.387415984913" lon="15.562408555953912"><ele>83.0</ele><time>2026-04-19T17:06:37Z</time></trkpt><trkpt lat="41.38725925329032" lon="15.562433171573522"><ele>83.0</ele><time>2026-04-19T17:06:38Z</time></trkpt><trkpt lat="41.387109566800305" lon="15.562451712281893"><ele>83.0</ele><time>2026-04-19T17:06:39Z</time></trkpt><trkpt lat="41.38695832707713" lon="15.562475214941674"><ele>83.0</ele><time>2026-04-19T17:06:40Z</time></trkpt><trkpt lat="41.386808868549366" lon="15.562492941809582"><ele>83.0</ele><time>2026-04-19T17:06:41Z</time></trkpt><trkpt lat="41.3866580454806" lon="15.562519118703747"><ele>83.0</ele><time>2026-04-19T17:06:42Z</time></trkpt><trkpt lat="41.38650724043735" lon="15.562541454118158"><ele>83.0</ele><time>2026-04-19T17:06:43Z</time></trkpt><trkpt lat="41.38635652410948" lon="15.562564397202705"><ele>83.0</ele><time>2026-04-19T17:06:44Z</time></trkpt><trkpt lat="41.38620347926674" lon="15.56258580215098"><ele>83.66666666666667</ele><time>2026-04-19T17:06:45Z</time></trkpt><trkpt lat="41.386050053963885" lon="15.562613147579732"><ele>84.33333333333333</ele><time>2026-04-19T17:06:46Z</time></trkpt><trkpt lat="41.385897163581426" lon="15.562627457943638"><ele>85.0</ele><time>2026-04-19T17:06:47Z</time></trkpt><trkpt lat="41.385743228655414" lon="15.562653822932692"><ele>85.0</ele><time>2026-04-19T17:06:48Z</time></trkpt><trkpt lat="41.38559200981008" lon="15.5626770231726"><ele>85.0</ele><time>2026-04-19T17:06:49Z</time></trkpt><trkpt lat="41.385436622911456" lon="15.562703446906239"><ele>85.0</ele><time>2026-04-19T17:06:50Z</time></trkpt><trkpt lat="41.38528378572485" lon="15.562724648646018"><ele>85.0</ele><time>2026-04-19T17:06:51Z</time></trkpt><trkpt lat="41.38512750434048" lon="15.562746928309368"><ele>85.0</ele><time>2026-04-19T17:06:52Z</time></trkpt><trkpt lat="41.384973781352556" lon="15.562765721253049"><ele>85.0</ele><time>2026-04-19T17:06:53Z</time></trkpt><trkpt lat="41.384817344040165" lon="15.56279153745321"><ele>84.66666666666666</ele><time>2026-04-19T17:06:54Z</time></trkpt><trkpt lat="41.38466212472927" lon="15.562813318368864"><ele>84.33333333333333</ele><time>2026-04-19T17:06:55Z</time></trkpt><trkpt lat="41.38450968320522" lon="15.562831107091217"><ele>84.0</ele><time>2026-04-19T17:06:56Z</time></trkpt><trkpt lat="41.38435090140805" lon="15.56285430793638"><ele>84.0</ele><time>2026-04-19T17:06:57Z</time></trkpt><trkpt lat="41.38419565872886" lon="15.562878278375637"><ele>84.0</ele><time>2026-04-19T17:06:58Z</time></trkpt><trkpt lat="41.384040700034056" lon="15.562903513402658"><ele>84.0</ele><time>2026-04-19T17:06:59Z</time></trkpt><trkpt lat="41.38388443430097" lon="15.562931773653993"><ele>85.0</ele><time>2026-04-19T17:07:00Z</time></trkpt><trkpt lat="41.38372803494519" lon="15.562958850889354"><ele>86.0</ele><time>2026-04-19T17:07:01Z</time></trkpt><trkpt lat="41.38357185019137" lon="15.562981109526591"><ele>87.0</ele><time>2026-04-19T17:07:02Z</time></trkpt><trkpt lat="41.383417980370965" lon="15.56299990981743"><ele>87.0</ele><time>2026-04-19T17:07:03Z</time></trkpt><trkpt lat="41.383264202266346" lon="15.56302198188658"><ele>87.0</ele><time>2026-04-19T17:07:04Z</time></trkpt><trkpt lat="41.383110666732655" lon="15.563043616416124"><ele>87.0</ele><time>2026-04-19T17:07:05Z</time></trkpt><trkpt lat="41.38295626416752" lon="15.563065803244015"><ele>87.0</ele><time>2026-04-19T17:07:06Z</time></trkpt><trkpt lat="41.38280495816115" lon="15.563087483873087"><ele>87.0</ele><time>2026-04-19T17:07:07Z</time></trkpt><trkpt lat="41.38265537434721" lon="15.56310938262854"><ele>87.0</ele><time>2026-04-19T17:07:08Z</time></trkpt><trkpt lat="41.382503240284755" lon="15.563137162372286"><ele>87.0</ele><time>2026-04-19T17:07:09Z</time></trkpt><trkpt lat="41.38235831131344" lon="15.563152409355578"><ele>87.0</ele><time>2026-04-19T17:07:10Z</time></trkpt><trkpt lat="41.38221453744824" lon="15.563174012266956"><ele>87.0</ele><time>2026-04-19T17:07:11Z</time></trkpt><trkpt lat="41.38206977860837" lon="15.563194941550252"><ele>87.0</ele><time>2026-04-19T17:07:12Z</time></trkpt><trkpt lat="41.38192850620758" lon="15.563209790925502"><ele>87.5</ele><time>2026-04-19T17:07:13Z</time></trkpt><trkpt lat="41.381781297599275" lon="15.563229925647597"><ele>88.0</ele><time>2026-04-19T17:07:14Z</time></trkpt><trkpt lat="41.38163555119031" lon="15.563257500742901"><ele>88.5</ele><time>2026-04-19T17:07:15Z</time></trkpt><trkpt lat="41.381494431814204" lon="15.563277623858355"><ele>89.0</ele><time>2026-04-19T17:07:16Z</time></trkpt><trkpt lat="41.3813590822896" lon="15.563295592024106"><ele>89.0</ele><time>2026-04-19T17:07:17Z</time></trkpt><trkpt lat="41.38121062205063" lon="15.563320789030302"><ele>89.0</ele><time>2026-04-19T17:07:18Z</time></trkpt><trkpt lat="41.38106706492213" lon="15.563343084253866"><ele>89.0</ele><time>2026-04-19T17:07:19Z</time></trkpt><trkpt lat="41.38092463571409" lon="15.563361989159958"><ele>89.0</ele><time>2026-04-19T17:07:20Z</time></trkpt><trkpt lat="41.38078185315839" lon="15.56338149201738"><ele>89.0</ele><time>2026-04-19T17:07:21Z</time></trkpt><trkpt lat="41.3806354299723" lon="15.563405552409906"><ele>89.0</ele><time>2026-04-19T17:07:22Z</time></trkpt><trkpt lat="41.380490719029375" lon="15.563428266047653"><ele>89.0</ele><time>2026-04-19T17:07:23Z</time></trkpt><trkpt lat="41.38034348040468" lon="15.563452852476546"><ele>89.0</ele><time>2026-04-19T17:07:24Z</time></trkpt><trkpt lat="41.38019844133055" lon="15.56347145458321"><ele>90.0</ele><time>2026-04-19T17:07:25Z</time></trkpt><trkpt lat="41.38004963331024" lon="15.563489647336885"><ele>91.0</ele><time>2026-04-19T17:07:26Z</time></trkpt><trkpt lat="41.37989778546407" lon="15.563512182152863"><ele>92.0</ele><time>2026-04-19T17:07:27Z</time></trkpt><trkpt lat="41.37974050527799" lon="15.563537782281557"><ele>91.66666666666667</ele><time>2026-04-19T17:07:28Z</time></trkpt><trkpt lat="41.37957554842695" lon="15.563563727511452"><ele>91.33333333333333</ele><time>2026-04-19T17:07:29Z</time></trkpt><trkpt lat="41.37941354757425" lon="15.563586432412361"><ele>91.0</ele><time>2026-04-19T17:07:30Z</time></trkpt><trkpt lat="41.37924970977438" lon="15.563609909086654"><ele>91.0</ele><time>2026-04-19T17:07:31Z</time></trkpt><trkpt lat="41.379077770732756" lon="15.56364114195958"><ele>91.0</ele><time>2026-04-19T17:07:32Z</time></trkpt><trkpt lat="41.378910759794614" lon="15.56366474766865"><ele>91.0</ele><time>2026-04-19T17:07:33Z</time></trkpt><trkpt lat="41.378743339303796" lon="15.563687116694814"><ele>91.66666666666666</ele><time>2026-04-19T17:07:34Z</time></trkpt><trkpt lat="41.37858028904653" lon="15.563708266044335"><ele>92.33333333333333</ele><time>2026-04-19T17:07:35Z</time></trkpt><trkpt lat="41.3784234173776" lon="15.563729388068133"><ele>93.0</ele><time>2026-04-19T17:07:36Z</time></trkpt><trkpt lat="41.37827686338785" lon="15.563752877609877"><ele>93.0</ele><time>2026-04-19T17:07:37Z</time></trkpt><trkpt lat="41.37812929436414" lon="15.563777739664651"><ele>93.0</ele><time>2026-04-19T17:07:38Z</time></trkpt><trkpt lat="41.37798108292355" lon="15.56380097728731"><ele>93.0</ele><time>2026-04-19T17:07:39Z</time></trkpt><trkpt lat="41.37783048993988" lon="15.563823338053604"><ele>93.0</ele><time>2026-04-19T17:07:40Z</time></trkpt><trkpt lat="41.377679748216885" lon="15.56383986725298"><ele>93.66666666666667</ele><time>2026-04-19T17:07:41Z</time></trkpt><trkpt lat="41.377522653827974" lon="15.563858158194046"><ele>94.33333333333334</ele><time>2026-04-19T17:07:42Z</time></trkpt><trkpt lat="41.37737521980059" lon="15.56387983526517"><ele>95.0</ele><time>2026-04-19T17:07:43Z</time></trkpt><trkpt lat="41.37721640644603" lon="15.563905701873216"><ele>95.0</ele><time>2026-04-19T17:07:44Z</time></trkpt><trkpt lat="41.37706081037677" lon="15.563928303091982"><ele>95.0</ele><time>2026-04-19T17:07:45Z</time></trkpt><trkpt lat="41.37690278668121" lon="15.563952694766325"><ele>95.0</ele><time>2026-04-19T17:07:46Z</time></trkpt><trkpt lat="41.376745195067684" lon="15.563975548829376"><ele>95.0</ele><time>2026-04-19T17:07:47Z</time></trkpt><trkpt lat="41.37659215420304" lon="15.563997631720863"><ele>95.0</ele><time>2026-04-19T17:07:48Z</time></trkpt><trkpt lat="41.376440842109794" lon="15.564017019108517"><ele>95.0</ele><time>2026-04-19T17:07:49Z</time></trkpt><trkpt lat="41.37628260037823" lon="15.564035814186179"><ele>95.0</ele><time>2026-04-19T17:07:50Z</time></trkpt><trkpt lat="41.376127811063675" lon="15.564052820543164"><ele>95.0</ele><time>2026-04-19T17:07:51Z</time></trkpt><trkpt lat="41.37597283168781" lon="15.56406752412815"><ele>95.0</ele><time>2026-04-19T17:07:52Z</time></trkpt><trkpt lat="41.37581131840711" lon="15.564082952417547"><ele>95.0</ele><time>2026-04-19T17:07:53Z</time></trkpt><trkpt lat="41.37565646324954" lon="15.5641000206537"><ele>95.0</ele><time>2026-04-19T17:07:54Z</time></trkpt><trkpt lat="41.37549498750983" lon="15.564120432841943"><ele>95.0</ele><time>2026-04-19T17:07:55Z</time></trkpt><trkpt lat="41.37533938662971" lon="15.564132621063674"><ele>96.0</ele><time>2026-04-19T17:07:56Z</time></trkpt><trkpt lat="41.375179299823564" lon="15.56414965221616"><ele>97.0</ele><time>2026-04-19T17:07:57Z</time></trkpt><trkpt lat="41.37501517081686" lon="15.564167388488315"><ele>98.0</ele><time>2026-04-19T17:07:58Z</time></trkpt><trkpt lat="41.37484660686698" lon="15.564185538361548"><ele>98.33333333333333</ele><time>2026-04-19T17:07:59Z</time></trkpt><trkpt lat="41.374673901606194" lon="15.564206492574833"><ele>98.66666666666666</ele><time>2026-04-19T17:08:00Z</time></trkpt><trkpt lat="41.37450878420821" lon="15.564225224519697"><ele>99.0</ele><time>2026-04-19T17:08:01Z</time></trkpt><trkpt lat="41.37434644148432" lon="15.564246521932624"><ele>99.0</ele><time>2026-04-19T17:08:02Z</time></trkpt><trkpt lat="41.37418855330768" lon="15.564265197138672"><ele>99.0</ele><time>2026-04-19T17:08:03Z</time></trkpt><trkpt lat="41.374032599388215" lon="15.564282695162273"><ele>99.0</ele><time>2026-04-19T17:08:04Z</time></trkpt><trkpt lat="41.373874287247226" lon="15.56429964587294"><ele>99.33333333333334</ele><time>2026-04-19T17:08:05Z</time></trkpt><trkpt lat="41.37371574932069" lon="15.56431904212191"><ele>99.66666666666667</ele><time>2026-04-19T17:08:06Z</time></trkpt><trkpt lat="41.37356160106257" lon="15.56433371229865"><ele>100.0</ele><time>2026-04-19T17:08:07Z</time></trkpt><trkpt lat="41.37340708675426" lon="15.564347957236631"><ele>100.0</ele><time>2026-04-19T17:08:08Z</time></trkpt><trkpt lat="41.3732597111766" lon="15.564360943387507"><ele>100.0</ele><time>2026-04-19T17:08:09Z</time></trkpt><trkpt lat="41.37310692944608" lon="15.564375437282541"><ele>100.0</ele><time>2026-04-19T17:08:10Z</time></trkpt><trkpt lat="41.37295779307969" lon="15.564388086405152"><ele>100.0</ele><time>2026-04-19T17:08:11Z</time></trkpt><trkpt lat="41.37280439187576" lon="15.564404029915416"><ele>100.0</ele><time>2026-04-19T17:08:12Z</time></trkpt><trkpt lat="41.372655384217445" lon="15.564415558111287"><ele>100.0</ele><time>2026-04-19T17:08:13Z</time></trkpt><trkpt lat="41.372502852902485" lon="15.564430641215177"><ele>100.0</ele><time>2026-04-19T17:08:14Z</time></trkpt><trkpt lat="41.372353500731485" lon="15.564448266038092"><ele>100.0</ele><time>2026-04-19T17:08:15Z</time></trkpt><trkpt lat="41.37220201298329" lon="15.564466002568128"><ele>100.0</ele><time>2026-04-19T17:08:16Z</time></trkpt><trkpt lat="41.37204986935568" lon="15.564477800354295"><ele>100.25</ele><time>2026-04-19T17:08:17Z</time></trkpt><trkpt lat="41.37190511002107" lon="15.564491902440489"><ele>100.5</ele><time>2026-04-19T17:08:18Z</time></trkpt><trkpt lat="41.37175842352193" lon="15.564505376298426"><ele>100.75</ele><time>2026-04-19T17:08:19Z</time></trkpt><trkpt lat="41.371607960007694" lon="15.564519252283082"><ele>101.0</ele><time>2026-04-19T17:08:20Z</time></trkpt><trkpt lat="41.371456758387055" lon="15.564528564832985"><ele>100.66666666666666</ele><time>2026-04-19T17:08:21Z</time></trkpt><trkpt lat="41.371304203684865" lon="15.564538946478985"><ele>100.33333333333334</ele><time>2026-04-19T17:08:22Z</time></trkpt><trkpt lat="41.37114545062123" lon="15.564553066032278"><ele>100.0</ele><time>2026-04-19T17:08:23Z</time></trkpt><trkpt lat="41.37098742059724" lon="15.564568774482506"><ele>100.0</ele><time>2026-04-19T17:08:24Z</time></trkpt><trkpt lat="41.37083237249276" lon="15.564581581554036"><ele>100.0</ele><time>2026-04-19T17:08:25Z</time></trkpt><trkpt lat="41.37067421737765" lon="15.564590229321256"><ele>100.0</ele><time>2026-04-19T17:08:26Z</time></trkpt><trkpt lat="41.37052023430025" lon="15.564597494374299"><ele>100.0</ele><time>2026-04-19T17:08:27Z</time></trkpt><trkpt lat="41.370361465924354" lon="15.56460744013159"><ele>100.0</ele><time>2026-04-19T17:08:28Z</time></trkpt><trkpt lat="41.37020965018859" lon="15.564618705493594"><ele>100.0</ele><time>2026-04-19T17:08:29Z</time></trkpt><trkpt lat="41.370054581954214" lon="15.564632028168523"><ele>100.0</ele><time>2026-04-19T17:08:30Z</time></trkpt><trkpt lat="41.36989702453717" lon="15.564644335224493"><ele>100.0</ele><time>2026-04-19T17:08:31Z</time></trkpt><trkpt lat="41.36974352455023" lon="15.5646518195828"><ele>100.0</ele><time>2026-04-19T17:08:32Z</time></trkpt><trkpt lat="41.369586199129174" lon="15.564658809723452"><ele>100.33333333333334</ele><time>2026-04-19T17:08:33Z</time></trkpt><trkpt lat="41.369432424843396" lon="15.564665757360478"><ele>100.66666666666666</ele><time>2026-04-19T17:08:34Z</time></trkpt><trkpt lat="41.36928375306111" lon="15.564673154447389"><ele>101.0</ele><time>2026-04-19T17:08:35Z</time></trkpt><trkpt lat="41.3691298361911" lon="15.564683214142054"><ele>101.0</ele><time>2026-04-19T17:08:36Z</time></trkpt><trkpt lat="41.36897755206559" lon="15.564692106117151"><ele>101.0</ele><time>2026-04-19T17:08:37Z</time></trkpt><trkpt lat="41.36882726230763" lon="15.564694542262142"><ele>101.0</ele><time>2026-04-19T17:08:38Z</time></trkpt><trkpt lat="41.36867836588861" lon="15.564705452020718"><ele>100.75</ele><time>2026-04-19T17:08:39Z</time></trkpt><trkpt lat="41.368538336546436" lon="15.564711197654157"><ele>100.5</ele><time>2026-04-19T17:08:40Z</time></trkpt><trkpt lat="41.36839312245522" lon="15.564716128685463"><ele>100.25</ele><time>2026-04-19T17:08:41Z</time></trkpt><trkpt lat="41.36824191303935" lon="15.564727044065327"><ele>100.0</ele><time>2026-04-19T17:08:42Z</time></trkpt><trkpt lat="41.36810269984469" lon="15.56473802186416"><ele>100.5</ele><time>2026-04-19T17:08:43Z</time></trkpt><trkpt lat="41.36796056953901" lon="15.56474345322239"><ele>101.0</ele><time>2026-04-19T17:08:44Z</time></trkpt><trkpt lat="41.36782139029661" lon="15.564749316097528"><ele>101.5</ele><time>2026-04-19T17:08:45Z</time></trkpt><trkpt lat="41.36768024838851" lon="15.564755500021612"><ele>102.0</ele><time>2026-04-19T17:08:46Z</time></trkpt><trkpt lat="41.36753958929751" lon="15.564761323378866"><ele>102.0</ele><time>2026-04-19T17:08:47Z</time></trkpt><trkpt lat="41.36739541804944" lon="15.564771290688347"><ele>102.0</ele><time>2026-04-19T17:08:48Z</time></trkpt><trkpt lat="41.36725381154288" lon="15.56477391512011"><ele>102.0</ele><time>2026-04-19T17:08:49Z</time></trkpt><trkpt lat="41.36710923415604" lon="15.564779868216487"><ele>102.0</ele><time>2026-04-19T17:08:50Z</time></trkpt><trkpt lat="41.36696569574501" lon="15.564784369981329"><ele>101.66666666666666</ele><time>2026-04-19T17:08:51Z</time></trkpt><trkpt lat="41.366814529044106" lon="15.564790068910739"><ele>101.33333333333333</ele><time>2026-04-19T17:08:52Z</time></trkpt><trkpt lat="41.36665597845611" lon="15.564794112658362"><ele>101.0</ele><time>2026-04-19T17:08:53Z</time></trkpt><trkpt lat="41.366501409414155" lon="15.564801733950409"><ele>101.0</ele><time>2026-04-19T17:08:54Z</time></trkpt><trkpt lat="41.36634486402586" lon="15.564805202424749"><ele>101.0</ele><time>2026-04-19T17:08:55Z</time></trkpt><trkpt lat="41.36618187431581" lon="15.564809016667102"><ele>101.0</ele><time>2026-04-19T17:08:56Z</time></trkpt><trkpt lat="41.36602430414665" lon="15.564811003787383"><ele>101.0</ele><time>2026-04-19T17:08:57Z</time></trkpt><trkpt lat="41.36586078277237" lon="15.564819855635765"><ele>101.0</ele><time>2026-04-19T17:08:58Z</time></trkpt><trkpt lat="41.36569976280869" lon="15.564819057401069"><ele>101.0</ele><time>2026-04-19T17:08:59Z</time></trkpt><trkpt lat="41.36554548184559" lon="15.56481917368759"><ele>101.33333333333333</ele><time>2026-04-19T17:09:00Z</time></trkpt><trkpt lat="41.36539380310069" lon="15.564825443938359"><ele>101.66666666666666</ele><time>2026-04-19T17:09:01Z</time></trkpt><trkpt lat="41.365240565759606" lon="15.564828811721515"><ele>102.0</ele><time>2026-04-19T17:09:02Z</time></trkpt><trkpt lat="41.36509002752577" lon="15.564829802352063"><ele>102.0</ele><time>2026-04-19T17:09:03Z</time></trkpt><trkpt lat="41.36494650624883" lon="15.564832540386627"><ele>102.0</ele><time>2026-04-19T17:09:04Z</time></trkpt><trkpt lat="41.364798792500096" lon="15.564836358370124"><ele>102.0</ele><time>2026-04-19T17:09:05Z</time></trkpt><trkpt lat="41.36464833302607" lon="15.564838871662474"><ele>102.0</ele><time>2026-04-19T17:09:06Z</time></trkpt><trkpt lat="41.36450057901251" lon="15.56484223665293"><ele>102.33333333333334</ele><time>2026-04-19T17:09:07Z</time></trkpt><trkpt lat="41.36434743634837" lon="15.564838094656949"><ele>102.66666666666667</ele><time>2026-04-19T17:09:08Z</time></trkpt><trkpt lat="41.36419918590242" lon="15.564844843552965"><ele>103.0</ele><time>2026-04-19T17:09:09Z</time></trkpt><trkpt lat="41.36404207904738" lon="15.564849177837843"><ele>103.0</ele><time>2026-04-19T17:09:10Z</time></trkpt><trkpt lat="41.363890662019564" lon="15.564849578570074"><ele>103.0</ele><time>2026-04-19T17:09:11Z</time></trkpt><trkpt lat="41.36373368958619" lon="15.564843803619246"><ele>103.0</ele><time>2026-04-19T17:09:12Z</time></trkpt><trkpt lat="41.36357342830441" lon="15.564849225203146"><ele>103.0</ele><time>2026-04-19T17:09:13Z</time></trkpt><trkpt lat="41.36341119500002" lon="15.564847145471177"><ele>103.0</ele><time>2026-04-19T17:09:14Z</time></trkpt><trkpt lat="41.36324812547674" lon="15.564844158490304"><ele>103.0</ele><time>2026-04-19T17:09:15Z</time></trkpt><trkpt lat="41.363091908399724" lon="15.564840905037581"><ele>102.5</ele><time>2026-04-19T17:09:16Z</time></trkpt><trkpt lat="41.362942832771864" lon="15.564845157330053"><ele>102.0</ele><time>2026-04-19T17:09:17Z</time></trkpt><trkpt lat="41.362795077299765" lon="15.564848689332573"><ele>101.5</ele><time>2026-04-19T17:09:18Z</time></trkpt><trkpt lat="41.36264521447321" lon="15.564848679141058"><ele>101.0</ele><time>2026-04-19T17:09:19Z</time></trkpt><trkpt lat="41.362495307060335" lon="15.564844160389777"><ele>101.0</ele><time>2026-04-19T17:09:20Z</time></trkpt><trkpt lat="41.362350333683644" lon="15.56483449064345"><ele>101.0</ele><time>2026-04-19T17:09:21Z</time></trkpt><trkpt lat="41.36220144842858" lon="15.564837208953145"><ele>101.0</ele><time>2026-04-19T17:09:22Z</time></trkpt><trkpt lat="41.36204538873346" lon="15.564839631319407"><ele>101.33333333333333</ele><time>2026-04-19T17:09:23Z</time></trkpt><trkpt lat="41.36189611228503" lon="15.564831885099824"><ele>101.66666666666666</ele><time>2026-04-19T17:09:24Z</time></trkpt><trkpt lat="41.361741766722346" lon="15.56483407069515"><ele>102.0</ele><time>2026-04-19T17:09:25Z</time></trkpt><trkpt lat="41.36158997654712" lon="15.564826959188132"><ele>102.0</ele><time>2026-04-19T17:09:26Z</time></trkpt><trkpt lat="41.36143063522042" lon="15.564813759760632"><ele>102.0</ele><time>2026-04-19T17:09:27Z</time></trkpt><trkpt lat="41.361277621738104" lon="15.564814012425591"><ele>102.0</ele><time>2026-04-19T17:09:28Z</time></trkpt><trkpt lat="41.3611141120506" lon="15.564813585391882"><ele>102.0</ele><time>2026-04-19T17:09:29Z</time></trkpt><trkpt lat="41.360959730915226" lon="15.564811474964657"><ele>102.0</ele><time>2026-04-19T17:09:30Z</time></trkpt><trkpt lat="41.36080690512479" lon="15.564809807425123"><ele>102.0</ele><time>2026-04-19T17:09:31Z</time></trkpt><trkpt lat="41.36064695995508" lon="15.564804365313282"><ele>101.0</ele><time>2026-04-19T17:09:32Z</time></trkpt><trkpt lat="41.36049218178193" lon="15.564796492434919"><ele>100.0</ele><time>2026-04-19T17:09:33Z</time></trkpt><trkpt lat="41.360341993998794" lon="15.564795115643648"><ele>99.0</ele><time>2026-04-19T17:09:34Z</time></trkpt><trkpt lat="41.36018029304858" lon="15.56478976958583"><ele>99.0</ele><time>2026-04-19T17:09:35Z</time></trkpt><trkpt lat="41.36002855711761" lon="15.564784476482991"><ele>99.0</ele><time>2026-04-19T17:09:36Z</time></trkpt><trkpt lat="41.359872928576635" lon="15.564775496807949"><ele>99.0</ele><time>2026-04-19T17:09:37Z</time></trkpt><trkpt lat="41.359718747607" lon="15.564769633915802"><ele>98.75</ele><time>2026-04-19T17:09:38Z</time></trkpt><trkpt lat="41.35957356362591" lon="15.564770428732007"><ele>98.5</ele><time>2026-04-19T17:09:39Z</time></trkpt><trkpt lat="41.359418433998925" lon="15.564768491300645"><ele>98.25</ele><time>2026-04-19T17:09:40Z</time></trkpt><trkpt lat="41.35928673639345" lon="15.564762116078578"><ele>98.0</ele><time>2026-04-19T17:09:41Z</time></trkpt><trkpt lat="41.35914460695995" lon="15.564752789533246"><ele>98.0</ele><time>2026-04-19T17:09:42Z</time></trkpt><trkpt lat="41.35898510247273" lon="15.564744996179964"><ele>98.0</ele><time>2026-04-19T17:09:43Z</time></trkpt><trkpt lat="41.35883520300769" lon="15.564735647321523"><ele>98.0</ele><time>2026-04-19T17:09:44Z</time></trkpt><trkpt lat="41.35868385138282" lon="15.564732623564934"><ele>98.25</ele><time>2026-04-19T17:09:45Z</time></trkpt><trkpt lat="41.358540588680825" lon="15.564727093584601"><ele>98.5</ele><time>2026-04-19T17:09:46Z</time></trkpt><trkpt lat="41.358398542912525" lon="15.564721312621181"><ele>98.75</ele><time>2026-04-19T17:09:47Z</time></trkpt><trkpt lat="41.358258985275036" lon="15.564714841176249"><ele>99.0</ele><time>2026-04-19T17:09:48Z</time></trkpt><trkpt lat="41.358113854375894" lon="15.56470241180974"><ele>99.5</ele><time>2026-04-19T17:09:49Z</time></trkpt><trkpt lat="41.3579761873215" lon="15.564697512564202"><ele>100.0</ele><time>2026-04-19T17:09:50Z</time></trkpt><trkpt lat="41.357834528713234" lon="15.564693087238474"><ele>100.5</ele><time>2026-04-19T17:09:51Z</time></trkpt><trkpt lat="41.35768858953626" lon="15.56468227541764"><ele>101.0</ele><time>2026-04-19T17:09:52Z</time></trkpt><trkpt lat="41.35754050885944" lon="15.564676881830922"><ele>101.0</ele><time>2026-04-19T17:09:53Z</time></trkpt><trkpt lat="41.35738567356168" lon="15.564665898121154"><ele>101.0</ele><time>2026-04-19T17:09:54Z</time></trkpt><trkpt lat="41.35723143708028" lon="15.564655820179107"><ele>101.0</ele><time>2026-04-19T17:09:55Z</time></trkpt><trkpt lat="41.35707433854087" lon="15.564651293027202"><ele>101.33333333333333</ele><time>2026-04-19T17:09:56Z</time></trkpt><trkpt lat="41.35691423727283" lon="15.564642774791556"><ele>101.66666666666666</ele><time>2026-04-19T17:09:57Z</time></trkpt><trkpt lat="41.356750363080494" lon="15.564628682593808"><ele>102.0</ele><time>2026-04-19T17:09:58Z</time></trkpt><trkpt lat="41.35658470197449" lon="15.56461528017713"><ele>102.0</ele><time>2026-04-19T17:09:59Z</time></trkpt><trkpt lat="41.35642184641725" lon="15.56460603491159"><ele>102.0</ele><time>2026-04-19T17:10:00Z</time></trkpt><trkpt lat="41.35626204368867" lon="15.564592563030455"><ele>102.0</ele><time>2026-04-19T17:10:01Z</time></trkpt><trkpt lat="41.356104539115144" lon="15.564584912918107"><ele>102.33333333333334</ele><time>2026-04-19T17:10:02Z</time></trkpt><trkpt lat="41.35594318773253" lon="15.564573773227083"><ele>102.66666666666667</ele><time>2026-04-19T17:10:03Z</time></trkpt><trkpt lat="41.35578665179573" lon="15.564563671904718"><ele>103.0</ele><time>2026-04-19T17:10:04Z</time></trkpt><trkpt lat="41.355633232521306" lon="15.564551848339377"><ele>103.0</ele><time>2026-04-19T17:10:05Z</time></trkpt><trkpt lat="41.35547911752999" lon="15.5645423442833"><ele>103.0</ele><time>2026-04-19T17:10:06Z</time></trkpt><trkpt lat="41.35532920706321" lon="15.564529419119816"><ele>103.0</ele><time>2026-04-19T17:10:07Z</time></trkpt><trkpt lat="41.355176293464794" lon="15.564516684949336"><ele>103.0</ele><time>2026-04-19T17:10:08Z</time></trkpt><trkpt lat="41.35502179182817" lon="15.564500971285222"><ele>103.0</ele><time>2026-04-19T17:10:09Z</time></trkpt><trkpt lat="41.35486654235888" lon="15.56449096769581"><ele>103.0</ele><time>2026-04-19T17:10:10Z</time></trkpt><trkpt lat="41.35471734277682" lon="15.564481511842335"><ele>103.33333333333334</ele><time>2026-04-19T17:10:11Z</time></trkpt><trkpt lat="41.35455746290713" lon="15.564464734053313"><ele>103.66666666666666</ele><time>2026-04-19T17:10:12Z</time></trkpt><trkpt lat="41.35440504301351" lon="15.564452822262664"><ele>104.0</ele><time>2026-04-19T17:10:13Z</time></trkpt><trkpt lat="41.354245858337556" lon="15.564439553805109"><ele>104.0</ele><time>2026-04-19T17:10:14Z</time></trkpt><trkpt lat="41.354096211775754" lon="15.564424675028933"><ele>104.0</ele><time>2026-04-19T17:10:15Z</time></trkpt><trkpt lat="41.35394218520542" lon="15.564407108580163"><ele>104.0</ele><time>2026-04-19T17:10:16Z</time></trkpt><trkpt lat="41.35378841862681" lon="15.564392648483096"><ele>104.33333333333333</ele><time>2026-04-19T17:10:17Z</time></trkpt><trkpt lat="41.353631895609574" lon="15.564381548051012"><ele>104.66666666666666</ele><time>2026-04-19T17:10:18Z</time></trkpt><trkpt lat="41.35348056453006" lon="15.564372069073075"><ele>105.0</ele><time>2026-04-19T17:10:19Z</time></trkpt><trkpt lat="41.353321301982106" lon="15.564357768157228"><ele>105.0</ele><time>2026-04-19T17:10:20Z</time></trkpt><trkpt lat="41.353162649193585" lon="15.564338904595557"><ele>105.0</ele><time>2026-04-19T17:10:21Z</time></trkpt><trkpt lat="41.352999061550705" lon="15.564319588938021"><ele>105.0</ele><time>2026-04-19T17:10:22Z</time></trkpt><trkpt lat="41.352835191907296" lon="15.56430445782203"><ele>105.0</ele><time>2026-04-19T17:10:23Z</time></trkpt><trkpt lat="41.35267221995952" lon="15.564289787349033"><ele>105.0</ele><time>2026-04-19T17:10:24Z</time></trkpt><trkpt lat="41.35250687003562" lon="15.56427406163039"><ele>105.0</ele><time>2026-04-19T17:10:25Z</time></trkpt><trkpt lat="41.35234882286263" lon="15.564258304463324"><ele>105.0</ele><time>2026-04-19T17:10:26Z</time></trkpt><trkpt lat="41.35219328040471" lon="15.564244887894656"><ele>105.0</ele><time>2026-04-19T17:10:27Z</time></trkpt><trkpt lat="41.352042446638066" lon="15.564228297700575"><ele>105.0</ele><time>2026-04-19T17:10:28Z</time></trkpt><trkpt lat="41.35188530088454" lon="15.56421076336611"><ele>105.0</ele><time>2026-04-19T17:10:29Z</time></trkpt><trkpt lat="41.35173347907482" lon="15.564191171917559"><ele>105.0</ele><time>2026-04-19T17:10:30Z</time></trkpt><trkpt lat="41.35157434497749" lon="15.564174279790468"><ele>105.0</ele><time>2026-04-19T17:10:31Z</time></trkpt><trkpt lat="41.351418034921785" lon="15.56415725955132"><ele>105.33333333333334</ele><time>2026-04-19T17:10:32Z</time></trkpt><trkpt lat="41.35125699493818" lon="15.564143417121898"><ele>105.66666666666667</ele><time>2026-04-19T17:10:33Z</time></trkpt><trkpt lat="41.351097310141895" lon="15.56412548863447"><ele>106.0</ele><time>2026-04-19T17:10:34Z</time></trkpt><trkpt lat="41.350940226344306" lon="15.564105655497997"><ele>106.0</ele><time>2026-04-19T17:10:35Z</time></trkpt><trkpt lat="41.35077513365633" lon="15.564088141064065"><ele>106.0</ele><time>2026-04-19T17:10:36Z</time></trkpt><trkpt lat="41.35061743043555" lon="15.564069046848694"><ele>106.0</ele><time>2026-04-19T17:10:37Z</time></trkpt><trkpt lat="41.35045602410795" lon="15.564051314298043"><ele>106.33333333333334</ele><time>2026-04-19T17:10:38Z</time></trkpt><trkpt lat="41.350297635849614" lon="15.564035056029217"><ele>106.66666666666666</ele><time>2026-04-19T17:10:39Z</time></trkpt><trkpt lat="41.350136133613134" lon="15.564017950906898"><ele>107.0</ele><time>2026-04-19T17:10:40Z</time></trkpt><trkpt lat="41.34998044787983" lon="15.563999035308376"><ele>107.0</ele><time>2026-04-19T17:10:41Z</time></trkpt><trkpt lat="41.34982287773678" lon="15.563979910135648"><ele>107.0</ele><time>2026-04-19T17:10:42Z</time></trkpt><trkpt lat="41.349667817456464" lon="15.56396174702018"><ele>107.0</ele><time>2026-04-19T17:10:43Z</time></trkpt><trkpt lat="41.34950718568288" lon="15.563943675788115"><ele>106.66666666666666</ele><time>2026-04-19T17:10:44Z</time></trkpt><trkpt lat="41.349351990597846" lon="15.563924320951608"><ele>106.33333333333334</ele><time>2026-04-19T17:10:45Z</time></trkpt><trkpt lat="41.349191864650344" lon="15.563904098543965"><ele>106.0</ele><time>2026-04-19T17:10:46Z</time></trkpt><trkpt lat="41.34903460831762" lon="15.56388579482581"><ele>106.66666666666667</ele><time>2026-04-19T17:10:47Z</time></trkpt><trkpt lat="41.34887569045192" lon="15.563868643366606"><ele>107.33333333333334</ele><time>2026-04-19T17:10:48Z</time></trkpt><trkpt lat="41.34871878928045" lon="15.563847351489933"><ele>108.0</ele><time>2026-04-19T17:10:49Z</time></trkpt><trkpt lat="41.348562030656026" lon="15.563821414333301"><ele>108.0</ele><time>2026-04-19T17:10:50Z</time></trkpt><trkpt lat="41.348406081245315" lon="15.56380194421576"><ele>108.0</ele><time>2026-04-19T17:10:51Z</time></trkpt><trkpt lat="41.34825151251325" lon="15.563784163046984"><ele>108.0</ele><time>2026-04-19T17:10:52Z</time></trkpt><trkpt lat="41.348091444285046" lon="15.563764419864167"><ele>107.66666666666666</ele><time>2026-04-19T17:10:53Z</time></trkpt><trkpt lat="41.34793760760219" lon="15.563741310770935"><ele>107.33333333333333</ele><time>2026-04-19T17:10:54Z</time></trkpt><trkpt lat="41.34777671921876" lon="15.563723729462847"><ele>107.0</ele><time>2026-04-19T17:10:55Z</time></trkpt><trkpt lat="41.347619727544" lon="15.563704383514969"><ele>107.0</ele><time>2026-04-19T17:10:56Z</time></trkpt><trkpt lat="41.347459568457936" lon="15.563683019452249"><ele>107.0</ele><time>2026-04-19T17:10:57Z</time></trkpt><trkpt lat="41.3473034714028" lon="15.563663362696278"><ele>107.0</ele><time>2026-04-19T17:10:58Z</time></trkpt><trkpt lat="41.347141049376546" lon="15.563640979174513"><ele>107.0</ele><time>2026-04-19T17:10:59Z</time></trkpt><trkpt lat="41.346983705654644" lon="15.563619802210198"><ele>107.0</ele><time>2026-04-19T17:11:00Z</time></trkpt><trkpt lat="41.346826647634764" lon="15.563598711873286"><ele>107.0</ele><time>2026-04-19T17:11:01Z</time></trkpt><trkpt lat="41.34667006824211" lon="15.563577092757065"><ele>107.0</ele><time>2026-04-19T17:11:02Z</time></trkpt><trkpt lat="41.346520138178754" lon="15.563557454743638"><ele>107.0</ele><time>2026-04-19T17:11:03Z</time></trkpt><trkpt lat="41.34637213317443" lon="15.563538313671987"><ele>107.0</ele><time>2026-04-19T17:11:04Z</time></trkpt><trkpt lat="41.34623892591448" lon="15.563516703998104"><ele>107.0</ele><time>2026-04-19T17:11:05Z</time></trkpt><trkpt lat="41.34609148961968" lon="15.563499544957386"><ele>107.25</ele><time>2026-04-19T17:11:06Z</time></trkpt><trkpt lat="41.34595051140422" lon="15.563476216846395"><ele>107.5</ele><time>2026-04-19T17:11:07Z</time></trkpt><trkpt lat="41.34580661533678" lon="15.563450998330342"><ele>107.75</ele><time>2026-04-19T17:11:08Z</time></trkpt><trkpt lat="41.345660233158" lon="15.56342976910492"><ele>108.0</ele><time>2026-04-19T17:11:09Z</time></trkpt><trkpt lat="41.345508129887484" lon="15.563407481485"><ele>108.66666666666666</ele><time>2026-04-19T17:11:10Z</time></trkpt><trkpt lat="41.34535637050168" lon="15.563385175486625"><ele>109.33333333333333</ele><time>2026-04-19T17:11:11Z</time></trkpt><trkpt lat="41.34520823388618" lon="15.563362525292321"><ele>110.0</ele><time>2026-04-19T17:11:12Z</time></trkpt><trkpt lat="41.34505236876535" lon="15.563340550459168"><ele>110.0</ele><time>2026-04-19T17:11:13Z</time></trkpt><trkpt lat="41.34490090173954" lon="15.563317172196701"><ele>110.0</ele><time>2026-04-19T17:11:14Z</time></trkpt><trkpt lat="41.344748834458244" lon="15.563297581943859"><ele>110.0</ele><time>2026-04-19T17:11:15Z</time></trkpt><trkpt lat="41.34460222003362" lon="15.563270287077833"><ele>110.0</ele><time>2026-04-19T17:11:16Z</time></trkpt><trkpt lat="41.344452559024866" lon="15.563249069788878"><ele>110.0</ele><time>2026-04-19T17:11:17Z</time></trkpt><trkpt lat="41.34429725240717" lon="15.563223549873618"><ele>110.0</ele><time>2026-04-19T17:11:18Z</time></trkpt><trkpt lat="41.344146954846764" lon="15.563194362742125"><ele>110.0</ele><time>2026-04-19T17:11:19Z</time></trkpt><trkpt lat="41.343994880974726" lon="15.563167663987677"><ele>110.0</ele><time>2026-04-19T17:11:20Z</time></trkpt><trkpt lat="41.34384084541832" lon="15.563145293659598"><ele>110.0</ele><time>2026-04-19T17:11:21Z</time></trkpt><trkpt lat="41.34369174476393" lon="15.563118719004196"><ele>109.66666666666666</ele><time>2026-04-19T17:11:22Z</time></trkpt><trkpt lat="41.34354145693224" lon="15.563095802963533"><ele>109.33333333333334</ele><time>2026-04-19T17:11:23Z</time></trkpt><trkpt lat="41.343391588408444" lon="15.563072693498293"><ele>109.0</ele><time>2026-04-19T17:11:24Z</time></trkpt><trkpt lat="41.34324268766052" lon="15.563047145965202"><ele>109.0</ele><time>2026-04-19T17:11:25Z</time></trkpt><trkpt lat="41.34309027029702" lon="15.563021624071991"><ele>109.0</ele><time>2026-04-19T17:11:26Z</time></trkpt><trkpt lat="41.34294356915111" lon="15.562986800382523"><ele>109.0</ele><time>2026-04-19T17:11:27Z</time></trkpt><trkpt lat="41.34278721947699" lon="15.56296605723986"><ele>109.0</ele><time>2026-04-19T17:11:28Z</time></trkpt><trkpt lat="41.34263579835326" lon="15.562945810006616"><ele>109.0</ele><time>2026-04-19T17:11:29Z</time></trkpt><trkpt lat="41.342483666009144" lon="15.56292398194929"><ele>109.0</ele><time>2026-04-19T17:11:30Z</time></trkpt><trkpt lat="41.342333232435244" lon="15.56290392555604"><ele>109.0</ele><time>2026-04-19T17:11:31Z</time></trkpt><trkpt lat="41.3421882475186" lon="15.562876529501418"><ele>109.0</ele><time>2026-04-19T17:11:32Z</time></trkpt><trkpt lat="41.34203312582555" lon="15.562851110795561"><ele>109.0</ele><time>2026-04-19T17:11:33Z</time></trkpt><trkpt lat="41.341883859431405" lon="15.56283246495365"><ele>109.0</ele><time>2026-04-19T17:11:34Z</time></trkpt><trkpt lat="41.34173555778937" lon="15.562799464350132"><ele>109.0</ele><time>2026-04-19T17:11:35Z</time></trkpt><trkpt lat="41.3415821490678" lon="15.562774644519983"><ele>109.0</ele><time>2026-04-19T17:11:36Z</time></trkpt><trkpt lat="41.34142227754987" lon="15.562748850668678"><ele>109.33333333333334</ele><time>2026-04-19T17:11:37Z</time></trkpt><trkpt lat="41.341258611524864" lon="15.562720532508958"><ele>109.66666666666666</ele><time>2026-04-19T17:11:38Z</time></trkpt><trkpt lat="41.34108639689192" lon="15.56269386276307"><ele>110.0</ele><time>2026-04-19T17:11:39Z</time></trkpt><trkpt lat="41.340915971000285" lon="15.562662239619927"><ele>110.0</ele><time>2026-04-19T17:11:40Z</time></trkpt><trkpt lat="41.34075836390338" lon="15.56263537153617"><ele>110.0</ele><time>2026-04-19T17:11:41Z</time></trkpt><trkpt lat="41.34059962353056" lon="15.562614887317844"><ele>110.0</ele><time>2026-04-19T17:11:42Z</time></trkpt><trkpt lat="41.340445028031404" lon="15.562587800735479"><ele>110.33333333333333</ele><time>2026-04-19T17:11:43Z</time></trkpt><trkpt lat="41.34029026377268" lon="15.562556970274839"><ele>110.66666666666666</ele><time>2026-04-19T17:11:44Z</time></trkpt><trkpt lat="41.34013108841937" lon="15.56252975740454"><ele>111.0</ele><time>2026-04-19T17:11:45Z</time></trkpt><trkpt lat="41.33997336724853" lon="15.562505613986435"><ele>111.0</ele><time>2026-04-19T17:11:46Z</time></trkpt><trkpt lat="41.33981886582091" lon="15.562479873702971"><ele>111.0</ele><time>2026-04-19T17:11:47Z</time></trkpt><trkpt lat="41.339660150091966" lon="15.56245059132639"><ele>111.0</ele><time>2026-04-19T17:11:48Z</time></trkpt><trkpt lat="41.339500682480406" lon="15.562418869241663"><ele>111.66666666666666</ele><time>2026-04-19T17:11:49Z</time></trkpt><trkpt lat="41.33934253353334" lon="15.562390266299525"><ele>112.33333333333333</ele><time>2026-04-19T17:11:50Z</time></trkpt><trkpt lat="41.33918234932483" lon="15.562365283356884"><ele>113.0</ele><time>2026-04-19T17:11:51Z</time></trkpt><trkpt lat="41.33902215381858" lon="15.562340640432689"><ele>115.0</ele><time>2026-04-19T17:11:52Z</time></trkpt><trkpt lat="41.3388613877756" lon="15.56231272441857"><ele>117.0</ele><time>2026-04-19T17:11:53Z</time></trkpt><trkpt lat="41.338700989258406" lon="15.562286644704459"><ele>119.0</ele><time>2026-04-19T17:11:54Z</time></trkpt><trkpt lat="41.33854487934499" lon="15.562260131314318"><ele>119.0</ele><time>2026-04-19T17:11:55Z</time></trkpt><trkpt lat="41.338378252239465" lon="15.56222940108852"><ele>119.0</ele><time>2026-04-19T17:11:56Z</time></trkpt><trkpt lat="41.33821912175578" lon="15.562198804269366"><ele>119.0</ele><time>2026-04-19T17:11:57Z</time></trkpt><trkpt lat="41.33805272784055" lon="15.562173794736623"><ele>120.33333333333333</ele><time>2026-04-19T17:11:58Z</time></trkpt><trkpt lat="41.33789706504291" lon="15.562150667849464"><ele>121.66666666666666</ele><time>2026-04-19T17:11:59Z</time></trkpt><trkpt lat="41.3377374260866" lon="15.562126903380172"><ele>123.0</ele><time>2026-04-19T17:12:00Z</time></trkpt><trkpt lat="41.337584779773465" lon="15.562097288486662"><ele>123.0</ele><time>2026-04-19T17:12:01Z</time></trkpt><trkpt lat="41.33743386461589" lon="15.562072289113221"><ele>123.0</ele><time>2026-04-19T17:12:02Z</time></trkpt><trkpt lat="41.33727647471321" lon="15.562046057849876"><ele>123.0</ele><time>2026-04-19T17:12:03Z</time></trkpt><trkpt lat="41.33712245465051" lon="15.562017476366558"><ele>123.33333333333334</ele><time>2026-04-19T17:12:04Z</time></trkpt><trkpt lat="41.33696409479259" lon="15.561989409698093"><ele>123.66666666666667</ele><time>2026-04-19T17:12:05Z</time></trkpt><trkpt lat="41.33680886699049" lon="15.561962649676284"><ele>124.0</ele><time>2026-04-19T17:12:06Z</time></trkpt><trkpt lat="41.33665541188402" lon="15.561936087807307"><ele>124.0</ele><time>2026-04-19T17:12:07Z</time></trkpt><trkpt lat="41.33650657515957" lon="15.56191145179059"><ele>124.0</ele><time>2026-04-19T17:12:08Z</time></trkpt><trkpt lat="41.33636397237948" lon="15.561888911387804"><ele>124.0</ele><time>2026-04-19T17:12:09Z</time></trkpt><trkpt lat="41.336221197212616" lon="15.561865807417453"><ele>124.0</ele><time>2026-04-19T17:12:10Z</time></trkpt><trkpt lat="41.33607660002821" lon="15.561842958988242"><ele>124.75</ele><time>2026-04-19T17:12:11Z</time></trkpt><trkpt lat="41.33593237826596" lon="15.561815188905006"><ele>125.5</ele><time>2026-04-19T17:12:12Z</time></trkpt><trkpt lat="41.33578821063303" lon="15.561789153800664"><ele>126.25</ele><time>2026-04-19T17:12:13Z</time></trkpt><trkpt lat="41.335634609565695" lon="15.561763210651417"><ele>127.0</ele><time>2026-04-19T17:12:14Z</time></trkpt><trkpt lat="41.335488916730384" lon="15.561736770580243"><ele>128.0</ele><time>2026-04-19T17:12:15Z</time></trkpt><trkpt lat="41.33533366549597" lon="15.561710465247527"><ele>129.0</ele><time>2026-04-19T17:12:16Z</time></trkpt><trkpt lat="41.33518825853391" lon="15.561683657099096"><ele>130.0</ele><time>2026-04-19T17:12:17Z</time></trkpt><trkpt lat="41.33503446627916" lon="15.56165734947921"><ele>130.0</ele><time>2026-04-19T17:12:18Z</time></trkpt><trkpt lat="41.3348867073015" lon="15.56163280514318"><ele>130.0</ele><time>2026-04-19T17:12:19Z</time></trkpt><trkpt lat="41.334736675070126" lon="15.561610014675086"><ele>130.0</ele><time>2026-04-19T17:12:20Z</time></trkpt><trkpt lat="41.33459505899847" lon="15.561586147298852"><ele>130.0</ele><time>2026-04-19T17:12:21Z</time></trkpt><trkpt lat="41.334441223038596" lon="15.56155873140785"><ele>131.0</ele><time>2026-04-19T17:12:22Z</time></trkpt><trkpt lat="41.33429006538608" lon="15.561536457441195"><ele>132.0</ele><time>2026-04-19T17:12:23Z</time></trkpt><trkpt lat="41.33413604282079" lon="15.561510518652998"><ele>133.0</ele><time>2026-04-19T17:12:24Z</time></trkpt><trkpt lat="41.33398801680781" lon="15.561483697842858"><ele>133.66666666666669</ele><time>2026-04-19T17:12:25Z</time></trkpt><trkpt lat="41.33383712172102" lon="15.561459921851753"><ele>134.33333333333334</ele><time>2026-04-19T17:12:26Z</time></trkpt><trkpt lat="41.33368618557213" lon="15.561437757303814"><ele>135.0</ele><time>2026-04-19T17:12:27Z</time></trkpt><trkpt lat="41.33353833850213" lon="15.561409757731424"><ele>135.0</ele><time>2026-04-19T17:12:28Z</time></trkpt><trkpt lat="41.33339015661444" lon="15.561379536386044"><ele>135.0</ele><time>2026-04-19T17:12:29Z</time></trkpt><trkpt lat="41.333240776090726" lon="15.561352055701358"><ele>135.0</ele><time>2026-04-19T17:12:30Z</time></trkpt><trkpt lat="41.33309176583181" lon="15.561329384005923"><ele>135.0</ele><time>2026-04-19T17:12:31Z</time></trkpt><trkpt lat="41.332940038209195" lon="15.561305208011708"><ele>135.0</ele><time>2026-04-19T17:12:32Z</time></trkpt><trkpt lat="41.332785209973146" lon="15.5612794172656"><ele>135.0</ele><time>2026-04-19T17:12:33Z</time></trkpt><trkpt lat="41.332630655930615" lon="15.561252359084884"><ele>135.0</ele><time>2026-04-19T17:12:34Z</time></trkpt><trkpt lat="41.33247319086739" lon="15.561225093117136"><ele>135.0</ele><time>2026-04-19T17:12:35Z</time></trkpt><trkpt lat="41.332317621319255" lon="15.561197677170128"><ele>135.0</ele><time>2026-04-19T17:12:36Z</time></trkpt><trkpt lat="41.332160485250526" lon="15.561170580018592"><ele>136.33333333333334</ele><time>2026-04-19T17:12:37Z</time></trkpt><trkpt lat="41.3320009261674" lon="15.56114410718642"><ele>137.66666666666669</ele><time>2026-04-19T17:12:38Z</time></trkpt><trkpt lat="41.33184480985052" lon="15.561117656727742"><ele>139.0</ele><time>2026-04-19T17:12:39Z</time></trkpt><trkpt lat="41.3316880440671" lon="15.561090019660245"><ele>139.0</ele><time>2026-04-19T17:12:40Z</time></trkpt><trkpt lat="41.33153647764518" lon="15.561063333356055"><ele>139.0</ele><time>2026-04-19T17:12:41Z</time></trkpt><trkpt lat="41.33138271573411" lon="15.561033829812587"><ele>139.0</ele><time>2026-04-19T17:12:42Z</time></trkpt><trkpt lat="41.33122765706003" lon="15.561006298687436"><ele>138.66666666666669</ele><time>2026-04-19T17:12:43Z</time></trkpt><trkpt lat="41.331070350575004" lon="15.56098401942119"><ele>138.33333333333334</ele><time>2026-04-19T17:12:44Z</time></trkpt><trkpt lat="41.33091202324663" lon="15.560960917631087"><ele>138.0</ele><time>2026-04-19T17:12:45Z</time></trkpt><trkpt lat="41.330760234677754" lon="15.560934795387293"><ele>138.0</ele><time>2026-04-19T17:12:46Z</time></trkpt><trkpt lat="41.3306001358707" lon="15.560907102483535"><ele>138.0</ele><time>2026-04-19T17:12:47Z</time></trkpt><trkpt lat="41.330445994533804" lon="15.560878415630482"><ele>138.0</ele><time>2026-04-19T17:12:48Z</time></trkpt><trkpt lat="41.33029038288654" lon="15.560854047854694"><ele>138.33333333333334</ele><time>2026-04-19T17:12:49Z</time></trkpt><trkpt lat="41.33013994392409" lon="15.560828885751048"><ele>138.66666666666669</ele><time>2026-04-19T17:12:50Z</time></trkpt><trkpt lat="41.329993357851826" lon="15.560804311251461"><ele>139.0</ele><time>2026-04-19T17:12:51Z</time></trkpt><trkpt lat="41.32984152257843" lon="15.560785864494276"><ele>139.0</ele><time>2026-04-19T17:12:52Z</time></trkpt><trkpt lat="41.329694586205704" lon="15.560753419773311"><ele>139.0</ele><time>2026-04-19T17:12:53Z</time></trkpt><trkpt lat="41.32954630489093" lon="15.5607228395965"><ele>139.0</ele><time>2026-04-19T17:12:54Z</time></trkpt><trkpt lat="41.32939862154787" lon="15.560697763399443"><ele>139.0</ele><time>2026-04-19T17:12:55Z</time></trkpt><trkpt lat="41.329248355786845" lon="15.560675642336347"><ele>139.0</ele><time>2026-04-19T17:12:56Z</time></trkpt><trkpt lat="41.32909773871835" lon="15.56065105953304"><ele>139.0</ele><time>2026-04-19T17:12:57Z</time></trkpt><trkpt lat="41.328945805070255" lon="15.560628182649502"><ele>139.0</ele><time>2026-04-19T17:12:58Z</time></trkpt><trkpt lat="41.32879494377198" lon="15.560605087114743"><ele>140.0</ele><time>2026-04-19T17:12:59Z</time></trkpt><trkpt lat="41.32863952557774" lon="15.5605781287039"><ele>141.0</ele><time>2026-04-19T17:13:00Z</time></trkpt><trkpt lat="41.328482713440884" lon="15.560549790341762"><ele>142.0</ele><time>2026-04-19T17:13:01Z</time></trkpt><trkpt lat="41.32831942772594" lon="15.560523180703278"><ele>142.0</ele><time>2026-04-19T17:13:02Z</time></trkpt><trkpt lat="41.32815314400948" lon="15.560496545515972"><ele>142.0</ele><time>2026-04-19T17:13:03Z</time></trkpt><trkpt lat="41.32799285815322" lon="15.560468524893624"><ele>142.0</ele><time>2026-04-19T17:13:04Z</time></trkpt><trkpt lat="41.327825128411924" lon="15.560440130191596"><ele>142.0</ele><time>2026-04-19T17:13:05Z</time></trkpt><trkpt lat="41.327662104825606" lon="15.560407826078196"><ele>142.0</ele><time>2026-04-19T17:13:06Z</time></trkpt><trkpt lat="41.32749379417502" lon="15.560375588508096"><ele>142.0</ele><time>2026-04-19T17:13:07Z</time></trkpt><trkpt lat="41.327324837044486" lon="15.560345911753268"><ele>143.0</ele><time>2026-04-19T17:13:08Z</time></trkpt><trkpt lat="41.32715301171233" lon="15.560319507433121"><ele>144.0</ele><time>2026-04-19T17:13:09Z</time></trkpt><trkpt lat="41.32698439356265" lon="15.56028986440008"><ele>145.0</ele><time>2026-04-19T17:13:10Z</time></trkpt><trkpt lat="41.32682067075475" lon="15.560260416117767"><ele>145.0</ele><time>2026-04-19T17:13:11Z</time></trkpt><trkpt lat="41.32665421398171" lon="15.560234920192837"><ele>145.0</ele><time>2026-04-19T17:13:12Z</time></trkpt><trkpt lat="41.326487867177335" lon="15.560210823349445"><ele>145.0</ele><time>2026-04-19T17:13:13Z</time></trkpt><trkpt lat="41.32632386924336" lon="15.56018917378378"><ele>145.25</ele><time>2026-04-19T17:13:14Z</time></trkpt><trkpt lat="41.32617760883171" lon="15.560165286673678"><ele>145.5</ele><time>2026-04-19T17:13:15Z</time></trkpt><trkpt lat="41.326036293889466" lon="15.560141090901872"><ele>145.75</ele><time>2026-04-19T17:13:16Z</time></trkpt><trkpt lat="41.32589625428652" lon="15.56011393004331"><ele>146.0</ele><time>2026-04-19T17:13:17Z</time></trkpt><trkpt lat="41.32575870503063" lon="15.560086102160398"><ele>146.0</ele><time>2026-04-19T17:13:18Z</time></trkpt><trkpt lat="41.32561616905646" lon="15.560065713561432"><ele>146.0</ele><time>2026-04-19T17:13:19Z</time></trkpt><trkpt lat="41.325477893291115" lon="15.56003817899156"><ele>146.0</ele><time>2026-04-19T17:13:20Z</time></trkpt><trkpt lat="41.325337661392695" lon="15.560016266687489"><ele>146.0</ele><time>2026-04-19T17:13:21Z</time></trkpt><trkpt lat="41.32519576876378" lon="15.559990995107803"><ele>146.0</ele><time>2026-04-19T17:13:22Z</time></trkpt><trkpt lat="41.32505240784532" lon="15.559963105310649"><ele>146.0</ele><time>2026-04-19T17:13:23Z</time></trkpt><trkpt lat="41.32490652150373" lon="15.559939007878755"><ele>146.0</ele><time>2026-04-19T17:13:24Z</time></trkpt><trkpt lat="41.32475265925418" lon="15.55991702582212"><ele>146.0</ele><time>2026-04-19T17:13:25Z</time></trkpt><trkpt lat="41.324600852760724" lon="15.559888831916304"><ele>147.33333333333331</ele><time>2026-04-19T17:13:26Z</time></trkpt><trkpt lat="41.32444215364939" lon="15.55986207577334"><ele>148.66666666666666</ele><time>2026-04-19T17:13:27Z</time></trkpt><trkpt lat="41.324287652792655" lon="15.55983959106083"><ele>150.0</ele><time>2026-04-19T17:13:28Z</time></trkpt><trkpt lat="41.32413347549217" lon="15.559814593012444"><ele>150.0</ele><time>2026-04-19T17:13:29Z</time></trkpt><trkpt lat="41.32397696083763" lon="15.559784411577889"><ele>150.0</ele><time>2026-04-19T17:13:30Z</time></trkpt><trkpt lat="41.32382131302949" lon="15.559754701731004"><ele>150.0</ele><time>2026-04-19T17:13:31Z</time></trkpt><trkpt lat="41.323661792389686" lon="15.559732016532484"><ele>150.33333333333334</ele><time>2026-04-19T17:13:32Z</time></trkpt><trkpt lat="41.3235064886402" lon="15.55970596892185"><ele>150.66666666666669</ele><time>2026-04-19T17:13:33Z</time></trkpt><trkpt lat="41.323346206738506" lon="15.559678661342268"><ele>151.0</ele><time>2026-04-19T17:13:34Z</time></trkpt><trkpt lat="41.32319133943462" lon="15.55965212215195"><ele>151.0</ele><time>2026-04-19T17:13:35Z</time></trkpt><trkpt lat="41.3230329398119" lon="15.559626089618874"><ele>151.0</ele><time>2026-04-19T17:13:36Z</time></trkpt><trkpt lat="41.3228864089077" lon="15.559596907591695"><ele>151.0</ele><time>2026-04-19T17:13:37Z</time></trkpt><trkpt lat="41.32273875089005" lon="15.559569821140709"><ele>151.0</ele><time>2026-04-19T17:13:38Z</time></trkpt><trkpt lat="41.322592548327904" lon="15.559543321476255"><ele>151.0</ele><time>2026-04-19T17:13:39Z</time></trkpt><trkpt lat="41.322448736991454" lon="15.55951604649636"><ele>151.0</ele><time>2026-04-19T17:13:40Z</time></trkpt><trkpt lat="41.322300999056004" lon="15.55948743768512"><ele>151.0</ele><time>2026-04-19T17:13:41Z</time></trkpt><trkpt lat="41.32215553710285" lon="15.559456933740158"><ele>152.66666666666669</ele><time>2026-04-19T17:13:42Z</time></trkpt><trkpt lat="41.322006107546734" lon="15.559426857533628"><ele>154.33333333333334</ele><time>2026-04-19T17:13:43Z</time></trkpt><trkpt lat="41.32185440743362" lon="15.559397910984059"><ele>156.0</ele><time>2026-04-19T17:13:44Z</time></trkpt><trkpt lat="41.321703597759154" lon="15.559367372863623"><ele>156.0</ele><time>2026-04-19T17:13:45Z</time></trkpt><trkpt lat="41.321553210109236" lon="15.559335350438008"><ele>156.0</ele><time>2026-04-19T17:13:46Z</time></trkpt><trkpt lat="41.32140293896935" lon="15.55930680551135"><ele>156.0</ele><time>2026-04-19T17:13:47Z</time></trkpt><trkpt lat="41.32125709664563" lon="15.559278327906153"><ele>156.25</ele><time>2026-04-19T17:13:48Z</time></trkpt><trkpt lat="41.321117023284636" lon="15.559250375546046"><ele>156.5</ele><time>2026-04-19T17:13:49Z</time></trkpt><trkpt lat="41.32097609613213" lon="15.559218280550544"><ele>156.75</ele><time>2026-04-19T17:13:50Z</time></trkpt><trkpt lat="41.32083096651241" lon="15.559185061590524"><ele>157.0</ele><time>2026-04-19T17:13:51Z</time></trkpt><trkpt lat="41.32068115388498" lon="15.559151260019153"><ele>157.33333333333334</ele><time>2026-04-19T17:13:52Z</time></trkpt><trkpt lat="41.320526824766205" lon="15.559119905070391"><ele>157.66666666666666</ele><time>2026-04-19T17:13:53Z</time></trkpt><trkpt lat="41.32037291869415" lon="15.559088211750717"><ele>158.0</ele><time>2026-04-19T17:13:54Z</time></trkpt><trkpt lat="41.320218380940474" lon="15.559057212090227"><ele>158.0</ele><time>2026-04-19T17:13:55Z</time></trkpt><trkpt lat="41.32006090158423" lon="15.559022316340668"><ele>158.0</ele><time>2026-04-19T17:13:56Z</time></trkpt><trkpt lat="41.31990828797465" lon="15.558987702379296"><ele>158.0</ele><time>2026-04-19T17:13:57Z</time></trkpt><trkpt lat="41.319752020516695" lon="15.558951798749495"><ele>158.66666666666666</ele><time>2026-04-19T17:13:58Z</time></trkpt><trkpt lat="41.31960547120698" lon="15.558917993198678"><ele>159.33333333333334</ele><time>2026-04-19T17:13:59Z</time></trkpt><trkpt lat="41.31945694384398" lon="15.558882468564436"><ele>160.0</ele><time>2026-04-19T17:14:00Z</time></trkpt><trkpt lat="41.31930743933658" lon="15.558849007461511"><ele>160.0</ele><time>2026-04-19T17:14:01Z</time></trkpt><trkpt lat="41.319162520838695" lon="15.558810428424914"><ele>160.0</ele><time>2026-04-19T17:14:02Z</time></trkpt><trkpt lat="41.31901936413455" lon="15.558775005599626"><ele>160.0</ele><time>2026-04-19T17:14:03Z</time></trkpt><trkpt lat="41.31887755969553" lon="15.558739940449522"><ele>160.0</ele><time>2026-04-19T17:14:04Z</time></trkpt><trkpt lat="41.31872817882301" lon="15.558711170310636"><ele>160.33333333333334</ele><time>2026-04-19T17:14:05Z</time></trkpt><trkpt lat="41.31857792017578" lon="15.558678042265655"><ele>160.66666666666666</ele><time>2026-04-19T17:14:06Z</time></trkpt><trkpt lat="41.318427778178254" lon="15.558639290722432"><ele>161.0</ele><time>2026-04-19T17:14:07Z</time></trkpt><trkpt lat="41.31826962922192" lon="15.558600432036854"><ele>161.0</ele><time>2026-04-19T17:14:08Z</time></trkpt><trkpt lat="41.31811629210745" lon="15.558564455813"><ele>161.0</ele><time>2026-04-19T17:14:09Z</time></trkpt><trkpt lat="41.317969621733596" lon="15.558526840752583"><ele>161.0</ele><time>2026-04-19T17:14:10Z</time></trkpt><trkpt lat="41.3178277174454" lon="15.558491382700387"><ele>161.0</ele><time>2026-04-19T17:14:11Z</time></trkpt><trkpt lat="41.31768369421819" lon="15.558460434313291"><ele>160.75</ele><time>2026-04-19T17:14:12Z</time></trkpt><trkpt lat="41.317548079679526" lon="15.558430517831614"><ele>160.5</ele><time>2026-04-19T17:14:13Z</time></trkpt><trkpt lat="41.31741587453554" lon="15.558396509581202"><ele>160.25</ele><time>2026-04-19T17:14:14Z</time></trkpt><trkpt lat="41.31728789602164" lon="15.55836033964979"><ele>160.0</ele><time>2026-04-19T17:14:15Z</time></trkpt><trkpt lat="41.31715532547053" lon="15.558328683883847"><ele>159.5</ele><time>2026-04-19T17:14:16Z</time></trkpt><trkpt lat="41.317018352578" lon="15.558298050389363"><ele>159.0</ele><time>2026-04-19T17:14:17Z</time></trkpt><trkpt lat="41.316878577018905" lon="15.55826535503938"><ele>158.5</ele><time>2026-04-19T17:14:18Z</time></trkpt><trkpt lat="41.31673573224016" lon="15.558234573370731"><ele>158.0</ele><time>2026-04-19T17:14:19Z</time></trkpt><trkpt lat="41.31658494877544" lon="15.55819955374217"><ele>158.0</ele><time>2026-04-19T17:14:20Z</time></trkpt><trkpt lat="41.316433802238706" lon="15.558162345466528"><ele>158.0</ele><time>2026-04-19T17:14:21Z</time></trkpt><trkpt lat="41.3162796325219" lon="15.558121800872279"><ele>158.0</ele><time>2026-04-19T17:14:22Z</time></trkpt><trkpt lat="41.31612644873756" lon="15.558087655340914"><ele>157.33333333333331</ele><time>2026-04-19T17:14:23Z</time></trkpt><trkpt lat="41.3159730742932" lon="15.558053697797753"><ele>156.66666666666666</ele><time>2026-04-19T17:14:24Z</time></trkpt><trkpt lat="41.315820377966034" lon="15.558018650601532"><ele>156.0</ele><time>2026-04-19T17:14:25Z</time></trkpt><trkpt lat="41.315668967249614" lon="15.557983197388118"><ele>157.33333333333334</ele><time>2026-04-19T17:14:26Z</time></trkpt><trkpt lat="41.31551959887388" lon="15.557945073221767"><ele>158.66666666666669</ele><time>2026-04-19T17:14:27Z</time></trkpt><trkpt lat="41.31537017131573" lon="15.557906876324932"><ele>160.0</ele><time>2026-04-19T17:14:28Z</time></trkpt><trkpt lat="41.31522251864865" lon="15.557873449381777"><ele>160.0</ele><time>2026-04-19T17:14:29Z</time></trkpt><trkpt lat="41.31507231839849" lon="15.5578404331768"><ele>160.0</ele><time>2026-04-19T17:14:30Z</time></trkpt><trkpt lat="41.31492167363867" lon="15.557806663456754"><ele>160.0</ele><time>2026-04-19T17:14:31Z</time></trkpt><trkpt lat="41.314767082373024" lon="15.557772473892676"><ele>161.0</ele><time>2026-04-19T17:14:32Z</time></trkpt><trkpt lat="41.31461820581245" lon="15.557736477817325"><ele>162.0</ele><time>2026-04-19T17:14:33Z</time></trkpt><trkpt lat="41.31447012641535" lon="15.55769775675635"><ele>163.0</ele><time>2026-04-19T17:14:34Z</time></trkpt><trkpt lat="41.3143231848643" lon="15.557659817946751"><ele>163.0</ele><time>2026-04-19T17:14:35Z</time></trkpt><trkpt lat="41.31417647181893" lon="15.557621744505964"><ele>163.0</ele><time>2026-04-19T17:14:36Z</time></trkpt><trkpt lat="41.31402835561327" lon="15.557591313926789"><ele>163.0</ele><time>2026-04-19T17:14:37Z</time></trkpt><trkpt lat="41.313881009414864" lon="15.55756192395109"><ele>163.0</ele><time>2026-04-19T17:14:38Z</time></trkpt><trkpt lat="41.31371667806123" lon="15.557519268103603"><ele>162.5</ele><time>2026-04-19T17:14:39Z</time></trkpt><trkpt lat="41.31357564290891" lon="15.557483253058262"><ele>162.0</ele><time>2026-04-19T17:14:40Z</time></trkpt><trkpt lat="41.3134339269029" lon="15.557453958130337"><ele>161.5</ele><time>2026-04-19T17:14:41Z</time></trkpt><trkpt lat="41.31329918423158" lon="15.557421345303002"><ele>161.0</ele><time>2026-04-19T17:14:42Z</time></trkpt><trkpt lat="41.31316206886835" lon="15.557386231029984"><ele>161.25</ele><time>2026-04-19T17:14:43Z</time></trkpt><trkpt lat="41.31301681975088" lon="15.557355257317218"><ele>161.5</ele><time>2026-04-19T17:14:44Z</time></trkpt><trkpt lat="41.31287230985332" lon="15.557320963802407"><ele>161.75</ele><time>2026-04-19T17:14:45Z</time></trkpt><trkpt lat="41.31272229689935" lon="15.557288671668857"><ele>162.0</ele><time>2026-04-19T17:14:46Z</time></trkpt><trkpt lat="41.31257629627686" lon="15.557253290839528"><ele>162.0</ele><time>2026-04-19T17:14:47Z</time></trkpt><trkpt lat="41.31243665795338" lon="15.557217208098558"><ele>162.0</ele><time>2026-04-19T17:14:48Z</time></trkpt><trkpt lat="41.31230109070129" lon="15.557182507211861"><ele>162.0</ele><time>2026-04-19T17:14:49Z</time></trkpt><trkpt lat="41.31216222709177" lon="15.557149760086679"><ele>162.0</ele><time>2026-04-19T17:14:50Z</time></trkpt><trkpt lat="41.312021232121886" lon="15.557118763046232"><ele>162.25</ele><time>2026-04-19T17:14:51Z</time></trkpt><trkpt lat="41.31188335240594" lon="15.55708828980676"><ele>162.5</ele><time>2026-04-19T17:14:52Z</time></trkpt><trkpt lat="41.3117445609174" lon="15.557055536913913"><ele>162.75</ele><time>2026-04-19T17:14:53Z</time></trkpt><trkpt lat="41.31160776881349" lon="15.557021225551274"><ele>163.0</ele><time>2026-04-19T17:14:54Z</time></trkpt><trkpt lat="41.311472148433104" lon="15.556984402023023"><ele>163.25</ele><time>2026-04-19T17:14:55Z</time></trkpt><trkpt lat="41.31133032912515" lon="15.556947218641058"><ele>163.5</ele><time>2026-04-19T17:14:56Z</time></trkpt><trkpt lat="41.311188089093285" lon="15.556912099141922"><ele>163.75</ele><time>2026-04-19T17:14:57Z</time></trkpt><trkpt lat="41.31104648944506" lon="15.556879713399907"><ele>164.0</ele><time>2026-04-19T17:14:58Z</time></trkpt><trkpt lat="41.31090245445388" lon="15.556850052572315"><ele>164.0</ele><time>2026-04-19T17:14:59Z</time></trkpt><trkpt lat="41.31075533037679" lon="15.556819581398484"><ele>164.0</ele><time>2026-04-19T17:15:00Z</time></trkpt><trkpt lat="41.310606578438296" lon="15.556786857266646"><ele>164.0</ele><time>2026-04-19T17:15:01Z</time></trkpt><trkpt lat="41.31046089914391" lon="15.556751584727557"><ele>164.0</ele><time>2026-04-19T17:15:02Z</time></trkpt><trkpt lat="41.31031379584494" lon="15.556714304504759"><ele>163.5</ele><time>2026-04-19T17:15:03Z</time></trkpt><trkpt lat="41.31016441338006" lon="15.55667831732782"><ele>163.0</ele><time>2026-04-19T17:15:04Z</time></trkpt><trkpt lat="41.31001884076051" lon="15.556643611079663"><ele>162.5</ele><time>2026-04-19T17:15:05Z</time></trkpt><trkpt lat="41.30987167250656" lon="15.556611095427902"><ele>162.0</ele><time>2026-04-19T17:15:06Z</time></trkpt><trkpt lat="41.309724325668626" lon="15.556578690471827"><ele>161.33333333333334</ele><time>2026-04-19T17:15:07Z</time></trkpt><trkpt lat="41.30957687241931" lon="15.556544823230599"><ele>160.66666666666669</ele><time>2026-04-19T17:15:08Z</time></trkpt><trkpt lat="41.3094258395014" lon="15.5565111944614"><ele>160.0</ele><time>2026-04-19T17:15:09Z</time></trkpt><trkpt lat="41.309273498168146" lon="15.556476731035543"><ele>160.0</ele><time>2026-04-19T17:15:10Z</time></trkpt><trkpt lat="41.30912131332181" lon="15.556443152964107"><ele>160.0</ele><time>2026-04-19T17:15:11Z</time></trkpt><trkpt lat="41.30896656389617" lon="15.55640798563083"><ele>160.0</ele><time>2026-04-19T17:15:12Z</time></trkpt><trkpt lat="41.30881642950499" lon="15.556369654087659"><ele>159.25</ele><time>2026-04-19T17:15:13Z</time></trkpt><trkpt lat="41.308671038695024" lon="15.556328242580893"><ele>158.5</ele><time>2026-04-19T17:15:14Z</time></trkpt><trkpt lat="41.30852546485276" lon="15.556288685179977"><ele>157.75</ele><time>2026-04-19T17:15:15Z</time></trkpt><trkpt lat="41.308379891063254" lon="15.556252706198384"><ele>157.0</ele><time>2026-04-19T17:15:16Z</time></trkpt><trkpt lat="41.308235751991205" lon="15.556219504282886"><ele>157.66666666666669</ele><time>2026-04-19T17:15:17Z</time></trkpt><trkpt lat="41.30809084053016" lon="15.556187766961123"><ele>158.33333333333334</ele><time>2026-04-19T17:15:18Z</time></trkpt><trkpt lat="41.30794454571349" lon="15.556161675666475"><ele>159.0</ele><time>2026-04-19T17:15:19Z</time></trkpt><trkpt lat="41.30778901079362" lon="15.556141022231865"><ele>156.33333333333334</ele><time>2026-04-19T17:15:20Z</time></trkpt><trkpt lat="41.30763092148116" lon="15.556120160380198"><ele>153.66666666666669</ele><time>2026-04-19T17:15:21Z</time></trkpt><trkpt lat="41.307474247136426" lon="15.556091978419992"><ele>151.0</ele><time>2026-04-19T17:15:22Z</time></trkpt><trkpt lat="41.30731861043547" lon="15.55606510199146"><ele>149.75</ele><time>2026-04-19T17:15:23Z</time></trkpt><trkpt lat="41.30714798630044" lon="15.556050362288845"><ele>148.5</ele><time>2026-04-19T17:15:24Z</time></trkpt><trkpt lat="41.30712464942685" lon="15.555953214043809"><ele>147.25</ele><time>2026-04-19T17:15:25Z</time></trkpt><trkpt lat="41.30698471294463" lon="15.55592516254635"><ele>146.0</ele><time>2026-04-19T17:15:26Z</time></trkpt><trkpt lat="41.306842066805174" lon="15.555894173528207"><ele>146.0</ele><time>2026-04-19T17:15:27Z</time></trkpt><trkpt lat="41.30670059498903" lon="15.555869070912063"><ele>146.0</ele><time>2026-04-19T17:15:28Z</time></trkpt><trkpt lat="41.30655858268576" lon="15.555833024666539"><ele>146.0</ele><time>2026-04-19T17:15:29Z</time></trkpt><trkpt lat="41.30641792569867" lon="15.555795352667317"><ele>146.0</ele><time>2026-04-19T17:15:30Z</time></trkpt><trkpt lat="41.30627054341754" lon="15.555759546811737"><ele>145.33333333333331</ele><time>2026-04-19T17:15:31Z</time></trkpt><trkpt lat="41.306124612816006" lon="15.555722544108662"><ele>144.66666666666666</ele><time>2026-04-19T17:15:32Z</time></trkpt><trkpt lat="41.30597228313118" lon="15.555687143897906"><ele>144.0</ele><time>2026-04-19T17:15:33Z</time></trkpt><trkpt lat="41.305820593241414" lon="15.555651463826276"><ele>144.0</ele><time>2026-04-19T17:15:34Z</time></trkpt><trkpt lat="41.30567544543106" lon="15.555614921493145"><ele>144.0</ele><time>2026-04-19T17:15:35Z</time></trkpt><trkpt lat="41.305521659167574" lon="15.555582202566562"><ele>144.0</ele><time>2026-04-19T17:15:36Z</time></trkpt><trkpt lat="41.30536670755635" lon="15.55554663580705"><ele>144.33333333333334</ele><time>2026-04-19T17:15:37Z</time></trkpt><trkpt lat="41.30521803327165" lon="15.555504524373207"><ele>144.66666666666669</ele><time>2026-04-19T17:15:38Z</time></trkpt><trkpt lat="41.305062483498936" lon="15.555471174835835"><ele>145.0</ele><time>2026-04-19T17:15:39Z</time></trkpt><trkpt lat="41.30490945451804" lon="15.555435504659055"><ele>145.0</ele><time>2026-04-19T17:15:40Z</time></trkpt><trkpt lat="41.304755428987264" lon="15.555404779801641"><ele>145.0</ele><time>2026-04-19T17:15:41Z</time></trkpt><trkpt lat="41.304606123728846" lon="15.555370997010664"><ele>145.0</ele><time>2026-04-19T17:15:42Z</time></trkpt><trkpt lat="41.30445381181223" lon="15.55533591241034"><ele>144.66666666666669</ele><time>2026-04-19T17:15:43Z</time></trkpt><trkpt lat="41.30430391691328" lon="15.555303860645065"><ele>144.33333333333334</ele><time>2026-04-19T17:15:44Z</time></trkpt><trkpt lat="41.304152005535784" lon="15.5552783977812"><ele>144.0</ele><time>2026-04-19T17:15:45Z</time></trkpt><trkpt lat="41.3040002976521" lon="15.555249945818128"><ele>144.0</ele><time>2026-04-19T17:15:46Z</time></trkpt><trkpt lat="41.30384775932899" lon="15.555218020844299"><ele>144.0</ele><time>2026-04-19T17:15:47Z</time></trkpt><trkpt lat="41.30369019956729" lon="15.555188522119607"><ele>144.0</ele><time>2026-04-19T17:15:48Z</time></trkpt><trkpt lat="41.303530885734034" lon="15.555150870250841"><ele>144.0</ele><time>2026-04-19T17:15:49Z</time></trkpt><trkpt lat="41.30337777577128" lon="15.555109550354302"><ele>144.0</ele><time>2026-04-19T17:15:50Z</time></trkpt><trkpt lat="41.30322389458936" lon="15.555074208932087"><ele>144.0</ele><time>2026-04-19T17:15:51Z</time></trkpt><trkpt lat="41.303064408599106" lon="15.55505067020651"><ele>144.33333333333334</ele><time>2026-04-19T17:15:52Z</time></trkpt><trkpt lat="41.30290851786509" lon="15.555022960480878"><ele>144.66666666666669</ele><time>2026-04-19T17:15:53Z</time></trkpt><trkpt lat="41.30275079501939" lon="15.554997620015037"><ele>145.0</ele><time>2026-04-19T17:15:54Z</time></trkpt><trkpt lat="41.30260087378723" lon="15.554964279554355"><ele>145.0</ele><time>2026-04-19T17:15:55Z</time></trkpt><trkpt lat="41.30243924154342" lon="15.554937136713654"><ele>145.0</ele><time>2026-04-19T17:15:56Z</time></trkpt><trkpt lat="41.30228560409477" lon="15.554907616123018"><ele>145.0</ele><time>2026-04-19T17:15:57Z</time></trkpt><trkpt lat="41.30212401594747" lon="15.554879080185124"><ele>145.33333333333334</ele><time>2026-04-19T17:15:58Z</time></trkpt><trkpt lat="41.301966408089136" lon="15.554847996990405"><ele>145.66666666666666</ele><time>2026-04-19T17:15:59Z</time></trkpt><trkpt lat="41.30180145655772" lon="15.55482264883167"><ele>146.0</ele><time>2026-04-19T17:16:00Z</time></trkpt><trkpt lat="41.30163662381201" lon="15.554793955656955"><ele>146.0</ele><time>2026-04-19T17:16:01Z</time></trkpt><trkpt lat="41.30147373788066" lon="15.554764925371945"><ele>146.0</ele><time>2026-04-19T17:16:02Z</time></trkpt><trkpt lat="41.3013088781283" lon="15.554733138487038"><ele>146.0</ele><time>2026-04-19T17:16:03Z</time></trkpt><trkpt lat="41.301138600610265" lon="15.554704615129348"><ele>146.33333333333331</ele><time>2026-04-19T17:16:04Z</time></trkpt><trkpt lat="41.300969157712" lon="15.554675263648068"><ele>146.66666666666666</ele><time>2026-04-19T17:16:05Z</time></trkpt><trkpt lat="41.300801094096165" lon="15.554649328900982"><ele>147.0</ele><time>2026-04-19T17:16:06Z</time></trkpt><trkpt lat="41.30063324337512" lon="15.55461990785517"><ele>147.33333333333334</ele><time>2026-04-19T17:16:07Z</time></trkpt><trkpt lat="41.300459465366934" lon="15.554600029187059"><ele>147.66666666666669</ele><time>2026-04-19T17:16:08Z</time></trkpt><trkpt lat="41.30030138412754" lon="15.55456619153003"><ele>148.0</ele><time>2026-04-19T17:16:09Z</time></trkpt><trkpt lat="41.30012916132297" lon="15.55454743090429"><ele>148.66666666666669</ele><time>2026-04-19T17:16:10Z</time></trkpt><trkpt lat="41.29996031542073" lon="15.554523388264284"><ele>149.33333333333334</ele><time>2026-04-19T17:16:11Z</time></trkpt><trkpt lat="41.299787692740765" lon="15.554497432926567"><ele>150.0</ele><time>2026-04-19T17:16:12Z</time></trkpt><trkpt lat="41.299614698220395" lon="15.554469639677409"><ele>151.0</ele><time>2026-04-19T17:16:13Z</time></trkpt><trkpt lat="41.29944028276506" lon="15.554446119119765"><ele>152.0</ele><time>2026-04-19T17:16:14Z</time></trkpt><trkpt lat="41.2992611452714" lon="15.554419568992211"><ele>153.0</ele><time>2026-04-19T17:16:15Z</time></trkpt><trkpt lat="41.29907295460463" lon="15.554398533596256"><ele>153.66666666666666</ele><time>2026-04-19T17:16:16Z</time></trkpt><trkpt lat="41.29888421102622" lon="15.554370477841168"><ele>154.33333333333331</ele><time>2026-04-19T17:16:17Z</time></trkpt><trkpt lat="41.29869854834893" lon="15.554337768226269"><ele>155.0</ele><time>2026-04-19T17:16:18Z</time></trkpt><trkpt lat="41.29850168402962" lon="15.55431659050424"><ele>155.0</ele><time>2026-04-19T17:16:19Z</time></trkpt><trkpt lat="41.29830876370997" lon="15.554294214334753"><ele>155.0</ele><time>2026-04-19T17:16:20Z</time></trkpt><trkpt lat="41.298123263967774" lon="15.554263654553461"><ele>155.0</ele><time>2026-04-19T17:16:21Z</time></trkpt><trkpt lat="41.29791785455893" lon="15.554247812711564"><ele>155.0</ele><time>2026-04-19T17:16:22Z</time></trkpt><trkpt lat="41.29773051343486" lon="15.554219035575287"><ele>155.0</ele><time>2026-04-19T17:16:23Z</time></trkpt><trkpt lat="41.29753317385867" lon="15.554202962895706"><ele>155.0</ele><time>2026-04-19T17:16:24Z</time></trkpt><trkpt lat="41.29734006637188" lon="15.554187468176725"><ele>155.66666666666666</ele><time>2026-04-19T17:16:25Z</time></trkpt><trkpt lat="41.29716124497426" lon="15.55416102650616"><ele>156.33333333333334</ele><time>2026-04-19T17:16:26Z</time></trkpt><trkpt lat="41.29697876236296" lon="15.554144069184503"><ele>157.0</ele><time>2026-04-19T17:16:27Z</time></trkpt><trkpt lat="41.29680510434265" lon="15.554124051184724"><ele>157.0</ele><time>2026-04-19T17:16:28Z</time></trkpt><trkpt lat="41.29662268022196" lon="15.554113422409316"><ele>157.0</ele><time>2026-04-19T17:16:29Z</time></trkpt><trkpt lat="41.29645025688308" lon="15.55409223261576"><ele>157.0</ele><time>2026-04-19T17:16:30Z</time></trkpt><trkpt lat="41.296279867048206" lon="15.554068014897066"><ele>159.33333333333334</ele><time>2026-04-19T17:16:31Z</time></trkpt><trkpt lat="41.29609970895752" lon="15.55405373695857"><ele>161.66666666666666</ele><time>2026-04-19T17:16:32Z</time></trkpt><trkpt lat="41.29593430587454" lon="15.554036186963549"><ele>164.0</ele><time>2026-04-19T17:16:33Z</time></trkpt><trkpt lat="41.295777110095216" lon="15.554021392902063"><ele>164.0</ele><time>2026-04-19T17:16:34Z</time></trkpt><trkpt lat="41.295622297124616" lon="15.55400888515944"><ele>164.0</ele><time>2026-04-19T17:16:35Z</time></trkpt><trkpt lat="41.295457581502106" lon="15.553999897031497"><ele>164.0</ele><time>2026-04-19T17:16:36Z</time></trkpt><trkpt lat="41.29529866314564" lon="15.553987223284691"><ele>165.33333333333331</ele><time>2026-04-19T17:16:37Z</time></trkpt><trkpt lat="41.29513493079303" lon="15.553974314555804"><ele>166.66666666666666</ele><time>2026-04-19T17:16:38Z</time></trkpt><trkpt lat="41.2949697037739" lon="15.553966311654072"><ele>168.0</ele><time>2026-04-19T17:16:39Z</time></trkpt><trkpt lat="41.29480733987866" lon="15.553957019890083"><ele>168.33333333333334</ele><time>2026-04-19T17:16:40Z</time></trkpt><trkpt lat="41.2946487731746" lon="15.55394207739365"><ele>168.66666666666669</ele><time>2026-04-19T17:16:41Z</time></trkpt><trkpt lat="41.294482350007485" lon="15.553935303528952"><ele>169.0</ele><time>2026-04-19T17:16:42Z</time></trkpt><trkpt lat="41.294320821074756" lon="15.553916592981412"><ele>169.0</ele><time>2026-04-19T17:16:43Z</time></trkpt><trkpt lat="41.2941576255459" lon="15.553904404960262"><ele>169.0</ele><time>2026-04-19T17:16:44Z</time></trkpt><trkpt lat="41.29399592559835" lon="15.553892039571604"><ele>169.0</ele><time>2026-04-19T17:16:45Z</time></trkpt><trkpt lat="41.29382984949201" lon="15.553886215195792"><ele>169.0</ele><time>2026-04-19T17:16:46Z</time></trkpt><trkpt lat="41.29366292562036" lon="15.553884594972208"><ele>169.0</ele><time>2026-04-19T17:16:47Z</time></trkpt><trkpt lat="41.29349461018474" lon="15.5538805382641"><ele>169.0</ele><time>2026-04-19T17:16:48Z</time></trkpt><trkpt lat="41.293332210304584" lon="15.553866662915897"><ele>169.0</ele><time>2026-04-19T17:16:49Z</time></trkpt><trkpt lat="41.293169658211276" lon="15.553849668180476"><ele>169.0</ele><time>2026-04-19T17:16:50Z</time></trkpt><trkpt lat="41.29300754722921" lon="15.553840715282332"><ele>169.0</ele><time>2026-04-19T17:16:51Z</time></trkpt><trkpt lat="41.292838098556764" lon="15.553842419274957"><ele>169.0</ele><time>2026-04-19T17:16:52Z</time></trkpt><trkpt lat="41.292680220897026" lon="15.553831833946031"><ele>169.0</ele><time>2026-04-19T17:16:53Z</time></trkpt><trkpt lat="41.292514320199686" lon="15.553826950696761"><ele>169.0</ele><time>2026-04-19T17:16:54Z</time></trkpt><trkpt lat="41.29235401002031" lon="15.553817059976264"><ele>169.33333333333334</ele><time>2026-04-19T17:16:55Z</time></trkpt><trkpt lat="41.29219196345007" lon="15.553812095455433"><ele>169.66666666666666</ele><time>2026-04-19T17:16:56Z</time></trkpt><trkpt lat="41.29203030332803" lon="15.553810055707505"><ele>170.0</ele><time>2026-04-19T17:16:57Z</time></trkpt><trkpt lat="41.29186471344409" lon="15.553806996189026"><ele>170.0</ele><time>2026-04-19T17:16:58Z</time></trkpt><trkpt lat="41.29170275342281" lon="15.553801945830683"><ele>170.0</ele><time>2026-04-19T17:16:59Z</time></trkpt><trkpt lat="41.291543418185654" lon="15.553794152261105"><ele>170.0</ele><time>2026-04-19T17:17:00Z</time></trkpt><trkpt lat="41.291381993148704" lon="15.553791830708448"><ele>170.33333333333331</ele><time>2026-04-19T17:17:01Z</time></trkpt><trkpt lat="41.29121856855795" lon="15.553791929804465"><ele>170.66666666666666</ele><time>2026-04-19T17:17:02Z</time></trkpt><trkpt lat="41.2910542855074" lon="15.553791219315228"><ele>171.0</ele><time>2026-04-19T17:17:03Z</time></trkpt><trkpt lat="41.29089316673866" lon="15.553783446941887"><ele>171.0</ele><time>2026-04-19T17:17:04Z</time></trkpt><trkpt lat="41.29072421915105" lon="15.553779424873229"><ele>171.0</ele><time>2026-04-19T17:17:05Z</time></trkpt><trkpt lat="41.29055124630088" lon="15.55378028603263"><ele>171.0</ele><time>2026-04-19T17:17:06Z</time></trkpt><trkpt lat="41.29037862815672" lon="15.553781286451573"><ele>170.33333333333334</ele><time>2026-04-19T17:17:07Z</time></trkpt><trkpt lat="41.290202084204104" lon="15.553781560734675"><ele>169.66666666666669</ele><time>2026-04-19T17:17:08Z</time></trkpt><trkpt lat="41.29002421147133" lon="15.553781534923232"><ele>169.0</ele><time>2026-04-19T17:17:09Z</time></trkpt><trkpt lat="41.289841508611936" lon="15.55378441435961"><ele>169.0</ele><time>2026-04-19T17:17:10Z</time></trkpt><trkpt lat="41.28965438338504" lon="15.553785223280999"><ele>169.0</ele><time>2026-04-19T17:17:11Z</time></trkpt><trkpt lat="41.28947323195799" lon="15.553781099914731"><ele>169.0</ele><time>2026-04-19T17:17:12Z</time></trkpt><trkpt lat="41.28930189330312" lon="15.553779833315806"><ele>169.0</ele><time>2026-04-19T17:17:13Z</time></trkpt><trkpt lat="41.28914078669804" lon="15.553782129873944"><ele>169.0</ele><time>2026-04-19T17:17:14Z</time></trkpt><trkpt lat="41.288982896247454" lon="15.553782099541323"><ele>169.0</ele><time>2026-04-19T17:17:15Z</time></trkpt><trkpt lat="41.288819127823864" lon="15.553783900589295"><ele>168.66666666666669</ele><time>2026-04-19T17:17:16Z</time></trkpt><trkpt lat="41.28865766092794" lon="15.553784867115695"><ele>168.33333333333334</ele><time>2026-04-19T17:17:17Z</time></trkpt><trkpt lat="41.28849745217049" lon="15.553782452223608"><ele>168.0</ele><time>2026-04-19T17:17:18Z</time></trkpt><trkpt lat="41.28833596220395" lon="15.553778768314551"><ele>168.0</ele><time>2026-04-19T17:17:19Z</time></trkpt><trkpt lat="41.28816797122184" lon="15.553780912208651"><ele>168.0</ele><time>2026-04-19T17:17:20Z</time></trkpt><trkpt lat="41.287993577963064" lon="15.553780418740974"><ele>168.0</ele><time>2026-04-19T17:17:21Z</time></trkpt><trkpt lat="41.28781606674134" lon="15.553784189990141"><ele>167.66666666666666</ele><time>2026-04-19T17:17:22Z</time></trkpt><trkpt lat="41.28762783264428" lon="15.553786644454965"><ele>167.33333333333331</ele><time>2026-04-19T17:17:23Z</time></trkpt><trkpt lat="41.2874354635215" lon="15.553786027038155"><ele>167.0</ele><time>2026-04-19T17:17:24Z</time></trkpt><trkpt lat="41.28724509312502" lon="15.553781595995725"><ele>167.0</ele><time>2026-04-19T17:17:25Z</time></trkpt><trkpt lat="41.28705308997664" lon="15.553776665522541"><ele>167.0</ele><time>2026-04-19T17:17:26Z</time></trkpt><trkpt lat="41.28686640492715" lon="15.55377918538722"><ele>167.0</ele><time>2026-04-19T17:17:27Z</time></trkpt><trkpt lat="41.28669608522582" lon="15.5537839967122"><ele>167.0</ele><time>2026-04-19T17:17:28Z</time></trkpt><trkpt lat="41.28652376077645" lon="15.553785009878524"><ele>167.0</ele><time>2026-04-19T17:17:29Z</time></trkpt><trkpt lat="41.28635097429381" lon="15.55377805725627"><ele>167.0</ele><time>2026-04-19T17:17:30Z</time></trkpt><trkpt lat="41.28617400074511" lon="15.553772410349765"><ele>166.66666666666666</ele><time>2026-04-19T17:17:31Z</time></trkpt><trkpt lat="41.28599016166019" lon="15.553770845065163"><ele>166.33333333333334</ele><time>2026-04-19T17:17:32Z</time></trkpt><trkpt lat="41.285803579321495" lon="15.553775690589687"><ele>166.0</ele><time>2026-04-19T17:17:33Z</time></trkpt><trkpt lat="41.28561840801559" lon="15.55377912510831"><ele>166.66666666666669</ele><time>2026-04-19T17:17:34Z</time></trkpt><trkpt lat="41.2854329474734" lon="15.553783578301132"><ele>167.33333333333334</ele><time>2026-04-19T17:17:35Z</time></trkpt><trkpt lat="41.285246667135375" lon="15.55378524470883"><ele>168.0</ele><time>2026-04-19T17:17:36Z</time></trkpt><trkpt lat="41.285054805466785" lon="15.553783591377739"><ele>168.0</ele><time>2026-04-19T17:17:37Z</time></trkpt><trkpt lat="41.28486545238505" lon="15.553783976963329"><ele>168.0</ele><time>2026-04-19T17:17:38Z</time></trkpt><trkpt lat="41.28467699804844" lon="15.553780800115202"><ele>168.0</ele><time>2026-04-19T17:17:39Z</time></trkpt><trkpt lat="41.28448112651931" lon="15.553782432466141"><ele>168.0</ele><time>2026-04-19T17:17:40Z</time></trkpt><trkpt lat="41.284296370784844" lon="15.553785364844778"><ele>168.0</ele><time>2026-04-19T17:17:41Z</time></trkpt><trkpt lat="41.28411170063951" lon="15.553786492496632"><ele>168.0</ele><time>2026-04-19T17:17:42Z</time></trkpt><trkpt lat="41.2839264727151" lon="15.553785471441932"><ele>167.33333333333334</ele><time>2026-04-19T17:17:43Z</time></trkpt><trkpt lat="41.283741593896366" lon="15.553783775540897"><ele>166.66666666666669</ele><time>2026-04-19T17:17:44Z</time></trkpt><trkpt lat="41.283554393249794" lon="15.553784918809368"><ele>166.0</ele><time>2026-04-19T17:17:45Z</time></trkpt><trkpt lat="41.28337248979623" lon="15.553783247855085"><ele>166.0</ele><time>2026-04-19T17:17:46Z</time></trkpt><trkpt lat="41.28319541633156" lon="15.55378353850421"><ele>166.0</ele><time>2026-04-19T17:17:47Z</time></trkpt><trkpt lat="41.28301382229922" lon="15.55378504371552"><ele>166.0</ele><time>2026-04-19T17:17:48Z</time></trkpt><trkpt lat="41.28284316457432" lon="15.553786433349941"><ele>165.66666666666669</ele><time>2026-04-19T17:17:49Z</time></trkpt><trkpt lat="41.28265990132284" lon="15.55378975571061"><ele>165.33333333333334</ele><time>2026-04-19T17:17:50Z</time></trkpt><trkpt lat="41.282486346938505" lon="15.55379039321729"><ele>165.0</ele><time>2026-04-19T17:17:51Z</time></trkpt><trkpt lat="41.28231028197796" lon="15.553788804565558"><ele>164.0</ele><time>2026-04-19T17:17:52Z</time></trkpt><trkpt lat="41.282128449616756" lon="15.553790219339707"><ele>163.0</ele><time>2026-04-19T17:17:53Z</time></trkpt><trkpt lat="41.28195280030987" lon="15.55379218126566"><ele>162.0</ele><time>2026-04-19T17:17:54Z</time></trkpt><trkpt lat="41.28176924181886" lon="15.553793167990303"><ele>162.0</ele><time>2026-04-19T17:17:55Z</time></trkpt><trkpt lat="41.28158923395506" lon="15.553793300049245"><ele>162.0</ele><time>2026-04-19T17:17:56Z</time></trkpt><trkpt lat="41.28140849488424" lon="15.553793383219084"><ele>162.0</ele><time>2026-04-19T17:17:57Z</time></trkpt><trkpt lat="41.281226817166136" lon="15.553793942706088"><ele>161.66666666666666</ele><time>2026-04-19T17:17:58Z</time></trkpt><trkpt lat="41.28104808590146" lon="15.553792709780732"><ele>161.33333333333331</ele><time>2026-04-19T17:17:59Z</time></trkpt><trkpt lat="41.280866065583766" lon="15.553792937225383"><ele>161.0</ele><time>2026-04-19T17:18:00Z</time></trkpt><trkpt lat="41.28068643198126" lon="15.55379475890441"><ele>161.0</ele><time>2026-04-19T17:18:01Z</time></trkpt><trkpt lat="41.28050722149042" lon="15.553793656961467"><ele>161.0</ele><time>2026-04-19T17:18:02Z</time></trkpt><trkpt lat="41.28032813450051" lon="15.553790143439242"><ele>161.0</ele><time>2026-04-19T17:18:03Z</time></trkpt><trkpt lat="41.28014818359934" lon="15.553788454215956"><ele>161.0</ele><time>2026-04-19T17:18:04Z</time></trkpt><trkpt lat="41.27997376485498" lon="15.553783944655923"><ele>161.0</ele><time>2026-04-19T17:18:05Z</time></trkpt><trkpt lat="41.279793645484155" lon="15.553784198832306"><ele>161.0</ele><time>2026-04-19T17:18:06Z</time></trkpt><trkpt lat="41.279618039269245" lon="15.553774654588462"><ele>160.66666666666666</ele><time>2026-04-19T17:18:07Z</time></trkpt><trkpt lat="41.27944361481081" lon="15.553765338250189"><ele>160.33333333333334</ele><time>2026-04-19T17:18:08Z</time></trkpt><trkpt lat="41.279268479061166" lon="15.553758109055726"><ele>160.0</ele><time>2026-04-19T17:18:09Z</time></trkpt><trkpt lat="41.27909416129124" lon="15.55374896674035"><ele>159.66666666666669</ele><time>2026-04-19T17:18:10Z</time></trkpt><trkpt lat="41.278921045109584" lon="15.553739862640452"><ele>159.33333333333334</ele><time>2026-04-19T17:18:11Z</time></trkpt><trkpt lat="41.27874553336854" lon="15.553730308061166"><ele>159.0</ele><time>2026-04-19T17:18:12Z</time></trkpt><trkpt lat="41.278572624804056" lon="15.553716937379264"><ele>159.0</ele><time>2026-04-19T17:18:13Z</time></trkpt><trkpt lat="41.27840068489315" lon="15.553705587646865"><ele>159.0</ele><time>2026-04-19T17:18:14Z</time></trkpt><trkpt lat="41.278223323756094" lon="15.553698142694136"><ele>159.0</ele><time>2026-04-19T17:18:15Z</time></trkpt><trkpt lat="41.278052364898144" lon="15.55368350029965"><ele>159.33333333333334</ele><time>2026-04-19T17:18:16Z</time></trkpt><trkpt lat="41.277874646044296" lon="15.553673149289974"><ele>159.66666666666669</ele><time>2026-04-19T17:18:17Z</time></trkpt><trkpt lat="41.27770049719363" lon="15.553654229669785"><ele>160.0</ele><time>2026-04-19T17:18:18Z</time></trkpt><trkpt lat="41.2775258520923" lon="15.553636850274067"><ele>160.0</ele><time>2026-04-19T17:18:19Z</time></trkpt><trkpt lat="41.27735355356051" lon="15.553617205915142"><ele>160.0</ele><time>2026-04-19T17:18:20Z</time></trkpt><trkpt lat="41.2771850716128" lon="15.553600716918758"><ele>160.0</ele><time>2026-04-19T17:18:21Z</time></trkpt><trkpt lat="41.2770150885842" lon="15.553584589430255"><ele>159.66666666666669</ele><time>2026-04-19T17:18:22Z</time></trkpt><trkpt lat="41.27684975875794" lon="15.553561922803208"><ele>159.33333333333334</ele><time>2026-04-19T17:18:23Z</time></trkpt><trkpt lat="41.27668152014711" lon="15.55353896529015"><ele>159.0</ele><time>2026-04-19T17:18:24Z</time></trkpt><trkpt lat="41.27651367511325" lon="15.55351587901363"><ele>158.33333333333334</ele><time>2026-04-19T17:18:25Z</time></trkpt><trkpt lat="41.276347354625756" lon="15.553493617671117"><ele>157.66666666666669</ele><time>2026-04-19T17:18:26Z</time></trkpt><trkpt lat="41.276169336986705" lon="15.553474675159604"><ele>157.0</ele><time>2026-04-19T17:18:27Z</time></trkpt><trkpt lat="41.276003906795914" lon="15.553447610840832"><ele>157.0</ele><time>2026-04-19T17:18:28Z</time></trkpt><trkpt lat="41.275832532640365" lon="15.553421226436718"><ele>157.0</ele><time>2026-04-19T17:18:29Z</time></trkpt><trkpt lat="41.27567065286352" lon="15.553389905588025"><ele>157.0</ele><time>2026-04-19T17:18:30Z</time></trkpt><trkpt lat="41.27548917500665" lon="15.553367194154893"><ele>157.0</ele><time>2026-04-19T17:18:31Z</time></trkpt><trkpt lat="41.27531687437176" lon="15.55333613129708"><ele>157.0</ele><time>2026-04-19T17:18:32Z</time></trkpt><trkpt lat="41.27513577465778" lon="15.5533059273365"><ele>157.0</ele><time>2026-04-19T17:18:33Z</time></trkpt><trkpt lat="41.27495918540032" lon="15.55327024340168"><ele>157.0</ele><time>2026-04-19T17:18:34Z</time></trkpt><trkpt lat="41.27478093750238" lon="15.553235598348705"><ele>157.0</ele><time>2026-04-19T17:18:35Z</time></trkpt><trkpt lat="41.27459811440013" lon="15.553204021810654"><ele>157.0</ele><time>2026-04-19T17:18:36Z</time></trkpt><trkpt lat="41.274413693479225" lon="15.553174000879089"><ele>157.0</ele><time>2026-04-19T17:18:37Z</time></trkpt><trkpt lat="41.27423209720681" lon="15.553140684317816"><ele>157.0</ele><time>2026-04-19T17:18:38Z</time></trkpt><trkpt lat="41.274046909930284" lon="15.553107816533224"><ele>157.0</ele><time>2026-04-19T17:18:39Z</time></trkpt><trkpt lat="41.27385405998178" lon="15.553071665911588"><ele>157.0</ele><time>2026-04-19T17:18:40Z</time></trkpt><trkpt lat="41.27366221612858" lon="15.553025787652514"><ele>157.0</ele><time>2026-04-19T17:18:41Z</time></trkpt><trkpt lat="41.27346585069185" lon="15.552980059548265"><ele>157.0</ele><time>2026-04-19T17:18:42Z</time></trkpt><trkpt lat="41.27327886559033" lon="15.55293851087418"><ele>157.33333333333334</ele><time>2026-04-19T17:18:43Z</time></trkpt><trkpt lat="41.27309846386178" lon="15.552901419315594"><ele>157.66666666666666</ele><time>2026-04-19T17:18:44Z</time></trkpt><trkpt lat="41.272924226325564" lon="15.552865306121488"><ele>158.0</ele><time>2026-04-19T17:18:45Z</time></trkpt><trkpt lat="41.272749095227866" lon="15.552824737523265"><ele>158.0</ele><time>2026-04-19T17:18:46Z</time></trkpt><trkpt lat="41.27258045953615" lon="15.552777269186262"><ele>158.0</ele><time>2026-04-19T17:18:47Z</time></trkpt><trkpt lat="41.2724046783488" lon="15.552731574290533"><ele>158.0</ele><time>2026-04-19T17:18:48Z</time></trkpt><trkpt lat="41.27222585458694" lon="15.552686373024759"><ele>157.66666666666666</ele><time>2026-04-19T17:18:49Z</time></trkpt><trkpt lat="41.272052912500044" lon="15.552637358615842"><ele>157.33333333333334</ele><time>2026-04-19T17:18:50Z</time></trkpt><trkpt lat="41.27187745649762" lon="15.552592149567566"><ele>157.0</ele><time>2026-04-19T17:18:51Z</time></trkpt><trkpt lat="41.271706430119124" lon="15.55254595154014"><ele>157.0</ele><time>2026-04-19T17:18:52Z</time></trkpt><trkpt lat="41.27152873559716" lon="15.55250148906321"><ele>157.0</ele><time>2026-04-19T17:18:53Z</time></trkpt><trkpt lat="41.271361446504635" lon="15.552448296971072"><ele>157.0</ele><time>2026-04-19T17:18:54Z</time></trkpt><trkpt lat="41.271184654781216" lon="15.552397559823566"><ele>156.33333333333334</ele><time>2026-04-19T17:18:55Z</time></trkpt><trkpt lat="41.27100440537649" lon="15.552349670568512"><ele>155.66666666666666</ele><time>2026-04-19T17:18:56Z</time></trkpt><trkpt lat="41.27083513003723" lon="15.552300681324548"><ele>155.0</ele><time>2026-04-19T17:18:57Z</time></trkpt><trkpt lat="41.27066973974186" lon="15.55224809344471"><ele>154.33333333333331</ele><time>2026-04-19T17:18:58Z</time></trkpt><trkpt lat="41.2705083014774" lon="15.55219798228245"><ele>153.66666666666666</ele><time>2026-04-19T17:18:59Z</time></trkpt><trkpt lat="41.27034418476308" lon="15.552146172034579"><ele>153.0</ele><time>2026-04-19T17:19:00Z</time></trkpt><trkpt lat="41.27017679166716" lon="15.552092273279525"><ele>153.33333333333334</ele><time>2026-04-19T17:19:01Z</time></trkpt><trkpt lat="41.27001074793193" lon="15.552036954856105"><ele>153.66666666666669</ele><time>2026-04-19T17:19:02Z</time></trkpt><trkpt lat="41.26984090034387" lon="15.551980661996655"><ele>154.0</ele><time>2026-04-19T17:19:03Z</time></trkpt><trkpt lat="41.26967750248966" lon="15.551916590095535"><ele>154.0</ele><time>2026-04-19T17:19:04Z</time></trkpt><trkpt lat="41.26950448608355" lon="15.551855050678485"><ele>154.0</ele><time>2026-04-19T17:19:05Z</time></trkpt><trkpt lat="41.269330462058974" lon="15.551795247201426"><ele>154.0</ele><time>2026-04-19T17:19:06Z</time></trkpt><trkpt lat="41.26915979553736" lon="15.551733951572972"><ele>154.0</ele><time>2026-04-19T17:19:07Z</time></trkpt><trkpt lat="41.26898678275292" lon="15.551671521285144"><ele>154.0</ele><time>2026-04-19T17:19:08Z</time></trkpt><trkpt lat="41.26881210797381" lon="15.551606548470534"><ele>154.0</ele><time>2026-04-19T17:19:09Z</time></trkpt><trkpt lat="41.268636350238225" lon="15.551542905711534"><ele>154.0</ele><time>2026-04-19T17:19:10Z</time></trkpt><trkpt lat="41.26846185430255" lon="15.551476119860816"><ele>154.0</ele><time>2026-04-19T17:19:11Z</time></trkpt><trkpt lat="41.268285793830934" lon="15.55140742821758"><ele>154.0</ele><time>2026-04-19T17:19:12Z</time></trkpt><trkpt lat="41.268108046525626" lon="15.551336186073307"><ele>154.0</ele><time>2026-04-19T17:19:13Z</time></trkpt><trkpt lat="41.26793368320723" lon="15.55126328540856"><ele>154.0</ele><time>2026-04-19T17:19:14Z</time></trkpt><trkpt lat="41.267753560550766" lon="15.551193016310235"><ele>154.0</ele><time>2026-04-19T17:19:15Z</time></trkpt><trkpt lat="41.26758026306408" lon="15.551118911047725"><ele>154.33333333333334</ele><time>2026-04-19T17:19:16Z</time></trkpt><trkpt lat="41.267394756890106" lon="15.5510509289729"><ele>154.66666666666666</ele><time>2026-04-19T17:19:17Z</time></trkpt><trkpt lat="41.2672169695938" lon="15.550979411267154"><ele>155.0</ele><time>2026-04-19T17:19:18Z</time></trkpt><trkpt lat="41.267038419795306" lon="15.550906291675563"><ele>154.33333333333331</ele><time>2026-04-19T17:19:19Z</time></trkpt><trkpt lat="41.266864031065175" lon="15.550830087265686"><ele>153.66666666666666</ele><time>2026-04-19T17:19:20Z</time></trkpt><trkpt lat="41.26668429356187" lon="15.550757079824697"><ele>153.0</ele><time>2026-04-19T17:19:21Z</time></trkpt><trkpt lat="41.26650931772923" lon="15.550678366584163"><ele>153.0</ele><time>2026-04-19T17:19:22Z</time></trkpt><trkpt lat="41.2663307361786" lon="15.550598514128176"><ele>153.0</ele><time>2026-04-19T17:19:23Z</time></trkpt><trkpt lat="41.266154538928724" lon="15.550514305893307"><ele>153.0</ele><time>2026-04-19T17:19:24Z</time></trkpt><trkpt lat="41.26597001773404" lon="15.550438465880866"><ele>153.33333333333334</ele><time>2026-04-19T17:19:25Z</time></trkpt><trkpt lat="41.26579941832393" lon="15.550350529952771"><ele>153.66666666666669</ele><time>2026-04-19T17:19:26Z</time></trkpt><trkpt lat="41.26562338846731" lon="15.550263658391637"><ele>154.0</ele><time>2026-04-19T17:19:27Z</time></trkpt><trkpt lat="41.26544142201052" lon="15.550180039326044"><ele>154.0</ele><time>2026-04-19T17:19:28Z</time></trkpt><trkpt lat="41.26526450179862" lon="15.550091312335747"><ele>154.0</ele><time>2026-04-19T17:19:29Z</time></trkpt><trkpt lat="41.2650911884612" lon="15.550002141384498"><ele>154.0</ele><time>2026-04-19T17:19:30Z</time></trkpt><trkpt lat="41.26491650927393" lon="15.549914764766834"><ele>154.33333333333334</ele><time>2026-04-19T17:19:31Z</time></trkpt><trkpt lat="41.26474159281409" lon="15.549828095807241"><ele>154.66666666666666</ele><time>2026-04-19T17:19:32Z</time></trkpt><trkpt lat="41.264569934935174" lon="15.549736206248939"><ele>155.0</ele><time>2026-04-19T17:19:33Z</time></trkpt><trkpt lat="41.264396996223844" lon="15.549645056683628"><ele>155.0</ele><time>2026-04-19T17:19:34Z</time></trkpt><trkpt lat="41.26422168091198" lon="15.549558497949628"><ele>155.0</ele><time>2026-04-19T17:19:35Z</time></trkpt><trkpt lat="41.26405332671295" lon="15.549466883700862"><ele>155.0</ele><time>2026-04-19T17:19:36Z</time></trkpt><trkpt lat="41.263882172422136" lon="15.549375501639545"><ele>155.33333333333331</ele><time>2026-04-19T17:19:37Z</time></trkpt><trkpt lat="41.26371161997384" lon="15.549280838467366"><ele>155.66666666666666</ele><time>2026-04-19T17:19:38Z</time></trkpt><trkpt lat="41.26354338829971" lon="15.549181707241258"><ele>156.0</ele><time>2026-04-19T17:19:39Z</time></trkpt><trkpt lat="41.2633730296857" lon="15.549085485451897"><ele>156.0</ele><time>2026-04-19T17:19:40Z</time></trkpt><trkpt lat="41.263207678045724" lon="15.548986992135672"><ele>156.0</ele><time>2026-04-19T17:19:41Z</time></trkpt><trkpt lat="41.263043267583804" lon="15.548889726047706"><ele>156.0</ele><time>2026-04-19T17:19:42Z</time></trkpt><trkpt lat="41.26288175792068" lon="15.548793276142515"><ele>156.33333333333334</ele><time>2026-04-19T17:19:43Z</time></trkpt><trkpt lat="41.26271959298296" lon="15.548699840769578"><ele>156.66666666666669</ele><time>2026-04-19T17:19:44Z</time></trkpt><trkpt lat="41.262557416674916" lon="15.548608559893003"><ele>157.0</ele><time>2026-04-19T17:19:45Z</time></trkpt><trkpt lat="41.26240002706233" lon="15.548514380458542"><ele>157.66666666666669</ele><time>2026-04-19T17:19:46Z</time></trkpt><trkpt lat="41.26223944259524" lon="15.54842386990461"><ele>158.33333333333334</ele><time>2026-04-19T17:19:47Z</time></trkpt><trkpt lat="41.26208355858779" lon="15.548328246457878"><ele>159.0</ele><time>2026-04-19T17:19:48Z</time></trkpt><trkpt lat="41.26192347785317" lon="15.548231488509096"><ele>159.0</ele><time>2026-04-19T17:19:49Z</time></trkpt><trkpt lat="41.26176903008411" lon="15.548127704058931"><ele>159.0</ele><time>2026-04-19T17:19:50Z</time></trkpt><trkpt lat="41.26160828856025" lon="15.548022351250967"><ele>159.0</ele><time>2026-04-19T17:19:51Z</time></trkpt><trkpt lat="41.261445942712726" lon="15.547916565414264"><ele>158.33333333333334</ele><time>2026-04-19T17:19:52Z</time></trkpt><trkpt lat="41.261284884848315" lon="15.547811055669346"><ele>157.66666666666669</ele><time>2026-04-19T17:19:53Z</time></trkpt><trkpt lat="41.261123642539566" lon="15.547704817064272"><ele>157.0</ele><time>2026-04-19T17:19:54Z</time></trkpt><trkpt lat="41.260959813049155" lon="15.547600532596874"><ele>157.0</ele><time>2026-04-19T17:19:55Z</time></trkpt><trkpt lat="41.26079934907285" lon="15.54749370717775"><ele>157.0</ele><time>2026-04-19T17:19:56Z</time></trkpt><trkpt lat="41.260645431959034" lon="15.547393465847724"><ele>157.0</ele><time>2026-04-19T17:19:57Z</time></trkpt><trkpt lat="41.26048823852941" lon="15.547293126763664"><ele>157.33333333333334</ele><time>2026-04-19T17:19:58Z</time></trkpt><trkpt lat="41.26033633390556" lon="15.547187668844902"><ele>157.66666666666666</ele><time>2026-04-19T17:19:59Z</time></trkpt><trkpt lat="41.26018125474896" lon="15.547082422197487"><ele>158.0</ele><time>2026-04-19T17:20:00Z</time></trkpt><trkpt lat="41.2600326404945" lon="15.546978590582231"><ele>158.0</ele><time>2026-04-19T17:20:01Z</time></trkpt><trkpt lat="41.259873981327374" lon="15.546875579322288"><ele>158.0</ele><time>2026-04-19T17:20:02Z</time></trkpt><trkpt lat="41.259725202164205" lon="15.546767444521343"><ele>158.0</ele><time>2026-04-19T17:20:03Z</time></trkpt><trkpt lat="41.25957640800873" lon="15.546671417048735"><ele>158.0</ele><time>2026-04-19T17:20:04Z</time></trkpt><trkpt lat="41.259433999136775" lon="15.546574597481582"><ele>158.0</ele><time>2026-04-19T17:20:05Z</time></trkpt><trkpt lat="41.25929174180292" lon="15.546477604982282"><ele>158.0</ele><time>2026-04-19T17:20:06Z</time></trkpt><trkpt lat="41.25914733850534" lon="15.546382011058459"><ele>158.0</ele><time>2026-04-19T17:20:07Z</time></trkpt><trkpt lat="41.25900521002121" lon="15.546287236223861"><ele>158.0</ele><time>2026-04-19T17:20:08Z</time></trkpt><trkpt lat="41.25886276645078" lon="15.54619312000319"><ele>158.0</ele><time>2026-04-19T17:20:09Z</time></trkpt><trkpt lat="41.258716923469144" lon="15.546097324508889"><ele>158.33333333333331</ele><time>2026-04-19T17:20:10Z</time></trkpt><trkpt lat="41.25857952324095" lon="15.546001897322121"><ele>158.66666666666666</ele><time>2026-04-19T17:20:11Z</time></trkpt><trkpt lat="41.25843404210518" lon="15.54590434090845"><ele>159.0</ele><time>2026-04-19T17:20:12Z</time></trkpt><trkpt lat="41.2582898736148" lon="15.545807998283383"><ele>159.0</ele><time>2026-04-19T17:20:13Z</time></trkpt><trkpt lat="41.258141824227515" lon="15.545713413778994"><ele>159.0</ele><time>2026-04-19T17:20:14Z</time></trkpt><trkpt lat="41.25799408206484" lon="15.545616288180765"><ele>159.0</ele><time>2026-04-19T17:20:15Z</time></trkpt><trkpt lat="41.25783729227963" lon="15.545512211090832"><ele>159.0</ele><time>2026-04-19T17:20:16Z</time></trkpt><trkpt lat="41.25768663600206" lon="15.545408375902145"><ele>159.0</ele><time>2026-04-19T17:20:17Z</time></trkpt><trkpt lat="41.25752564605337" lon="15.545306004191088"><ele>159.0</ele><time>2026-04-19T17:20:18Z</time></trkpt><trkpt lat="41.257375977027316" lon="15.545198328910546"><ele>160.0</ele><time>2026-04-19T17:20:19Z</time></trkpt><trkpt lat="41.257224859181285" lon="15.545095616925039"><ele>161.0</ele><time>2026-04-19T17:20:20Z</time></trkpt><trkpt lat="41.2570717040366" lon="15.544997067431332"><ele>162.0</ele><time>2026-04-19T17:20:21Z</time></trkpt><trkpt lat="41.256925581413064" lon="15.544900297026329"><ele>162.0</ele><time>2026-04-19T17:20:22Z</time></trkpt><trkpt lat="41.256776568614654" lon="15.544802252865935"><ele>162.0</ele><time>2026-04-19T17:20:23Z</time></trkpt><trkpt lat="41.25663100692967" lon="15.544702314398977"><ele>162.0</ele><time>2026-04-19T17:20:24Z</time></trkpt><trkpt lat="41.25648936579231" lon="15.544600484551014"><ele>161.66666666666666</ele><time>2026-04-19T17:20:25Z</time></trkpt><trkpt lat="41.256342952481695" lon="15.544509567493668"><ele>161.33333333333331</ele><time>2026-04-19T17:20:26Z</time></trkpt><trkpt lat="41.256211755817205" lon="15.544419198186857"><ele>161.0</ele><time>2026-04-19T17:20:27Z</time></trkpt><trkpt lat="41.25606534380957" lon="15.544328162593178"><ele>161.0</ele><time>2026-04-19T17:20:28Z</time></trkpt><trkpt lat="41.255930645010906" lon="15.544232845006219"><ele>161.0</ele><time>2026-04-19T17:20:29Z</time></trkpt><trkpt lat="41.25579238863598" lon="15.54414370671786"><ele>161.0</ele><time>2026-04-19T17:20:30Z</time></trkpt><trkpt lat="41.25565290820939" lon="15.54405765930319"><ele>161.33333333333331</ele><time>2026-04-19T17:20:31Z</time></trkpt><trkpt lat="41.255514033213466" lon="15.543967153893341"><ele>161.66666666666666</ele><time>2026-04-19T17:20:32Z</time></trkpt><trkpt lat="41.25537988766485" lon="15.54387272893646"><ele>162.0</ele><time>2026-04-19T17:20:33Z</time></trkpt><trkpt lat="41.25523569008755" lon="15.543775311210146"><ele>162.33333333333334</ele><time>2026-04-19T17:20:34Z</time></trkpt><trkpt lat="41.25508861370976" lon="15.543679023672633"><ele>162.66666666666669</ele><time>2026-04-19T17:20:35Z</time></trkpt><trkpt lat="41.2549415145078" lon="15.543580905518395"><ele>163.0</ele><time>2026-04-19T17:20:36Z</time></trkpt><trkpt lat="41.25479317819506" lon="15.543483525603156"><ele>162.66666666666669</ele><time>2026-04-19T17:20:37Z</time></trkpt><trkpt lat="41.254644923378024" lon="15.543390524473129"><ele>162.33333333333334</ele><time>2026-04-19T17:20:38Z</time></trkpt><trkpt lat="41.254502721222025" lon="15.543290205267176"><ele>162.0</ele><time>2026-04-19T17:20:39Z</time></trkpt><trkpt lat="41.25434967728161" lon="15.543189270216754"><ele>162.0</ele><time>2026-04-19T17:20:40Z</time></trkpt><trkpt lat="41.25419791978669" lon="15.543084265580992"><ele>162.0</ele><time>2026-04-19T17:20:41Z</time></trkpt><trkpt lat="41.25404492883431" lon="15.542982311750439"><ele>162.0</ele><time>2026-04-19T17:20:42Z</time></trkpt><trkpt lat="41.25388592004787" lon="15.542883481846049"><ele>162.33333333333334</ele><time>2026-04-19T17:20:43Z</time></trkpt><trkpt lat="41.25372795720939" lon="15.542781381085206"><ele>162.66666666666669</ele><time>2026-04-19T17:20:44Z</time></trkpt><trkpt lat="41.25356875339121" lon="15.54267549620895"><ele>163.0</ele><time>2026-04-19T17:20:45Z</time></trkpt><trkpt lat="41.25340896634014" lon="15.542564947155736"><ele>163.0</ele><time>2026-04-19T17:20:46Z</time></trkpt><trkpt lat="41.25324793499388" lon="15.542457413997742"><ele>163.0</ele><time>2026-04-19T17:20:47Z</time></trkpt><trkpt lat="41.25308807588867" lon="15.542356783980992"><ele>163.0</ele><time>2026-04-19T17:20:48Z</time></trkpt><trkpt lat="41.25293397931069" lon="15.542259067856241"><ele>163.33333333333334</ele><time>2026-04-19T17:20:49Z</time></trkpt><trkpt lat="41.252776742576415" lon="15.542162263944274"><ele>163.66666666666666</ele><time>2026-04-19T17:20:50Z</time></trkpt><trkpt lat="41.252619780993626" lon="15.5420646585406"><ele>164.0</ele><time>2026-04-19T17:20:51Z</time></trkpt><trkpt lat="41.25246460996739" lon="15.541967438880356"><ele>164.0</ele><time>2026-04-19T17:20:52Z</time></trkpt><trkpt lat="41.25230590327901" lon="15.54187230780757"><ele>164.0</ele><time>2026-04-19T17:20:53Z</time></trkpt><trkpt lat="41.2521514416726" lon="15.541772005930675"><ele>164.0</ele><time>2026-04-19T17:20:54Z</time></trkpt><trkpt lat="41.251986787265935" lon="15.541674514132094"><ele>164.0</ele><time>2026-04-19T17:20:55Z</time></trkpt><trkpt lat="41.251831208826744" lon="15.541582932752785"><ele>164.0</ele><time>2026-04-19T17:20:56Z</time></trkpt><trkpt lat="41.251667503424486" lon="15.541488630190573"><ele>164.0</ele><time>2026-04-19T17:20:57Z</time></trkpt><trkpt lat="41.25150797529082" lon="15.541395731497996"><ele>164.33333333333331</ele><time>2026-04-19T17:20:58Z</time></trkpt><trkpt lat="41.2513518364743" lon="15.541305572495764"><ele>164.66666666666666</ele><time>2026-04-19T17:20:59Z</time></trkpt><trkpt lat="41.25119761182601" lon="15.541219014909768"><ele>165.0</ele><time>2026-04-19T17:21:00Z</time></trkpt><trkpt lat="41.251045169115685" lon="15.541132627474013"><ele>165.33333333333334</ele><time>2026-04-19T17:21:01Z</time></trkpt><trkpt lat="41.25089591469541" lon="15.541048768175305"><ele>165.66666666666669</ele><time>2026-04-19T17:21:02Z</time></trkpt><trkpt lat="41.2507447435616" lon="15.54096866179183"><ele>166.0</ele><time>2026-04-19T17:21:03Z</time></trkpt><trkpt lat="41.250596425030444" lon="15.540892700961432"><ele>166.0</ele><time>2026-04-19T17:21:04Z</time></trkpt><trkpt lat="41.2504492079468" lon="15.540816927256369"><ele>166.0</ele><time>2026-04-19T17:21:05Z</time></trkpt><trkpt lat="41.25030334464804" lon="15.540742784319363"><ele>166.0</ele><time>2026-04-19T17:21:06Z</time></trkpt><trkpt lat="41.250154301773776" lon="15.540668042614167"><ele>166.0</ele><time>2026-04-19T17:21:07Z</time></trkpt><trkpt lat="41.25000371454248" lon="15.540591345699283"><ele>166.0</ele><time>2026-04-19T17:21:08Z</time></trkpt><trkpt lat="41.24985415542159" lon="15.54051195327072"><ele>166.0</ele><time>2026-04-19T17:21:09Z</time></trkpt><trkpt lat="41.249704374556984" lon="15.540433010208961"><ele>166.66666666666669</ele><time>2026-04-19T17:21:10Z</time></trkpt><trkpt lat="41.24955076030736" lon="15.54035805898261"><ele>167.33333333333334</ele><time>2026-04-19T17:21:11Z</time></trkpt><trkpt lat="41.24939034542546" lon="15.540281738605687"><ele>168.0</ele><time>2026-04-19T17:21:12Z</time></trkpt><trkpt lat="41.24923571002385" lon="15.540206810205284"><ele>168.0</ele><time>2026-04-19T17:21:13Z</time></trkpt><trkpt lat="41.24907186400205" lon="15.540133355352031"><ele>168.0</ele><time>2026-04-19T17:21:14Z</time></trkpt><trkpt lat="41.24891073973794" lon="15.540062008665295"><ele>168.0</ele><time>2026-04-19T17:21:15Z</time></trkpt><trkpt lat="41.24874948445708" lon="15.539989563706968"><ele>167.66666666666666</ele><time>2026-04-19T17:21:16Z</time></trkpt><trkpt lat="41.24858644786137" lon="15.539917408600266"><ele>167.33333333333331</ele><time>2026-04-19T17:21:17Z</time></trkpt><trkpt lat="41.24842893802397" lon="15.539847017833194"><ele>167.0</ele><time>2026-04-19T17:21:18Z</time></trkpt><trkpt lat="41.24826652483478" lon="15.539775828546484"><ele>166.33333333333331</ele><time>2026-04-19T17:21:19Z</time></trkpt><trkpt lat="41.248103913844325" lon="15.539711289214335"><ele>165.66666666666666</ele><time>2026-04-19T17:21:20Z</time></trkpt><trkpt lat="41.24794290648897" lon="15.539644012489513"><ele>165.0</ele><time>2026-04-19T17:21:21Z</time></trkpt><trkpt lat="41.24778343186678" lon="15.539576161651889"><ele>165.33333333333334</ele><time>2026-04-19T17:21:22Z</time></trkpt><trkpt lat="41.24761095893037" lon="15.539512494148012"><ele>165.66666666666669</ele><time>2026-04-19T17:21:23Z</time></trkpt><trkpt lat="41.247455030569405" lon="15.539443397381154"><ele>166.0</ele><time>2026-04-19T17:21:24Z</time></trkpt><trkpt lat="41.247288761840366" lon="15.539376400902805"><ele>166.0</ele><time>2026-04-19T17:21:25Z</time></trkpt><trkpt lat="41.247121119508" lon="15.539311609312227"><ele>166.0</ele><time>2026-04-19T17:21:26Z</time></trkpt><trkpt lat="41.246957998698335" lon="15.539248897601693"><ele>166.0</ele><time>2026-04-19T17:21:27Z</time></trkpt><trkpt lat="41.24679024045388" lon="15.539192870031263"><ele>166.0</ele><time>2026-04-19T17:21:28Z</time></trkpt><trkpt lat="41.2466298064176" lon="15.539136596405863"><ele>166.0</ele><time>2026-04-19T17:21:29Z</time></trkpt><trkpt lat="41.24646858556601" lon="15.539081758427168"><ele>166.0</ele><time>2026-04-19T17:21:30Z</time></trkpt><trkpt lat="41.246303198219756" lon="15.53902770664008"><ele>165.0</ele><time>2026-04-19T17:21:31Z</time></trkpt><trkpt lat="41.24613436900919" lon="15.538973253520018"><ele>164.0</ele><time>2026-04-19T17:21:32Z</time></trkpt><trkpt lat="41.2459653186411" lon="15.538913316705154"><ele>163.0</ele><time>2026-04-19T17:21:33Z</time></trkpt><trkpt lat="41.245795785771506" lon="15.538853287615982"><ele>164.33333333333334</ele><time>2026-04-19T17:21:34Z</time></trkpt><trkpt lat="41.24561663796898" lon="15.538794564001355"><ele>165.66666666666666</ele><time>2026-04-19T17:21:35Z</time></trkpt><trkpt lat="41.24543780573621" lon="15.538737099359796"><ele>167.0</ele><time>2026-04-19T17:21:36Z</time></trkpt><trkpt lat="41.24526302843443" lon="15.53868025693973"><ele>167.0</ele><time>2026-04-19T17:21:37Z</time></trkpt><trkpt lat="41.24507979029386" lon="15.538630988457806"><ele>167.0</ele><time>2026-04-19T17:21:38Z</time></trkpt><trkpt lat="41.24490277440675" lon="15.53858269394078"><ele>167.0</ele><time>2026-04-19T17:21:39Z</time></trkpt><trkpt lat="41.24473483510645" lon="15.53854472574079"><ele>167.33333333333331</ele><time>2026-04-19T17:21:40Z</time></trkpt><trkpt lat="41.244572509136376" lon="15.538512059649577"><ele>167.66666666666666</ele><time>2026-04-19T17:21:41Z</time></trkpt><trkpt lat="41.24440901889611" lon="15.538468377109615"><ele>168.0</ele><time>2026-04-19T17:21:42Z</time></trkpt><trkpt lat="41.244248180910105" lon="15.538421574171174"><ele>168.0</ele><time>2026-04-19T17:21:43Z</time></trkpt><trkpt lat="41.24407294283562" lon="15.538379573320862"><ele>168.0</ele><time>2026-04-19T17:21:44Z</time></trkpt><trkpt lat="41.24390485767465" lon="15.53833270760093"><ele>168.0</ele><time>2026-04-19T17:21:45Z</time></trkpt><trkpt lat="41.24373643589778" lon="15.538288683070535"><ele>168.0</ele><time>2026-04-19T17:21:46Z</time></trkpt><trkpt lat="41.24356378317736" lon="15.53824916297472"><ele>168.0</ele><time>2026-04-19T17:21:47Z</time></trkpt><trkpt lat="41.24337759195278" lon="15.538206320561347"><ele>168.0</ele><time>2026-04-19T17:21:48Z</time></trkpt><trkpt lat="41.243225449808705" lon="15.538171226033597"><ele>169.0</ele><time>2026-04-19T17:21:49Z</time></trkpt><trkpt lat="41.24305607311879" lon="15.538132125366063"><ele>170.0</ele><time>2026-04-19T17:21:50Z</time></trkpt><trkpt lat="41.24289029900433" lon="15.538097800745494"><ele>171.0</ele><time>2026-04-19T17:21:51Z</time></trkpt><trkpt lat="41.242722247232194" lon="15.538064291414539"><ele>171.0</ele><time>2026-04-19T17:21:52Z</time></trkpt><trkpt lat="41.24255453022153" lon="15.538030889484796"><ele>171.0</ele><time>2026-04-19T17:21:53Z</time></trkpt><trkpt lat="41.24238753930036" lon="15.537998340357193"><ele>171.0</ele><time>2026-04-19T17:21:54Z</time></trkpt><trkpt lat="41.24222373371254" lon="15.53796895369185"><ele>170.66666666666666</ele><time>2026-04-19T17:21:55Z</time></trkpt><trkpt lat="41.242060984684805" lon="15.5379437082147"><ele>170.33333333333331</ele><time>2026-04-19T17:21:56Z</time></trkpt><trkpt lat="41.24188909705735" lon="15.537912096284748"><ele>170.0</ele><time>2026-04-19T17:21:57Z</time></trkpt><trkpt lat="41.24171847131439" lon="15.537884975022916"><ele>170.0</ele><time>2026-04-19T17:21:58Z</time></trkpt><trkpt lat="41.241552010556376" lon="15.53785720293006"><ele>170.0</ele><time>2026-04-19T17:21:59Z</time></trkpt><trkpt lat="41.24138158481776" lon="15.537827045470936"><ele>170.0</ele><time>2026-04-19T17:22:00Z</time></trkpt><trkpt lat="41.24120647805218" lon="15.53779743064517"><ele>170.0</ele><time>2026-04-19T17:22:01Z</time></trkpt><trkpt lat="41.24103366456356" lon="15.53777117100184"><ele>170.0</ele><time>2026-04-19T17:22:02Z</time></trkpt><trkpt lat="41.240856733152796" lon="15.537745803027377"><ele>170.0</ele><time>2026-04-19T17:22:03Z</time></trkpt><trkpt lat="41.240678901140456" lon="15.53772209101726"><ele>170.33333333333331</ele><time>2026-04-19T17:22:04Z</time></trkpt><trkpt lat="41.240501184174654" lon="15.537699893760898"><ele>170.66666666666666</ele><time>2026-04-19T17:22:05Z</time></trkpt><trkpt lat="41.24032406935076" lon="15.537679629158827"><ele>171.0</ele><time>2026-04-19T17:22:06Z</time></trkpt><trkpt lat="41.24015145905464" lon="15.53766160936408"><ele>171.0</ele><time>2026-04-19T17:22:07Z</time></trkpt><trkpt lat="41.23998344946559" lon="15.537642811830684"><ele>171.0</ele><time>2026-04-19T17:22:08Z</time></trkpt><trkpt lat="41.239821178008356" lon="15.537627024481276"><ele>171.0</ele><time>2026-04-19T17:22:09Z</time></trkpt><trkpt lat="41.23965665019171" lon="15.53761364648084"><ele>171.66666666666666</ele><time>2026-04-19T17:22:10Z</time></trkpt><trkpt lat="41.23949660850496" lon="15.537600824977666"><ele>172.33333333333331</ele><time>2026-04-19T17:22:11Z</time></trkpt><trkpt lat="41.2393294621886" lon="15.537588594661399"><ele>173.0</ele><time>2026-04-19T17:22:12Z</time></trkpt><trkpt lat="41.23916528375131" lon="15.53757822299144"><ele>173.0</ele><time>2026-04-19T17:22:13Z</time></trkpt><trkpt lat="41.239007012599544" lon="15.537565755338637"><ele>173.0</ele><time>2026-04-19T17:22:14Z</time></trkpt><trkpt lat="41.238842628644846" lon="15.537556630354805"><ele>173.0</ele><time>2026-04-19T17:22:15Z</time></trkpt><trkpt lat="41.23867611440164" lon="15.537547031722081"><ele>172.66666666666666</ele><time>2026-04-19T17:22:16Z</time></trkpt><trkpt lat="41.23850517020402" lon="15.537536011883411"><ele>172.33333333333334</ele><time>2026-04-19T17:22:17Z</time></trkpt><trkpt lat="41.23834267291089" lon="15.537528487943298"><ele>172.0</ele><time>2026-04-19T17:22:18Z</time></trkpt><trkpt lat="41.23817485593677" lon="15.537517466246872"><ele>171.66666666666669</ele><time>2026-04-19T17:22:19Z</time></trkpt><trkpt lat="41.238010614497064" lon="15.537514810519484"><ele>171.33333333333334</ele><time>2026-04-19T17:22:20Z</time></trkpt><trkpt lat="41.2378430795683" lon="15.53751263761267"><ele>171.0</ele><time>2026-04-19T17:22:21Z</time></trkpt><trkpt lat="41.2376713739548" lon="15.537509705261648"><ele>171.0</ele><time>2026-04-19T17:22:22Z</time></trkpt><trkpt lat="41.23750811287911" lon="15.537510124445784"><ele>171.0</ele><time>2026-04-19T17:22:23Z</time></trkpt><trkpt lat="41.23733630385879" lon="15.537506437824046"><ele>171.0</ele><time>2026-04-19T17:22:24Z</time></trkpt><trkpt lat="41.23716724041619" lon="15.537502698186774"><ele>171.33333333333334</ele><time>2026-04-19T17:22:25Z</time></trkpt><trkpt lat="41.23700075764665" lon="15.537502537493035"><ele>171.66666666666669</ele><time>2026-04-19T17:22:26Z</time></trkpt><trkpt lat="41.236840690331995" lon="15.537506281184623"><ele>172.0</ele><time>2026-04-19T17:22:27Z</time></trkpt><trkpt lat="41.23667373045463" lon="15.53751063539733"><ele>172.0</ele><time>2026-04-19T17:22:28Z</time></trkpt><trkpt lat="41.23651066810098" lon="15.537518477274473"><ele>172.0</ele><time>2026-04-19T17:22:29Z</time></trkpt><trkpt lat="41.23634409377177" lon="15.537519036268746"><ele>172.0</ele><time>2026-04-19T17:22:30Z</time></trkpt><trkpt lat="41.2361851967918" lon="15.537521331678663"><ele>172.33333333333334</ele><time>2026-04-19T17:22:31Z</time></trkpt><trkpt lat="41.23601652277023" lon="15.5375259158021"><ele>172.66666666666666</ele><time>2026-04-19T17:22:32Z</time></trkpt><trkpt lat="41.23585179041794" lon="15.53753585562983"><ele>173.0</ele><time>2026-04-19T17:22:33Z</time></trkpt><trkpt lat="41.235684936884844" lon="15.537544465303958"><ele>173.66666666666666</ele><time>2026-04-19T17:22:34Z</time></trkpt><trkpt lat="41.23551658208165" lon="15.537551070015622"><ele>174.33333333333334</ele><time>2026-04-19T17:22:35Z</time></trkpt><trkpt lat="41.23535387423004" lon="15.53756299767345"><ele>175.0</ele><time>2026-04-19T17:22:36Z</time></trkpt><trkpt lat="41.23519097691018" lon="15.537574947742394"><ele>175.0</ele><time>2026-04-19T17:22:37Z</time></trkpt><trkpt lat="41.235027222219514" lon="15.537590855592262"><ele>175.0</ele><time>2026-04-19T17:22:38Z</time></trkpt><trkpt lat="41.23486703785349" lon="15.537607607827676"><ele>175.0</ele><time>2026-04-19T17:22:39Z</time></trkpt><trkpt lat="41.23470568998769" lon="15.537626035083152"><ele>174.66666666666669</ele><time>2026-04-19T17:22:40Z</time></trkpt><trkpt lat="41.23454338356312" lon="15.537643893509735"><ele>174.33333333333334</ele><time>2026-04-19T17:22:41Z</time></trkpt><trkpt lat="41.234380840974254" lon="15.537660758995742"><ele>174.0</ele><time>2026-04-19T17:22:42Z</time></trkpt><trkpt lat="41.23421692879007" lon="15.537674599447994"><ele>174.0</ele><time>2026-04-19T17:22:43Z</time></trkpt><trkpt lat="41.23404981037032" lon="15.537690427402204"><ele>174.0</ele><time>2026-04-19T17:22:44Z</time></trkpt><trkpt lat="41.23388693394748" lon="15.537708466918994"><ele>174.0</ele><time>2026-04-19T17:22:45Z</time></trkpt><trkpt lat="41.233726397556374" lon="15.537734075146485"><ele>174.0</ele><time>2026-04-19T17:22:46Z</time></trkpt><trkpt lat="41.23356095444661" lon="15.537757743712183"><ele>174.0</ele><time>2026-04-19T17:22:47Z</time></trkpt><trkpt lat="41.23339327652129" lon="15.537777536403608"><ele>174.0</ele><time>2026-04-19T17:22:48Z</time></trkpt><trkpt lat="41.233224489364574" lon="15.537799442568156"><ele>174.66666666666666</ele><time>2026-04-19T17:22:49Z</time></trkpt><trkpt lat="41.23305801569406" lon="15.537825036342335"><ele>175.33333333333331</ele><time>2026-04-19T17:22:50Z</time></trkpt><trkpt lat="41.23289121754276" lon="15.537850379286343"><ele>176.0</ele><time>2026-04-19T17:22:51Z</time></trkpt><trkpt lat="41.23272300130671" lon="15.537874371125826"><ele>176.0</ele><time>2026-04-19T17:22:52Z</time></trkpt><trkpt lat="41.23255785841791" lon="15.53790292307474"><ele>176.0</ele><time>2026-04-19T17:22:53Z</time></trkpt><trkpt lat="41.232387302149114" lon="15.537934088735236"><ele>176.0</ele><time>2026-04-19T17:22:54Z</time></trkpt><trkpt lat="41.23222747419121" lon="15.53796704224058"><ele>176.0</ele><time>2026-04-19T17:22:55Z</time></trkpt><trkpt lat="41.2320546011903" lon="15.537999081328941"><ele>176.0</ele><time>2026-04-19T17:22:56Z</time></trkpt><trkpt lat="41.23188919858512" lon="15.53803130083925"><ele>176.0</ele><time>2026-04-19T17:22:57Z</time></trkpt><trkpt lat="41.23172247306922" lon="15.538066449089413"><ele>176.0</ele><time>2026-04-19T17:22:58Z</time></trkpt><trkpt lat="41.231552339022066" lon="15.538105416018414"><ele>176.0</ele><time>2026-04-19T17:22:59Z</time></trkpt><trkpt lat="41.23136877298683" lon="15.53814248085537"><ele>176.0</ele><time>2026-04-19T17:23:00Z</time></trkpt><trkpt lat="41.2311830608772" lon="15.53818007747938"><ele>176.0</ele><time>2026-04-19T17:23:01Z</time></trkpt><trkpt lat="41.23100507020327" lon="15.538220170418102"><ele>176.0</ele><time>2026-04-19T17:23:02Z</time></trkpt><trkpt lat="41.23083136502446" lon="15.538263497696933"><ele>176.0</ele><time>2026-04-19T17:23:03Z</time></trkpt><trkpt lat="41.2306555935683" lon="15.538304839194389"><ele>176.66666666666666</ele><time>2026-04-19T17:23:04Z</time></trkpt><trkpt lat="41.2304805590072" lon="15.538347620179605"><ele>177.33333333333334</ele><time>2026-04-19T17:23:05Z</time></trkpt><trkpt lat="41.23030808347143" lon="15.538394588854702"><ele>178.0</ele><time>2026-04-19T17:23:06Z</time></trkpt><trkpt lat="41.23013067947498" lon="15.538444009080635"><ele>178.0</ele><time>2026-04-19T17:23:07Z</time></trkpt><trkpt lat="41.229960232198685" lon="15.538493545774726"><ele>178.0</ele><time>2026-04-19T17:23:08Z</time></trkpt><trkpt lat="41.229785386400934" lon="15.5385401946508"><ele>178.0</ele><time>2026-04-19T17:23:09Z</time></trkpt><trkpt lat="41.229612492834555" lon="15.53859237720213"><ele>177.66666666666669</ele><time>2026-04-19T17:23:10Z</time></trkpt><trkpt lat="41.22944274431986" lon="15.538639914569787"><ele>177.33333333333334</ele><time>2026-04-19T17:23:11Z</time></trkpt><trkpt lat="41.22927187824505" lon="15.538691224378743"><ele>177.0</ele><time>2026-04-19T17:23:12Z</time></trkpt><trkpt lat="41.22910117533601" lon="15.538745354313896"><ele>177.0</ele><time>2026-04-19T17:23:13Z</time></trkpt><trkpt lat="41.22893873332771" lon="15.538789809616784"><ele>177.0</ele><time>2026-04-19T17:23:14Z</time></trkpt><trkpt lat="41.22876846371" lon="15.538849246846988"><ele>177.0</ele><time>2026-04-19T17:23:15Z</time></trkpt><trkpt lat="41.228607548681595" lon="15.538899141473262"><ele>177.0</ele><time>2026-04-19T17:23:16Z</time></trkpt><trkpt lat="41.2284546595314" lon="15.538953040485705"><ele>177.0</ele><time>2026-04-19T17:23:17Z</time></trkpt><trkpt lat="41.22830571898871" lon="15.539004003298803"><ele>177.0</ele><time>2026-04-19T17:23:18Z</time></trkpt><trkpt lat="41.22815741662943" lon="15.53905585265474"><ele>177.33333333333334</ele><time>2026-04-19T17:23:19Z</time></trkpt><trkpt lat="41.22800926658782" lon="15.539104651578239"><ele>177.66666666666669</ele><time>2026-04-19T17:23:20Z</time></trkpt><trkpt lat="41.227861134232306" lon="15.539152897932151"><ele>178.0</ele><time>2026-04-19T17:23:21Z</time></trkpt><trkpt lat="41.22770303967556" lon="15.539209984264225"><ele>178.0</ele><time>2026-04-19T17:23:22Z</time></trkpt><trkpt lat="41.22755173095444" lon="15.53926629726095"><ele>178.0</ele><time>2026-04-19T17:23:23Z</time></trkpt><trkpt lat="41.22740010638436" lon="15.539327118780331"><ele>178.0</ele><time>2026-04-19T17:23:24Z</time></trkpt><trkpt lat="41.22724917789399" lon="15.539383942989405"><ele>178.33333333333334</ele><time>2026-04-19T17:23:25Z</time></trkpt><trkpt lat="41.22709981788489" lon="15.53943582628442"><ele>178.66666666666666</ele><time>2026-04-19T17:23:26Z</time></trkpt><trkpt lat="41.22694877573465" lon="15.539494134139535"><ele>179.0</ele><time>2026-04-19T17:23:27Z</time></trkpt><trkpt lat="41.2267986862108" lon="15.539553308342462"><ele>178.33333333333331</ele><time>2026-04-19T17:23:28Z</time></trkpt><trkpt lat="41.22664895255348" lon="15.53961223990651"><ele>177.66666666666666</ele><time>2026-04-19T17:23:29Z</time></trkpt><trkpt lat="41.22650288141837" lon="15.53966582027724"><ele>177.0</ele><time>2026-04-19T17:23:30Z</time></trkpt><trkpt lat="41.22635196470136" lon="15.539728707932593"><ele>177.0</ele><time>2026-04-19T17:23:31Z</time></trkpt><trkpt lat="41.226200257792016" lon="15.539783966681185"><ele>177.0</ele><time>2026-04-19T17:23:32Z</time></trkpt><trkpt lat="41.22604448523013" lon="15.539838276701994"><ele>177.0</ele><time>2026-04-19T17:23:33Z</time></trkpt><trkpt lat="41.225890030575655" lon="15.539895259241213"><ele>177.0</ele><time>2026-04-19T17:23:34Z</time></trkpt><trkpt lat="41.22573511359623" lon="15.539956900918707"><ele>177.0</ele><time>2026-04-19T17:23:35Z</time></trkpt><trkpt lat="41.22558153333774" lon="15.540020559713959"><ele>177.0</ele><time>2026-04-19T17:23:36Z</time></trkpt><trkpt lat="41.225425200260034" lon="15.540085782237519"><ele>176.66666666666666</ele><time>2026-04-19T17:23:37Z</time></trkpt><trkpt lat="41.22526994689386" lon="15.540155917140618"><ele>176.33333333333331</ele><time>2026-04-19T17:23:38Z</time></trkpt><trkpt lat="41.225121622683375" lon="15.540204698994176"><ele>176.0</ele><time>2026-04-19T17:23:39Z</time></trkpt><trkpt lat="41.22497138413375" lon="15.540265380713972"><ele>176.0</ele><time>2026-04-19T17:23:40Z</time></trkpt><trkpt lat="41.22482510976206" lon="15.540321020335472"><ele>176.0</ele><time>2026-04-19T17:23:41Z</time></trkpt><trkpt lat="41.22468827409232" lon="15.54037483632804"><ele>176.0</ele><time>2026-04-19T17:23:42Z</time></trkpt><trkpt lat="41.22454420948041" lon="15.540432612734913"><ele>176.0</ele><time>2026-04-19T17:23:43Z</time></trkpt><trkpt lat="41.224396035733285" lon="15.540492643609106"><ele>177.33333333333331</ele><time>2026-04-19T17:23:44Z</time></trkpt><trkpt lat="41.22425073146605" lon="15.540546713631686"><ele>178.66666666666666</ele><time>2026-04-19T17:23:45Z</time></trkpt><trkpt lat="41.22410159512759" lon="15.540604883180492"><ele>180.0</ele><time>2026-04-19T17:23:46Z</time></trkpt><trkpt lat="41.22395175445595" lon="15.540656956141051"><ele>180.0</ele><time>2026-04-19T17:23:47Z</time></trkpt><trkpt lat="41.223800120176065" lon="15.540711468069482"><ele>180.0</ele><time>2026-04-19T17:23:48Z</time></trkpt><trkpt lat="41.22364659853195" lon="15.540769998294877"><ele>180.0</ele><time>2026-04-19T17:23:49Z</time></trkpt><trkpt lat="41.223492678641755" lon="15.540829408062608"><ele>180.0</ele><time>2026-04-19T17:23:50Z</time></trkpt><trkpt lat="41.22333207686" lon="15.540898109724825"><ele>180.0</ele><time>2026-04-19T17:23:51Z</time></trkpt><trkpt lat="41.22317210272331" lon="15.540959848311457"><ele>180.0</ele><time>2026-04-19T17:23:52Z</time></trkpt><trkpt lat="41.22300256228768" lon="15.541022785994377"><ele>180.66666666666666</ele><time>2026-04-19T17:23:53Z</time></trkpt><trkpt lat="41.222835796609615" lon="15.541070399690973"><ele>181.33333333333331</ele><time>2026-04-19T17:23:54Z</time></trkpt><trkpt lat="41.22266212301344" lon="15.541130126564346"><ele>182.0</ele><time>2026-04-19T17:23:55Z</time></trkpt><trkpt lat="41.222490805570395" lon="15.541188010503422"><ele>182.0</ele><time>2026-04-19T17:23:56Z</time></trkpt><trkpt lat="41.22232132729186" lon="15.5412408349496"><ele>182.0</ele><time>2026-04-19T17:23:57Z</time></trkpt><trkpt lat="41.22215587928596" lon="15.541292649310014"><ele>182.0</ele><time>2026-04-19T17:23:58Z</time></trkpt><trkpt lat="41.22198931298093" lon="15.541345708250319"><ele>181.66666666666666</ele><time>2026-04-19T17:23:59Z</time></trkpt><trkpt lat="41.22182734419585" lon="15.541393111513479"><ele>181.33333333333334</ele><time>2026-04-19T17:24:00Z</time></trkpt><trkpt lat="41.22166499392497" lon="15.541435414230055"><ele>181.0</ele><time>2026-04-19T17:24:01Z</time></trkpt><trkpt lat="41.22150427388372" lon="15.54147803448848"><ele>182.0</ele><time>2026-04-19T17:24:02Z</time></trkpt><trkpt lat="41.22134205492127" lon="15.54152244908763"><ele>183.0</ele><time>2026-04-19T17:24:03Z</time></trkpt><trkpt lat="41.221184799186176" lon="15.541561826580196"><ele>184.0</ele><time>2026-04-19T17:24:04Z</time></trkpt><trkpt lat="41.22102494838488" lon="15.541600111699472"><ele>184.0</ele><time>2026-04-19T17:24:05Z</time></trkpt><trkpt lat="41.22086583994931" lon="15.541636716130387"><ele>184.0</ele><time>2026-04-19T17:24:06Z</time></trkpt><trkpt lat="41.22070953389409" lon="15.541672260333517"><ele>184.0</ele><time>2026-04-19T17:24:07Z</time></trkpt><trkpt lat="41.22055380515796" lon="15.541708707484544"><ele>184.66666666666669</ele><time>2026-04-19T17:24:08Z</time></trkpt><trkpt lat="41.22039872821383" lon="15.541743549964544"><ele>185.33333333333334</ele><time>2026-04-19T17:24:09Z</time></trkpt><trkpt lat="41.220247051681994" lon="15.541774110042258"><ele>186.0</ele><time>2026-04-19T17:24:10Z</time></trkpt><trkpt lat="41.22009705379234" lon="15.541806926664218"><ele>186.0</ele><time>2026-04-19T17:24:11Z</time></trkpt><trkpt lat="41.21994265345439" lon="15.541836554964126"><ele>186.0</ele><time>2026-04-19T17:24:12Z</time></trkpt><trkpt lat="41.21978640321519" lon="15.541864477576173"><ele>186.0</ele><time>2026-04-19T17:24:13Z</time></trkpt><trkpt lat="41.219629657312964" lon="15.541883944654616"><ele>186.66666666666666</ele><time>2026-04-19T17:24:14Z</time></trkpt><trkpt lat="41.21946966031796" lon="15.54191210151787"><ele>187.33333333333331</ele><time>2026-04-19T17:24:15Z</time></trkpt><trkpt lat="41.21930776678372" lon="15.541939608989807"><ele>188.0</ele><time>2026-04-19T17:24:16Z</time></trkpt><trkpt lat="41.219143795792135" lon="15.54196720643889"><ele>188.33333333333331</ele><time>2026-04-19T17:24:17Z</time></trkpt><trkpt lat="41.21897929989706" lon="15.541993964935363"><ele>188.66666666666666</ele><time>2026-04-19T17:24:18Z</time></trkpt><trkpt lat="41.21882437267238" lon="15.542015269210058"><ele>189.0</ele><time>2026-04-19T17:24:19Z</time></trkpt><trkpt lat="41.21866104883633" lon="15.542038038963724"><ele>189.66666666666666</ele><time>2026-04-19T17:24:20Z</time></trkpt><trkpt lat="41.21850117365646" lon="15.542058823671171"><ele>190.33333333333331</ele><time>2026-04-19T17:24:21Z</time></trkpt><trkpt lat="41.21834228435209" lon="15.542079327364004"><ele>191.0</ele><time>2026-04-19T17:24:22Z</time></trkpt><trkpt lat="41.21818458364998" lon="15.542094882491474"><ele>191.0</ele><time>2026-04-19T17:24:23Z</time></trkpt><trkpt lat="41.2180248667811" lon="15.542108726439837"><ele>191.0</ele><time>2026-04-19T17:24:24Z</time></trkpt><trkpt lat="41.21785409267351" lon="15.542120698744895"><ele>191.0</ele><time>2026-04-19T17:24:25Z</time></trkpt><trkpt lat="41.217692523791804" lon="15.542137900064004"><ele>191.0</ele><time>2026-04-19T17:24:26Z</time></trkpt><trkpt lat="41.21752808511913" lon="15.542150686648197"><ele>191.0</ele><time>2026-04-19T17:24:27Z</time></trkpt><trkpt lat="41.2173616862308" lon="15.542160659618299"><ele>191.0</ele><time>2026-04-19T17:24:28Z</time></trkpt><trkpt lat="41.21719253508885" lon="15.542173613605636"><ele>191.33333333333331</ele><time>2026-04-19T17:24:29Z</time></trkpt><trkpt lat="41.21702446211178" lon="15.542179597090911"><ele>191.66666666666666</ele><time>2026-04-19T17:24:30Z</time></trkpt><trkpt lat="41.21684894849883" lon="15.542185508579145"><ele>192.0</ele><time>2026-04-19T17:24:31Z</time></trkpt><trkpt lat="41.21667842741257" lon="15.54218701556164"><ele>192.0</ele><time>2026-04-19T17:24:32Z</time></trkpt><trkpt lat="41.21651071745977" lon="15.542191623774158"><ele>192.0</ele><time>2026-04-19T17:24:33Z</time></trkpt><trkpt lat="41.21633533869344" lon="15.54219737617565"><ele>192.0</ele><time>2026-04-19T17:24:34Z</time></trkpt><trkpt lat="41.21615299800699" lon="15.542200188948701"><ele>192.0</ele><time>2026-04-19T17:24:35Z</time></trkpt><trkpt lat="41.21598470321185" lon="15.542199416225854"><ele>192.0</ele><time>2026-04-19T17:24:36Z</time></trkpt><trkpt lat="41.21580617322642" lon="15.542195195210255"><ele>192.0</ele><time>2026-04-19T17:24:37Z</time></trkpt><trkpt lat="41.21563337436132" lon="15.542192460860427"><ele>193.0</ele><time>2026-04-19T17:24:38Z</time></trkpt><trkpt lat="41.215458236155364" lon="15.542188940022335"><ele>194.0</ele><time>2026-04-19T17:24:39Z</time></trkpt><trkpt lat="41.21528115555964" lon="15.542182874469722"><ele>195.0</ele><time>2026-04-19T17:24:40Z</time></trkpt><trkpt lat="41.21509746956896" lon="15.542173292437047"><ele>195.0</ele><time>2026-04-19T17:24:41Z</time></trkpt><trkpt lat="41.214917266937796" lon="15.542164966661247"><ele>195.0</ele><time>2026-04-19T17:24:42Z</time></trkpt><trkpt lat="41.21474047847472" lon="15.542157294062221"><ele>195.0</ele><time>2026-04-19T17:24:43Z</time></trkpt><trkpt lat="41.21455725304877" lon="15.542145362394464"><ele>195.66666666666669</ele><time>2026-04-19T17:24:44Z</time></trkpt><trkpt lat="41.21437840079669" lon="15.542129228258009"><ele>196.33333333333334</ele><time>2026-04-19T17:24:45Z</time></trkpt><trkpt lat="41.214198029001814" lon="15.542108300771599"><ele>197.0</ele><time>2026-04-19T17:24:46Z</time></trkpt><trkpt lat="41.21402370407937" lon="15.542092295214264"><ele>197.33333333333334</ele><time>2026-04-19T17:24:47Z</time></trkpt><trkpt lat="41.21384885276877" lon="15.54207474156906"><ele>197.66666666666669</ele><time>2026-04-19T17:24:48Z</time></trkpt><trkpt lat="41.213673020914015" lon="15.542058405421074"><ele>198.0</ele><time>2026-04-19T17:24:49Z</time></trkpt><trkpt lat="41.213504926723594" lon="15.54203929670069"><ele>198.33333333333331</ele><time>2026-04-19T17:24:50Z</time></trkpt><trkpt lat="41.2133262133673" lon="15.542012622059094"><ele>198.66666666666666</ele><time>2026-04-19T17:24:51Z</time></trkpt><trkpt lat="41.21315098214632" lon="15.541981472612484"><ele>199.0</ele><time>2026-04-19T17:24:52Z</time></trkpt><trkpt lat="41.21297416290407" lon="15.541957000469411"><ele>199.0</ele><time>2026-04-19T17:24:53Z</time></trkpt><trkpt lat="41.2127974997834" lon="15.541933097943108"><ele>199.0</ele><time>2026-04-19T17:24:54Z</time></trkpt><trkpt lat="41.21262784002286" lon="15.541904977805356"><ele>199.0</ele><time>2026-04-19T17:24:55Z</time></trkpt><trkpt lat="41.21245063570045" lon="15.541874218311136"><ele>199.0</ele><time>2026-04-19T17:24:56Z</time></trkpt><trkpt lat="41.212279536514735" lon="15.54184580202561"><ele>199.0</ele><time>2026-04-19T17:24:57Z</time></trkpt><trkpt lat="41.21210352393496" lon="15.541818848436938"><ele>199.0</ele><time>2026-04-19T17:24:58Z</time></trkpt><trkpt lat="41.21192752949079" lon="15.541786983600828"><ele>199.0</ele><time>2026-04-19T17:24:59Z</time></trkpt><trkpt lat="41.211747128428385" lon="15.541750800838344"><ele>199.0</ele><time>2026-04-19T17:25:00Z</time></trkpt><trkpt lat="41.21156384327134" lon="15.541712747396524"><ele>199.0</ele><time>2026-04-19T17:25:01Z</time></trkpt><trkpt lat="41.21138404327554" lon="15.541672997984957"><ele>200.0</ele><time>2026-04-19T17:25:02Z</time></trkpt><trkpt lat="41.211205110303936" lon="15.54162985702288"><ele>201.0</ele><time>2026-04-19T17:25:03Z</time></trkpt><trkpt lat="41.21102436670216" lon="15.541584857221705"><ele>202.0</ele><time>2026-04-19T17:25:04Z</time></trkpt><trkpt lat="41.21084350594819" lon="15.541538221077309"><ele>202.0</ele><time>2026-04-19T17:25:05Z</time></trkpt><trkpt lat="41.210667224778305" lon="15.54148775129487"><ele>202.0</ele><time>2026-04-19T17:25:06Z</time></trkpt><trkpt lat="41.210492844619104" lon="15.541435855675758"><ele>202.0</ele><time>2026-04-19T17:25:07Z</time></trkpt><trkpt lat="41.21031687879183" lon="15.541383364162556"><ele>203.0</ele><time>2026-04-19T17:25:08Z</time></trkpt><trkpt lat="41.21014511953512" lon="15.541327110549764"><ele>204.0</ele><time>2026-04-19T17:25:09Z</time></trkpt><trkpt lat="41.20996765011992" lon="15.54127100165119"><ele>205.0</ele><time>2026-04-19T17:25:10Z</time></trkpt><trkpt lat="41.20979199091475" lon="15.54121475848144"><ele>205.0</ele><time>2026-04-19T17:25:11Z</time></trkpt><trkpt lat="41.209622035874574" lon="15.541159002494052"><ele>205.0</ele><time>2026-04-19T17:25:12Z</time></trkpt><trkpt lat="41.20944681474067" lon="15.54110783442188"><ele>205.0</ele><time>2026-04-19T17:25:13Z</time></trkpt><trkpt lat="41.20927225080092" lon="15.541052886228067"><ele>205.0</ele><time>2026-04-19T17:25:14Z</time></trkpt><trkpt lat="41.20910212448697" lon="15.54099255305814"><ele>205.0</ele><time>2026-04-19T17:25:15Z</time></trkpt><trkpt lat="41.2089297652895" lon="15.540929842521416"><ele>205.0</ele><time>2026-04-19T17:25:16Z</time></trkpt><trkpt lat="41.20875823622459" lon="15.540869934465073"><ele>206.33333333333331</ele><time>2026-04-19T17:25:17Z</time></trkpt><trkpt lat="41.20859121500766" lon="15.540812880409842"><ele>207.66666666666669</ele><time>2026-04-19T17:25:18Z</time></trkpt><trkpt lat="41.20841854291403" lon="15.540753686463042"><ele>209.0</ele><time>2026-04-19T17:25:19Z</time></trkpt><trkpt lat="41.20825285419118" lon="15.54069210356692"><ele>208.66666666666669</ele><time>2026-04-19T17:25:20Z</time></trkpt><trkpt lat="41.20808625862537" lon="15.540631822962787"><ele>208.33333333333331</ele><time>2026-04-19T17:25:21Z</time></trkpt><trkpt lat="41.20792014175889" lon="15.540569885128697"><ele>208.0</ele><time>2026-04-19T17:25:22Z</time></trkpt><trkpt lat="41.207755599957686" lon="15.540508022719328"><ele>208.0</ele><time>2026-04-19T17:25:23Z</time></trkpt><trkpt lat="41.20759151217686" lon="15.540448210802893"><ele>208.0</ele><time>2026-04-19T17:25:24Z</time></trkpt><trkpt lat="41.207424510081516" lon="15.54038959647381"><ele>208.0</ele><time>2026-04-19T17:25:25Z</time></trkpt><trkpt lat="41.20725566050241" lon="15.540328969882504"><ele>208.0</ele><time>2026-04-19T17:25:26Z</time></trkpt><trkpt lat="41.20709194609184" lon="15.540267637859822"><ele>208.0</ele><time>2026-04-19T17:25:27Z</time></trkpt><trkpt lat="41.20692322719731" lon="15.540205325115844"><ele>208.0</ele><time>2026-04-19T17:25:28Z</time></trkpt><trkpt lat="41.206755202524526" lon="15.540145551327699"><ele>208.0</ele><time>2026-04-19T17:25:29Z</time></trkpt><trkpt lat="41.206587726741084" lon="15.540086462642892"><ele>208.0</ele><time>2026-04-19T17:25:30Z</time></trkpt><trkpt lat="41.20641705260836" lon="15.54002189597692"><ele>208.0</ele><time>2026-04-19T17:25:31Z</time></trkpt><trkpt lat="41.20624651293889" lon="15.53995787500373"><ele>208.33333333333331</ele><time>2026-04-19T17:25:32Z</time></trkpt><trkpt lat="41.206077430133426" lon="15.53989423373196"><ele>208.66666666666669</ele><time>2026-04-19T17:25:33Z</time></trkpt><trkpt lat="41.20590583704329" lon="15.539837696380058"><ele>209.0</ele><time>2026-04-19T17:25:34Z</time></trkpt><trkpt lat="41.205732122672885" lon="15.539780538825891"><ele>209.66666666666669</ele><time>2026-04-19T17:25:35Z</time></trkpt><trkpt lat="41.20555595271225" lon="15.539720066444824"><ele>210.33333333333331</ele><time>2026-04-19T17:25:36Z</time></trkpt><trkpt lat="41.20538703482123" lon="15.539655357522644"><ele>211.0</ele><time>2026-04-19T17:25:37Z</time></trkpt><trkpt lat="41.20521995195003" lon="15.539591228539182"><ele>211.33333333333331</ele><time>2026-04-19T17:25:38Z</time></trkpt><trkpt lat="41.20505521808366" lon="15.539528710906493"><ele>211.66666666666669</ele><time>2026-04-19T17:25:39Z</time></trkpt><trkpt lat="41.20488887930836" lon="15.539469862443212"><ele>212.0</ele><time>2026-04-19T17:25:40Z</time></trkpt><trkpt lat="41.204725909880615" lon="15.539414421405457"><ele>212.0</ele><time>2026-04-19T17:25:41Z</time></trkpt><trkpt lat="41.204565047327755" lon="15.539358318233557"><ele>212.0</ele><time>2026-04-19T17:25:42Z</time></trkpt><trkpt lat="41.2044024982578" lon="15.53930265629843"><ele>212.0</ele><time>2026-04-19T17:25:43Z</time></trkpt><trkpt lat="41.20424326838078" lon="15.539247084125936"><ele>212.0</ele><time>2026-04-19T17:25:44Z</time></trkpt><trkpt lat="41.204078821872756" lon="15.539191912013328"><ele>212.0</ele><time>2026-04-19T17:25:45Z</time></trkpt><trkpt lat="41.203921110740616" lon="15.539133587578727"><ele>212.0</ele><time>2026-04-19T17:25:46Z</time></trkpt><trkpt lat="41.203766110218034" lon="15.53907069955019"><ele>212.0</ele><time>2026-04-19T17:25:47Z</time></trkpt><trkpt lat="41.20360047893065" lon="15.539013034389445"><ele>212.0</ele><time>2026-04-19T17:25:48Z</time></trkpt><trkpt lat="41.20343833185949" lon="15.538955284679844"><ele>212.0</ele><time>2026-04-19T17:25:49Z</time></trkpt><trkpt lat="41.20327449053406" lon="15.53889724670132"><ele>211.66666666666669</ele><time>2026-04-19T17:25:50Z</time></trkpt><trkpt lat="41.2031144309849" lon="15.538844214250567"><ele>211.33333333333331</ele><time>2026-04-19T17:25:51Z</time></trkpt><trkpt lat="41.20294713980133" lon="15.538790328961145"><ele>211.0</ele><time>2026-04-19T17:25:52Z</time></trkpt><trkpt lat="41.20278654989545" lon="15.53873412919969"><ele>211.0</ele><time>2026-04-19T17:25:53Z</time></trkpt><trkpt lat="41.2026267420642" lon="15.538678262086925"><ele>211.0</ele><time>2026-04-19T17:25:54Z</time></trkpt><trkpt lat="41.20246370251761" lon="15.538619080846921"><ele>211.0</ele><time>2026-04-19T17:25:55Z</time></trkpt><trkpt lat="41.20229724455653" lon="15.5385581692196"><ele>211.0</ele><time>2026-04-19T17:25:56Z</time></trkpt><trkpt lat="41.20213644055454" lon="15.538494609942887"><ele>211.0</ele><time>2026-04-19T17:25:57Z</time></trkpt><trkpt lat="41.2019676950988" lon="15.538435253880083"><ele>211.0</ele><time>2026-04-19T17:25:58Z</time></trkpt><trkpt lat="41.201796741038876" lon="15.53837831678524"><ele>211.0</ele><time>2026-04-19T17:25:59Z</time></trkpt><trkpt lat="41.201632445041575" lon="15.538320320008651"><ele>211.0</ele><time>2026-04-19T17:26:00Z</time></trkpt><trkpt lat="41.20146169307306" lon="15.538260880655177"><ele>211.0</ele><time>2026-04-19T17:26:01Z</time></trkpt><trkpt lat="41.201293774210775" lon="15.538200318551352"><ele>211.33333333333331</ele><time>2026-04-19T17:26:02Z</time></trkpt><trkpt lat="41.20112015314018" lon="15.53814017464191"><ele>211.66666666666669</ele><time>2026-04-19T17:26:03Z</time></trkpt><trkpt lat="41.20095155118569" lon="15.53807975629099"><ele>212.0</ele><time>2026-04-19T17:26:04Z</time></trkpt><trkpt lat="41.200776357968365" lon="15.538025456037776"><ele>212.0</ele><time>2026-04-19T17:26:05Z</time></trkpt><trkpt lat="41.20060635159273" lon="15.537965434593177"><ele>212.0</ele><time>2026-04-19T17:26:06Z</time></trkpt><trkpt lat="41.20042834174476" lon="15.537908152077629"><ele>212.0</ele><time>2026-04-19T17:26:07Z</time></trkpt><trkpt lat="41.200264758407855" lon="15.537845866563258"><ele>212.33333333333334</ele><time>2026-04-19T17:26:08Z</time></trkpt><trkpt lat="41.20009112441254" lon="15.53778377712392"><ele>212.66666666666669</ele><time>2026-04-19T17:26:09Z</time></trkpt><trkpt lat="41.19992058086048" lon="15.537723488640763"><ele>213.0</ele><time>2026-04-19T17:26:10Z</time></trkpt><trkpt lat="41.19973727676667" lon="15.537668608116347"><ele>213.0</ele><time>2026-04-19T17:26:11Z</time></trkpt><trkpt lat="41.19955045478146" lon="15.537589228691912"><ele>213.0</ele><time>2026-04-19T17:26:12Z</time></trkpt><trkpt lat="41.19940770671783" lon="15.537537348643117"><ele>213.0</ele><time>2026-04-19T17:26:13Z</time></trkpt><trkpt lat="41.19923871030179" lon="15.53747590795052"><ele>213.0</ele><time>2026-04-19T17:26:14Z</time></trkpt><trkpt lat="41.19906697102862" lon="15.537419300701725"><ele>213.0</ele><time>2026-04-19T17:26:15Z</time></trkpt><trkpt lat="41.198897184401396" lon="15.537359533054705"><ele>213.0</ele><time>2026-04-19T17:26:16Z</time></trkpt><trkpt lat="41.19872973913129" lon="15.537300538382512"><ele>214.0</ele><time>2026-04-19T17:26:17Z</time></trkpt><trkpt lat="41.19856185063437" lon="15.537235659169493"><ele>215.0</ele><time>2026-04-19T17:26:18Z</time></trkpt><trkpt lat="41.19840259951579" lon="15.537171429486994"><ele>216.0</ele><time>2026-04-19T17:26:19Z</time></trkpt><trkpt lat="41.198233049262676" lon="15.53711256534846"><ele>216.66666666666669</ele><time>2026-04-19T17:26:20Z</time></trkpt><trkpt lat="41.1980607795801" lon="15.537055924385898"><ele>217.33333333333334</ele><time>2026-04-19T17:26:21Z</time></trkpt><trkpt lat="41.197892009877165" lon="15.536995909868079"><ele>218.0</ele><time>2026-04-19T17:26:22Z</time></trkpt><trkpt lat="41.19772340266826" lon="15.536933821468438"><ele>218.0</ele><time>2026-04-19T17:26:23Z</time></trkpt><trkpt lat="41.19755175060943" lon="15.53687592347756"><ele>218.0</ele><time>2026-04-19T17:26:24Z</time></trkpt><trkpt lat="41.19737918709075" lon="15.536816014845343"><ele>218.0</ele><time>2026-04-19T17:26:25Z</time></trkpt><trkpt lat="41.19720907681122" lon="15.536758521036901"><ele>218.33333333333334</ele><time>2026-04-19T17:26:26Z</time></trkpt><trkpt lat="41.19703427424414" lon="15.536697747044453"><ele>218.66666666666669</ele><time>2026-04-19T17:26:27Z</time></trkpt><trkpt lat="41.19686298169205" lon="15.536637496116876"><ele>219.0</ele><time>2026-04-19T17:26:28Z</time></trkpt><trkpt lat="41.19669170687036" lon="15.536572505051385"><ele>219.0</ele><time>2026-04-19T17:26:29Z</time></trkpt><trkpt lat="41.19651745827396" lon="15.53650959058709"><ele>219.0</ele><time>2026-04-19T17:26:30Z</time></trkpt><trkpt lat="41.19634683034557" lon="15.536443890628005"><ele>219.0</ele><time>2026-04-19T17:26:31Z</time></trkpt><trkpt lat="41.19617323676678" lon="15.536381897116636"><ele>219.33333333333331</ele><time>2026-04-19T17:26:32Z</time></trkpt><trkpt lat="41.19599997404212" lon="15.536320691258139"><ele>219.66666666666666</ele><time>2026-04-19T17:26:33Z</time></trkpt><trkpt lat="41.195824834449986" lon="15.536265067149174"><ele>220.0</ele><time>2026-04-19T17:26:34Z</time></trkpt><trkpt lat="41.195652927057125" lon="15.536205183439305"><ele>220.33333333333331</ele><time>2026-04-19T17:26:35Z</time></trkpt><trkpt lat="41.19548104861109" lon="15.536144108028648"><ele>220.66666666666669</ele><time>2026-04-19T17:26:36Z</time></trkpt><trkpt lat="41.19530879041699" lon="15.536082752966157"><ele>221.0</ele><time>2026-04-19T17:26:37Z</time></trkpt><trkpt lat="41.1951355299705" lon="15.536030759394164"><ele>221.0</ele><time>2026-04-19T17:26:38Z</time></trkpt><trkpt lat="41.19496968141813" lon="15.535970516112247"><ele>221.0</ele><time>2026-04-19T17:26:39Z</time></trkpt><trkpt lat="41.19479821223451" lon="15.535915316409556"><ele>221.0</ele><time>2026-04-19T17:26:40Z</time></trkpt><trkpt lat="41.19463432135417" lon="15.535848895431652"><ele>222.0</ele><time>2026-04-19T17:26:41Z</time></trkpt><trkpt lat="41.19447037321255" lon="15.535787218367783"><ele>223.0</ele><time>2026-04-19T17:26:42Z</time></trkpt><trkpt lat="41.194307010654306" lon="15.53572467791112"><ele>224.0</ele><time>2026-04-19T17:26:43Z</time></trkpt><trkpt lat="41.19414050472127" lon="15.535665967391186"><ele>224.0</ele><time>2026-04-19T17:26:44Z</time></trkpt><trkpt lat="41.19397352929468" lon="15.535607739981014"><ele>224.0</ele><time>2026-04-19T17:26:45Z</time></trkpt><trkpt lat="41.193809496241066" lon="15.535544099084143"><ele>224.0</ele><time>2026-04-19T17:26:46Z</time></trkpt><trkpt lat="41.19364300745495" lon="15.535482878097921"><ele>224.0</ele><time>2026-04-19T17:26:47Z</time></trkpt><trkpt lat="41.1934675180192" lon="15.53542934616478"><ele>224.0</ele><time>2026-04-19T17:26:48Z</time></trkpt><trkpt lat="41.19329979318244" lon="15.5353704944964"><ele>224.0</ele><time>2026-04-19T17:26:49Z</time></trkpt><trkpt lat="41.193130163545284" lon="15.535309870561843"><ele>223.66666666666669</ele><time>2026-04-19T17:26:50Z</time></trkpt><trkpt lat="41.19295837209369" lon="15.53524943823822"><ele>223.33333333333331</ele><time>2026-04-19T17:26:51Z</time></trkpt><trkpt lat="41.19278539267048" lon="15.535188147190071"><ele>223.0</ele><time>2026-04-19T17:26:52Z</time></trkpt><trkpt lat="41.19261262545182" lon="15.535130268588961"><ele>223.0</ele><time>2026-04-19T17:26:53Z</time></trkpt><trkpt lat="41.192441556171055" lon="15.53506623587906"><ele>223.0</ele><time>2026-04-19T17:26:54Z</time></trkpt><trkpt lat="41.192267251716366" lon="15.535005246105374"><ele>223.0</ele><time>2026-04-19T17:26:55Z</time></trkpt><trkpt lat="41.192093526211366" lon="15.534943387593202"><ele>222.66666666666666</ele><time>2026-04-19T17:26:56Z</time></trkpt><trkpt lat="41.191918946076555" lon="15.534881557860011"><ele>222.33333333333331</ele><time>2026-04-19T17:26:57Z</time></trkpt><trkpt lat="41.191743176820125" lon="15.534817892943463"><ele>222.0</ele><time>2026-04-19T17:26:58Z</time></trkpt><trkpt lat="41.19156833065787" lon="15.534754238223522"><ele>222.66666666666669</ele><time>2026-04-19T17:26:59Z</time></trkpt><trkpt lat="41.191392440454045" lon="15.534692105948581"><ele>223.33333333333334</ele><time>2026-04-19T17:27:00Z</time></trkpt><trkpt lat="41.191219720848416" lon="15.534625358810976"><ele>224.0</ele><time>2026-04-19T17:27:01Z</time></trkpt><trkpt lat="41.19103803463125" lon="15.534567840812981"><ele>223.33333333333334</ele><time>2026-04-19T17:27:02Z</time></trkpt><trkpt lat="41.19087261959418" lon="15.534498857189291"><ele>222.66666666666669</ele><time>2026-04-19T17:27:03Z</time></trkpt><trkpt lat="41.19070829867275" lon="15.534442367619764"><ele>222.0</ele><time>2026-04-19T17:27:04Z</time></trkpt><trkpt lat="41.190545998931775" lon="15.534385157082392"><ele>222.0</ele><time>2026-04-19T17:27:05Z</time></trkpt><trkpt lat="41.190383536344484" lon="15.534337219101793"><ele>222.0</ele><time>2026-04-19T17:27:06Z</time></trkpt><trkpt lat="41.19022524997954" lon="15.534284010147935"><ele>222.0</ele><time>2026-04-19T17:27:07Z</time></trkpt><trkpt lat="41.19007051307125" lon="15.534226753639384"><ele>222.0</ele><time>2026-04-19T17:27:08Z</time></trkpt><trkpt lat="41.189918510191376" lon="15.534171127257615"><ele>222.0</ele><time>2026-04-19T17:27:09Z</time></trkpt><trkpt lat="41.18975422291993" lon="15.534123613719032"><ele>222.0</ele><time>2026-04-19T17:27:10Z</time></trkpt><trkpt lat="41.18959952989179" lon="15.534055579820759"><ele>222.0</ele><time>2026-04-19T17:27:11Z</time></trkpt><trkpt lat="41.189435986829785" lon="15.534001205212977"><ele>222.0</ele><time>2026-04-19T17:27:12Z</time></trkpt><trkpt lat="41.18927092580789" lon="15.533944014914328"><ele>222.0</ele><time>2026-04-19T17:27:13Z</time></trkpt><trkpt lat="41.18911393119007" lon="15.533892342294223"><ele>222.66666666666669</ele><time>2026-04-19T17:27:14Z</time></trkpt><trkpt lat="41.18893860504072" lon="15.53383622256051"><ele>223.33333333333334</ele><time>2026-04-19T17:27:15Z</time></trkpt><trkpt lat="41.18876199449242" lon="15.533788485019597"><ele>224.0</ele><time>2026-04-19T17:27:16Z</time></trkpt><trkpt lat="41.18858570620712" lon="15.533739614024405"><ele>224.0</ele><time>2026-04-19T17:27:17Z</time></trkpt><trkpt lat="41.188412275804616" lon="15.53369145138792"><ele>224.0</ele><time>2026-04-19T17:27:18Z</time></trkpt><trkpt lat="41.18825153648948" lon="15.533640195677432"><ele>224.0</ele><time>2026-04-19T17:27:19Z</time></trkpt><trkpt lat="41.188077481803326" lon="15.533600914746742"><ele>224.33333333333334</ele><time>2026-04-19T17:27:20Z</time></trkpt><trkpt lat="41.18790835476318" lon="15.533562134690554"><ele>224.66666666666669</ele><time>2026-04-19T17:27:21Z</time></trkpt><trkpt lat="41.18774337163915" lon="15.533518811254423"><ele>225.0</ele><time>2026-04-19T17:27:22Z</time></trkpt><trkpt lat="41.18758162952748" lon="15.533473539916475"><ele>225.0</ele><time>2026-04-19T17:27:23Z</time></trkpt><trkpt lat="41.18742259187416" lon="15.533431840011875"><ele>225.0</ele><time>2026-04-19T17:27:24Z</time></trkpt><trkpt lat="41.18725459921866" lon="15.533395340676622"><ele>225.0</ele><time>2026-04-19T17:27:25Z</time></trkpt><trkpt lat="41.18709357470401" lon="15.533356184221917"><ele>226.0</ele><time>2026-04-19T17:27:26Z</time></trkpt><trkpt lat="41.18692663561666" lon="15.533321880720184"><ele>227.0</ele><time>2026-04-19T17:27:27Z</time></trkpt><trkpt lat="41.18675715209775" lon="15.53328865722806"><ele>228.0</ele><time>2026-04-19T17:27:28Z</time></trkpt><trkpt lat="41.186589702115484" lon="15.533258846914"><ele>228.66666666666669</ele><time>2026-04-19T17:27:29Z</time></trkpt><trkpt lat="41.186421076929214" lon="15.533227283263622"><ele>229.33333333333334</ele><time>2026-04-19T17:27:30Z</time></trkpt><trkpt lat="41.18625365159672" lon="15.533197776102073"><ele>230.0</ele><time>2026-04-19T17:27:31Z</time></trkpt><trkpt lat="41.186087383945925" lon="15.533172045392957"><ele>230.0</ele><time>2026-04-19T17:27:32Z</time></trkpt><trkpt lat="41.1859166679709" lon="15.533149796722856"><ele>230.0</ele><time>2026-04-19T17:27:33Z</time></trkpt><trkpt lat="41.18575336017589" lon="15.533120030962799"><ele>230.0</ele><time>2026-04-19T17:27:34Z</time></trkpt><trkpt lat="41.185588937505415" lon="15.533095034826744"><ele>231.0</ele><time>2026-04-19T17:27:35Z</time></trkpt><trkpt lat="41.18542415756394" lon="15.533068595706602"><ele>232.0</ele><time>2026-04-19T17:27:36Z</time></trkpt><trkpt lat="41.18526497376342" lon="15.53303899923872"><ele>233.0</ele><time>2026-04-19T17:27:37Z</time></trkpt><trkpt lat="41.185102838452224" lon="15.533014097587767"><ele>233.0</ele><time>2026-04-19T17:27:38Z</time></trkpt><trkpt lat="41.18494227977082" lon="15.532987781575073"><ele>233.0</ele><time>2026-04-19T17:27:39Z</time></trkpt><trkpt lat="41.18477817031674" lon="15.53296511394744"><ele>233.0</ele><time>2026-04-19T17:27:40Z</time></trkpt><trkpt lat="41.18461526574277" lon="15.532941419624931"><ele>233.0</ele><time>2026-04-19T17:27:41Z</time></trkpt><trkpt lat="41.18445276419632" lon="15.532914668532172"><ele>233.0</ele><time>2026-04-19T17:27:42Z</time></trkpt><trkpt lat="41.18427852253855" lon="15.532888315594745"><ele>233.0</ele><time>2026-04-19T17:27:43Z</time></trkpt><trkpt lat="41.18410302049911" lon="15.532852492941858"><ele>235.0</ele><time>2026-04-19T17:27:44Z</time></trkpt><trkpt lat="41.18392641225666" lon="15.532816850233406"><ele>237.0</ele><time>2026-04-19T17:27:45Z</time></trkpt><trkpt lat="41.18374701704151" lon="15.532782463915941"><ele>239.0</ele><time>2026-04-19T17:27:46Z</time></trkpt><trkpt lat="41.183572143118454" lon="15.532746517344238"><ele>239.0</ele><time>2026-04-19T17:27:47Z</time></trkpt><trkpt lat="41.18339642563376" lon="15.53271045732623"><ele>239.0</ele><time>2026-04-19T17:27:48Z</time></trkpt><trkpt lat="41.18322232640112" lon="15.53267240864652"><ele>239.0</ele><time>2026-04-19T17:27:49Z</time></trkpt><trkpt lat="41.18305457658769" lon="15.532627928520787"><ele>239.0</ele><time>2026-04-19T17:27:50Z</time></trkpt><trkpt lat="41.18288518880016" lon="15.53258217231923"><ele>239.0</ele><time>2026-04-19T17:27:51Z</time></trkpt><trkpt lat="41.182715362066894" lon="15.532538203723798"><ele>239.0</ele><time>2026-04-19T17:27:52Z</time></trkpt><trkpt lat="41.18254573120646" lon="15.532492590253767"><ele>239.0</ele><time>2026-04-19T17:27:53Z</time></trkpt><trkpt lat="41.18238085043939" lon="15.532440875621969"><ele>239.0</ele><time>2026-04-19T17:27:54Z</time></trkpt><trkpt lat="41.182218727947806" lon="15.532390837767757"><ele>239.0</ele><time>2026-04-19T17:27:55Z</time></trkpt><trkpt lat="41.182054714903266" lon="15.532344333251666"><ele>239.66666666666669</ele><time>2026-04-19T17:27:56Z</time></trkpt><trkpt lat="41.18189383580447" lon="15.532294192603075"><ele>240.33333333333331</ele><time>2026-04-19T17:27:57Z</time></trkpt><trkpt lat="41.18172892306377" lon="15.532245176928546"><ele>241.0</ele><time>2026-04-19T17:27:58Z</time></trkpt><trkpt lat="41.181566534873845" lon="15.532191064853462"><ele>240.66666666666666</ele><time>2026-04-19T17:27:59Z</time></trkpt><trkpt lat="41.1814004682059" lon="15.532135236066441"><ele>240.33333333333331</ele><time>2026-04-19T17:28:00Z</time></trkpt><trkpt lat="41.181233432334544" lon="15.532079118266905"><ele>240.0</ele><time>2026-04-19T17:28:01Z</time></trkpt><trkpt lat="41.18106875739783" lon="15.532019684317481"><ele>242.66666666666669</ele><time>2026-04-19T17:28:02Z</time></trkpt><trkpt lat="41.18090186762786" lon="15.53196190342352"><ele>245.33333333333334</ele><time>2026-04-19T17:28:03Z</time></trkpt><trkpt lat="41.18072662693617" lon="15.531906198862693"><ele>248.0</ele><time>2026-04-19T17:28:04Z</time></trkpt><trkpt lat="41.18056714570434" lon="15.531844272669789"><ele>248.33333333333334</ele><time>2026-04-19T17:28:05Z</time></trkpt><trkpt lat="41.180400554414824" lon="15.531786364206342"><ele>248.66666666666669</ele><time>2026-04-19T17:28:06Z</time></trkpt><trkpt lat="41.18023343141923" lon="15.531723795814587"><ele>249.0</ele><time>2026-04-19T17:28:07Z</time></trkpt><trkpt lat="41.18006923648662" lon="15.531656692944157"><ele>249.0</ele><time>2026-04-19T17:28:08Z</time></trkpt><trkpt lat="41.1799045796951" lon="15.531587385577442"><ele>249.0</ele><time>2026-04-19T17:28:09Z</time></trkpt><trkpt lat="41.17973878746784" lon="15.531517899258223"><ele>249.0</ele><time>2026-04-19T17:28:10Z</time></trkpt><trkpt lat="41.179576438984" lon="15.531446700018085"><ele>248.66666666666669</ele><time>2026-04-19T17:28:11Z</time></trkpt><trkpt lat="41.179411544780244" lon="15.531373807406375"><ele>248.33333333333334</ele><time>2026-04-19T17:28:12Z</time></trkpt><trkpt lat="41.179248221003604" lon="15.531300226454903"><ele>248.0</ele><time>2026-04-19T17:28:13Z</time></trkpt><trkpt lat="41.1790849751628" lon="15.531227772976269"><ele>248.66666666666669</ele><time>2026-04-19T17:28:14Z</time></trkpt><trkpt lat="41.17891793497899" lon="15.531157155681344"><ele>249.33333333333331</ele><time>2026-04-19T17:28:15Z</time></trkpt><trkpt lat="41.178750963727516" lon="15.531085919865516"><ele>250.0</ele><time>2026-04-19T17:28:16Z</time></trkpt><trkpt lat="41.1785920134954" lon="15.53101500024069"><ele>250.0</ele><time>2026-04-19T17:28:17Z</time></trkpt><trkpt lat="41.178431859466066" lon="15.53094768685422"><ele>250.0</ele><time>2026-04-19T17:28:18Z</time></trkpt><trkpt lat="41.17827551886424" lon="15.530875726541707"><ele>250.0</ele><time>2026-04-19T17:28:19Z</time></trkpt><trkpt lat="41.17811566500789" lon="15.530811329461404"><ele>250.0</ele><time>2026-04-19T17:28:20Z</time></trkpt><trkpt lat="41.17795851022945" lon="15.530747248804657"><ele>250.0</ele><time>2026-04-19T17:28:21Z</time></trkpt><trkpt lat="41.1777980182509" lon="15.530683177731035"><ele>250.0</ele><time>2026-04-19T17:28:22Z</time></trkpt><trkpt lat="41.17763894220543" lon="15.530615106146598"><ele>250.0</ele><time>2026-04-19T17:28:23Z</time></trkpt><trkpt lat="41.177476354403666" lon="15.530546247959393"><ele>250.0</ele><time>2026-04-19T17:28:24Z</time></trkpt><trkpt lat="41.177315106295644" lon="15.530472288715236"><ele>250.0</ele><time>2026-04-19T17:28:25Z</time></trkpt><trkpt lat="41.17715495863535" lon="15.530395561883594"><ele>252.33333333333331</ele><time>2026-04-19T17:28:26Z</time></trkpt><trkpt lat="41.17698684574884" lon="15.53032444028486"><ele>254.66666666666669</ele><time>2026-04-19T17:28:27Z</time></trkpt><trkpt lat="41.17682182236136" lon="15.530251787461449"><ele>257.0</ele><time>2026-04-19T17:28:28Z</time></trkpt><trkpt lat="41.17665875579823" lon="15.530185870004534"><ele>258.0</ele><time>2026-04-19T17:28:29Z</time></trkpt><trkpt lat="41.176497245473584" lon="15.530121854377843"><ele>259.0</ele><time>2026-04-19T17:28:30Z</time></trkpt><trkpt lat="41.1763368727561" lon="15.530053249201114"><ele>260.0</ele><time>2026-04-19T17:28:31Z</time></trkpt><trkpt lat="41.176178199602994" lon="15.529983011233211"><ele>260.0</ele><time>2026-04-19T17:28:32Z</time></trkpt><trkpt lat="41.176019101738795" lon="15.529912900823797"><ele>260.0</ele><time>2026-04-19T17:28:33Z</time></trkpt><trkpt lat="41.17585505322694" lon="15.529847819873625"><ele>260.0</ele><time>2026-04-19T17:28:34Z</time></trkpt><trkpt lat="41.17570033032261" lon="15.52977559687643"><ele>260.33333333333337</ele><time>2026-04-19T17:28:35Z</time></trkpt><trkpt lat="41.17554095479539" lon="15.529704679890315"><ele>260.6666666666667</ele><time>2026-04-19T17:28:36Z</time></trkpt><trkpt lat="41.17537830356834" lon="15.529635725918693"><ele>261.0</ele><time>2026-04-19T17:28:37Z</time></trkpt><trkpt lat="41.17521654899702" lon="15.52956425031427"><ele>261.3333333333333</ele><time>2026-04-19T17:28:38Z</time></trkpt><trkpt lat="41.175054508184594" lon="15.52949122445112"><ele>261.66666666666663</ele><time>2026-04-19T17:28:39Z</time></trkpt><trkpt lat="41.174894071723784" lon="15.529420487780952"><ele>262.0</ele><time>2026-04-19T17:28:40Z</time></trkpt><trkpt lat="41.17473824191576" lon="15.529348730386275"><ele>262.0</ele><time>2026-04-19T17:28:41Z</time></trkpt><trkpt lat="41.1745792923574" lon="15.529281869552431"><ele>262.0</ele><time>2026-04-19T17:28:42Z</time></trkpt><trkpt lat="41.17442703474081" lon="15.52920977109225"><ele>262.0</ele><time>2026-04-19T17:28:43Z</time></trkpt><trkpt lat="41.1742739504336" lon="15.529139954599888"><ele>262.0</ele><time>2026-04-19T17:28:44Z</time></trkpt><trkpt lat="41.174123214036726" lon="15.529072998698647"><ele>262.0</ele><time>2026-04-19T17:28:45Z</time></trkpt><trkpt lat="41.173965331366524" lon="15.529013320078963"><ele>262.0</ele><time>2026-04-19T17:28:46Z</time></trkpt><trkpt lat="41.17381282055076" lon="15.528947365456586"><ele>261.66666666666663</ele><time>2026-04-19T17:28:47Z</time></trkpt><trkpt lat="41.17365978338072" lon="15.528881194291383"><ele>261.3333333333333</ele><time>2026-04-19T17:28:48Z</time></trkpt><trkpt lat="41.17350850544061" lon="15.5288132224977"><ele>261.0</ele><time>2026-04-19T17:28:49Z</time></trkpt><trkpt lat="41.17335005858941" lon="15.528748043302244"><ele>262.0</ele><time>2026-04-19T17:28:50Z</time></trkpt><trkpt lat="41.17319597357624" lon="15.528681222226869"><ele>263.0</ele><time>2026-04-19T17:28:51Z</time></trkpt><trkpt lat="41.17303847265297" lon="15.528614059712842"><ele>264.0</ele><time>2026-04-19T17:28:52Z</time></trkpt><trkpt lat="41.17288000853824" lon="15.52854438632083"><ele>264.0</ele><time>2026-04-19T17:28:53Z</time></trkpt><trkpt lat="41.172719164910504" lon="15.528475465501264"><ele>264.0</ele><time>2026-04-19T17:28:54Z</time></trkpt><trkpt lat="41.17255571946933" lon="15.528408195967403"><ele>264.0</ele><time>2026-04-19T17:28:55Z</time></trkpt><trkpt lat="41.17239526662386" lon="15.528339876860473"><ele>263.3333333333333</ele><time>2026-04-19T17:28:56Z</time></trkpt><trkpt lat="41.17223297587886" lon="15.528275130820422"><ele>262.66666666666663</ele><time>2026-04-19T17:28:57Z</time></trkpt><trkpt lat="41.17207617848563" lon="15.528209983401455"><ele>262.0</ele><time>2026-04-19T17:28:58Z</time></trkpt><trkpt lat="41.17191910568786" lon="15.528146457939444"><ele>262.0</ele><time>2026-04-19T17:28:59Z</time></trkpt><trkpt lat="41.17176335547989" lon="15.528082758549944"><ele>262.0</ele><time>2026-04-19T17:29:00Z</time></trkpt><trkpt lat="41.171606457396145" lon="15.528017202371865"><ele>262.0</ele><time>2026-04-19T17:29:01Z</time></trkpt><trkpt lat="41.17145265506042" lon="15.527945851386006"><ele>263.0</ele><time>2026-04-19T17:29:02Z</time></trkpt><trkpt lat="41.17129493798437" lon="15.527874319746726"><ele>264.0</ele><time>2026-04-19T17:29:03Z</time></trkpt><trkpt lat="41.17113218096166" lon="15.527803720868695"><ele>265.0</ele><time>2026-04-19T17:29:04Z</time></trkpt><trkpt lat="41.170970415143394" lon="15.527733086019094"><ele>265.0</ele><time>2026-04-19T17:29:05Z</time></trkpt><trkpt lat="41.17080703044827" lon="15.527664846820537"><ele>265.0</ele><time>2026-04-19T17:29:06Z</time></trkpt><trkpt lat="41.17064445553924" lon="15.527595006235815"><ele>265.0</ele><time>2026-04-19T17:29:07Z</time></trkpt><trkpt lat="41.17047993499796" lon="15.527526644356358"><ele>265.3333333333333</ele><time>2026-04-19T17:29:08Z</time></trkpt><trkpt lat="41.17031433480616" lon="15.52745818977015"><ele>265.6666666666667</ele><time>2026-04-19T17:29:09Z</time></trkpt><trkpt lat="41.17015184752926" lon="15.527388030437997"><ele>266.0</ele><time>2026-04-19T17:29:10Z</time></trkpt><trkpt lat="41.16999446129908" lon="15.52731525737222"><ele>266.33333333333337</ele><time>2026-04-19T17:29:11Z</time></trkpt><trkpt lat="41.169835046164415" lon="15.527247780343874"><ele>266.6666666666667</ele><time>2026-04-19T17:29:12Z</time></trkpt><trkpt lat="41.169675366894076" lon="15.527184030263106"><ele>267.0</ele><time>2026-04-19T17:29:13Z</time></trkpt><trkpt lat="41.169517458826604" lon="15.527120046594451"><ele>268.0</ele><time>2026-04-19T17:29:14Z</time></trkpt><trkpt lat="41.169357802515634" lon="15.527054866773122"><ele>269.0</ele><time>2026-04-19T17:29:15Z</time></trkpt><trkpt lat="41.169201852617036" lon="15.526985205551817"><ele>270.0</ele><time>2026-04-19T17:29:16Z</time></trkpt><trkpt lat="41.169042962487374" lon="15.526912667511269"><ele>270.0</ele><time>2026-04-19T17:29:17Z</time></trkpt><trkpt lat="41.16888969860332" lon="15.52684806055107"><ele>270.0</ele><time>2026-04-19T17:29:18Z</time></trkpt><trkpt lat="41.168735544604765" lon="15.526782113220737"><ele>270.0</ele><time>2026-04-19T17:29:19Z</time></trkpt><trkpt lat="41.168585063737694" lon="15.526714406578442"><ele>270.0</ele><time>2026-04-19T17:29:20Z</time></trkpt><trkpt lat="41.168429401963174" lon="15.5266527539854"><ele>270.0</ele><time>2026-04-19T17:29:21Z</time></trkpt><trkpt lat="41.1682853352404" lon="15.526578906242134"><ele>270.0</ele><time>2026-04-19T17:29:22Z</time></trkpt><trkpt lat="41.16813944915692" lon="15.52651304100222"><ele>269.6666666666667</ele><time>2026-04-19T17:29:23Z</time></trkpt><trkpt lat="41.16798695729261" lon="15.526452509743882"><ele>269.33333333333337</ele><time>2026-04-19T17:29:24Z</time></trkpt><trkpt lat="41.16784557696537" lon="15.526382129875353"><ele>269.0</ele><time>2026-04-19T17:29:25Z</time></trkpt><trkpt lat="41.16769741346668" lon="15.526318547320656"><ele>269.0</ele><time>2026-04-19T17:29:26Z</time></trkpt><trkpt lat="41.16754881968248" lon="15.52625279251908"><ele>269.0</ele><time>2026-04-19T17:29:27Z</time></trkpt><trkpt lat="41.167399862721126" lon="15.526188185277826"><ele>269.0</ele><time>2026-04-19T17:29:28Z</time></trkpt><trkpt lat="41.167253024121955" lon="15.526126193753607"><ele>270.6666666666667</ele><time>2026-04-19T17:29:29Z</time></trkpt><trkpt lat="41.167104410844715" lon="15.526064324816529"><ele>272.3333333333333</ele><time>2026-04-19T17:29:30Z</time></trkpt><trkpt lat="41.16695519417541" lon="15.526003867552484"><ele>274.0</ele><time>2026-04-19T17:29:31Z</time></trkpt><trkpt lat="41.16680620304124" lon="15.525940696969903"><ele>274.0</ele><time>2026-04-19T17:29:32Z</time></trkpt><trkpt lat="41.16665441310494" lon="15.525879161872998"><ele>274.0</ele><time>2026-04-19T17:29:33Z</time></trkpt><trkpt lat="41.16650118926775" lon="15.525819617454609"><ele>274.0</ele><time>2026-04-19T17:29:34Z</time></trkpt><trkpt lat="41.16634399597713" lon="15.525765500611525"><ele>274.3333333333333</ele><time>2026-04-19T17:29:35Z</time></trkpt><trkpt lat="41.16618673361771" lon="15.525712655861845"><ele>274.6666666666667</ele><time>2026-04-19T17:29:36Z</time></trkpt><trkpt lat="41.16602687968094" lon="15.525657244567235"><ele>275.0</ele><time>2026-04-19T17:29:37Z</time></trkpt><trkpt lat="41.16586135495232" lon="15.525604247465242"><ele>275.6666666666667</ele><time>2026-04-19T17:29:38Z</time></trkpt><trkpt lat="41.16569067639709" lon="15.52555869443065"><ele>276.3333333333333</ele><time>2026-04-19T17:29:39Z</time></trkpt><trkpt lat="41.1655143084537" lon="15.525517969073942"><ele>277.0</ele><time>2026-04-19T17:29:40Z</time></trkpt><trkpt lat="41.16533293134074" lon="15.52548474034743"><ele>277.0</ele><time>2026-04-19T17:29:41Z</time></trkpt><trkpt lat="41.165147657385894" lon="15.525454999879372"><ele>277.0</ele><time>2026-04-19T17:29:42Z</time></trkpt><trkpt lat="41.16496392996737" lon="15.525423690983603"><ele>277.0</ele><time>2026-04-19T17:29:43Z</time></trkpt><trkpt lat="41.1647733333458" lon="15.525402977523477"><ele>278.3333333333333</ele><time>2026-04-19T17:29:44Z</time></trkpt><trkpt lat="41.164583688338794" lon="15.525384211126664"><ele>279.6666666666667</ele><time>2026-04-19T17:29:45Z</time></trkpt><trkpt lat="41.1643934680522" lon="15.525378246916292"><ele>281.0</ele><time>2026-04-19T17:29:46Z</time></trkpt><trkpt lat="41.164211853649086" lon="15.525371575503296"><ele>281.0</ele><time>2026-04-19T17:29:47Z</time></trkpt><trkpt lat="41.16403284785139" lon="15.525366980267856"><ele>281.0</ele><time>2026-04-19T17:29:48Z</time></trkpt><trkpt lat="41.163850849291315" lon="15.525372324255542"><ele>281.0</ele><time>2026-04-19T17:29:49Z</time></trkpt><trkpt lat="41.163669893665144" lon="15.525377892211102"><ele>281.33333333333337</ele><time>2026-04-19T17:29:50Z</time></trkpt><trkpt lat="41.16349166432202" lon="15.525389378421814"><ele>281.6666666666667</ele><time>2026-04-19T17:29:51Z</time></trkpt><trkpt lat="41.163315922511" lon="15.525406589284938"><ele>282.0</ele><time>2026-04-19T17:29:52Z</time></trkpt><trkpt lat="41.16313908990533" lon="15.525431249979814"><ele>282.0</ele><time>2026-04-19T17:29:53Z</time></trkpt><trkpt lat="41.16296442033205" lon="15.525455108083507"><ele>282.0</ele><time>2026-04-19T17:29:54Z</time></trkpt><trkpt lat="41.162789592317715" lon="15.52548555722446"><ele>282.0</ele><time>2026-04-19T17:29:55Z</time></trkpt><trkpt lat="41.162615451994284" lon="15.525528110100613"><ele>282.0</ele><time>2026-04-19T17:29:56Z</time></trkpt><trkpt lat="41.16244261707121" lon="15.525559763749586"><ele>282.0</ele><time>2026-04-19T17:29:57Z</time></trkpt><trkpt lat="41.16226379259086" lon="15.525605073661652"><ele>282.0</ele><time>2026-04-19T17:29:58Z</time></trkpt><trkpt lat="41.16208677510557" lon="15.525652467090417"><ele>281.3333333333333</ele><time>2026-04-19T17:29:59Z</time></trkpt><trkpt lat="41.16191083856501" lon="15.52570582020472"><ele>280.66666666666663</ele><time>2026-04-19T17:30:00Z</time></trkpt><trkpt lat="41.16173232737911" lon="15.525770047911935"><ele>280.0</ele><time>2026-04-19T17:30:01Z</time></trkpt><trkpt lat="41.16155720134232" lon="15.525837654686764"><ele>280.0</ele><time>2026-04-19T17:30:02Z</time></trkpt><trkpt lat="41.16137736935404" lon="15.52590924054526"><ele>280.0</ele><time>2026-04-19T17:30:03Z</time></trkpt><trkpt lat="41.161202389749654" lon="15.525977277340298"><ele>280.0</ele><time>2026-04-19T17:30:04Z</time></trkpt><trkpt lat="41.161023627892526" lon="15.526057733031472"><ele>280.0</ele><time>2026-04-19T17:30:05Z</time></trkpt><trkpt lat="41.16084559695599" lon="15.526139761722119"><ele>280.0</ele><time>2026-04-19T17:30:06Z</time></trkpt><trkpt lat="41.160667875516914" lon="15.526230009082953"><ele>280.0</ele><time>2026-04-19T17:30:07Z</time></trkpt><trkpt lat="41.16049633160942" lon="15.526321205015316"><ele>280.0</ele><time>2026-04-19T17:30:08Z</time></trkpt><trkpt lat="41.16032314094241" lon="15.526415665587308"><ele>280.0</ele><time>2026-04-19T17:30:09Z</time></trkpt><trkpt lat="41.16015034310347" lon="15.526508003280476"><ele>280.0</ele><time>2026-04-19T17:30:10Z</time></trkpt><trkpt lat="41.15997639495713" lon="15.52660134130855"><ele>282.3333333333333</ele><time>2026-04-19T17:30:11Z</time></trkpt><trkpt lat="41.15980216906761" lon="15.5266913277492"><ele>284.6666666666667</ele><time>2026-04-19T17:30:12Z</time></trkpt><trkpt lat="41.15963096915195" lon="15.52677747315647"><ele>287.0</ele><time>2026-04-19T17:30:13Z</time></trkpt><trkpt lat="41.159456425688646" lon="15.526867682217693"><ele>287.0</ele><time>2026-04-19T17:30:14Z</time></trkpt><trkpt lat="41.15928350847151" lon="15.526953973940378"><ele>287.0</ele><time>2026-04-19T17:30:15Z</time></trkpt><trkpt lat="41.15910896107937" lon="15.52703924699826"><ele>287.0</ele><time>2026-04-19T17:30:16Z</time></trkpt><trkpt lat="41.158933666833626" lon="15.527131470758789"><ele>286.33333333333337</ele><time>2026-04-19T17:30:17Z</time></trkpt><trkpt lat="41.15875988620399" lon="15.52722714743624"><ele>285.6666666666667</ele><time>2026-04-19T17:30:18Z</time></trkpt><trkpt lat="41.15858818464727" lon="15.52732003365111"><ele>285.0</ele><time>2026-04-19T17:30:19Z</time></trkpt><trkpt lat="41.158417756751895" lon="15.52741390708689"><ele>285.0</ele><time>2026-04-19T17:30:20Z</time></trkpt><trkpt lat="41.158248630162376" lon="15.527503887521284"><ele>285.0</ele><time>2026-04-19T17:30:21Z</time></trkpt><trkpt lat="41.158080872363044" lon="15.527593505494515"><ele>285.0</ele><time>2026-04-19T17:30:22Z</time></trkpt><trkpt lat="41.15790638465709" lon="15.527689914419003"><ele>286.0</ele><time>2026-04-19T17:30:23Z</time></trkpt><trkpt lat="41.15772714417572" lon="15.527783488844557"><ele>287.0</ele><time>2026-04-19T17:30:24Z</time></trkpt><trkpt lat="41.15755388065769" lon="15.527870204796002"><ele>288.0</ele><time>2026-04-19T17:30:25Z</time></trkpt><trkpt lat="41.15738560348408" lon="15.527956484527314"><ele>285.0</ele><time>2026-04-19T17:30:26Z</time></trkpt><trkpt lat="41.15721516808776" lon="15.528044687933736"><ele>282.0</ele><time>2026-04-19T17:30:27Z</time></trkpt><trkpt lat="41.15704907417707" lon="15.528131849193672"><ele>279.0</ele><time>2026-04-19T17:30:28Z</time></trkpt><trkpt lat="41.156875387450434" lon="15.528217707162215"><ele>279.0</ele><time>2026-04-19T17:30:29Z</time></trkpt><trkpt lat="41.156697774873" lon="15.528315525494364"><ele>279.0</ele><time>2026-04-19T17:30:30Z</time></trkpt><trkpt lat="41.1565167450756" lon="15.52841077029846"><ele>279.0</ele><time>2026-04-19T17:30:31Z</time></trkpt><trkpt lat="41.15634393543397" lon="15.528499357622543"><ele>279.3333333333333</ele><time>2026-04-19T17:30:32Z</time></trkpt><trkpt lat="41.15617204394625" lon="15.528584726465953"><ele>279.66666666666663</ele><time>2026-04-19T17:30:33Z</time></trkpt><trkpt lat="41.156004080309565" lon="15.528663749461767"><ele>280.0</ele><time>2026-04-19T17:30:34Z</time></trkpt><trkpt lat="41.15583269382504" lon="15.528739500449353"><ele>278.0</ele><time>2026-04-19T17:30:35Z</time></trkpt><trkpt lat="41.15565999107222" lon="15.52881376767952"><ele>276.0</ele><time>2026-04-19T17:30:36Z</time></trkpt><trkpt lat="41.15548981099709" lon="15.528882988817468"><ele>274.0</ele><time>2026-04-19T17:30:37Z</time></trkpt><trkpt lat="41.15531656913026" lon="15.52895942092878"><ele>274.0</ele><time>2026-04-19T17:30:38Z</time></trkpt><trkpt lat="41.15514351655179" lon="15.529037358415515"><ele>274.0</ele><time>2026-04-19T17:30:39Z</time></trkpt><trkpt lat="41.15497228823845" lon="15.52911376449002"><ele>274.0</ele><time>2026-04-19T17:30:40Z</time></trkpt><trkpt lat="41.154793017321424" lon="15.529199224468437"><ele>273.66666666666663</ele><time>2026-04-19T17:30:41Z</time></trkpt><trkpt lat="41.15461747611498" lon="15.529265086176549"><ele>273.3333333333333</ele><time>2026-04-19T17:30:42Z</time></trkpt><trkpt lat="41.154445408300504" lon="15.529327905790888"><ele>273.0</ele><time>2026-04-19T17:30:43Z</time></trkpt><trkpt lat="41.15427238690601" lon="15.529394121888766"><ele>273.0</ele><time>2026-04-19T17:30:44Z</time></trkpt><trkpt lat="41.154097233860135" lon="15.529464555267626"><ele>273.0</ele><time>2026-04-19T17:30:45Z</time></trkpt><trkpt lat="41.1539267995926" lon="15.529537933808665"><ele>273.0</ele><time>2026-04-19T17:30:46Z</time></trkpt><trkpt lat="41.15375302236676" lon="15.529620938798887"><ele>272.6666666666667</ele><time>2026-04-19T17:30:47Z</time></trkpt><trkpt lat="41.153589817975046" lon="15.529714394224134"><ele>272.33333333333337</ele><time>2026-04-19T17:30:48Z</time></trkpt><trkpt lat="41.15341685960122" lon="15.529802233280265"><ele>272.0</ele><time>2026-04-19T17:30:49Z</time></trkpt><trkpt lat="41.15323373342889" lon="15.529868875033173"><ele>272.0</ele><time>2026-04-19T17:30:50Z</time></trkpt><trkpt lat="41.15305439162219" lon="15.529943978752659"><ele>272.0</ele><time>2026-04-19T17:30:51Z</time></trkpt><trkpt lat="41.152885894918995" lon="15.530020336428455"><ele>272.0</ele><time>2026-04-19T17:30:52Z</time></trkpt><trkpt lat="41.152710387548154" lon="15.530094561107008"><ele>272.0</ele><time>2026-04-19T17:30:53Z</time></trkpt><trkpt lat="41.15253683219149" lon="15.530175022439986"><ele>272.0</ele><time>2026-04-19T17:30:54Z</time></trkpt><trkpt lat="41.15236198802043" lon="15.530256358854915"><ele>272.0</ele><time>2026-04-19T17:30:55Z</time></trkpt><trkpt lat="41.152191734753956" lon="15.530335778176516"><ele>272.6666666666667</ele><time>2026-04-19T17:30:56Z</time></trkpt><trkpt lat="41.152020289739745" lon="15.530414398695232"><ele>273.3333333333333</ele><time>2026-04-19T17:30:57Z</time></trkpt><trkpt lat="41.15184877341099" lon="15.53049431818869"><ele>274.0</ele><time>2026-04-19T17:30:58Z</time></trkpt><trkpt lat="41.15167180314528" lon="15.530574695185107"><ele>274.66666666666663</ele><time>2026-04-19T17:30:59Z</time></trkpt><trkpt lat="41.151504454485654" lon="15.530654253754793"><ele>275.3333333333333</ele><time>2026-04-19T17:31:00Z</time></trkpt><trkpt lat="41.151332827275965" lon="15.530730651942626"><ele>276.0</ele><time>2026-04-19T17:31:01Z</time></trkpt><trkpt lat="41.15117133985873" lon="15.530806037045854"><ele>276.0</ele><time>2026-04-19T17:31:02Z</time></trkpt><trkpt lat="41.151013533486534" lon="15.530874789779798"><ele>276.0</ele><time>2026-04-19T17:31:03Z</time></trkpt><trkpt lat="41.150856904639916" lon="15.530942270329348"><ele>276.0</ele><time>2026-04-19T17:31:04Z</time></trkpt><trkpt lat="41.150700334459934" lon="15.53101140397446"><ele>276.3333333333333</ele><time>2026-04-19T17:31:05Z</time></trkpt><trkpt lat="41.150536210406514" lon="15.531080956508697"><ele>276.66666666666663</ele><time>2026-04-19T17:31:06Z</time></trkpt><trkpt lat="41.15038067502325" lon="15.531147572099533"><ele>277.0</ele><time>2026-04-19T17:31:07Z</time></trkpt><trkpt lat="41.15021568330741" lon="15.531217844781878"><ele>277.0</ele><time>2026-04-19T17:31:08Z</time></trkpt><trkpt lat="41.15004993298085" lon="15.531287186519197"><ele>277.0</ele><time>2026-04-19T17:31:09Z</time></trkpt><trkpt lat="41.14987903440947" lon="15.531358182323787"><ele>277.0</ele><time>2026-04-19T17:31:10Z</time></trkpt><trkpt lat="41.14971354016813" lon="15.531434624036406"><ele>277.0</ele><time>2026-04-19T17:31:11Z</time></trkpt><trkpt lat="41.14954591787666" lon="15.531512436554701"><ele>277.0</ele><time>2026-04-19T17:31:12Z</time></trkpt><trkpt lat="41.14937677223189" lon="15.531586051661186"><ele>277.0</ele><time>2026-04-19T17:31:13Z</time></trkpt><trkpt lat="41.14921064551199" lon="15.531656098879639"><ele>276.66666666666663</ele><time>2026-04-19T17:31:14Z</time></trkpt><trkpt lat="41.1490418853259" lon="15.531728058186443"><ele>276.3333333333333</ele><time>2026-04-19T17:31:15Z</time></trkpt><trkpt lat="41.14887117804042" lon="15.531802928635283"><ele>276.0</ele><time>2026-04-19T17:31:16Z</time></trkpt><trkpt lat="41.14870534443602" lon="15.531875096900636"><ele>276.0</ele><time>2026-04-19T17:31:17Z</time></trkpt><trkpt lat="41.14852715044808" lon="15.531950319913433"><ele>276.0</ele><time>2026-04-19T17:31:18Z</time></trkpt><trkpt lat="41.14835392238884" lon="15.532027467551723"><ele>276.0</ele><time>2026-04-19T17:31:19Z</time></trkpt><trkpt lat="41.148175232157115" lon="15.532110864858138"><ele>274.6666666666667</ele><time>2026-04-19T17:31:20Z</time></trkpt><trkpt lat="41.14800115081703" lon="15.532192910324612"><ele>273.33333333333337</ele><time>2026-04-19T17:31:21Z</time></trkpt><trkpt lat="41.147817080870105" lon="15.53227657844505"><ele>272.0</ele><time>2026-04-19T17:31:22Z</time></trkpt><trkpt lat="41.14763736141128" lon="15.532354042988313"><ele>272.0</ele><time>2026-04-19T17:31:23Z</time></trkpt><trkpt lat="41.14746287153894" lon="15.532425658676749"><ele>272.0</ele><time>2026-04-19T17:31:24Z</time></trkpt><trkpt lat="41.14728745414276" lon="15.532504394629719"><ele>272.0</ele><time>2026-04-19T17:31:25Z</time></trkpt><trkpt lat="41.14710798821911" lon="15.532583528813701"><ele>272.33333333333337</ele><time>2026-04-19T17:31:26Z</time></trkpt><trkpt lat="41.14693759577035" lon="15.532662089240148"><ele>272.6666666666667</ele><time>2026-04-19T17:31:27Z</time></trkpt><trkpt lat="41.14676150783284" lon="15.532744132482945"><ele>273.0</ele><time>2026-04-19T17:31:28Z</time></trkpt><trkpt lat="41.146590662239156" lon="15.532827424328781"><ele>272.6666666666667</ele><time>2026-04-19T17:31:29Z</time></trkpt><trkpt lat="41.14642134939059" lon="15.532920433830093"><ele>272.33333333333337</ele><time>2026-04-19T17:31:30Z</time></trkpt><trkpt lat="41.1462598031467" lon="15.53301571885691"><ele>272.0</ele><time>2026-04-19T17:31:31Z</time></trkpt><trkpt lat="41.14609363061241" lon="15.533115122160092"><ele>272.0</ele><time>2026-04-19T17:31:32Z</time></trkpt><trkpt lat="41.145928351051545" lon="15.533212629479488"><ele>272.0</ele><time>2026-04-19T17:31:33Z</time></trkpt><trkpt lat="41.14576197085095" lon="15.533302260818319"><ele>272.0</ele><time>2026-04-19T17:31:34Z</time></trkpt><trkpt lat="41.145591153751916" lon="15.53339282100925"><ele>272.33333333333337</ele><time>2026-04-19T17:31:35Z</time></trkpt><trkpt lat="41.145413942179275" lon="15.533475927712036"><ele>272.6666666666667</ele><time>2026-04-19T17:31:36Z</time></trkpt><trkpt lat="41.14523492982242" lon="15.533550420151066"><ele>273.0</ele><time>2026-04-19T17:31:37Z</time></trkpt><trkpt lat="41.14505253798028" lon="15.533625525902158"><ele>272.3333333333333</ele><time>2026-04-19T17:31:38Z</time></trkpt><trkpt lat="41.14487179593501" lon="15.533704412508792"><ele>271.66666666666663</ele><time>2026-04-19T17:31:39Z</time></trkpt><trkpt lat="41.14468957337292" lon="15.53378791301296"><ele>271.0</ele><time>2026-04-19T17:31:40Z</time></trkpt><trkpt lat="41.144509522896264" lon="15.533870228365961"><ele>271.0</ele><time>2026-04-19T17:31:41Z</time></trkpt><trkpt lat="41.14432657811765" lon="15.533954241593692"><ele>271.0</ele><time>2026-04-19T17:31:42Z</time></trkpt><trkpt lat="41.144151995127714" lon="15.534027487070814"><ele>271.0</ele><time>2026-04-19T17:31:43Z</time></trkpt><trkpt lat="41.14397581854118" lon="15.534104248603402"><ele>271.3333333333333</ele><time>2026-04-19T17:31:44Z</time></trkpt><trkpt lat="41.14380831834641" lon="15.534174353001168"><ele>271.6666666666667</ele><time>2026-04-19T17:31:45Z</time></trkpt><trkpt lat="41.14362999559156" lon="15.534254817727046"><ele>272.0</ele><time>2026-04-19T17:31:46Z</time></trkpt><trkpt lat="41.1434602191432" lon="15.534337533934774"><ele>272.0</ele><time>2026-04-19T17:31:47Z</time></trkpt><trkpt lat="41.14328612996574" lon="15.534427822046213"><ele>272.0</ele><time>2026-04-19T17:31:48Z</time></trkpt><trkpt lat="41.143116349913875" lon="15.534529349690647"><ele>272.0</ele><time>2026-04-19T17:31:49Z</time></trkpt><trkpt lat="41.14294652212805" lon="15.534636851423723"><ele>271.33333333333337</ele><time>2026-04-19T17:31:50Z</time></trkpt><trkpt lat="41.14277392662297" lon="15.534760419265448"><ele>270.6666666666667</ele><time>2026-04-19T17:31:51Z</time></trkpt><trkpt lat="41.14260727984691" lon="15.534888040217567"><ele>270.0</ele><time>2026-04-19T17:31:52Z</time></trkpt><trkpt lat="41.14244978473351" lon="15.535023908835813"><ele>270.0</ele><time>2026-04-19T17:31:53Z</time></trkpt><trkpt lat="41.142289113842764" lon="15.535178843919109"><ele>270.0</ele><time>2026-04-19T17:31:54Z</time></trkpt><trkpt lat="41.142137943244386" lon="15.535342336569917"><ele>270.0</ele><time>2026-04-19T17:31:55Z</time></trkpt><trkpt lat="41.141992784828865" lon="15.535514301027765"><ele>270.0</ele><time>2026-04-19T17:31:56Z</time></trkpt><trkpt lat="41.14183984524949" lon="15.535677906463711"><ele>270.0</ele><time>2026-04-19T17:31:57Z</time></trkpt><trkpt lat="41.141719779486586" lon="15.535874541468035"><ele>270.0</ele><time>2026-04-19T17:31:58Z</time></trkpt><trkpt lat="41.14159845255826" lon="15.536056062609454"><ele>270.0</ele><time>2026-04-19T17:31:59Z</time></trkpt><trkpt lat="41.14148396490312" lon="15.536241803604156"><ele>270.0</ele><time>2026-04-19T17:32:00Z</time></trkpt><trkpt lat="41.141371169533414" lon="15.536438590020659"><ele>270.0</ele><time>2026-04-19T17:32:01Z</time></trkpt><trkpt lat="41.14126318096639" lon="15.536645959365789"><ele>270.0</ele><time>2026-04-19T17:32:02Z</time></trkpt><trkpt lat="41.141162230229135" lon="15.536858907447625"><ele>270.0</ele><time>2026-04-19T17:32:03Z</time></trkpt><trkpt lat="41.141069003358055" lon="15.537076993215058"><ele>270.0</ele><time>2026-04-19T17:32:04Z</time></trkpt><trkpt lat="41.14098545632479" lon="15.53730114876098"><ele>269.3333333333333</ele><time>2026-04-19T17:32:05Z</time></trkpt><trkpt lat="41.14090470831976" lon="15.537531238400117"><ele>268.66666666666663</ele><time>2026-04-19T17:32:06Z</time></trkpt><trkpt lat="41.140831587056844" lon="15.537761766896015"><ele>268.0</ele><time>2026-04-19T17:32:07Z</time></trkpt><trkpt lat="41.14076280495217" lon="15.537997045590208"><ele>267.3333333333333</ele><time>2026-04-19T17:32:08Z</time></trkpt><trkpt lat="41.14067915407612" lon="15.538234555769003"><ele>266.6666666666667</ele><time>2026-04-19T17:32:09Z</time></trkpt><trkpt lat="41.14060888535275" lon="15.53847824053252"><ele>266.0</ele><time>2026-04-19T17:32:10Z</time></trkpt><trkpt lat="41.14053400998893" lon="15.53872478215342"><ele>265.33333333333337</ele><time>2026-04-19T17:32:11Z</time></trkpt><trkpt lat="41.140451362567575" lon="15.538970444866552"><ele>264.6666666666667</ele><time>2026-04-19T17:32:12Z</time></trkpt><trkpt lat="41.1403635074355" lon="15.539215999523815"><ele>264.0</ele><time>2026-04-19T17:32:13Z</time></trkpt><trkpt lat="41.14027167042678" lon="15.53945390776428"><ele>263.0</ele><time>2026-04-19T17:32:14Z</time></trkpt><trkpt lat="41.14017134158597" lon="15.53967499349283"><ele>262.0</ele><time>2026-04-19T17:32:15Z</time></trkpt><trkpt lat="41.140058624118396" lon="15.539904215605675"><ele>261.0</ele><time>2026-04-19T17:32:16Z</time></trkpt><trkpt lat="41.13994170371652" lon="15.540113109133383"><ele>260.6666666666667</ele><time>2026-04-19T17:32:17Z</time></trkpt><trkpt lat="41.13981498577265" lon="15.540325807585269"><ele>260.33333333333337</ele><time>2026-04-19T17:32:18Z</time></trkpt><trkpt lat="41.13968310947726" lon="15.540526568967923"><ele>260.0</ele><time>2026-04-19T17:32:19Z</time></trkpt><trkpt lat="41.139545297375015" lon="15.540720499211604"><ele>259.6666666666667</ele><time>2026-04-19T17:32:20Z</time></trkpt><trkpt lat="41.13940285064969" lon="15.540899254579545"><ele>259.3333333333333</ele><time>2026-04-19T17:32:21Z</time></trkpt><trkpt lat="41.13925739190925" lon="15.541071557343447"><ele>259.0</ele><time>2026-04-19T17:32:22Z</time></trkpt><trkpt lat="41.13910074073303" lon="15.541247728819869"><ele>259.3333333333333</ele><time>2026-04-19T17:32:23Z</time></trkpt><trkpt lat="41.138951332897065" lon="15.541414936657173"><ele>259.6666666666667</ele><time>2026-04-19T17:32:24Z</time></trkpt><trkpt lat="41.1388018581182" lon="15.541582219450655"><ele>260.0</ele><time>2026-04-19T17:32:25Z</time></trkpt><trkpt lat="41.13865953783227" lon="15.541740256285514"><ele>260.0</ele><time>2026-04-19T17:32:26Z</time></trkpt><trkpt lat="41.13851150068066" lon="15.541903395081516"><ele>260.0</ele><time>2026-04-19T17:32:27Z</time></trkpt><trkpt lat="41.138371888228875" lon="15.542057249769897"><ele>260.0</ele><time>2026-04-19T17:32:28Z</time></trkpt><trkpt lat="41.1382307418512" lon="15.542219635755442"><ele>259.0</ele><time>2026-04-19T17:32:29Z</time></trkpt><trkpt lat="41.13810147435035" lon="15.542396929637988"><ele>258.0</ele><time>2026-04-19T17:32:30Z</time></trkpt><trkpt lat="41.13795903672266" lon="15.54256290533532"><ele>257.0</ele><time>2026-04-19T17:32:31Z</time></trkpt><trkpt lat="41.13781556582612" lon="15.54273162312779"><ele>256.33333333333337</ele><time>2026-04-19T17:32:32Z</time></trkpt><trkpt lat="41.13767013102946" lon="15.542906011316337"><ele>255.66666666666669</ele><time>2026-04-19T17:32:33Z</time></trkpt><trkpt lat="41.13752802373564" lon="15.543077090982452"><ele>255.0</ele><time>2026-04-19T17:32:34Z</time></trkpt><trkpt lat="41.13738425699295" lon="15.543252033435978"><ele>255.0</ele><time>2026-04-19T17:32:35Z</time></trkpt><trkpt lat="41.13724491164363" lon="15.543422608293033"><ele>255.0</ele><time>2026-04-19T17:32:36Z</time></trkpt><trkpt lat="41.13710319016673" lon="15.54359734640564"><ele>255.0</ele><time>2026-04-19T17:32:37Z</time></trkpt><trkpt lat="41.13697365028202" lon="15.543767533077565"><ele>255.0</ele><time>2026-04-19T17:32:38Z</time></trkpt><trkpt lat="41.13683903966397" lon="15.543939505090927"><ele>255.0</ele><time>2026-04-19T17:32:39Z</time></trkpt><trkpt lat="41.13670801458543" lon="15.544117283418064"><ele>255.0</ele><time>2026-04-19T17:32:40Z</time></trkpt><trkpt lat="41.13657938692929" lon="15.544290748207088"><ele>254.33333333333331</ele><time>2026-04-19T17:32:41Z</time></trkpt><trkpt lat="41.13645171651113" lon="15.544469013136034"><ele>253.66666666666666</ele><time>2026-04-19T17:32:42Z</time></trkpt><trkpt lat="41.13632016419432" lon="15.544654549012836"><ele>253.0</ele><time>2026-04-19T17:32:43Z</time></trkpt><trkpt lat="41.13618977424537" lon="15.544829481139253"><ele>253.0</ele><time>2026-04-19T17:32:44Z</time></trkpt><trkpt lat="41.136057565602755" lon="15.545017579948468"><ele>253.0</ele><time>2026-04-19T17:32:45Z</time></trkpt><trkpt lat="41.13592668481656" lon="15.545202123736086"><ele>253.0</ele><time>2026-04-19T17:32:46Z</time></trkpt><trkpt lat="41.13580005261878" lon="15.545386238675139"><ele>252.66666666666666</ele><time>2026-04-19T17:32:47Z</time></trkpt><trkpt lat="41.135674787644916" lon="15.545573311285947"><ele>252.33333333333331</ele><time>2026-04-19T17:32:48Z</time></trkpt><trkpt lat="41.135549699253254" lon="15.545760118985338"><ele>252.0</ele><time>2026-04-19T17:32:49Z</time></trkpt><trkpt lat="41.13543119751419" lon="15.545928445894202"><ele>252.0</ele><time>2026-04-19T17:32:50Z</time></trkpt><trkpt lat="41.13530827741705" lon="15.546119485243526"><ele>252.0</ele><time>2026-04-19T17:32:51Z</time></trkpt><trkpt lat="41.135189489242364" lon="15.546302816993796"><ele>252.0</ele><time>2026-04-19T17:32:52Z</time></trkpt><trkpt lat="41.135069560549425" lon="15.546489705411709"><ele>251.66666666666669</ele><time>2026-04-19T17:32:53Z</time></trkpt><trkpt lat="41.134952522942676" lon="15.546676193629715"><ele>251.33333333333334</ele><time>2026-04-19T17:32:54Z</time></trkpt><trkpt lat="41.134837953015584" lon="15.546865347691856"><ele>251.0</ele><time>2026-04-19T17:32:55Z</time></trkpt><trkpt lat="41.13472429069199" lon="15.547058494751246"><ele>251.0</ele><time>2026-04-19T17:32:56Z</time></trkpt><trkpt lat="41.1346099602395" lon="15.54725249640985"><ele>251.0</ele><time>2026-04-19T17:32:57Z</time></trkpt><trkpt lat="41.134495619481" lon="15.547445359549677"><ele>251.0</ele><time>2026-04-19T17:32:58Z</time></trkpt><trkpt lat="41.13438092752253" lon="15.547647511182026"><ele>251.0</ele><time>2026-04-19T17:32:59Z</time></trkpt><trkpt lat="41.13426829880102" lon="15.547845999656099"><ele>251.0</ele><time>2026-04-19T17:33:00Z</time></trkpt><trkpt lat="41.134156656669" lon="15.548048713075344"><ele>251.0</ele><time>2026-04-19T17:33:01Z</time></trkpt><trkpt lat="41.134041233630576" lon="15.548251573245494"><ele>251.33333333333334</ele><time>2026-04-19T17:33:02Z</time></trkpt><trkpt lat="41.133929899706196" lon="15.54845238431678"><ele>251.66666666666669</ele><time>2026-04-19T17:33:03Z</time></trkpt><trkpt lat="41.133816160418256" lon="15.548654117865693"><ele>252.0</ele><time>2026-04-19T17:33:04Z</time></trkpt><trkpt lat="41.13370178786412" lon="15.54885906273206"><ele>252.0</ele><time>2026-04-19T17:33:05Z</time></trkpt><trkpt lat="41.13358651823427" lon="15.549057551771197"><ele>252.0</ele><time>2026-04-19T17:33:06Z</time></trkpt><trkpt lat="41.1334710726015" lon="15.549255433803225"><ele>252.0</ele><time>2026-04-19T17:33:07Z</time></trkpt><trkpt lat="41.133356055610086" lon="15.54945949993955"><ele>251.66666666666669</ele><time>2026-04-19T17:33:08Z</time></trkpt><trkpt lat="41.13323863434671" lon="15.549666810371516"><ele>251.33333333333334</ele><time>2026-04-19T17:33:09Z</time></trkpt><trkpt lat="41.133123809047014" lon="15.549865117664812"><ele>251.0</ele><time>2026-04-19T17:33:10Z</time></trkpt><trkpt lat="41.133009248519464" lon="15.550068942246421"><ele>251.0</ele><time>2026-04-19T17:33:11Z</time></trkpt><trkpt lat="41.13289419487873" lon="15.550272189223268"><ele>251.0</ele><time>2026-04-19T17:33:12Z</time></trkpt><trkpt lat="41.13278121487008" lon="15.550479334005697"><ele>251.0</ele><time>2026-04-19T17:33:13Z</time></trkpt><trkpt lat="41.13266995695161" lon="15.550668086671687"><ele>250.66666666666669</ele><time>2026-04-19T17:33:14Z</time></trkpt><trkpt lat="41.132556235501596" lon="15.55087165480843"><ele>250.33333333333331</ele><time>2026-04-19T17:33:15Z</time></trkpt><trkpt lat="41.13242709150048" lon="15.551069181396333"><ele>250.0</ele><time>2026-04-19T17:33:16Z</time></trkpt><trkpt lat="41.13230785650154" lon="15.551280722358738"><ele>250.0</ele><time>2026-04-19T17:33:17Z</time></trkpt><trkpt lat="41.13218593138382" lon="15.551497036817864"><ele>250.0</ele><time>2026-04-19T17:33:18Z</time></trkpt><trkpt lat="41.13206553864646" lon="15.551710632438253"><ele>250.0</ele><time>2026-04-19T17:33:19Z</time></trkpt><trkpt lat="41.13194439892495" lon="15.551922600372647"><ele>249.0</ele><time>2026-04-19T17:33:20Z</time></trkpt><trkpt lat="41.131824317479094" lon="15.552130928797714"><ele>248.0</ele><time>2026-04-19T17:33:21Z</time></trkpt><trkpt lat="41.13170971135146" lon="15.552329758129375"><ele>247.0</ele><time>2026-04-19T17:33:22Z</time></trkpt><trkpt lat="41.13159824845016" lon="15.552524888958771"><ele>247.0</ele><time>2026-04-19T17:33:23Z</time></trkpt><trkpt lat="41.13150071152182" lon="15.552727028386855"><ele>247.0</ele><time>2026-04-19T17:33:24Z</time></trkpt><trkpt lat="41.131391179936024" lon="15.552909948423848"><ele>247.0</ele><time>2026-04-19T17:33:25Z</time></trkpt><trkpt lat="41.131282773397835" lon="15.553102485770017"><ele>246.66666666666666</ele><time>2026-04-19T17:33:26Z</time></trkpt><trkpt lat="41.131175428692096" lon="15.553286472914682"><ele>246.33333333333331</ele><time>2026-04-19T17:33:27Z</time></trkpt><trkpt lat="41.131063164506955" lon="15.553489585962643"><ele>246.0</ele><time>2026-04-19T17:33:28Z</time></trkpt><trkpt lat="41.13095036583755" lon="15.55369300237624"><ele>246.0</ele><time>2026-04-19T17:33:29Z</time></trkpt><trkpt lat="41.13082371869335" lon="15.553883374445915"><ele>246.0</ele><time>2026-04-19T17:33:30Z</time></trkpt><trkpt lat="41.13070589861429" lon="15.554090024793188"><ele>246.0</ele><time>2026-04-19T17:33:31Z</time></trkpt><trkpt lat="41.130589079587416" lon="15.55429491934883"><ele>246.33333333333331</ele><time>2026-04-19T17:33:32Z</time></trkpt><trkpt lat="41.13047821819546" lon="15.554489364475836"><ele>246.66666666666666</ele><time>2026-04-19T17:33:33Z</time></trkpt><trkpt lat="41.13035994265671" lon="15.55469681374136"><ele>247.0</ele><time>2026-04-19T17:33:34Z</time></trkpt><trkpt lat="41.13024418753489" lon="15.554899842427675"><ele>247.0</ele><time>2026-04-19T17:33:35Z</time></trkpt><trkpt lat="41.13012438125463" lon="15.555109976460045"><ele>247.0</ele><time>2026-04-19T17:33:36Z</time></trkpt><trkpt lat="41.13000923823033" lon="15.555311795446595"><ele>247.0</ele><time>2026-04-19T17:33:37Z</time></trkpt><trkpt lat="41.12989465805258" lon="15.555512593757184"><ele>246.33333333333331</ele><time>2026-04-19T17:33:38Z</time></trkpt><trkpt lat="41.12977474726339" lon="15.555722733777971"><ele>245.66666666666669</ele><time>2026-04-19T17:33:39Z</time></trkpt><trkpt lat="41.12965868711841" lon="15.555926125616386"><ele>245.0</ele><time>2026-04-19T17:33:40Z</time></trkpt><trkpt lat="41.12953921117327" lon="15.55613587470077"><ele>244.33333333333334</ele><time>2026-04-19T17:33:41Z</time></trkpt><trkpt lat="41.12941543742408" lon="15.556354586585075"><ele>243.66666666666669</ele><time>2026-04-19T17:33:42Z</time></trkpt><trkpt lat="41.12929776950363" lon="15.556562482128644"><ele>243.0</ele><time>2026-04-19T17:33:43Z</time></trkpt><trkpt lat="41.129189695099555" lon="15.55678704056136"><ele>243.0</ele><time>2026-04-19T17:33:44Z</time></trkpt><trkpt lat="41.12907603303892" lon="15.556985518421332"><ele>243.0</ele><time>2026-04-19T17:33:45Z</time></trkpt><trkpt lat="41.12895731699515" lon="15.5571923480766"><ele>243.0</ele><time>2026-04-19T17:33:46Z</time></trkpt><trkpt lat="41.12884039342149" lon="15.557398105297152"><ele>243.0</ele><time>2026-04-19T17:33:47Z</time></trkpt><trkpt lat="41.12872536394977" lon="15.557598509381561"><ele>243.0</ele><time>2026-04-19T17:33:48Z</time></trkpt><trkpt lat="41.12859828328437" lon="15.557788478817793"><ele>243.0</ele><time>2026-04-19T17:33:49Z</time></trkpt><trkpt lat="41.12848163184276" lon="15.557993765692038"><ele>243.0</ele><time>2026-04-19T17:33:50Z</time></trkpt><trkpt lat="41.12836638030912" lon="15.558196589341389"><ele>243.0</ele><time>2026-04-19T17:33:51Z</time></trkpt><trkpt lat="41.12826009087654" lon="15.558419222791272"><ele>243.0</ele><time>2026-04-19T17:33:52Z</time></trkpt><trkpt lat="41.128140821660615" lon="15.558624640168965"><ele>243.33333333333331</ele><time>2026-04-19T17:33:53Z</time></trkpt><trkpt lat="41.12801889558361" lon="15.55883650519225"><ele>243.66666666666666</ele><time>2026-04-19T17:33:54Z</time></trkpt><trkpt lat="41.12789901987299" lon="15.55904609761791"><ele>244.0</ele><time>2026-04-19T17:33:55Z</time></trkpt><trkpt lat="41.127780450369606" lon="15.559253797340727"><ele>244.0</ele><time>2026-04-19T17:33:56Z</time></trkpt><trkpt lat="41.12766936122254" lon="15.559446960382369"><ele>244.0</ele><time>2026-04-19T17:33:57Z</time></trkpt><trkpt lat="41.12756326517348" lon="15.559633428764426"><ele>244.0</ele><time>2026-04-19T17:33:58Z</time></trkpt><trkpt lat="41.127459558990296" lon="15.559813566006039"><ele>243.66666666666666</ele><time>2026-04-19T17:33:59Z</time></trkpt><trkpt lat="41.127352759019075" lon="15.56000005956544"><ele>243.33333333333331</ele><time>2026-04-19T17:34:00Z</time></trkpt><trkpt lat="41.12724307875939" lon="15.560189744883942"><ele>243.0</ele><time>2026-04-19T17:34:01Z</time></trkpt><trkpt lat="41.12713299464399" lon="15.560381596470066"><ele>242.66666666666669</ele><time>2026-04-19T17:34:02Z</time></trkpt><trkpt lat="41.12701857154848" lon="15.56058111810501"><ele>242.33333333333334</ele><time>2026-04-19T17:34:03Z</time></trkpt><trkpt lat="41.12690301931767" lon="15.56078002507727"><ele>242.0</ele><time>2026-04-19T17:34:04Z</time></trkpt><trkpt lat="41.12678646873933" lon="15.560981516332532"><ele>242.0</ele><time>2026-04-19T17:34:05Z</time></trkpt><trkpt lat="41.12666882867101" lon="15.561188114348573"><ele>242.0</ele><time>2026-04-19T17:34:06Z</time></trkpt><trkpt lat="41.126552111733076" lon="15.561396738125536"><ele>242.0</ele><time>2026-04-19T17:34:07Z</time></trkpt><trkpt lat="41.12643420091975" lon="15.56160538968891"><ele>242.66666666666669</ele><time>2026-04-19T17:34:08Z</time></trkpt><trkpt lat="41.12631588067797" lon="15.56181704270606"><ele>243.33333333333331</ele><time>2026-04-19T17:34:09Z</time></trkpt><trkpt lat="41.12619806830654" lon="15.562018116166584"><ele>244.0</ele><time>2026-04-19T17:34:10Z</time></trkpt><trkpt lat="41.12608081922135" lon="15.562218099789932"><ele>244.0</ele><time>2026-04-19T17:34:11Z</time></trkpt><trkpt lat="41.12597383702813" lon="15.562409606518724"><ele>244.0</ele><time>2026-04-19T17:34:12Z</time></trkpt><trkpt lat="41.12586365168612" lon="15.562610267066223"><ele>244.0</ele><time>2026-04-19T17:34:13Z</time></trkpt><trkpt lat="41.125754718402625" lon="15.562803948904836"><ele>244.66666666666666</ele><time>2026-04-19T17:34:14Z</time></trkpt><trkpt lat="41.125643309073745" lon="15.562998363027257"><ele>245.33333333333331</ele><time>2026-04-19T17:34:15Z</time></trkpt><trkpt lat="41.12553437354107" lon="15.563187266143434"><ele>246.0</ele><time>2026-04-19T17:34:16Z</time></trkpt><trkpt lat="41.12542312658784" lon="15.563377647605524"><ele>246.0</ele><time>2026-04-19T17:34:17Z</time></trkpt><trkpt lat="41.12531967782609" lon="15.563566452471214"><ele>246.0</ele><time>2026-04-19T17:34:18Z</time></trkpt><trkpt lat="41.125211675414064" lon="15.56376080658294"><ele>246.0</ele><time>2026-04-19T17:34:19Z</time></trkpt><trkpt lat="41.125102609987316" lon="15.56394838111069"><ele>245.66666666666669</ele><time>2026-04-19T17:34:20Z</time></trkpt><trkpt lat="41.12499283929291" lon="15.564138286874861"><ele>245.33333333333334</ele><time>2026-04-19T17:34:21Z</time></trkpt><trkpt lat="41.124879711884205" lon="15.564333096482448"><ele>245.0</ele><time>2026-04-19T17:34:22Z</time></trkpt><trkpt lat="41.124766246103164" lon="15.564529796693247"><ele>244.66666666666669</ele><time>2026-04-19T17:34:23Z</time></trkpt><trkpt lat="41.12465312149464" lon="15.564724485857527"><ele>244.33333333333331</ele><time>2026-04-19T17:34:24Z</time></trkpt><trkpt lat="41.12453606388093" lon="15.564932637977073"><ele>244.0</ele><time>2026-04-19T17:34:25Z</time></trkpt><trkpt lat="41.12442229166825" lon="15.565132695973265"><ele>244.0</ele><time>2026-04-19T17:34:26Z</time></trkpt><trkpt lat="41.124309566508494" lon="15.565339643759092"><ele>244.0</ele><time>2026-04-19T17:34:27Z</time></trkpt><trkpt lat="41.124196348461886" lon="15.56554080209275"><ele>244.0</ele><time>2026-04-19T17:34:28Z</time></trkpt><trkpt lat="41.12408288226501" lon="15.56574002165702"><ele>243.66666666666666</ele><time>2026-04-19T17:34:29Z</time></trkpt><trkpt lat="41.12397062098107" lon="15.565941298620865"><ele>243.33333333333331</ele><time>2026-04-19T17:34:30Z</time></trkpt><trkpt lat="41.123855435835495" lon="15.566144576508016"><ele>243.0</ele><time>2026-04-19T17:34:31Z</time></trkpt><trkpt lat="41.12373850639563" lon="15.566341524307338"><ele>243.0</ele><time>2026-04-19T17:34:32Z</time></trkpt><trkpt lat="41.123625017001174" lon="15.566547980422714"><ele>243.0</ele><time>2026-04-19T17:34:33Z</time></trkpt><trkpt lat="41.12350882826044" lon="15.566750806569082"><ele>243.0</ele><time>2026-04-19T17:34:34Z</time></trkpt><trkpt lat="41.12339217250275" lon="15.56695358911054"><ele>242.66666666666669</ele><time>2026-04-19T17:34:35Z</time></trkpt><trkpt lat="41.123277882313545" lon="15.567156936210793"><ele>242.33333333333334</ele><time>2026-04-19T17:34:36Z</time></trkpt><trkpt lat="41.123164187260464" lon="15.567353135297278"><ele>242.0</ele><time>2026-04-19T17:34:37Z</time></trkpt><trkpt lat="41.123048677198156" lon="15.567554043495964"><ele>242.0</ele><time>2026-04-19T17:34:38Z</time></trkpt><trkpt lat="41.12293046971614" lon="15.567753331248037"><ele>242.0</ele><time>2026-04-19T17:34:39Z</time></trkpt><trkpt lat="41.12281769093819" lon="15.567944067522017"><ele>242.0</ele><time>2026-04-19T17:34:40Z</time></trkpt><trkpt lat="41.12270372064074" lon="15.5681462964258"><ele>241.66666666666669</ele><time>2026-04-19T17:34:41Z</time></trkpt><trkpt lat="41.12259371487282" lon="15.56834675260588"><ele>241.33333333333331</ele><time>2026-04-19T17:34:42Z</time></trkpt><trkpt lat="41.12248155147532" lon="15.56855116014896"><ele>241.0</ele><time>2026-04-19T17:34:43Z</time></trkpt><trkpt lat="41.12236923222611" lon="15.56875132603984"><ele>240.66666666666666</ele><time>2026-04-19T17:34:44Z</time></trkpt><trkpt lat="41.12225712971765" lon="15.568945562286945"><ele>240.33333333333331</ele><time>2026-04-19T17:34:45Z</time></trkpt><trkpt lat="41.12214412949084" lon="15.569148201794043"><ele>240.0</ele><time>2026-04-19T17:34:46Z</time></trkpt><trkpt lat="41.12203287288941" lon="15.56934526129475"><ele>239.33333333333331</ele><time>2026-04-19T17:34:47Z</time></trkpt><trkpt lat="41.12192215109443" lon="15.569540114417107"><ele>238.66666666666666</ele><time>2026-04-19T17:34:48Z</time></trkpt><trkpt lat="41.12179606809656" lon="15.569725436004493"><ele>238.0</ele><time>2026-04-19T17:34:49Z</time></trkpt><trkpt lat="41.121682638837676" lon="15.569925025791187"><ele>238.0</ele><time>2026-04-19T17:34:50Z</time></trkpt><trkpt lat="41.121569164601816" lon="15.570124694446301"><ele>238.0</ele><time>2026-04-19T17:34:51Z</time></trkpt><trkpt lat="41.12146828880709" lon="15.57033650476164"><ele>238.0</ele><time>2026-04-19T17:34:52Z</time></trkpt><trkpt lat="41.121354934353796" lon="15.570536185666883"><ele>238.33333333333331</ele><time>2026-04-19T17:34:53Z</time></trkpt><trkpt lat="41.1212246261331" lon="15.570730942448867"><ele>238.66666666666669</ele><time>2026-04-19T17:34:54Z</time></trkpt><trkpt lat="41.12110619582048" lon="15.57093933175943"><ele>239.0</ele><time>2026-04-19T17:34:55Z</time></trkpt><trkpt lat="41.120986620090164" lon="15.57114973673662"><ele>239.0</ele><time>2026-04-19T17:34:56Z</time></trkpt><trkpt lat="41.12088539372062" lon="15.571361532235409"><ele>239.0</ele><time>2026-04-19T17:34:57Z</time></trkpt><trkpt lat="41.12076791421481" lon="15.571567328544663"><ele>239.0</ele><time>2026-04-19T17:34:58Z</time></trkpt><trkpt lat="41.12065202101231" lon="15.571768378830546"><ele>239.0</ele><time>2026-04-19T17:34:59Z</time></trkpt><trkpt lat="41.12053523943936" lon="15.571973404145282"><ele>239.0</ele><time>2026-04-19T17:35:00Z</time></trkpt><trkpt lat="41.120417223153275" lon="15.572180626788358"><ele>239.0</ele><time>2026-04-19T17:35:01Z</time></trkpt><trkpt lat="41.12030324197248" lon="15.572380733755585"><ele>238.33333333333334</ele><time>2026-04-19T17:35:02Z</time></trkpt><trkpt lat="41.12019206220556" lon="15.572575559011272"><ele>237.66666666666669</ele><time>2026-04-19T17:35:03Z</time></trkpt><trkpt lat="41.12008125924181" lon="15.572767644329328"><ele>237.0</ele><time>2026-04-19T17:35:04Z</time></trkpt><trkpt lat="41.11997110813013" lon="15.572962789481068"><ele>237.66666666666669</ele><time>2026-04-19T17:35:05Z</time></trkpt><trkpt lat="41.119866479485275" lon="15.57314666684423"><ele>238.33333333333334</ele><time>2026-04-19T17:35:06Z</time></trkpt><trkpt lat="41.11975861291852" lon="15.573338320275521"><ele>239.0</ele><time>2026-04-19T17:35:07Z</time></trkpt><trkpt lat="41.1196500711781" lon="15.573530286886989"><ele>238.66666666666669</ele><time>2026-04-19T17:35:08Z</time></trkpt><trkpt lat="41.11954178160707" lon="15.57371894621212"><ele>238.33333333333331</ele><time>2026-04-19T17:35:09Z</time></trkpt><trkpt lat="41.119430034446985" lon="15.573910410735275"><ele>238.0</ele><time>2026-04-19T17:35:10Z</time></trkpt><trkpt lat="41.11931714466493" lon="15.574103031327928"><ele>238.0</ele><time>2026-04-19T17:35:11Z</time></trkpt><trkpt lat="41.11920594170691" lon="15.574295427303516"><ele>238.0</ele><time>2026-04-19T17:35:12Z</time></trkpt><trkpt lat="41.11909572852507" lon="15.574487844620194"><ele>238.0</ele><time>2026-04-19T17:35:13Z</time></trkpt><trkpt lat="41.11898283601755" lon="15.574680991360283"><ele>238.66666666666666</ele><time>2026-04-19T17:35:14Z</time></trkpt><trkpt lat="41.118867810936194" lon="15.574881397617913"><ele>239.33333333333331</ele><time>2026-04-19T17:35:15Z</time></trkpt><trkpt lat="41.118755550365776" lon="15.575075910800527"><ele>240.0</ele><time>2026-04-19T17:35:16Z</time></trkpt><trkpt lat="41.11864082844129" lon="15.575297683553895"><ele>239.0</ele><time>2026-04-19T17:35:17Z</time></trkpt><trkpt lat="41.11851696794127" lon="15.575501243742528"><ele>238.0</ele><time>2026-04-19T17:35:18Z</time></trkpt><trkpt lat="41.11839813268048" lon="15.575709662311976"><ele>237.0</ele><time>2026-04-19T17:35:19Z</time></trkpt><trkpt lat="41.11828319235906" lon="15.575916420041347"><ele>237.0</ele><time>2026-04-19T17:35:20Z</time></trkpt><trkpt lat="41.118163195198534" lon="15.576124093747287"><ele>237.0</ele><time>2026-04-19T17:35:21Z</time></trkpt><trkpt lat="41.118045923197066" lon="15.576327283421401"><ele>237.0</ele><time>2026-04-19T17:35:22Z</time></trkpt><trkpt lat="41.11792890600293" lon="15.57652780453941"><ele>237.0</ele><time>2026-04-19T17:35:23Z</time></trkpt><trkpt lat="41.11780607922467" lon="15.576731015188994"><ele>237.0</ele><time>2026-04-19T17:35:24Z</time></trkpt><trkpt lat="41.11768666670129" lon="15.576928371762502"><ele>237.0</ele><time>2026-04-19T17:35:25Z</time></trkpt><trkpt lat="41.117566878310285" lon="15.577121354495297"><ele>236.33333333333331</ele><time>2026-04-19T17:35:26Z</time></trkpt><trkpt lat="41.11742851030715" lon="15.577298425376886"><ele>235.66666666666666</ele><time>2026-04-19T17:35:27Z</time></trkpt><trkpt lat="41.11730091371373" lon="15.577486822490215"><ele>235.0</ele><time>2026-04-19T17:35:28Z</time></trkpt><trkpt lat="41.11717124125203" lon="15.577673497199184"><ele>235.0</ele><time>2026-04-19T17:35:29Z</time></trkpt><trkpt lat="41.11704736579457" lon="15.577873143949615"><ele>235.0</ele><time>2026-04-19T17:35:30Z</time></trkpt><trkpt lat="41.11691632756421" lon="15.57805116832182"><ele>235.0</ele><time>2026-04-19T17:35:31Z</time></trkpt><trkpt lat="41.116781847984576" lon="15.578230410329345"><ele>235.0</ele><time>2026-04-19T17:35:32Z</time></trkpt><trkpt lat="41.1166335612828" lon="15.578393651677215"><ele>235.0</ele><time>2026-04-19T17:35:33Z</time></trkpt><trkpt lat="41.11649079763244" lon="15.578570385680724"><ele>235.0</ele><time>2026-04-19T17:35:34Z</time></trkpt><trkpt lat="41.1163453683934" lon="15.578744260494242"><ele>235.0</ele><time>2026-04-19T17:35:35Z</time></trkpt><trkpt lat="41.1161933043266" lon="15.578924955395768"><ele>235.0</ele><time>2026-04-19T17:35:36Z</time></trkpt><trkpt lat="41.11603928788704" lon="15.579102083909754"><ele>235.0</ele><time>2026-04-19T17:35:37Z</time></trkpt><trkpt lat="41.11588479993966" lon="15.579272420197105"><ele>235.0</ele><time>2026-04-19T17:35:38Z</time></trkpt><trkpt lat="41.11571800875335" lon="15.579455658545873"><ele>235.0</ele><time>2026-04-19T17:35:39Z</time></trkpt><trkpt lat="41.11555507331115" lon="15.579633385386176"><ele>235.0</ele><time>2026-04-19T17:35:40Z</time></trkpt><trkpt lat="41.11540383808842" lon="15.579824250066915"><ele>234.66666666666666</ele><time>2026-04-19T17:35:41Z</time></trkpt><trkpt lat="41.11525401216217" lon="15.579987114553841"><ele>234.33333333333331</ele><time>2026-04-19T17:35:42Z</time></trkpt><trkpt lat="41.11511270349945" lon="15.580139534162255"><ele>234.0</ele><time>2026-04-19T17:35:43Z</time></trkpt><trkpt lat="41.114969122873276" lon="15.580295562180641"><ele>235.0</ele><time>2026-04-19T17:35:44Z</time></trkpt><trkpt lat="41.114835014861136" lon="15.580440181192904"><ele>236.0</ele><time>2026-04-19T17:35:45Z</time></trkpt><trkpt lat="41.11470336338447" lon="15.580580554578694"><ele>237.0</ele><time>2026-04-19T17:35:46Z</time></trkpt><trkpt lat="41.11456900642048" lon="15.580726703543034"><ele>237.0</ele><time>2026-04-19T17:35:47Z</time></trkpt><trkpt lat="41.1144290224107" lon="15.580875865913715"><ele>237.0</ele><time>2026-04-19T17:35:48Z</time></trkpt><trkpt lat="41.11429177860452" lon="15.581020664496815"><ele>237.0</ele><time>2026-04-19T17:35:49Z</time></trkpt><trkpt lat="41.11414986957357" lon="15.581166261296858"><ele>236.66666666666669</ele><time>2026-04-19T17:35:50Z</time></trkpt><trkpt lat="41.11400930556046" lon="15.581313639893372"><ele>236.33333333333334</ele><time>2026-04-19T17:35:51Z</time></trkpt><trkpt lat="41.113868853158436" lon="15.581462956775963"><ele>236.0</ele><time>2026-04-19T17:35:52Z</time></trkpt><trkpt lat="41.113725556620686" lon="15.581620744090008"><ele>236.0</ele><time>2026-04-19T17:35:53Z</time></trkpt><trkpt lat="41.11357968864585" lon="15.581780963351099"><ele>236.0</ele><time>2026-04-19T17:35:54Z</time></trkpt><trkpt lat="41.113431076639465" lon="15.581946127064946"><ele>236.0</ele><time>2026-04-19T17:35:55Z</time></trkpt><trkpt lat="41.11328454092219" lon="15.5821095483874"><ele>235.0</ele><time>2026-04-19T17:35:56Z</time></trkpt><trkpt lat="41.11313542109004" lon="15.582269963242384"><ele>234.0</ele><time>2026-04-19T17:35:57Z</time></trkpt><trkpt lat="41.11298453422985" lon="15.582438544964488"><ele>233.0</ele><time>2026-04-19T17:35:58Z</time></trkpt><trkpt lat="41.112835186774376" lon="15.582599836644812"><ele>233.0</ele><time>2026-04-19T17:35:59Z</time></trkpt><trkpt lat="41.1126839389777" lon="15.58276216067286"><ele>233.0</ele><time>2026-04-19T17:36:00Z</time></trkpt><trkpt lat="41.11254124669684" lon="15.582912840055174"><ele>233.0</ele><time>2026-04-19T17:36:01Z</time></trkpt><trkpt lat="41.11239839131647" lon="15.58306698077876"><ele>231.66666666666669</ele><time>2026-04-19T17:36:02Z</time></trkpt><trkpt lat="41.112258520796864" lon="15.583221739945273"><ele>230.33333333333331</ele><time>2026-04-19T17:36:03Z</time></trkpt><trkpt lat="41.11211926316888" lon="15.583374423508221"><ele>229.0</ele><time>2026-04-19T17:36:04Z</time></trkpt><trkpt lat="41.11197980889415" lon="15.583525975886811"><ele>229.0</ele><time>2026-04-19T17:36:05Z</time></trkpt><trkpt lat="41.11183966242415" lon="15.583671910015948"><ele>229.0</ele><time>2026-04-19T17:36:06Z</time></trkpt><trkpt lat="41.111692231352016" lon="15.583826167628922"><ele>229.0</ele><time>2026-04-19T17:36:07Z</time></trkpt><trkpt lat="41.111549467753946" lon="15.583978263823276"><ele>227.33333333333331</ele><time>2026-04-19T17:36:08Z</time></trkpt><trkpt lat="41.111420206393056" lon="15.584120039253413"><ele>225.66666666666669</ele><time>2026-04-19T17:36:09Z</time></trkpt><trkpt lat="41.11128601180174" lon="15.584265194548225"><ele>224.0</ele><time>2026-04-19T17:36:10Z</time></trkpt><trkpt lat="41.11115170743066" lon="15.584413210910734"><ele>223.66666666666669</ele><time>2026-04-19T17:36:11Z</time></trkpt><trkpt lat="41.11102051612059" lon="15.58455779159077"><ele>223.33333333333331</ele><time>2026-04-19T17:36:12Z</time></trkpt><trkpt lat="41.110877323515595" lon="15.584708381718247"><ele>223.0</ele><time>2026-04-19T17:36:13Z</time></trkpt><trkpt lat="41.11074238656428" lon="15.584858978684158"><ele>223.66666666666666</ele><time>2026-04-19T17:36:14Z</time></trkpt><trkpt lat="41.11061028454067" lon="15.585008114394226"><ele>224.33333333333331</ele><time>2026-04-19T17:36:15Z</time></trkpt><trkpt lat="41.110470758897684" lon="15.585158732037154"><ele>225.0</ele><time>2026-04-19T17:36:16Z</time></trkpt><trkpt lat="41.11032658710259" lon="15.585312637005538"><ele>224.66666666666669</ele><time>2026-04-19T17:36:17Z</time></trkpt><trkpt lat="41.11018772036463" lon="15.585462091052829"><ele>224.33333333333334</ele><time>2026-04-19T17:36:18Z</time></trkpt><trkpt lat="41.11004363652642" lon="15.585616159401496"><ele>224.0</ele><time>2026-04-19T17:36:19Z</time></trkpt><trkpt lat="41.10989681745876" lon="15.585773072590047"><ele>223.66666666666669</ele><time>2026-04-19T17:36:20Z</time></trkpt><trkpt lat="41.10974277888195" lon="15.585938292333022"><ele>223.33333333333331</ele><time>2026-04-19T17:36:21Z</time></trkpt><trkpt lat="41.109602323499246" lon="15.586094668502298"><ele>223.0</ele><time>2026-04-19T17:36:22Z</time></trkpt><trkpt lat="41.10945482444518" lon="15.586250299685188"><ele>222.66666666666666</ele><time>2026-04-19T17:36:23Z</time></trkpt><trkpt lat="41.109301327272924" lon="15.586410364262859"><ele>222.33333333333331</ele><time>2026-04-19T17:36:24Z</time></trkpt><trkpt lat="41.10915731933836" lon="15.586562929396544"><ele>222.0</ele><time>2026-04-19T17:36:25Z</time></trkpt><trkpt lat="41.10901881031764" lon="15.586717310855686"><ele>222.0</ele><time>2026-04-19T17:36:26Z</time></trkpt><trkpt lat="41.1088691785066" lon="15.586881565671174"><ele>222.0</ele><time>2026-04-19T17:36:27Z</time></trkpt><trkpt lat="41.108725124806206" lon="15.587037725565915"><ele>222.0</ele><time>2026-04-19T17:36:28Z</time></trkpt><trkpt lat="41.108580725618005" lon="15.587196068841813"><ele>222.0</ele><time>2026-04-19T17:36:29Z</time></trkpt><trkpt lat="41.108437566839136" lon="15.587351708768141"><ele>222.0</ele><time>2026-04-19T17:36:30Z</time></trkpt><trkpt lat="41.108294105839185" lon="15.58750621084004"><ele>222.0</ele><time>2026-04-19T17:36:31Z</time></trkpt><trkpt lat="41.10814899751327" lon="15.587661620368454"><ele>221.33333333333331</ele><time>2026-04-19T17:36:32Z</time></trkpt><trkpt lat="41.107998920145036" lon="15.587825513313856"><ele>220.66666666666666</ele><time>2026-04-19T17:36:33Z</time></trkpt><trkpt lat="41.107853136795335" lon="15.587985668435824"><ele>220.0</ele><time>2026-04-19T17:36:34Z</time></trkpt><trkpt lat="41.10771689270154" lon="15.588135027477968"><ele>220.0</ele><time>2026-04-19T17:36:35Z</time></trkpt><trkpt lat="41.10758885483414" lon="15.588275075311206"><ele>220.0</ele><time>2026-04-19T17:36:36Z</time></trkpt><trkpt lat="41.10745640521361" lon="15.58842082977782"><ele>220.0</ele><time>2026-04-19T17:36:37Z</time></trkpt><trkpt lat="41.107322937126455" lon="15.588561361461421"><ele>220.66666666666666</ele><time>2026-04-19T17:36:38Z</time></trkpt><trkpt lat="41.10718983474854" lon="15.588702163785355"><ele>221.33333333333331</ele><time>2026-04-19T17:36:39Z</time></trkpt><trkpt lat="41.1070558683256" lon="15.588842009084413"><ele>222.0</ele><time>2026-04-19T17:36:40Z</time></trkpt><trkpt lat="41.10692016406293" lon="15.588988274653813"><ele>222.0</ele><time>2026-04-19T17:36:41Z</time></trkpt><trkpt lat="41.10678445702377" lon="15.589136250892539"><ele>222.0</ele><time>2026-04-19T17:36:42Z</time></trkpt><trkpt lat="41.106647423735055" lon="15.589282310456008"><ele>222.0</ele><time>2026-04-19T17:36:43Z</time></trkpt><trkpt lat="41.106510247553814" lon="15.589432780301573"><ele>221.33333333333331</ele><time>2026-04-19T17:36:44Z</time></trkpt><trkpt lat="41.10636920194592" lon="15.589587369503798"><ele>220.66666666666666</ele><time>2026-04-19T17:36:45Z</time></trkpt><trkpt lat="41.10622057393311" lon="15.589747490321388"><ele>220.0</ele><time>2026-04-19T17:36:46Z</time></trkpt><trkpt lat="41.10607195644792" lon="15.589911354694067"><ele>220.0</ele><time>2026-04-19T17:36:47Z</time></trkpt><trkpt lat="41.1059215116383" lon="15.59007669392769"><ele>220.0</ele><time>2026-04-19T17:36:48Z</time></trkpt><trkpt lat="41.105767545867366" lon="15.590244176130646"><ele>220.0</ele><time>2026-04-19T17:36:49Z</time></trkpt><trkpt lat="41.10560993575764" lon="15.590416829878018"><ele>220.0</ele><time>2026-04-19T17:36:50Z</time></trkpt><trkpt lat="41.10544745666065" lon="15.590590851081913"><ele>220.0</ele><time>2026-04-19T17:36:51Z</time></trkpt><trkpt lat="41.105288487528625" lon="15.590767776376026"><ele>220.0</ele><time>2026-04-19T17:36:52Z</time></trkpt><trkpt lat="41.105140628161976" lon="15.590928268972483"><ele>220.0</ele><time>2026-04-19T17:36:53Z</time></trkpt><trkpt lat="41.10498648788057" lon="15.591067864056363"><ele>220.0</ele><time>2026-04-19T17:36:54Z</time></trkpt><trkpt lat="41.104845577897144" lon="15.591219750994592"><ele>220.0</ele><time>2026-04-19T17:36:55Z</time></trkpt><trkpt lat="41.104704452513516" lon="15.591371870341924"><ele>220.0</ele><time>2026-04-19T17:36:56Z</time></trkpt><trkpt lat="41.10456322740312" lon="15.59152132232639"><ele>220.0</ele><time>2026-04-19T17:36:57Z</time></trkpt><trkpt lat="41.1044192304966" lon="15.591672345913377"><ele>220.0</ele><time>2026-04-19T17:36:58Z</time></trkpt><trkpt lat="41.10427076437892" lon="15.591821481538924"><ele>220.0</ele><time>2026-04-19T17:36:59Z</time></trkpt><trkpt lat="41.1041257781467" lon="15.591960959098174"><ele>220.0</ele><time>2026-04-19T17:37:00Z</time></trkpt><trkpt lat="41.103970445459645" lon="15.592104801425933"><ele>220.0</ele><time>2026-04-19T17:37:01Z</time></trkpt><trkpt lat="41.103813147509406" lon="15.59224390232848"><ele>219.66666666666666</ele><time>2026-04-19T17:37:02Z</time></trkpt><trkpt lat="41.10365590786415" lon="15.592379090731386"><ele>219.33333333333331</ele><time>2026-04-19T17:37:03Z</time></trkpt><trkpt lat="41.10349570732568" lon="15.592508143248986"><ele>219.0</ele><time>2026-04-19T17:37:04Z</time></trkpt><trkpt lat="41.1033320074786" lon="15.592633422728891"><ele>219.33333333333331</ele><time>2026-04-19T17:37:05Z</time></trkpt><trkpt lat="41.1031683975794" lon="15.59275213768931"><ele>219.66666666666666</ele><time>2026-04-19T17:37:06Z</time></trkpt><trkpt lat="41.10299352438929" lon="15.59287256328294"><ele>220.0</ele><time>2026-04-19T17:37:07Z</time></trkpt><trkpt lat="41.10283303378523" lon="15.592999123339473"><ele>219.33333333333331</ele><time>2026-04-19T17:37:08Z</time></trkpt><trkpt lat="41.10265537052874" lon="15.593106606286195"><ele>218.66666666666669</ele><time>2026-04-19T17:37:09Z</time></trkpt><trkpt lat="41.102479889528325" lon="15.593212132289874"><ele>218.0</ele><time>2026-04-19T17:37:10Z</time></trkpt><trkpt lat="41.10230739764865" lon="15.593288136436225"><ele>217.66666666666669</ele><time>2026-04-19T17:37:11Z</time></trkpt><trkpt lat="41.10214372705243" lon="15.59337461209102"><ele>217.33333333333331</ele><time>2026-04-19T17:37:12Z</time></trkpt><trkpt lat="41.10197834519316" lon="15.593458207414965"><ele>217.0</ele><time>2026-04-19T17:37:13Z</time></trkpt><trkpt lat="41.10180614474824" lon="15.593538980681126"><ele>217.0</ele><time>2026-04-19T17:37:14Z</time></trkpt><trkpt lat="41.101631380310785" lon="15.593615398318537"><ele>217.0</ele><time>2026-04-19T17:37:15Z</time></trkpt><trkpt lat="41.10144566935844" lon="15.593689837464947"><ele>217.0</ele><time>2026-04-19T17:37:16Z</time></trkpt><trkpt lat="41.101255788036575" lon="15.593759860782644"><ele>217.0</ele><time>2026-04-19T17:37:17Z</time></trkpt><trkpt lat="41.101064790399654" lon="15.593825199039555"><ele>217.0</ele><time>2026-04-19T17:37:18Z</time></trkpt><trkpt lat="41.10087118634403" lon="15.593883605337837"><ele>217.0</ele><time>2026-04-19T17:37:19Z</time></trkpt><trkpt lat="41.10067761754" lon="15.593936628493248"><ele>216.0</ele><time>2026-04-19T17:37:20Z</time></trkpt><trkpt lat="41.10047854558401" lon="15.593985856444203"><ele>215.0</ele><time>2026-04-19T17:37:21Z</time></trkpt><trkpt lat="41.100287102164664" lon="15.594029907989132"><ele>214.0</ele><time>2026-04-19T17:37:22Z</time></trkpt><trkpt lat="41.10009969702676" lon="15.594065622277554"><ele>211.66666666666666</ele><time>2026-04-19T17:37:23Z</time></trkpt><trkpt lat="41.09991467084844" lon="15.594094841459789"><ele>209.33333333333331</ele><time>2026-04-19T17:37:24Z</time></trkpt><trkpt lat="41.09973287768556" lon="15.594121774956385"><ele>207.0</ele><time>2026-04-19T17:37:25Z</time></trkpt><trkpt lat="41.099548189311854" lon="15.594142032626714"><ele>207.0</ele><time>2026-04-19T17:37:26Z</time></trkpt><trkpt lat="41.09937022199699" lon="15.594175273119648"><ele>207.0</ele><time>2026-04-19T17:37:27Z</time></trkpt><trkpt lat="41.09918662494885" lon="15.594181215231574"><ele>207.0</ele><time>2026-04-19T17:37:28Z</time></trkpt><trkpt lat="41.099012429225596" lon="15.59418991885389"><ele>204.0</ele><time>2026-04-19T17:37:29Z</time></trkpt><trkpt lat="41.09885115395126" lon="15.59419766349835"><ele>201.0</ele><time>2026-04-19T17:37:30Z</time></trkpt><trkpt lat="41.09868122691202" lon="15.594179186240437"><ele>198.0</ele><time>2026-04-19T17:37:31Z</time></trkpt><trkpt lat="41.0985246204382" lon="15.59418085154691"><ele>198.0</ele><time>2026-04-19T17:37:32Z</time></trkpt><trkpt lat="41.098354690489785" lon="15.594182656730705"><ele>198.0</ele><time>2026-04-19T17:37:33Z</time></trkpt><trkpt lat="41.09818581533173" lon="15.594184351818017"><ele>198.0</ele><time>2026-04-19T17:37:34Z</time></trkpt><trkpt lat="41.098013708719556" lon="15.594185993823087"><ele>196.66666666666669</ele><time>2026-04-19T17:37:35Z</time></trkpt><trkpt lat="41.09784351117219" lon="15.594187857572619"><ele>195.33333333333334</ele><time>2026-04-19T17:37:36Z</time></trkpt><trkpt lat="41.09768639899945" lon="15.594189606757261"><ele>194.0</ele><time>2026-04-19T17:37:37Z</time></trkpt><trkpt lat="41.09752040006729" lon="15.594191454880912"><ele>194.33333333333334</ele><time>2026-04-19T17:37:38Z</time></trkpt><trkpt lat="41.09733810624145" lon="15.594193484423867"><ele>194.66666666666669</ele><time>2026-04-19T17:37:39Z</time></trkpt><trkpt lat="41.09716614776842" lon="15.594195398897893"><ele>195.0</ele><time>2026-04-19T17:37:40Z</time></trkpt><trkpt lat="41.09699568413943" lon="15.594197296730123"><ele>195.0</ele><time>2026-04-19T17:37:41Z</time></trkpt><trkpt lat="41.09681680706484" lon="15.594199288232499"><ele>195.0</ele><time>2026-04-19T17:37:42Z</time></trkpt><trkpt lat="41.09663987233796" lon="15.594201258109047"><ele>195.0</ele><time>2026-04-19T17:37:43Z</time></trkpt><trkpt lat="41.09647075624704" lon="15.594203140937955"><ele>195.33333333333331</ele><time>2026-04-19T17:37:44Z</time></trkpt><trkpt lat="41.09629387343844" lon="15.594205110236665"><ele>195.66666666666666</ele><time>2026-04-19T17:37:45Z</time></trkpt><trkpt lat="41.096118143626114" lon="15.594207066698393"><ele>196.0</ele><time>2026-04-19T17:37:46Z</time></trkpt><trkpt lat="41.09596506530473" lon="15.594230567043148"><ele>196.0</ele><time>2026-04-19T17:37:47Z</time></trkpt><trkpt lat="41.09580237862938" lon="15.594211699884582"><ele>196.0</ele><time>2026-04-19T17:37:48Z</time></trkpt><trkpt lat="41.09564799837511" lon="15.594212270524803"><ele>196.0</ele><time>2026-04-19T17:37:49Z</time></trkpt><trkpt lat="41.09549118444408" lon="15.594232625290939"><ele>196.25</ele><time>2026-04-19T17:37:50Z</time></trkpt><trkpt lat="41.095342375821836" lon="15.594231459092903"><ele>196.5</ele><time>2026-04-19T17:37:51Z</time></trkpt><trkpt lat="41.095188342258865" lon="15.594232466986506"><ele>196.75</ele><time>2026-04-19T17:37:52Z</time></trkpt><trkpt lat="41.09505643020753" lon="15.594231914301917"><ele>197.0</ele><time>2026-04-19T17:37:53Z</time></trkpt><trkpt lat="41.09491449475278" lon="15.594235335350689"><ele>196.5</ele><time>2026-04-19T17:37:54Z</time></trkpt><trkpt lat="41.09477259802657" lon="15.594234559919151"><ele>196.0</ele><time>2026-04-19T17:37:55Z</time></trkpt><trkpt lat="41.09462432410404" lon="15.594235737650319"><ele>195.5</ele><time>2026-04-19T17:37:56Z</time></trkpt><trkpt lat="41.09449117970846" lon="15.594237628205857"><ele>195.0</ele><time>2026-04-19T17:37:57Z</time></trkpt><trkpt lat="41.094367278457796" lon="15.594240611681217"><ele>195.0</ele><time>2026-04-19T17:37:58Z</time></trkpt><trkpt lat="41.09424223601965" lon="15.594243386352378"><ele>195.0</ele><time>2026-04-19T17:37:59Z</time></trkpt><trkpt lat="41.09412201860218" lon="15.594245352608084"><ele>195.0</ele><time>2026-04-19T17:38:00Z</time></trkpt><trkpt lat="41.094015485658446" lon="15.594249784310687"><ele>195.0</ele><time>2026-04-19T17:38:01Z</time></trkpt><trkpt lat="41.09393360756034" lon="15.594249235348325"><ele>195.0</ele><time>2026-04-19T17:38:02Z</time></trkpt><trkpt lat="41.09385087452791" lon="15.59420765075164"><ele>195.0</ele><time>2026-04-19T17:38:04Z</time></trkpt><trkpt lat="41.09381484475661" lon="15.59410647432865"><ele>195.0</ele><time>2026-04-19T17:38:06Z</time></trkpt><trkpt lat="41.09380448041656" lon="15.59401275506022"><ele>195.0</ele><time>2026-04-19T17:38:08Z</time></trkpt><trkpt lat="41.093794961221995" lon="15.59391712306335"><ele>195.0</ele><time>2026-04-19T17:38:10Z</time></trkpt><trkpt lat="41.093747434816144" lon="15.593817592012927"><ele>195.0</ele><time>2026-04-19T17:38:13Z</time></trkpt><trkpt lat="41.09369963910141" lon="15.593753127182826"><ele>195.0</ele><time>2026-04-19T17:38:18Z</time></trkpt><trkpt lat="41.093616882957946" lon="15.59376007602404"><ele>195.0</ele><time>2026-04-19T17:46:56Z</time></trkpt><trkpt lat="41.09355506801871" lon="15.593742871172651"><ele>195.0</ele><time>2026-04-19T17:46:57Z</time></trkpt><trkpt lat="41.09349364357799" lon="15.59384554040463"><ele>195.0</ele><time>2026-04-19T17:46:59Z</time></trkpt><trkpt lat="41.09344567642529" lon="15.593969525996494"><ele>195.0</ele><time>2026-04-19T17:47:01Z</time></trkpt><trkpt lat="41.093422855842014" lon="15.594104079569657"><ele>195.0</ele><time>2026-04-19T17:47:03Z</time></trkpt><trkpt lat="41.093382110315616" lon="15.594214412347005"><ele>195.0</ele><time>2026-04-19T17:47:05Z</time></trkpt><trkpt lat="41.09336158497559" lon="15.594323206633632"><ele>195.0</ele><time>2026-04-19T17:47:07Z</time></trkpt><trkpt lat="41.09325423714259" lon="15.594302219737902"><ele>195.0</ele><time>2026-04-19T17:47:08Z</time></trkpt><trkpt lat="41.09318319328278" lon="15.59431533200067"><ele>195.0</ele><time>2026-04-19T17:47:09Z</time></trkpt><trkpt lat="41.09308845869412" lon="15.594338327294437"><ele>195.0</ele><time>2026-04-19T17:47:10Z</time></trkpt><trkpt lat="41.092978095948844" lon="15.594377776432705"><ele>195.0</ele><time>2026-04-19T17:47:11Z</time></trkpt><trkpt lat="41.092869723726885" lon="15.594409776032402"><ele>195.0</ele><time>2026-04-19T17:47:12Z</time></trkpt><trkpt lat="41.092765549395" lon="15.594447701294886"><ele>195.0</ele><time>2026-04-19T17:47:13Z</time></trkpt><trkpt lat="41.09266281913958" lon="15.594475867391008"><ele>195.0</ele><time>2026-04-19T17:47:14Z</time></trkpt><trkpt lat="41.09256060819631" lon="15.594510455892928"><ele>195.0</ele><time>2026-04-19T17:47:15Z</time></trkpt><trkpt lat="41.09245708736345" lon="15.594552927139265"><ele>195.2</ele><time>2026-04-19T17:47:16Z</time></trkpt><trkpt lat="41.09235820608892" lon="15.594605672853547"><ele>195.4</ele><time>2026-04-19T17:47:17Z</time></trkpt><trkpt lat="41.09225285026735" lon="15.594640407283087"><ele>195.60000000000002</ele><time>2026-04-19T17:47:18Z</time></trkpt><trkpt lat="41.09215129407061" lon="15.594680217705616"><ele>195.8</ele><time>2026-04-19T17:47:19Z</time></trkpt><trkpt lat="41.092045337822825" lon="15.594723376610297"><ele>196.0</ele><time>2026-04-19T17:47:20Z</time></trkpt><trkpt lat="41.09194194826118" lon="15.594764571145847"><ele>196.0</ele><time>2026-04-19T17:47:21Z</time></trkpt><trkpt lat="41.09183232826241" lon="15.594811375013697"><ele>196.0</ele><time>2026-04-19T17:47:22Z</time></trkpt><trkpt lat="41.091720344223106" lon="15.594858463413377"><ele>196.0</ele><time>2026-04-19T17:47:23Z</time></trkpt><trkpt lat="41.09160111490403" lon="15.594906677595182"><ele>196.0</ele><time>2026-04-19T17:47:24Z</time></trkpt><trkpt lat="41.091476822801006" lon="15.594961209274597"><ele>196.25</ele><time>2026-04-19T17:47:25Z</time></trkpt><trkpt lat="41.09134821111397" lon="15.595011417208168"><ele>196.5</ele><time>2026-04-19T17:47:26Z</time></trkpt><trkpt lat="41.091203427282245" lon="15.595061439542507"><ele>196.75</ele><time>2026-04-19T17:47:27Z</time></trkpt><trkpt lat="41.091059892554874" lon="15.595125338763648"><ele>197.0</ele><time>2026-04-19T17:47:28Z</time></trkpt><trkpt lat="41.09091705750645" lon="15.595185805273342"><ele>197.0</ele><time>2026-04-19T17:47:29Z</time></trkpt><trkpt lat="41.09077715395877" lon="15.595241697855622"><ele>197.0</ele><time>2026-04-19T17:47:30Z</time></trkpt><trkpt lat="41.090625318456915" lon="15.595303090231255"><ele>197.0</ele><time>2026-04-19T17:47:31Z</time></trkpt><trkpt lat="41.0904905940431" lon="15.59537175161213"><ele>197.0</ele><time>2026-04-19T17:47:32Z</time></trkpt><trkpt lat="41.09034928724176" lon="15.595439569757787"><ele>196.66666666666669</ele><time>2026-04-19T17:47:33Z</time></trkpt><trkpt lat="41.09020475018635" lon="15.595512235903636"><ele>196.33333333333331</ele><time>2026-04-19T17:47:34Z</time></trkpt><trkpt lat="41.09005640222629" lon="15.595583772753066"><ele>196.0</ele><time>2026-04-19T17:47:35Z</time></trkpt><trkpt lat="41.089917816129166" lon="15.595671029168626"><ele>196.0</ele><time>2026-04-19T17:47:36Z</time></trkpt><trkpt lat="41.08976596980949" lon="15.595743848052843"><ele>196.0</ele><time>2026-04-19T17:47:37Z</time></trkpt><trkpt lat="41.08961810651362" lon="15.595834379349439"><ele>196.0</ele><time>2026-04-19T17:47:38Z</time></trkpt><trkpt lat="41.0894744197861" lon="15.595927736863853"><ele>196.0</ele><time>2026-04-19T17:47:39Z</time></trkpt><trkpt lat="41.08933248019197" lon="15.596022739357375"><ele>196.0</ele><time>2026-04-19T17:47:40Z</time></trkpt><trkpt lat="41.089199060256895" lon="15.596141434140932"><ele>196.0</ele><time>2026-04-19T17:47:41Z</time></trkpt><trkpt lat="41.08906663989409" lon="15.596251164797808"><ele>196.66666666666666</ele><time>2026-04-19T17:47:42Z</time></trkpt><trkpt lat="41.0889349340323" lon="15.596362777388116"><ele>197.33333333333331</ele><time>2026-04-19T17:47:43Z</time></trkpt><trkpt lat="41.08880888031377" lon="15.596474062420999"><ele>198.0</ele><time>2026-04-19T17:47:44Z</time></trkpt><trkpt lat="41.088686119409886" lon="15.59659892183005"><ele>198.0</ele><time>2026-04-19T17:47:45Z</time></trkpt><trkpt lat="41.08856410798539" lon="15.596719208115635"><ele>198.0</ele><time>2026-04-19T17:47:46Z</time></trkpt><trkpt lat="41.08844083405254" lon="15.59684105918114"><ele>198.0</ele><time>2026-04-19T17:47:47Z</time></trkpt><trkpt lat="41.088321638594564" lon="15.596963825319264"><ele>198.25</ele><time>2026-04-19T17:47:48Z</time></trkpt><trkpt lat="41.08820339250801" lon="15.597084578829728"><ele>198.5</ele><time>2026-04-19T17:47:49Z</time></trkpt><trkpt lat="41.088099401113844" lon="15.59721912309084"><ele>198.75</ele><time>2026-04-19T17:47:50Z</time></trkpt><trkpt lat="41.08798475932961" lon="15.597349460982993"><ele>199.0</ele><time>2026-04-19T17:47:51Z</time></trkpt><trkpt lat="41.08787504317961" lon="15.597483649845003"><ele>199.0</ele><time>2026-04-19T17:47:52Z</time></trkpt><trkpt lat="41.08776717795775" lon="15.59762008422534"><ele>199.0</ele><time>2026-04-19T17:47:53Z</time></trkpt><trkpt lat="41.08766805058522" lon="15.597762488558105"><ele>199.0</ele><time>2026-04-19T17:47:54Z</time></trkpt><trkpt lat="41.08757682722819" lon="15.597908133075537"><ele>199.0</ele><time>2026-04-19T17:47:55Z</time></trkpt><trkpt lat="41.08748026997013" lon="15.598052632188168"><ele>199.25</ele><time>2026-04-19T17:47:56Z</time></trkpt><trkpt lat="41.08739131600091" lon="15.598198835833577"><ele>199.5</ele><time>2026-04-19T17:47:57Z</time></trkpt><trkpt lat="41.087302160377" lon="15.598347501461886"><ele>199.75</ele><time>2026-04-19T17:47:58Z</time></trkpt><trkpt lat="41.08722879909056" lon="15.59848819605468"><ele>200.0</ele><time>2026-04-19T17:47:59Z</time></trkpt><trkpt lat="41.08713646168486" lon="15.598636571942372"><ele>200.0</ele><time>2026-04-19T17:48:00Z</time></trkpt><trkpt lat="41.08704990519723" lon="15.59877939162587"><ele>200.0</ele><time>2026-04-19T17:48:01Z</time></trkpt><trkpt lat="41.08697878130444" lon="15.5989250691152"><ele>200.0</ele><time>2026-04-19T17:48:02Z</time></trkpt><trkpt lat="41.08690603594266" lon="15.599069569955649"><ele>200.0</ele><time>2026-04-19T17:48:03Z</time></trkpt><trkpt lat="41.08682790457778" lon="15.599229230239319"><ele>200.0</ele><time>2026-04-19T17:48:04Z</time></trkpt><trkpt lat="41.086756252066834" lon="15.599388073433687"><ele>200.0</ele><time>2026-04-19T17:48:05Z</time></trkpt><trkpt lat="41.08668481669565" lon="15.59955091866229"><ele>200.0</ele><time>2026-04-19T17:48:06Z</time></trkpt><trkpt lat="41.086616649740556" lon="15.599702558457631"><ele>200.0</ele><time>2026-04-19T17:48:07Z</time></trkpt><trkpt lat="41.086542509065495" lon="15.599866277604878"><ele>200.75</ele><time>2026-04-19T17:48:08Z</time></trkpt><trkpt lat="41.086475117854896" lon="15.600018731907333"><ele>201.5</ele><time>2026-04-19T17:48:09Z</time></trkpt><trkpt lat="41.086404409522004" lon="15.600177585801672"><ele>202.25</ele><time>2026-04-19T17:48:10Z</time></trkpt><trkpt lat="41.08633228435931" lon="15.600335062353736"><ele>203.0</ele><time>2026-04-19T17:48:11Z</time></trkpt><trkpt lat="41.08626034822095" lon="15.600492485190403"><ele>203.5</ele><time>2026-04-19T17:48:12Z</time></trkpt><trkpt lat="41.08618843046095" lon="15.600654512128427"><ele>204.0</ele><time>2026-04-19T17:48:13Z</time></trkpt><trkpt lat="41.08611709441347" lon="15.600812289848978"><ele>204.5</ele><time>2026-04-19T17:48:14Z</time></trkpt><trkpt lat="41.08604338047562" lon="15.60097004415946"><ele>205.0</ele><time>2026-04-19T17:48:15Z</time></trkpt><trkpt lat="41.08597399528242" lon="15.601123688557283"><ele>205.25</ele><time>2026-04-19T17:48:16Z</time></trkpt><trkpt lat="41.08590765579364" lon="15.601272523893433"><ele>205.5</ele><time>2026-04-19T17:48:17Z</time></trkpt><trkpt lat="41.085836480770766" lon="15.601424959991702"><ele>205.75</ele><time>2026-04-19T17:48:18Z</time></trkpt><trkpt lat="41.08576790003737" lon="15.601570803220154"><ele>206.0</ele><time>2026-04-19T17:48:19Z</time></trkpt><trkpt lat="41.085697671623464" lon="15.601725963551345"><ele>206.75</ele><time>2026-04-19T17:48:20Z</time></trkpt><trkpt lat="41.08563211723133" lon="15.601873964170707"><ele>207.5</ele><time>2026-04-19T17:48:21Z</time></trkpt><trkpt lat="41.08556565834245" lon="15.60201714475513"><ele>208.25</ele><time>2026-04-19T17:48:22Z</time></trkpt><trkpt lat="41.08550161456516" lon="15.602157472037565"><ele>209.0</ele><time>2026-04-19T17:48:23Z</time></trkpt><trkpt lat="41.085442843463426" lon="15.602291610378197"><ele>209.5</ele><time>2026-04-19T17:48:24Z</time></trkpt><trkpt lat="41.085384210144824" lon="15.602425679579783"><ele>210.0</ele><time>2026-04-19T17:48:25Z</time></trkpt><trkpt lat="41.08532199896309" lon="15.60255869535356"><ele>210.5</ele><time>2026-04-19T17:48:26Z</time></trkpt><trkpt lat="41.085261115688866" lon="15.602691558002668"><ele>211.0</ele><time>2026-04-19T17:48:27Z</time></trkpt><trkpt lat="41.08519752936071" lon="15.602824748643576"><ele>211.25</ele><time>2026-04-19T17:48:28Z</time></trkpt><trkpt lat="41.08513338102263" lon="15.60296648351474"><ele>211.5</ele><time>2026-04-19T17:48:29Z</time></trkpt><trkpt lat="41.085070368823324" lon="15.603112260569912"><ele>211.75</ele><time>2026-04-19T17:48:30Z</time></trkpt><trkpt lat="41.08500504159632" lon="15.60325768708845"><ele>212.0</ele><time>2026-04-19T17:48:31Z</time></trkpt><trkpt lat="41.084934019818526" lon="15.603414523361218"><ele>212.75</ele><time>2026-04-19T17:48:32Z</time></trkpt><trkpt lat="41.084864130610505" lon="15.603571543775374"><ele>213.5</ele><time>2026-04-19T17:48:33Z</time></trkpt><trkpt lat="41.08479772151306" lon="15.603710114200494"><ele>214.25</ele><time>2026-04-19T17:48:34Z</time></trkpt><trkpt lat="41.08472755306585" lon="15.60384886215232"><ele>215.0</ele><time>2026-04-19T17:48:35Z</time></trkpt><trkpt lat="41.08466288872994" lon="15.60400793277092"><ele>215.0</ele><time>2026-04-19T17:48:36Z</time></trkpt><trkpt lat="41.08459228244457" lon="15.60416478959164"><ele>215.0</ele><time>2026-04-19T17:48:37Z</time></trkpt><trkpt lat="41.0845208801724" lon="15.60432068730362"><ele>215.0</ele><time>2026-04-19T17:48:38Z</time></trkpt><trkpt lat="41.08444968123233" lon="15.60448408664804"><ele>215.0</ele><time>2026-04-19T17:48:39Z</time></trkpt><trkpt lat="41.08438016423077" lon="15.604638040992693"><ele>214.75</ele><time>2026-04-19T17:48:40Z</time></trkpt><trkpt lat="41.08430636405234" lon="15.604800088786877"><ele>214.5</ele><time>2026-04-19T17:48:41Z</time></trkpt><trkpt lat="41.08422937332206" lon="15.604968221163986"><ele>214.25</ele><time>2026-04-19T17:48:42Z</time></trkpt><trkpt lat="41.08415477347439" lon="15.605126865462774"><ele>214.0</ele><time>2026-04-19T17:48:43Z</time></trkpt><trkpt lat="41.08407763441152" lon="15.605295436365282"><ele>214.75</ele><time>2026-04-19T17:48:44Z</time></trkpt><trkpt lat="41.08400339453656" lon="15.605460489149358"><ele>215.5</ele><time>2026-04-19T17:48:45Z</time></trkpt><trkpt lat="41.083929817402414" lon="15.605630087095133"><ele>216.25</ele><time>2026-04-19T17:48:46Z</time></trkpt><trkpt lat="41.08386400336887" lon="15.605782826215597"><ele>217.0</ele><time>2026-04-19T17:48:47Z</time></trkpt><trkpt lat="41.08379147784048" lon="15.605932625321504"><ele>217.0</ele><time>2026-04-19T17:48:48Z</time></trkpt><trkpt lat="41.08371409657358" lon="15.606077670165863"><ele>217.0</ele><time>2026-04-19T17:48:49Z</time></trkpt><trkpt lat="41.08364188778651" lon="15.606221073141059"><ele>217.0</ele><time>2026-04-19T17:48:50Z</time></trkpt><trkpt lat="41.0835761777967" lon="15.606360750710108"><ele>217.0</ele><time>2026-04-19T17:48:51Z</time></trkpt><trkpt lat="41.083514973794955" lon="15.60648445307205"><ele>217.0</ele><time>2026-04-19T17:48:52Z</time></trkpt><trkpt lat="41.08345574712433" lon="15.606601100649137"><ele>217.0</ele><time>2026-04-19T17:48:53Z</time></trkpt><trkpt lat="41.08339097449352" lon="15.606721793801734"><ele>217.0</ele><time>2026-04-19T17:48:54Z</time></trkpt><trkpt lat="41.08331674062373" lon="15.606845974774577"><ele>217.0</ele><time>2026-04-19T17:48:55Z</time></trkpt><trkpt lat="41.08323014844432" lon="15.606974456638046"><ele>217.25</ele><time>2026-04-19T17:48:56Z</time></trkpt><trkpt lat="41.08312289770319" lon="15.60710491146224"><ele>217.5</ele><time>2026-04-19T17:48:57Z</time></trkpt><trkpt lat="41.08302206255553" lon="15.607242117965548"><ele>217.75</ele><time>2026-04-19T17:48:58Z</time></trkpt><trkpt lat="41.082909580533205" lon="15.607348920964297"><ele>218.0</ele><time>2026-04-19T17:48:59Z</time></trkpt><trkpt lat="41.08277657750028" lon="15.6074550631451"><ele>218.0</ele><time>2026-04-19T17:49:00Z</time></trkpt><trkpt lat="41.08265107386857" lon="15.607538086752918"><ele>218.0</ele><time>2026-04-19T17:49:01Z</time></trkpt><trkpt lat="41.082518906477645" lon="15.607612705376592"><ele>218.0</ele><time>2026-04-19T17:49:02Z</time></trkpt><trkpt lat="41.08238342113858" lon="15.607668115844394"><ele>218.0</ele><time>2026-04-19T17:49:03Z</time></trkpt><trkpt lat="41.08224988216198" lon="15.607705732961977"><ele>219.75</ele><time>2026-04-19T17:49:04Z</time></trkpt><trkpt lat="41.08211481026046" lon="15.6077402906903"><ele>221.5</ele><time>2026-04-19T17:49:05Z</time></trkpt><trkpt lat="41.081977206710874" lon="15.607764948262096"><ele>223.25</ele><time>2026-04-19T17:49:06Z</time></trkpt><trkpt lat="41.08183523402725" lon="15.607774292947967"><ele>225.0</ele><time>2026-04-19T17:49:07Z</time></trkpt><trkpt lat="41.08170509040159" lon="15.607754728737596"><ele>226.75</ele><time>2026-04-19T17:49:08Z</time></trkpt><trkpt lat="41.081559124259876" lon="15.607750854054927"><ele>228.5</ele><time>2026-04-19T17:49:09Z</time></trkpt><trkpt lat="41.08142334894754" lon="15.607736718156742"><ele>230.25</ele><time>2026-04-19T17:49:10Z</time></trkpt><trkpt lat="41.08126411803722" lon="15.607718115481207"><ele>232.0</ele><time>2026-04-19T17:49:11Z</time></trkpt><trkpt lat="41.081122792591245" lon="15.607705624965897"><ele>232.0</ele><time>2026-04-19T17:49:12Z</time></trkpt><trkpt lat="41.08097245741991" lon="15.607685788048446"><ele>232.0</ele><time>2026-04-19T17:49:13Z</time></trkpt><trkpt lat="41.08081520804342" lon="15.607665461530223"><ele>232.0</ele><time>2026-04-19T17:49:14Z</time></trkpt><trkpt lat="41.08066520363062" lon="15.607646415442407"><ele>233.33333333333331</ele><time>2026-04-19T17:49:15Z</time></trkpt><trkpt lat="41.08051050261063" lon="15.607621181997004"><ele>234.66666666666669</ele><time>2026-04-19T17:49:16Z</time></trkpt><trkpt lat="41.08036131559808" lon="15.60760544255055"><ele>236.0</ele><time>2026-04-19T17:49:17Z</time></trkpt><trkpt lat="41.08021049712042" lon="15.607587486214555"><ele>236.0</ele><time>2026-04-19T17:49:18Z</time></trkpt><trkpt lat="41.08005317777655" lon="15.607564530685941"><ele>236.0</ele><time>2026-04-19T17:49:19Z</time></trkpt><trkpt lat="41.07990739984248" lon="15.60751272801285"><ele>236.0</ele><time>2026-04-19T17:49:20Z</time></trkpt><trkpt lat="41.07975981940871" lon="15.607476373049947"><ele>235.66666666666669</ele><time>2026-04-19T17:49:21Z</time></trkpt><trkpt lat="41.07961084720941" lon="15.607435309313772"><ele>235.33333333333331</ele><time>2026-04-19T17:49:22Z</time></trkpt><trkpt lat="41.07945367102373" lon="15.607391984200097"><ele>235.0</ele><time>2026-04-19T17:49:23Z</time></trkpt><trkpt lat="41.079303229199866" lon="15.607349800436964"><ele>235.0</ele><time>2026-04-19T17:49:24Z</time></trkpt><trkpt lat="41.079145293176055" lon="15.607302491373197"><ele>235.0</ele><time>2026-04-19T17:49:25Z</time></trkpt><trkpt lat="41.07898731629767" lon="15.607261293762914"><ele>235.0</ele><time>2026-04-19T17:49:26Z</time></trkpt><trkpt lat="41.07882996938464" lon="15.607229221363713"><ele>235.66666666666666</ele><time>2026-04-19T17:49:27Z</time></trkpt><trkpt lat="41.07866897976379" lon="15.607207659082551"><ele>236.33333333333331</ele><time>2026-04-19T17:49:28Z</time></trkpt><trkpt lat="41.078504806139165" lon="15.607188147541853"><ele>237.0</ele><time>2026-04-19T17:49:29Z</time></trkpt><trkpt lat="41.07833754595861" lon="15.607173475073846"><ele>238.0</ele><time>2026-04-19T17:49:30Z</time></trkpt><trkpt lat="41.07817175931528" lon="15.607165957836687"><ele>239.0</ele><time>2026-04-19T17:49:31Z</time></trkpt><trkpt lat="41.077996061836394" lon="15.607167946178441"><ele>240.0</ele><time>2026-04-19T17:49:32Z</time></trkpt><trkpt lat="41.077818635306485" lon="15.607179028774063"><ele>240.0</ele><time>2026-04-19T17:49:33Z</time></trkpt><trkpt lat="41.07764470502068" lon="15.607193012348219"><ele>240.0</ele><time>2026-04-19T17:49:34Z</time></trkpt><trkpt lat="41.077465103957714" lon="15.607210316402949"><ele>240.0</ele><time>2026-04-19T17:49:35Z</time></trkpt><trkpt lat="41.07728361746094" lon="15.60723489107228"><ele>240.33333333333331</ele><time>2026-04-19T17:49:36Z</time></trkpt><trkpt lat="41.07710984260506" lon="15.607264646099587"><ele>240.66666666666666</ele><time>2026-04-19T17:49:37Z</time></trkpt><trkpt lat="41.0769274354718" lon="15.60730315442503"><ele>241.0</ele><time>2026-04-19T17:49:38Z</time></trkpt><trkpt lat="41.07674155953899" lon="15.607342286203007"><ele>241.66666666666666</ele><time>2026-04-19T17:49:39Z</time></trkpt><trkpt lat="41.07656154809828" lon="15.607381014633873"><ele>242.33333333333331</ele><time>2026-04-19T17:49:40Z</time></trkpt><trkpt lat="41.07637814368514" lon="15.607442613850234"><ele>243.0</ele><time>2026-04-19T17:49:41Z</time></trkpt><trkpt lat="41.07619190677501" lon="15.607480159080232"><ele>243.0</ele><time>2026-04-19T17:49:42Z</time></trkpt><trkpt lat="41.07600572420296" lon="15.607522009493577"><ele>243.0</ele><time>2026-04-19T17:49:43Z</time></trkpt><trkpt lat="41.07581811387349" lon="15.607560613038885"><ele>243.0</ele><time>2026-04-19T17:49:44Z</time></trkpt><trkpt lat="41.07563169865054" lon="15.607603056627253"><ele>244.66666666666669</ele><time>2026-04-19T17:49:45Z</time></trkpt><trkpt lat="41.07544574081911" lon="15.607646491949497"><ele>246.33333333333334</ele><time>2026-04-19T17:49:46Z</time></trkpt><trkpt lat="41.07525375226831" lon="15.607687221416436"><ele>248.0</ele><time>2026-04-19T17:49:47Z</time></trkpt><trkpt lat="41.075074662578245" lon="15.607723459996203"><ele>249.33333333333334</ele><time>2026-04-19T17:49:48Z</time></trkpt><trkpt lat="41.07487914346616" lon="15.6077662422069"><ele>250.66666666666669</ele><time>2026-04-19T17:49:49Z</time></trkpt><trkpt lat="41.0746827862221" lon="15.60780889696926"><ele>252.0</ele><time>2026-04-19T17:49:50Z</time></trkpt><trkpt lat="41.0744969827155" lon="15.607851073277853"><ele>252.0</ele><time>2026-04-19T17:49:51Z</time></trkpt><trkpt lat="41.07430663363993" lon="15.607893313595746"><ele>252.0</ele><time>2026-04-19T17:49:52Z</time></trkpt><trkpt lat="41.074117952122215" lon="15.607936736068037"><ele>252.0</ele><time>2026-04-19T17:49:53Z</time></trkpt><trkpt lat="41.07392703579561" lon="15.607980371798424"><ele>253.33333333333331</ele><time>2026-04-19T17:49:54Z</time></trkpt><trkpt lat="41.07373449478686" lon="15.608021956309571"><ele>254.66666666666666</ele><time>2026-04-19T17:49:55Z</time></trkpt><trkpt lat="41.07353836940998" lon="15.608064211640642"><ele>256.0</ele><time>2026-04-19T17:49:56Z</time></trkpt><trkpt lat="41.07334422602455" lon="15.608106832348186"><ele>257.0</ele><time>2026-04-19T17:49:57Z</time></trkpt><trkpt lat="41.07315291892169" lon="15.608152320986143"><ele>258.0</ele><time>2026-04-19T17:49:58Z</time></trkpt><trkpt lat="41.07296009714753" lon="15.608198672364942"><ele>259.0</ele><time>2026-04-19T17:49:59Z</time></trkpt><trkpt lat="41.07276275721674" lon="15.608240792832415"><ele>259.0</ele><time>2026-04-19T17:50:00Z</time></trkpt><trkpt lat="41.07256635420704" lon="15.608279046125649"><ele>259.0</ele><time>2026-04-19T17:50:01Z</time></trkpt><trkpt lat="41.07236540526199" lon="15.608323085020075"><ele>259.0</ele><time>2026-04-19T17:50:02Z</time></trkpt><trkpt lat="41.07217001755976" lon="15.608367573104095"><ele>261.3333333333333</ele><time>2026-04-19T17:50:03Z</time></trkpt><trkpt lat="41.07197696761244" lon="15.608411898714774"><ele>263.6666666666667</ele><time>2026-04-19T17:50:04Z</time></trkpt><trkpt lat="41.071780396445156" lon="15.608458042727467"><ele>266.0</ele><time>2026-04-19T17:50:05Z</time></trkpt><trkpt lat="41.07158174886003" lon="15.6085039179887"><ele>268.33333333333337</ele><time>2026-04-19T17:50:06Z</time></trkpt><trkpt lat="41.07138254921949" lon="15.608543684575215"><ele>270.6666666666667</ele><time>2026-04-19T17:50:07Z</time></trkpt><trkpt lat="41.07119595539835" lon="15.608583515647968"><ele>273.0</ele><time>2026-04-19T17:50:08Z</time></trkpt><trkpt lat="41.07099250472401" lon="15.608622947378851"><ele>273.6666666666667</ele><time>2026-04-19T17:50:09Z</time></trkpt><trkpt lat="41.07079290013666" lon="15.608666348472841"><ele>274.33333333333337</ele><time>2026-04-19T17:50:10Z</time></trkpt><trkpt lat="41.07059715139529" lon="15.608715827760962"><ele>275.0</ele><time>2026-04-19T17:50:11Z</time></trkpt><trkpt lat="41.07039890476538" lon="15.608762750536084"><ele>276.0</ele><time>2026-04-19T17:50:12Z</time></trkpt><trkpt lat="41.07020400424498" lon="15.608803340854568"><ele>277.0</ele><time>2026-04-19T17:50:13Z</time></trkpt><trkpt lat="41.07000725278301" lon="15.608842389665174"><ele>278.0</ele><time>2026-04-19T17:50:14Z</time></trkpt><trkpt lat="41.06980664970056" lon="15.608885869663974"><ele>279.6666666666667</ele><time>2026-04-19T17:50:15Z</time></trkpt><trkpt lat="41.069607998485225" lon="15.608915233233121"><ele>281.3333333333333</ele><time>2026-04-19T17:50:16Z</time></trkpt><trkpt lat="41.06940831733576" lon="15.608959850633456"><ele>283.0</ele><time>2026-04-19T17:50:17Z</time></trkpt><trkpt lat="41.069211119164486" lon="15.609003615731027"><ele>284.66666666666663</ele><time>2026-04-19T17:50:18Z</time></trkpt><trkpt lat="41.069010594766816" lon="15.609047847490613"><ele>286.3333333333333</ele><time>2026-04-19T17:50:19Z</time></trkpt><trkpt lat="41.06881752969284" lon="15.60909043387064"><ele>288.0</ele><time>2026-04-19T17:50:20Z</time></trkpt><trkpt lat="41.06861686064366" lon="15.609134697542629"><ele>288.0</ele><time>2026-04-19T17:50:21Z</time></trkpt><trkpt lat="41.06841364706851" lon="15.609179522484427"><ele>288.0</ele><time>2026-04-19T17:50:22Z</time></trkpt><trkpt lat="41.06821635307999" lon="15.609223041680796"><ele>288.0</ele><time>2026-04-19T17:50:23Z</time></trkpt><trkpt lat="41.068015525281304" lon="15.609267340374126"><ele>288.0</ele><time>2026-04-19T17:50:24Z</time></trkpt><trkpt lat="41.06781653734516" lon="15.609310660636684"><ele>288.0</ele><time>2026-04-19T17:50:25Z</time></trkpt><trkpt lat="41.06762049243627" lon="15.609353274994985"><ele>288.0</ele><time>2026-04-19T17:50:26Z</time></trkpt><trkpt lat="41.067418578180224" lon="15.609397165174418"><ele>288.3333333333333</ele><time>2026-04-19T17:50:27Z</time></trkpt><trkpt lat="41.067216058768594" lon="15.60944195536306"><ele>288.66666666666663</ele><time>2026-04-19T17:50:28Z</time></trkpt><trkpt lat="41.06701383898696" lon="15.609486905508124"><ele>289.0</ele><time>2026-04-19T17:50:29Z</time></trkpt><trkpt lat="41.06681666652515" lon="15.609530631740402"><ele>290.66666666666663</ele><time>2026-04-19T17:50:30Z</time></trkpt><trkpt lat="41.06661066871462" lon="15.609574663044627"><ele>292.3333333333333</ele><time>2026-04-19T17:50:31Z</time></trkpt><trkpt lat="41.0664168086526" lon="15.60961693314834"><ele>294.0</ele><time>2026-04-19T17:50:32Z</time></trkpt><trkpt lat="41.06621514509815" lon="15.60966018339742"><ele>294.0</ele><time>2026-04-19T17:50:33Z</time></trkpt><trkpt lat="41.06601672273563" lon="15.609702492292639"><ele>294.0</ele><time>2026-04-19T17:50:34Z</time></trkpt><trkpt lat="41.065816524206106" lon="15.60974462753887"><ele>294.0</ele><time>2026-04-19T17:50:35Z</time></trkpt><trkpt lat="41.065619380038726" lon="15.609804105822315"><ele>295.6666666666667</ele><time>2026-04-19T17:50:36Z</time></trkpt><trkpt lat="41.065422055962124" lon="15.609837491139473"><ele>297.33333333333337</ele><time>2026-04-19T17:50:37Z</time></trkpt><trkpt lat="41.06521987518324" lon="15.609873064774193"><ele>299.0</ele><time>2026-04-19T17:50:38Z</time></trkpt><trkpt lat="41.06501918216318" lon="15.60990082290987"><ele>300.6666666666667</ele><time>2026-04-19T17:50:39Z</time></trkpt><trkpt lat="41.06481648002528" lon="15.60991910091627"><ele>302.3333333333333</ele><time>2026-04-19T17:50:40Z</time></trkpt><trkpt lat="41.06462227667583" lon="15.609923671389648"><ele>304.0</ele><time>2026-04-19T17:50:41Z</time></trkpt><trkpt lat="41.06441421078348" lon="15.60993208838751"><ele>304.0</ele><time>2026-04-19T17:50:42Z</time></trkpt><trkpt lat="41.06421358397736" lon="15.609924627548219"><ele>304.0</ele><time>2026-04-19T17:50:43Z</time></trkpt><trkpt lat="41.06401165975037" lon="15.609912802826148"><ele>304.0</ele><time>2026-04-19T17:50:44Z</time></trkpt><trkpt lat="41.06381227724022" lon="15.609891850139062"><ele>305.66666666666663</ele><time>2026-04-19T17:50:45Z</time></trkpt><trkpt lat="41.063612799815644" lon="15.609863000381196"><ele>307.3333333333333</ele><time>2026-04-19T17:50:46Z</time></trkpt><trkpt lat="41.063415020952775" lon="15.60982355785971"><ele>309.0</ele><time>2026-04-19T17:50:47Z</time></trkpt><trkpt lat="41.063217446581504" lon="15.609775192472666"><ele>311.0</ele><time>2026-04-19T17:50:48Z</time></trkpt><trkpt lat="41.06302452602436" lon="15.609718478220783"><ele>313.0</ele><time>2026-04-19T17:50:49Z</time></trkpt><trkpt lat="41.062831200674324" lon="15.609657635919392"><ele>315.0</ele><time>2026-04-19T17:50:50Z</time></trkpt><trkpt lat="41.06263668787648" lon="15.609593646618887"><ele>316.6666666666667</ele><time>2026-04-19T17:50:51Z</time></trkpt><trkpt lat="41.06244274074925" lon="15.609528378966626"><ele>318.33333333333337</ele><time>2026-04-19T17:50:52Z</time></trkpt><trkpt lat="41.06224966031512" lon="15.609463686597332"><ele>320.0</ele><time>2026-04-19T17:50:53Z</time></trkpt><trkpt lat="41.06205514529857" lon="15.609395393590104"><ele>320.6666666666667</ele><time>2026-04-19T17:50:54Z</time></trkpt><trkpt lat="41.06186518499726" lon="15.609323484020603"><ele>321.3333333333333</ele><time>2026-04-19T17:50:55Z</time></trkpt><trkpt lat="41.061669339729804" lon="15.609250007652019"><ele>322.0</ele><time>2026-04-19T17:50:56Z</time></trkpt><trkpt lat="41.06147828434875" lon="15.609177449640084"><ele>323.66666666666663</ele><time>2026-04-19T17:50:57Z</time></trkpt><trkpt lat="41.06128652890354" lon="15.609106325021532"><ele>325.3333333333333</ele><time>2026-04-19T17:50:58Z</time></trkpt><trkpt lat="41.06109089956821" lon="15.609038501949003"><ele>327.0</ele><time>2026-04-19T17:50:59Z</time></trkpt><trkpt lat="41.06089416973812" lon="15.608970625424954"><ele>327.3333333333333</ele><time>2026-04-19T17:51:00Z</time></trkpt><trkpt lat="41.060705386251364" lon="15.608899304406185"><ele>327.66666666666663</ele><time>2026-04-19T17:51:01Z</time></trkpt><trkpt lat="41.06050805841566" lon="15.60883044168492"><ele>328.0</ele><time>2026-04-19T17:51:02Z</time></trkpt><trkpt lat="41.060315296804404" lon="15.608764496157772"><ele>328.0</ele><time>2026-04-19T17:51:03Z</time></trkpt><trkpt lat="41.06012011473772" lon="15.60869790188115"><ele>328.0</ele><time>2026-04-19T17:51:04Z</time></trkpt><trkpt lat="41.059928378625074" lon="15.608630284251609"><ele>328.0</ele><time>2026-04-19T17:51:05Z</time></trkpt><trkpt lat="41.05973150326927" lon="15.608561118622656"><ele>328.66666666666663</ele><time>2026-04-19T17:51:06Z</time></trkpt><trkpt lat="41.05953270255802" lon="15.608491055689486"><ele>329.3333333333333</ele><time>2026-04-19T17:51:07Z</time></trkpt><trkpt lat="41.05933896217273" lon="15.608420923279747"><ele>330.0</ele><time>2026-04-19T17:51:08Z</time></trkpt><trkpt lat="41.05914719030264" lon="15.608353107823925"><ele>328.6666666666667</ele><time>2026-04-19T17:51:09Z</time></trkpt><trkpt lat="41.05895579083629" lon="15.608285789440004"><ele>327.33333333333337</ele><time>2026-04-19T17:51:10Z</time></trkpt><trkpt lat="41.05875390065426" lon="15.60822051079508"><ele>326.0</ele><time>2026-04-19T17:51:11Z</time></trkpt><trkpt lat="41.0585658179788" lon="15.60815094202347"><ele>326.0</ele><time>2026-04-19T17:51:12Z</time></trkpt><trkpt lat="41.058371983377974" lon="15.608081425972268"><ele>326.0</ele><time>2026-04-19T17:51:13Z</time></trkpt><trkpt lat="41.05818056736931" lon="15.608012471215273"><ele>326.0</ele><time>2026-04-19T17:51:14Z</time></trkpt><trkpt lat="41.05798560631287" lon="15.607944568284802"><ele>326.6666666666667</ele><time>2026-04-19T17:51:15Z</time></trkpt><trkpt lat="41.057792061090176" lon="15.607876206669435"><ele>327.3333333333333</ele><time>2026-04-19T17:51:16Z</time></trkpt><trkpt lat="41.057602387947" lon="15.607806979694587"><ele>328.0</ele><time>2026-04-19T17:51:17Z</time></trkpt><trkpt lat="41.057410460235886" lon="15.607740695209158"><ele>333.0</ele><time>2026-04-19T17:51:18Z</time></trkpt><trkpt lat="41.05720927897567" lon="15.607674040254185"><ele>338.0</ele><time>2026-04-19T17:51:19Z</time></trkpt><trkpt lat="41.05702150076367" lon="15.607606083778435"><ele>343.0</ele><time>2026-04-19T17:51:20Z</time></trkpt><trkpt lat="41.05682936631816" lon="15.607537483972086"><ele>343.0</ele><time>2026-04-19T17:51:21Z</time></trkpt><trkpt lat="41.05663633539821" lon="15.607468033015754"><ele>343.0</ele><time>2026-04-19T17:51:22Z</time></trkpt><trkpt lat="41.05644344162307" lon="15.607397601650469"><ele>343.0</ele><time>2026-04-19T17:51:23Z</time></trkpt><trkpt lat="41.0562492797069" lon="15.607331019652259"><ele>342.66666666666663</ele><time>2026-04-19T17:51:24Z</time></trkpt><trkpt lat="41.056055141851765" lon="15.60726693526265"><ele>342.3333333333333</ele><time>2026-04-19T17:51:25Z</time></trkpt><trkpt lat="41.05586616463231" lon="15.607180747688183"><ele>342.0</ele><time>2026-04-19T17:51:26Z</time></trkpt><trkpt lat="41.055669068194945" lon="15.607112042879102"><ele>343.0</ele><time>2026-04-19T17:51:27Z</time></trkpt><trkpt lat="41.05547476220045" lon="15.607041449221136"><ele>344.0</ele><time>2026-04-19T17:51:28Z</time></trkpt><trkpt lat="41.05527633337343" lon="15.606968927720025"><ele>345.0</ele><time>2026-04-19T17:51:29Z</time></trkpt><trkpt lat="41.055092849226334" lon="15.606901868179888"><ele>347.6666666666667</ele><time>2026-04-19T17:51:30Z</time></trkpt><trkpt lat="41.05489408329948" lon="15.606831638355445"><ele>350.33333333333337</ele><time>2026-04-19T17:51:31Z</time></trkpt><trkpt lat="41.0547019148599" lon="15.606765022984082"><ele>353.0</ele><time>2026-04-19T17:51:32Z</time></trkpt><trkpt lat="41.05450920127125" lon="15.606700607285477"><ele>353.0</ele><time>2026-04-19T17:51:33Z</time></trkpt><trkpt lat="41.05432844955173" lon="15.606651057049632"><ele>353.0</ele><time>2026-04-19T17:51:34Z</time></trkpt><trkpt lat="41.0541747451183" lon="15.606617042302702"><ele>353.0</ele><time>2026-04-19T17:51:35Z</time></trkpt><trkpt lat="41.0540438928179" lon="15.606593210464316"><ele>352.75</ele><time>2026-04-19T17:51:36Z</time></trkpt><trkpt lat="41.05391265354379" lon="15.606573025568116"><ele>352.5</ele><time>2026-04-19T17:51:37Z</time></trkpt><trkpt lat="41.053775993416146" lon="15.60655419874342"><ele>352.25</ele><time>2026-04-19T17:51:38Z</time></trkpt><trkpt lat="41.05364309943071" lon="15.6065438944472"><ele>352.0</ele><time>2026-04-19T17:51:39Z</time></trkpt><trkpt lat="41.05352778440575" lon="15.606540561164959"><ele>352.0</ele><time>2026-04-19T17:51:40Z</time></trkpt><trkpt lat="41.05341213605645" lon="15.606537895196334"><ele>352.0</ele><time>2026-04-19T17:51:41Z</time></trkpt><trkpt lat="41.05328977858028" lon="15.606537895197757"><ele>352.0</ele><time>2026-04-19T17:51:42Z</time></trkpt><trkpt lat="41.05315434911499" lon="15.606543575378081"><ele>352.0</ele><time>2026-04-19T17:51:43Z</time></trkpt><trkpt lat="41.053006442492034" lon="15.606554266492065"><ele>353.3333333333333</ele><time>2026-04-19T17:51:44Z</time></trkpt><trkpt lat="41.052852224316105" lon="15.606571538306266"><ele>354.6666666666667</ele><time>2026-04-19T17:51:45Z</time></trkpt><trkpt lat="41.052699513646445" lon="15.606597057900192"><ele>356.0</ele><time>2026-04-19T17:51:46Z</time></trkpt><trkpt lat="41.052536000589015" lon="15.606633458221213"><ele>360.33333333333337</ele><time>2026-04-19T17:51:47Z</time></trkpt><trkpt lat="41.05237479632562" lon="15.606671817962459"><ele>364.6666666666667</ele><time>2026-04-19T17:51:48Z</time></trkpt><trkpt lat="41.05221140918168" lon="15.606710697119784"><ele>369.0</ele><time>2026-04-19T17:51:49Z</time></trkpt><trkpt lat="41.0520579302756" lon="15.606747237710453"><ele>369.0</ele><time>2026-04-19T17:51:50Z</time></trkpt><trkpt lat="41.051914408167555" lon="15.606782002615892"><ele>369.0</ele><time>2026-04-19T17:51:51Z</time></trkpt><trkpt lat="41.05177332761027" lon="15.606816176110163"><ele>369.0</ele><time>2026-04-19T17:51:52Z</time></trkpt><trkpt lat="41.051633259764294" lon="15.6068501042978"><ele>369.0</ele><time>2026-04-19T17:51:53Z</time></trkpt><trkpt lat="41.05147975800279" lon="15.606886887548098"><ele>370.0</ele><time>2026-04-19T17:51:54Z</time></trkpt><trkpt lat="41.05132297878512" lon="15.606923491620764"><ele>371.0</ele><time>2026-04-19T17:51:55Z</time></trkpt><trkpt lat="41.05116363024001" lon="15.6069606955818"><ele>372.0</ele><time>2026-04-19T17:51:56Z</time></trkpt><trkpt lat="41.05101044533736" lon="15.606996460465771"><ele>372.0</ele><time>2026-04-19T17:51:57Z</time></trkpt><trkpt lat="41.05087672953884" lon="15.607027887431132"><ele>372.0</ele><time>2026-04-19T17:51:58Z</time></trkpt><trkpt lat="41.050785484556656" lon="15.607048744847535"><ele>372.0</ele><time>2026-04-19T17:51:59Z</time></trkpt><trkpt lat="41.05070113040986" lon="15.607064205251593"><ele>372.0</ele><time>2026-04-19T17:52:00Z</time></trkpt><trkpt lat="41.05061363976647" lon="15.60707838437486"><ele>372.0</ele><time>2026-04-19T17:52:01Z</time></trkpt><trkpt lat="41.050500971472296" lon="15.607095625519214"><ele>375.20000000000005</ele><time>2026-04-19T17:52:02Z</time></trkpt><trkpt lat="41.05040344162072" lon="15.607118967001867"><ele>378.4</ele><time>2026-04-19T17:52:03Z</time></trkpt><trkpt lat="41.05029858817787" lon="15.607069615520762"><ele>381.6</ele><time>2026-04-19T17:52:04Z</time></trkpt><trkpt lat="41.050178865729066" lon="15.607059386697221"><ele>384.79999999999995</ele><time>2026-04-19T17:52:05.069Z</time></trkpt><trkpt lat="41.05006836183253" lon="15.607058751404718"><ele>388.0</ele><time>2026-04-19T17:52:06.066Z</time></trkpt><trkpt lat="41.04995887306508" lon="15.60704970096427"><ele>386.0</ele><time>2026-04-19T17:52:07.063Z</time></trkpt><trkpt lat="41.04855880960903" lon="15.60698067752239"><ele>386.0</ele><time>2026-04-19T17:52:15Z</time></trkpt><trkpt lat="41.048429778661244" lon="15.606939309200923"><ele>386.0</ele><time>2026-04-19T17:52:16Z</time></trkpt><trkpt lat="41.04830849426639" lon="15.606875244254173"><ele>386.0</ele><time>2026-04-19T17:52:17Z</time></trkpt><trkpt lat="41.04821309065821" lon="15.60682831701754"><ele>386.0</ele><time>2026-04-19T17:52:18Z</time></trkpt><trkpt lat="41.04812042254509" lon="15.606789946904009"><ele>384.16666666666663</ele><time>2026-04-19T17:52:19Z</time></trkpt><trkpt lat="41.04805198283531" lon="15.606760363839037"><ele>382.3333333333333</ele><time>2026-04-19T17:52:20Z</time></trkpt><trkpt lat="41.04794721707949" lon="15.606733198160004"><ele>380.5</ele><time>2026-04-19T17:52:22Z</time></trkpt><trkpt lat="41.04787446953523" lon="15.606705233140401"><ele>378.66666666666663</ele><time>2026-04-19T17:52:23Z</time></trkpt><trkpt lat="41.04780495712464" lon="15.606679949121979"><ele>376.8333333333333</ele><time>2026-04-19T17:52:24Z</time></trkpt><trkpt lat="41.047739469703245" lon="15.606655312890648"><ele>375.0</ele><time>2026-04-19T17:52:25Z</time></trkpt><trkpt lat="41.04764896838108" lon="15.606622493322641"><ele>375.0</ele><time>2026-04-19T17:52:26Z</time></trkpt><trkpt lat="41.047561540234625" lon="15.606588986764411"><ele>375.0</ele><time>2026-04-19T17:52:27Z</time></trkpt><trkpt lat="41.047474328249024" lon="15.606555786202215"><ele>375.0</ele><time>2026-04-19T17:52:28Z</time></trkpt><trkpt lat="41.047383310272934" lon="15.606519832001164"><ele>375.0</ele><time>2026-04-19T17:52:29Z</time></trkpt><trkpt lat="41.04728769579845" lon="15.60648398326834"><ele>375.0</ele><time>2026-04-19T17:52:30Z</time></trkpt><trkpt lat="41.04719489890257" lon="15.606448849658756"><ele>374.0</ele><time>2026-04-19T17:52:31Z</time></trkpt><trkpt lat="41.04709566620229" lon="15.606415603540421"><ele>373.0</ele><time>2026-04-19T17:52:32Z</time></trkpt><trkpt lat="41.046980816252024" lon="15.606373699114817"><ele>372.0</ele><time>2026-04-19T17:52:33Z</time></trkpt><trkpt lat="41.046867281016" lon="15.606331873645633"><ele>371.0</ele><time>2026-04-19T17:52:34Z</time></trkpt><trkpt lat="41.04674277608148" lon="15.606284152114576"><ele>373.5</ele><time>2026-04-19T17:52:35Z</time></trkpt><trkpt lat="41.04661453944235" lon="15.60623507420577"><ele>376.0</ele><time>2026-04-19T17:52:36Z</time></trkpt><trkpt lat="41.04647770532623" lon="15.606184304880038"><ele>378.5</ele><time>2026-04-19T17:52:37Z</time></trkpt><trkpt lat="41.04633602933175" lon="15.606131612308333"><ele>381.0</ele><time>2026-04-19T17:52:38Z</time></trkpt><trkpt lat="41.04619883856556" lon="15.606079898382253"><ele>382.6</ele><time>2026-04-19T17:52:39Z</time></trkpt><trkpt lat="41.04608931423356" lon="15.606036059133753"><ele>384.20000000000005</ele><time>2026-04-19T17:52:40Z</time></trkpt><trkpt lat="41.04599560025992" lon="15.606005996909882"><ele>385.79999999999995</ele><time>2026-04-19T17:52:41Z</time></trkpt><trkpt lat="41.04590341774579" lon="15.60596899585857"><ele>387.4</ele><time>2026-04-19T17:52:42Z</time></trkpt><trkpt lat="41.045805992754595" lon="15.605935719957953"><ele>389.0</ele><time>2026-04-19T17:52:43Z</time></trkpt><trkpt lat="41.045697969530465" lon="15.605891270471933"><ele>391.5</ele><time>2026-04-19T17:52:44Z</time></trkpt><trkpt lat="41.04557261259817" lon="15.605842130172558"><ele>394.0</ele><time>2026-04-19T17:52:45Z</time></trkpt><trkpt lat="41.04544558177086" lon="15.605794928579654"><ele>396.5</ele><time>2026-04-19T17:52:46Z</time></trkpt><trkpt lat="41.04530174207908" lon="15.60575310250179"><ele>399.0</ele><time>2026-04-19T17:52:47Z</time></trkpt><trkpt lat="41.04515029012702" lon="15.605719410920624"><ele>399.0</ele><time>2026-04-19T17:52:48Z</time></trkpt><trkpt lat="41.044994865529034" lon="15.605670633594698"><ele>399.0</ele><time>2026-04-19T17:52:49Z</time></trkpt><trkpt lat="41.04483208590317" lon="15.60567350114298"><ele>399.0</ele><time>2026-04-19T17:52:50Z</time></trkpt><trkpt lat="41.044665059347274" lon="15.605664159913633"><ele>399.66666666666663</ele><time>2026-04-19T17:52:51Z</time></trkpt><trkpt lat="41.04449612985851" lon="15.605641560577222"><ele>400.3333333333333</ele><time>2026-04-19T17:52:52Z</time></trkpt><trkpt lat="41.04433082249981" lon="15.605637372319634"><ele>401.0</ele><time>2026-04-19T17:52:53Z</time></trkpt><trkpt lat="41.04415675229948" lon="15.605627367598359"><ele>401.3333333333333</ele><time>2026-04-19T17:52:54Z</time></trkpt><trkpt lat="41.043979621757956" lon="15.605624910873813"><ele>401.66666666666663</ele><time>2026-04-19T17:52:55Z</time></trkpt><trkpt lat="41.04380200643703" lon="15.605587656945692"><ele>402.0</ele><time>2026-04-19T17:52:56Z</time></trkpt><trkpt lat="41.043626672411634" lon="15.60554570944274"><ele>402.0</ele><time>2026-04-19T17:52:57Z</time></trkpt><trkpt lat="41.043446041588886" lon="15.605499990714645"><ele>402.0</ele><time>2026-04-19T17:52:58Z</time></trkpt><trkpt lat="41.04327305180228" lon="15.605436513976837"><ele>402.0</ele><time>2026-04-19T17:52:59Z</time></trkpt><trkpt lat="41.04309699080701" lon="15.6053605031911"><ele>404.33333333333337</ele><time>2026-04-19T17:53:00Z</time></trkpt><trkpt lat="41.042919878401754" lon="15.60527468925085"><ele>406.6666666666667</ele><time>2026-04-19T17:53:01Z</time></trkpt><trkpt lat="41.04274365234503" lon="15.605182020696777"><ele>409.0</ele><time>2026-04-19T17:53:02Z</time></trkpt><trkpt lat="41.04257102274328" lon="15.60508035941508"><ele>407.0</ele><time>2026-04-19T17:53:03Z</time></trkpt><trkpt lat="41.04239234889841" lon="15.604964116587771"><ele>405.0</ele><time>2026-04-19T17:53:04Z</time></trkpt><trkpt lat="41.042218505170524" lon="15.604854986537108"><ele>403.0</ele><time>2026-04-19T17:53:05Z</time></trkpt><trkpt lat="41.04204267922684" lon="15.604751868405137"><ele>403.0</ele><time>2026-04-19T17:53:06Z</time></trkpt><trkpt lat="41.04186548267666" lon="15.604640182397716"><ele>403.0</ele><time>2026-04-19T17:53:07Z</time></trkpt><trkpt lat="41.04168919992058" lon="15.604522171470816"><ele>403.0</ele><time>2026-04-19T17:53:08Z</time></trkpt><trkpt lat="41.04150959661093" lon="15.604408284801567"><ele>404.33333333333337</ele><time>2026-04-19T17:53:09Z</time></trkpt><trkpt lat="41.04133141165885" lon="15.604297582318765"><ele>405.66666666666663</ele><time>2026-04-19T17:53:10Z</time></trkpt><trkpt lat="41.04115394426014" lon="15.604190746663054"><ele>407.0</ele><time>2026-04-19T17:53:11Z</time></trkpt><trkpt lat="41.04097194873803" lon="15.60407418792229"><ele>410.66666666666663</ele><time>2026-04-19T17:53:12Z</time></trkpt><trkpt lat="41.0407928240555" lon="15.603957473270455"><ele>414.33333333333337</ele><time>2026-04-19T17:53:13Z</time></trkpt><trkpt lat="41.04061857257888" lon="15.603844674571643"><ele>418.0</ele><time>2026-04-19T17:53:14Z</time></trkpt><trkpt lat="41.040439514740875" lon="15.603733135536938"><ele>420.0</ele><time>2026-04-19T17:53:15Z</time></trkpt><trkpt lat="41.04025316645797" lon="15.603621256681377"><ele>422.0</ele><time>2026-04-19T17:53:16Z</time></trkpt><trkpt lat="41.04006874278495" lon="15.603517375553155"><ele>424.0</ele><time>2026-04-19T17:53:17Z</time></trkpt><trkpt lat="41.03988310413733" lon="15.60342625487743"><ele>426.6666666666667</ele><time>2026-04-19T17:53:18Z</time></trkpt><trkpt lat="41.03969075809458" lon="15.603350581527756"><ele>429.33333333333337</ele><time>2026-04-19T17:53:19Z</time></trkpt><trkpt lat="41.03949798603266" lon="15.603285702073531"><ele>432.0</ele><time>2026-04-19T17:53:20Z</time></trkpt><trkpt lat="41.03929942996916" lon="15.603236492697114"><ele>433.33333333333337</ele><time>2026-04-19T17:53:21Z</time></trkpt><trkpt lat="41.0391005690955" lon="15.603207407407844"><ele>434.6666666666667</ele><time>2026-04-19T17:53:22Z</time></trkpt><trkpt lat="41.03890078193181" lon="15.603193084129282"><ele>436.0</ele><time>2026-04-19T17:53:23Z</time></trkpt><trkpt lat="41.03870153265944" lon="15.603194961705553"><ele>436.0</ele><time>2026-04-19T17:53:24Z</time></trkpt><trkpt lat="41.03850304899853" lon="15.603209046969004"><ele>436.0</ele><time>2026-04-19T17:53:25Z</time></trkpt><trkpt lat="41.03829966423995" lon="15.60321523051766"><ele>436.0</ele><time>2026-04-19T17:53:26Z</time></trkpt><trkpt lat="41.03809967500574" lon="15.603259589680755"><ele>436.6666666666667</ele><time>2026-04-19T17:53:27Z</time></trkpt><trkpt lat="41.03790421719945" lon="15.603320484693297"><ele>437.33333333333337</ele><time>2026-04-19T17:53:28Z</time></trkpt><trkpt lat="41.03770436608829" lon="15.603390683863068"><ele>438.0</ele><time>2026-04-19T17:53:29Z</time></trkpt><trkpt lat="41.03750967579976" lon="15.603475481935282"><ele>437.0</ele><time>2026-04-19T17:53:30Z</time></trkpt><trkpt lat="41.0373209132023" lon="15.603576354388082"><ele>436.0</ele><time>2026-04-19T17:53:31Z</time></trkpt><trkpt lat="41.03713406266161" lon="15.603695103677838"><ele>435.0</ele><time>2026-04-19T17:53:32Z</time></trkpt><trkpt lat="41.036953134207266" lon="15.603827945019141"><ele>435.0</ele><time>2026-04-19T17:53:33Z</time></trkpt><trkpt lat="41.036775390506264" lon="15.603979630483039"><ele>435.0</ele><time>2026-04-19T17:53:34Z</time></trkpt><trkpt lat="41.03660521682494" lon="15.604139470195003"><ele>435.0</ele><time>2026-04-19T17:53:35Z</time></trkpt><trkpt lat="41.03644262048615" lon="15.604308251028002"><ele>435.66666666666663</ele><time>2026-04-19T17:53:36Z</time></trkpt><trkpt lat="41.036287839966306" lon="15.604501839428455"><ele>436.3333333333333</ele><time>2026-04-19T17:53:37Z</time></trkpt><trkpt lat="41.03615862467571" lon="15.604722795567172"><ele>437.0</ele><time>2026-04-19T17:53:38Z</time></trkpt><trkpt lat="41.036022903288504" lon="15.604923524276476"><ele>437.0</ele><time>2026-04-19T17:53:39Z</time></trkpt><trkpt lat="41.035883353185945" lon="15.605122608933568"><ele>437.0</ele><time>2026-04-19T17:53:40Z</time></trkpt><trkpt lat="41.0357433636714" lon="15.605308888634427"><ele>437.0</ele><time>2026-04-19T17:53:41Z</time></trkpt><trkpt lat="41.035591466324924" lon="15.60550681750294"><ele>441.0</ele><time>2026-04-19T17:53:42Z</time></trkpt><trkpt lat="41.03545253239992" lon="15.605700872487102"><ele>445.0</ele><time>2026-04-19T17:53:43Z</time></trkpt><trkpt lat="41.03531346517007" lon="15.605900545871515"><ele>449.0</ele><time>2026-04-19T17:53:44Z</time></trkpt><trkpt lat="41.03517514135963" lon="15.60609656388036"><ele>446.66666666666663</ele><time>2026-04-19T17:53:45Z</time></trkpt><trkpt lat="41.035035403028246" lon="15.606296641887905"><ele>444.33333333333337</ele><time>2026-04-19T17:53:46Z</time></trkpt><trkpt lat="41.034894790592226" lon="15.606494404435647"><ele>442.0</ele><time>2026-04-19T17:53:47Z</time></trkpt><trkpt lat="41.03475301494622" lon="15.606697714630103"><ele>444.6666666666667</ele><time>2026-04-19T17:53:48Z</time></trkpt><trkpt lat="41.03461362762617" lon="15.60688622453626"><ele>447.33333333333337</ele><time>2026-04-19T17:53:49Z</time></trkpt><trkpt lat="41.034470137795005" lon="15.607090751576424"><ele>450.0</ele><time>2026-04-19T17:53:50Z</time></trkpt><trkpt lat="41.03433003157468" lon="15.60727748957414"><ele>450.0</ele><time>2026-04-19T17:53:51Z</time></trkpt><trkpt lat="41.034188035118966" lon="15.607473629813203"><ele>450.0</ele><time>2026-04-19T17:53:52Z</time></trkpt><trkpt lat="41.03404548618905" lon="15.607673272327233"><ele>450.0</ele><time>2026-04-19T17:53:53Z</time></trkpt><trkpt lat="41.033902586968075" lon="15.607870739396274"><ele>449.66666666666663</ele><time>2026-04-19T17:53:54Z</time></trkpt><trkpt lat="41.033759052085124" lon="15.608065758009372"><ele>449.3333333333333</ele><time>2026-04-19T17:53:55Z</time></trkpt><trkpt lat="41.03361646211151" lon="15.608258867049981"><ele>449.0</ele><time>2026-04-19T17:53:56Z</time></trkpt><trkpt lat="41.03347357300713" lon="15.608461790306793"><ele>446.3333333333333</ele><time>2026-04-19T17:53:57Z</time></trkpt><trkpt lat="41.033330452544504" lon="15.60867013289049"><ele>443.66666666666663</ele><time>2026-04-19T17:53:58Z</time></trkpt><trkpt lat="41.03319179214609" lon="15.608862866236375"><ele>441.0</ele><time>2026-04-19T17:53:59Z</time></trkpt><trkpt lat="41.03302574396945" lon="15.609050332892037"><ele>446.66666666666663</ele><time>2026-04-19T17:54:00Z</time></trkpt><trkpt lat="41.03288493626281" lon="15.609246940717526"><ele>452.3333333333333</ele><time>2026-04-19T17:54:01Z</time></trkpt><trkpt lat="41.03273798615027" lon="15.609451482079038"><ele>458.0</ele><time>2026-04-19T17:54:02Z</time></trkpt><trkpt lat="41.03259518336085" lon="15.609652840351377"><ele>465.66666666666663</ele><time>2026-04-19T17:54:03Z</time></trkpt><trkpt lat="41.03244773511512" lon="15.609859441986288"><ele>473.33333333333337</ele><time>2026-04-19T17:54:04Z</time></trkpt><trkpt lat="41.03230365944771" lon="15.610061318055193"><ele>481.0</ele><time>2026-04-19T17:54:05Z</time></trkpt><trkpt lat="41.03215786077788" lon="15.610263868211847"><ele>477.0</ele><time>2026-04-19T17:54:06Z</time></trkpt><trkpt lat="41.0320146457755" lon="15.610462825956878"><ele>473.0</ele><time>2026-04-19T17:54:07Z</time></trkpt><trkpt lat="41.03186981154678" lon="15.610664033176729"><ele>469.0</ele><time>2026-04-19T17:54:08Z</time></trkpt><trkpt lat="41.03172211849935" lon="15.610869211977112"><ele>473.0</ele><time>2026-04-19T17:54:09Z</time></trkpt><trkpt lat="41.0315819002616" lon="15.611064006545794"><ele>477.0</ele><time>2026-04-19T17:54:10Z</time></trkpt><trkpt lat="41.031438749770004" lon="15.611262874792768"><ele>481.0</ele><time>2026-04-19T17:54:11Z</time></trkpt><trkpt lat="41.031292348735164" lon="15.611466258613591"><ele>481.0</ele><time>2026-04-19T17:54:12Z</time></trkpt><trkpt lat="41.03115109412373" lon="15.61166322243316"><ele>481.0</ele><time>2026-04-19T17:54:13Z</time></trkpt><trkpt lat="41.03100962673584" lon="15.6118611136713"><ele>481.0</ele><time>2026-04-19T17:54:14Z</time></trkpt><trkpt lat="41.03086484718074" lon="15.612063638135886"><ele>485.33333333333337</ele><time>2026-04-19T17:54:15Z</time></trkpt><trkpt lat="41.03072003371156" lon="15.61226621000138"><ele>489.66666666666663</ele><time>2026-04-19T17:54:16Z</time></trkpt><trkpt lat="41.03057922868196" lon="15.612463174688305"><ele>494.0</ele><time>2026-04-19T17:54:17Z</time></trkpt><trkpt lat="41.030434263894946" lon="15.612665958231709"><ele>489.0</ele><time>2026-04-19T17:54:18Z</time></trkpt><trkpt lat="41.030292512319946" lon="15.612864246997875"><ele>484.0</ele><time>2026-04-19T17:54:19Z</time></trkpt><trkpt lat="41.0301484144448" lon="15.613058197503467"><ele>479.0</ele><time>2026-04-19T17:54:20Z</time></trkpt><trkpt lat="41.02999183492869" lon="15.613240944992132"><ele>478.0</ele><time>2026-04-19T17:54:21Z</time></trkpt><trkpt lat="41.029823056264235" lon="15.61340530399902"><ele>477.0</ele><time>2026-04-19T17:54:22Z</time></trkpt><trkpt lat="41.0296617975178" lon="15.613565428478731"><ele>476.0</ele><time>2026-04-19T17:54:23Z</time></trkpt><trkpt lat="41.02947534464512" lon="15.613696320559441"><ele>476.0</ele><time>2026-04-19T17:54:24Z</time></trkpt><trkpt lat="41.02928511841889" lon="15.61381442647032"><ele>476.0</ele><time>2026-04-19T17:54:25Z</time></trkpt><trkpt lat="41.02909491132759" lon="15.613921088037275"><ele>476.0</ele><time>2026-04-19T17:54:26Z</time></trkpt><trkpt lat="41.02889344095568" lon="15.614016397905937"><ele>475.66666666666663</ele><time>2026-04-19T17:54:27Z</time></trkpt><trkpt lat="41.02869535468383" lon="15.614109411869007"><ele>475.33333333333337</ele><time>2026-04-19T17:54:28Z</time></trkpt><trkpt lat="41.02850145526749" lon="15.614203403653685"><ele>475.0</ele><time>2026-04-19T17:54:29Z</time></trkpt><trkpt lat="41.028303070206114" lon="15.61430020412678"><ele>475.0</ele><time>2026-04-19T17:54:30Z</time></trkpt><trkpt lat="41.02811541327196" lon="15.6144087432385"><ele>475.0</ele><time>2026-04-19T17:54:31Z</time></trkpt><trkpt lat="41.02792168245201" lon="15.614506057352576"><ele>475.0</ele><time>2026-04-19T17:54:32Z</time></trkpt><trkpt lat="41.02774639608935" lon="15.614648444793811"><ele>472.0</ele><time>2026-04-19T17:54:33Z</time></trkpt><trkpt lat="41.02759455829081" lon="15.614810469507987"><ele>469.0</ele><time>2026-04-19T17:54:34Z</time></trkpt><trkpt lat="41.02743705071418" lon="15.614981499697661"><ele>466.0</ele><time>2026-04-19T17:54:35Z</time></trkpt><trkpt lat="41.02728021583526" lon="15.615165835968877"><ele>461.33333333333337</ele><time>2026-04-19T17:54:36Z</time></trkpt><trkpt lat="41.02713436336188" lon="15.615356942450468"><ele>456.66666666666663</ele><time>2026-04-19T17:54:37Z</time></trkpt><trkpt lat="41.02700355243036" lon="15.615547630573918"><ele>452.0</ele><time>2026-04-19T17:54:38Z</time></trkpt><trkpt lat="41.02687845925871" lon="15.61575596453368"><ele>452.0</ele><time>2026-04-19T17:54:39Z</time></trkpt><trkpt lat="41.02676321915293" lon="15.615973884881704"><ele>452.0</ele><time>2026-04-19T17:54:40Z</time></trkpt><trkpt lat="41.026657176151424" lon="15.616191843309473"><ele>452.0</ele><time>2026-04-19T17:54:41Z</time></trkpt><trkpt lat="41.0265577175787" lon="15.616427406136387"><ele>458.66666666666663</ele><time>2026-04-19T17:54:42Z</time></trkpt><trkpt lat="41.02647137821896" lon="15.616668034534321"><ele>465.33333333333337</ele><time>2026-04-19T17:54:43Z</time></trkpt><trkpt lat="41.026389740870336" lon="15.61691266266251"><ele>472.0</ele><time>2026-04-19T17:54:44Z</time></trkpt><trkpt lat="41.02631145099513" lon="15.61716247564803"><ele>475.6666666666667</ele><time>2026-04-19T17:54:45Z</time></trkpt><trkpt lat="41.026236626656846" lon="15.617401230489252"><ele>479.33333333333337</ele><time>2026-04-19T17:54:46Z</time></trkpt><trkpt lat="41.02615828886093" lon="15.617651196232334"><ele>483.0</ele><time>2026-04-19T17:54:47Z</time></trkpt><trkpt lat="41.02608195865845" lon="15.61789475620968"><ele>483.33333333333337</ele><time>2026-04-19T17:54:48Z</time></trkpt><trkpt lat="41.02600416690425" lon="15.61814297970086"><ele>483.6666666666667</ele><time>2026-04-19T17:54:49Z</time></trkpt><trkpt lat="41.025927104676576" lon="15.61838887535877"><ele>484.0</ele><time>2026-04-19T17:54:50Z</time></trkpt><trkpt lat="41.02585130077935" lon="15.618630755761258"><ele>479.6666666666667</ele><time>2026-04-19T17:54:51Z</time></trkpt><trkpt lat="41.025773680044416" lon="15.618878433646124"><ele>475.33333333333337</ele><time>2026-04-19T17:54:52Z</time></trkpt><trkpt lat="41.02569619269392" lon="15.619125685835707"><ele>471.0</ele><time>2026-04-19T17:54:53Z</time></trkpt><trkpt lat="41.025619605753896" lon="15.619370064864565"><ele>473.33333333333337</ele><time>2026-04-19T17:54:54Z</time></trkpt><trkpt lat="41.02554208654648" lon="15.619618077062587"><ele>475.6666666666667</ele><time>2026-04-19T17:54:55Z</time></trkpt><trkpt lat="41.02546501722283" lon="15.619864957511059"><ele>478.0</ele><time>2026-04-19T17:54:56Z</time></trkpt><trkpt lat="41.02538885040092" lon="15.62010894712088"><ele>483.0</ele><time>2026-04-19T17:54:57Z</time></trkpt><trkpt lat="41.02530980859209" lon="15.620356563689572"><ele>488.0</ele><time>2026-04-19T17:54:58Z</time></trkpt><trkpt lat="41.025230935271935" lon="15.620598209655963"><ele>493.0</ele><time>2026-04-19T17:54:59Z</time></trkpt><trkpt lat="41.025147192363114" lon="15.620838160754461"><ele>493.0</ele><time>2026-04-19T17:55:00Z</time></trkpt><trkpt lat="41.02505254803737" lon="15.621064538373256"><ele>493.0</ele><time>2026-04-19T17:55:01Z</time></trkpt><trkpt lat="41.02494467654936" lon="15.621286740559475"><ele>493.0</ele><time>2026-04-19T17:55:02Z</time></trkpt><trkpt lat="41.02482190827556" lon="15.621510608180118"><ele>497.33333333333337</ele><time>2026-04-19T17:55:03Z</time></trkpt><trkpt lat="41.02470027486949" lon="15.621709088307485"><ele>501.66666666666663</ele><time>2026-04-19T17:55:04Z</time></trkpt><trkpt lat="41.02456008833304" lon="15.62191138553586"><ele>506.0</ele><time>2026-04-19T17:55:05Z</time></trkpt><trkpt lat="41.024420046820076" lon="15.622094365998333"><ele>508.0</ele><time>2026-04-19T17:55:06Z</time></trkpt><trkpt lat="41.024266036309164" lon="15.622275759281802"><ele>510.0</ele><time>2026-04-19T17:55:07Z</time></trkpt><trkpt lat="41.024109955833914" lon="15.622438845927748"><ele>512.0</ele><time>2026-04-19T17:55:08Z</time></trkpt><trkpt lat="41.023943412472015" lon="15.62259197683839"><ele>514.0</ele><time>2026-04-19T17:55:09Z</time></trkpt><trkpt lat="41.02377320962377" lon="15.622733246740616"><ele>516.0</ele><time>2026-04-19T17:55:10Z</time></trkpt><trkpt lat="41.023602894419945" lon="15.622859180758066"><ele>518.0</ele><time>2026-04-19T17:55:11Z</time></trkpt><trkpt lat="41.02342672703396" lon="15.622984881436546"><ele>523.0</ele><time>2026-04-19T17:55:12Z</time></trkpt><trkpt lat="41.0232617294047" lon="15.623123164630064"><ele>528.0</ele><time>2026-04-19T17:55:13Z</time></trkpt><trkpt lat="41.02308594914703" lon="15.623244246092993"><ele>533.0</ele><time>2026-04-19T17:55:14Z</time></trkpt><trkpt lat="41.02291454583686" lon="15.623372363881316"><ele>533.0</ele><time>2026-04-19T17:55:15Z</time></trkpt><trkpt lat="41.02273796323844" lon="15.623477315112977"><ele>533.0</ele><time>2026-04-19T17:55:16Z</time></trkpt><trkpt lat="41.022567411060805" lon="15.623599052191832"><ele>533.0</ele><time>2026-04-19T17:55:17Z</time></trkpt><trkpt lat="41.02239996895049" lon="15.623741653137035"><ele>536.6666666666666</ele><time>2026-04-19T17:55:18Z</time></trkpt><trkpt lat="41.02222222693204" lon="15.62384527068647"><ele>540.3333333333334</ele><time>2026-04-19T17:55:19Z</time></trkpt><trkpt lat="41.02205096350977" lon="15.623967432244292"><ele>544.0</ele><time>2026-04-19T17:55:20Z</time></trkpt><trkpt lat="41.02188066151615" lon="15.62408890802517"><ele>544.0</ele><time>2026-04-19T17:55:21Z</time></trkpt><trkpt lat="41.02170824736814" lon="15.624211862181838"><ele>544.0</ele><time>2026-04-19T17:55:22Z</time></trkpt><trkpt lat="41.021538619563046" lon="15.624332829212976"><ele>544.0</ele><time>2026-04-19T17:55:23Z</time></trkpt><trkpt lat="41.021368125064726" lon="15.624453366888918"><ele>543.6666666666667</ele><time>2026-04-19T17:55:24Z</time></trkpt><trkpt lat="41.02119150723627" lon="15.624580064092749"><ele>543.3333333333334</ele><time>2026-04-19T17:55:25Z</time></trkpt><trkpt lat="41.021021668021326" lon="15.624701898303154"><ele>543.0</ele><time>2026-04-19T17:55:26Z</time></trkpt><trkpt lat="41.020858272511134" lon="15.624819388596677"><ele>545.3333333333334</ele><time>2026-04-19T17:55:27Z</time></trkpt><trkpt lat="41.02068150141438" lon="15.624946128404698"><ele>547.6666666666667</ele><time>2026-04-19T17:55:28Z</time></trkpt><trkpt lat="41.020512871041156" lon="15.625067026478055"><ele>550.0</ele><time>2026-04-19T17:55:29Z</time></trkpt><trkpt lat="41.02033926146674" lon="15.625191494442042"><ele>550.0</ele><time>2026-04-19T17:55:30Z</time></trkpt><trkpt lat="41.02017111731645" lon="15.625312043856525"><ele>550.0</ele><time>2026-04-19T17:55:31Z</time></trkpt><trkpt lat="41.020001298104845" lon="15.625433794220928"><ele>550.0</ele><time>2026-04-19T17:55:32Z</time></trkpt><trkpt lat="41.019834427210796" lon="15.625577842040274"><ele>552.6666666666667</ele><time>2026-04-19T17:55:33Z</time></trkpt><trkpt lat="41.01965631483333" lon="15.625680106839477"><ele>555.3333333333334</ele><time>2026-04-19T17:55:34Z</time></trkpt><trkpt lat="41.01948262585034" lon="15.625802546677711"><ele>558.0</ele><time>2026-04-19T17:55:35Z</time></trkpt><trkpt lat="41.01930809743021" lon="15.625925717125396"><ele>560.0</ele><time>2026-04-19T17:55:36Z</time></trkpt><trkpt lat="41.019131140930185" lon="15.626050694407342"><ele>562.0</ele><time>2026-04-19T17:55:37Z</time></trkpt><trkpt lat="41.018959757683994" lon="15.626171733902211"><ele>564.0</ele><time>2026-04-19T17:55:38Z</time></trkpt><trkpt lat="41.018778965913306" lon="15.626299809161585"><ele>564.0</ele><time>2026-04-19T17:55:39Z</time></trkpt><trkpt lat="41.018605525676335" lon="15.626446245043365"><ele>564.0</ele><time>2026-04-19T17:55:40Z</time></trkpt><trkpt lat="41.01842704243363" lon="15.626563269461283"><ele>564.0</ele><time>2026-04-19T17:55:41Z</time></trkpt><trkpt lat="41.0182399971342" lon="15.626669506829055"><ele>565.6666666666666</ele><time>2026-04-19T17:55:42Z</time></trkpt><trkpt lat="41.018051485542415" lon="15.626738844742983"><ele>567.3333333333333</ele><time>2026-04-19T17:55:43Z</time></trkpt><trkpt lat="41.017878359632974" lon="15.626806846443438"><ele>569.0</ele><time>2026-04-19T17:55:44Z</time></trkpt><trkpt lat="41.017706458757" lon="15.626860922319635"><ele>569.0</ele><time>2026-04-19T17:55:45Z</time></trkpt><trkpt lat="41.01753021445545" lon="15.626898475727453"><ele>569.0</ele><time>2026-04-19T17:55:46Z</time></trkpt><trkpt lat="41.017353491281256" lon="15.626928410737898"><ele>569.0</ele><time>2026-04-19T17:55:47Z</time></trkpt><trkpt lat="41.01717855408759" lon="15.626947382547325"><ele>567.6666666666666</ele><time>2026-04-19T17:55:48Z</time></trkpt><trkpt lat="41.016986068176436" lon="15.62694096955191"><ele>566.3333333333334</ele><time>2026-04-19T17:55:49Z</time></trkpt><trkpt lat="41.01680818388818" lon="15.626925037368734"><ele>565.0</ele><time>2026-04-19T17:55:50Z</time></trkpt><trkpt lat="41.01664276973433" lon="15.62690370578067"><ele>563.6666666666667</ele><time>2026-04-19T17:55:51Z</time></trkpt><trkpt lat="41.016428842854765" lon="15.6268720926655"><ele>562.3333333333334</ele><time>2026-04-19T17:55:52Z</time></trkpt><trkpt lat="41.01623843591436" lon="15.626845332201647"><ele>561.0</ele><time>2026-04-19T17:55:53Z</time></trkpt><trkpt lat="41.01600402140378" lon="15.62681254249644"><ele>560.5</ele><time>2026-04-19T17:55:54Z</time></trkpt><trkpt lat="41.01573839869262" lon="15.626797267404335"><ele>560.0</ele><time>2026-04-19T17:55:55Z</time></trkpt><trkpt lat="41.01551648142777" lon="15.626755151477216"><ele>560.0</ele><time>2026-04-19T17:55:56Z</time></trkpt><trkpt lat="41.01530072376456" lon="15.626724313988285"><ele>560.0</ele><time>2026-04-19T17:55:57Z</time></trkpt><trkpt lat="41.01507875917684" lon="15.626693651445185"><ele>560.0</ele><time>2026-04-19T17:55:58Z</time></trkpt><trkpt lat="41.014858074426456" lon="15.626662735289072"><ele>560.3333333333333</ele><time>2026-04-19T17:55:59Z</time></trkpt><trkpt lat="41.01463895503675" lon="15.62662623990872"><ele>560.6666666666666</ele><time>2026-04-19T17:56:00Z</time></trkpt><trkpt lat="41.014421425673014" lon="15.626595736522743"><ele>561.0</ele><time>2026-04-19T17:56:01Z</time></trkpt><trkpt lat="41.014192190522294" lon="15.626555235403583"><ele>557.5</ele><time>2026-04-19T17:56:02Z</time></trkpt><trkpt lat="41.013965499359244" lon="15.626528678999161"><ele>554.0</ele><time>2026-04-19T17:56:03Z</time></trkpt><trkpt lat="41.01373223906108" lon="15.62650218179969"><ele>554.0</ele><time>2026-04-19T17:56:04Z</time></trkpt><trkpt lat="41.013507592298325" lon="15.626474323378396"><ele>554.0</ele><time>2026-04-19T17:56:05Z</time></trkpt><trkpt lat="41.01327948136493" lon="15.626440943070431"><ele>550.3333333333333</ele><time>2026-04-19T17:56:06Z</time></trkpt><trkpt lat="41.01306443395364" lon="15.626415318246739"><ele>546.6666666666666</ele><time>2026-04-19T17:56:07Z</time></trkpt><trkpt lat="41.012860105689576" lon="15.626363680092622"><ele>543.0</ele><time>2026-04-19T17:56:08Z</time></trkpt><trkpt lat="41.012657144107266" lon="15.626337787592272"><ele>545.0</ele><time>2026-04-19T17:56:09Z</time></trkpt><trkpt lat="41.01245309084848" lon="15.626318812703495"><ele>547.0</ele><time>2026-04-19T17:56:10Z</time></trkpt><trkpt lat="41.01224650286137" lon="15.626309208237961"><ele>549.0</ele><time>2026-04-19T17:56:11Z</time></trkpt><trkpt lat="41.01202953897259" lon="15.626309637894872"><ele>549.0</ele><time>2026-04-19T17:56:12Z</time></trkpt><trkpt lat="41.011810475352796" lon="15.6263170209321"><ele>549.0</ele><time>2026-04-19T17:56:13Z</time></trkpt><trkpt lat="41.0115989680676" lon="15.626334743590055"><ele>549.0</ele><time>2026-04-19T17:56:14Z</time></trkpt><trkpt lat="41.01136803017742" lon="15.626365658636562"><ele>549.0</ele><time>2026-04-19T17:56:15Z</time></trkpt><trkpt lat="41.011143119575216" lon="15.626405756130985"><ele>549.0</ele><time>2026-04-19T17:56:16Z</time></trkpt><trkpt lat="41.01091611946715" lon="15.626456956608488"><ele>544.0</ele><time>2026-04-19T17:56:17Z</time></trkpt><trkpt lat="41.01068481994107" lon="15.626526568750132"><ele>539.0</ele><time>2026-04-19T17:56:18Z</time></trkpt><trkpt lat="41.01045648975028" lon="15.62660601957623"><ele>539.0</ele><time>2026-04-19T17:56:19Z</time></trkpt><trkpt lat="41.01024027424955" lon="15.626690616258328"><ele>539.0</ele><time>2026-04-19T17:56:20Z</time></trkpt><trkpt lat="41.0100240010457" lon="15.62678880211231"><ele>537.6666666666666</ele><time>2026-04-19T17:56:21Z</time></trkpt><trkpt lat="41.009811906582456" lon="15.626894145082694"><ele>536.3333333333334</ele><time>2026-04-19T17:56:22Z</time></trkpt><trkpt lat="41.00960554230108" lon="15.626999823398453"><ele>535.0</ele><time>2026-04-19T17:56:23Z</time></trkpt><trkpt lat="41.009401051615775" lon="15.627104666756159"><ele>536.0</ele><time>2026-04-19T17:56:24Z</time></trkpt><trkpt lat="41.00920155022223" lon="15.627206980957286"><ele>537.0</ele><time>2026-04-19T17:56:25Z</time></trkpt><trkpt lat="41.009004515921454" lon="15.627308029553081"><ele>538.0</ele><time>2026-04-19T17:56:26Z</time></trkpt><trkpt lat="41.00881741166304" lon="15.627403781445445"><ele>538.0</ele><time>2026-04-19T17:56:27Z</time></trkpt><trkpt lat="41.00861775407521" lon="15.62750574074139"><ele>538.0</ele><time>2026-04-19T17:56:28Z</time></trkpt><trkpt lat="41.00842782666821" lon="15.62760305630484"><ele>538.0</ele><time>2026-04-19T17:56:29Z</time></trkpt><trkpt lat="41.00823931760298" lon="15.627701449731065"><ele>536.6666666666667</ele><time>2026-04-19T17:56:30Z</time></trkpt><trkpt lat="41.008052875488524" lon="15.627798735428602"><ele>535.3333333333334</ele><time>2026-04-19T17:56:31Z</time></trkpt><trkpt lat="41.007877417570114" lon="15.6278885960193"><ele>534.0</ele><time>2026-04-19T17:56:32Z</time></trkpt><trkpt lat="41.00770450028413" lon="15.628013464842594"><ele>534.0</ele><time>2026-04-19T17:56:33Z</time></trkpt><trkpt lat="41.007525815723106" lon="15.62810104551821"><ele>534.0</ele><time>2026-04-19T17:56:34Z</time></trkpt><trkpt lat="41.00734099080263" lon="15.628195028378638"><ele>534.0</ele><time>2026-04-19T17:56:35Z</time></trkpt><trkpt lat="41.00715237580222" lon="15.628297429374033"><ele>532.3333333333334</ele><time>2026-04-19T17:56:36Z</time></trkpt><trkpt lat="41.00695793945162" lon="15.628364758174406"><ele>530.6666666666667</ele><time>2026-04-19T17:56:37Z</time></trkpt><trkpt lat="41.00676691009395" lon="15.628464223154165"><ele>529.0</ele><time>2026-04-19T17:56:38Z</time></trkpt><trkpt lat="41.006576059855504" lon="15.628563222793428"><ele>527.0</ele><time>2026-04-19T17:56:39Z</time></trkpt><trkpt lat="41.00637662122293" lon="15.628666692093178"><ele>525.0</ele><time>2026-04-19T17:56:40Z</time></trkpt><trkpt lat="41.00618292875477" lon="15.628767216109601"><ele>523.0</ele><time>2026-04-19T17:56:41Z</time></trkpt><trkpt lat="41.005988740641946" lon="15.62886676007101"><ele>521.6666666666667</ele><time>2026-04-19T17:56:42Z</time></trkpt><trkpt lat="41.00580737107949" lon="15.628960075369479"><ele>520.3333333333334</ele><time>2026-04-19T17:56:43Z</time></trkpt><trkpt lat="41.005621993547734" lon="15.629056173178151"><ele>519.0</ele><time>2026-04-19T17:56:44Z</time></trkpt><trkpt lat="41.005435379969185" lon="15.629153030867672"><ele>519.0</ele><time>2026-04-19T17:56:45Z</time></trkpt><trkpt lat="41.00525548088961" lon="15.629245821312892"><ele>519.0</ele><time>2026-04-19T17:56:46Z</time></trkpt><trkpt lat="41.005073374434836" lon="15.629338397426464"><ele>519.0</ele><time>2026-04-19T17:56:47Z</time></trkpt><trkpt lat="41.00488273632981" lon="15.629434472202409"><ele>520.0</ele><time>2026-04-19T17:56:48Z</time></trkpt><trkpt lat="41.004685057513015" lon="15.629533874370505"><ele>521.0</ele><time>2026-04-19T17:56:49Z</time></trkpt><trkpt lat="41.0044823905954" lon="15.629636623350022"><ele>522.0</ele><time>2026-04-19T17:56:50Z</time></trkpt><trkpt lat="41.00428326213706" lon="15.629739207973671"><ele>519.6666666666666</ele><time>2026-04-19T17:56:51Z</time></trkpt><trkpt lat="41.00408108145012" lon="15.629843406307616"><ele>517.3333333333333</ele><time>2026-04-19T17:56:52Z</time></trkpt><trkpt lat="41.003876440573585" lon="15.629948291197032"><ele>515.0</ele><time>2026-04-19T17:56:53Z</time></trkpt><trkpt lat="41.00367259811566" lon="15.63005276682706"><ele>515.0</ele><time>2026-04-19T17:56:54Z</time></trkpt><trkpt lat="41.00347548101217" lon="15.630152700743361"><ele>515.0</ele><time>2026-04-19T17:56:55Z</time></trkpt><trkpt lat="41.00327502064728" lon="15.63025432470175"><ele>515.0</ele><time>2026-04-19T17:56:56Z</time></trkpt><trkpt lat="41.0030727915793" lon="15.63035756528956"><ele>516.6666666666666</ele><time>2026-04-19T17:56:57Z</time></trkpt><trkpt lat="41.0028731000862" lon="15.63045975975901"><ele>518.3333333333334</ele><time>2026-04-19T17:56:58Z</time></trkpt><trkpt lat="41.002691925329316" lon="15.630572082449648"><ele>520.0</ele><time>2026-04-19T17:56:59Z</time></trkpt><trkpt lat="41.00249848413703" lon="15.630647822441215"><ele>517.6666666666667</ele><time>2026-04-19T17:57:00Z</time></trkpt><trkpt lat="41.00229598497022" lon="15.630701216149179"><ele>515.3333333333334</ele><time>2026-04-19T17:57:01Z</time></trkpt><trkpt lat="41.002086787487315" lon="15.630703737273299"><ele>513.0</ele><time>2026-04-19T17:57:02Z</time></trkpt><trkpt lat="41.001881762678714" lon="15.630737774030864"><ele>513.0</ele><time>2026-04-19T17:57:03Z</time></trkpt><trkpt lat="41.0016673161368" lon="15.630746889146346"><ele>513.0</ele><time>2026-04-19T17:57:04Z</time></trkpt><trkpt lat="41.00144961661477" lon="15.630754821448495"><ele>513.0</ele><time>2026-04-19T17:57:05Z</time></trkpt><trkpt lat="41.001244322599135" lon="15.630767652943538"><ele>511.66666666666663</ele><time>2026-04-19T17:57:06Z</time></trkpt><trkpt lat="41.00102465383287" lon="15.630756092033383"><ele>510.3333333333333</ele><time>2026-04-19T17:57:07Z</time></trkpt><trkpt lat="41.000809963980274" lon="15.630786231510525"><ele>509.0</ele><time>2026-04-19T17:57:08Z</time></trkpt><trkpt lat="41.000587006906294" lon="15.630795107263868"><ele>509.0</ele><time>2026-04-19T17:57:09Z</time></trkpt><trkpt lat="41.00037143719585" lon="15.630801179744033"><ele>509.0</ele><time>2026-04-19T17:57:10Z</time></trkpt><trkpt lat="41.000149766481194" lon="15.630820786568997"><ele>509.0</ele><time>2026-04-19T17:57:11Z</time></trkpt><trkpt lat="40.99992978202116" lon="15.630847090809363"><ele>509.0</ele><time>2026-04-19T17:57:12Z</time></trkpt><trkpt lat="40.999715138500335" lon="15.63088199208365"><ele>509.0</ele><time>2026-04-19T17:57:13Z</time></trkpt><trkpt lat="40.99953412468453" lon="15.63092480060458"><ele>509.0</ele><time>2026-04-19T17:57:14Z</time></trkpt><trkpt lat="40.999358803267114" lon="15.630984649493163"><ele>509.3333333333333</ele><time>2026-04-19T17:57:15Z</time></trkpt><trkpt lat="40.999160823487564" lon="15.63106564485567"><ele>509.66666666666663</ele><time>2026-04-19T17:57:16Z</time></trkpt><trkpt lat="40.998982136715355" lon="15.631183701610864"><ele>510.0</ele><time>2026-04-19T17:57:17Z</time></trkpt><trkpt lat="40.9988074645801" lon="15.631325030537662"><ele>510.0</ele><time>2026-04-19T17:57:18Z</time></trkpt><trkpt lat="40.99864166362942" lon="15.631485123562765"><ele>510.0</ele><time>2026-04-19T17:57:19Z</time></trkpt><trkpt lat="40.99848061528437" lon="15.631643404998778"><ele>510.0</ele><time>2026-04-19T17:57:20Z</time></trkpt><trkpt lat="40.99831217037902" lon="15.631809021735018"><ele>511.0</ele><time>2026-04-19T17:57:21Z</time></trkpt><trkpt lat="40.99815137608212" lon="15.631969070177583"><ele>512.0</ele><time>2026-04-19T17:57:22Z</time></trkpt><trkpt lat="40.997985433484686" lon="15.632135653375144"><ele>513.0</ele><time>2026-04-19T17:57:23Z</time></trkpt><trkpt lat="40.99781333310704" lon="15.632309042346979"><ele>513.0</ele><time>2026-04-19T17:57:24Z</time></trkpt><trkpt lat="40.997646791617235" lon="15.63247682973447"><ele>513.0</ele><time>2026-04-19T17:57:25Z</time></trkpt><trkpt lat="40.99747427466737" lon="15.632650883729406"><ele>513.0</ele><time>2026-04-19T17:57:26Z</time></trkpt><trkpt lat="40.99731032058642" lon="15.632815221772901"><ele>513.0</ele><time>2026-04-19T17:57:27Z</time></trkpt><trkpt lat="40.99714743687558" lon="15.632978486995166"><ele>513.0</ele><time>2026-04-19T17:57:28Z</time></trkpt><trkpt lat="40.99698855645383" lon="15.633137540433575"><ele>513.0</ele><time>2026-04-19T17:57:29Z</time></trkpt><trkpt lat="40.99682516045492" lon="15.633300365170706"><ele>515.3333333333334</ele><time>2026-04-19T17:57:30Z</time></trkpt><trkpt lat="40.996659399795305" lon="15.633465547566491"><ele>517.6666666666667</ele><time>2026-04-19T17:57:31Z</time></trkpt><trkpt lat="40.99650883437978" lon="15.63365413563249"><ele>520.0</ele><time>2026-04-19T17:57:32Z</time></trkpt><trkpt lat="40.99634279017131" lon="15.633817129925475"><ele>520.0</ele><time>2026-04-19T17:57:33Z</time></trkpt><trkpt lat="40.99617151769718" lon="15.633986322048269"><ele>520.0</ele><time>2026-04-19T17:57:34Z</time></trkpt><trkpt lat="40.99599902221196" lon="15.634156213453354"><ele>520.0</ele><time>2026-04-19T17:57:35Z</time></trkpt><trkpt lat="40.99581301452422" lon="15.634308768586529"><ele>520.6666666666667</ele><time>2026-04-19T17:57:36Z</time></trkpt><trkpt lat="40.995635991570964" lon="15.63448567793482"><ele>521.3333333333334</ele><time>2026-04-19T17:57:37Z</time></trkpt><trkpt lat="40.99546890223897" lon="15.634652660084528"><ele>522.0</ele><time>2026-04-19T17:57:38Z</time></trkpt><trkpt lat="40.99530892137248" lon="15.634812539676886"><ele>522.0</ele><time>2026-04-19T17:57:39Z</time></trkpt><trkpt lat="40.995165846237825" lon="15.634955523032259"><ele>522.0</ele><time>2026-04-19T17:57:40Z</time></trkpt><trkpt lat="40.99502630854398" lon="15.635094063064647"><ele>522.0</ele><time>2026-04-19T17:57:41Z</time></trkpt><trkpt lat="40.99488745342543" lon="15.635233379192087"><ele>522.3333333333334</ele><time>2026-04-19T17:57:42Z</time></trkpt><trkpt lat="40.99474387915814" lon="15.635376586608874"><ele>522.6666666666667</ele><time>2026-04-19T17:57:43Z</time></trkpt><trkpt lat="40.99460751957001" lon="15.635512596869242"><ele>523.0</ele><time>2026-04-19T17:57:44Z</time></trkpt><trkpt lat="40.99446423483787" lon="15.635656460903329"><ele>523.0</ele><time>2026-04-19T17:57:45Z</time></trkpt><trkpt lat="40.994317825973916" lon="15.635803253876773"><ele>523.0</ele><time>2026-04-19T17:57:46Z</time></trkpt><trkpt lat="40.994176713227034" lon="15.635944329417878"><ele>523.0</ele><time>2026-04-19T17:57:47Z</time></trkpt><trkpt lat="40.99404130424799" lon="15.636075686174609"><ele>524.3333333333334</ele><time>2026-04-19T17:57:48Z</time></trkpt><trkpt lat="40.99389992623793" lon="15.636204809066859"><ele>525.6666666666666</ele><time>2026-04-19T17:57:49Z</time></trkpt><trkpt lat="40.993743024620834" lon="15.636318777187899"><ele>527.0</ele><time>2026-04-19T17:57:50Z</time></trkpt><trkpt lat="40.99358172498494" lon="15.636420417582828"><ele>527.0</ele><time>2026-04-19T17:57:51Z</time></trkpt><trkpt lat="40.99339461990782" lon="15.636455771391997"><ele>527.0</ele><time>2026-04-19T17:57:52Z</time></trkpt><trkpt lat="40.99320691533626" lon="15.636491125945764"><ele>527.0</ele><time>2026-04-19T17:57:53Z</time></trkpt><trkpt lat="40.99301747716578" lon="15.636533005987385"><ele>527.0</ele><time>2026-04-19T17:57:54Z</time></trkpt><trkpt lat="40.992822736763145" lon="15.63655528447461"><ele>527.0</ele><time>2026-04-19T17:57:55Z</time></trkpt><trkpt lat="40.992625175930634" lon="15.636561110316771"><ele>527.0</ele><time>2026-04-19T17:57:56Z</time></trkpt><trkpt lat="40.99242516014446" lon="15.636585532027931"><ele>527.0</ele><time>2026-04-19T17:57:57Z</time></trkpt><trkpt lat="40.992225534896825" lon="15.636613017989617"><ele>527.0</ele><time>2026-04-19T17:57:58Z</time></trkpt><trkpt lat="40.99201989354363" lon="15.636644823571357"><ele>527.0</ele><time>2026-04-19T17:57:59Z</time></trkpt><trkpt lat="40.99181681668954" lon="15.6366871013404"><ele>528.0</ele><time>2026-04-19T17:58:00Z</time></trkpt><trkpt lat="40.99162155800098" lon="15.636761960397592"><ele>529.0</ele><time>2026-04-19T17:58:01Z</time></trkpt><trkpt lat="40.99143937885176" lon="15.63683830270436"><ele>530.0</ele><time>2026-04-19T17:58:02Z</time></trkpt><trkpt lat="40.99126433046874" lon="15.636939740193007"><ele>530.0</ele><time>2026-04-19T17:58:03Z</time></trkpt><trkpt lat="40.99109224488131" lon="15.637062975687096"><ele>530.0</ele><time>2026-04-19T17:58:04Z</time></trkpt><trkpt lat="40.99092856801485" lon="15.63719565348554"><ele>530.0</ele><time>2026-04-19T17:58:05Z</time></trkpt><trkpt lat="40.990770398250135" lon="15.63732763212493"><ele>531.3333333333333</ele><time>2026-04-19T17:58:06Z</time></trkpt><trkpt lat="40.990616602118145" lon="15.637460023269343"><ele>532.6666666666666</ele><time>2026-04-19T17:58:07Z</time></trkpt><trkpt lat="40.990469706010764" lon="15.63759186621141"><ele>534.0</ele><time>2026-04-19T17:58:08Z</time></trkpt><trkpt lat="40.99031570500514" lon="15.637699672802508"><ele>533.6666666666666</ele><time>2026-04-19T17:58:09Z</time></trkpt><trkpt lat="40.990176374686854" lon="15.637818557536107"><ele>533.3333333333333</ele><time>2026-04-19T17:58:10Z</time></trkpt><trkpt lat="40.99002773858251" lon="15.637945737658505"><ele>533.0</ele><time>2026-04-19T17:58:11Z</time></trkpt><trkpt lat="40.98987884560689" lon="15.63807317039852"><ele>533.0</ele><time>2026-04-19T17:58:12Z</time></trkpt><trkpt lat="40.98973553134844" lon="15.638218761863229"><ele>533.0</ele><time>2026-04-19T17:58:13Z</time></trkpt><trkpt lat="40.989581847843134" lon="15.638347840830733"><ele>533.0</ele><time>2026-04-19T17:58:14Z</time></trkpt><trkpt lat="40.98943144033267" lon="15.638478862291938"><ele>533.0</ele><time>2026-04-19T17:58:15Z</time></trkpt><trkpt lat="40.98928181754257" lon="15.638611801383735"><ele>533.0</ele><time>2026-04-19T17:58:16Z</time></trkpt><trkpt lat="40.98913533998394" lon="15.638755539921343"><ele>533.0</ele><time>2026-04-19T17:58:17Z</time></trkpt><trkpt lat="40.98899254270386" lon="15.638912508887923"><ele>532.3333333333333</ele><time>2026-04-19T17:58:18Z</time></trkpt><trkpt lat="40.988862035878434" lon="15.639077414633258"><ele>531.6666666666666</ele><time>2026-04-19T17:58:19Z</time></trkpt><trkpt lat="40.98872531605159" lon="15.63925118348756"><ele>531.0</ele><time>2026-04-19T17:58:20Z</time></trkpt><trkpt lat="40.98861057451828" lon="15.639444557302305"><ele>531.0</ele><time>2026-04-19T17:58:21Z</time></trkpt><trkpt lat="40.98852306738838" lon="15.639659416457894"><ele>531.0</ele><time>2026-04-19T17:58:22Z</time></trkpt><trkpt lat="40.98842389645063" lon="15.639876404095522"><ele>531.0</ele><time>2026-04-19T17:58:23Z</time></trkpt><trkpt lat="40.98831957047054" lon="15.64008732545644"><ele>533.0</ele><time>2026-04-19T17:58:24Z</time></trkpt><trkpt lat="40.98822405441756" lon="15.640307750526574"><ele>535.0</ele><time>2026-04-19T17:58:25Z</time></trkpt><trkpt lat="40.988126358512865" lon="15.640535051624015"><ele>537.0</ele><time>2026-04-19T17:58:26Z</time></trkpt><trkpt lat="40.988035149263375" lon="15.640748726325508"><ele>537.0</ele><time>2026-04-19T17:58:27Z</time></trkpt><trkpt lat="40.987949469330886" lon="15.640949447439406"><ele>537.0</ele><time>2026-04-19T17:58:28Z</time></trkpt><trkpt lat="40.987864590671514" lon="15.641148291401509"><ele>537.0</ele><time>2026-04-19T17:58:29Z</time></trkpt><trkpt lat="40.98777998322221" lon="15.641346500070915"><ele>537.3333333333334</ele><time>2026-04-19T17:58:30Z</time></trkpt><trkpt lat="40.987692029853" lon="15.64155254699917"><ele>537.6666666666667</ele><time>2026-04-19T17:58:31Z</time></trkpt><trkpt lat="40.98760171482633" lon="15.641764126836584"><ele>538.0</ele><time>2026-04-19T17:58:32Z</time></trkpt><trkpt lat="40.987519617947655" lon="15.641950944776303"><ele>539.0</ele><time>2026-04-19T17:58:33Z</time></trkpt><trkpt lat="40.98743016006732" lon="15.642147229127264"><ele>540.0</ele><time>2026-04-19T17:58:34Z</time></trkpt><trkpt lat="40.987331222399106" lon="15.642343713642736"><ele>541.0</ele><time>2026-04-19T17:58:35Z</time></trkpt><trkpt lat="40.98722580835241" lon="15.642530250806125"><ele>541.0</ele><time>2026-04-19T17:58:36Z</time></trkpt><trkpt lat="40.98711567640498" lon="15.64270060247701"><ele>541.0</ele><time>2026-04-19T17:58:37Z</time></trkpt><trkpt lat="40.98699483356443" lon="15.642863720297925"><ele>541.0</ele><time>2026-04-19T17:58:38Z</time></trkpt><trkpt lat="40.9868731628821" lon="15.643010023645976"><ele>541.3333333333334</ele><time>2026-04-19T17:58:39Z</time></trkpt><trkpt lat="40.98674665484819" lon="15.643147899779779"><ele>541.6666666666666</ele><time>2026-04-19T17:58:40Z</time></trkpt><trkpt lat="40.98661137400601" lon="15.643288371493266"><ele>542.0</ele><time>2026-04-19T17:58:41Z</time></trkpt><trkpt lat="40.98647770197789" lon="15.64342363656912"><ele>542.0</ele><time>2026-04-19T17:58:42Z</time></trkpt><trkpt lat="40.986339090671216" lon="15.643562230333064"><ele>542.0</ele><time>2026-04-19T17:58:43Z</time></trkpt><trkpt lat="40.98619958789483" lon="15.643701372781115"><ele>542.0</ele><time>2026-04-19T17:58:44Z</time></trkpt><trkpt lat="40.986055665872115" lon="15.643844561263917"><ele>542.6666666666666</ele><time>2026-04-19T17:58:45Z</time></trkpt><trkpt lat="40.98593169763378" lon="15.643994495971008"><ele>543.3333333333334</ele><time>2026-04-19T17:58:46Z</time></trkpt><trkpt lat="40.98579944136035" lon="15.644127716795275"><ele>544.0</ele><time>2026-04-19T17:58:47Z</time></trkpt><trkpt lat="40.98566541276254" lon="15.644235628195137"><ele>544.0</ele><time>2026-04-19T17:58:48Z</time></trkpt><trkpt lat="40.98553632191953" lon="15.644364081994425"><ele>544.0</ele><time>2026-04-19T17:58:49Z</time></trkpt><trkpt lat="40.9854045334468" lon="15.644495270658044"><ele>544.0</ele><time>2026-04-19T17:58:50Z</time></trkpt><trkpt lat="40.98526856890154" lon="15.644632557458952"><ele>541.0</ele><time>2026-04-19T17:58:51Z</time></trkpt><trkpt lat="40.985127802773626" lon="15.64477547623102"><ele>538.0</ele><time>2026-04-19T17:58:52Z</time></trkpt><trkpt lat="40.98498319597734" lon="15.644922555516255"><ele>535.0</ele><time>2026-04-19T17:58:53Z</time></trkpt><trkpt lat="40.98483581278922" lon="15.6450724586432"><ele>535.0</ele><time>2026-04-19T17:58:54Z</time></trkpt><trkpt lat="40.984688362142876" lon="15.645220212609045"><ele>535.0</ele><time>2026-04-19T17:58:55Z</time></trkpt><trkpt lat="40.984535089909826" lon="15.645372159796773"><ele>535.0</ele><time>2026-04-19T17:58:56Z</time></trkpt><trkpt lat="40.98438754039889" lon="15.645518433802385"><ele>534.3333333333334</ele><time>2026-04-19T17:58:57Z</time></trkpt><trkpt lat="40.984241587199115" lon="15.645663961269255"><ele>533.6666666666666</ele><time>2026-04-19T17:58:58Z</time></trkpt><trkpt lat="40.984092013538984" lon="15.645814021417895"><ele>533.0</ele><time>2026-04-19T17:58:59Z</time></trkpt><trkpt lat="40.983940292994546" lon="15.645966530601502"><ele>535.3333333333333</ele><time>2026-04-19T17:59:00Z</time></trkpt><trkpt lat="40.983794063293345" lon="15.64611453215205"><ele>537.6666666666666</ele><time>2026-04-19T17:59:01Z</time></trkpt><trkpt lat="40.98365977878026" lon="15.646275359437354"><ele>540.0</ele><time>2026-04-19T17:59:02Z</time></trkpt><trkpt lat="40.983514016468064" lon="15.64642188817675"><ele>540.0</ele><time>2026-04-19T17:59:03Z</time></trkpt><trkpt lat="40.98336447509464" lon="15.646573023810404"><ele>540.0</ele><time>2026-04-19T17:59:04Z</time></trkpt><trkpt lat="40.9832015020468" lon="15.646706524878086"><ele>540.0</ele><time>2026-04-19T17:59:05Z</time></trkpt><trkpt lat="40.98304557000322" lon="15.646853241570188"><ele>539.6666666666666</ele><time>2026-04-19T17:59:06Z</time></trkpt><trkpt lat="40.982881621255274" lon="15.646983869261248"><ele>539.3333333333333</ele><time>2026-04-19T17:59:07Z</time></trkpt><trkpt lat="40.98271436139847" lon="15.647104371826465"><ele>539.0</ele><time>2026-04-19T17:59:08Z</time></trkpt><trkpt lat="40.98254991739194" lon="15.647223632804172"><ele>541.6666666666666</ele><time>2026-04-19T17:59:09Z</time></trkpt><trkpt lat="40.98236518711805" lon="15.647305956260213"><ele>544.3333333333334</ele><time>2026-04-19T17:59:10Z</time></trkpt><trkpt lat="40.98217215143746" lon="15.64737250738145"><ele>547.0</ele><time>2026-04-19T17:59:11Z</time></trkpt><trkpt lat="40.981984785159995" lon="15.647424310357293"><ele>547.0</ele><time>2026-04-19T17:59:12Z</time></trkpt><trkpt lat="40.98180020671436" lon="15.647463174561858"><ele>547.0</ele><time>2026-04-19T17:59:13Z</time></trkpt><trkpt lat="40.98161547096613" lon="15.647461151095147"><ele>547.0</ele><time>2026-04-19T17:59:14Z</time></trkpt><trkpt lat="40.98143228168366" lon="15.64745876038832"><ele>548.3333333333334</ele><time>2026-04-19T17:59:15Z</time></trkpt><trkpt lat="40.98124533236401" lon="15.64745179475093"><ele>549.6666666666666</ele><time>2026-04-19T17:59:16Z</time></trkpt><trkpt lat="40.98105764467817" lon="15.64744287452113"><ele>551.0</ele><time>2026-04-19T17:59:17Z</time></trkpt><trkpt lat="40.98086993015659" lon="15.647433954596147"><ele>552.3333333333333</ele><time>2026-04-19T17:59:18Z</time></trkpt><trkpt lat="40.98068274198566" lon="15.64742561665019"><ele>553.6666666666666</ele><time>2026-04-19T17:59:19Z</time></trkpt><trkpt lat="40.980501308312974" lon="15.647423450785277"><ele>555.0</ele><time>2026-04-19T17:59:20Z</time></trkpt><trkpt lat="40.98032814853257" lon="15.64745252194208"><ele>555.0</ele><time>2026-04-19T17:59:21Z</time></trkpt><trkpt lat="40.980151783386844" lon="15.647466309960507"><ele>555.0</ele><time>2026-04-19T17:59:22Z</time></trkpt><trkpt lat="40.97997436972336" lon="15.647495847733826"><ele>555.0</ele><time>2026-04-19T17:59:23Z</time></trkpt><trkpt lat="40.97979618335041" lon="15.647540098441436"><ele>553.3333333333334</ele><time>2026-04-19T17:59:24Z</time></trkpt><trkpt lat="40.97962504995722" lon="15.647604736312179"><ele>551.6666666666667</ele><time>2026-04-19T17:59:25Z</time></trkpt><trkpt lat="40.97947020844665" lon="15.647680086876523"><ele>550.0</ele><time>2026-04-19T17:59:26Z</time></trkpt><trkpt lat="40.97931283110617" lon="15.647778427040631"><ele>548.3333333333334</ele><time>2026-04-19T17:59:27Z</time></trkpt><trkpt lat="40.97916602890245" lon="15.647889972865098"><ele>546.6666666666666</ele><time>2026-04-19T17:59:28Z</time></trkpt><trkpt lat="40.979020477593295" lon="15.648013832436058"><ele>545.0</ele><time>2026-04-19T17:59:29Z</time></trkpt><trkpt lat="40.97887632722785" lon="15.648148569477232"><ele>545.0</ele><time>2026-04-19T17:59:30Z</time></trkpt><trkpt lat="40.97872913311731" lon="15.648287759894004"><ele>545.0</ele><time>2026-04-19T17:59:31Z</time></trkpt><trkpt lat="40.97858315639655" lon="15.648432903899117"><ele>545.0</ele><time>2026-04-19T17:59:32Z</time></trkpt><trkpt lat="40.978435830539055" lon="15.648581200945214"><ele>547.3333333333333</ele><time>2026-04-19T17:59:33Z</time></trkpt><trkpt lat="40.97828861795642" lon="15.6487265817196"><ele>549.6666666666666</ele><time>2026-04-19T17:59:34Z</time></trkpt><trkpt lat="40.97815265830904" lon="15.648857927094248"><ele>552.0</ele><time>2026-04-19T17:59:35Z</time></trkpt><trkpt lat="40.9780090356798" lon="15.64899911973939"><ele>552.0</ele><time>2026-04-19T17:59:36Z</time></trkpt><trkpt lat="40.97785534024232" lon="15.649121619924834"><ele>552.0</ele><time>2026-04-19T17:59:37Z</time></trkpt><trkpt lat="40.9777119785752" lon="15.649261112999959"><ele>552.0</ele><time>2026-04-19T17:59:38Z</time></trkpt><trkpt lat="40.977570059629066" lon="15.649399202304691"><ele>554.6666666666666</ele><time>2026-04-19T17:59:39Z</time></trkpt><trkpt lat="40.977438345232216" lon="15.649550743695258"><ele>557.3333333333333</ele><time>2026-04-19T17:59:40Z</time></trkpt><trkpt lat="40.977296050268436" lon="15.649689441072143"><ele>560.0</ele><time>2026-04-19T17:59:41Z</time></trkpt><trkpt lat="40.97715223994886" lon="15.649829208154888"><ele>560.0</ele><time>2026-04-19T17:59:42Z</time></trkpt><trkpt lat="40.97700866416372" lon="15.649968803882757"><ele>560.0</ele><time>2026-04-19T17:59:43Z</time></trkpt><trkpt lat="40.97685867739545" lon="15.650085274906452"><ele>560.0</ele><time>2026-04-19T17:59:44Z</time></trkpt><trkpt lat="40.97671903665378" lon="15.650218896659615"><ele>564.3333333333333</ele><time>2026-04-19T17:59:45Z</time></trkpt><trkpt lat="40.97657655879618" lon="15.650355851825262"><ele>568.6666666666666</ele><time>2026-04-19T17:59:46Z</time></trkpt><trkpt lat="40.97643408430293" lon="15.650492987455289"><ele>573.0</ele><time>2026-04-19T17:59:47Z</time></trkpt><trkpt lat="40.976294327225524" lon="15.65062817100775"><ele>573.0</ele><time>2026-04-19T17:59:48Z</time></trkpt><trkpt lat="40.97615636190295" lon="15.650762153551083"><ele>573.0</ele><time>2026-04-19T17:59:49Z</time></trkpt><trkpt lat="40.97601386449166" lon="15.650900537151625"><ele>573.0</ele><time>2026-04-19T17:59:50Z</time></trkpt><trkpt lat="40.9758673113198" lon="15.651042860807005"><ele>571.0</ele><time>2026-04-19T17:59:51Z</time></trkpt><trkpt lat="40.97571678845771" lon="15.65118785981382"><ele>569.0</ele><time>2026-04-19T17:59:52Z</time></trkpt><trkpt lat="40.975558544669475" lon="15.651323336577585"><ele>567.0</ele><time>2026-04-19T17:59:53Z</time></trkpt><trkpt lat="40.97539314305447" lon="15.651446012244167"><ele>567.0</ele><time>2026-04-19T17:59:54Z</time></trkpt><trkpt lat="40.97522587700042" lon="15.651552891191605"><ele>567.0</ele><time>2026-04-19T17:59:55Z</time></trkpt><trkpt lat="40.97505707778151" lon="15.651662438348964"><ele>567.0</ele><time>2026-04-19T17:59:56Z</time></trkpt><trkpt lat="40.9748745102895" lon="15.651734020539642"><ele>567.6666666666666</ele><time>2026-04-19T17:59:57Z</time></trkpt><trkpt lat="40.97469682145534" lon="15.651796773093672"><ele>568.3333333333333</ele><time>2026-04-19T17:59:58Z</time></trkpt><trkpt lat="40.97451736427783" lon="15.651860063785167"><ele>569.0</ele><time>2026-04-19T17:59:59Z</time></trkpt><trkpt lat="40.974332247987405" lon="15.651896020842658"><ele>566.3333333333333</ele><time>2026-04-19T18:00:00Z</time></trkpt><trkpt lat="40.97415255173955" lon="15.65195470459144"><ele>563.6666666666666</ele><time>2026-04-19T18:00:01Z</time></trkpt><trkpt lat="40.97397819653722" lon="15.652015649810266"><ele>561.0</ele><time>2026-04-19T18:00:02Z</time></trkpt><trkpt lat="40.97380614906401" lon="15.652083038842303"><ele>560.6666666666666</ele><time>2026-04-19T18:00:03Z</time></trkpt><trkpt lat="40.97363061354285" lon="15.652172123349732"><ele>560.3333333333333</ele><time>2026-04-19T18:00:04Z</time></trkpt><trkpt lat="40.9734698188034" lon="15.652294855294883"><ele>560.0</ele><time>2026-04-19T18:00:05Z</time></trkpt><trkpt lat="40.97329594583818" lon="15.652399797230933"><ele>562.0</ele><time>2026-04-19T18:00:06Z</time></trkpt><trkpt lat="40.973151994698746" lon="15.652554541684934"><ele>564.0</ele><time>2026-04-19T18:00:07Z</time></trkpt><trkpt lat="40.9730129719415" lon="15.652707616580432"><ele>566.0</ele><time>2026-04-19T18:00:08Z</time></trkpt><trkpt lat="40.97286404034434" lon="15.65285746923568"><ele>566.0</ele><time>2026-04-19T18:00:09Z</time></trkpt><trkpt lat="40.97272972109333" lon="15.653030188307225"><ele>566.0</ele><time>2026-04-19T18:00:10Z</time></trkpt><trkpt lat="40.97260106499474" lon="15.653203268496457"><ele>566.0</ele><time>2026-04-19T18:00:11Z</time></trkpt><trkpt lat="40.97247676186177" lon="15.653368170002413"><ele>566.6666666666666</ele><time>2026-04-19T18:00:12Z</time></trkpt><trkpt lat="40.97235255366219" lon="15.653528659407067"><ele>567.3333333333334</ele><time>2026-04-19T18:00:13Z</time></trkpt><trkpt lat="40.972223025297744" lon="15.653696405602341"><ele>568.0</ele><time>2026-04-19T18:00:14Z</time></trkpt><trkpt lat="40.97209272011419" lon="15.653870424277251"><ele>568.6666666666667</ele><time>2026-04-19T18:00:15Z</time></trkpt><trkpt lat="40.97195720127" lon="15.65405162181748"><ele>569.3333333333334</ele><time>2026-04-19T18:00:16Z</time></trkpt><trkpt lat="40.97181785267408" lon="15.654238460799679"><ele>570.0</ele><time>2026-04-19T18:00:17Z</time></trkpt><trkpt lat="40.971676701319126" lon="15.654427716918153"><ele>571.0</ele><time>2026-04-19T18:00:18Z</time></trkpt><trkpt lat="40.97153334313037" lon="15.654619434270105"><ele>572.0</ele><time>2026-04-19T18:00:19Z</time></trkpt><trkpt lat="40.971387321347635" lon="15.654813973977172"><ele>573.0</ele><time>2026-04-19T18:00:20Z</time></trkpt><trkpt lat="40.97123808659062" lon="15.655012794247916"><ele>573.0</ele><time>2026-04-19T18:00:21Z</time></trkpt><trkpt lat="40.97109042970091" lon="15.655209513537248"><ele>573.0</ele><time>2026-04-19T18:00:22Z</time></trkpt><trkpt lat="40.9709454360036" lon="15.655402584426165"><ele>573.0</ele><time>2026-04-19T18:00:23Z</time></trkpt><trkpt lat="40.97080390580858" lon="15.655591411653814"><ele>572.6666666666666</ele><time>2026-04-19T18:00:24Z</time></trkpt><trkpt lat="40.97066404499152" lon="15.65577844654685"><ele>572.3333333333333</ele><time>2026-04-19T18:00:25Z</time></trkpt><trkpt lat="40.97053452850647" lon="15.655951648053714"><ele>572.0</ele><time>2026-04-19T18:00:26Z</time></trkpt><trkpt lat="40.97040901325782" lon="15.656119498729666"><ele>570.3333333333333</ele><time>2026-04-19T18:00:27Z</time></trkpt><trkpt lat="40.970283127826704" lon="15.6562879530794"><ele>568.6666666666666</ele><time>2026-04-19T18:00:28Z</time></trkpt><trkpt lat="40.97016094183498" lon="15.656451530934865"><ele>567.0</ele><time>2026-04-19T18:00:29Z</time></trkpt><trkpt lat="40.970036098098426" lon="15.65661854477408"><ele>566.0</ele><time>2026-04-19T18:00:30Z</time></trkpt><trkpt lat="40.96990485870936" lon="15.656793827210079"><ele>565.0</ele><time>2026-04-19T18:00:31Z</time></trkpt><trkpt lat="40.96978465468785" lon="15.65695438217783"><ele>564.0</ele><time>2026-04-19T18:00:32Z</time></trkpt><trkpt lat="40.969666022415225" lon="15.65711285144952"><ele>559.0</ele><time>2026-04-19T18:00:33Z</time></trkpt><trkpt lat="40.96953889406022" lon="15.65728247537888"><ele>554.0</ele><time>2026-04-19T18:00:34Z</time></trkpt><trkpt lat="40.96941547959559" lon="15.657447051453177"><ele>549.0</ele><time>2026-04-19T18:00:35Z</time></trkpt><trkpt lat="40.969293035205595" lon="15.657613115500903"><ele>554.3333333333334</ele><time>2026-04-19T18:00:36Z</time></trkpt><trkpt lat="40.969175062580135" lon="15.657782864809299"><ele>559.6666666666667</ele><time>2026-04-19T18:00:37Z</time></trkpt><trkpt lat="40.969065436485266" lon="15.657953793179264"><ele>565.0</ele><time>2026-04-19T18:00:38Z</time></trkpt><trkpt lat="40.96895873401338" lon="15.658138482446773"><ele>565.0</ele><time>2026-04-19T18:00:39Z</time></trkpt><trkpt lat="40.968864412816515" lon="15.658329476536577"><ele>565.0</ele><time>2026-04-19T18:00:40Z</time></trkpt><trkpt lat="40.96877403425599" lon="15.658540194937236"><ele>565.0</ele><time>2026-04-19T18:00:41Z</time></trkpt><trkpt lat="40.96869317260385" lon="15.658761318595735"><ele>565.0</ele><time>2026-04-19T18:00:42Z</time></trkpt><trkpt lat="40.968622067545105" lon="15.658984362489848"><ele>565.0</ele><time>2026-04-19T18:00:43Z</time></trkpt><trkpt lat="40.96855885795468" lon="15.659207564853483"><ele>565.0</ele><time>2026-04-19T18:00:44Z</time></trkpt><trkpt lat="40.96849943955969" lon="15.659426462394316"><ele>566.0</ele><time>2026-04-19T18:00:45Z</time></trkpt><trkpt lat="40.96844254299813" lon="15.659642538070482"><ele>567.0</ele><time>2026-04-19T18:00:46Z</time></trkpt><trkpt lat="40.96838214750742" lon="15.659862206318103"><ele>568.0</ele><time>2026-04-19T18:00:47Z</time></trkpt><trkpt lat="40.96831779821871" lon="15.660089653058812"><ele>568.6666666666667</ele><time>2026-04-19T18:00:48Z</time></trkpt><trkpt lat="40.968253982320796" lon="15.660294694329775"><ele>569.3333333333334</ele><time>2026-04-19T18:00:49Z</time></trkpt><trkpt lat="40.968180027737496" lon="15.660509787760507"><ele>570.0</ele><time>2026-04-19T18:00:50Z</time></trkpt><trkpt lat="40.96809547846609" lon="15.660725995457835"><ele>570.0</ele><time>2026-04-19T18:00:51Z</time></trkpt><trkpt lat="40.967998792058744" lon="15.660934211633485"><ele>570.0</ele><time>2026-04-19T18:00:52Z</time></trkpt><trkpt lat="40.967889732151775" lon="15.661133061856185"><ele>570.0</ele><time>2026-04-19T18:00:53Z</time></trkpt><trkpt lat="40.967774461360854" lon="15.661323355824845"><ele>570.3333333333334</ele><time>2026-04-19T18:00:54Z</time></trkpt><trkpt lat="40.96764198713608" lon="15.661482496170834"><ele>570.6666666666667</ele><time>2026-04-19T18:00:55Z</time></trkpt><trkpt lat="40.9675074636179" lon="15.66167033713023"><ele>571.0</ele><time>2026-04-19T18:00:56Z</time></trkpt><trkpt lat="40.96736219693134" lon="15.66183654628697"><ele>570.6666666666667</ele><time>2026-04-19T18:00:57Z</time></trkpt><trkpt lat="40.96721481388938" lon="15.6619919166063"><ele>570.3333333333334</ele><time>2026-04-19T18:00:58Z</time></trkpt><trkpt lat="40.967063389893084" lon="15.662148116400664"><ele>570.0</ele><time>2026-04-19T18:00:59Z</time></trkpt><trkpt lat="40.96691091512024" lon="15.66230481730319"><ele>570.0</ele><time>2026-04-19T18:01:00Z</time></trkpt><trkpt lat="40.966756851020655" lon="15.662460092900806"><ele>570.0</ele><time>2026-04-19T18:01:01Z</time></trkpt><trkpt lat="40.966603695033214" lon="15.662614958160818"><ele>570.0</ele><time>2026-04-19T18:01:02Z</time></trkpt><trkpt lat="40.966450731918094" lon="15.66276996286988"><ele>559.6666666666666</ele><time>2026-04-19T18:01:03Z</time></trkpt><trkpt lat="40.9662914328068" lon="15.662931389658693"><ele>549.3333333333333</ele><time>2026-04-19T18:01:04Z</time></trkpt><trkpt lat="40.96613908447706" lon="15.663110360717257"><ele>539.0</ele><time>2026-04-19T18:01:05Z</time></trkpt><trkpt lat="40.9659665369784" lon="15.663254293401971"><ele>539.6666666666666</ele><time>2026-04-19T18:01:06Z</time></trkpt><trkpt lat="40.965792304282395" lon="15.663394707948408"><ele>540.3333333333334</ele><time>2026-04-19T18:01:07Z</time></trkpt><trkpt lat="40.965676618597" lon="15.663558465004112"><ele>541.0</ele><time>2026-04-19T18:01:08Z</time></trkpt><trkpt lat="40.965521236442626" lon="15.66371846838962"><ele>544.0</ele><time>2026-04-19T18:01:09Z</time></trkpt><trkpt lat="40.96537069204792" lon="15.66387349022586"><ele>547.0</ele><time>2026-04-19T18:01:10Z</time></trkpt><trkpt lat="40.96522331274596" lon="15.664025245165256"><ele>550.0</ele><time>2026-04-19T18:01:11Z</time></trkpt><trkpt lat="40.96507488847614" lon="15.664187643163848"><ele>555.6666666666667</ele><time>2026-04-19T18:01:12Z</time></trkpt><trkpt lat="40.964941241748846" lon="15.664376565011617"><ele>561.3333333333334</ele><time>2026-04-19T18:01:13Z</time></trkpt><trkpt lat="40.96480108665815" lon="15.66456020303363"><ele>567.0</ele><time>2026-04-19T18:01:14Z</time></trkpt><trkpt lat="40.96467254709679" lon="15.664753714566295"><ele>567.0</ele><time>2026-04-19T18:01:15Z</time></trkpt><trkpt lat="40.96455015164253" lon="15.664954333590059"><ele>567.0</ele><time>2026-04-19T18:01:16Z</time></trkpt><trkpt lat="40.96446171851433" lon="15.665190555258304"><ele>567.0</ele><time>2026-04-19T18:01:17Z</time></trkpt><trkpt lat="40.96437684454161" lon="15.665440448524103"><ele>567.3333333333334</ele><time>2026-04-19T18:01:18Z</time></trkpt><trkpt lat="40.96429351808339" lon="15.665699133632435"><ele>567.6666666666667</ele><time>2026-04-19T18:01:19Z</time></trkpt><trkpt lat="40.96421944858068" lon="15.665961322870618"><ele>568.0</ele><time>2026-04-19T18:01:20Z</time></trkpt><trkpt lat="40.96412411183232" lon="15.666215069326611"><ele>568.0</ele><time>2026-04-19T18:01:21Z</time></trkpt><trkpt lat="40.964042652993896" lon="15.666468310063035"><ele>568.0</ele><time>2026-04-19T18:01:22Z</time></trkpt><trkpt lat="40.96396039760898" lon="15.666723787492527"><ele>568.0</ele><time>2026-04-19T18:01:23Z</time></trkpt><trkpt lat="40.96387779225959" lon="15.666980324046845"><ele>567.0</ele><time>2026-04-19T18:01:24Z</time></trkpt><trkpt lat="40.9637952281721" lon="15.667238369852106"><ele>566.0</ele><time>2026-04-19T18:01:25Z</time></trkpt><trkpt lat="40.963713007701976" lon="15.667495863957166"><ele>565.0</ele><time>2026-04-19T18:01:26Z</time></trkpt><trkpt lat="40.96362854692176" lon="15.667760374575447"><ele>563.6666666666667</ele><time>2026-04-19T18:01:27Z</time></trkpt><trkpt lat="40.96354269866204" lon="15.668029273041807"><ele>562.3333333333334</ele><time>2026-04-19T18:01:28Z</time></trkpt><trkpt lat="40.963459301315744" lon="15.66829068756298"><ele>561.0</ele><time>2026-04-19T18:01:29Z</time></trkpt><trkpt lat="40.96337545699277" lon="15.668553502842379"><ele>556.3333333333334</ele><time>2026-04-19T18:01:30Z</time></trkpt><trkpt lat="40.96328999858664" lon="15.668821376954085"><ele>551.6666666666667</ele><time>2026-04-19T18:01:31Z</time></trkpt><trkpt lat="40.96320384766424" lon="15.66909189294276"><ele>547.0</ele><time>2026-04-19T18:01:32Z</time></trkpt><trkpt lat="40.963118106384066" lon="15.669360473008599"><ele>542.6666666666667</ele><time>2026-04-19T18:01:33Z</time></trkpt><trkpt lat="40.96302875745263" lon="15.669640353622064"><ele>538.3333333333334</ele><time>2026-04-19T18:01:34Z</time></trkpt><trkpt lat="40.96294354616605" lon="15.669905955659596"><ele>534.0</ele><time>2026-04-19T18:01:35Z</time></trkpt><trkpt lat="40.96285685280692" lon="15.670178129245667"><ele>536.0</ele><time>2026-04-19T18:01:36Z</time></trkpt><trkpt lat="40.96277185785733" lon="15.670442946373083"><ele>538.0</ele><time>2026-04-19T18:01:37Z</time></trkpt><trkpt lat="40.962682783171765" lon="15.670720475050569"><ele>540.0</ele><time>2026-04-19T18:01:38Z</time></trkpt><trkpt lat="40.96259327656748" lon="15.670994164668365"><ele>544.5</ele><time>2026-04-19T18:01:39Z</time></trkpt><trkpt lat="40.96250324526922" lon="15.671268651672301"><ele>549.0</ele><time>2026-04-19T18:01:40Z</time></trkpt><trkpt lat="40.96240481743353" lon="15.671548300232708"><ele>549.0</ele><time>2026-04-19T18:01:41Z</time></trkpt><trkpt lat="40.96229905476082" lon="15.671830521095782"><ele>549.0</ele><time>2026-04-19T18:01:42Z</time></trkpt><trkpt lat="40.96218766894298" lon="15.67211636399866"><ele>546.5</ele><time>2026-04-19T18:01:43Z</time></trkpt><trkpt lat="40.96207392652811" lon="15.672406021397242"><ele>544.0</ele><time>2026-04-19T18:01:44Z</time></trkpt><trkpt lat="40.96195856341565" lon="15.672696747077433"><ele>539.5</ele><time>2026-04-19T18:01:45Z</time></trkpt><trkpt lat="40.961842753347675" lon="15.672988366511367"><ele>535.0</ele><time>2026-04-19T18:01:46Z</time></trkpt><trkpt lat="40.96172462045618" lon="15.673284571841831"><ele>535.5</ele><time>2026-04-19T18:01:47Z</time></trkpt><trkpt lat="40.96160601384079" lon="15.673582678364653"><ele>536.0</ele><time>2026-04-19T18:01:48Z</time></trkpt><trkpt lat="40.9614862532788" lon="15.67388485489735"><ele>529.5</ele><time>2026-04-19T18:01:49Z</time></trkpt><trkpt lat="40.96137109799179" lon="15.674175532780636"><ele>523.0</ele><time>2026-04-19T18:01:50Z</time></trkpt><trkpt lat="40.96126691119071" lon="15.674437984757237"><ele>522.0</ele><time>2026-04-19T18:01:51Z</time></trkpt><trkpt lat="40.961163000282426" lon="15.674699287164318"><ele>521.0</ele><time>2026-04-19T18:01:52Z</time></trkpt><trkpt lat="40.96106130623028" lon="15.67495338372293"><ele>520.0</ele><time>2026-04-19T18:01:53Z</time></trkpt><trkpt lat="40.96095759009189" lon="15.675213545773172"><ele>525.5</ele><time>2026-04-19T18:01:54Z</time></trkpt><trkpt lat="40.960850215003305" lon="15.675479820769013"><ele>531.0</ele><time>2026-04-19T18:01:55Z</time></trkpt><trkpt lat="40.9607432283404" lon="15.675747894854014"><ele>531.0</ele><time>2026-04-19T18:01:56Z</time></trkpt><trkpt lat="40.96063579350485" lon="15.676019326147095"><ele>531.0</ele><time>2026-04-19T18:01:57Z</time></trkpt><trkpt lat="40.960530613932455" lon="15.676287384073486"><ele>528.5</ele><time>2026-04-19T18:01:58Z</time></trkpt><trkpt lat="40.960424476995854" lon="15.676557758484092"><ele>526.0</ele><time>2026-04-19T18:01:59Z</time></trkpt><trkpt lat="40.960318827035" lon="15.676824670267871"><ele>524.0</ele><time>2026-04-19T18:02:00Z</time></trkpt><trkpt lat="40.960225941989826" lon="15.677099998381253"><ele>522.0</ele><time>2026-04-19T18:02:01Z</time></trkpt><trkpt lat="40.96010365976547" lon="15.677355500523571"><ele>523.0</ele><time>2026-04-19T18:02:02Z</time></trkpt><trkpt lat="40.95998087369985" lon="15.6776219785273"><ele>524.0</ele><time>2026-04-19T18:02:03Z</time></trkpt><trkpt lat="40.95986153194598" lon="15.677865624140845"><ele>520.5</ele><time>2026-04-19T18:02:04Z</time></trkpt><trkpt lat="40.9597347308346" lon="15.678112042455822"><ele>517.0</ele><time>2026-04-19T18:02:05Z</time></trkpt><trkpt lat="40.95960028268918" lon="15.67835707158429"><ele>517.0</ele><time>2026-04-19T18:02:06Z</time></trkpt><trkpt lat="40.959458144581596" lon="15.678593549693716"><ele>517.0</ele><time>2026-04-19T18:02:07Z</time></trkpt><trkpt lat="40.95930633954621" lon="15.67882789186886"><ele>514.0</ele><time>2026-04-19T18:02:08Z</time></trkpt><trkpt lat="40.959154878105494" lon="15.679050087105205"><ele>511.0</ele><time>2026-04-19T18:02:09Z</time></trkpt><trkpt lat="40.95899597458283" lon="15.679272996691886"><ele>509.0</ele><time>2026-04-19T18:02:10Z</time></trkpt><trkpt lat="40.95883369161044" lon="15.679488061193126"><ele>507.0</ele><time>2026-04-19T18:02:11Z</time></trkpt><trkpt lat="40.95867120059297" lon="15.679699910003212"><ele>507.0</ele><time>2026-04-19T18:02:12Z</time></trkpt><trkpt lat="40.95850804910464" lon="15.67991411470216"><ele>507.0</ele><time>2026-04-19T18:02:13Z</time></trkpt><trkpt lat="40.95834848982855" lon="15.68012799476297"><ele>503.33333333333337</ele><time>2026-04-19T18:02:14Z</time></trkpt><trkpt lat="40.95818859030579" lon="15.680340578508236"><ele>499.6666666666667</ele><time>2026-04-19T18:02:15Z</time></trkpt><trkpt lat="40.958031490329766" lon="15.680543909222658"><ele>496.0</ele><time>2026-04-19T18:02:16Z</time></trkpt><trkpt lat="40.95786991382329" lon="15.68074128251193"><ele>496.0</ele><time>2026-04-19T18:02:17Z</time></trkpt><trkpt lat="40.957701385565514" lon="15.680936946617104"><ele>496.0</ele><time>2026-04-19T18:02:18Z</time></trkpt><trkpt lat="40.95752675123662" lon="15.681124623517697"><ele>496.0</ele><time>2026-04-19T18:02:19Z</time></trkpt><trkpt lat="40.95734529183535" lon="15.681308898483033"><ele>496.0</ele><time>2026-04-19T18:02:20Z</time></trkpt><trkpt lat="40.957161004330956" lon="15.681490154499818"><ele>496.0</ele><time>2026-04-19T18:02:21Z</time></trkpt><trkpt lat="40.95697142324207" lon="15.68167338448994"><ele>496.0</ele><time>2026-04-19T18:02:22Z</time></trkpt><trkpt lat="40.956783771948736" lon="15.681854591208964"><ele>496.0</ele><time>2026-04-19T18:02:23Z</time></trkpt><trkpt lat="40.95660607594418" lon="15.682057296136449"><ele>496.0</ele><time>2026-04-19T18:02:24Z</time></trkpt><trkpt lat="40.95641656563522" lon="15.682237354047475"><ele>496.0</ele><time>2026-04-19T18:02:25Z</time></trkpt><trkpt lat="40.95622682229582" lon="15.682419866916943"><ele>496.0</ele><time>2026-04-19T18:02:26Z</time></trkpt><trkpt lat="40.956033988172805" lon="15.68260230931005"><ele>496.0</ele><time>2026-04-19T18:02:27Z</time></trkpt><trkpt lat="40.9558276298145" lon="15.682756904323918"><ele>493.5</ele><time>2026-04-19T18:02:28Z</time></trkpt><trkpt lat="40.955635046037806" lon="15.682938511740119"><ele>491.0</ele><time>2026-04-19T18:02:29Z</time></trkpt><trkpt lat="40.95544185450935" lon="15.683121137440782"><ele>491.0</ele><time>2026-04-19T18:02:30Z</time></trkpt><trkpt lat="40.95525266279206" lon="15.683300015060503"><ele>491.0</ele><time>2026-04-19T18:02:31Z</time></trkpt><trkpt lat="40.95507091031502" lon="15.683497476858715"><ele>493.5</ele><time>2026-04-19T18:02:32Z</time></trkpt><trkpt lat="40.954879397924174" lon="15.683675379509573"><ele>496.0</ele><time>2026-04-19T18:02:33Z</time></trkpt><trkpt lat="40.95468827635226" lon="15.68385390373603"><ele>496.0</ele><time>2026-04-19T18:02:34Z</time></trkpt><trkpt lat="40.95449822826697" lon="15.684033988688288"><ele>496.0</ele><time>2026-04-19T18:02:35Z</time></trkpt><trkpt lat="40.95431069125869" lon="15.684213955351408"><ele>500.0</ele><time>2026-04-19T18:02:36Z</time></trkpt><trkpt lat="40.9541212015408" lon="15.684395344588"><ele>504.0</ele><time>2026-04-19T18:02:37Z</time></trkpt><trkpt lat="40.95392578262951" lon="15.68455348762229"><ele>504.0</ele><time>2026-04-19T18:02:38Z</time></trkpt><trkpt lat="40.953735068086594" lon="15.684733442448477"><ele>504.0</ele><time>2026-04-19T18:02:39Z</time></trkpt><trkpt lat="40.95354962455886" lon="15.684908177805465"><ele>505.0</ele><time>2026-04-19T18:02:40Z</time></trkpt><trkpt lat="40.953363482671456" lon="15.685085035451689"><ele>506.0</ele><time>2026-04-19T18:02:41Z</time></trkpt><trkpt lat="40.953185637361756" lon="15.685270281507895"><ele>503.3333333333333</ele><time>2026-04-19T18:02:42Z</time></trkpt><trkpt lat="40.95299590329095" lon="15.685430062699846"><ele>500.66666666666663</ele><time>2026-04-19T18:02:43Z</time></trkpt><trkpt lat="40.952811988205056" lon="15.685574242844957"><ele>498.0</ele><time>2026-04-19T18:02:44Z</time></trkpt><trkpt lat="40.9526235654691" lon="15.685709929056701"><ele>490.33333333333337</ele><time>2026-04-19T18:02:45Z</time></trkpt><trkpt lat="40.9524316041154" lon="15.685839666481433"><ele>482.6666666666667</ele><time>2026-04-19T18:02:46Z</time></trkpt><trkpt lat="40.95224200861493" lon="15.685961201589608"><ele>475.0</ele><time>2026-04-19T18:02:47Z</time></trkpt><trkpt lat="40.95205179267352" lon="15.686071858620966"><ele>472.33333333333337</ele><time>2026-04-19T18:02:48Z</time></trkpt><trkpt lat="40.951857265557926" lon="15.686171849281326"><ele>469.66666666666663</ele><time>2026-04-19T18:02:49Z</time></trkpt><trkpt lat="40.95165591160652" lon="15.686267165187505"><ele>467.0</ele><time>2026-04-19T18:02:50Z</time></trkpt><trkpt lat="40.95146261748655" lon="15.686348999998554"><ele>467.0</ele><time>2026-04-19T18:02:51Z</time></trkpt><trkpt lat="40.95126445030617" lon="15.686428421275538"><ele>467.0</ele><time>2026-04-19T18:02:52Z</time></trkpt><trkpt lat="40.951060535012" lon="15.686502428841184"><ele>467.0</ele><time>2026-04-19T18:02:53Z</time></trkpt><trkpt lat="40.950852719962114" lon="15.686564230062665"><ele>474.66666666666663</ele><time>2026-04-19T18:02:54Z</time></trkpt><trkpt lat="40.950653756383254" lon="15.686617438281832"><ele>482.33333333333337</ele><time>2026-04-19T18:02:55Z</time></trkpt><trkpt lat="40.95045451436594" lon="15.686658494131192"><ele>490.0</ele><time>2026-04-19T18:02:56Z</time></trkpt><trkpt lat="40.9502444315787" lon="15.686696226075114"><ele>493.33333333333337</ele><time>2026-04-19T18:02:57Z</time></trkpt><trkpt lat="40.95004136910712" lon="15.686723432635146"><ele>496.66666666666663</ele><time>2026-04-19T18:02:58Z</time></trkpt><trkpt lat="40.94983845246087" lon="15.686724007798462"><ele>500.0</ele><time>2026-04-19T18:02:59Z</time></trkpt><trkpt lat="40.949632815503634" lon="15.686734180196648"><ele>500.0</ele><time>2026-04-19T18:03:00Z</time></trkpt><trkpt lat="40.949434127288384" lon="15.686739130132063"><ele>500.0</ele><time>2026-04-19T18:03:01Z</time></trkpt><trkpt lat="40.94923284729153" lon="15.686758324059985"><ele>500.0</ele><time>2026-04-19T18:03:02Z</time></trkpt><trkpt lat="40.94903320655248" lon="15.686737932919534"><ele>504.0</ele><time>2026-04-19T18:03:03Z</time></trkpt><trkpt lat="40.94883677529456" lon="15.686714745123831"><ele>508.0</ele><time>2026-04-19T18:03:04Z</time></trkpt><trkpt lat="40.948640687243355" lon="15.686682685257088"><ele>512.0</ele><time>2026-04-19T18:03:05Z</time></trkpt><trkpt lat="40.948445137188095" lon="15.6866472309936"><ele>513.3333333333333</ele><time>2026-04-19T18:03:06Z</time></trkpt><trkpt lat="40.94825278432152" lon="15.686608897763387"><ele>514.6666666666666</ele><time>2026-04-19T18:03:07Z</time></trkpt><trkpt lat="40.948058824644214" lon="15.686565393936089"><ele>516.0</ele><time>2026-04-19T18:03:08Z</time></trkpt><trkpt lat="40.94786484330598" lon="15.686517556474803"><ele>516.0</ele><time>2026-04-19T18:03:09Z</time></trkpt><trkpt lat="40.947682126745896" lon="15.686467452557888"><ele>516.0</ele><time>2026-04-19T18:03:10Z</time></trkpt><trkpt lat="40.947484787814886" lon="15.686421926013676"><ele>516.0</ele><time>2026-04-19T18:03:11Z</time></trkpt><trkpt lat="40.9472955679981" lon="15.686380460135895"><ele>517.3333333333334</ele><time>2026-04-19T18:03:12Z</time></trkpt><trkpt lat="40.94710532171846" lon="15.686336044846506"><ele>518.6666666666667</ele><time>2026-04-19T18:03:13Z</time></trkpt><trkpt lat="40.946911445140316" lon="15.68628956804744"><ele>520.0</ele><time>2026-04-19T18:03:14Z</time></trkpt><trkpt lat="40.94672474842332" lon="15.686245391937174"><ele>521.6666666666667</ele><time>2026-04-19T18:03:15Z</time></trkpt><trkpt lat="40.94653343661101" lon="15.686206602008372"><ele>523.3333333333334</ele><time>2026-04-19T18:03:16Z</time></trkpt><trkpt lat="40.946342212829286" lon="15.686167092231855"><ele>525.0</ele><time>2026-04-19T18:03:17Z</time></trkpt><trkpt lat="40.94615229038308" lon="15.686123462108528"><ele>527.0</ele><time>2026-04-19T18:03:18Z</time></trkpt><trkpt lat="40.94596517800603" lon="15.686080663733804"><ele>529.0</ele><time>2026-04-19T18:03:19Z</time></trkpt><trkpt lat="40.94577763021957" lon="15.686038051013336"><ele>531.0</ele><time>2026-04-19T18:03:20Z</time></trkpt><trkpt lat="40.945586316184716" lon="15.685992174988836"><ele>534.6666666666666</ele><time>2026-04-19T18:03:21Z</time></trkpt><trkpt lat="40.94539850646161" lon="15.685939430092814"><ele>538.3333333333333</ele><time>2026-04-19T18:03:22Z</time></trkpt><trkpt lat="40.945213245417534" lon="15.68588119349008"><ele>542.0</ele><time>2026-04-19T18:03:23Z</time></trkpt><trkpt lat="40.945027929224324" lon="15.685817226602394"><ele>546.0</ele><time>2026-04-19T18:03:24Z</time></trkpt><trkpt lat="40.94484433955444" lon="15.685747379925049"><ele>550.0</ele><time>2026-04-19T18:03:25Z</time></trkpt><trkpt lat="40.94466562250799" lon="15.685679357533898"><ele>554.0</ele><time>2026-04-19T18:03:26Z</time></trkpt><trkpt lat="40.94447923063172" lon="15.685603088619159"><ele>554.0</ele><time>2026-04-19T18:03:27Z</time></trkpt><trkpt lat="40.944300030793634" lon="15.685507854281605"><ele>554.0</ele><time>2026-04-19T18:03:28Z</time></trkpt><trkpt lat="40.94411883693875" lon="15.685415157598129"><ele>554.0</ele><time>2026-04-19T18:03:29Z</time></trkpt><trkpt lat="40.9439381512352" lon="15.685322673363274"><ele>557.3333333333333</ele><time>2026-04-19T18:03:30Z</time></trkpt><trkpt lat="40.9437600347522" lon="15.685227863760808"><ele>560.6666666666666</ele><time>2026-04-19T18:03:31Z</time></trkpt><trkpt lat="40.943578395507714" lon="15.685143254051821"><ele>564.0</ele><time>2026-04-19T18:03:32Z</time></trkpt><trkpt lat="40.94339258073396" lon="15.685054415852415"><ele>562.0</ele><time>2026-04-19T18:03:33Z</time></trkpt><trkpt lat="40.943223084644764" lon="15.684969263920847"><ele>560.0</ele><time>2026-04-19T18:03:34Z</time></trkpt><trkpt lat="40.9430684925257" lon="15.684890488968014"><ele>558.0</ele><time>2026-04-19T18:03:35Z</time></trkpt><trkpt lat="40.94292931168538" lon="15.684816589962393"><ele>558.0</ele><time>2026-04-19T18:03:36Z</time></trkpt><trkpt lat="40.94281895453661" lon="15.684749434320613"><ele>558.0</ele><time>2026-04-19T18:03:37Z</time></trkpt><trkpt lat="40.94273104456956" lon="15.684688274669035"><ele>558.0</ele><time>2026-04-19T18:03:38Z</time></trkpt><trkpt lat="40.942669766294536" lon="15.684628372807193"><ele>558.0</ele><time>2026-04-19T18:03:39Z</time></trkpt><trkpt lat="40.94263824844277" lon="15.684541362227796"><ele>558.0</ele><time>2026-04-19T18:03:40Z</time></trkpt><trkpt lat="40.942637071232404" lon="15.684436066410013"><ele>558.0</ele><time>2026-04-19T18:03:41Z</time></trkpt><trkpt lat="40.942661701956965" lon="15.684336676050723"><ele>561.1999999999999</ele><time>2026-04-19T18:03:42Z</time></trkpt><trkpt lat="40.94272880712483" lon="15.684260849924494"><ele>564.4</ele><time>2026-04-19T18:03:43Z</time></trkpt><trkpt lat="40.942797953568494" lon="15.684204712258717"><ele>567.5999999999999</ele><time>2026-04-19T18:03:44Z</time></trkpt><trkpt lat="40.942899124714145" lon="15.684269761143291"><ele>570.8</ele><time>2026-04-19T18:03:45Z</time></trkpt><trkpt lat="40.94298763834746" lon="15.684320819767725"><ele>574.0</ele><time>2026-04-19T18:03:46Z</time></trkpt><trkpt lat="40.9430953383034" lon="15.68438408659266"><ele>571.5</ele><time>2026-04-19T18:03:47Z</time></trkpt><trkpt lat="40.94320960429463" lon="15.684447810978643"><ele>569.0</ele><time>2026-04-19T18:03:48Z</time></trkpt><trkpt lat="40.94333689163436" lon="15.68450789288101"><ele>566.5</ele><time>2026-04-19T18:03:49Z</time></trkpt><trkpt lat="40.943471860934494" lon="15.684565906110606"><ele>564.0</ele><time>2026-04-19T18:03:50Z</time></trkpt><trkpt lat="40.94361161546249" lon="15.684628783328424"><ele>564.0</ele><time>2026-04-19T18:03:51Z</time></trkpt><trkpt lat="40.94375034200871" lon="15.684690140576569"><ele>564.0</ele><time>2026-04-19T18:03:52Z</time></trkpt><trkpt lat="40.943882128066925" lon="15.684740389556685"><ele>564.0</ele><time>2026-04-19T18:03:53Z</time></trkpt><trkpt lat="40.944003721791304" lon="15.684784476160608"><ele>564.0</ele><time>2026-04-19T18:03:54Z</time></trkpt><trkpt lat="40.94412404528122" lon="15.684803577356398"><ele>563.0</ele><time>2026-04-19T18:03:55Z</time></trkpt><trkpt lat="40.94423187098144" lon="15.684827846070126"><ele>562.0</ele><time>2026-04-19T18:03:56Z</time></trkpt><trkpt lat="40.944337365791256" lon="15.684854172366109"><ele>561.0</ele><time>2026-04-19T18:03:57Z</time></trkpt><trkpt lat="40.9444257300095" lon="15.684875773317778"><ele>560.0</ele><time>2026-04-19T18:03:58Z</time></trkpt><trkpt lat="40.94449650040227" lon="15.684891882480619"><ele>559.0</ele><time>2026-04-19T18:03:59Z</time></trkpt><trkpt lat="40.94456459327939" lon="15.68489693371864"><ele>558.0</ele><time>2026-04-19T18:04:00Z</time></trkpt><trkpt lat="40.94462657679486" lon="15.684851993567335"><ele>558.0</ele><time>2026-04-19T18:04:02Z</time></trkpt><trkpt lat="40.944681508819784" lon="15.684807504993454"><ele>558.0</ele><time>2026-04-19T18:04:05Z</time></trkpt><trkpt lat="40.94465672715312" lon="15.684640025722805"><ele>558.0</ele><time>2026-04-19T18:04:07Z</time></trkpt><trkpt lat="40.944612703733846" lon="15.684542396045796"><ele>558.0</ele><time>2026-04-19T18:04:08Z</time></trkpt><trkpt lat="40.94457629219115" lon="15.684424745936116"><ele>558.0</ele><time>2026-04-19T18:04:09Z</time></trkpt><trkpt lat="40.94454135771744" lon="15.68430942434768"><ele>560.5</ele><time>2026-04-19T18:04:10Z</time></trkpt><trkpt lat="40.94450472413384" lon="15.68417351153165"><ele>563.0</ele><time>2026-04-19T18:04:11Z</time></trkpt><trkpt lat="40.9444685465418" lon="15.684027740147318"><ele>565.5</ele><time>2026-04-19T18:04:12Z</time></trkpt><trkpt lat="40.944427786148566" lon="15.683874780400659"><ele>568.0</ele><time>2026-04-19T18:04:13Z</time></trkpt><trkpt lat="40.9443977886555" lon="15.683709197171021"><ele>569.0</ele><time>2026-04-19T18:04:14Z</time></trkpt><trkpt lat="40.94436805679313" lon="15.683540235101011"><ele>570.0</ele><time>2026-04-19T18:04:15Z</time></trkpt><trkpt lat="40.94433622845704" lon="15.68336706972408"><ele>571.0</ele><time>2026-04-19T18:04:16Z</time></trkpt><trkpt lat="40.944306161061355" lon="15.683198723597952"><ele>572.0</ele><time>2026-04-19T18:04:17Z</time></trkpt><trkpt lat="40.94427320479514" lon="15.683025096777282"><ele>572.0</ele><time>2026-04-19T18:04:18Z</time></trkpt><trkpt lat="40.94423819597402" lon="15.6828492752284"><ele>572.0</ele><time>2026-04-19T18:04:19Z</time></trkpt><trkpt lat="40.944206343032285" lon="15.68266698602649"><ele>572.0</ele><time>2026-04-19T18:04:20Z</time></trkpt><trkpt lat="40.94416749583774" lon="15.682489554264137"><ele>572.0</ele><time>2026-04-19T18:04:21Z</time></trkpt><trkpt lat="40.94412679088108" lon="15.682309307968364"><ele>575.5</ele><time>2026-04-19T18:04:22Z</time></trkpt><trkpt lat="40.94408783442107" lon="15.682129536834458"><ele>579.0</ele><time>2026-04-19T18:04:23Z</time></trkpt><trkpt lat="40.9440294541248" lon="15.68195774287981"><ele>582.5</ele><time>2026-04-19T18:04:24Z</time></trkpt><trkpt lat="40.94395536677006" lon="15.681799351507092"><ele>586.0</ele><time>2026-04-19T18:04:25Z</time></trkpt><trkpt lat="40.943868291084776" lon="15.681644423806338"><ele>587.5</ele><time>2026-04-19T18:04:26Z</time></trkpt><trkpt lat="40.94376377310585" lon="15.681506681639767"><ele>589.0</ele><time>2026-04-19T18:04:27Z</time></trkpt><trkpt lat="40.94365289436217" lon="15.681380298565461"><ele>590.5</ele><time>2026-04-19T18:04:28Z</time></trkpt><trkpt lat="40.943542598542216" lon="15.68125769004274"><ele>592.0</ele><time>2026-04-19T18:04:29Z</time></trkpt><trkpt lat="40.94342968629882" lon="15.68113490105963"><ele>595.5</ele><time>2026-04-19T18:04:30Z</time></trkpt><trkpt lat="40.94331655641229" lon="15.681011990168901"><ele>599.0</ele><time>2026-04-19T18:04:31Z</time></trkpt><trkpt lat="40.94320416781359" lon="15.680892888409566"><ele>602.5</ele><time>2026-04-19T18:04:32Z</time></trkpt><trkpt lat="40.94308866189227" lon="15.680769279940227"><ele>606.0</ele><time>2026-04-19T18:04:33Z</time></trkpt><trkpt lat="40.94297342286174" lon="15.68064630457207"><ele>606.0</ele><time>2026-04-19T18:04:34Z</time></trkpt><trkpt lat="40.94286149621319" lon="15.680522996192874"><ele>606.0</ele><time>2026-04-19T18:04:35Z</time></trkpt><trkpt lat="40.942750648719596" lon="15.68040491357036"><ele>606.0</ele><time>2026-04-19T18:04:36Z</time></trkpt><trkpt lat="40.94263994453092" lon="15.680272970014789"><ele>606.0</ele><time>2026-04-19T18:04:37Z</time></trkpt><trkpt lat="40.94253531775337" lon="15.680133557911093"><ele>609.6666666666666</ele><time>2026-04-19T18:04:38Z</time></trkpt><trkpt lat="40.94243035980649" lon="15.67998634770674"><ele>613.3333333333333</ele><time>2026-04-19T18:04:39Z</time></trkpt><trkpt lat="40.94232820570494" lon="15.679834593984086"><ele>617.0</ele><time>2026-04-19T18:04:40Z</time></trkpt><trkpt lat="40.94222953717293" lon="15.679681300975401"><ele>617.0</ele><time>2026-04-19T18:04:41Z</time></trkpt><trkpt lat="40.9421345542639" lon="15.679521166912336"><ele>617.0</ele><time>2026-04-19T18:04:42Z</time></trkpt><trkpt lat="40.94203874112028" lon="15.679346794015052"><ele>617.0</ele><time>2026-04-19T18:04:43Z</time></trkpt><trkpt lat="40.94194503922013" lon="15.679181495026121"><ele>617.0</ele><time>2026-04-19T18:04:44Z</time></trkpt><trkpt lat="40.94185432736298" lon="15.679013686139209"><ele>617.0</ele><time>2026-04-19T18:04:45Z</time></trkpt><trkpt lat="40.94175608894893" lon="15.678841618968995"><ele>617.0</ele><time>2026-04-19T18:04:46Z</time></trkpt><trkpt lat="40.941661732650104" lon="15.678676307586963"><ele>621.3333333333333</ele><time>2026-04-19T18:04:47Z</time></trkpt><trkpt lat="40.94156352828324" lon="15.678505912255131"><ele>625.6666666666666</ele><time>2026-04-19T18:04:48Z</time></trkpt><trkpt lat="40.94147320116613" lon="15.678333743087688"><ele>630.0</ele><time>2026-04-19T18:04:49Z</time></trkpt><trkpt lat="40.941388297457195" lon="15.678161444826344"><ele>630.0</ele><time>2026-04-19T18:04:50Z</time></trkpt><trkpt lat="40.9413195833473" lon="15.6779671725284"><ele>630.0</ele><time>2026-04-19T18:04:51Z</time></trkpt><trkpt lat="40.94126002824102" lon="15.677763951483646"><ele>630.0</ele><time>2026-04-19T18:04:52Z</time></trkpt><trkpt lat="40.941207235844715" lon="15.677584321588997"><ele>629.4</ele><time>2026-04-19T18:04:53Z</time></trkpt><trkpt lat="40.941160200217816" lon="15.677425236162732"><ele>628.8</ele><time>2026-04-19T18:04:54Z</time></trkpt><trkpt lat="40.941118868023935" lon="15.67728065046838"><ele>628.2</ele><time>2026-04-19T18:04:55Z</time></trkpt><trkpt lat="40.94108589558275" lon="15.677157714897248"><ele>627.6</ele><time>2026-04-19T18:04:56Z</time></trkpt><trkpt lat="40.941048704493404" lon="15.677035826274114"><ele>627.0</ele><time>2026-04-19T18:04:57Z</time></trkpt><trkpt lat="40.94100789626851" lon="15.676914476107006"><ele>625.75</ele><time>2026-04-19T18:04:58Z</time></trkpt><trkpt lat="40.94096651069162" lon="15.676785039388122"><ele>624.5</ele><time>2026-04-19T18:04:59Z</time></trkpt><trkpt lat="40.940922214626454" lon="15.676650484354578"><ele>623.25</ele><time>2026-04-19T18:05:00Z</time></trkpt><trkpt lat="40.94086775762578" lon="15.676521021046469"><ele>622.0</ele><time>2026-04-19T18:05:01Z</time></trkpt><trkpt lat="40.94079330246644" lon="15.676394698028377"><ele>624.5</ele><time>2026-04-19T18:05:02Z</time></trkpt><trkpt lat="40.94072177607273" lon="15.676287524561248"><ele>627.0</ele><time>2026-04-19T18:05:03Z</time></trkpt><trkpt lat="40.940663110977525" lon="15.676211854745452"><ele>629.5</ele><time>2026-04-19T18:05:04Z</time></trkpt><trkpt lat="40.94058875894322" lon="15.676111829995662"><ele>632.0</ele><time>2026-04-19T18:05:06Z</time></trkpt><trkpt lat="40.940549061684045" lon="15.67602697535347"><ele>634.5</ele><time>2026-04-19T18:05:09Z</time></trkpt><trkpt lat="40.94051066208592" lon="15.675950120015326"><ele>637.0</ele><time>2026-04-19T18:05:11Z</time></trkpt><trkpt lat="40.94045552231267" lon="15.675904788361946"><ele>637.0</ele><time>2026-04-19T18:05:15Z</time></trkpt><trkpt lat="40.9403458036846" lon="15.675923605439364"><ele>637.0</ele><time>2026-04-19T18:05:17Z</time></trkpt><trkpt lat="40.94025954695427" lon="15.676032517597093"><ele>637.0</ele><time>2026-04-19T18:05:19Z</time></trkpt><trkpt lat="40.94019853219901" lon="15.676109315119104"><ele>637.0</ele><time>2026-04-19T18:05:20Z</time></trkpt><trkpt lat="40.9401353710529" lon="15.67618866801255"><ele>637.0</ele><time>2026-04-19T18:05:21Z</time></trkpt><trkpt lat="40.940073786158145" lon="15.676266040527079"><ele>638.1666666666667</ele><time>2026-04-19T18:05:22Z</time></trkpt><trkpt lat="40.94001558465595" lon="15.676339162322941"><ele>639.3333333333334</ele><time>2026-04-19T18:05:23Z</time></trkpt><trkpt lat="40.939953657475094" lon="15.67641297268632"><ele>640.5</ele><time>2026-04-19T18:05:24Z</time></trkpt><trkpt lat="40.93988660848658" lon="15.676489782568659"><ele>641.6666666666666</ele><time>2026-04-19T18:05:25Z</time></trkpt><trkpt lat="40.93981374342052" lon="15.676562048275182"><ele>642.8333333333333</ele><time>2026-04-19T18:05:26Z</time></trkpt><trkpt lat="40.939732815148965" lon="15.676620168529812"><ele>644.0</ele><time>2026-04-19T18:05:27Z</time></trkpt><trkpt lat="40.93965066403115" lon="15.676681091845575"><ele>644.0</ele><time>2026-04-19T18:05:28Z</time></trkpt><trkpt lat="40.939552300910854" lon="15.67669859201262"><ele>644.0</ele><time>2026-04-19T18:05:29Z</time></trkpt><trkpt lat="40.9394471295005" lon="15.676675531944237"><ele>644.0</ele><time>2026-04-19T18:05:30Z</time></trkpt><trkpt lat="40.93933151989087" lon="15.676651306598501"><ele>644.0</ele><time>2026-04-19T18:05:31Z</time></trkpt><trkpt lat="40.93920637093912" lon="15.67662929171583"><ele>644.0</ele><time>2026-04-19T18:05:32Z</time></trkpt><trkpt lat="40.93908411225016" lon="15.676608221377988"><ele>644.25</ele><time>2026-04-19T18:05:33Z</time></trkpt><trkpt lat="40.938958847758485" lon="15.676609757245933"><ele>644.5</ele><time>2026-04-19T18:05:34Z</time></trkpt><trkpt lat="40.93882318020882" lon="15.676583909064066"><ele>644.75</ele><time>2026-04-19T18:05:35Z</time></trkpt><trkpt lat="40.938675650422475" lon="15.676541156888915"><ele>645.0</ele><time>2026-04-19T18:05:36Z</time></trkpt><trkpt lat="40.93851110056024" lon="15.676512423124237"><ele>643.3333333333334</ele><time>2026-04-19T18:05:37Z</time></trkpt><trkpt lat="40.938333596358774" lon="15.676485647261991"><ele>641.6666666666667</ele><time>2026-04-19T18:05:38Z</time></trkpt><trkpt lat="40.938164021270914" lon="15.676459532414365"><ele>640.0</ele><time>2026-04-19T18:05:39Z</time></trkpt><trkpt lat="40.93798531598914" lon="15.676411156579062"><ele>640.0</ele><time>2026-04-19T18:05:40Z</time></trkpt><trkpt lat="40.93780475238103" lon="15.676343114820687"><ele>640.0</ele><time>2026-04-19T18:05:41Z</time></trkpt><trkpt lat="40.937622168938596" lon="15.676268709333566"><ele>640.0</ele><time>2026-04-19T18:05:42Z</time></trkpt><trkpt lat="40.9374414471123" lon="15.676213754258375"><ele>638.0</ele><time>2026-04-19T18:05:43Z</time></trkpt><trkpt lat="40.937268933167374" lon="15.676136453976131"><ele>636.0</ele><time>2026-04-19T18:05:44Z</time></trkpt><trkpt lat="40.937102506876386" lon="15.676069334827918"><ele>634.0</ele><time>2026-04-19T18:05:45Z</time></trkpt><trkpt lat="40.9369546951554" lon="15.675999168770137"><ele>635.25</ele><time>2026-04-19T18:05:46Z</time></trkpt><trkpt lat="40.936823951416585" lon="15.675911967672834"><ele>636.5</ele><time>2026-04-19T18:05:47Z</time></trkpt><trkpt lat="40.936708290461034" lon="15.675799298147313"><ele>637.75</ele><time>2026-04-19T18:05:48Z</time></trkpt><trkpt lat="40.93659556727998" lon="15.675667709465188"><ele>639.0</ele><time>2026-04-19T18:05:49Z</time></trkpt><trkpt lat="40.936487065985155" lon="15.675534881727799"><ele>639.0</ele><time>2026-04-19T18:05:50Z</time></trkpt><trkpt lat="40.93639162725918" lon="15.675419327770724"><ele>639.0</ele><time>2026-04-19T18:05:51Z</time></trkpt><trkpt lat="40.9363052686581" lon="15.67531628265934"><ele>639.0</ele><time>2026-04-19T18:05:52Z</time></trkpt><trkpt lat="40.93621686902655" lon="15.675244011421851"><ele>639.0</ele><time>2026-04-19T18:05:53Z</time></trkpt><trkpt lat="40.93612579240794" lon="15.675211284257674"><ele>639.0</ele><time>2026-04-19T18:05:54Z</time></trkpt><trkpt lat="40.93603790402716" lon="15.675192089067936"><ele>639.0</ele><time>2026-04-19T18:05:55Z</time></trkpt><trkpt lat="40.935945769220716" lon="15.675283218525598"><ele>639.0</ele><time>2026-04-19T18:05:56Z</time></trkpt><trkpt lat="40.93586676559763" lon="15.675377650153711"><ele>639.0</ele><time>2026-04-19T18:05:57Z</time></trkpt><trkpt lat="40.935760976994516" lon="15.675462381204847"><ele>639.0</ele><time>2026-04-19T18:05:58Z</time></trkpt><trkpt lat="40.93565761136846" lon="15.6755553936662"><ele>638.25</ele><time>2026-04-19T18:05:59Z</time></trkpt><trkpt lat="40.935551584805786" lon="15.67561873178226"><ele>637.5</ele><time>2026-04-19T18:06:00Z</time></trkpt><trkpt lat="40.93542579391876" lon="15.675648472166383"><ele>636.75</ele><time>2026-04-19T18:06:01Z</time></trkpt><trkpt lat="40.93528816087775" lon="15.67568856392984"><ele>636.0</ele><time>2026-04-19T18:06:02Z</time></trkpt><trkpt lat="40.93514322170471" lon="15.675697445545527"><ele>636.75</ele><time>2026-04-19T18:06:03Z</time></trkpt><trkpt lat="40.93500744496773" lon="15.675705862460825"><ele>637.5</ele><time>2026-04-19T18:06:04Z</time></trkpt><trkpt lat="40.9348907432111" lon="15.675698434910421"><ele>638.25</ele><time>2026-04-19T18:06:05Z</time></trkpt><trkpt lat="40.93478551894319" lon="15.675683408526519"><ele>639.0</ele><time>2026-04-19T18:06:06Z</time></trkpt><trkpt lat="40.93469000682388" lon="15.675661254233173"><ele>639.0</ele><time>2026-04-19T18:06:07Z</time></trkpt><trkpt lat="40.93461910636173" lon="15.675640834263676"><ele>639.0</ele><time>2026-04-19T18:06:08Z</time></trkpt><trkpt lat="40.934547450587786" lon="15.67563080124063"><ele>639.0</ele><time>2026-04-19T18:06:09Z</time></trkpt><trkpt lat="40.934456171225186" lon="15.675593571576814"><ele>639.0</ele><time>2026-04-19T18:06:10Z</time></trkpt><trkpt lat="40.93434433735575" lon="15.675574109606426"><ele>639.0</ele><time>2026-04-19T18:06:11Z</time></trkpt><trkpt lat="40.934214384986646" lon="15.67557996150565"><ele>640.0</ele><time>2026-04-19T18:06:12Z</time></trkpt><trkpt lat="40.934090283968466" lon="15.675565708065344"><ele>641.0</ele><time>2026-04-19T18:06:13Z</time></trkpt><trkpt lat="40.93398570978335" lon="15.675533264660146"><ele>642.0</ele><time>2026-04-19T18:06:14Z</time></trkpt><trkpt lat="40.93387401407264" lon="15.675549614959799"><ele>643.0</ele><time>2026-04-19T18:06:15Z</time></trkpt><trkpt lat="40.93377282119511" lon="15.675527483079058"><ele>644.0</ele><time>2026-04-19T18:06:16Z</time></trkpt><trkpt lat="40.93367034414209" lon="15.675509405027887"><ele>644.0</ele><time>2026-04-19T18:06:17Z</time></trkpt><trkpt lat="40.93357293874818" lon="15.67544046128864"><ele>644.0</ele><time>2026-04-19T18:06:18Z</time></trkpt><trkpt lat="40.93351109527394" lon="15.675360862920298"><ele>644.0</ele><time>2026-04-19T18:06:19Z</time></trkpt><trkpt lat="40.933430630231136" lon="15.675268737812765"><ele>644.0</ele><time>2026-04-19T18:06:20Z</time></trkpt><trkpt lat="40.93335184294925" lon="15.675158997357403"><ele>644.0</ele><time>2026-04-19T18:06:21Z</time></trkpt><trkpt lat="40.93326626985246" lon="15.675045266795294"><ele>648.0</ele><time>2026-04-19T18:06:22Z</time></trkpt><trkpt lat="40.933188469510114" lon="15.674903441246938"><ele>652.0</ele><time>2026-04-19T18:06:23Z</time></trkpt><trkpt lat="40.933103307087855" lon="15.674757286516625"><ele>656.0</ele><time>2026-04-19T18:06:24Z</time></trkpt><trkpt lat="40.93301520381382" lon="15.674610669521819"><ele>660.0</ele><time>2026-04-19T18:06:25Z</time></trkpt><trkpt lat="40.93293789330909" lon="15.674450509281126"><ele>664.0</ele><time>2026-04-19T18:06:26Z</time></trkpt><trkpt lat="40.932849877026385" lon="15.674279772385717"><ele>668.0</ele><time>2026-04-19T18:06:27Z</time></trkpt><trkpt lat="40.93276215843243" lon="15.674109855276578"><ele>672.0</ele><time>2026-04-19T18:06:28Z</time></trkpt><trkpt lat="40.932669872460714" lon="15.673938228495667"><ele>672.0</ele><time>2026-04-19T18:06:29Z</time></trkpt><trkpt lat="40.93257084273602" lon="15.67377394145941"><ele>672.0</ele><time>2026-04-19T18:06:30Z</time></trkpt><trkpt lat="40.93246299269312" lon="15.673613220983814"><ele>672.0</ele><time>2026-04-19T18:06:31Z</time></trkpt><trkpt lat="40.93234752356274" lon="15.673463353554284"><ele>670.3333333333334</ele><time>2026-04-19T18:06:32Z</time></trkpt><trkpt lat="40.9322250892103" lon="15.67330612029939"><ele>668.6666666666667</ele><time>2026-04-19T18:06:33Z</time></trkpt><trkpt lat="40.93211346121993" lon="15.673126622279664"><ele>667.0</ele><time>2026-04-19T18:06:34Z</time></trkpt><trkpt lat="40.93199474266446" lon="15.672980328465282"><ele>667.0</ele><time>2026-04-19T18:06:35Z</time></trkpt><trkpt lat="40.93186289192655" lon="15.672862581582583"><ele>667.0</ele><time>2026-04-19T18:06:36Z</time></trkpt><trkpt lat="40.931730137632506" lon="15.672729364077714"><ele>667.0</ele><time>2026-04-19T18:06:37Z</time></trkpt><trkpt lat="40.9315802889908" lon="15.672610667614668"><ele>665.6666666666667</ele><time>2026-04-19T18:06:38Z</time></trkpt><trkpt lat="40.93141121785261" lon="15.672505183478123"><ele>664.3333333333334</ele><time>2026-04-19T18:06:39Z</time></trkpt><trkpt lat="40.93125698899176" lon="15.672426362638841"><ele>663.0</ele><time>2026-04-19T18:06:40Z</time></trkpt><trkpt lat="40.931107231783486" lon="15.672364705723531"><ele>663.0</ele><time>2026-04-19T18:06:41Z</time></trkpt><trkpt lat="40.93096244235151" lon="15.672327938151197"><ele>663.0</ele><time>2026-04-19T18:06:42Z</time></trkpt><trkpt lat="40.93080848676218" lon="15.672281714543407"><ele>663.0</ele><time>2026-04-19T18:06:43Z</time></trkpt><trkpt lat="40.930636863281514" lon="15.672263969295972"><ele>662.3333333333334</ele><time>2026-04-19T18:06:44Z</time></trkpt><trkpt lat="40.930463933748044" lon="15.672273346825454"><ele>661.6666666666667</ele><time>2026-04-19T18:06:45Z</time></trkpt><trkpt lat="40.93028444740209" lon="15.67229972327077"><ele>661.0</ele><time>2026-04-19T18:06:46Z</time></trkpt><trkpt lat="40.93010855395801" lon="15.672326700309924"><ele>662.0</ele><time>2026-04-19T18:06:47Z</time></trkpt><trkpt lat="40.92992806847587" lon="15.672354078814244"><ele>663.0</ele><time>2026-04-19T18:06:48Z</time></trkpt><trkpt lat="40.929750387101855" lon="15.67238084856193"><ele>664.0</ele><time>2026-04-19T18:06:49Z</time></trkpt><trkpt lat="40.92957448411965" lon="15.672425193547799"><ele>664.0</ele><time>2026-04-19T18:06:50Z</time></trkpt><trkpt lat="40.92939654744788" lon="15.672434711888"><ele>664.0</ele><time>2026-04-19T18:06:51Z</time></trkpt><trkpt lat="40.929232433521115" lon="15.672419099049467"><ele>664.0</ele><time>2026-04-19T18:06:52Z</time></trkpt><trkpt lat="40.929053752335484" lon="15.672355270179224"><ele>665.0</ele><time>2026-04-19T18:06:53Z</time></trkpt><trkpt lat="40.9288854965899" lon="15.67232987615833"><ele>666.0</ele><time>2026-04-19T18:06:54Z</time></trkpt><trkpt lat="40.92873123244298" lon="15.672282085423443"><ele>667.0</ele><time>2026-04-19T18:06:55Z</time></trkpt><trkpt lat="40.928579039700125" lon="15.67224791540376"><ele>667.0</ele><time>2026-04-19T18:06:56Z</time></trkpt><trkpt lat="40.92844308126971" lon="15.672217067123816"><ele>667.0</ele><time>2026-04-19T18:06:57Z</time></trkpt><trkpt lat="40.9283188040623" lon="15.672187688968865"><ele>667.0</ele><time>2026-04-19T18:06:58Z</time></trkpt><trkpt lat="40.928209279368986" lon="15.67213980831643"><ele>667.0</ele><time>2026-04-19T18:06:59Z</time></trkpt><trkpt lat="40.928106563171454" lon="15.672131959743043"><ele>667.0</ele><time>2026-04-19T18:07:00Z</time></trkpt><trkpt lat="40.928014666824176" lon="15.672103808203463"><ele>667.0</ele><time>2026-04-19T18:07:01Z</time></trkpt><trkpt lat="40.92793757256814" lon="15.672078971335939"><ele>667.0</ele><time>2026-04-19T18:07:02Z</time></trkpt><trkpt lat="40.92787082110779" lon="15.672051994883052"><ele>667.0</ele><time>2026-04-19T18:07:03Z</time></trkpt><trkpt lat="40.92780285911402" lon="15.671993118742789"><ele>667.0</ele><time>2026-04-19T18:07:05Z</time></trkpt><trkpt lat="40.92775669990931" lon="15.671907759836417"><ele>667.0</ele><time>2026-04-19T18:07:08Z</time></trkpt><trkpt lat="40.92771535620132" lon="15.671781167171273"><ele>667.0</ele><time>2026-04-19T18:07:10Z</time></trkpt><trkpt lat="40.92766855855671" lon="15.671708266590375"><ele>667.0</ele><time>2026-04-19T18:07:11Z</time></trkpt><trkpt lat="40.92760574154593" lon="15.671632012970306"><ele>667.0</ele><time>2026-04-19T18:07:12Z</time></trkpt><trkpt lat="40.92754181657068" lon="15.671529810027288"><ele>667.0</ele><time>2026-04-19T18:07:14Z</time></trkpt><trkpt lat="40.927564248651954" lon="15.671439097081857"><ele>667.0</ele><time>2026-04-19T18:07:16Z</time></trkpt><trkpt lat="40.92760526102483" lon="15.671359540224788"><ele>667.0</ele><time>2026-04-19T18:07:17Z</time></trkpt><trkpt lat="40.9276899024062" lon="15.671294047732113"><ele>667.0</ele><time>2026-04-19T18:07:18Z</time></trkpt><trkpt lat="40.927746950734644" lon="15.671230287802896"><ele>667.0</ele><time>2026-04-19T18:07:19Z</time></trkpt><trkpt lat="40.927817683549115" lon="15.671139013783657"><ele>667.0</ele><time>2026-04-19T18:07:21Z</time></trkpt><trkpt lat="40.92787865160705" lon="15.671086937782349"><ele>665.0</ele><time>2026-04-19T18:07:24Z</time></trkpt><trkpt lat="40.92793650176773" lon="15.671026719416867"><ele>665.0</ele><time>2026-04-19T18:07:27Z</time></trkpt></trkseg></trk></gpx>